<?xml version="1.0" encoding="UTF-8" standalone="no" ?>
<gpx xmlns="http://www.topografix.com/GPX/1/1" xmlns:xsi="http://www.w3.org/2001/XMLSchema-instance" xsi:schemaLocation="http://www.topografix.com/GPX/1/1 http://www.topografix.com/GPX/1/1/gpx.xsd" version="1.1" creator="VisuGPX - https://www.visugpx.com">
  <metadata>
    <name>Clohars-Carnoët - Moelan</name>
  </metadata>
  <trk>
    <name><![CDATA[Clohars-Carnoët Gravel bike]]></name>
    <trkseg>
      <trkpt lat="47.8024" lon="-3.52756">
        <ele>16</ele>
        <time>2019-08-15T07:40:35.000Z</time>
      </trkpt>
      <trkpt lat="47.80246" lon="-3.52752">
        <ele>15.800000190735</ele>
        <time>2019-08-15T07:40:36.000Z</time>
      </trkpt>
      <trkpt lat="47.80255" lon="-3.52741">
        <ele>15.39999961853</ele>
        <time>2019-08-15T07:40:38.000Z</time>
      </trkpt>
      <trkpt lat="47.80258" lon="-3.52736">
        <ele>15.199999809265</ele>
        <time>2019-08-15T07:40:39.000Z</time>
      </trkpt>
      <trkpt lat="47.80276" lon="-3.52715">
        <ele>14.39999961853</ele>
        <time>2019-08-15T07:40:43.000Z</time>
      </trkpt>
      <trkpt lat="47.80286" lon="-3.52705">
        <ele>13.60000038147</ele>
        <time>2019-08-15T07:40:45.000Z</time>
      </trkpt>
      <trkpt lat="47.80291" lon="-3.52701">
        <ele>13.199999809265</ele>
        <time>2019-08-15T07:40:46.000Z</time>
      </trkpt>
      <trkpt lat="47.80295" lon="-3.52698">
        <ele>13</ele>
        <time>2019-08-15T07:40:47.000Z</time>
      </trkpt>
      <trkpt lat="47.80306" lon="-3.52696">
        <ele>12.39999961853</ele>
        <time>2019-08-15T07:40:49.000Z</time>
      </trkpt>
      <trkpt lat="47.80316" lon="-3.52695">
        <ele>11.39999961853</ele>
        <time>2019-08-15T07:40:51.000Z</time>
      </trkpt>
      <trkpt lat="47.80325" lon="-3.52697">
        <ele>10</ele>
        <time>2019-08-15T07:40:53.000Z</time>
      </trkpt>
      <trkpt lat="47.8033" lon="-3.52697">
        <ele>9.6000003814697</ele>
        <time>2019-08-15T07:40:54.000Z</time>
      </trkpt>
      <trkpt lat="47.80334" lon="-3.52701">
        <ele>8.6000003814697</ele>
        <time>2019-08-15T07:40:55.000Z</time>
      </trkpt>
      <trkpt lat="47.80337" lon="-3.52705">
        <ele>8.1999998092651</ele>
        <time>2019-08-15T07:40:56.000Z</time>
      </trkpt>
      <trkpt lat="47.80342" lon="-3.52707">
        <ele>7.8000001907349</ele>
        <time>2019-08-15T07:40:57.000Z</time>
      </trkpt>
      <trkpt lat="47.8035" lon="-3.5271">
        <ele>7.1999998092651</ele>
        <time>2019-08-15T07:40:59.000Z</time>
      </trkpt>
      <trkpt lat="47.80359" lon="-3.52712">
        <ele>6.5999999046326</ele>
        <time>2019-08-15T07:41:01.000Z</time>
      </trkpt>
      <trkpt lat="47.80379" lon="-3.52718">
        <ele>6.1999998092651</ele>
        <time>2019-08-15T07:41:04.000Z</time>
      </trkpt>
      <trkpt lat="47.80385" lon="-3.52719">
        <ele>6.1999998092651</ele>
        <time>2019-08-15T07:41:05.000Z</time>
      </trkpt>
      <trkpt lat="47.80401" lon="-3.52722">
        <ele>5.4000000953674</ele>
        <time>2019-08-15T07:41:08.000Z</time>
      </trkpt>
      <trkpt lat="47.80409" lon="-3.52725">
        <ele>5.1999998092651</ele>
        <time>2019-08-15T07:41:10.000Z</time>
      </trkpt>
      <trkpt lat="47.80413" lon="-3.52725">
        <ele>4.4000000953674</ele>
        <time>2019-08-15T07:41:14.000Z</time>
      </trkpt>
      <trkpt lat="47.80413" lon="-3.52725">
        <ele>3.5999999046326</ele>
        <time>2019-08-15T07:41:40.000Z</time>
      </trkpt>
      <trkpt lat="47.80424" lon="-3.52726">
        <ele>3.7999999523163</ele>
        <time>2019-08-15T07:41:48.000Z</time>
      </trkpt>
      <trkpt lat="47.80445" lon="-3.52726">
        <ele>3.7999999523163</ele>
        <time>2019-08-15T07:41:53.000Z</time>
      </trkpt>
      <trkpt lat="47.80476" lon="-3.52728">
        <ele>4.1999998092651</ele>
        <time>2019-08-15T07:42:00.000Z</time>
      </trkpt>
      <trkpt lat="47.80495" lon="-3.52728">
        <ele>4.4000000953674</ele>
        <time>2019-08-15T07:42:05.000Z</time>
      </trkpt>
      <trkpt lat="47.80499" lon="-3.52727">
        <ele>4.4000000953674</ele>
        <time>2019-08-15T07:42:06.000Z</time>
      </trkpt>
      <trkpt lat="47.80503" lon="-3.52727">
        <ele>4.4000000953674</ele>
        <time>2019-08-15T07:42:07.000Z</time>
      </trkpt>
      <trkpt lat="47.80511" lon="-3.52726">
        <ele>4.5999999046326</ele>
        <time>2019-08-15T07:42:09.000Z</time>
      </trkpt>
      <trkpt lat="47.80526" lon="-3.52723">
        <ele>5.1999998092651</ele>
        <time>2019-08-15T07:42:13.000Z</time>
      </trkpt>
      <trkpt lat="47.8053" lon="-3.52722">
        <ele>5.4000000953674</ele>
        <time>2019-08-15T07:42:14.000Z</time>
      </trkpt>
      <trkpt lat="47.80537" lon="-3.5272">
        <ele>6</ele>
        <time>2019-08-15T07:42:16.000Z</time>
      </trkpt>
      <trkpt lat="47.80542" lon="-3.52716">
        <ele>6.4000000953674</ele>
        <time>2019-08-15T07:42:18.000Z</time>
      </trkpt>
      <trkpt lat="47.80549" lon="-3.52713">
        <ele>7</ele>
        <time>2019-08-15T07:42:21.000Z</time>
      </trkpt>
      <trkpt lat="47.80551" lon="-3.52712">
        <ele>7.1999998092651</ele>
        <time>2019-08-15T07:42:22.000Z</time>
      </trkpt>
      <trkpt lat="47.80555" lon="-3.5271">
        <ele>7.4000000953674</ele>
        <time>2019-08-15T07:42:23.000Z</time>
      </trkpt>
      <trkpt lat="47.80558" lon="-3.52708">
        <ele>7.4000000953674</ele>
        <time>2019-08-15T07:42:24.000Z</time>
      </trkpt>
      <trkpt lat="47.80576" lon="-3.52698">
        <ele>8</ele>
        <time>2019-08-15T07:42:29.000Z</time>
      </trkpt>
      <trkpt lat="47.8058" lon="-3.52696">
        <ele>8.1999998092651</ele>
        <time>2019-08-15T07:42:30.000Z</time>
      </trkpt>
      <trkpt lat="47.80583" lon="-3.52694">
        <ele>8.3999996185303</ele>
        <time>2019-08-15T07:42:31.000Z</time>
      </trkpt>
      <trkpt lat="47.80587" lon="-3.52691">
        <ele>8.3999996185303</ele>
        <time>2019-08-15T07:42:32.000Z</time>
      </trkpt>
      <trkpt lat="47.80599" lon="-3.52687">
        <ele>8.3999996185303</ele>
        <time>2019-08-15T07:42:36.000Z</time>
      </trkpt>
      <trkpt lat="47.80603" lon="-3.52685">
        <ele>8.3999996185303</ele>
        <time>2019-08-15T07:42:37.000Z</time>
      </trkpt>
      <trkpt lat="47.80606" lon="-3.52683">
        <ele>8.3999996185303</ele>
        <time>2019-08-15T07:42:38.000Z</time>
      </trkpt>
      <trkpt lat="47.80615" lon="-3.52679">
        <ele>8.6000003814697</ele>
        <time>2019-08-15T07:42:40.000Z</time>
      </trkpt>
      <trkpt lat="47.80619" lon="-3.52678">
        <ele>8.6000003814697</ele>
        <time>2019-08-15T07:42:41.000Z</time>
      </trkpt>
      <trkpt lat="47.80623" lon="-3.52677">
        <ele>8.6000003814697</ele>
        <time>2019-08-15T07:42:42.000Z</time>
      </trkpt>
      <trkpt lat="47.8063" lon="-3.52675">
        <ele>9</ele>
        <time>2019-08-15T07:42:44.000Z</time>
      </trkpt>
      <trkpt lat="47.80642" lon="-3.52668">
        <ele>9.3999996185303</ele>
        <time>2019-08-15T07:42:47.000Z</time>
      </trkpt>
      <trkpt lat="47.80646" lon="-3.52667">
        <ele>9.3999996185303</ele>
        <time>2019-08-15T07:42:48.000Z</time>
      </trkpt>
      <trkpt lat="47.80652" lon="-3.52664">
        <ele>9.6000003814697</ele>
        <time>2019-08-15T07:42:50.000Z</time>
      </trkpt>
      <trkpt lat="47.80657" lon="-3.5266">
        <ele>9.8000001907349</ele>
        <time>2019-08-15T07:42:51.000Z</time>
      </trkpt>
      <trkpt lat="47.8066" lon="-3.52658">
        <ele>9.8000001907349</ele>
        <time>2019-08-15T07:42:52.000Z</time>
      </trkpt>
      <trkpt lat="47.80669" lon="-3.52654">
        <ele>9.8000001907349</ele>
        <time>2019-08-15T07:42:54.000Z</time>
      </trkpt>
      <trkpt lat="47.80677" lon="-3.52651">
        <ele>10.199999809265</ele>
        <time>2019-08-15T07:42:56.000Z</time>
      </trkpt>
      <trkpt lat="47.80685" lon="-3.52649">
        <ele>10.39999961853</ele>
        <time>2019-08-15T07:42:58.000Z</time>
      </trkpt>
      <trkpt lat="47.80689" lon="-3.52649">
        <ele>10.60000038147</ele>
        <time>2019-08-15T07:42:59.000Z</time>
      </trkpt>
      <trkpt lat="47.80693" lon="-3.52649">
        <ele>10.39999961853</ele>
        <time>2019-08-15T07:43:00.000Z</time>
      </trkpt>
      <trkpt lat="47.80697" lon="-3.52647">
        <ele>10.60000038147</ele>
        <time>2019-08-15T07:43:01.000Z</time>
      </trkpt>
      <trkpt lat="47.80701" lon="-3.52646">
        <ele>10.39999961853</ele>
        <time>2019-08-15T07:43:02.000Z</time>
      </trkpt>
      <trkpt lat="47.80705" lon="-3.52644">
        <ele>10.39999961853</ele>
        <time>2019-08-15T07:43:03.000Z</time>
      </trkpt>
      <trkpt lat="47.8071" lon="-3.52642">
        <ele>10.39999961853</ele>
        <time>2019-08-15T07:43:04.000Z</time>
      </trkpt>
      <trkpt lat="47.80715" lon="-3.52639">
        <ele>10.60000038147</ele>
        <time>2019-08-15T07:43:05.000Z</time>
      </trkpt>
      <trkpt lat="47.8072" lon="-3.52635">
        <ele>10.60000038147</ele>
        <time>2019-08-15T07:43:06.000Z</time>
      </trkpt>
      <trkpt lat="47.80725" lon="-3.52631">
        <ele>10.800000190735</ele>
        <time>2019-08-15T07:43:07.000Z</time>
      </trkpt>
      <trkpt lat="47.8073" lon="-3.52629">
        <ele>10.800000190735</ele>
        <time>2019-08-15T07:43:08.000Z</time>
      </trkpt>
      <trkpt lat="47.80734" lon="-3.52627">
        <ele>10.800000190735</ele>
        <time>2019-08-15T07:43:09.000Z</time>
      </trkpt>
      <trkpt lat="47.80738" lon="-3.52626">
        <ele>10.800000190735</ele>
        <time>2019-08-15T07:43:10.000Z</time>
      </trkpt>
      <trkpt lat="47.80745" lon="-3.52624">
        <ele>10.800000190735</ele>
        <time>2019-08-15T07:43:12.000Z</time>
      </trkpt>
      <trkpt lat="47.80748" lon="-3.52623">
        <ele>11</ele>
        <time>2019-08-15T07:43:13.000Z</time>
      </trkpt>
      <trkpt lat="47.80752" lon="-3.52621">
        <ele>11</ele>
        <time>2019-08-15T07:43:14.000Z</time>
      </trkpt>
      <trkpt lat="47.80757" lon="-3.5262">
        <ele>11.199999809265</ele>
        <time>2019-08-15T07:43:16.000Z</time>
      </trkpt>
      <trkpt lat="47.80759" lon="-3.52618">
        <ele>11.199999809265</ele>
        <time>2019-08-15T07:43:17.000Z</time>
      </trkpt>
      <trkpt lat="47.80762" lon="-3.52616">
        <ele>11.39999961853</ele>
        <time>2019-08-15T07:43:18.000Z</time>
      </trkpt>
      <trkpt lat="47.80765" lon="-3.52616">
        <ele>11.39999961853</ele>
        <time>2019-08-15T07:43:19.000Z</time>
      </trkpt>
      <trkpt lat="47.80768" lon="-3.52616">
        <ele>11.39999961853</ele>
        <time>2019-08-15T07:43:20.000Z</time>
      </trkpt>
      <trkpt lat="47.80777" lon="-3.52615">
        <ele>12</ele>
        <time>2019-08-15T07:43:23.000Z</time>
      </trkpt>
      <trkpt lat="47.80781" lon="-3.52613">
        <ele>12.199999809265</ele>
        <time>2019-08-15T07:43:24.000Z</time>
      </trkpt>
      <trkpt lat="47.80788" lon="-3.5261">
        <ele>12.39999961853</ele>
        <time>2019-08-15T07:43:26.000Z</time>
      </trkpt>
      <trkpt lat="47.8079" lon="-3.5261">
        <ele>12.60000038147</ele>
        <time>2019-08-15T07:43:27.000Z</time>
      </trkpt>
      <trkpt lat="47.80792" lon="-3.5261">
        <ele>12.800000190735</ele>
        <time>2019-08-15T07:43:28.000Z</time>
      </trkpt>
      <trkpt lat="47.80798" lon="-3.52607">
        <ele>12.60000038147</ele>
        <time>2019-08-15T07:43:29.000Z</time>
      </trkpt>
      <trkpt lat="47.80801" lon="-3.52604">
        <ele>12.800000190735</ele>
        <time>2019-08-15T07:43:30.000Z</time>
      </trkpt>
      <trkpt lat="47.80803" lon="-3.52603">
        <ele>12.800000190735</ele>
        <time>2019-08-15T07:43:31.000Z</time>
      </trkpt>
      <trkpt lat="47.80819" lon="-3.52598">
        <ele>14.199999809265</ele>
        <time>2019-08-15T07:43:37.000Z</time>
      </trkpt>
      <trkpt lat="47.80836" lon="-3.52591">
        <ele>14.39999961853</ele>
        <time>2019-08-15T07:43:42.000Z</time>
      </trkpt>
      <trkpt lat="47.80839" lon="-3.52589">
        <ele>14.39999961853</ele>
        <time>2019-08-15T07:43:43.000Z</time>
      </trkpt>
      <trkpt lat="47.80843" lon="-3.52588">
        <ele>14.199999809265</ele>
        <time>2019-08-15T07:43:44.000Z</time>
      </trkpt>
      <trkpt lat="47.8085" lon="-3.52585">
        <ele>14.39999961853</ele>
        <time>2019-08-15T07:43:46.000Z</time>
      </trkpt>
      <trkpt lat="47.80853" lon="-3.52584">
        <ele>14.39999961853</ele>
        <time>2019-08-15T07:43:47.000Z</time>
      </trkpt>
      <trkpt lat="47.80864" lon="-3.52578">
        <ele>14.39999961853</ele>
        <time>2019-08-15T07:43:49.000Z</time>
      </trkpt>
      <trkpt lat="47.80866" lon="-3.52576">
        <ele>14.800000190735</ele>
        <time>2019-08-15T07:43:50.000Z</time>
      </trkpt>
      <trkpt lat="47.80869" lon="-3.52574">
        <ele>14.60000038147</ele>
        <time>2019-08-15T07:43:51.000Z</time>
      </trkpt>
      <trkpt lat="47.80874" lon="-3.52572">
        <ele>14.800000190735</ele>
        <time>2019-08-15T07:43:53.000Z</time>
      </trkpt>
      <trkpt lat="47.80881" lon="-3.52568">
        <ele>15</ele>
        <time>2019-08-15T07:43:54.000Z</time>
      </trkpt>
      <trkpt lat="47.80885" lon="-3.52566">
        <ele>14.800000190735</ele>
        <time>2019-08-15T07:43:55.000Z</time>
      </trkpt>
      <trkpt lat="47.80898" lon="-3.5256">
        <ele>15</ele>
        <time>2019-08-15T07:43:59.000Z</time>
      </trkpt>
      <trkpt lat="47.809" lon="-3.52559">
        <ele>14.800000190735</ele>
        <time>2019-08-15T07:44:00.000Z</time>
      </trkpt>
      <trkpt lat="47.80907" lon="-3.52556">
        <ele>14.800000190735</ele>
        <time>2019-08-15T07:44:02.000Z</time>
      </trkpt>
      <trkpt lat="47.8092" lon="-3.52553">
        <ele>14.800000190735</ele>
        <time>2019-08-15T07:44:08.000Z</time>
      </trkpt>
      <trkpt lat="47.80921" lon="-3.52557">
        <ele>14.60000038147</ele>
        <time>2019-08-15T07:44:11.000Z</time>
      </trkpt>
      <trkpt lat="47.80919" lon="-3.52557">
        <ele>14.60000038147</ele>
        <time>2019-08-15T07:44:12.000Z</time>
      </trkpt>
      <trkpt lat="47.80911" lon="-3.5256">
        <ele>14.800000190735</ele>
        <time>2019-08-15T07:44:16.000Z</time>
      </trkpt>
      <trkpt lat="47.80898" lon="-3.52568">
        <ele>15</ele>
        <time>2019-08-15T07:44:22.000Z</time>
      </trkpt>
      <trkpt lat="47.80896" lon="-3.5257">
        <ele>14.800000190735</ele>
        <time>2019-08-15T07:44:23.000Z</time>
      </trkpt>
      <trkpt lat="47.80894" lon="-3.52571">
        <ele>15</ele>
        <time>2019-08-15T07:44:24.000Z</time>
      </trkpt>
      <trkpt lat="47.80889" lon="-3.52574">
        <ele>15</ele>
        <time>2019-08-15T07:44:26.000Z</time>
      </trkpt>
      <trkpt lat="47.80888" lon="-3.52576">
        <ele>14.800000190735</ele>
        <time>2019-08-15T07:44:27.000Z</time>
      </trkpt>
      <trkpt lat="47.80888" lon="-3.52577">
        <ele>15.199999809265</ele>
        <time>2019-08-15T07:44:28.000Z</time>
      </trkpt>
      <trkpt lat="47.80889" lon="-3.52582">
        <ele>15</ele>
        <time>2019-08-15T07:44:30.000Z</time>
      </trkpt>
      <trkpt lat="47.8089" lon="-3.52585">
        <ele>15.199999809265</ele>
        <time>2019-08-15T07:44:31.000Z</time>
      </trkpt>
      <trkpt lat="47.80891" lon="-3.52587">
        <ele>15.199999809265</ele>
        <time>2019-08-15T07:44:32.000Z</time>
      </trkpt>
      <trkpt lat="47.80895" lon="-3.52591">
        <ele>15.39999961853</ele>
        <time>2019-08-15T07:44:35.000Z</time>
      </trkpt>
      <trkpt lat="47.80905" lon="-3.52599">
        <ele>16.200000762939</ele>
        <time>2019-08-15T07:44:39.000Z</time>
      </trkpt>
      <trkpt lat="47.80907" lon="-3.52602">
        <ele>16.39999961853</ele>
        <time>2019-08-15T07:44:40.000Z</time>
      </trkpt>
      <trkpt lat="47.80909" lon="-3.52605">
        <ele>16.39999961853</ele>
        <time>2019-08-15T07:44:41.000Z</time>
      </trkpt>
      <trkpt lat="47.80911" lon="-3.52608">
        <ele>16.39999961853</ele>
        <time>2019-08-15T07:44:42.000Z</time>
      </trkpt>
      <trkpt lat="47.80917" lon="-3.52617">
        <ele>17</ele>
        <time>2019-08-15T07:44:45.000Z</time>
      </trkpt>
      <trkpt lat="47.80917" lon="-3.52617">
        <ele>17</ele>
        <time>2019-08-15T07:44:46.000Z</time>
      </trkpt>
      <trkpt lat="47.80921" lon="-3.52631">
        <ele>17.39999961853</ele>
        <time>2019-08-15T07:44:48.000Z</time>
      </trkpt>
      <trkpt lat="47.80921" lon="-3.52631">
        <ele>17.799999237061</ele>
        <time>2019-08-15T07:44:49.000Z</time>
      </trkpt>
      <trkpt lat="47.80926" lon="-3.52641">
        <ele>18.200000762939</ele>
        <time>2019-08-15T07:44:52.000Z</time>
      </trkpt>
      <trkpt lat="47.80932" lon="-3.52652">
        <ele>18.60000038147</ele>
        <time>2019-08-15T07:44:54.000Z</time>
      </trkpt>
      <trkpt lat="47.80935" lon="-3.5266">
        <ele>19.200000762939</ele>
        <time>2019-08-15T07:44:56.000Z</time>
      </trkpt>
      <trkpt lat="47.80936" lon="-3.52664">
        <ele>19.200000762939</ele>
        <time>2019-08-15T07:44:57.000Z</time>
      </trkpt>
      <trkpt lat="47.8094" lon="-3.52672">
        <ele>19.39999961853</ele>
        <time>2019-08-15T07:44:59.000Z</time>
      </trkpt>
      <trkpt lat="47.80947" lon="-3.52695">
        <ele>21</ele>
        <time>2019-08-15T07:45:05.000Z</time>
      </trkpt>
      <trkpt lat="47.80953" lon="-3.52715">
        <ele>22.200000762939</ele>
        <time>2019-08-15T07:45:11.000Z</time>
      </trkpt>
      <trkpt lat="47.80961" lon="-3.52735">
        <ele>24.200000762939</ele>
        <time>2019-08-15T07:45:18.000Z</time>
      </trkpt>
      <trkpt lat="47.80963" lon="-3.52741">
        <ele>24.39999961853</ele>
        <time>2019-08-15T07:45:20.000Z</time>
      </trkpt>
      <trkpt lat="47.80965" lon="-3.52747">
        <ele>24.799999237061</ele>
        <time>2019-08-15T07:45:22.000Z</time>
      </trkpt>
      <trkpt lat="47.80967" lon="-3.5275">
        <ele>25</ele>
        <time>2019-08-15T07:45:23.000Z</time>
      </trkpt>
      <trkpt lat="47.80968" lon="-3.52753">
        <ele>25.200000762939</ele>
        <time>2019-08-15T07:45:24.000Z</time>
      </trkpt>
      <trkpt lat="47.80971" lon="-3.52758">
        <ele>25.60000038147</ele>
        <time>2019-08-15T07:45:26.000Z</time>
      </trkpt>
      <trkpt lat="47.80972" lon="-3.52761">
        <ele>25.799999237061</ele>
        <time>2019-08-15T07:45:27.000Z</time>
      </trkpt>
      <trkpt lat="47.80974" lon="-3.52765">
        <ele>26.39999961853</ele>
        <time>2019-08-15T07:45:29.000Z</time>
      </trkpt>
      <trkpt lat="47.80977" lon="-3.52771">
        <ele>26.60000038147</ele>
        <time>2019-08-15T07:45:31.000Z</time>
      </trkpt>
      <trkpt lat="47.80979" lon="-3.52775">
        <ele>27.799999237061</ele>
        <time>2019-08-15T07:45:33.000Z</time>
      </trkpt>
      <trkpt lat="47.8098" lon="-3.52778">
        <ele>28</ele>
        <time>2019-08-15T07:45:34.000Z</time>
      </trkpt>
      <trkpt lat="47.80982" lon="-3.52785">
        <ele>28.39999961853</ele>
        <time>2019-08-15T07:45:36.000Z</time>
      </trkpt>
      <trkpt lat="47.80983" lon="-3.52789">
        <ele>28.60000038147</ele>
        <time>2019-08-15T07:45:37.000Z</time>
      </trkpt>
      <trkpt lat="47.80985" lon="-3.52798">
        <ele>29.200000762939</ele>
        <time>2019-08-15T07:45:40.000Z</time>
      </trkpt>
      <trkpt lat="47.80992" lon="-3.52813">
        <ele>30.39999961853</ele>
        <time>2019-08-15T07:45:45.000Z</time>
      </trkpt>
      <trkpt lat="47.80993" lon="-3.52821">
        <ele>30.39999961853</ele>
        <time>2019-08-15T07:45:48.000Z</time>
      </trkpt>
      <trkpt lat="47.80994" lon="-3.52825">
        <ele>30.60000038147</ele>
        <time>2019-08-15T07:45:49.000Z</time>
      </trkpt>
      <trkpt lat="47.80994" lon="-3.52829">
        <ele>30.60000038147</ele>
        <time>2019-08-15T07:45:50.000Z</time>
      </trkpt>
      <trkpt lat="47.80995" lon="-3.52835">
        <ele>31.200000762939</ele>
        <time>2019-08-15T07:45:52.000Z</time>
      </trkpt>
      <trkpt lat="47.80994" lon="-3.5284">
        <ele>31.200000762939</ele>
        <time>2019-08-15T07:45:53.000Z</time>
      </trkpt>
      <trkpt lat="47.80994" lon="-3.52844">
        <ele>31.39999961853</ele>
        <time>2019-08-15T07:45:54.000Z</time>
      </trkpt>
      <trkpt lat="47.80994" lon="-3.52855">
        <ele>32</ele>
        <time>2019-08-15T07:45:57.000Z</time>
      </trkpt>
      <trkpt lat="47.80993" lon="-3.52858">
        <ele>32.200000762939</ele>
        <time>2019-08-15T07:45:59.000Z</time>
      </trkpt>
      <trkpt lat="47.80991" lon="-3.52863">
        <ele>32.400001525879</ele>
        <time>2019-08-15T07:46:01.000Z</time>
      </trkpt>
      <trkpt lat="47.80991" lon="-3.52865">
        <ele>32.599998474121</ele>
        <time>2019-08-15T07:46:02.000Z</time>
      </trkpt>
      <trkpt lat="47.80989" lon="-3.52873">
        <ele>33.200000762939</ele>
        <time>2019-08-15T07:46:05.000Z</time>
      </trkpt>
      <trkpt lat="47.80987" lon="-3.52875">
        <ele>33.200000762939</ele>
        <time>2019-08-15T07:46:06.000Z</time>
      </trkpt>
      <trkpt lat="47.80983" lon="-3.52883">
        <ele>33.400001525879</ele>
        <time>2019-08-15T07:46:09.000Z</time>
      </trkpt>
      <trkpt lat="47.80983" lon="-3.52883">
        <ele>33.599998474121</ele>
        <time>2019-08-15T07:46:10.000Z</time>
      </trkpt>
      <trkpt lat="47.80977" lon="-3.52891">
        <ele>33.799999237061</ele>
        <time>2019-08-15T07:46:13.000Z</time>
      </trkpt>
      <trkpt lat="47.80975" lon="-3.52895">
        <ele>34</ele>
        <time>2019-08-15T07:46:14.000Z</time>
      </trkpt>
      <trkpt lat="47.80971" lon="-3.52899">
        <ele>34.400001525879</ele>
        <time>2019-08-15T07:46:17.000Z</time>
      </trkpt>
      <trkpt lat="47.80954" lon="-3.52913">
        <ele>35.400001525879</ele>
        <time>2019-08-15T07:46:24.000Z</time>
      </trkpt>
      <trkpt lat="47.80952" lon="-3.52914">
        <ele>35.599998474121</ele>
        <time>2019-08-15T07:46:25.000Z</time>
      </trkpt>
      <trkpt lat="47.80946" lon="-3.52922">
        <ele>35.799999237061</ele>
        <time>2019-08-15T07:46:30.000Z</time>
      </trkpt>
      <trkpt lat="47.80935" lon="-3.52932">
        <ele>36.200000762939</ele>
        <time>2019-08-15T07:46:33.000Z</time>
      </trkpt>
      <trkpt lat="47.80932" lon="-3.52934">
        <ele>36.200000762939</ele>
        <time>2019-08-15T07:46:34.000Z</time>
      </trkpt>
      <trkpt lat="47.80929" lon="-3.52935">
        <ele>36.200000762939</ele>
        <time>2019-08-15T07:46:35.000Z</time>
      </trkpt>
      <trkpt lat="47.80927" lon="-3.52937">
        <ele>36.400001525879</ele>
        <time>2019-08-15T07:46:36.000Z</time>
      </trkpt>
      <trkpt lat="47.80925" lon="-3.52938">
        <ele>36.400001525879</ele>
        <time>2019-08-15T07:46:37.000Z</time>
      </trkpt>
      <trkpt lat="47.80912" lon="-3.52949">
        <ele>37.400001525879</ele>
        <time>2019-08-15T07:46:44.000Z</time>
      </trkpt>
      <trkpt lat="47.80905" lon="-3.52955">
        <ele>37.599998474121</ele>
        <time>2019-08-15T07:46:46.000Z</time>
      </trkpt>
      <trkpt lat="47.809" lon="-3.52963">
        <ele>37.599998474121</ele>
        <time>2019-08-15T07:46:49.000Z</time>
      </trkpt>
      <trkpt lat="47.80895" lon="-3.5297">
        <ele>37.799999237061</ele>
        <time>2019-08-15T07:46:51.000Z</time>
      </trkpt>
      <trkpt lat="47.80886" lon="-3.52981">
        <ele>38</ele>
        <time>2019-08-15T07:46:55.000Z</time>
      </trkpt>
      <trkpt lat="47.80884" lon="-3.52985">
        <ele>38.200000762939</ele>
        <time>2019-08-15T07:46:57.000Z</time>
      </trkpt>
      <trkpt lat="47.8088" lon="-3.52988">
        <ele>38.599998474121</ele>
        <time>2019-08-15T07:46:59.000Z</time>
      </trkpt>
      <trkpt lat="47.80879" lon="-3.52991">
        <ele>38.799999237061</ele>
        <time>2019-08-15T07:47:01.000Z</time>
      </trkpt>
      <trkpt lat="47.80871" lon="-3.53007">
        <ele>39</ele>
        <time>2019-08-15T07:47:06.000Z</time>
      </trkpt>
      <trkpt lat="47.80862" lon="-3.53034">
        <ele>39.799999237061</ele>
        <time>2019-08-15T07:47:13.000Z</time>
      </trkpt>
      <trkpt lat="47.80862" lon="-3.53041">
        <ele>40.200000762939</ele>
        <time>2019-08-15T07:47:16.000Z</time>
      </trkpt>
      <trkpt lat="47.80859" lon="-3.53059">
        <ele>40.799999237061</ele>
        <time>2019-08-15T07:47:20.000Z</time>
      </trkpt>
      <trkpt lat="47.80859" lon="-3.53065">
        <ele>41</ele>
        <time>2019-08-15T07:47:22.000Z</time>
      </trkpt>
      <trkpt lat="47.80857" lon="-3.53069">
        <ele>41.200000762939</ele>
        <time>2019-08-15T07:47:23.000Z</time>
      </trkpt>
      <trkpt lat="47.80855" lon="-3.53081">
        <ele>41.599998474121</ele>
        <time>2019-08-15T07:47:26.000Z</time>
      </trkpt>
      <trkpt lat="47.80853" lon="-3.53098">
        <ele>42.200000762939</ele>
        <time>2019-08-15T07:47:31.000Z</time>
      </trkpt>
      <trkpt lat="47.80852" lon="-3.53102">
        <ele>42.799999237061</ele>
        <time>2019-08-15T07:47:33.000Z</time>
      </trkpt>
      <trkpt lat="47.8085" lon="-3.53107">
        <ele>42.799999237061</ele>
        <time>2019-08-15T07:47:34.000Z</time>
      </trkpt>
      <trkpt lat="47.80846" lon="-3.53114">
        <ele>43.200000762939</ele>
        <time>2019-08-15T07:47:36.000Z</time>
      </trkpt>
      <trkpt lat="47.80845" lon="-3.53116">
        <ele>43.200000762939</ele>
        <time>2019-08-15T07:47:37.000Z</time>
      </trkpt>
      <trkpt lat="47.80844" lon="-3.53119">
        <ele>43.200000762939</ele>
        <time>2019-08-15T07:47:39.000Z</time>
      </trkpt>
      <trkpt lat="47.8084" lon="-3.53127">
        <ele>43.400001525879</ele>
        <time>2019-08-15T07:47:40.000Z</time>
      </trkpt>
      <trkpt lat="47.80824" lon="-3.53149">
        <ele>44</ele>
        <time>2019-08-15T07:47:47.000Z</time>
      </trkpt>
      <trkpt lat="47.80822" lon="-3.53153">
        <ele>44.200000762939</ele>
        <time>2019-08-15T07:47:48.000Z</time>
      </trkpt>
      <trkpt lat="47.8082" lon="-3.53158">
        <ele>44.400001525879</ele>
        <time>2019-08-15T07:47:49.000Z</time>
      </trkpt>
      <trkpt lat="47.80817" lon="-3.53161">
        <ele>44.400001525879</ele>
        <time>2019-08-15T07:47:50.000Z</time>
      </trkpt>
      <trkpt lat="47.80813" lon="-3.53166">
        <ele>44.799999237061</ele>
        <time>2019-08-15T07:47:52.000Z</time>
      </trkpt>
      <trkpt lat="47.80809" lon="-3.53171">
        <ele>45.200000762939</ele>
        <time>2019-08-15T07:47:54.000Z</time>
      </trkpt>
      <trkpt lat="47.80809" lon="-3.53171">
        <ele>45.200000762939</ele>
        <time>2019-08-15T07:47:55.000Z</time>
      </trkpt>
      <trkpt lat="47.80798" lon="-3.53187">
        <ele>45.400001525879</ele>
        <time>2019-08-15T07:47:58.000Z</time>
      </trkpt>
      <trkpt lat="47.80793" lon="-3.53193">
        <ele>45.599998474121</ele>
        <time>2019-08-15T07:48:00.000Z</time>
      </trkpt>
      <trkpt lat="47.8079" lon="-3.53195">
        <ele>45.799999237061</ele>
        <time>2019-08-15T07:48:01.000Z</time>
      </trkpt>
      <trkpt lat="47.80786" lon="-3.53197">
        <ele>45.799999237061</ele>
        <time>2019-08-15T07:48:02.000Z</time>
      </trkpt>
      <trkpt lat="47.80773" lon="-3.53211">
        <ele>46.200000762939</ele>
        <time>2019-08-15T07:48:05.000Z</time>
      </trkpt>
      <trkpt lat="47.80768" lon="-3.53217">
        <ele>46.200000762939</ele>
        <time>2019-08-15T07:48:06.000Z</time>
      </trkpt>
      <trkpt lat="47.80768" lon="-3.53217">
        <ele>46.200000762939</ele>
        <time>2019-08-15T07:48:07.000Z</time>
      </trkpt>
      <trkpt lat="47.80758" lon="-3.53226">
        <ele>46.400001525879</ele>
        <time>2019-08-15T07:48:08.000Z</time>
      </trkpt>
      <trkpt lat="47.8075" lon="-3.53233">
        <ele>46.400001525879</ele>
        <time>2019-08-15T07:48:10.000Z</time>
      </trkpt>
      <trkpt lat="47.80747" lon="-3.53236">
        <ele>46.200000762939</ele>
        <time>2019-08-15T07:48:11.000Z</time>
      </trkpt>
      <trkpt lat="47.80738" lon="-3.53248">
        <ele>45.799999237061</ele>
        <time>2019-08-15T07:48:14.000Z</time>
      </trkpt>
      <trkpt lat="47.80733" lon="-3.53255">
        <ele>45.799999237061</ele>
        <time>2019-08-15T07:48:16.000Z</time>
      </trkpt>
      <trkpt lat="47.80728" lon="-3.53273">
        <ele>45.400001525879</ele>
        <time>2019-08-15T07:48:18.000Z</time>
      </trkpt>
      <trkpt lat="47.80726" lon="-3.53282">
        <ele>45.400001525879</ele>
        <time>2019-08-15T07:48:19.000Z</time>
      </trkpt>
      <trkpt lat="47.80724" lon="-3.53298">
        <ele>45.200000762939</ele>
        <time>2019-08-15T07:48:21.000Z</time>
      </trkpt>
      <trkpt lat="47.80725" lon="-3.53304">
        <ele>45.200000762939</ele>
        <time>2019-08-15T07:48:22.000Z</time>
      </trkpt>
      <trkpt lat="47.80725" lon="-3.5331">
        <ele>45</ele>
        <time>2019-08-15T07:48:23.000Z</time>
      </trkpt>
      <trkpt lat="47.80726" lon="-3.53315">
        <ele>44.799999237061</ele>
        <time>2019-08-15T07:48:24.000Z</time>
      </trkpt>
      <trkpt lat="47.80727" lon="-3.53321">
        <ele>45</ele>
        <time>2019-08-15T07:48:25.000Z</time>
      </trkpt>
      <trkpt lat="47.8073" lon="-3.53328">
        <ele>44.799999237061</ele>
        <time>2019-08-15T07:48:26.000Z</time>
      </trkpt>
      <trkpt lat="47.80734" lon="-3.53338">
        <ele>44.599998474121</ele>
        <time>2019-08-15T07:48:28.000Z</time>
      </trkpt>
      <trkpt lat="47.80743" lon="-3.53352">
        <ele>44.599998474121</ele>
        <time>2019-08-15T07:48:31.000Z</time>
      </trkpt>
      <trkpt lat="47.80752" lon="-3.53368">
        <ele>44.599998474121</ele>
        <time>2019-08-15T07:48:34.000Z</time>
      </trkpt>
      <trkpt lat="47.80752" lon="-3.53368">
        <ele>44.400001525879</ele>
        <time>2019-08-15T07:48:35.000Z</time>
      </trkpt>
      <trkpt lat="47.80759" lon="-3.53379">
        <ele>44.400001525879</ele>
        <time>2019-08-15T07:48:36.000Z</time>
      </trkpt>
      <trkpt lat="47.80772" lon="-3.53403">
        <ele>44.400001525879</ele>
        <time>2019-08-15T07:48:40.000Z</time>
      </trkpt>
      <trkpt lat="47.80778" lon="-3.53414">
        <ele>44.599998474121</ele>
        <time>2019-08-15T07:48:42.000Z</time>
      </trkpt>
      <trkpt lat="47.80791" lon="-3.53438">
        <ele>44.599998474121</ele>
        <time>2019-08-15T07:48:46.000Z</time>
      </trkpt>
      <trkpt lat="47.80796" lon="-3.53449">
        <ele>44.799999237061</ele>
        <time>2019-08-15T07:48:48.000Z</time>
      </trkpt>
      <trkpt lat="47.80807" lon="-3.53469">
        <ele>44.400001525879</ele>
        <time>2019-08-15T07:48:51.000Z</time>
      </trkpt>
      <trkpt lat="47.80812" lon="-3.5348">
        <ele>44.200000762939</ele>
        <time>2019-08-15T07:48:53.000Z</time>
      </trkpt>
      <trkpt lat="47.80816" lon="-3.53487">
        <ele>44.400001525879</ele>
        <time>2019-08-15T07:48:54.000Z</time>
      </trkpt>
      <trkpt lat="47.80818" lon="-3.53492">
        <ele>44.400001525879</ele>
        <time>2019-08-15T07:48:55.000Z</time>
      </trkpt>
      <trkpt lat="47.80832" lon="-3.53513">
        <ele>44.200000762939</ele>
        <time>2019-08-15T07:48:59.000Z</time>
      </trkpt>
      <trkpt lat="47.80835" lon="-3.53517">
        <ele>44.200000762939</ele>
        <time>2019-08-15T07:49:00.000Z</time>
      </trkpt>
      <trkpt lat="47.80841" lon="-3.53526">
        <ele>44.200000762939</ele>
        <time>2019-08-15T07:49:03.000Z</time>
      </trkpt>
      <trkpt lat="47.80847" lon="-3.53538">
        <ele>44.200000762939</ele>
        <time>2019-08-15T07:49:04.000Z</time>
      </trkpt>
      <trkpt lat="47.80859" lon="-3.53558">
        <ele>43.799999237061</ele>
        <time>2019-08-15T07:49:08.000Z</time>
      </trkpt>
      <trkpt lat="47.80865" lon="-3.53571">
        <ele>43.799999237061</ele>
        <time>2019-08-15T07:49:11.000Z</time>
      </trkpt>
      <trkpt lat="47.80868" lon="-3.53574">
        <ele>43.799999237061</ele>
        <time>2019-08-15T07:49:12.000Z</time>
      </trkpt>
      <trkpt lat="47.80871" lon="-3.53577">
        <ele>44</ele>
        <time>2019-08-15T07:49:13.000Z</time>
      </trkpt>
      <trkpt lat="47.80874" lon="-3.5358">
        <ele>44.200000762939</ele>
        <time>2019-08-15T07:49:14.000Z</time>
      </trkpt>
      <trkpt lat="47.80876" lon="-3.53583">
        <ele>44</ele>
        <time>2019-08-15T07:49:15.000Z</time>
      </trkpt>
      <trkpt lat="47.8088" lon="-3.5359">
        <ele>44.599998474121</ele>
        <time>2019-08-15T07:49:17.000Z</time>
      </trkpt>
      <trkpt lat="47.80884" lon="-3.53595">
        <ele>44.599998474121</ele>
        <time>2019-08-15T07:49:18.000Z</time>
      </trkpt>
      <trkpt lat="47.80893" lon="-3.53607">
        <ele>44.799999237061</ele>
        <time>2019-08-15T07:49:21.000Z</time>
      </trkpt>
      <trkpt lat="47.80903" lon="-3.53622">
        <ele>45.200000762939</ele>
        <time>2019-08-15T07:49:25.000Z</time>
      </trkpt>
      <trkpt lat="47.80911" lon="-3.53635">
        <ele>45.400001525879</ele>
        <time>2019-08-15T07:49:28.000Z</time>
      </trkpt>
      <trkpt lat="47.80914" lon="-3.53638">
        <ele>45.400001525879</ele>
        <time>2019-08-15T07:49:29.000Z</time>
      </trkpt>
      <trkpt lat="47.8092" lon="-3.53647">
        <ele>45.400001525879</ele>
        <time>2019-08-15T07:49:31.000Z</time>
      </trkpt>
      <trkpt lat="47.80923" lon="-3.53651">
        <ele>45.200000762939</ele>
        <time>2019-08-15T07:49:32.000Z</time>
      </trkpt>
      <trkpt lat="47.80937" lon="-3.5367">
        <ele>45.400001525879</ele>
        <time>2019-08-15T07:49:36.000Z</time>
      </trkpt>
      <trkpt lat="47.80941" lon="-3.53673">
        <ele>45.400001525879</ele>
        <time>2019-08-15T07:49:37.000Z</time>
      </trkpt>
      <trkpt lat="47.80944" lon="-3.53678">
        <ele>45.799999237061</ele>
        <time>2019-08-15T07:49:38.000Z</time>
      </trkpt>
      <trkpt lat="47.80947" lon="-3.53683">
        <ele>45.599998474121</ele>
        <time>2019-08-15T07:49:39.000Z</time>
      </trkpt>
      <trkpt lat="47.80951" lon="-3.53687">
        <ele>45.799999237061</ele>
        <time>2019-08-15T07:49:40.000Z</time>
      </trkpt>
      <trkpt lat="47.80961" lon="-3.537">
        <ele>46</ele>
        <time>2019-08-15T07:49:43.000Z</time>
      </trkpt>
      <trkpt lat="47.80968" lon="-3.53707">
        <ele>46.400001525879</ele>
        <time>2019-08-15T07:49:45.000Z</time>
      </trkpt>
      <trkpt lat="47.80975" lon="-3.53716">
        <ele>46.400001525879</ele>
        <time>2019-08-15T07:49:47.000Z</time>
      </trkpt>
      <trkpt lat="47.80983" lon="-3.53728">
        <ele>46.599998474121</ele>
        <time>2019-08-15T07:49:49.000Z</time>
      </trkpt>
      <trkpt lat="47.80986" lon="-3.53732">
        <ele>46.599998474121</ele>
        <time>2019-08-15T07:49:50.000Z</time>
      </trkpt>
      <trkpt lat="47.80996" lon="-3.53749">
        <ele>46.799999237061</ele>
        <time>2019-08-15T07:49:53.000Z</time>
      </trkpt>
      <trkpt lat="47.81004" lon="-3.53758">
        <ele>46.599998474121</ele>
        <time>2019-08-15T07:49:55.000Z</time>
      </trkpt>
      <trkpt lat="47.81008" lon="-3.53762">
        <ele>46.799999237061</ele>
        <time>2019-08-15T07:49:56.000Z</time>
      </trkpt>
      <trkpt lat="47.81011" lon="-3.53767">
        <ele>46.799999237061</ele>
        <time>2019-08-15T07:49:57.000Z</time>
      </trkpt>
      <trkpt lat="47.81019" lon="-3.53776">
        <ele>46.599998474121</ele>
        <time>2019-08-15T07:50:00.000Z</time>
      </trkpt>
      <trkpt lat="47.81036" lon="-3.53796">
        <ele>47</ele>
        <time>2019-08-15T07:50:03.000Z</time>
      </trkpt>
      <trkpt lat="47.81045" lon="-3.53809">
        <ele>47</ele>
        <time>2019-08-15T07:50:06.000Z</time>
      </trkpt>
      <trkpt lat="47.81059" lon="-3.53829">
        <ele>47</ele>
        <time>2019-08-15T07:50:08.000Z</time>
      </trkpt>
      <trkpt lat="47.8107" lon="-3.53844">
        <ele>47</ele>
        <time>2019-08-15T07:50:10.000Z</time>
      </trkpt>
      <trkpt lat="47.81076" lon="-3.5385">
        <ele>46.799999237061</ele>
        <time>2019-08-15T07:50:11.000Z</time>
      </trkpt>
      <trkpt lat="47.8108" lon="-3.53855">
        <ele>46.400001525879</ele>
        <time>2019-08-15T07:50:12.000Z</time>
      </trkpt>
      <trkpt lat="47.81097" lon="-3.53874">
        <ele>46</ele>
        <time>2019-08-15T07:50:15.000Z</time>
      </trkpt>
      <trkpt lat="47.81105" lon="-3.53885">
        <ele>45.799999237061</ele>
        <time>2019-08-15T07:50:17.000Z</time>
      </trkpt>
      <trkpt lat="47.81124" lon="-3.53909">
        <ele>45.599998474121</ele>
        <time>2019-08-15T07:50:21.000Z</time>
      </trkpt>
      <trkpt lat="47.81128" lon="-3.53914">
        <ele>45.599998474121</ele>
        <time>2019-08-15T07:50:22.000Z</time>
      </trkpt>
      <trkpt lat="47.81128" lon="-3.53914">
        <ele>45.599998474121</ele>
        <time>2019-08-15T07:50:23.000Z</time>
      </trkpt>
      <trkpt lat="47.81137" lon="-3.53926">
        <ele>45.799999237061</ele>
        <time>2019-08-15T07:50:24.000Z</time>
      </trkpt>
      <trkpt lat="47.81147" lon="-3.53937">
        <ele>45.599998474121</ele>
        <time>2019-08-15T07:50:26.000Z</time>
      </trkpt>
      <trkpt lat="47.81155" lon="-3.53947">
        <ele>45.599998474121</ele>
        <time>2019-08-15T07:50:28.000Z</time>
      </trkpt>
      <trkpt lat="47.81163" lon="-3.53959">
        <ele>45.400001525879</ele>
        <time>2019-08-15T07:50:30.000Z</time>
      </trkpt>
      <trkpt lat="47.81168" lon="-3.53965">
        <ele>45.599998474121</ele>
        <time>2019-08-15T07:50:32.000Z</time>
      </trkpt>
      <trkpt lat="47.81186" lon="-3.53989">
        <ele>45.799999237061</ele>
        <time>2019-08-15T07:50:35.000Z</time>
      </trkpt>
      <trkpt lat="47.81194" lon="-3.54002">
        <ele>45.799999237061</ele>
        <time>2019-08-15T07:50:37.000Z</time>
      </trkpt>
      <trkpt lat="47.81199" lon="-3.54008">
        <ele>46</ele>
        <time>2019-08-15T07:50:39.000Z</time>
      </trkpt>
      <trkpt lat="47.81208" lon="-3.54022">
        <ele>45.799999237061</ele>
        <time>2019-08-15T07:50:40.000Z</time>
      </trkpt>
      <trkpt lat="47.81214" lon="-3.5403">
        <ele>45.799999237061</ele>
        <time>2019-08-15T07:50:41.000Z</time>
      </trkpt>
      <trkpt lat="47.81242" lon="-3.54058">
        <ele>44.799999237061</ele>
        <time>2019-08-15T07:50:46.000Z</time>
      </trkpt>
      <trkpt lat="47.81248" lon="-3.54063">
        <ele>44.599998474121</ele>
        <time>2019-08-15T07:50:47.000Z</time>
      </trkpt>
      <trkpt lat="47.81263" lon="-3.54078">
        <ele>44.200000762939</ele>
        <time>2019-08-15T07:50:50.000Z</time>
      </trkpt>
      <trkpt lat="47.81272" lon="-3.54089">
        <ele>44.200000762939</ele>
        <time>2019-08-15T07:50:52.000Z</time>
      </trkpt>
      <trkpt lat="47.81287" lon="-3.54103">
        <ele>44.400001525879</ele>
        <time>2019-08-15T07:50:56.000Z</time>
      </trkpt>
      <trkpt lat="47.81302" lon="-3.54115">
        <ele>45.200000762939</ele>
        <time>2019-08-15T07:51:01.000Z</time>
      </trkpt>
      <trkpt lat="47.81304" lon="-3.54116">
        <ele>45.200000762939</ele>
        <time>2019-08-15T07:51:02.000Z</time>
      </trkpt>
      <trkpt lat="47.81312" lon="-3.54123">
        <ele>46.200000762939</ele>
        <time>2019-08-15T07:51:07.000Z</time>
      </trkpt>
      <trkpt lat="47.81317" lon="-3.54127">
        <ele>46.400001525879</ele>
        <time>2019-08-15T07:51:08.000Z</time>
      </trkpt>
      <trkpt lat="47.81327" lon="-3.54132">
        <ele>47.200000762939</ele>
        <time>2019-08-15T07:51:12.000Z</time>
      </trkpt>
      <trkpt lat="47.81327" lon="-3.54132">
        <ele>47.400001525879</ele>
        <time>2019-08-15T07:51:13.000Z</time>
      </trkpt>
      <trkpt lat="47.81332" lon="-3.54134">
        <ele>47.400001525879</ele>
        <time>2019-08-15T07:51:14.000Z</time>
      </trkpt>
      <trkpt lat="47.81339" lon="-3.54136">
        <ele>47.400001525879</ele>
        <time>2019-08-15T07:51:17.000Z</time>
      </trkpt>
      <trkpt lat="47.81345" lon="-3.54135">
        <ele>47.400001525879</ele>
        <time>2019-08-15T07:51:20.000Z</time>
      </trkpt>
      <trkpt lat="47.81347" lon="-3.54137">
        <ele>47.400001525879</ele>
        <time>2019-08-15T07:51:21.000Z</time>
      </trkpt>
      <trkpt lat="47.8135" lon="-3.54141">
        <ele>47.400001525879</ele>
        <time>2019-08-15T07:51:22.000Z</time>
      </trkpt>
      <trkpt lat="47.81355" lon="-3.54148">
        <ele>47.400001525879</ele>
        <time>2019-08-15T07:51:24.000Z</time>
      </trkpt>
      <trkpt lat="47.81356" lon="-3.54152">
        <ele>47.200000762939</ele>
        <time>2019-08-15T07:51:26.000Z</time>
      </trkpt>
      <trkpt lat="47.81355" lon="-3.54151">
        <ele>47</ele>
        <time>2019-08-15T07:51:28.000Z</time>
      </trkpt>
      <trkpt lat="47.81358" lon="-3.54148">
        <ele>47</ele>
        <time>2019-08-15T07:51:30.000Z</time>
      </trkpt>
      <trkpt lat="47.81362" lon="-3.54146">
        <ele>47</ele>
        <time>2019-08-15T07:51:32.000Z</time>
      </trkpt>
      <trkpt lat="47.81368" lon="-3.54148">
        <ele>46.799999237061</ele>
        <time>2019-08-15T07:51:34.000Z</time>
      </trkpt>
      <trkpt lat="47.81371" lon="-3.5415">
        <ele>47</ele>
        <time>2019-08-15T07:51:35.000Z</time>
      </trkpt>
      <trkpt lat="47.81375" lon="-3.54152">
        <ele>47</ele>
        <time>2019-08-15T07:51:36.000Z</time>
      </trkpt>
      <trkpt lat="47.81387" lon="-3.54156">
        <ele>46.400001525879</ele>
        <time>2019-08-15T07:51:40.000Z</time>
      </trkpt>
      <trkpt lat="47.81392" lon="-3.54157">
        <ele>45.799999237061</ele>
        <time>2019-08-15T07:51:42.000Z</time>
      </trkpt>
      <trkpt lat="47.81395" lon="-3.54156">
        <ele>45.200000762939</ele>
        <time>2019-08-15T07:51:44.000Z</time>
      </trkpt>
      <trkpt lat="47.81398" lon="-3.54156">
        <ele>45</ele>
        <time>2019-08-15T07:51:45.000Z</time>
      </trkpt>
      <trkpt lat="47.81401" lon="-3.54158">
        <ele>44</ele>
        <time>2019-08-15T07:51:51.000Z</time>
      </trkpt>
      <trkpt lat="47.81399" lon="-3.54157">
        <ele>43.799999237061</ele>
        <time>2019-08-15T07:51:54.000Z</time>
      </trkpt>
      <trkpt lat="47.81396" lon="-3.54157">
        <ele>44</ele>
        <time>2019-08-15T07:51:56.000Z</time>
      </trkpt>
      <trkpt lat="47.81394" lon="-3.54156">
        <ele>43.799999237061</ele>
        <time>2019-08-15T07:51:57.000Z</time>
      </trkpt>
      <trkpt lat="47.81389" lon="-3.54154">
        <ele>44.200000762939</ele>
        <time>2019-08-15T07:52:00.000Z</time>
      </trkpt>
      <trkpt lat="47.81388" lon="-3.54153">
        <ele>44</ele>
        <time>2019-08-15T07:52:01.000Z</time>
      </trkpt>
      <trkpt lat="47.81386" lon="-3.54153">
        <ele>44.200000762939</ele>
        <time>2019-08-15T07:52:02.000Z</time>
      </trkpt>
      <trkpt lat="47.8138" lon="-3.54151">
        <ele>44.599998474121</ele>
        <time>2019-08-15T07:52:05.000Z</time>
      </trkpt>
      <trkpt lat="47.81388" lon="-3.54169">
        <ele>46.400001525879</ele>
        <time>2019-08-15T07:52:47.000Z</time>
      </trkpt>
      <trkpt lat="47.81388" lon="-3.5417">
        <ele>46.400001525879</ele>
        <time>2019-08-15T07:52:48.000Z</time>
      </trkpt>
      <trkpt lat="47.8139" lon="-3.54174">
        <ele>46.400001525879</ele>
        <time>2019-08-15T07:52:50.000Z</time>
      </trkpt>
      <trkpt lat="47.8139" lon="-3.54176">
        <ele>46.400001525879</ele>
        <time>2019-08-15T07:52:51.000Z</time>
      </trkpt>
      <trkpt lat="47.81391" lon="-3.54179">
        <ele>46.200000762939</ele>
        <time>2019-08-15T07:52:52.000Z</time>
      </trkpt>
      <trkpt lat="47.81392" lon="-3.54181">
        <ele>46</ele>
        <time>2019-08-15T07:52:53.000Z</time>
      </trkpt>
      <trkpt lat="47.81398" lon="-3.54197">
        <ele>45.599998474121</ele>
        <time>2019-08-15T07:52:58.000Z</time>
      </trkpt>
      <trkpt lat="47.81403" lon="-3.54207">
        <ele>45.200000762939</ele>
        <time>2019-08-15T07:53:00.000Z</time>
      </trkpt>
      <trkpt lat="47.81404" lon="-3.5421">
        <ele>45</ele>
        <time>2019-08-15T07:53:01.000Z</time>
      </trkpt>
      <trkpt lat="47.81406" lon="-3.54213">
        <ele>44.799999237061</ele>
        <time>2019-08-15T07:53:03.000Z</time>
      </trkpt>
      <trkpt lat="47.81409" lon="-3.54222">
        <ele>44.400001525879</ele>
        <time>2019-08-15T07:53:04.000Z</time>
      </trkpt>
      <trkpt lat="47.81416" lon="-3.54233">
        <ele>44</ele>
        <time>2019-08-15T07:53:08.000Z</time>
      </trkpt>
      <trkpt lat="47.81417" lon="-3.54236">
        <ele>43.799999237061</ele>
        <time>2019-08-15T07:53:09.000Z</time>
      </trkpt>
      <trkpt lat="47.81421" lon="-3.54245">
        <ele>43.400001525879</ele>
        <time>2019-08-15T07:53:11.000Z</time>
      </trkpt>
      <trkpt lat="47.81424" lon="-3.54253">
        <ele>43.200000762939</ele>
        <time>2019-08-15T07:53:13.000Z</time>
      </trkpt>
      <trkpt lat="47.81433" lon="-3.54282">
        <ele>42.599998474121</ele>
        <time>2019-08-15T07:53:20.000Z</time>
      </trkpt>
      <trkpt lat="47.81443" lon="-3.54301">
        <ele>42.599998474121</ele>
        <time>2019-08-15T07:53:26.000Z</time>
      </trkpt>
      <trkpt lat="47.81447" lon="-3.54307">
        <ele>42.400001525879</ele>
        <time>2019-08-15T07:53:28.000Z</time>
      </trkpt>
      <trkpt lat="47.81454" lon="-3.54314">
        <ele>42.799999237061</ele>
        <time>2019-08-15T07:53:31.000Z</time>
      </trkpt>
      <trkpt lat="47.8146" lon="-3.54322">
        <ele>43</ele>
        <time>2019-08-15T07:53:34.000Z</time>
      </trkpt>
      <trkpt lat="47.81466" lon="-3.54329">
        <ele>44</ele>
        <time>2019-08-15T07:53:37.000Z</time>
      </trkpt>
      <trkpt lat="47.81476" lon="-3.54346">
        <ele>45.599998474121</ele>
        <time>2019-08-15T07:53:43.000Z</time>
      </trkpt>
      <trkpt lat="47.81477" lon="-3.54349">
        <ele>45.599998474121</ele>
        <time>2019-08-15T07:53:44.000Z</time>
      </trkpt>
      <trkpt lat="47.81489" lon="-3.54375">
        <ele>46.400001525879</ele>
        <time>2019-08-15T07:53:51.000Z</time>
      </trkpt>
      <trkpt lat="47.81498" lon="-3.54395">
        <ele>47.400001525879</ele>
        <time>2019-08-15T07:53:56.000Z</time>
      </trkpt>
      <trkpt lat="47.81499" lon="-3.54399">
        <ele>47.400001525879</ele>
        <time>2019-08-15T07:53:57.000Z</time>
      </trkpt>
      <trkpt lat="47.815" lon="-3.54403">
        <ele>47.400001525879</ele>
        <time>2019-08-15T07:53:58.000Z</time>
      </trkpt>
      <trkpt lat="47.81503" lon="-3.54414">
        <ele>47.599998474121</ele>
        <time>2019-08-15T07:54:00.000Z</time>
      </trkpt>
      <trkpt lat="47.81506" lon="-3.54419">
        <ele>47.400001525879</ele>
        <time>2019-08-15T07:54:02.000Z</time>
      </trkpt>
      <trkpt lat="47.81508" lon="-3.54426">
        <ele>47.599998474121</ele>
        <time>2019-08-15T07:54:04.000Z</time>
      </trkpt>
      <trkpt lat="47.8151" lon="-3.54431">
        <ele>47.599998474121</ele>
        <time>2019-08-15T07:54:06.000Z</time>
      </trkpt>
      <trkpt lat="47.81512" lon="-3.54435">
        <ele>47.799999237061</ele>
        <time>2019-08-15T07:54:09.000Z</time>
      </trkpt>
      <trkpt lat="47.81521" lon="-3.54447">
        <ele>48.200000762939</ele>
        <time>2019-08-15T07:54:16.000Z</time>
      </trkpt>
      <trkpt lat="47.81533" lon="-3.54458">
        <ele>48.200000762939</ele>
        <time>2019-08-15T07:54:21.000Z</time>
      </trkpt>
      <trkpt lat="47.81548" lon="-3.54475">
        <ele>49.200000762939</ele>
        <time>2019-08-15T07:54:27.000Z</time>
      </trkpt>
      <trkpt lat="47.81554" lon="-3.54481">
        <ele>49.200000762939</ele>
        <time>2019-08-15T07:54:29.000Z</time>
      </trkpt>
      <trkpt lat="47.81558" lon="-3.54484">
        <ele>49.400001525879</ele>
        <time>2019-08-15T07:54:30.000Z</time>
      </trkpt>
      <trkpt lat="47.81564" lon="-3.54491">
        <ele>49.599998474121</ele>
        <time>2019-08-15T07:54:32.000Z</time>
      </trkpt>
      <trkpt lat="47.81578" lon="-3.54513">
        <ele>49.599998474121</ele>
        <time>2019-08-15T07:54:38.000Z</time>
      </trkpt>
      <trkpt lat="47.81583" lon="-3.54518">
        <ele>50</ele>
        <time>2019-08-15T07:54:40.000Z</time>
      </trkpt>
      <trkpt lat="47.81588" lon="-3.54525">
        <ele>50</ele>
        <time>2019-08-15T07:54:42.000Z</time>
      </trkpt>
      <trkpt lat="47.81593" lon="-3.54534">
        <ele>50</ele>
        <time>2019-08-15T07:54:44.000Z</time>
      </trkpt>
      <trkpt lat="47.81596" lon="-3.54537">
        <ele>49.799999237061</ele>
        <time>2019-08-15T07:54:46.000Z</time>
      </trkpt>
      <trkpt lat="47.81603" lon="-3.54548">
        <ele>49.799999237061</ele>
        <time>2019-08-15T07:54:47.000Z</time>
      </trkpt>
      <trkpt lat="47.81608" lon="-3.54556">
        <ele>49.599998474121</ele>
        <time>2019-08-15T07:54:49.000Z</time>
      </trkpt>
      <trkpt lat="47.81612" lon="-3.54561">
        <ele>49.599998474121</ele>
        <time>2019-08-15T07:54:50.000Z</time>
      </trkpt>
      <trkpt lat="47.8162" lon="-3.54572">
        <ele>49.599998474121</ele>
        <time>2019-08-15T07:54:52.000Z</time>
      </trkpt>
      <trkpt lat="47.81624" lon="-3.54576">
        <ele>49.200000762939</ele>
        <time>2019-08-15T07:54:53.000Z</time>
      </trkpt>
      <trkpt lat="47.81629" lon="-3.54585">
        <ele>48.599998474121</ele>
        <time>2019-08-15T07:54:55.000Z</time>
      </trkpt>
      <trkpt lat="47.81632" lon="-3.5459">
        <ele>48.799999237061</ele>
        <time>2019-08-15T07:54:56.000Z</time>
      </trkpt>
      <trkpt lat="47.81635" lon="-3.54597">
        <ele>48.599998474121</ele>
        <time>2019-08-15T07:54:57.000Z</time>
      </trkpt>
      <trkpt lat="47.81638" lon="-3.54604">
        <ele>48.599998474121</ele>
        <time>2019-08-15T07:54:58.000Z</time>
      </trkpt>
      <trkpt lat="47.8164" lon="-3.5461">
        <ele>48.400001525879</ele>
        <time>2019-08-15T07:54:59.000Z</time>
      </trkpt>
      <trkpt lat="47.81643" lon="-3.54614">
        <ele>48.200000762939</ele>
        <time>2019-08-15T07:55:00.000Z</time>
      </trkpt>
      <trkpt lat="47.81646" lon="-3.54621">
        <ele>48.200000762939</ele>
        <time>2019-08-15T07:55:01.000Z</time>
      </trkpt>
      <trkpt lat="47.81646" lon="-3.54621">
        <ele>47.799999237061</ele>
        <time>2019-08-15T07:55:02.000Z</time>
      </trkpt>
      <trkpt lat="47.81652" lon="-3.54633">
        <ele>47.799999237061</ele>
        <time>2019-08-15T07:55:03.000Z</time>
      </trkpt>
      <trkpt lat="47.8166" lon="-3.54647">
        <ele>47</ele>
        <time>2019-08-15T07:55:06.000Z</time>
      </trkpt>
      <trkpt lat="47.81667" lon="-3.54655">
        <ele>45.599998474121</ele>
        <time>2019-08-15T07:55:09.000Z</time>
      </trkpt>
      <trkpt lat="47.8167" lon="-3.54659">
        <ele>45.599998474121</ele>
        <time>2019-08-15T07:55:10.000Z</time>
      </trkpt>
      <trkpt lat="47.81674" lon="-3.54663">
        <ele>45.200000762939</ele>
        <time>2019-08-15T07:55:11.000Z</time>
      </trkpt>
      <trkpt lat="47.81676" lon="-3.54666">
        <ele>44.799999237061</ele>
        <time>2019-08-15T07:55:12.000Z</time>
      </trkpt>
      <trkpt lat="47.81684" lon="-3.54676">
        <ele>44.400001525879</ele>
        <time>2019-08-15T07:55:15.000Z</time>
      </trkpt>
      <trkpt lat="47.81686" lon="-3.54679">
        <ele>44.200000762939</ele>
        <time>2019-08-15T07:55:16.000Z</time>
      </trkpt>
      <trkpt lat="47.81695" lon="-3.54693">
        <ele>43</ele>
        <time>2019-08-15T07:55:19.000Z</time>
      </trkpt>
      <trkpt lat="47.81703" lon="-3.54708">
        <ele>41.599998474121</ele>
        <time>2019-08-15T07:55:22.000Z</time>
      </trkpt>
      <trkpt lat="47.81704" lon="-3.54711">
        <ele>41.799999237061</ele>
        <time>2019-08-15T07:55:23.000Z</time>
      </trkpt>
      <trkpt lat="47.81711" lon="-3.54724">
        <ele>40.400001525879</ele>
        <time>2019-08-15T07:55:27.000Z</time>
      </trkpt>
      <trkpt lat="47.81713" lon="-3.54726">
        <ele>40.200000762939</ele>
        <time>2019-08-15T07:55:28.000Z</time>
      </trkpt>
      <trkpt lat="47.81714" lon="-3.54728">
        <ele>39.799999237061</ele>
        <time>2019-08-15T07:55:29.000Z</time>
      </trkpt>
      <trkpt lat="47.81717" lon="-3.54734">
        <ele>39.599998474121</ele>
        <time>2019-08-15T07:55:32.000Z</time>
      </trkpt>
      <trkpt lat="47.81722" lon="-3.54751">
        <ele>39.200000762939</ele>
        <time>2019-08-15T07:55:35.000Z</time>
      </trkpt>
      <trkpt lat="47.81722" lon="-3.54758">
        <ele>39.200000762939</ele>
        <time>2019-08-15T07:55:36.000Z</time>
      </trkpt>
      <trkpt lat="47.8172" lon="-3.54772">
        <ele>39</ele>
        <time>2019-08-15T07:55:38.000Z</time>
      </trkpt>
      <trkpt lat="47.81713" lon="-3.54796">
        <ele>38.799999237061</ele>
        <time>2019-08-15T07:55:41.000Z</time>
      </trkpt>
      <trkpt lat="47.81697" lon="-3.54838">
        <ele>38.400001525879</ele>
        <time>2019-08-15T07:55:46.000Z</time>
      </trkpt>
      <trkpt lat="47.81693" lon="-3.54846">
        <ele>38.200000762939</ele>
        <time>2019-08-15T07:55:47.000Z</time>
      </trkpt>
      <trkpt lat="47.81688" lon="-3.54852">
        <ele>38.200000762939</ele>
        <time>2019-08-15T07:55:48.000Z</time>
      </trkpt>
      <trkpt lat="47.81688" lon="-3.54852">
        <ele>38</ele>
        <time>2019-08-15T07:55:49.000Z</time>
      </trkpt>
      <trkpt lat="47.81679" lon="-3.54863">
        <ele>38</ele>
        <time>2019-08-15T07:55:50.000Z</time>
      </trkpt>
      <trkpt lat="47.81675" lon="-3.54868">
        <ele>38</ele>
        <time>2019-08-15T07:55:51.000Z</time>
      </trkpt>
      <trkpt lat="47.81662" lon="-3.54886">
        <ele>38.400001525879</ele>
        <time>2019-08-15T07:55:55.000Z</time>
      </trkpt>
      <trkpt lat="47.81656" lon="-3.54892">
        <ele>39</ele>
        <time>2019-08-15T07:55:57.000Z</time>
      </trkpt>
      <trkpt lat="47.81649" lon="-3.54899">
        <ele>40</ele>
        <time>2019-08-15T07:56:00.000Z</time>
      </trkpt>
      <trkpt lat="47.81643" lon="-3.54922">
        <ele>41.400001525879</ele>
        <time>2019-08-15T07:56:05.000Z</time>
      </trkpt>
      <trkpt lat="47.81647" lon="-3.54942">
        <ele>42.599998474121</ele>
        <time>2019-08-15T07:56:10.000Z</time>
      </trkpt>
      <trkpt lat="47.81649" lon="-3.54944">
        <ele>42.799999237061</ele>
        <time>2019-08-15T07:56:11.000Z</time>
      </trkpt>
      <trkpt lat="47.81658" lon="-3.54952">
        <ele>43.799999237061</ele>
        <time>2019-08-15T07:56:15.000Z</time>
      </trkpt>
      <trkpt lat="47.81663" lon="-3.54955">
        <ele>44.200000762939</ele>
        <time>2019-08-15T07:56:17.000Z</time>
      </trkpt>
      <trkpt lat="47.81674" lon="-3.54962">
        <ele>44.799999237061</ele>
        <time>2019-08-15T07:56:21.000Z</time>
      </trkpt>
      <trkpt lat="47.8169" lon="-3.54978">
        <ele>46</ele>
        <time>2019-08-15T07:56:27.000Z</time>
      </trkpt>
      <trkpt lat="47.81702" lon="-3.54995">
        <ele>47</ele>
        <time>2019-08-15T07:56:32.000Z</time>
      </trkpt>
      <trkpt lat="47.81705" lon="-3.55002">
        <ele>47.200000762939</ele>
        <time>2019-08-15T07:56:34.000Z</time>
      </trkpt>
      <trkpt lat="47.81711" lon="-3.55021">
        <ele>48</ele>
        <time>2019-08-15T07:56:38.000Z</time>
      </trkpt>
      <trkpt lat="47.81717" lon="-3.55034">
        <ele>48.400001525879</ele>
        <time>2019-08-15T07:56:41.000Z</time>
      </trkpt>
      <trkpt lat="47.81725" lon="-3.55061">
        <ele>49.599998474121</ele>
        <time>2019-08-15T07:56:46.000Z</time>
      </trkpt>
      <trkpt lat="47.8173" lon="-3.55075">
        <ele>49.799999237061</ele>
        <time>2019-08-15T07:56:49.000Z</time>
      </trkpt>
      <trkpt lat="47.81745" lon="-3.55113">
        <ele>50.200000762939</ele>
        <time>2019-08-15T07:56:56.000Z</time>
      </trkpt>
      <trkpt lat="47.81755" lon="-3.55135">
        <ele>50.599998474121</ele>
        <time>2019-08-15T07:57:00.000Z</time>
      </trkpt>
      <trkpt lat="47.81763" lon="-3.5515">
        <ele>50.599998474121</ele>
        <time>2019-08-15T07:57:03.000Z</time>
      </trkpt>
      <trkpt lat="47.81772" lon="-3.55162">
        <ele>50.599998474121</ele>
        <time>2019-08-15T07:57:05.000Z</time>
      </trkpt>
      <trkpt lat="47.81781" lon="-3.55172">
        <ele>50.400001525879</ele>
        <time>2019-08-15T07:57:07.000Z</time>
      </trkpt>
      <trkpt lat="47.81793" lon="-3.55183">
        <ele>50.200000762939</ele>
        <time>2019-08-15T07:57:09.000Z</time>
      </trkpt>
      <trkpt lat="47.81799" lon="-3.55189">
        <ele>49.599998474121</ele>
        <time>2019-08-15T07:57:11.000Z</time>
      </trkpt>
      <trkpt lat="47.81811" lon="-3.552">
        <ele>49.400001525879</ele>
        <time>2019-08-15T07:57:12.000Z</time>
      </trkpt>
      <trkpt lat="47.81819" lon="-3.55207">
        <ele>49.400001525879</ele>
        <time>2019-08-15T07:57:13.000Z</time>
      </trkpt>
      <trkpt lat="47.81837" lon="-3.55223">
        <ele>48.599998474121</ele>
        <time>2019-08-15T07:57:16.000Z</time>
      </trkpt>
      <trkpt lat="47.81842" lon="-3.5523">
        <ele>48.200000762939</ele>
        <time>2019-08-15T07:57:17.000Z</time>
      </trkpt>
      <trkpt lat="47.81846" lon="-3.5524">
        <ele>48.200000762939</ele>
        <time>2019-08-15T07:57:18.000Z</time>
      </trkpt>
      <trkpt lat="47.81847" lon="-3.55247">
        <ele>46.799999237061</ele>
        <time>2019-08-15T07:57:19.000Z</time>
      </trkpt>
      <trkpt lat="47.81846" lon="-3.55258">
        <ele>45.799999237061</ele>
        <time>2019-08-15T07:57:20.000Z</time>
      </trkpt>
      <trkpt lat="47.81845" lon="-3.55266">
        <ele>45.400001525879</ele>
        <time>2019-08-15T07:57:21.000Z</time>
      </trkpt>
      <trkpt lat="47.81843" lon="-3.55276">
        <ele>44.599998474121</ele>
        <time>2019-08-15T07:57:22.000Z</time>
      </trkpt>
      <trkpt lat="47.81839" lon="-3.55299">
        <ele>44</ele>
        <time>2019-08-15T07:57:24.000Z</time>
      </trkpt>
      <trkpt lat="47.81836" lon="-3.55319">
        <ele>43</ele>
        <time>2019-08-15T07:57:26.000Z</time>
      </trkpt>
      <trkpt lat="47.81836" lon="-3.5533">
        <ele>42.400001525879</ele>
        <time>2019-08-15T07:57:27.000Z</time>
      </trkpt>
      <trkpt lat="47.81836" lon="-3.55343">
        <ele>42</ele>
        <time>2019-08-15T07:57:28.000Z</time>
      </trkpt>
      <trkpt lat="47.81839" lon="-3.55365">
        <ele>41.400001525879</ele>
        <time>2019-08-15T07:57:30.000Z</time>
      </trkpt>
      <trkpt lat="47.81842" lon="-3.55372">
        <ele>41</ele>
        <time>2019-08-15T07:57:31.000Z</time>
      </trkpt>
      <trkpt lat="47.81848" lon="-3.55381">
        <ele>40.200000762939</ele>
        <time>2019-08-15T07:57:32.000Z</time>
      </trkpt>
      <trkpt lat="47.81848" lon="-3.55381">
        <ele>39.599998474121</ele>
        <time>2019-08-15T07:57:33.000Z</time>
      </trkpt>
      <trkpt lat="47.81861" lon="-3.55384">
        <ele>39.400001525879</ele>
        <time>2019-08-15T07:57:34.000Z</time>
      </trkpt>
      <trkpt lat="47.81866" lon="-3.55383">
        <ele>38.599998474121</ele>
        <time>2019-08-15T07:57:35.000Z</time>
      </trkpt>
      <trkpt lat="47.81872" lon="-3.55379">
        <ele>38</ele>
        <time>2019-08-15T07:57:36.000Z</time>
      </trkpt>
      <trkpt lat="47.8188" lon="-3.55366">
        <ele>37.400001525879</ele>
        <time>2019-08-15T07:57:38.000Z</time>
      </trkpt>
      <trkpt lat="47.81884" lon="-3.55357">
        <ele>37.400001525879</ele>
        <time>2019-08-15T07:57:39.000Z</time>
      </trkpt>
      <trkpt lat="47.81892" lon="-3.55338">
        <ele>37.200000762939</ele>
        <time>2019-08-15T07:57:42.000Z</time>
      </trkpt>
      <trkpt lat="47.81895" lon="-3.55331">
        <ele>37.400001525879</ele>
        <time>2019-08-15T07:57:43.000Z</time>
      </trkpt>
      <trkpt lat="47.81897" lon="-3.55323">
        <ele>37.400001525879</ele>
        <time>2019-08-15T07:57:44.000Z</time>
      </trkpt>
      <trkpt lat="47.819" lon="-3.55318">
        <ele>37.799999237061</ele>
        <time>2019-08-15T07:57:45.000Z</time>
      </trkpt>
      <trkpt lat="47.81906" lon="-3.55305">
        <ele>38.200000762939</ele>
        <time>2019-08-15T07:57:47.000Z</time>
      </trkpt>
      <trkpt lat="47.81909" lon="-3.55298">
        <ele>38.599998474121</ele>
        <time>2019-08-15T07:57:49.000Z</time>
      </trkpt>
      <trkpt lat="47.81914" lon="-3.55289">
        <ele>38.799999237061</ele>
        <time>2019-08-15T07:57:50.000Z</time>
      </trkpt>
      <trkpt lat="47.81923" lon="-3.55278">
        <ele>39.200000762939</ele>
        <time>2019-08-15T07:57:53.000Z</time>
      </trkpt>
      <trkpt lat="47.81933" lon="-3.55269">
        <ele>39.799999237061</ele>
        <time>2019-08-15T07:57:56.000Z</time>
      </trkpt>
      <trkpt lat="47.81936" lon="-3.55267">
        <ele>40</ele>
        <time>2019-08-15T07:57:57.000Z</time>
      </trkpt>
      <trkpt lat="47.8194" lon="-3.55266">
        <ele>40</ele>
        <time>2019-08-15T07:57:58.000Z</time>
      </trkpt>
      <trkpt lat="47.81951" lon="-3.55264">
        <ele>40.799999237061</ele>
        <time>2019-08-15T07:58:01.000Z</time>
      </trkpt>
      <trkpt lat="47.81951" lon="-3.55264">
        <ele>41</ele>
        <time>2019-08-15T07:58:02.000Z</time>
      </trkpt>
      <trkpt lat="47.81959" lon="-3.55267">
        <ele>41.400001525879</ele>
        <time>2019-08-15T07:58:03.000Z</time>
      </trkpt>
      <trkpt lat="47.81981" lon="-3.55274">
        <ele>42.799999237061</ele>
        <time>2019-08-15T07:58:09.000Z</time>
      </trkpt>
      <trkpt lat="47.81985" lon="-3.55274">
        <ele>43</ele>
        <time>2019-08-15T07:58:10.000Z</time>
      </trkpt>
      <trkpt lat="47.82009" lon="-3.5528">
        <ele>44.400001525879</ele>
        <time>2019-08-15T07:58:16.000Z</time>
      </trkpt>
      <trkpt lat="47.82013" lon="-3.55282">
        <ele>44.599998474121</ele>
        <time>2019-08-15T07:58:17.000Z</time>
      </trkpt>
      <trkpt lat="47.82016" lon="-3.55283">
        <ele>44.599998474121</ele>
        <time>2019-08-15T07:58:18.000Z</time>
      </trkpt>
      <trkpt lat="47.82038" lon="-3.55293">
        <ele>45.200000762939</ele>
        <time>2019-08-15T07:58:23.000Z</time>
      </trkpt>
      <trkpt lat="47.82058" lon="-3.55304">
        <ele>45.400001525879</ele>
        <time>2019-08-15T07:58:27.000Z</time>
      </trkpt>
      <trkpt lat="47.8207" lon="-3.55312">
        <ele>45.599998474121</ele>
        <time>2019-08-15T07:58:30.000Z</time>
      </trkpt>
      <trkpt lat="47.82075" lon="-3.55315">
        <ele>45.799999237061</ele>
        <time>2019-08-15T07:58:31.000Z</time>
      </trkpt>
      <trkpt lat="47.82081" lon="-3.5532">
        <ele>45.799999237061</ele>
        <time>2019-08-15T07:58:33.000Z</time>
      </trkpt>
      <trkpt lat="47.82085" lon="-3.55322">
        <ele>45.799999237061</ele>
        <time>2019-08-15T07:58:34.000Z</time>
      </trkpt>
      <trkpt lat="47.82105" lon="-3.55334">
        <ele>47</ele>
        <time>2019-08-15T07:58:40.000Z</time>
      </trkpt>
      <trkpt lat="47.82111" lon="-3.55338">
        <ele>47.400001525879</ele>
        <time>2019-08-15T07:58:42.000Z</time>
      </trkpt>
      <trkpt lat="47.82125" lon="-3.55348">
        <ele>48.200000762939</ele>
        <time>2019-08-15T07:58:46.000Z</time>
      </trkpt>
      <trkpt lat="47.82128" lon="-3.5535">
        <ele>48.200000762939</ele>
        <time>2019-08-15T07:58:47.000Z</time>
      </trkpt>
      <trkpt lat="47.82132" lon="-3.55353">
        <ele>48.400001525879</ele>
        <time>2019-08-15T07:58:48.000Z</time>
      </trkpt>
      <trkpt lat="47.82136" lon="-3.55356">
        <ele>48.599998474121</ele>
        <time>2019-08-15T07:58:49.000Z</time>
      </trkpt>
      <trkpt lat="47.82158" lon="-3.55381">
        <ele>49.400001525879</ele>
        <time>2019-08-15T07:58:57.000Z</time>
      </trkpt>
      <trkpt lat="47.82165" lon="-3.55393">
        <ele>49.400001525879</ele>
        <time>2019-08-15T07:59:00.000Z</time>
      </trkpt>
      <trkpt lat="47.8217" lon="-3.554">
        <ele>49.799999237061</ele>
        <time>2019-08-15T07:59:02.000Z</time>
      </trkpt>
      <trkpt lat="47.82175" lon="-3.55408">
        <ele>50</ele>
        <time>2019-08-15T07:59:04.000Z</time>
      </trkpt>
      <trkpt lat="47.82184" lon="-3.55426">
        <ele>51.200000762939</ele>
        <time>2019-08-15T07:59:09.000Z</time>
      </trkpt>
      <trkpt lat="47.8219" lon="-3.55438">
        <ele>52</ele>
        <time>2019-08-15T07:59:12.000Z</time>
      </trkpt>
      <trkpt lat="47.822" lon="-3.55458">
        <ele>53</ele>
        <time>2019-08-15T07:59:17.000Z</time>
      </trkpt>
      <trkpt lat="47.82212" lon="-3.5548">
        <ele>53.799999237061</ele>
        <time>2019-08-15T07:59:23.000Z</time>
      </trkpt>
      <trkpt lat="47.82229" lon="-3.55513">
        <ele>54.599998474121</ele>
        <time>2019-08-15T07:59:31.000Z</time>
      </trkpt>
      <trkpt lat="47.82231" lon="-3.55517">
        <ele>54.599998474121</ele>
        <time>2019-08-15T07:59:33.000Z</time>
      </trkpt>
      <trkpt lat="47.82248" lon="-3.55548">
        <ele>55.200000762939</ele>
        <time>2019-08-15T07:59:39.000Z</time>
      </trkpt>
      <trkpt lat="47.82254" lon="-3.55564">
        <ele>55.200000762939</ele>
        <time>2019-08-15T07:59:41.000Z</time>
      </trkpt>
      <trkpt lat="47.82258" lon="-3.55572">
        <ele>55</ele>
        <time>2019-08-15T07:59:42.000Z</time>
      </trkpt>
      <trkpt lat="47.82261" lon="-3.55578">
        <ele>55.200000762939</ele>
        <time>2019-08-15T07:59:43.000Z</time>
      </trkpt>
      <trkpt lat="47.82288" lon="-3.55638">
        <ele>54</ele>
        <time>2019-08-15T07:59:50.000Z</time>
      </trkpt>
      <trkpt lat="47.823" lon="-3.55662">
        <ele>53.599998474121</ele>
        <time>2019-08-15T07:59:53.000Z</time>
      </trkpt>
      <trkpt lat="47.82303" lon="-3.5567">
        <ele>53.599998474121</ele>
        <time>2019-08-15T07:59:54.000Z</time>
      </trkpt>
      <trkpt lat="47.8231" lon="-3.55688">
        <ele>53.599998474121</ele>
        <time>2019-08-15T07:59:56.000Z</time>
      </trkpt>
      <trkpt lat="47.82314" lon="-3.55697">
        <ele>53.599998474121</ele>
        <time>2019-08-15T07:59:57.000Z</time>
      </trkpt>
      <trkpt lat="47.82319" lon="-3.55706">
        <ele>53.400001525879</ele>
        <time>2019-08-15T07:59:58.000Z</time>
      </trkpt>
      <trkpt lat="47.82329" lon="-3.55726">
        <ele>53</ele>
        <time>2019-08-15T08:00:00.000Z</time>
      </trkpt>
      <trkpt lat="47.82334" lon="-3.55738">
        <ele>53</ele>
        <time>2019-08-15T08:00:01.000Z</time>
      </trkpt>
      <trkpt lat="47.82343" lon="-3.55759">
        <ele>52.200000762939</ele>
        <time>2019-08-15T08:00:03.000Z</time>
      </trkpt>
      <trkpt lat="47.82348" lon="-3.5577">
        <ele>52</ele>
        <time>2019-08-15T08:00:04.000Z</time>
      </trkpt>
      <trkpt lat="47.82352" lon="-3.55783">
        <ele>51.799999237061</ele>
        <time>2019-08-15T08:00:05.000Z</time>
      </trkpt>
      <trkpt lat="47.82357" lon="-3.55795">
        <ele>51</ele>
        <time>2019-08-15T08:00:06.000Z</time>
      </trkpt>
      <trkpt lat="47.82363" lon="-3.55807">
        <ele>50.200000762939</ele>
        <time>2019-08-15T08:00:07.000Z</time>
      </trkpt>
      <trkpt lat="47.82368" lon="-3.55819">
        <ele>49.799999237061</ele>
        <time>2019-08-15T08:00:08.000Z</time>
      </trkpt>
      <trkpt lat="47.82373" lon="-3.5583">
        <ele>48.799999237061</ele>
        <time>2019-08-15T08:00:09.000Z</time>
      </trkpt>
      <trkpt lat="47.82385" lon="-3.55852">
        <ele>47.400001525879</ele>
        <time>2019-08-15T08:00:11.000Z</time>
      </trkpt>
      <trkpt lat="47.8239" lon="-3.55863">
        <ele>46.799999237061</ele>
        <time>2019-08-15T08:00:12.000Z</time>
      </trkpt>
      <trkpt lat="47.82393" lon="-3.55874">
        <ele>46.400001525879</ele>
        <time>2019-08-15T08:00:13.000Z</time>
      </trkpt>
      <trkpt lat="47.82393" lon="-3.55874">
        <ele>46.400001525879</ele>
        <time>2019-08-15T08:00:14.000Z</time>
      </trkpt>
      <trkpt lat="47.82401" lon="-3.55893">
        <ele>46.200000762939</ele>
        <time>2019-08-15T08:00:15.000Z</time>
      </trkpt>
      <trkpt lat="47.82408" lon="-3.55912">
        <ele>46</ele>
        <time>2019-08-15T08:00:17.000Z</time>
      </trkpt>
      <trkpt lat="47.82412" lon="-3.55921">
        <ele>46.200000762939</ele>
        <time>2019-08-15T08:00:18.000Z</time>
      </trkpt>
      <trkpt lat="47.82422" lon="-3.55942">
        <ele>46.599998474121</ele>
        <time>2019-08-15T08:00:21.000Z</time>
      </trkpt>
      <trkpt lat="47.82424" lon="-3.55947">
        <ele>46.599998474121</ele>
        <time>2019-08-15T08:00:22.000Z</time>
      </trkpt>
      <trkpt lat="47.82432" lon="-3.55965">
        <ele>47.200000762939</ele>
        <time>2019-08-15T08:00:25.000Z</time>
      </trkpt>
      <trkpt lat="47.82436" lon="-3.55975">
        <ele>48</ele>
        <time>2019-08-15T08:00:27.000Z</time>
      </trkpt>
      <trkpt lat="47.82438" lon="-3.5598">
        <ele>48.200000762939</ele>
        <time>2019-08-15T08:00:28.000Z</time>
      </trkpt>
      <trkpt lat="47.82442" lon="-3.55985">
        <ele>48.599998474121</ele>
        <time>2019-08-15T08:00:29.000Z</time>
      </trkpt>
      <trkpt lat="47.82444" lon="-3.5599">
        <ele>48.599998474121</ele>
        <time>2019-08-15T08:00:30.000Z</time>
      </trkpt>
      <trkpt lat="47.82447" lon="-3.55996">
        <ele>48.799999237061</ele>
        <time>2019-08-15T08:00:31.000Z</time>
      </trkpt>
      <trkpt lat="47.82451" lon="-3.56003">
        <ele>48.799999237061</ele>
        <time>2019-08-15T08:00:32.000Z</time>
      </trkpt>
      <trkpt lat="47.82453" lon="-3.56009">
        <ele>48.799999237061</ele>
        <time>2019-08-15T08:00:33.000Z</time>
      </trkpt>
      <trkpt lat="47.82456" lon="-3.56015">
        <ele>49.200000762939</ele>
        <time>2019-08-15T08:00:34.000Z</time>
      </trkpt>
      <trkpt lat="47.82461" lon="-3.56028">
        <ele>49.400001525879</ele>
        <time>2019-08-15T08:00:36.000Z</time>
      </trkpt>
      <trkpt lat="47.82465" lon="-3.56037">
        <ele>49.400001525879</ele>
        <time>2019-08-15T08:00:37.000Z</time>
      </trkpt>
      <trkpt lat="47.82471" lon="-3.56051">
        <ele>49.400001525879</ele>
        <time>2019-08-15T08:00:39.000Z</time>
      </trkpt>
      <trkpt lat="47.82479" lon="-3.56071">
        <ele>49.799999237061</ele>
        <time>2019-08-15T08:00:42.000Z</time>
      </trkpt>
      <trkpt lat="47.82481" lon="-3.56076">
        <ele>50</ele>
        <time>2019-08-15T08:00:43.000Z</time>
      </trkpt>
      <trkpt lat="47.82485" lon="-3.56084">
        <ele>50.400001525879</ele>
        <time>2019-08-15T08:00:45.000Z</time>
      </trkpt>
      <trkpt lat="47.8249" lon="-3.56092">
        <ele>50.599998474121</ele>
        <time>2019-08-15T08:00:47.000Z</time>
      </trkpt>
      <trkpt lat="47.82496" lon="-3.56102">
        <ele>51.200000762939</ele>
        <time>2019-08-15T08:00:50.000Z</time>
      </trkpt>
      <trkpt lat="47.825" lon="-3.56109">
        <ele>51.799999237061</ele>
        <time>2019-08-15T08:00:52.000Z</time>
      </trkpt>
      <trkpt lat="47.82506" lon="-3.56119">
        <ele>52.599998474121</ele>
        <time>2019-08-15T08:00:55.000Z</time>
      </trkpt>
      <trkpt lat="47.82511" lon="-3.56131">
        <ele>53.200000762939</ele>
        <time>2019-08-15T08:00:58.000Z</time>
      </trkpt>
      <trkpt lat="47.82517" lon="-3.56142">
        <ele>53.799999237061</ele>
        <time>2019-08-15T08:01:01.000Z</time>
      </trkpt>
      <trkpt lat="47.82523" lon="-3.56157">
        <ele>54.599998474121</ele>
        <time>2019-08-15T08:01:05.000Z</time>
      </trkpt>
      <trkpt lat="47.82529" lon="-3.5617">
        <ele>55</ele>
        <time>2019-08-15T08:01:09.000Z</time>
      </trkpt>
      <trkpt lat="47.82535" lon="-3.5618">
        <ele>55.599998474121</ele>
        <time>2019-08-15T08:01:12.000Z</time>
      </trkpt>
      <trkpt lat="47.82548" lon="-3.56207">
        <ele>56.400001525879</ele>
        <time>2019-08-15T08:01:19.000Z</time>
      </trkpt>
      <trkpt lat="47.8255" lon="-3.56212">
        <ele>56.400001525879</ele>
        <time>2019-08-15T08:01:21.000Z</time>
      </trkpt>
      <trkpt lat="47.82551" lon="-3.56215">
        <ele>56</ele>
        <time>2019-08-15T08:01:23.000Z</time>
      </trkpt>
      <trkpt lat="47.82559" lon="-3.56233">
        <ele>56</ele>
        <time>2019-08-15T08:01:28.000Z</time>
      </trkpt>
      <trkpt lat="47.82561" lon="-3.56238">
        <ele>55.799999237061</ele>
        <time>2019-08-15T08:01:29.000Z</time>
      </trkpt>
      <trkpt lat="47.82565" lon="-3.56251">
        <ele>55.599998474121</ele>
        <time>2019-08-15T08:01:33.000Z</time>
      </trkpt>
      <trkpt lat="47.8257" lon="-3.56265">
        <ele>55.200000762939</ele>
        <time>2019-08-15T08:01:39.000Z</time>
      </trkpt>
      <trkpt lat="47.82573" lon="-3.56271">
        <ele>55</ele>
        <time>2019-08-15T08:01:42.000Z</time>
      </trkpt>
      <trkpt lat="47.82574" lon="-3.56272">
        <ele>55</ele>
        <time>2019-08-15T08:01:44.000Z</time>
      </trkpt>
      <trkpt lat="47.82575" lon="-3.56276">
        <ele>55</ele>
        <time>2019-08-15T08:01:50.000Z</time>
      </trkpt>
      <trkpt lat="47.82576" lon="-3.5628">
        <ele>55.200000762939</ele>
        <time>2019-08-15T08:01:53.000Z</time>
      </trkpt>
      <trkpt lat="47.82577" lon="-3.56285">
        <ele>55.200000762939</ele>
        <time>2019-08-15T08:01:55.000Z</time>
      </trkpt>
      <trkpt lat="47.82577" lon="-3.56291">
        <ele>55.200000762939</ele>
        <time>2019-08-15T08:01:57.000Z</time>
      </trkpt>
      <trkpt lat="47.82577" lon="-3.56294">
        <ele>55.400001525879</ele>
        <time>2019-08-15T08:01:58.000Z</time>
      </trkpt>
      <trkpt lat="47.82576" lon="-3.56298">
        <ele>55.400001525879</ele>
        <time>2019-08-15T08:02:00.000Z</time>
      </trkpt>
      <trkpt lat="47.82576" lon="-3.56303">
        <ele>55.799999237061</ele>
        <time>2019-08-15T08:02:02.000Z</time>
      </trkpt>
      <trkpt lat="47.8258" lon="-3.56323">
        <ele>57.200000762939</ele>
        <time>2019-08-15T08:02:10.000Z</time>
      </trkpt>
      <trkpt lat="47.82582" lon="-3.56326">
        <ele>57.200000762939</ele>
        <time>2019-08-15T08:02:11.000Z</time>
      </trkpt>
      <trkpt lat="47.82583" lon="-3.56336">
        <ele>57.400001525879</ele>
        <time>2019-08-15T08:02:14.000Z</time>
      </trkpt>
      <trkpt lat="47.82584" lon="-3.56339">
        <ele>57.599998474121</ele>
        <time>2019-08-15T08:02:15.000Z</time>
      </trkpt>
      <trkpt lat="47.82585" lon="-3.56342">
        <ele>57.599998474121</ele>
        <time>2019-08-15T08:02:16.000Z</time>
      </trkpt>
      <trkpt lat="47.82585" lon="-3.56345">
        <ele>58</ele>
        <time>2019-08-15T08:02:17.000Z</time>
      </trkpt>
      <trkpt lat="47.82584" lon="-3.56359">
        <ele>58.200000762939</ele>
        <time>2019-08-15T08:02:21.000Z</time>
      </trkpt>
      <trkpt lat="47.82585" lon="-3.56362">
        <ele>58.400001525879</ele>
        <time>2019-08-15T08:02:22.000Z</time>
      </trkpt>
      <trkpt lat="47.82586" lon="-3.56382">
        <ele>59.599998474121</ele>
        <time>2019-08-15T08:02:29.000Z</time>
      </trkpt>
      <trkpt lat="47.82587" lon="-3.5639">
        <ele>60</ele>
        <time>2019-08-15T08:02:32.000Z</time>
      </trkpt>
      <trkpt lat="47.82588" lon="-3.56399">
        <ele>60.200000762939</ele>
        <time>2019-08-15T08:02:35.000Z</time>
      </trkpt>
      <trkpt lat="47.82588" lon="-3.56403">
        <ele>60.200000762939</ele>
        <time>2019-08-15T08:02:36.000Z</time>
      </trkpt>
      <trkpt lat="47.82588" lon="-3.56425">
        <ele>60.799999237061</ele>
        <time>2019-08-15T08:02:42.000Z</time>
      </trkpt>
      <trkpt lat="47.82586" lon="-3.56442">
        <ele>61.200000762939</ele>
        <time>2019-08-15T08:02:46.000Z</time>
      </trkpt>
      <trkpt lat="47.82585" lon="-3.56449">
        <ele>61.400001525879</ele>
        <time>2019-08-15T08:02:48.000Z</time>
      </trkpt>
      <trkpt lat="47.82584" lon="-3.56456">
        <ele>61.599998474121</ele>
        <time>2019-08-15T08:02:50.000Z</time>
      </trkpt>
      <trkpt lat="47.82583" lon="-3.56463">
        <ele>61.599998474121</ele>
        <time>2019-08-15T08:02:52.000Z</time>
      </trkpt>
      <trkpt lat="47.82582" lon="-3.56471">
        <ele>61.599998474121</ele>
        <time>2019-08-15T08:02:54.000Z</time>
      </trkpt>
      <trkpt lat="47.8258" lon="-3.5648">
        <ele>61.799999237061</ele>
        <time>2019-08-15T08:02:57.000Z</time>
      </trkpt>
      <trkpt lat="47.82578" lon="-3.56486">
        <ele>62</ele>
        <time>2019-08-15T08:02:59.000Z</time>
      </trkpt>
      <trkpt lat="47.82578" lon="-3.56493">
        <ele>62.200000762939</ele>
        <time>2019-08-15T08:03:01.000Z</time>
      </trkpt>
      <trkpt lat="47.82578" lon="-3.565">
        <ele>62.200000762939</ele>
        <time>2019-08-15T08:03:03.000Z</time>
      </trkpt>
      <trkpt lat="47.82577" lon="-3.56514">
        <ele>62.400001525879</ele>
        <time>2019-08-15T08:03:07.000Z</time>
      </trkpt>
      <trkpt lat="47.82578" lon="-3.56523">
        <ele>62.400001525879</ele>
        <time>2019-08-15T08:03:09.000Z</time>
      </trkpt>
      <trkpt lat="47.82578" lon="-3.56529">
        <ele>62.599998474121</ele>
        <time>2019-08-15T08:03:11.000Z</time>
      </trkpt>
      <trkpt lat="47.82577" lon="-3.56532">
        <ele>62.799999237061</ele>
        <time>2019-08-15T08:03:12.000Z</time>
      </trkpt>
      <trkpt lat="47.82575" lon="-3.56541">
        <ele>63</ele>
        <time>2019-08-15T08:03:14.000Z</time>
      </trkpt>
      <trkpt lat="47.82574" lon="-3.56546">
        <ele>63.200000762939</ele>
        <time>2019-08-15T08:03:15.000Z</time>
      </trkpt>
      <trkpt lat="47.82568" lon="-3.56557">
        <ele>63.200000762939</ele>
        <time>2019-08-15T08:03:19.000Z</time>
      </trkpt>
      <trkpt lat="47.82565" lon="-3.56569">
        <ele>63.599998474121</ele>
        <time>2019-08-15T08:03:23.000Z</time>
      </trkpt>
      <trkpt lat="47.82565" lon="-3.56572">
        <ele>63.400001525879</ele>
        <time>2019-08-15T08:03:24.000Z</time>
      </trkpt>
      <trkpt lat="47.82562" lon="-3.56593">
        <ele>63.599998474121</ele>
        <time>2019-08-15T08:03:29.000Z</time>
      </trkpt>
      <trkpt lat="47.82557" lon="-3.56608">
        <ele>63.599998474121</ele>
        <time>2019-08-15T08:03:33.000Z</time>
      </trkpt>
      <trkpt lat="47.82556" lon="-3.56612">
        <ele>63.599998474121</ele>
        <time>2019-08-15T08:03:34.000Z</time>
      </trkpt>
      <trkpt lat="47.82555" lon="-3.56624">
        <ele>63.599998474121</ele>
        <time>2019-08-15T08:03:37.000Z</time>
      </trkpt>
      <trkpt lat="47.82554" lon="-3.56627">
        <ele>63.599998474121</ele>
        <time>2019-08-15T08:03:38.000Z</time>
      </trkpt>
      <trkpt lat="47.82552" lon="-3.5663">
        <ele>63.799999237061</ele>
        <time>2019-08-15T08:03:39.000Z</time>
      </trkpt>
      <trkpt lat="47.82551" lon="-3.56633">
        <ele>63.799999237061</ele>
        <time>2019-08-15T08:03:40.000Z</time>
      </trkpt>
      <trkpt lat="47.82547" lon="-3.56639">
        <ele>63.799999237061</ele>
        <time>2019-08-15T08:03:41.000Z</time>
      </trkpt>
      <trkpt lat="47.82543" lon="-3.56649">
        <ele>64</ele>
        <time>2019-08-15T08:03:43.000Z</time>
      </trkpt>
      <trkpt lat="47.82543" lon="-3.56651">
        <ele>63.799999237061</ele>
        <time>2019-08-15T08:03:44.000Z</time>
      </trkpt>
      <trkpt lat="47.82543" lon="-3.56653">
        <ele>63.799999237061</ele>
        <time>2019-08-15T08:03:45.000Z</time>
      </trkpt>
      <trkpt lat="47.8254" lon="-3.56667">
        <ele>64</ele>
        <time>2019-08-15T08:03:49.000Z</time>
      </trkpt>
      <trkpt lat="47.82538" lon="-3.5667">
        <ele>64.199996948242</ele>
        <time>2019-08-15T08:03:50.000Z</time>
      </trkpt>
      <trkpt lat="47.82536" lon="-3.56674">
        <ele>64.199996948242</ele>
        <time>2019-08-15T08:03:51.000Z</time>
      </trkpt>
      <trkpt lat="47.82535" lon="-3.56683">
        <ele>64.199996948242</ele>
        <time>2019-08-15T08:03:54.000Z</time>
      </trkpt>
      <trkpt lat="47.82534" lon="-3.56686">
        <ele>64</ele>
        <time>2019-08-15T08:03:55.000Z</time>
      </trkpt>
      <trkpt lat="47.8253" lon="-3.56697">
        <ele>64.199996948242</ele>
        <time>2019-08-15T08:03:59.000Z</time>
      </trkpt>
      <trkpt lat="47.82529" lon="-3.567">
        <ele>64.199996948242</ele>
        <time>2019-08-15T08:04:00.000Z</time>
      </trkpt>
      <trkpt lat="47.82527" lon="-3.56701">
        <ele>64.199996948242</ele>
        <time>2019-08-15T08:04:01.000Z</time>
      </trkpt>
      <trkpt lat="47.82522" lon="-3.56702">
        <ele>64.400001525879</ele>
        <time>2019-08-15T08:04:03.000Z</time>
      </trkpt>
      <trkpt lat="47.8252" lon="-3.56702">
        <ele>64.199996948242</ele>
        <time>2019-08-15T08:04:04.000Z</time>
      </trkpt>
      <trkpt lat="47.82517" lon="-3.56702">
        <ele>64.400001525879</ele>
        <time>2019-08-15T08:04:05.000Z</time>
      </trkpt>
      <trkpt lat="47.82515" lon="-3.56703">
        <ele>64.400001525879</ele>
        <time>2019-08-15T08:04:06.000Z</time>
      </trkpt>
      <trkpt lat="47.82502" lon="-3.56705">
        <ele>64.599998474121</ele>
        <time>2019-08-15T08:04:10.000Z</time>
      </trkpt>
      <trkpt lat="47.82497" lon="-3.56703">
        <ele>64.800003051758</ele>
        <time>2019-08-15T08:04:12.000Z</time>
      </trkpt>
      <trkpt lat="47.82495" lon="-3.56702">
        <ele>64.599998474121</ele>
        <time>2019-08-15T08:04:13.000Z</time>
      </trkpt>
      <trkpt lat="47.82492" lon="-3.56702">
        <ele>65</ele>
        <time>2019-08-15T08:04:14.000Z</time>
      </trkpt>
      <trkpt lat="47.82489" lon="-3.56703">
        <ele>64.800003051758</ele>
        <time>2019-08-15T08:04:15.000Z</time>
      </trkpt>
      <trkpt lat="47.82486" lon="-3.56702">
        <ele>65</ele>
        <time>2019-08-15T08:04:16.000Z</time>
      </trkpt>
      <trkpt lat="47.82483" lon="-3.56702">
        <ele>65</ele>
        <time>2019-08-15T08:04:17.000Z</time>
      </trkpt>
      <trkpt lat="47.82471" lon="-3.56701">
        <ele>64.199996948242</ele>
        <time>2019-08-15T08:04:21.000Z</time>
      </trkpt>
      <trkpt lat="47.82468" lon="-3.56701">
        <ele>64.199996948242</ele>
        <time>2019-08-15T08:04:22.000Z</time>
      </trkpt>
      <trkpt lat="47.82461" lon="-3.56702">
        <ele>64.199996948242</ele>
        <time>2019-08-15T08:04:24.000Z</time>
      </trkpt>
      <trkpt lat="47.82458" lon="-3.56704">
        <ele>64.199996948242</ele>
        <time>2019-08-15T08:04:25.000Z</time>
      </trkpt>
      <trkpt lat="47.82452" lon="-3.56704">
        <ele>64.400001525879</ele>
        <time>2019-08-15T08:04:27.000Z</time>
      </trkpt>
      <trkpt lat="47.82436" lon="-3.567">
        <ele>64.800003051758</ele>
        <time>2019-08-15T08:04:32.000Z</time>
      </trkpt>
      <trkpt lat="47.82431" lon="-3.56699">
        <ele>64.800003051758</ele>
        <time>2019-08-15T08:04:34.000Z</time>
      </trkpt>
      <trkpt lat="47.82427" lon="-3.56701">
        <ele>64.599998474121</ele>
        <time>2019-08-15T08:04:35.000Z</time>
      </trkpt>
      <trkpt lat="47.82424" lon="-3.56703">
        <ele>64.599998474121</ele>
        <time>2019-08-15T08:04:36.000Z</time>
      </trkpt>
      <trkpt lat="47.82421" lon="-3.56705">
        <ele>64.400001525879</ele>
        <time>2019-08-15T08:04:37.000Z</time>
      </trkpt>
      <trkpt lat="47.8241" lon="-3.56713">
        <ele>64.400001525879</ele>
        <time>2019-08-15T08:04:41.000Z</time>
      </trkpt>
      <trkpt lat="47.82406" lon="-3.56712">
        <ele>64.199996948242</ele>
        <time>2019-08-15T08:04:42.000Z</time>
      </trkpt>
      <trkpt lat="47.82396" lon="-3.5671">
        <ele>64</ele>
        <time>2019-08-15T08:04:46.000Z</time>
      </trkpt>
      <trkpt lat="47.82384" lon="-3.56709">
        <ele>64</ele>
        <time>2019-08-15T08:04:50.000Z</time>
      </trkpt>
      <trkpt lat="47.82381" lon="-3.56709">
        <ele>63.799999237061</ele>
        <time>2019-08-15T08:04:51.000Z</time>
      </trkpt>
      <trkpt lat="47.82375" lon="-3.56709">
        <ele>63.799999237061</ele>
        <time>2019-08-15T08:04:53.000Z</time>
      </trkpt>
      <trkpt lat="47.82372" lon="-3.5671">
        <ele>63.799999237061</ele>
        <time>2019-08-15T08:04:55.000Z</time>
      </trkpt>
      <trkpt lat="47.8237" lon="-3.56712">
        <ele>64</ele>
        <time>2019-08-15T08:04:56.000Z</time>
      </trkpt>
      <trkpt lat="47.82353" lon="-3.56725">
        <ele>63.799999237061</ele>
        <time>2019-08-15T08:05:01.000Z</time>
      </trkpt>
      <trkpt lat="47.82342" lon="-3.56736">
        <ele>63.799999237061</ele>
        <time>2019-08-15T08:05:06.000Z</time>
      </trkpt>
      <trkpt lat="47.82336" lon="-3.56749">
        <ele>63.799999237061</ele>
        <time>2019-08-15T08:05:10.000Z</time>
      </trkpt>
      <trkpt lat="47.82334" lon="-3.56753">
        <ele>63.599998474121</ele>
        <time>2019-08-15T08:05:11.000Z</time>
      </trkpt>
      <trkpt lat="47.8233" lon="-3.56759">
        <ele>63.799999237061</ele>
        <time>2019-08-15T08:05:13.000Z</time>
      </trkpt>
      <trkpt lat="47.82328" lon="-3.56761">
        <ele>63.599998474121</ele>
        <time>2019-08-15T08:05:14.000Z</time>
      </trkpt>
      <trkpt lat="47.82327" lon="-3.56764">
        <ele>63.599998474121</ele>
        <time>2019-08-15T08:05:15.000Z</time>
      </trkpt>
      <trkpt lat="47.8232" lon="-3.56788">
        <ele>63.599998474121</ele>
        <time>2019-08-15T08:05:22.000Z</time>
      </trkpt>
      <trkpt lat="47.82319" lon="-3.56791">
        <ele>63.599998474121</ele>
        <time>2019-08-15T08:05:23.000Z</time>
      </trkpt>
      <trkpt lat="47.82318" lon="-3.56794">
        <ele>63.599998474121</ele>
        <time>2019-08-15T08:05:24.000Z</time>
      </trkpt>
      <trkpt lat="47.82318" lon="-3.56796">
        <ele>63.599998474121</ele>
        <time>2019-08-15T08:05:25.000Z</time>
      </trkpt>
      <trkpt lat="47.82317" lon="-3.56805">
        <ele>63.799999237061</ele>
        <time>2019-08-15T08:05:27.000Z</time>
      </trkpt>
      <trkpt lat="47.82317" lon="-3.56808">
        <ele>63.799999237061</ele>
        <time>2019-08-15T08:05:28.000Z</time>
      </trkpt>
      <trkpt lat="47.82316" lon="-3.56812">
        <ele>63.799999237061</ele>
        <time>2019-08-15T08:05:29.000Z</time>
      </trkpt>
      <trkpt lat="47.82315" lon="-3.56816">
        <ele>64</ele>
        <time>2019-08-15T08:05:30.000Z</time>
      </trkpt>
      <trkpt lat="47.82312" lon="-3.56833">
        <ele>64.199996948242</ele>
        <time>2019-08-15T08:05:34.000Z</time>
      </trkpt>
      <trkpt lat="47.82311" lon="-3.56869">
        <ele>64.400001525879</ele>
        <time>2019-08-15T08:05:40.000Z</time>
      </trkpt>
      <trkpt lat="47.82309" lon="-3.56898">
        <ele>64.400001525879</ele>
        <time>2019-08-15T08:05:45.000Z</time>
      </trkpt>
      <trkpt lat="47.82309" lon="-3.56905">
        <ele>64.199996948242</ele>
        <time>2019-08-15T08:05:46.000Z</time>
      </trkpt>
      <trkpt lat="47.8231" lon="-3.56917">
        <ele>64.199996948242</ele>
        <time>2019-08-15T08:05:48.000Z</time>
      </trkpt>
      <trkpt lat="47.8231" lon="-3.56924">
        <ele>64.199996948242</ele>
        <time>2019-08-15T08:05:49.000Z</time>
      </trkpt>
      <trkpt lat="47.8231" lon="-3.56932">
        <ele>64.199996948242</ele>
        <time>2019-08-15T08:05:50.000Z</time>
      </trkpt>
      <trkpt lat="47.82309" lon="-3.56979">
        <ele>63.599998474121</ele>
        <time>2019-08-15T08:05:57.000Z</time>
      </trkpt>
      <trkpt lat="47.82309" lon="-3.56984">
        <ele>63.400001525879</ele>
        <time>2019-08-15T08:05:58.000Z</time>
      </trkpt>
      <trkpt lat="47.82312" lon="-3.57008">
        <ele>63.400001525879</ele>
        <time>2019-08-15T08:06:03.000Z</time>
      </trkpt>
      <trkpt lat="47.82311" lon="-3.57013">
        <ele>63.400001525879</ele>
        <time>2019-08-15T08:06:04.000Z</time>
      </trkpt>
      <trkpt lat="47.82311" lon="-3.57019">
        <ele>63.200000762939</ele>
        <time>2019-08-15T08:06:05.000Z</time>
      </trkpt>
      <trkpt lat="47.8231" lon="-3.57027">
        <ele>63.200000762939</ele>
        <time>2019-08-15T08:06:06.000Z</time>
      </trkpt>
      <trkpt lat="47.82311" lon="-3.57041">
        <ele>63.200000762939</ele>
        <time>2019-08-15T08:06:08.000Z</time>
      </trkpt>
      <trkpt lat="47.82311" lon="-3.5707">
        <ele>63</ele>
        <time>2019-08-15T08:06:12.000Z</time>
      </trkpt>
      <trkpt lat="47.82309" lon="-3.57084">
        <ele>63</ele>
        <time>2019-08-15T08:06:14.000Z</time>
      </trkpt>
      <trkpt lat="47.82303" lon="-3.57098">
        <ele>62.599998474121</ele>
        <time>2019-08-15T08:06:17.000Z</time>
      </trkpt>
      <trkpt lat="47.82299" lon="-3.57099">
        <ele>62.799999237061</ele>
        <time>2019-08-15T08:06:18.000Z</time>
      </trkpt>
      <trkpt lat="47.82287" lon="-3.57095">
        <ele>62.599998474121</ele>
        <time>2019-08-15T08:06:21.000Z</time>
      </trkpt>
      <trkpt lat="47.82284" lon="-3.57094">
        <ele>62.799999237061</ele>
        <time>2019-08-15T08:06:22.000Z</time>
      </trkpt>
      <trkpt lat="47.82279" lon="-3.57094">
        <ele>62.799999237061</ele>
        <time>2019-08-15T08:06:23.000Z</time>
      </trkpt>
      <trkpt lat="47.82272" lon="-3.57097">
        <ele>62.400001525879</ele>
        <time>2019-08-15T08:06:25.000Z</time>
      </trkpt>
      <trkpt lat="47.82265" lon="-3.57106">
        <ele>62.400001525879</ele>
        <time>2019-08-15T08:06:27.000Z</time>
      </trkpt>
      <trkpt lat="47.82262" lon="-3.57111">
        <ele>62.400001525879</ele>
        <time>2019-08-15T08:06:28.000Z</time>
      </trkpt>
      <trkpt lat="47.82254" lon="-3.57117">
        <ele>62.400001525879</ele>
        <time>2019-08-15T08:06:30.000Z</time>
      </trkpt>
      <trkpt lat="47.82249" lon="-3.57118">
        <ele>62.400001525879</ele>
        <time>2019-08-15T08:06:31.000Z</time>
      </trkpt>
      <trkpt lat="47.82239" lon="-3.57118">
        <ele>62.599998474121</ele>
        <time>2019-08-15T08:06:33.000Z</time>
      </trkpt>
      <trkpt lat="47.82235" lon="-3.57118">
        <ele>62.599998474121</ele>
        <time>2019-08-15T08:06:34.000Z</time>
      </trkpt>
      <trkpt lat="47.82218" lon="-3.57115">
        <ele>62.599998474121</ele>
        <time>2019-08-15T08:06:38.000Z</time>
      </trkpt>
      <trkpt lat="47.8221" lon="-3.57113">
        <ele>62.599998474121</ele>
        <time>2019-08-15T08:06:40.000Z</time>
      </trkpt>
      <trkpt lat="47.82197" lon="-3.57112">
        <ele>62.599998474121</ele>
        <time>2019-08-15T08:06:43.000Z</time>
      </trkpt>
      <trkpt lat="47.82186" lon="-3.57108">
        <ele>62.599998474121</ele>
        <time>2019-08-15T08:06:45.000Z</time>
      </trkpt>
      <trkpt lat="47.82181" lon="-3.57106">
        <ele>62.799999237061</ele>
        <time>2019-08-15T08:06:46.000Z</time>
      </trkpt>
      <trkpt lat="47.82176" lon="-3.57105">
        <ele>62.599998474121</ele>
        <time>2019-08-15T08:06:47.000Z</time>
      </trkpt>
      <trkpt lat="47.82155" lon="-3.571">
        <ele>62.200000762939</ele>
        <time>2019-08-15T08:06:51.000Z</time>
      </trkpt>
      <trkpt lat="47.82148" lon="-3.57098">
        <ele>62.200000762939</ele>
        <time>2019-08-15T08:06:52.000Z</time>
      </trkpt>
      <trkpt lat="47.82133" lon="-3.57095">
        <ele>62</ele>
        <time>2019-08-15T08:06:55.000Z</time>
      </trkpt>
      <trkpt lat="47.82111" lon="-3.57091">
        <ele>62.200000762939</ele>
        <time>2019-08-15T08:06:59.000Z</time>
      </trkpt>
      <trkpt lat="47.82105" lon="-3.5709">
        <ele>62.200000762939</ele>
        <time>2019-08-15T08:07:00.000Z</time>
      </trkpt>
      <trkpt lat="47.82098" lon="-3.57089">
        <ele>62.200000762939</ele>
        <time>2019-08-15T08:07:01.000Z</time>
      </trkpt>
      <trkpt lat="47.82067" lon="-3.57084">
        <ele>61.599998474121</ele>
        <time>2019-08-15T08:07:07.000Z</time>
      </trkpt>
      <trkpt lat="47.82061" lon="-3.57083">
        <ele>61.200000762939</ele>
        <time>2019-08-15T08:07:08.000Z</time>
      </trkpt>
      <trkpt lat="47.82056" lon="-3.57081">
        <ele>61.400001525879</ele>
        <time>2019-08-15T08:07:09.000Z</time>
      </trkpt>
      <trkpt lat="47.82051" lon="-3.5708">
        <ele>61.200000762939</ele>
        <time>2019-08-15T08:07:10.000Z</time>
      </trkpt>
      <trkpt lat="47.82035" lon="-3.57076">
        <ele>61.200000762939</ele>
        <time>2019-08-15T08:07:13.000Z</time>
      </trkpt>
      <trkpt lat="47.82028" lon="-3.57075">
        <ele>61.200000762939</ele>
        <time>2019-08-15T08:07:14.000Z</time>
      </trkpt>
      <trkpt lat="47.82023" lon="-3.57074">
        <ele>61.200000762939</ele>
        <time>2019-08-15T08:07:15.000Z</time>
      </trkpt>
      <trkpt lat="47.82006" lon="-3.5707">
        <ele>61</ele>
        <time>2019-08-15T08:07:18.000Z</time>
      </trkpt>
      <trkpt lat="47.81986" lon="-3.57064">
        <ele>60.400001525879</ele>
        <time>2019-08-15T08:07:22.000Z</time>
      </trkpt>
      <trkpt lat="47.81972" lon="-3.57059">
        <ele>59.799999237061</ele>
        <time>2019-08-15T08:07:25.000Z</time>
      </trkpt>
      <trkpt lat="47.81967" lon="-3.57057">
        <ele>59.799999237061</ele>
        <time>2019-08-15T08:07:26.000Z</time>
      </trkpt>
      <trkpt lat="47.81951" lon="-3.57054">
        <ele>59.400001525879</ele>
        <time>2019-08-15T08:07:29.000Z</time>
      </trkpt>
      <trkpt lat="47.81935" lon="-3.5705">
        <ele>59.200000762939</ele>
        <time>2019-08-15T08:07:32.000Z</time>
      </trkpt>
      <trkpt lat="47.81931" lon="-3.5705">
        <ele>59.200000762939</ele>
        <time>2019-08-15T08:07:33.000Z</time>
      </trkpt>
      <trkpt lat="47.81916" lon="-3.57052">
        <ele>58.799999237061</ele>
        <time>2019-08-15T08:07:36.000Z</time>
      </trkpt>
      <trkpt lat="47.81895" lon="-3.57058">
        <ele>58.599998474121</ele>
        <time>2019-08-15T08:07:40.000Z</time>
      </trkpt>
      <trkpt lat="47.81885" lon="-3.57062">
        <ele>58.400001525879</ele>
        <time>2019-08-15T08:07:42.000Z</time>
      </trkpt>
      <trkpt lat="47.8188" lon="-3.57063">
        <ele>58.400001525879</ele>
        <time>2019-08-15T08:07:43.000Z</time>
      </trkpt>
      <trkpt lat="47.81873" lon="-3.57065">
        <ele>57.599998474121</ele>
        <time>2019-08-15T08:07:44.000Z</time>
      </trkpt>
      <trkpt lat="47.81869" lon="-3.57066">
        <ele>57.400001525879</ele>
        <time>2019-08-15T08:07:45.000Z</time>
      </trkpt>
      <trkpt lat="47.81842" lon="-3.57073">
        <ele>56.200000762939</ele>
        <time>2019-08-15T08:07:49.000Z</time>
      </trkpt>
      <trkpt lat="47.81828" lon="-3.57074">
        <ele>55.200000762939</ele>
        <time>2019-08-15T08:07:51.000Z</time>
      </trkpt>
      <trkpt lat="47.81822" lon="-3.57075">
        <ele>54.799999237061</ele>
        <time>2019-08-15T08:07:52.000Z</time>
      </trkpt>
      <trkpt lat="47.81815" lon="-3.57076">
        <ele>54.799999237061</ele>
        <time>2019-08-15T08:07:53.000Z</time>
      </trkpt>
      <trkpt lat="47.81795" lon="-3.5708">
        <ele>54.400001525879</ele>
        <time>2019-08-15T08:07:56.000Z</time>
      </trkpt>
      <trkpt lat="47.81776" lon="-3.57089">
        <ele>54</ele>
        <time>2019-08-15T08:07:59.000Z</time>
      </trkpt>
      <trkpt lat="47.8177" lon="-3.57091">
        <ele>53.599998474121</ele>
        <time>2019-08-15T08:08:00.000Z</time>
      </trkpt>
      <trkpt lat="47.81765" lon="-3.57092">
        <ele>53.400001525879</ele>
        <time>2019-08-15T08:08:01.000Z</time>
      </trkpt>
      <trkpt lat="47.81759" lon="-3.57093">
        <ele>53</ele>
        <time>2019-08-15T08:08:02.000Z</time>
      </trkpt>
      <trkpt lat="47.81754" lon="-3.57095">
        <ele>53</ele>
        <time>2019-08-15T08:08:03.000Z</time>
      </trkpt>
      <trkpt lat="47.81749" lon="-3.57096">
        <ele>52.799999237061</ele>
        <time>2019-08-15T08:08:04.000Z</time>
      </trkpt>
      <trkpt lat="47.81732" lon="-3.57099">
        <ele>52.599998474121</ele>
        <time>2019-08-15T08:08:07.000Z</time>
      </trkpt>
      <trkpt lat="47.81728" lon="-3.57099">
        <ele>52.599998474121</ele>
        <time>2019-08-15T08:08:08.000Z</time>
      </trkpt>
      <trkpt lat="47.81714" lon="-3.57101">
        <ele>53</ele>
        <time>2019-08-15T08:08:12.000Z</time>
      </trkpt>
      <trkpt lat="47.81708" lon="-3.57102">
        <ele>53.599998474121</ele>
        <time>2019-08-15T08:08:14.000Z</time>
      </trkpt>
      <trkpt lat="47.81701" lon="-3.57103">
        <ele>54.599998474121</ele>
        <time>2019-08-15T08:08:17.000Z</time>
      </trkpt>
      <trkpt lat="47.81691" lon="-3.57112">
        <ele>55.200000762939</ele>
        <time>2019-08-15T08:08:22.000Z</time>
      </trkpt>
      <trkpt lat="47.81687" lon="-3.57114">
        <ele>55.400001525879</ele>
        <time>2019-08-15T08:08:24.000Z</time>
      </trkpt>
      <trkpt lat="47.81685" lon="-3.57114">
        <ele>55.400001525879</ele>
        <time>2019-08-15T08:08:25.000Z</time>
      </trkpt>
      <trkpt lat="47.81682" lon="-3.57115">
        <ele>55.400001525879</ele>
        <time>2019-08-15T08:08:26.000Z</time>
      </trkpt>
      <trkpt lat="47.81679" lon="-3.57116">
        <ele>55.599998474121</ele>
        <time>2019-08-15T08:08:27.000Z</time>
      </trkpt>
      <trkpt lat="47.81674" lon="-3.57119">
        <ele>55.599998474121</ele>
        <time>2019-08-15T08:08:29.000Z</time>
      </trkpt>
      <trkpt lat="47.81671" lon="-3.57121">
        <ele>55.799999237061</ele>
        <time>2019-08-15T08:08:30.000Z</time>
      </trkpt>
      <trkpt lat="47.81663" lon="-3.57125">
        <ele>55.799999237061</ele>
        <time>2019-08-15T08:08:33.000Z</time>
      </trkpt>
      <trkpt lat="47.81659" lon="-3.57127">
        <ele>55.799999237061</ele>
        <time>2019-08-15T08:08:34.000Z</time>
      </trkpt>
      <trkpt lat="47.8165" lon="-3.57132">
        <ele>56</ele>
        <time>2019-08-15T08:08:36.000Z</time>
      </trkpt>
      <trkpt lat="47.81629" lon="-3.57145">
        <ele>56</ele>
        <time>2019-08-15T08:08:41.000Z</time>
      </trkpt>
      <trkpt lat="47.81625" lon="-3.57147">
        <ele>56.400001525879</ele>
        <time>2019-08-15T08:08:42.000Z</time>
      </trkpt>
      <trkpt lat="47.81621" lon="-3.57148">
        <ele>56.200000762939</ele>
        <time>2019-08-15T08:08:43.000Z</time>
      </trkpt>
      <trkpt lat="47.81612" lon="-3.57156">
        <ele>56.400001525879</ele>
        <time>2019-08-15T08:08:46.000Z</time>
      </trkpt>
      <trkpt lat="47.81606" lon="-3.5716">
        <ele>56.400001525879</ele>
        <time>2019-08-15T08:08:48.000Z</time>
      </trkpt>
      <trkpt lat="47.81592" lon="-3.57171">
        <ele>56.799999237061</ele>
        <time>2019-08-15T08:08:52.000Z</time>
      </trkpt>
      <trkpt lat="47.81579" lon="-3.57178">
        <ele>57</ele>
        <time>2019-08-15T08:08:55.000Z</time>
      </trkpt>
      <trkpt lat="47.8157" lon="-3.57184">
        <ele>57</ele>
        <time>2019-08-15T08:08:57.000Z</time>
      </trkpt>
      <trkpt lat="47.81556" lon="-3.5719">
        <ele>57.200000762939</ele>
        <time>2019-08-15T08:09:00.000Z</time>
      </trkpt>
      <trkpt lat="47.81547" lon="-3.57195">
        <ele>57.200000762939</ele>
        <time>2019-08-15T08:09:02.000Z</time>
      </trkpt>
      <trkpt lat="47.81534" lon="-3.57202">
        <ele>57.200000762939</ele>
        <time>2019-08-15T08:09:05.000Z</time>
      </trkpt>
      <trkpt lat="47.81516" lon="-3.5721">
        <ele>57.400001525879</ele>
        <time>2019-08-15T08:09:09.000Z</time>
      </trkpt>
      <trkpt lat="47.81512" lon="-3.57211">
        <ele>57.200000762939</ele>
        <time>2019-08-15T08:09:10.000Z</time>
      </trkpt>
      <trkpt lat="47.81508" lon="-3.5721">
        <ele>57.200000762939</ele>
        <time>2019-08-15T08:09:11.000Z</time>
      </trkpt>
      <trkpt lat="47.81504" lon="-3.57209">
        <ele>57.200000762939</ele>
        <time>2019-08-15T08:09:12.000Z</time>
      </trkpt>
      <trkpt lat="47.815" lon="-3.57205">
        <ele>57.200000762939</ele>
        <time>2019-08-15T08:09:13.000Z</time>
      </trkpt>
      <trkpt lat="47.81498" lon="-3.57199">
        <ele>57.200000762939</ele>
        <time>2019-08-15T08:09:14.000Z</time>
      </trkpt>
      <trkpt lat="47.81493" lon="-3.57187">
        <ele>57</ele>
        <time>2019-08-15T08:09:16.000Z</time>
      </trkpt>
      <trkpt lat="47.81491" lon="-3.5718">
        <ele>57.200000762939</ele>
        <time>2019-08-15T08:09:17.000Z</time>
      </trkpt>
      <trkpt lat="47.81484" lon="-3.57162">
        <ele>57</ele>
        <time>2019-08-15T08:09:20.000Z</time>
      </trkpt>
      <trkpt lat="47.81482" lon="-3.57157">
        <ele>57</ele>
        <time>2019-08-15T08:09:21.000Z</time>
      </trkpt>
      <trkpt lat="47.8148" lon="-3.57151">
        <ele>57</ele>
        <time>2019-08-15T08:09:22.000Z</time>
      </trkpt>
      <trkpt lat="47.81477" lon="-3.57144">
        <ele>56.799999237061</ele>
        <time>2019-08-15T08:09:23.000Z</time>
      </trkpt>
      <trkpt lat="47.81475" lon="-3.57138">
        <ele>57</ele>
        <time>2019-08-15T08:09:24.000Z</time>
      </trkpt>
      <trkpt lat="47.81472" lon="-3.57132">
        <ele>57</ele>
        <time>2019-08-15T08:09:25.000Z</time>
      </trkpt>
      <trkpt lat="47.81469" lon="-3.57126">
        <ele>56.799999237061</ele>
        <time>2019-08-15T08:09:26.000Z</time>
      </trkpt>
      <trkpt lat="47.81461" lon="-3.57101">
        <ele>56.599998474121</ele>
        <time>2019-08-15T08:09:30.000Z</time>
      </trkpt>
      <trkpt lat="47.8146" lon="-3.57094">
        <ele>56.400001525879</ele>
        <time>2019-08-15T08:09:31.000Z</time>
      </trkpt>
      <trkpt lat="47.81458" lon="-3.57086">
        <ele>56.400001525879</ele>
        <time>2019-08-15T08:09:32.000Z</time>
      </trkpt>
      <trkpt lat="47.81456" lon="-3.57078">
        <ele>56.400001525879</ele>
        <time>2019-08-15T08:09:33.000Z</time>
      </trkpt>
      <trkpt lat="47.81454" lon="-3.57069">
        <ele>56.200000762939</ele>
        <time>2019-08-15T08:09:34.000Z</time>
      </trkpt>
      <trkpt lat="47.81452" lon="-3.5706">
        <ele>56</ele>
        <time>2019-08-15T08:09:35.000Z</time>
      </trkpt>
      <trkpt lat="47.81448" lon="-3.57035">
        <ele>55.799999237061</ele>
        <time>2019-08-15T08:09:38.000Z</time>
      </trkpt>
      <trkpt lat="47.81447" lon="-3.57027">
        <ele>55.599998474121</ele>
        <time>2019-08-15T08:09:39.000Z</time>
      </trkpt>
      <trkpt lat="47.81445" lon="-3.57019">
        <ele>55.599998474121</ele>
        <time>2019-08-15T08:09:40.000Z</time>
      </trkpt>
      <trkpt lat="47.8144" lon="-3.56982">
        <ele>55.200000762939</ele>
        <time>2019-08-15T08:09:44.000Z</time>
      </trkpt>
      <trkpt lat="47.81438" lon="-3.56973">
        <ele>55</ele>
        <time>2019-08-15T08:09:45.000Z</time>
      </trkpt>
      <trkpt lat="47.81428" lon="-3.56937">
        <ele>54.799999237061</ele>
        <time>2019-08-15T08:09:49.000Z</time>
      </trkpt>
      <trkpt lat="47.81425" lon="-3.56929">
        <ele>54.799999237061</ele>
        <time>2019-08-15T08:09:50.000Z</time>
      </trkpt>
      <trkpt lat="47.81422" lon="-3.56922">
        <ele>55</ele>
        <time>2019-08-15T08:09:51.000Z</time>
      </trkpt>
      <trkpt lat="47.81415" lon="-3.56909">
        <ele>55</ele>
        <time>2019-08-15T08:09:53.000Z</time>
      </trkpt>
      <trkpt lat="47.8141" lon="-3.56897">
        <ele>54.599998474121</ele>
        <time>2019-08-15T08:09:55.000Z</time>
      </trkpt>
      <trkpt lat="47.81407" lon="-3.56891">
        <ele>54.799999237061</ele>
        <time>2019-08-15T08:09:56.000Z</time>
      </trkpt>
      <trkpt lat="47.81401" lon="-3.56879">
        <ele>54.799999237061</ele>
        <time>2019-08-15T08:09:58.000Z</time>
      </trkpt>
      <trkpt lat="47.81398" lon="-3.56873">
        <ele>55</ele>
        <time>2019-08-15T08:09:59.000Z</time>
      </trkpt>
      <trkpt lat="47.81394" lon="-3.5686">
        <ele>55.200000762939</ele>
        <time>2019-08-15T08:10:01.000Z</time>
      </trkpt>
      <trkpt lat="47.81388" lon="-3.56847">
        <ele>55.400001525879</ele>
        <time>2019-08-15T08:10:03.000Z</time>
      </trkpt>
      <trkpt lat="47.81382" lon="-3.56826">
        <ele>55.799999237061</ele>
        <time>2019-08-15T08:10:06.000Z</time>
      </trkpt>
      <trkpt lat="47.8138" lon="-3.56818">
        <ele>55.799999237061</ele>
        <time>2019-08-15T08:10:07.000Z</time>
      </trkpt>
      <trkpt lat="47.81378" lon="-3.56811">
        <ele>55.799999237061</ele>
        <time>2019-08-15T08:10:08.000Z</time>
      </trkpt>
      <trkpt lat="47.81375" lon="-3.56797">
        <ele>56</ele>
        <time>2019-08-15T08:10:10.000Z</time>
      </trkpt>
      <trkpt lat="47.81365" lon="-3.56754">
        <ele>56.400001525879</ele>
        <time>2019-08-15T08:10:16.000Z</time>
      </trkpt>
      <trkpt lat="47.81363" lon="-3.56747">
        <ele>56.599998474121</ele>
        <time>2019-08-15T08:10:17.000Z</time>
      </trkpt>
      <trkpt lat="47.81356" lon="-3.56725">
        <ele>57</ele>
        <time>2019-08-15T08:10:20.000Z</time>
      </trkpt>
      <trkpt lat="47.81354" lon="-3.56719">
        <ele>57.400001525879</ele>
        <time>2019-08-15T08:10:21.000Z</time>
      </trkpt>
      <trkpt lat="47.8135" lon="-3.56708">
        <ele>57.200000762939</ele>
        <time>2019-08-15T08:10:23.000Z</time>
      </trkpt>
      <trkpt lat="47.81347" lon="-3.56694">
        <ele>57.400001525879</ele>
        <time>2019-08-15T08:10:25.000Z</time>
      </trkpt>
      <trkpt lat="47.81346" lon="-3.56687">
        <ele>57.799999237061</ele>
        <time>2019-08-15T08:10:26.000Z</time>
      </trkpt>
      <trkpt lat="47.8134" lon="-3.56652">
        <ele>58.200000762939</ele>
        <time>2019-08-15T08:10:31.000Z</time>
      </trkpt>
      <trkpt lat="47.81341" lon="-3.56645">
        <ele>58.200000762939</ele>
        <time>2019-08-15T08:10:32.000Z</time>
      </trkpt>
      <trkpt lat="47.81343" lon="-3.56638">
        <ele>58.200000762939</ele>
        <time>2019-08-15T08:10:33.000Z</time>
      </trkpt>
      <trkpt lat="47.81349" lon="-3.56626">
        <ele>58.599998474121</ele>
        <time>2019-08-15T08:10:35.000Z</time>
      </trkpt>
      <trkpt lat="47.81352" lon="-3.56621">
        <ele>58.599998474121</ele>
        <time>2019-08-15T08:10:36.000Z</time>
      </trkpt>
      <trkpt lat="47.81356" lon="-3.56615">
        <ele>58.799999237061</ele>
        <time>2019-08-15T08:10:37.000Z</time>
      </trkpt>
      <trkpt lat="47.81363" lon="-3.56604">
        <ele>58.799999237061</ele>
        <time>2019-08-15T08:10:39.000Z</time>
      </trkpt>
      <trkpt lat="47.81366" lon="-3.56597">
        <ele>58.799999237061</ele>
        <time>2019-08-15T08:10:40.000Z</time>
      </trkpt>
      <trkpt lat="47.81376" lon="-3.56579">
        <ele>59.200000762939</ele>
        <time>2019-08-15T08:10:43.000Z</time>
      </trkpt>
      <trkpt lat="47.81394" lon="-3.56549">
        <ele>59.200000762939</ele>
        <time>2019-08-15T08:10:48.000Z</time>
      </trkpt>
      <trkpt lat="47.81397" lon="-3.56544">
        <ele>59.200000762939</ele>
        <time>2019-08-15T08:10:49.000Z</time>
      </trkpt>
      <trkpt lat="47.814" lon="-3.56538">
        <ele>59.400001525879</ele>
        <time>2019-08-15T08:10:50.000Z</time>
      </trkpt>
      <trkpt lat="47.81404" lon="-3.56532">
        <ele>59.400001525879</ele>
        <time>2019-08-15T08:10:51.000Z</time>
      </trkpt>
      <trkpt lat="47.81411" lon="-3.56519">
        <ele>59.599998474121</ele>
        <time>2019-08-15T08:10:53.000Z</time>
      </trkpt>
      <trkpt lat="47.81415" lon="-3.56513">
        <ele>59.599998474121</ele>
        <time>2019-08-15T08:10:54.000Z</time>
      </trkpt>
      <trkpt lat="47.81419" lon="-3.56506">
        <ele>59.799999237061</ele>
        <time>2019-08-15T08:10:55.000Z</time>
      </trkpt>
      <trkpt lat="47.81431" lon="-3.56486">
        <ele>60</ele>
        <time>2019-08-15T08:10:58.000Z</time>
      </trkpt>
      <trkpt lat="47.81461" lon="-3.5644">
        <ele>60.400001525879</ele>
        <time>2019-08-15T08:11:05.000Z</time>
      </trkpt>
      <trkpt lat="47.81486" lon="-3.56401">
        <ele>60.200000762939</ele>
        <time>2019-08-15T08:11:11.000Z</time>
      </trkpt>
      <trkpt lat="47.815" lon="-3.5638">
        <ele>60</ele>
        <time>2019-08-15T08:11:14.000Z</time>
      </trkpt>
      <trkpt lat="47.8151" lon="-3.56363">
        <ele>59.799999237061</ele>
        <time>2019-08-15T08:11:16.000Z</time>
      </trkpt>
      <trkpt lat="47.81527" lon="-3.56333">
        <ele>59.200000762939</ele>
        <time>2019-08-15T08:11:20.000Z</time>
      </trkpt>
      <trkpt lat="47.81528" lon="-3.56318">
        <ele>58.400001525879</ele>
        <time>2019-08-15T08:11:22.000Z</time>
      </trkpt>
      <trkpt lat="47.81526" lon="-3.56311">
        <ele>58</ele>
        <time>2019-08-15T08:11:23.000Z</time>
      </trkpt>
      <trkpt lat="47.81522" lon="-3.56306">
        <ele>58</ele>
        <time>2019-08-15T08:11:24.000Z</time>
      </trkpt>
      <trkpt lat="47.81513" lon="-3.56299">
        <ele>57.599998474121</ele>
        <time>2019-08-15T08:11:26.000Z</time>
      </trkpt>
      <trkpt lat="47.81477" lon="-3.56275">
        <ele>57.200000762939</ele>
        <time>2019-08-15T08:11:33.000Z</time>
      </trkpt>
      <trkpt lat="47.81441" lon="-3.56248">
        <ele>57.400001525879</ele>
        <time>2019-08-15T08:11:40.000Z</time>
      </trkpt>
      <trkpt lat="47.81426" lon="-3.56237">
        <ele>57.599998474121</ele>
        <time>2019-08-15T08:11:43.000Z</time>
      </trkpt>
      <trkpt lat="47.81393" lon="-3.56207">
        <ele>58.400001525879</ele>
        <time>2019-08-15T08:11:50.000Z</time>
      </trkpt>
      <trkpt lat="47.81345" lon="-3.56162">
        <ele>58.400001525879</ele>
        <time>2019-08-15T08:12:00.000Z</time>
      </trkpt>
      <trkpt lat="47.8134" lon="-3.56157">
        <ele>58.400001525879</ele>
        <time>2019-08-15T08:12:01.000Z</time>
      </trkpt>
      <trkpt lat="47.81295" lon="-3.56115">
        <ele>58.599998474121</ele>
        <time>2019-08-15T08:12:10.000Z</time>
      </trkpt>
      <trkpt lat="47.81253" lon="-3.56078">
        <ele>58.599998474121</ele>
        <time>2019-08-15T08:12:18.000Z</time>
      </trkpt>
      <trkpt lat="47.81228" lon="-3.56055">
        <ele>58.599998474121</ele>
        <time>2019-08-15T08:12:24.000Z</time>
      </trkpt>
      <trkpt lat="47.81224" lon="-3.56054">
        <ele>58.400001525879</ele>
        <time>2019-08-15T08:12:26.000Z</time>
      </trkpt>
      <trkpt lat="47.81222" lon="-3.56057">
        <ele>58.400001525879</ele>
        <time>2019-08-15T08:12:27.000Z</time>
      </trkpt>
      <trkpt lat="47.81221" lon="-3.5606">
        <ele>58.400001525879</ele>
        <time>2019-08-15T08:12:28.000Z</time>
      </trkpt>
      <trkpt lat="47.81213" lon="-3.56075">
        <ele>58</ele>
        <time>2019-08-15T08:12:32.000Z</time>
      </trkpt>
      <trkpt lat="47.81207" lon="-3.56083">
        <ele>58</ele>
        <time>2019-08-15T08:12:34.000Z</time>
      </trkpt>
      <trkpt lat="47.81205" lon="-3.56087">
        <ele>57.799999237061</ele>
        <time>2019-08-15T08:12:35.000Z</time>
      </trkpt>
      <trkpt lat="47.81201" lon="-3.56098">
        <ele>57.799999237061</ele>
        <time>2019-08-15T08:12:37.000Z</time>
      </trkpt>
      <trkpt lat="47.81195" lon="-3.56114">
        <ele>58</ele>
        <time>2019-08-15T08:12:42.000Z</time>
      </trkpt>
      <trkpt lat="47.81195" lon="-3.56114">
        <ele>58</ele>
        <time>2019-08-15T08:12:43.000Z</time>
      </trkpt>
      <trkpt lat="47.81195" lon="-3.56114">
        <ele>57.400001525879</ele>
        <time>2019-08-15T08:15:38.000Z</time>
      </trkpt>
      <trkpt lat="47.81195" lon="-3.56114">
        <ele>57.400001525879</ele>
        <time>2019-08-15T08:15:39.000Z</time>
      </trkpt>
      <trkpt lat="47.81195" lon="-3.56114">
        <ele>57.400001525879</ele>
        <time>2019-08-15T08:15:40.000Z</time>
      </trkpt>
      <trkpt lat="47.81195" lon="-3.56114">
        <ele>57.599998474121</ele>
        <time>2019-08-15T08:15:42.000Z</time>
      </trkpt>
      <trkpt lat="47.81194" lon="-3.56119">
        <ele>58</ele>
        <time>2019-08-15T08:15:45.000Z</time>
      </trkpt>
      <trkpt lat="47.8119" lon="-3.56133">
        <ele>58</ele>
        <time>2019-08-15T08:15:49.000Z</time>
      </trkpt>
      <trkpt lat="47.81189" lon="-3.56137">
        <ele>58.200000762939</ele>
        <time>2019-08-15T08:15:50.000Z</time>
      </trkpt>
      <trkpt lat="47.81188" lon="-3.56142">
        <ele>58.200000762939</ele>
        <time>2019-08-15T08:15:51.000Z</time>
      </trkpt>
      <trkpt lat="47.81185" lon="-3.56151">
        <ele>58.200000762939</ele>
        <time>2019-08-15T08:15:53.000Z</time>
      </trkpt>
      <trkpt lat="47.81179" lon="-3.56166">
        <ele>58.200000762939</ele>
        <time>2019-08-15T08:15:56.000Z</time>
      </trkpt>
      <trkpt lat="47.81178" lon="-3.56171">
        <ele>58.200000762939</ele>
        <time>2019-08-15T08:15:57.000Z</time>
      </trkpt>
      <trkpt lat="47.81175" lon="-3.56177">
        <ele>58.200000762939</ele>
        <time>2019-08-15T08:15:58.000Z</time>
      </trkpt>
      <trkpt lat="47.8117" lon="-3.56194">
        <ele>58.400001525879</ele>
        <time>2019-08-15T08:16:01.000Z</time>
      </trkpt>
      <trkpt lat="47.81169" lon="-3.562">
        <ele>58.400001525879</ele>
        <time>2019-08-15T08:16:02.000Z</time>
      </trkpt>
      <trkpt lat="47.81164" lon="-3.56212">
        <ele>58.200000762939</ele>
        <time>2019-08-15T08:16:04.000Z</time>
      </trkpt>
      <trkpt lat="47.81157" lon="-3.56236">
        <ele>58.400001525879</ele>
        <time>2019-08-15T08:16:08.000Z</time>
      </trkpt>
      <trkpt lat="47.81156" lon="-3.56242">
        <ele>58.200000762939</ele>
        <time>2019-08-15T08:16:09.000Z</time>
      </trkpt>
      <trkpt lat="47.81154" lon="-3.56249">
        <ele>58.400001525879</ele>
        <time>2019-08-15T08:16:10.000Z</time>
      </trkpt>
      <trkpt lat="47.81152" lon="-3.56254">
        <ele>58.200000762939</ele>
        <time>2019-08-15T08:16:11.000Z</time>
      </trkpt>
      <trkpt lat="47.8115" lon="-3.56259">
        <ele>58.400001525879</ele>
        <time>2019-08-15T08:16:12.000Z</time>
      </trkpt>
      <trkpt lat="47.81147" lon="-3.56263">
        <ele>58.200000762939</ele>
        <time>2019-08-15T08:16:13.000Z</time>
      </trkpt>
      <trkpt lat="47.81139" lon="-3.5627">
        <ele>58</ele>
        <time>2019-08-15T08:16:15.000Z</time>
      </trkpt>
      <trkpt lat="47.81132" lon="-3.56276">
        <ele>58.200000762939</ele>
        <time>2019-08-15T08:16:17.000Z</time>
      </trkpt>
      <trkpt lat="47.81129" lon="-3.56279">
        <ele>58.200000762939</ele>
        <time>2019-08-15T08:16:18.000Z</time>
      </trkpt>
      <trkpt lat="47.81121" lon="-3.56287">
        <ele>58.200000762939</ele>
        <time>2019-08-15T08:16:20.000Z</time>
      </trkpt>
      <trkpt lat="47.81114" lon="-3.56293">
        <ele>58.200000762939</ele>
        <time>2019-08-15T08:16:22.000Z</time>
      </trkpt>
      <trkpt lat="47.81107" lon="-3.563">
        <ele>58.200000762939</ele>
        <time>2019-08-15T08:16:24.000Z</time>
      </trkpt>
      <trkpt lat="47.81098" lon="-3.56307">
        <ele>58.200000762939</ele>
        <time>2019-08-15T08:16:27.000Z</time>
      </trkpt>
      <trkpt lat="47.81094" lon="-3.56309">
        <ele>58</ele>
        <time>2019-08-15T08:16:31.000Z</time>
      </trkpt>
      <trkpt lat="47.81094" lon="-3.56309">
        <ele>58</ele>
        <time>2019-08-15T08:16:36.000Z</time>
      </trkpt>
      <trkpt lat="47.81094" lon="-3.56309">
        <ele>57.599998474121</ele>
        <time>2019-08-15T08:16:51.000Z</time>
      </trkpt>
      <trkpt lat="47.81094" lon="-3.56309">
        <ele>57.599998474121</ele>
        <time>2019-08-15T08:16:52.000Z</time>
      </trkpt>
      <trkpt lat="47.81094" lon="-3.56309">
        <ele>57.599998474121</ele>
        <time>2019-08-15T08:16:54.000Z</time>
      </trkpt>
      <trkpt lat="47.81102" lon="-3.56302">
        <ele>57.799999237061</ele>
        <time>2019-08-15T08:17:02.000Z</time>
      </trkpt>
      <trkpt lat="47.81105" lon="-3.56299">
        <ele>57.799999237061</ele>
        <time>2019-08-15T08:17:04.000Z</time>
      </trkpt>
      <trkpt lat="47.81113" lon="-3.5629">
        <ele>57.799999237061</ele>
        <time>2019-08-15T08:17:08.000Z</time>
      </trkpt>
      <trkpt lat="47.81116" lon="-3.56287">
        <ele>57.799999237061</ele>
        <time>2019-08-15T08:17:09.000Z</time>
      </trkpt>
      <trkpt lat="47.81119" lon="-3.56284">
        <ele>57.799999237061</ele>
        <time>2019-08-15T08:17:10.000Z</time>
      </trkpt>
      <trkpt lat="47.81125" lon="-3.56278">
        <ele>57.799999237061</ele>
        <time>2019-08-15T08:17:12.000Z</time>
      </trkpt>
      <trkpt lat="47.81128" lon="-3.56275">
        <ele>57.799999237061</ele>
        <time>2019-08-15T08:17:13.000Z</time>
      </trkpt>
      <trkpt lat="47.81131" lon="-3.56273">
        <ele>57.599998474121</ele>
        <time>2019-08-15T08:17:14.000Z</time>
      </trkpt>
      <trkpt lat="47.81137" lon="-3.56267">
        <ele>57.799999237061</ele>
        <time>2019-08-15T08:17:16.000Z</time>
      </trkpt>
      <trkpt lat="47.81143" lon="-3.56261">
        <ele>58</ele>
        <time>2019-08-15T08:17:18.000Z</time>
      </trkpt>
      <trkpt lat="47.81148" lon="-3.56253">
        <ele>57.799999237061</ele>
        <time>2019-08-15T08:17:20.000Z</time>
      </trkpt>
      <trkpt lat="47.8115" lon="-3.56247">
        <ele>57.799999237061</ele>
        <time>2019-08-15T08:17:21.000Z</time>
      </trkpt>
      <trkpt lat="47.81157" lon="-3.56222">
        <ele>57.799999237061</ele>
        <time>2019-08-15T08:17:25.000Z</time>
      </trkpt>
      <trkpt lat="47.81159" lon="-3.56215">
        <ele>57.799999237061</ele>
        <time>2019-08-15T08:17:26.000Z</time>
      </trkpt>
      <trkpt lat="47.81161" lon="-3.56208">
        <ele>57.799999237061</ele>
        <time>2019-08-15T08:17:27.000Z</time>
      </trkpt>
      <trkpt lat="47.81162" lon="-3.56202">
        <ele>57.799999237061</ele>
        <time>2019-08-15T08:17:28.000Z</time>
      </trkpt>
      <trkpt lat="47.81164" lon="-3.56196">
        <ele>58</ele>
        <time>2019-08-15T08:17:29.000Z</time>
      </trkpt>
      <trkpt lat="47.81173" lon="-3.56174">
        <ele>57.799999237061</ele>
        <time>2019-08-15T08:17:33.000Z</time>
      </trkpt>
      <trkpt lat="47.81175" lon="-3.56169">
        <ele>58</ele>
        <time>2019-08-15T08:17:34.000Z</time>
      </trkpt>
      <trkpt lat="47.81177" lon="-3.56163">
        <ele>58</ele>
        <time>2019-08-15T08:17:35.000Z</time>
      </trkpt>
      <trkpt lat="47.81182" lon="-3.56152">
        <ele>57.799999237061</ele>
        <time>2019-08-15T08:17:37.000Z</time>
      </trkpt>
      <trkpt lat="47.81189" lon="-3.56135">
        <ele>57.599998474121</ele>
        <time>2019-08-15T08:17:40.000Z</time>
      </trkpt>
      <trkpt lat="47.81193" lon="-3.56123">
        <ele>57.799999237061</ele>
        <time>2019-08-15T08:17:42.000Z</time>
      </trkpt>
      <trkpt lat="47.81195" lon="-3.56118">
        <ele>58</ele>
        <time>2019-08-15T08:17:43.000Z</time>
      </trkpt>
      <trkpt lat="47.81202" lon="-3.561">
        <ele>57.799999237061</ele>
        <time>2019-08-15T08:17:46.000Z</time>
      </trkpt>
      <trkpt lat="47.81207" lon="-3.56088">
        <ele>58</ele>
        <time>2019-08-15T08:17:48.000Z</time>
      </trkpt>
      <trkpt lat="47.8121" lon="-3.56083">
        <ele>58</ele>
        <time>2019-08-15T08:17:49.000Z</time>
      </trkpt>
      <trkpt lat="47.81213" lon="-3.56078">
        <ele>58.200000762939</ele>
        <time>2019-08-15T08:17:50.000Z</time>
      </trkpt>
      <trkpt lat="47.81222" lon="-3.56065">
        <ele>58.400001525879</ele>
        <time>2019-08-15T08:17:53.000Z</time>
      </trkpt>
      <trkpt lat="47.81223" lon="-3.56061">
        <ele>58.400001525879</ele>
        <time>2019-08-15T08:17:54.000Z</time>
      </trkpt>
      <trkpt lat="47.81226" lon="-3.56055">
        <ele>58.400001525879</ele>
        <time>2019-08-15T08:17:56.000Z</time>
      </trkpt>
      <trkpt lat="47.81228" lon="-3.56054">
        <ele>58.400001525879</ele>
        <time>2019-08-15T08:17:57.000Z</time>
      </trkpt>
      <trkpt lat="47.81231" lon="-3.56054">
        <ele>58.200000762939</ele>
        <time>2019-08-15T08:17:58.000Z</time>
      </trkpt>
      <trkpt lat="47.81237" lon="-3.56058">
        <ele>58.200000762939</ele>
        <time>2019-08-15T08:18:00.000Z</time>
      </trkpt>
      <trkpt lat="47.81261" lon="-3.5608">
        <ele>58.200000762939</ele>
        <time>2019-08-15T08:18:06.000Z</time>
      </trkpt>
      <trkpt lat="47.81295" lon="-3.5611">
        <ele>58.200000762939</ele>
        <time>2019-08-15T08:18:14.000Z</time>
      </trkpt>
      <trkpt lat="47.81332" lon="-3.56142">
        <ele>58.200000762939</ele>
        <time>2019-08-15T08:18:22.000Z</time>
      </trkpt>
      <trkpt lat="47.81344" lon="-3.56153">
        <ele>58.200000762939</ele>
        <time>2019-08-15T08:18:25.000Z</time>
      </trkpt>
      <trkpt lat="47.81349" lon="-3.56157">
        <ele>58.400001525879</ele>
        <time>2019-08-15T08:18:26.000Z</time>
      </trkpt>
      <trkpt lat="47.81373" lon="-3.5618">
        <ele>58.400001525879</ele>
        <time>2019-08-15T08:18:32.000Z</time>
      </trkpt>
      <trkpt lat="47.81388" lon="-3.56194">
        <ele>58.400001525879</ele>
        <time>2019-08-15T08:18:37.000Z</time>
      </trkpt>
      <trkpt lat="47.81403" lon="-3.56205">
        <ele>58.200000762939</ele>
        <time>2019-08-15T08:18:43.000Z</time>
      </trkpt>
      <trkpt lat="47.81409" lon="-3.56212">
        <ele>57.799999237061</ele>
        <time>2019-08-15T08:18:48.000Z</time>
      </trkpt>
      <trkpt lat="47.81403" lon="-3.56213">
        <ele>57.799999237061</ele>
        <time>2019-08-15T08:18:51.000Z</time>
      </trkpt>
      <trkpt lat="47.81391" lon="-3.56202">
        <ele>57.799999237061</ele>
        <time>2019-08-15T08:18:55.000Z</time>
      </trkpt>
      <trkpt lat="47.81365" lon="-3.56178">
        <ele>58</ele>
        <time>2019-08-15T08:19:01.000Z</time>
      </trkpt>
      <trkpt lat="47.8133" lon="-3.56146">
        <ele>58.200000762939</ele>
        <time>2019-08-15T08:19:08.000Z</time>
      </trkpt>
      <trkpt lat="47.81283" lon="-3.56104">
        <ele>58.200000762939</ele>
        <time>2019-08-15T08:19:17.000Z</time>
      </trkpt>
      <trkpt lat="47.81266" lon="-3.5609">
        <ele>58.200000762939</ele>
        <time>2019-08-15T08:19:20.000Z</time>
      </trkpt>
      <trkpt lat="47.81225" lon="-3.56052">
        <ele>58</ele>
        <time>2019-08-15T08:19:29.000Z</time>
      </trkpt>
      <trkpt lat="47.81223" lon="-3.56052">
        <ele>58</ele>
        <time>2019-08-15T08:19:30.000Z</time>
      </trkpt>
      <trkpt lat="47.8122" lon="-3.56055">
        <ele>58.200000762939</ele>
        <time>2019-08-15T08:19:31.000Z</time>
      </trkpt>
      <trkpt lat="47.81219" lon="-3.5606">
        <ele>57.799999237061</ele>
        <time>2019-08-15T08:19:32.000Z</time>
      </trkpt>
      <trkpt lat="47.81216" lon="-3.56065">
        <ele>57.799999237061</ele>
        <time>2019-08-15T08:19:33.000Z</time>
      </trkpt>
      <trkpt lat="47.8121" lon="-3.56074">
        <ele>57.599998474121</ele>
        <time>2019-08-15T08:19:35.000Z</time>
      </trkpt>
      <trkpt lat="47.81208" lon="-3.56078">
        <ele>57.599998474121</ele>
        <time>2019-08-15T08:19:36.000Z</time>
      </trkpt>
      <trkpt lat="47.81206" lon="-3.56083">
        <ele>57.400001525879</ele>
        <time>2019-08-15T08:19:37.000Z</time>
      </trkpt>
      <trkpt lat="47.812" lon="-3.56097">
        <ele>57.599998474121</ele>
        <time>2019-08-15T08:19:39.000Z</time>
      </trkpt>
      <trkpt lat="47.81198" lon="-3.56103">
        <ele>57.400001525879</ele>
        <time>2019-08-15T08:19:40.000Z</time>
      </trkpt>
      <trkpt lat="47.81192" lon="-3.56122">
        <ele>57.599998474121</ele>
        <time>2019-08-15T08:19:43.000Z</time>
      </trkpt>
      <trkpt lat="47.81187" lon="-3.56135">
        <ele>57.599998474121</ele>
        <time>2019-08-15T08:19:45.000Z</time>
      </trkpt>
      <trkpt lat="47.81179" lon="-3.56156">
        <ele>58</ele>
        <time>2019-08-15T08:19:48.000Z</time>
      </trkpt>
      <trkpt lat="47.81177" lon="-3.56163">
        <ele>58</ele>
        <time>2019-08-15T08:19:49.000Z</time>
      </trkpt>
      <trkpt lat="47.81175" lon="-3.56169">
        <ele>58.200000762939</ele>
        <time>2019-08-15T08:19:50.000Z</time>
      </trkpt>
      <trkpt lat="47.81173" lon="-3.56175">
        <ele>58.200000762939</ele>
        <time>2019-08-15T08:19:51.000Z</time>
      </trkpt>
      <trkpt lat="47.81168" lon="-3.5619">
        <ele>58.599998474121</ele>
        <time>2019-08-15T08:19:53.000Z</time>
      </trkpt>
      <trkpt lat="47.81167" lon="-3.56197">
        <ele>58.400001525879</ele>
        <time>2019-08-15T08:19:54.000Z</time>
      </trkpt>
      <trkpt lat="47.81157" lon="-3.56234">
        <ele>58.200000762939</ele>
        <time>2019-08-15T08:19:59.000Z</time>
      </trkpt>
      <trkpt lat="47.81155" lon="-3.56241">
        <ele>58.200000762939</ele>
        <time>2019-08-15T08:20:00.000Z</time>
      </trkpt>
      <trkpt lat="47.81153" lon="-3.56248">
        <ele>58.200000762939</ele>
        <time>2019-08-15T08:20:01.000Z</time>
      </trkpt>
      <trkpt lat="47.81151" lon="-3.56254">
        <ele>58.200000762939</ele>
        <time>2019-08-15T08:20:02.000Z</time>
      </trkpt>
      <trkpt lat="47.81148" lon="-3.5626">
        <ele>58.200000762939</ele>
        <time>2019-08-15T08:20:03.000Z</time>
      </trkpt>
      <trkpt lat="47.81139" lon="-3.56268">
        <ele>58</ele>
        <time>2019-08-15T08:20:05.000Z</time>
      </trkpt>
      <trkpt lat="47.81134" lon="-3.56271">
        <ele>58</ele>
        <time>2019-08-15T08:20:06.000Z</time>
      </trkpt>
      <trkpt lat="47.8113" lon="-3.56276">
        <ele>58</ele>
        <time>2019-08-15T08:20:07.000Z</time>
      </trkpt>
      <trkpt lat="47.81126" lon="-3.5628">
        <ele>58</ele>
        <time>2019-08-15T08:20:08.000Z</time>
      </trkpt>
      <trkpt lat="47.81119" lon="-3.56287">
        <ele>58</ele>
        <time>2019-08-15T08:20:10.000Z</time>
      </trkpt>
      <trkpt lat="47.81115" lon="-3.56292">
        <ele>58</ele>
        <time>2019-08-15T08:20:11.000Z</time>
      </trkpt>
      <trkpt lat="47.81103" lon="-3.56304">
        <ele>57.799999237061</ele>
        <time>2019-08-15T08:20:14.000Z</time>
      </trkpt>
      <trkpt lat="47.811" lon="-3.56307">
        <ele>57.799999237061</ele>
        <time>2019-08-15T08:20:15.000Z</time>
      </trkpt>
      <trkpt lat="47.81096" lon="-3.5631">
        <ele>57.599998474121</ele>
        <time>2019-08-15T08:20:16.000Z</time>
      </trkpt>
      <trkpt lat="47.81092" lon="-3.56313">
        <ele>57.799999237061</ele>
        <time>2019-08-15T08:20:17.000Z</time>
      </trkpt>
      <trkpt lat="47.81088" lon="-3.56316">
        <ele>57.799999237061</ele>
        <time>2019-08-15T08:20:18.000Z</time>
      </trkpt>
      <trkpt lat="47.81084" lon="-3.56317">
        <ele>57.799999237061</ele>
        <time>2019-08-15T08:20:19.000Z</time>
      </trkpt>
      <trkpt lat="47.8108" lon="-3.56318">
        <ele>57.799999237061</ele>
        <time>2019-08-15T08:20:20.000Z</time>
      </trkpt>
      <trkpt lat="47.81076" lon="-3.5632">
        <ele>57.799999237061</ele>
        <time>2019-08-15T08:20:21.000Z</time>
      </trkpt>
      <trkpt lat="47.81071" lon="-3.56322">
        <ele>58</ele>
        <time>2019-08-15T08:20:22.000Z</time>
      </trkpt>
      <trkpt lat="47.81067" lon="-3.56323">
        <ele>57.599998474121</ele>
        <time>2019-08-15T08:20:23.000Z</time>
      </trkpt>
      <trkpt lat="47.81062" lon="-3.56323">
        <ele>57.599998474121</ele>
        <time>2019-08-15T08:20:24.000Z</time>
      </trkpt>
      <trkpt lat="47.81057" lon="-3.56323">
        <ele>57.400001525879</ele>
        <time>2019-08-15T08:20:25.000Z</time>
      </trkpt>
      <trkpt lat="47.81047" lon="-3.56326">
        <ele>57.799999237061</ele>
        <time>2019-08-15T08:20:27.000Z</time>
      </trkpt>
      <trkpt lat="47.81043" lon="-3.56326">
        <ele>57.799999237061</ele>
        <time>2019-08-15T08:20:28.000Z</time>
      </trkpt>
      <trkpt lat="47.81039" lon="-3.56327">
        <ele>57.599998474121</ele>
        <time>2019-08-15T08:20:29.000Z</time>
      </trkpt>
      <trkpt lat="47.81032" lon="-3.56326">
        <ele>57.200000762939</ele>
        <time>2019-08-15T08:20:31.000Z</time>
      </trkpt>
      <trkpt lat="47.8102" lon="-3.56327">
        <ele>57</ele>
        <time>2019-08-15T08:20:34.000Z</time>
      </trkpt>
      <trkpt lat="47.81015" lon="-3.56326">
        <ele>56.799999237061</ele>
        <time>2019-08-15T08:20:35.000Z</time>
      </trkpt>
      <trkpt lat="47.81011" lon="-3.56324">
        <ele>56.599998474121</ele>
        <time>2019-08-15T08:20:36.000Z</time>
      </trkpt>
      <trkpt lat="47.80999" lon="-3.56321">
        <ele>56.400001525879</ele>
        <time>2019-08-15T08:20:39.000Z</time>
      </trkpt>
      <trkpt lat="47.80988" lon="-3.56317">
        <ele>56</ele>
        <time>2019-08-15T08:20:43.000Z</time>
      </trkpt>
      <trkpt lat="47.80985" lon="-3.56315">
        <ele>55.799999237061</ele>
        <time>2019-08-15T08:20:44.000Z</time>
      </trkpt>
      <trkpt lat="47.80969" lon="-3.56312">
        <ele>55.599998474121</ele>
        <time>2019-08-15T08:20:48.000Z</time>
      </trkpt>
      <trkpt lat="47.80964" lon="-3.56312">
        <ele>55.400001525879</ele>
        <time>2019-08-15T08:20:49.000Z</time>
      </trkpt>
      <trkpt lat="47.80958" lon="-3.56312">
        <ele>55.599998474121</ele>
        <time>2019-08-15T08:20:50.000Z</time>
      </trkpt>
      <trkpt lat="47.80953" lon="-3.56311">
        <ele>55.400001525879</ele>
        <time>2019-08-15T08:20:51.000Z</time>
      </trkpt>
      <trkpt lat="47.80948" lon="-3.56311">
        <ele>55.400001525879</ele>
        <time>2019-08-15T08:20:52.000Z</time>
      </trkpt>
      <trkpt lat="47.80942" lon="-3.56312">
        <ele>55.200000762939</ele>
        <time>2019-08-15T08:20:53.000Z</time>
      </trkpt>
      <trkpt lat="47.80919" lon="-3.56318">
        <ele>55</ele>
        <time>2019-08-15T08:20:58.000Z</time>
      </trkpt>
      <trkpt lat="47.80915" lon="-3.5632">
        <ele>55.200000762939</ele>
        <time>2019-08-15T08:20:59.000Z</time>
      </trkpt>
      <trkpt lat="47.80905" lon="-3.56324">
        <ele>55</ele>
        <time>2019-08-15T08:21:01.000Z</time>
      </trkpt>
      <trkpt lat="47.80886" lon="-3.56328">
        <ele>55</ele>
        <time>2019-08-15T08:21:04.000Z</time>
      </trkpt>
      <trkpt lat="47.80881" lon="-3.5633">
        <ele>55.200000762939</ele>
        <time>2019-08-15T08:21:05.000Z</time>
      </trkpt>
      <trkpt lat="47.80871" lon="-3.56333">
        <ele>55.200000762939</ele>
        <time>2019-08-15T08:21:07.000Z</time>
      </trkpt>
      <trkpt lat="47.80866" lon="-3.56334">
        <ele>55.400001525879</ele>
        <time>2019-08-15T08:21:08.000Z</time>
      </trkpt>
      <trkpt lat="47.80861" lon="-3.56336">
        <ele>55.200000762939</ele>
        <time>2019-08-15T08:21:09.000Z</time>
      </trkpt>
      <trkpt lat="47.80856" lon="-3.56337">
        <ele>55.400001525879</ele>
        <time>2019-08-15T08:21:10.000Z</time>
      </trkpt>
      <trkpt lat="47.80852" lon="-3.56339">
        <ele>55.400001525879</ele>
        <time>2019-08-15T08:21:11.000Z</time>
      </trkpt>
      <trkpt lat="47.80834" lon="-3.56344">
        <ele>55.400001525879</ele>
        <time>2019-08-15T08:21:15.000Z</time>
      </trkpt>
      <trkpt lat="47.8083" lon="-3.56345">
        <ele>55.599998474121</ele>
        <time>2019-08-15T08:21:16.000Z</time>
      </trkpt>
      <trkpt lat="47.80816" lon="-3.56356">
        <ele>56</ele>
        <time>2019-08-15T08:21:20.000Z</time>
      </trkpt>
      <trkpt lat="47.80803" lon="-3.56367">
        <ele>56.200000762939</ele>
        <time>2019-08-15T08:21:23.000Z</time>
      </trkpt>
      <trkpt lat="47.80795" lon="-3.56373">
        <ele>56.400001525879</ele>
        <time>2019-08-15T08:21:25.000Z</time>
      </trkpt>
      <trkpt lat="47.80788" lon="-3.56377">
        <ele>56.400001525879</ele>
        <time>2019-08-15T08:21:27.000Z</time>
      </trkpt>
      <trkpt lat="47.80783" lon="-3.56382">
        <ele>56.599998474121</ele>
        <time>2019-08-15T08:21:29.000Z</time>
      </trkpt>
      <trkpt lat="47.80769" lon="-3.56396">
        <ele>56.799999237061</ele>
        <time>2019-08-15T08:21:33.000Z</time>
      </trkpt>
      <trkpt lat="47.80765" lon="-3.56399">
        <ele>56.799999237061</ele>
        <time>2019-08-15T08:21:34.000Z</time>
      </trkpt>
      <trkpt lat="47.80762" lon="-3.56403">
        <ele>56.799999237061</ele>
        <time>2019-08-15T08:21:35.000Z</time>
      </trkpt>
      <trkpt lat="47.80748" lon="-3.56413">
        <ele>56.799999237061</ele>
        <time>2019-08-15T08:21:38.000Z</time>
      </trkpt>
      <trkpt lat="47.80745" lon="-3.56416">
        <ele>57</ele>
        <time>2019-08-15T08:21:39.000Z</time>
      </trkpt>
      <trkpt lat="47.80742" lon="-3.56418">
        <ele>56.799999237061</ele>
        <time>2019-08-15T08:21:40.000Z</time>
      </trkpt>
      <trkpt lat="47.80734" lon="-3.56424">
        <ele>56.799999237061</ele>
        <time>2019-08-15T08:21:42.000Z</time>
      </trkpt>
      <trkpt lat="47.80719" lon="-3.5644">
        <ele>57</ele>
        <time>2019-08-15T08:21:46.000Z</time>
      </trkpt>
      <trkpt lat="47.80715" lon="-3.56445">
        <ele>56.799999237061</ele>
        <time>2019-08-15T08:21:47.000Z</time>
      </trkpt>
      <trkpt lat="47.80694" lon="-3.56467">
        <ele>57</ele>
        <time>2019-08-15T08:21:52.000Z</time>
      </trkpt>
      <trkpt lat="47.80689" lon="-3.56475">
        <ele>56.799999237061</ele>
        <time>2019-08-15T08:21:54.000Z</time>
      </trkpt>
      <trkpt lat="47.80684" lon="-3.56484">
        <ele>56.799999237061</ele>
        <time>2019-08-15T08:21:56.000Z</time>
      </trkpt>
      <trkpt lat="47.8068" lon="-3.56489">
        <ele>56.799999237061</ele>
        <time>2019-08-15T08:21:57.000Z</time>
      </trkpt>
      <trkpt lat="47.80671" lon="-3.56505">
        <ele>56.799999237061</ele>
        <time>2019-08-15T08:22:00.000Z</time>
      </trkpt>
      <trkpt lat="47.80668" lon="-3.56512">
        <ele>56.599998474121</ele>
        <time>2019-08-15T08:22:01.000Z</time>
      </trkpt>
      <trkpt lat="47.80664" lon="-3.56518">
        <ele>56.599998474121</ele>
        <time>2019-08-15T08:22:02.000Z</time>
      </trkpt>
      <trkpt lat="47.80659" lon="-3.56523">
        <ele>56.599998474121</ele>
        <time>2019-08-15T08:22:03.000Z</time>
      </trkpt>
      <trkpt lat="47.80655" lon="-3.56528">
        <ele>56.599998474121</ele>
        <time>2019-08-15T08:22:04.000Z</time>
      </trkpt>
      <trkpt lat="47.80647" lon="-3.56538">
        <ele>56.599998474121</ele>
        <time>2019-08-15T08:22:06.000Z</time>
      </trkpt>
      <trkpt lat="47.80635" lon="-3.56557">
        <ele>56.799999237061</ele>
        <time>2019-08-15T08:22:10.000Z</time>
      </trkpt>
      <trkpt lat="47.80633" lon="-3.56562">
        <ele>56.400001525879</ele>
        <time>2019-08-15T08:22:11.000Z</time>
      </trkpt>
      <trkpt lat="47.8063" lon="-3.56567">
        <ele>56.200000762939</ele>
        <time>2019-08-15T08:22:12.000Z</time>
      </trkpt>
      <trkpt lat="47.80624" lon="-3.56574">
        <ele>56.200000762939</ele>
        <time>2019-08-15T08:22:14.000Z</time>
      </trkpt>
      <trkpt lat="47.80622" lon="-3.56576">
        <ele>56.200000762939</ele>
        <time>2019-08-15T08:22:15.000Z</time>
      </trkpt>
      <trkpt lat="47.80619" lon="-3.56576">
        <ele>56.200000762939</ele>
        <time>2019-08-15T08:22:16.000Z</time>
      </trkpt>
      <trkpt lat="47.8061" lon="-3.56579">
        <ele>56</ele>
        <time>2019-08-15T08:22:18.000Z</time>
      </trkpt>
      <trkpt lat="47.80604" lon="-3.56581">
        <ele>56</ele>
        <time>2019-08-15T08:22:19.000Z</time>
      </trkpt>
      <trkpt lat="47.80588" lon="-3.56585">
        <ele>55.599998474121</ele>
        <time>2019-08-15T08:22:21.000Z</time>
      </trkpt>
      <trkpt lat="47.80581" lon="-3.56587">
        <ele>55.400001525879</ele>
        <time>2019-08-15T08:22:22.000Z</time>
      </trkpt>
      <trkpt lat="47.80574" lon="-3.56589">
        <ele>55.599998474121</ele>
        <time>2019-08-15T08:22:23.000Z</time>
      </trkpt>
      <trkpt lat="47.8056" lon="-3.56594">
        <ele>55.200000762939</ele>
        <time>2019-08-15T08:22:25.000Z</time>
      </trkpt>
      <trkpt lat="47.80547" lon="-3.56597">
        <ele>55</ele>
        <time>2019-08-15T08:22:27.000Z</time>
      </trkpt>
      <trkpt lat="47.80541" lon="-3.56599">
        <ele>55</ele>
        <time>2019-08-15T08:22:28.000Z</time>
      </trkpt>
      <trkpt lat="47.80535" lon="-3.56601">
        <ele>55</ele>
        <time>2019-08-15T08:22:29.000Z</time>
      </trkpt>
      <trkpt lat="47.8051" lon="-3.56608">
        <ele>54.400001525879</ele>
        <time>2019-08-15T08:22:33.000Z</time>
      </trkpt>
      <trkpt lat="47.80504" lon="-3.56611">
        <ele>54.200000762939</ele>
        <time>2019-08-15T08:22:34.000Z</time>
      </trkpt>
      <trkpt lat="47.805" lon="-3.56613">
        <ele>54</ele>
        <time>2019-08-15T08:22:35.000Z</time>
      </trkpt>
      <trkpt lat="47.80494" lon="-3.56614">
        <ele>53.799999237061</ele>
        <time>2019-08-15T08:22:36.000Z</time>
      </trkpt>
      <trkpt lat="47.80481" lon="-3.56617">
        <ele>53.799999237061</ele>
        <time>2019-08-15T08:22:38.000Z</time>
      </trkpt>
      <trkpt lat="47.80475" lon="-3.56619">
        <ele>53.799999237061</ele>
        <time>2019-08-15T08:22:39.000Z</time>
      </trkpt>
      <trkpt lat="47.80463" lon="-3.56623">
        <ele>53.799999237061</ele>
        <time>2019-08-15T08:22:41.000Z</time>
      </trkpt>
      <trkpt lat="47.80458" lon="-3.56625">
        <ele>53.400001525879</ele>
        <time>2019-08-15T08:22:42.000Z</time>
      </trkpt>
      <trkpt lat="47.80453" lon="-3.56626">
        <ele>53.200000762939</ele>
        <time>2019-08-15T08:22:43.000Z</time>
      </trkpt>
      <trkpt lat="47.80448" lon="-3.56626">
        <ele>53.200000762939</ele>
        <time>2019-08-15T08:22:44.000Z</time>
      </trkpt>
      <trkpt lat="47.80444" lon="-3.56626">
        <ele>52.599998474121</ele>
        <time>2019-08-15T08:22:45.000Z</time>
      </trkpt>
      <trkpt lat="47.80441" lon="-3.56624">
        <ele>52.400001525879</ele>
        <time>2019-08-15T08:22:46.000Z</time>
      </trkpt>
      <trkpt lat="47.80438" lon="-3.56621">
        <ele>52</ele>
        <time>2019-08-15T08:22:48.000Z</time>
      </trkpt>
      <trkpt lat="47.80437" lon="-3.56619">
        <ele>51.799999237061</ele>
        <time>2019-08-15T08:22:49.000Z</time>
      </trkpt>
      <trkpt lat="47.80435" lon="-3.56616">
        <ele>51.599998474121</ele>
        <time>2019-08-15T08:22:50.000Z</time>
      </trkpt>
      <trkpt lat="47.80432" lon="-3.56613">
        <ele>51.400001525879</ele>
        <time>2019-08-15T08:22:51.000Z</time>
      </trkpt>
      <trkpt lat="47.8043" lon="-3.56611">
        <ele>51.200000762939</ele>
        <time>2019-08-15T08:22:52.000Z</time>
      </trkpt>
      <trkpt lat="47.80422" lon="-3.5661">
        <ele>50.799999237061</ele>
        <time>2019-08-15T08:22:54.000Z</time>
      </trkpt>
      <trkpt lat="47.80417" lon="-3.56609">
        <ele>50.599998474121</ele>
        <time>2019-08-15T08:22:55.000Z</time>
      </trkpt>
      <trkpt lat="47.804" lon="-3.56607">
        <ele>50</ele>
        <time>2019-08-15T08:22:58.000Z</time>
      </trkpt>
      <trkpt lat="47.80394" lon="-3.56606">
        <ele>49.799999237061</ele>
        <time>2019-08-15T08:22:59.000Z</time>
      </trkpt>
      <trkpt lat="47.80385" lon="-3.56604">
        <ele>49.599998474121</ele>
        <time>2019-08-15T08:23:00.000Z</time>
      </trkpt>
      <trkpt lat="47.80374" lon="-3.566">
        <ele>49.400001525879</ele>
        <time>2019-08-15T08:23:02.000Z</time>
      </trkpt>
      <trkpt lat="47.80368" lon="-3.56598">
        <ele>49.200000762939</ele>
        <time>2019-08-15T08:23:03.000Z</time>
      </trkpt>
      <trkpt lat="47.80364" lon="-3.56596">
        <ele>49.200000762939</ele>
        <time>2019-08-15T08:23:04.000Z</time>
      </trkpt>
      <trkpt lat="47.80356" lon="-3.56592">
        <ele>49.400001525879</ele>
        <time>2019-08-15T08:23:06.000Z</time>
      </trkpt>
      <trkpt lat="47.80351" lon="-3.56591">
        <ele>49.200000762939</ele>
        <time>2019-08-15T08:23:07.000Z</time>
      </trkpt>
      <trkpt lat="47.80346" lon="-3.56589">
        <ele>49.799999237061</ele>
        <time>2019-08-15T08:23:08.000Z</time>
      </trkpt>
      <trkpt lat="47.80341" lon="-3.56587">
        <ele>50</ele>
        <time>2019-08-15T08:23:09.000Z</time>
      </trkpt>
      <trkpt lat="47.80337" lon="-3.56586">
        <ele>50.400001525879</ele>
        <time>2019-08-15T08:23:10.000Z</time>
      </trkpt>
      <trkpt lat="47.80324" lon="-3.56584">
        <ele>50.799999237061</ele>
        <time>2019-08-15T08:23:13.000Z</time>
      </trkpt>
      <trkpt lat="47.80319" lon="-3.56583">
        <ele>51</ele>
        <time>2019-08-15T08:23:14.000Z</time>
      </trkpt>
      <trkpt lat="47.80313" lon="-3.56583">
        <ele>51</ele>
        <time>2019-08-15T08:23:15.000Z</time>
      </trkpt>
      <trkpt lat="47.80309" lon="-3.56583">
        <ele>51.200000762939</ele>
        <time>2019-08-15T08:23:16.000Z</time>
      </trkpt>
      <trkpt lat="47.803" lon="-3.56581">
        <ele>51.400001525879</ele>
        <time>2019-08-15T08:23:18.000Z</time>
      </trkpt>
      <trkpt lat="47.80296" lon="-3.56581">
        <ele>51.599998474121</ele>
        <time>2019-08-15T08:23:19.000Z</time>
      </trkpt>
      <trkpt lat="47.80292" lon="-3.5658">
        <ele>51.599998474121</ele>
        <time>2019-08-15T08:23:20.000Z</time>
      </trkpt>
      <trkpt lat="47.80287" lon="-3.56578">
        <ele>52</ele>
        <time>2019-08-15T08:23:21.000Z</time>
      </trkpt>
      <trkpt lat="47.80277" lon="-3.56574">
        <ele>52.200000762939</ele>
        <time>2019-08-15T08:23:23.000Z</time>
      </trkpt>
      <trkpt lat="47.80272" lon="-3.56572">
        <ele>52.200000762939</ele>
        <time>2019-08-15T08:23:24.000Z</time>
      </trkpt>
      <trkpt lat="47.80264" lon="-3.56568">
        <ele>52.799999237061</ele>
        <time>2019-08-15T08:23:26.000Z</time>
      </trkpt>
      <trkpt lat="47.8026" lon="-3.56566">
        <ele>52.799999237061</ele>
        <time>2019-08-15T08:23:27.000Z</time>
      </trkpt>
      <trkpt lat="47.80247" lon="-3.5656">
        <ele>53.200000762939</ele>
        <time>2019-08-15T08:23:30.000Z</time>
      </trkpt>
      <trkpt lat="47.80243" lon="-3.56558">
        <ele>53.200000762939</ele>
        <time>2019-08-15T08:23:31.000Z</time>
      </trkpt>
      <trkpt lat="47.80228" lon="-3.56551">
        <ele>53.400001525879</ele>
        <time>2019-08-15T08:23:35.000Z</time>
      </trkpt>
      <trkpt lat="47.80228" lon="-3.5655">
        <ele>53.400001525879</ele>
        <time>2019-08-15T08:23:36.000Z</time>
      </trkpt>
      <trkpt lat="47.80228" lon="-3.5655">
        <ele>53</ele>
        <time>2019-08-15T08:24:36.000Z</time>
      </trkpt>
      <trkpt lat="47.80228" lon="-3.5655">
        <ele>53</ele>
        <time>2019-08-15T08:24:37.000Z</time>
      </trkpt>
      <trkpt lat="47.80228" lon="-3.5655">
        <ele>53</ele>
        <time>2019-08-15T08:24:39.000Z</time>
      </trkpt>
      <trkpt lat="47.80223" lon="-3.56546">
        <ele>52.799999237061</ele>
        <time>2019-08-15T08:24:42.000Z</time>
      </trkpt>
      <trkpt lat="47.80201" lon="-3.56535">
        <ele>52.599998474121</ele>
        <time>2019-08-15T08:24:47.000Z</time>
      </trkpt>
      <trkpt lat="47.80179" lon="-3.56525">
        <ele>52.400001525879</ele>
        <time>2019-08-15T08:24:51.000Z</time>
      </trkpt>
      <trkpt lat="47.80173" lon="-3.56523">
        <ele>52.200000762939</ele>
        <time>2019-08-15T08:24:52.000Z</time>
      </trkpt>
      <trkpt lat="47.80167" lon="-3.56522">
        <ele>52.200000762939</ele>
        <time>2019-08-15T08:24:53.000Z</time>
      </trkpt>
      <trkpt lat="47.8014" lon="-3.56521">
        <ele>51.599998474121</ele>
        <time>2019-08-15T08:24:57.000Z</time>
      </trkpt>
      <trkpt lat="47.80126" lon="-3.56515">
        <ele>51.200000762939</ele>
        <time>2019-08-15T08:24:59.000Z</time>
      </trkpt>
      <trkpt lat="47.80119" lon="-3.56509">
        <ele>51</ele>
        <time>2019-08-15T08:25:00.000Z</time>
      </trkpt>
      <trkpt lat="47.80099" lon="-3.56494">
        <ele>50.599998474121</ele>
        <time>2019-08-15T08:25:03.000Z</time>
      </trkpt>
      <trkpt lat="47.80092" lon="-3.56489">
        <ele>50.599998474121</ele>
        <time>2019-08-15T08:25:04.000Z</time>
      </trkpt>
      <trkpt lat="47.80079" lon="-3.5648">
        <ele>50.799999237061</ele>
        <time>2019-08-15T08:25:06.000Z</time>
      </trkpt>
      <trkpt lat="47.80073" lon="-3.56476">
        <ele>50.599998474121</ele>
        <time>2019-08-15T08:25:07.000Z</time>
      </trkpt>
      <trkpt lat="47.80067" lon="-3.56472">
        <ele>50.599998474121</ele>
        <time>2019-08-15T08:25:08.000Z</time>
      </trkpt>
      <trkpt lat="47.8006" lon="-3.56469">
        <ele>50.799999237061</ele>
        <time>2019-08-15T08:25:09.000Z</time>
      </trkpt>
      <trkpt lat="47.80048" lon="-3.56461">
        <ele>50.599998474121</ele>
        <time>2019-08-15T08:25:11.000Z</time>
      </trkpt>
      <trkpt lat="47.80042" lon="-3.56457">
        <ele>50.599998474121</ele>
        <time>2019-08-15T08:25:12.000Z</time>
      </trkpt>
      <trkpt lat="47.80036" lon="-3.56454">
        <ele>50.599998474121</ele>
        <time>2019-08-15T08:25:13.000Z</time>
      </trkpt>
      <trkpt lat="47.80029" lon="-3.56452">
        <ele>50.599998474121</ele>
        <time>2019-08-15T08:25:14.000Z</time>
      </trkpt>
      <trkpt lat="47.80022" lon="-3.56451">
        <ele>50.599998474121</ele>
        <time>2019-08-15T08:25:15.000Z</time>
      </trkpt>
      <trkpt lat="47.80009" lon="-3.56449">
        <ele>50.799999237061</ele>
        <time>2019-08-15T08:25:17.000Z</time>
      </trkpt>
      <trkpt lat="47.80003" lon="-3.56449">
        <ele>50.799999237061</ele>
        <time>2019-08-15T08:25:18.000Z</time>
      </trkpt>
      <trkpt lat="47.79997" lon="-3.5645">
        <ele>50.599998474121</ele>
        <time>2019-08-15T08:25:19.000Z</time>
      </trkpt>
      <trkpt lat="47.79991" lon="-3.56451">
        <ele>50.599998474121</ele>
        <time>2019-08-15T08:25:20.000Z</time>
      </trkpt>
      <trkpt lat="47.79985" lon="-3.56452">
        <ele>50.799999237061</ele>
        <time>2019-08-15T08:25:21.000Z</time>
      </trkpt>
      <trkpt lat="47.79979" lon="-3.56452">
        <ele>50.799999237061</ele>
        <time>2019-08-15T08:25:22.000Z</time>
      </trkpt>
      <trkpt lat="47.79973" lon="-3.5645">
        <ele>50.799999237061</ele>
        <time>2019-08-15T08:25:23.000Z</time>
      </trkpt>
      <trkpt lat="47.79968" lon="-3.56446">
        <ele>51</ele>
        <time>2019-08-15T08:25:24.000Z</time>
      </trkpt>
      <trkpt lat="47.79962" lon="-3.56442">
        <ele>51</ele>
        <time>2019-08-15T08:25:25.000Z</time>
      </trkpt>
      <trkpt lat="47.79955" lon="-3.56438">
        <ele>51</ele>
        <time>2019-08-15T08:25:26.000Z</time>
      </trkpt>
      <trkpt lat="47.79949" lon="-3.56436">
        <ele>51</ele>
        <time>2019-08-15T08:25:27.000Z</time>
      </trkpt>
      <trkpt lat="47.79929" lon="-3.56431">
        <ele>50.799999237061</ele>
        <time>2019-08-15T08:25:30.000Z</time>
      </trkpt>
      <trkpt lat="47.79922" lon="-3.56429">
        <ele>50.400001525879</ele>
        <time>2019-08-15T08:25:31.000Z</time>
      </trkpt>
      <trkpt lat="47.79916" lon="-3.56427">
        <ele>50.400001525879</ele>
        <time>2019-08-15T08:25:32.000Z</time>
      </trkpt>
      <trkpt lat="47.7991" lon="-3.56426">
        <ele>50.200000762939</ele>
        <time>2019-08-15T08:25:33.000Z</time>
      </trkpt>
      <trkpt lat="47.79898" lon="-3.56422">
        <ele>49.599998474121</ele>
        <time>2019-08-15T08:25:35.000Z</time>
      </trkpt>
      <trkpt lat="47.79886" lon="-3.56418">
        <ele>48.799999237061</ele>
        <time>2019-08-15T08:25:37.000Z</time>
      </trkpt>
      <trkpt lat="47.7988" lon="-3.56416">
        <ele>48.400001525879</ele>
        <time>2019-08-15T08:25:38.000Z</time>
      </trkpt>
      <trkpt lat="47.79875" lon="-3.56414">
        <ele>48</ele>
        <time>2019-08-15T08:25:39.000Z</time>
      </trkpt>
      <trkpt lat="47.79858" lon="-3.5641">
        <ele>47</ele>
        <time>2019-08-15T08:25:42.000Z</time>
      </trkpt>
      <trkpt lat="47.79852" lon="-3.56408">
        <ele>46.799999237061</ele>
        <time>2019-08-15T08:25:43.000Z</time>
      </trkpt>
      <trkpt lat="47.79847" lon="-3.56405">
        <ele>46.599998474121</ele>
        <time>2019-08-15T08:25:44.000Z</time>
      </trkpt>
      <trkpt lat="47.79842" lon="-3.56402">
        <ele>46.400001525879</ele>
        <time>2019-08-15T08:25:45.000Z</time>
      </trkpt>
      <trkpt lat="47.79837" lon="-3.564">
        <ele>46.400001525879</ele>
        <time>2019-08-15T08:25:46.000Z</time>
      </trkpt>
      <trkpt lat="47.79832" lon="-3.56398">
        <ele>46.400001525879</ele>
        <time>2019-08-15T08:25:47.000Z</time>
      </trkpt>
      <trkpt lat="47.79821" lon="-3.56394">
        <ele>46</ele>
        <time>2019-08-15T08:25:49.000Z</time>
      </trkpt>
      <trkpt lat="47.79816" lon="-3.56393">
        <ele>45.599998474121</ele>
        <time>2019-08-15T08:25:50.000Z</time>
      </trkpt>
      <trkpt lat="47.79798" lon="-3.56388">
        <ele>44.799999237061</ele>
        <time>2019-08-15T08:25:53.000Z</time>
      </trkpt>
      <trkpt lat="47.79792" lon="-3.56386">
        <ele>44.599998474121</ele>
        <time>2019-08-15T08:25:54.000Z</time>
      </trkpt>
      <trkpt lat="47.79785" lon="-3.56384">
        <ele>44.599998474121</ele>
        <time>2019-08-15T08:25:55.000Z</time>
      </trkpt>
      <trkpt lat="47.79778" lon="-3.56382">
        <ele>44.400001525879</ele>
        <time>2019-08-15T08:25:56.000Z</time>
      </trkpt>
      <trkpt lat="47.79765" lon="-3.56378">
        <ele>43.799999237061</ele>
        <time>2019-08-15T08:25:58.000Z</time>
      </trkpt>
      <trkpt lat="47.79759" lon="-3.56377">
        <ele>43.799999237061</ele>
        <time>2019-08-15T08:25:59.000Z</time>
      </trkpt>
      <trkpt lat="47.79754" lon="-3.56375">
        <ele>43.599998474121</ele>
        <time>2019-08-15T08:26:00.000Z</time>
      </trkpt>
      <trkpt lat="47.79748" lon="-3.56372">
        <ele>43.599998474121</ele>
        <time>2019-08-15T08:26:01.000Z</time>
      </trkpt>
      <trkpt lat="47.79742" lon="-3.56371">
        <ele>43.599998474121</ele>
        <time>2019-08-15T08:26:02.000Z</time>
      </trkpt>
      <trkpt lat="47.79725" lon="-3.56365">
        <ele>43.799999237061</ele>
        <time>2019-08-15T08:26:05.000Z</time>
      </trkpt>
      <trkpt lat="47.7972" lon="-3.56363">
        <ele>43.599998474121</ele>
        <time>2019-08-15T08:26:06.000Z</time>
      </trkpt>
      <trkpt lat="47.79716" lon="-3.56362">
        <ele>43.599998474121</ele>
        <time>2019-08-15T08:26:07.000Z</time>
      </trkpt>
      <trkpt lat="47.79711" lon="-3.56362">
        <ele>43.599998474121</ele>
        <time>2019-08-15T08:26:08.000Z</time>
      </trkpt>
      <trkpt lat="47.79707" lon="-3.56361">
        <ele>44</ele>
        <time>2019-08-15T08:26:09.000Z</time>
      </trkpt>
      <trkpt lat="47.7969" lon="-3.56354">
        <ele>44.599998474121</ele>
        <time>2019-08-15T08:26:13.000Z</time>
      </trkpt>
      <trkpt lat="47.79683" lon="-3.56353">
        <ele>45.599998474121</ele>
        <time>2019-08-15T08:26:15.000Z</time>
      </trkpt>
      <trkpt lat="47.7968" lon="-3.56352">
        <ele>46</ele>
        <time>2019-08-15T08:26:16.000Z</time>
      </trkpt>
      <trkpt lat="47.79673" lon="-3.5635">
        <ele>46.400001525879</ele>
        <time>2019-08-15T08:26:18.000Z</time>
      </trkpt>
      <trkpt lat="47.7967" lon="-3.5635">
        <ele>47</ele>
        <time>2019-08-15T08:26:19.000Z</time>
      </trkpt>
      <trkpt lat="47.79666" lon="-3.56349">
        <ele>46.799999237061</ele>
        <time>2019-08-15T08:26:20.000Z</time>
      </trkpt>
      <trkpt lat="47.79657" lon="-3.56346">
        <ele>47.799999237061</ele>
        <time>2019-08-15T08:26:23.000Z</time>
      </trkpt>
      <trkpt lat="47.79654" lon="-3.56345">
        <ele>47.799999237061</ele>
        <time>2019-08-15T08:26:24.000Z</time>
      </trkpt>
      <trkpt lat="47.7965" lon="-3.56344">
        <ele>48</ele>
        <time>2019-08-15T08:26:25.000Z</time>
      </trkpt>
      <trkpt lat="47.79648" lon="-3.56344">
        <ele>48.200000762939</ele>
        <time>2019-08-15T08:26:26.000Z</time>
      </trkpt>
      <trkpt lat="47.79642" lon="-3.56341">
        <ele>48.599998474121</ele>
        <time>2019-08-15T08:26:28.000Z</time>
      </trkpt>
      <trkpt lat="47.79638" lon="-3.5634">
        <ele>48.799999237061</ele>
        <time>2019-08-15T08:26:29.000Z</time>
      </trkpt>
      <trkpt lat="47.79628" lon="-3.56335">
        <ele>49</ele>
        <time>2019-08-15T08:26:32.000Z</time>
      </trkpt>
      <trkpt lat="47.79622" lon="-3.56331">
        <ele>49.200000762939</ele>
        <time>2019-08-15T08:26:34.000Z</time>
      </trkpt>
      <trkpt lat="47.79619" lon="-3.56328">
        <ele>49.200000762939</ele>
        <time>2019-08-15T08:26:35.000Z</time>
      </trkpt>
      <trkpt lat="47.79616" lon="-3.56326">
        <ele>49.200000762939</ele>
        <time>2019-08-15T08:26:36.000Z</time>
      </trkpt>
      <trkpt lat="47.79605" lon="-3.56318">
        <ele>49.400001525879</ele>
        <time>2019-08-15T08:26:39.000Z</time>
      </trkpt>
      <trkpt lat="47.79586" lon="-3.56309">
        <ele>49.799999237061</ele>
        <time>2019-08-15T08:26:44.000Z</time>
      </trkpt>
      <trkpt lat="47.79576" lon="-3.563">
        <ele>50</ele>
        <time>2019-08-15T08:26:47.000Z</time>
      </trkpt>
      <trkpt lat="47.79573" lon="-3.56297">
        <ele>50.200000762939</ele>
        <time>2019-08-15T08:26:48.000Z</time>
      </trkpt>
      <trkpt lat="47.7957" lon="-3.56293">
        <ele>50.400001525879</ele>
        <time>2019-08-15T08:26:49.000Z</time>
      </trkpt>
      <trkpt lat="47.79564" lon="-3.56286">
        <ele>50.599998474121</ele>
        <time>2019-08-15T08:26:51.000Z</time>
      </trkpt>
      <trkpt lat="47.79562" lon="-3.56284">
        <ele>50.799999237061</ele>
        <time>2019-08-15T08:26:52.000Z</time>
      </trkpt>
      <trkpt lat="47.79557" lon="-3.56277">
        <ele>50.799999237061</ele>
        <time>2019-08-15T08:26:54.000Z</time>
      </trkpt>
      <trkpt lat="47.79553" lon="-3.56273">
        <ele>50.799999237061</ele>
        <time>2019-08-15T08:26:55.000Z</time>
      </trkpt>
      <trkpt lat="47.79549" lon="-3.56269">
        <ele>51</ele>
        <time>2019-08-15T08:26:56.000Z</time>
      </trkpt>
      <trkpt lat="47.79535" lon="-3.5626">
        <ele>51</ele>
        <time>2019-08-15T08:26:59.000Z</time>
      </trkpt>
      <trkpt lat="47.7953" lon="-3.56257">
        <ele>51</ele>
        <time>2019-08-15T08:27:00.000Z</time>
      </trkpt>
      <trkpt lat="47.79511" lon="-3.56246">
        <ele>51</ele>
        <time>2019-08-15T08:27:04.000Z</time>
      </trkpt>
      <trkpt lat="47.79506" lon="-3.56243">
        <ele>51</ele>
        <time>2019-08-15T08:27:05.000Z</time>
      </trkpt>
      <trkpt lat="47.79501" lon="-3.56241">
        <ele>50.799999237061</ele>
        <time>2019-08-15T08:27:06.000Z</time>
      </trkpt>
      <trkpt lat="47.79491" lon="-3.56237">
        <ele>50.799999237061</ele>
        <time>2019-08-15T08:27:08.000Z</time>
      </trkpt>
      <trkpt lat="47.79486" lon="-3.56235">
        <ele>50.799999237061</ele>
        <time>2019-08-15T08:27:09.000Z</time>
      </trkpt>
      <trkpt lat="47.79481" lon="-3.56234">
        <ele>50.799999237061</ele>
        <time>2019-08-15T08:27:10.000Z</time>
      </trkpt>
      <trkpt lat="47.79476" lon="-3.56234">
        <ele>50.599998474121</ele>
        <time>2019-08-15T08:27:11.000Z</time>
      </trkpt>
      <trkpt lat="47.79471" lon="-3.56235">
        <ele>50.599998474121</ele>
        <time>2019-08-15T08:27:12.000Z</time>
      </trkpt>
      <trkpt lat="47.79467" lon="-3.56236">
        <ele>50.599998474121</ele>
        <time>2019-08-15T08:27:13.000Z</time>
      </trkpt>
      <trkpt lat="47.79451" lon="-3.56236">
        <ele>50.599998474121</ele>
        <time>2019-08-15T08:27:16.000Z</time>
      </trkpt>
      <trkpt lat="47.7944" lon="-3.56232">
        <ele>50.799999237061</ele>
        <time>2019-08-15T08:27:18.000Z</time>
      </trkpt>
      <trkpt lat="47.79406" lon="-3.56214">
        <ele>50.799999237061</ele>
        <time>2019-08-15T08:27:24.000Z</time>
      </trkpt>
      <trkpt lat="47.794" lon="-3.56209">
        <ele>50.599998474121</ele>
        <time>2019-08-15T08:27:25.000Z</time>
      </trkpt>
      <trkpt lat="47.79394" lon="-3.56205">
        <ele>50.799999237061</ele>
        <time>2019-08-15T08:27:26.000Z</time>
      </trkpt>
      <trkpt lat="47.79377" lon="-3.5619">
        <ele>50.599998474121</ele>
        <time>2019-08-15T08:27:29.000Z</time>
      </trkpt>
      <trkpt lat="47.79372" lon="-3.56185">
        <ele>50.599998474121</ele>
        <time>2019-08-15T08:27:30.000Z</time>
      </trkpt>
      <trkpt lat="47.79354" lon="-3.56169">
        <ele>50</ele>
        <time>2019-08-15T08:27:33.000Z</time>
      </trkpt>
      <trkpt lat="47.79334" lon="-3.56151">
        <ele>49.599998474121</ele>
        <time>2019-08-15T08:27:36.000Z</time>
      </trkpt>
      <trkpt lat="47.79321" lon="-3.56138">
        <ele>49.400001525879</ele>
        <time>2019-08-15T08:27:38.000Z</time>
      </trkpt>
      <trkpt lat="47.79288" lon="-3.56115">
        <ele>48.400001525879</ele>
        <time>2019-08-15T08:27:42.000Z</time>
      </trkpt>
      <trkpt lat="47.79258" lon="-3.56103">
        <ele>47.599998474121</ele>
        <time>2019-08-15T08:27:45.000Z</time>
      </trkpt>
      <trkpt lat="47.79248" lon="-3.561">
        <ele>47.200000762939</ele>
        <time>2019-08-15T08:27:46.000Z</time>
      </trkpt>
      <trkpt lat="47.79237" lon="-3.56097">
        <ele>46.200000762939</ele>
        <time>2019-08-15T08:27:47.000Z</time>
      </trkpt>
      <trkpt lat="47.79226" lon="-3.56095">
        <ele>45.599998474121</ele>
        <time>2019-08-15T08:27:48.000Z</time>
      </trkpt>
      <trkpt lat="47.79204" lon="-3.56092">
        <ele>44.400001525879</ele>
        <time>2019-08-15T08:27:50.000Z</time>
      </trkpt>
      <trkpt lat="47.79194" lon="-3.56093">
        <ele>43.799999237061</ele>
        <time>2019-08-15T08:27:51.000Z</time>
      </trkpt>
      <trkpt lat="47.79186" lon="-3.56094">
        <ele>43</ele>
        <time>2019-08-15T08:27:52.000Z</time>
      </trkpt>
      <trkpt lat="47.79173" lon="-3.56097">
        <ele>42</ele>
        <time>2019-08-15T08:27:54.000Z</time>
      </trkpt>
      <trkpt lat="47.79167" lon="-3.56097">
        <ele>41.599998474121</ele>
        <time>2019-08-15T08:27:55.000Z</time>
      </trkpt>
      <trkpt lat="47.79161" lon="-3.56094">
        <ele>40.799999237061</ele>
        <time>2019-08-15T08:27:56.000Z</time>
      </trkpt>
      <trkpt lat="47.7915" lon="-3.56083">
        <ele>39.400001525879</ele>
        <time>2019-08-15T08:27:58.000Z</time>
      </trkpt>
      <trkpt lat="47.79139" lon="-3.56071">
        <ele>38.400001525879</ele>
        <time>2019-08-15T08:28:00.000Z</time>
      </trkpt>
      <trkpt lat="47.79122" lon="-3.56056">
        <ele>37.799999237061</ele>
        <time>2019-08-15T08:28:03.000Z</time>
      </trkpt>
      <trkpt lat="47.7907" lon="-3.56014">
        <ele>37.799999237061</ele>
        <time>2019-08-15T08:28:12.000Z</time>
      </trkpt>
      <trkpt lat="47.79064" lon="-3.56011">
        <ele>37.799999237061</ele>
        <time>2019-08-15T08:28:13.000Z</time>
      </trkpt>
      <trkpt lat="47.79056" lon="-3.56008">
        <ele>37.799999237061</ele>
        <time>2019-08-15T08:28:14.000Z</time>
      </trkpt>
      <trkpt lat="47.79025" lon="-3.56001">
        <ele>37.799999237061</ele>
        <time>2019-08-15T08:28:18.000Z</time>
      </trkpt>
      <trkpt lat="47.79017" lon="-3.56">
        <ele>37.599998474121</ele>
        <time>2019-08-15T08:28:19.000Z</time>
      </trkpt>
      <trkpt lat="47.78999" lon="-3.55997">
        <ele>37.599998474121</ele>
        <time>2019-08-15T08:28:21.000Z</time>
      </trkpt>
      <trkpt lat="47.7897" lon="-3.55994">
        <ele>36.799999237061</ele>
        <time>2019-08-15T08:28:24.000Z</time>
      </trkpt>
      <trkpt lat="47.78918" lon="-3.55975">
        <ele>34.200000762939</ele>
        <time>2019-08-15T08:28:29.000Z</time>
      </trkpt>
      <trkpt lat="47.78859" lon="-3.55945">
        <ele>31.39999961853</ele>
        <time>2019-08-15T08:28:35.000Z</time>
      </trkpt>
      <trkpt lat="47.78851" lon="-3.55939">
        <ele>31.39999961853</ele>
        <time>2019-08-15T08:28:36.000Z</time>
      </trkpt>
      <trkpt lat="47.78832" lon="-3.55916">
        <ele>31.39999961853</ele>
        <time>2019-08-15T08:28:39.000Z</time>
      </trkpt>
      <trkpt lat="47.78827" lon="-3.55909">
        <ele>31.39999961853</ele>
        <time>2019-08-15T08:28:40.000Z</time>
      </trkpt>
      <trkpt lat="47.78823" lon="-3.55903">
        <ele>31.39999961853</ele>
        <time>2019-08-15T08:28:41.000Z</time>
      </trkpt>
      <trkpt lat="47.78819" lon="-3.55898">
        <ele>31.60000038147</ele>
        <time>2019-08-15T08:28:42.000Z</time>
      </trkpt>
      <trkpt lat="47.78816" lon="-3.55895">
        <ele>31.60000038147</ele>
        <time>2019-08-15T08:28:43.000Z</time>
      </trkpt>
      <trkpt lat="47.7881" lon="-3.55891">
        <ele>32.200000762939</ele>
        <time>2019-08-15T08:28:46.000Z</time>
      </trkpt>
      <trkpt lat="47.78807" lon="-3.55889">
        <ele>32.200000762939</ele>
        <time>2019-08-15T08:28:48.000Z</time>
      </trkpt>
      <trkpt lat="47.78808" lon="-3.55879">
        <ele>32.599998474121</ele>
        <time>2019-08-15T08:28:51.000Z</time>
      </trkpt>
      <trkpt lat="47.78809" lon="-3.55874">
        <ele>32.599998474121</ele>
        <time>2019-08-15T08:28:52.000Z</time>
      </trkpt>
      <trkpt lat="47.78807" lon="-3.55862">
        <ele>32.599998474121</ele>
        <time>2019-08-15T08:28:54.000Z</time>
      </trkpt>
      <trkpt lat="47.78799" lon="-3.55841">
        <ele>32.400001525879</ele>
        <time>2019-08-15T08:28:57.000Z</time>
      </trkpt>
      <trkpt lat="47.78798" lon="-3.55833">
        <ele>32.400001525879</ele>
        <time>2019-08-15T08:28:58.000Z</time>
      </trkpt>
      <trkpt lat="47.78786" lon="-3.55777">
        <ele>32.400001525879</ele>
        <time>2019-08-15T08:29:04.000Z</time>
      </trkpt>
      <trkpt lat="47.7878" lon="-3.55743">
        <ele>32.400001525879</ele>
        <time>2019-08-15T08:29:07.000Z</time>
      </trkpt>
      <trkpt lat="47.78774" lon="-3.55705">
        <ele>32.200000762939</ele>
        <time>2019-08-15T08:29:10.000Z</time>
      </trkpt>
      <trkpt lat="47.78772" lon="-3.5566">
        <ele>31</ele>
        <time>2019-08-15T08:29:13.000Z</time>
      </trkpt>
      <trkpt lat="47.78771" lon="-3.55644">
        <ele>30.39999961853</ele>
        <time>2019-08-15T08:29:14.000Z</time>
      </trkpt>
      <trkpt lat="47.78774" lon="-3.55608">
        <ele>29.799999237061</ele>
        <time>2019-08-15T08:29:16.000Z</time>
      </trkpt>
      <trkpt lat="47.78776" lon="-3.55589">
        <ele>29.39999961853</ele>
        <time>2019-08-15T08:29:17.000Z</time>
      </trkpt>
      <trkpt lat="47.7878" lon="-3.5557">
        <ele>29.200000762939</ele>
        <time>2019-08-15T08:29:18.000Z</time>
      </trkpt>
      <trkpt lat="47.78784" lon="-3.55551">
        <ele>27.799999237061</ele>
        <time>2019-08-15T08:29:19.000Z</time>
      </trkpt>
      <trkpt lat="47.78793" lon="-3.55511">
        <ele>26.39999961853</ele>
        <time>2019-08-15T08:29:21.000Z</time>
      </trkpt>
      <trkpt lat="47.78796" lon="-3.55492">
        <ele>25.60000038147</ele>
        <time>2019-08-15T08:29:22.000Z</time>
      </trkpt>
      <trkpt lat="47.788" lon="-3.55472">
        <ele>24.200000762939</ele>
        <time>2019-08-15T08:29:23.000Z</time>
      </trkpt>
      <trkpt lat="47.78808" lon="-3.55436">
        <ele>21.60000038147</ele>
        <time>2019-08-15T08:29:25.000Z</time>
      </trkpt>
      <trkpt lat="47.78813" lon="-3.5542">
        <ele>20.39999961853</ele>
        <time>2019-08-15T08:29:26.000Z</time>
      </trkpt>
      <trkpt lat="47.78824" lon="-3.55389">
        <ele>18.60000038147</ele>
        <time>2019-08-15T08:29:28.000Z</time>
      </trkpt>
      <trkpt lat="47.7883" lon="-3.55375">
        <ele>18.200000762939</ele>
        <time>2019-08-15T08:29:29.000Z</time>
      </trkpt>
      <trkpt lat="47.78837" lon="-3.55361">
        <ele>17.39999961853</ele>
        <time>2019-08-15T08:29:30.000Z</time>
      </trkpt>
      <trkpt lat="47.78852" lon="-3.55333">
        <ele>15.800000190735</ele>
        <time>2019-08-15T08:29:32.000Z</time>
      </trkpt>
      <trkpt lat="47.78868" lon="-3.55303">
        <ele>14</ele>
        <time>2019-08-15T08:29:34.000Z</time>
      </trkpt>
      <trkpt lat="47.78884" lon="-3.5527">
        <ele>12</ele>
        <time>2019-08-15T08:29:36.000Z</time>
      </trkpt>
      <trkpt lat="47.78904" lon="-3.55224">
        <ele>8.8000001907349</ele>
        <time>2019-08-15T08:29:39.000Z</time>
      </trkpt>
      <trkpt lat="47.7891" lon="-3.5521">
        <ele>8</ele>
        <time>2019-08-15T08:29:40.000Z</time>
      </trkpt>
      <trkpt lat="47.7892" lon="-3.55182">
        <ele>6.4000000953674</ele>
        <time>2019-08-15T08:29:42.000Z</time>
      </trkpt>
      <trkpt lat="47.78936" lon="-3.55132">
        <ele>5.5999999046326</ele>
        <time>2019-08-15T08:29:46.000Z</time>
      </trkpt>
      <trkpt lat="47.78952" lon="-3.5508">
        <ele>5.4000000953674</ele>
        <time>2019-08-15T08:29:51.000Z</time>
      </trkpt>
      <trkpt lat="47.78956" lon="-3.55063">
        <ele>5.1999998092651</ele>
        <time>2019-08-15T08:29:53.000Z</time>
      </trkpt>
      <trkpt lat="47.78957" lon="-3.5505">
        <ele>5</ele>
        <time>2019-08-15T08:29:55.000Z</time>
      </trkpt>
      <trkpt lat="47.78958" lon="-3.55045">
        <ele>5</ele>
        <time>2019-08-15T08:29:56.000Z</time>
      </trkpt>
      <trkpt lat="47.7896" lon="-3.5504">
        <ele>4.8000001907349</ele>
        <time>2019-08-15T08:29:57.000Z</time>
      </trkpt>
      <trkpt lat="47.78962" lon="-3.55038">
        <ele>4.8000001907349</ele>
        <time>2019-08-15T08:29:58.000Z</time>
      </trkpt>
      <trkpt lat="47.78966" lon="-3.55041">
        <ele>3.7999999523163</ele>
        <time>2019-08-15T08:30:00.000Z</time>
      </trkpt>
      <trkpt lat="47.78966" lon="-3.55045">
        <ele>3.7999999523163</ele>
        <time>2019-08-15T08:30:01.000Z</time>
      </trkpt>
      <trkpt lat="47.78958" lon="-3.55065">
        <ele>3</ele>
        <time>2019-08-15T08:30:06.000Z</time>
      </trkpt>
      <trkpt lat="47.78956" lon="-3.5507">
        <ele>3.2000000476837</ele>
        <time>2019-08-15T08:30:07.000Z</time>
      </trkpt>
      <trkpt lat="47.78952" lon="-3.55082">
        <ele>3</ele>
        <time>2019-08-15T08:30:09.000Z</time>
      </trkpt>
      <trkpt lat="47.7895" lon="-3.55088">
        <ele>3.2000000476837</ele>
        <time>2019-08-15T08:30:10.000Z</time>
      </trkpt>
      <trkpt lat="47.78946" lon="-3.55101">
        <ele>3.4000000953674</ele>
        <time>2019-08-15T08:30:12.000Z</time>
      </trkpt>
      <trkpt lat="47.78941" lon="-3.55122">
        <ele>4</ele>
        <time>2019-08-15T08:30:15.000Z</time>
      </trkpt>
      <trkpt lat="47.78929" lon="-3.55167">
        <ele>4.5999999046326</ele>
        <time>2019-08-15T08:30:21.000Z</time>
      </trkpt>
      <trkpt lat="47.78926" lon="-3.55175">
        <ele>4.8000001907349</ele>
        <time>2019-08-15T08:30:22.000Z</time>
      </trkpt>
      <trkpt lat="47.78908" lon="-3.55226">
        <ele>4.5999999046326</ele>
        <time>2019-08-15T08:30:28.000Z</time>
      </trkpt>
      <trkpt lat="47.78893" lon="-3.55261">
        <ele>4.4000000953674</ele>
        <time>2019-08-15T08:30:32.000Z</time>
      </trkpt>
      <trkpt lat="47.78886" lon="-3.55277">
        <ele>4.1999998092651</ele>
        <time>2019-08-15T08:30:34.000Z</time>
      </trkpt>
      <trkpt lat="47.78869" lon="-3.55307">
        <ele>3.7999999523163</ele>
        <time>2019-08-15T08:30:39.000Z</time>
      </trkpt>
      <trkpt lat="47.78859" lon="-3.55326">
        <ele>4</ele>
        <time>2019-08-15T08:30:44.000Z</time>
      </trkpt>
      <trkpt lat="47.78852" lon="-3.55339">
        <ele>5</ele>
        <time>2019-08-15T08:30:48.000Z</time>
      </trkpt>
      <trkpt lat="47.78843" lon="-3.55356">
        <ele>6.4000000953674</ele>
        <time>2019-08-15T08:30:53.000Z</time>
      </trkpt>
      <trkpt lat="47.78839" lon="-3.55364">
        <ele>7.4000000953674</ele>
        <time>2019-08-15T08:30:55.000Z</time>
      </trkpt>
      <trkpt lat="47.78838" lon="-3.55367">
        <ele>7.4000000953674</ele>
        <time>2019-08-15T08:30:56.000Z</time>
      </trkpt>
      <trkpt lat="47.78836" lon="-3.5537">
        <ele>7.8000001907349</ele>
        <time>2019-08-15T08:30:57.000Z</time>
      </trkpt>
      <trkpt lat="47.78827" lon="-3.55391">
        <ele>9.6000003814697</ele>
        <time>2019-08-15T08:31:03.000Z</time>
      </trkpt>
      <trkpt lat="47.78826" lon="-3.55395">
        <ele>10</ele>
        <time>2019-08-15T08:31:04.000Z</time>
      </trkpt>
      <trkpt lat="47.7882" lon="-3.55408">
        <ele>10.60000038147</ele>
        <time>2019-08-15T08:31:08.000Z</time>
      </trkpt>
      <trkpt lat="47.78812" lon="-3.55432">
        <ele>12.199999809265</ele>
        <time>2019-08-15T08:31:15.000Z</time>
      </trkpt>
      <trkpt lat="47.78811" lon="-3.55432">
        <ele>12.39999961853</ele>
        <time>2019-08-15T08:31:16.000Z</time>
      </trkpt>
      <trkpt lat="47.78813" lon="-3.55424">
        <ele>12.800000190735</ele>
        <time>2019-08-15T08:31:19.000Z</time>
      </trkpt>
      <trkpt lat="47.78815" lon="-3.55417">
        <ele>13</ele>
        <time>2019-08-15T08:31:21.000Z</time>
      </trkpt>
      <trkpt lat="47.78814" lon="-3.55414">
        <ele>13</ele>
        <time>2019-08-15T08:31:22.000Z</time>
      </trkpt>
      <trkpt lat="47.78812" lon="-3.55413">
        <ele>13</ele>
        <time>2019-08-15T08:31:23.000Z</time>
      </trkpt>
      <trkpt lat="47.78808" lon="-3.55415">
        <ele>13</ele>
        <time>2019-08-15T08:31:25.000Z</time>
      </trkpt>
      <trkpt lat="47.78806" lon="-3.55416">
        <ele>13</ele>
        <time>2019-08-15T08:31:26.000Z</time>
      </trkpt>
      <trkpt lat="47.78801" lon="-3.55421">
        <ele>12.800000190735</ele>
        <time>2019-08-15T08:31:28.000Z</time>
      </trkpt>
      <trkpt lat="47.78793" lon="-3.55432">
        <ele>12.39999961853</ele>
        <time>2019-08-15T08:31:30.000Z</time>
      </trkpt>
      <trkpt lat="47.7879" lon="-3.55439">
        <ele>11.800000190735</ele>
        <time>2019-08-15T08:31:31.000Z</time>
      </trkpt>
      <trkpt lat="47.78786" lon="-3.55446">
        <ele>11.39999961853</ele>
        <time>2019-08-15T08:31:32.000Z</time>
      </trkpt>
      <trkpt lat="47.78783" lon="-3.55452">
        <ele>11.199999809265</ele>
        <time>2019-08-15T08:31:33.000Z</time>
      </trkpt>
      <trkpt lat="47.7878" lon="-3.55457">
        <ele>10.800000190735</ele>
        <time>2019-08-15T08:31:34.000Z</time>
      </trkpt>
      <trkpt lat="47.78777" lon="-3.55462">
        <ele>10.199999809265</ele>
        <time>2019-08-15T08:31:35.000Z</time>
      </trkpt>
      <trkpt lat="47.78771" lon="-3.55473">
        <ele>9.6000003814697</ele>
        <time>2019-08-15T08:31:37.000Z</time>
      </trkpt>
      <trkpt lat="47.78768" lon="-3.55479">
        <ele>8.8000001907349</ele>
        <time>2019-08-15T08:31:38.000Z</time>
      </trkpt>
      <trkpt lat="47.78765" lon="-3.55485">
        <ele>8.6000003814697</ele>
        <time>2019-08-15T08:31:39.000Z</time>
      </trkpt>
      <trkpt lat="47.78759" lon="-3.55493">
        <ele>8.1999998092651</ele>
        <time>2019-08-15T08:31:41.000Z</time>
      </trkpt>
      <trkpt lat="47.78752" lon="-3.55503">
        <ele>8.1999998092651</ele>
        <time>2019-08-15T08:31:44.000Z</time>
      </trkpt>
      <trkpt lat="47.78745" lon="-3.5551">
        <ele>8.1999998092651</ele>
        <time>2019-08-15T08:31:46.000Z</time>
      </trkpt>
      <trkpt lat="47.78741" lon="-3.55514">
        <ele>8.1999998092651</ele>
        <time>2019-08-15T08:31:47.000Z</time>
      </trkpt>
      <trkpt lat="47.78734" lon="-3.55522">
        <ele>8.1999998092651</ele>
        <time>2019-08-15T08:31:49.000Z</time>
      </trkpt>
      <trkpt lat="47.78731" lon="-3.55525">
        <ele>8.1999998092651</ele>
        <time>2019-08-15T08:31:50.000Z</time>
      </trkpt>
      <trkpt lat="47.78719" lon="-3.55533">
        <ele>8.1999998092651</ele>
        <time>2019-08-15T08:31:53.000Z</time>
      </trkpt>
      <trkpt lat="47.78709" lon="-3.55537">
        <ele>8.1999998092651</ele>
        <time>2019-08-15T08:31:56.000Z</time>
      </trkpt>
      <trkpt lat="47.78693" lon="-3.55547">
        <ele>8.8000001907349</ele>
        <time>2019-08-15T08:32:01.000Z</time>
      </trkpt>
      <trkpt lat="47.78691" lon="-3.5555">
        <ele>9</ele>
        <time>2019-08-15T08:32:02.000Z</time>
      </trkpt>
      <trkpt lat="47.78688" lon="-3.55555">
        <ele>9</ele>
        <time>2019-08-15T08:32:04.000Z</time>
      </trkpt>
      <trkpt lat="47.78686" lon="-3.55558">
        <ele>9.1999998092651</ele>
        <time>2019-08-15T08:32:05.000Z</time>
      </trkpt>
      <trkpt lat="47.7868" lon="-3.5556">
        <ele>10.199999809265</ele>
        <time>2019-08-15T08:32:08.000Z</time>
      </trkpt>
      <trkpt lat="47.78674" lon="-3.55566">
        <ele>11</ele>
        <time>2019-08-15T08:32:12.000Z</time>
      </trkpt>
      <trkpt lat="47.78671" lon="-3.55569">
        <ele>11.39999961853</ele>
        <time>2019-08-15T08:32:14.000Z</time>
      </trkpt>
      <trkpt lat="47.78668" lon="-3.55572">
        <ele>12.199999809265</ele>
        <time>2019-08-15T08:32:16.000Z</time>
      </trkpt>
      <trkpt lat="47.78667" lon="-3.55575">
        <ele>12.60000038147</ele>
        <time>2019-08-15T08:32:17.000Z</time>
      </trkpt>
      <trkpt lat="47.78665" lon="-3.55577">
        <ele>13</ele>
        <time>2019-08-15T08:32:19.000Z</time>
      </trkpt>
      <trkpt lat="47.78662" lon="-3.55578">
        <ele>13</ele>
        <time>2019-08-15T08:32:20.000Z</time>
      </trkpt>
      <trkpt lat="47.78659" lon="-3.55583">
        <ele>14</ele>
        <time>2019-08-15T08:32:23.000Z</time>
      </trkpt>
      <trkpt lat="47.78658" lon="-3.55595">
        <ele>15</ele>
        <time>2019-08-15T08:32:27.000Z</time>
      </trkpt>
      <trkpt lat="47.78657" lon="-3.55604">
        <ele>15.39999961853</ele>
        <time>2019-08-15T08:32:30.000Z</time>
      </trkpt>
      <trkpt lat="47.78656" lon="-3.55612">
        <ele>15.800000190735</ele>
        <time>2019-08-15T08:32:33.000Z</time>
      </trkpt>
      <trkpt lat="47.78655" lon="-3.55615">
        <ele>15.800000190735</ele>
        <time>2019-08-15T08:32:34.000Z</time>
      </trkpt>
      <trkpt lat="47.78654" lon="-3.5563">
        <ele>16.39999961853</ele>
        <time>2019-08-15T08:32:38.000Z</time>
      </trkpt>
      <trkpt lat="47.78652" lon="-3.55656">
        <ele>16.39999961853</ele>
        <time>2019-08-15T08:32:43.000Z</time>
      </trkpt>
      <trkpt lat="47.78652" lon="-3.55668">
        <ele>16.39999961853</ele>
        <time>2019-08-15T08:32:46.000Z</time>
      </trkpt>
      <trkpt lat="47.78651" lon="-3.55679">
        <ele>16.200000762939</ele>
        <time>2019-08-15T08:32:49.000Z</time>
      </trkpt>
      <trkpt lat="47.78651" lon="-3.55679">
        <ele>16.200000762939</ele>
        <time>2019-08-15T08:32:50.000Z</time>
      </trkpt>
      <trkpt lat="47.78651" lon="-3.55679">
        <ele>16.200000762939</ele>
        <time>2019-08-15T08:32:51.000Z</time>
      </trkpt>
      <trkpt lat="47.78651" lon="-3.55682">
        <ele>16</ele>
        <time>2019-08-15T08:33:06.000Z</time>
      </trkpt>
      <trkpt lat="47.7865" lon="-3.55688">
        <ele>16</ele>
        <time>2019-08-15T08:33:08.000Z</time>
      </trkpt>
      <trkpt lat="47.78649" lon="-3.55691">
        <ele>16</ele>
        <time>2019-08-15T08:33:09.000Z</time>
      </trkpt>
      <trkpt lat="47.78649" lon="-3.55697">
        <ele>16</ele>
        <time>2019-08-15T08:33:11.000Z</time>
      </trkpt>
      <trkpt lat="47.78649" lon="-3.55699">
        <ele>16</ele>
        <time>2019-08-15T08:33:12.000Z</time>
      </trkpt>
      <trkpt lat="47.78649" lon="-3.557">
        <ele>15.800000190735</ele>
        <time>2019-08-15T08:33:16.000Z</time>
      </trkpt>
      <trkpt lat="47.78649" lon="-3.557">
        <ele>15.39999961853</ele>
        <time>2019-08-15T08:33:25.000Z</time>
      </trkpt>
      <trkpt lat="47.78649" lon="-3.557">
        <ele>15.39999961853</ele>
        <time>2019-08-15T08:33:32.000Z</time>
      </trkpt>
      <trkpt lat="47.78647" lon="-3.55705">
        <ele>15.199999809265</ele>
        <time>2019-08-15T08:33:41.000Z</time>
      </trkpt>
      <trkpt lat="47.78646" lon="-3.55714">
        <ele>15</ele>
        <time>2019-08-15T08:33:43.000Z</time>
      </trkpt>
      <trkpt lat="47.7864" lon="-3.55735">
        <ele>14.800000190735</ele>
        <time>2019-08-15T08:33:47.000Z</time>
      </trkpt>
      <trkpt lat="47.78639" lon="-3.55739">
        <ele>14.800000190735</ele>
        <time>2019-08-15T08:33:48.000Z</time>
      </trkpt>
      <trkpt lat="47.78637" lon="-3.55745">
        <ele>14.60000038147</ele>
        <time>2019-08-15T08:33:49.000Z</time>
      </trkpt>
      <trkpt lat="47.78635" lon="-3.55757">
        <ele>14.199999809265</ele>
        <time>2019-08-15T08:33:51.000Z</time>
      </trkpt>
      <trkpt lat="47.78635" lon="-3.55761">
        <ele>14.199999809265</ele>
        <time>2019-08-15T08:33:52.000Z</time>
      </trkpt>
      <trkpt lat="47.78635" lon="-3.55763">
        <ele>14.199999809265</ele>
        <time>2019-08-15T08:33:53.000Z</time>
      </trkpt>
      <trkpt lat="47.78633" lon="-3.55767">
        <ele>14</ele>
        <time>2019-08-15T08:33:55.000Z</time>
      </trkpt>
      <trkpt lat="47.78631" lon="-3.5577">
        <ele>13.800000190735</ele>
        <time>2019-08-15T08:33:56.000Z</time>
      </trkpt>
      <trkpt lat="47.7863" lon="-3.55773">
        <ele>13.800000190735</ele>
        <time>2019-08-15T08:33:57.000Z</time>
      </trkpt>
      <trkpt lat="47.78628" lon="-3.55778">
        <ele>13.800000190735</ele>
        <time>2019-08-15T08:33:58.000Z</time>
      </trkpt>
      <trkpt lat="47.78626" lon="-3.55781">
        <ele>13.60000038147</ele>
        <time>2019-08-15T08:33:59.000Z</time>
      </trkpt>
      <trkpt lat="47.78625" lon="-3.55788">
        <ele>13.60000038147</ele>
        <time>2019-08-15T08:34:00.000Z</time>
      </trkpt>
      <trkpt lat="47.78623" lon="-3.55793">
        <ele>13.39999961853</ele>
        <time>2019-08-15T08:34:01.000Z</time>
      </trkpt>
      <trkpt lat="47.78622" lon="-3.55798">
        <ele>13.199999809265</ele>
        <time>2019-08-15T08:34:02.000Z</time>
      </trkpt>
      <trkpt lat="47.7862" lon="-3.55809">
        <ele>12</ele>
        <time>2019-08-15T08:34:04.000Z</time>
      </trkpt>
      <trkpt lat="47.7862" lon="-3.55815">
        <ele>11.800000190735</ele>
        <time>2019-08-15T08:34:05.000Z</time>
      </trkpt>
      <trkpt lat="47.7862" lon="-3.55823">
        <ele>11.60000038147</ele>
        <time>2019-08-15T08:34:06.000Z</time>
      </trkpt>
      <trkpt lat="47.78619" lon="-3.55836">
        <ele>11.39999961853</ele>
        <time>2019-08-15T08:34:08.000Z</time>
      </trkpt>
      <trkpt lat="47.7862" lon="-3.55842">
        <ele>11.39999961853</ele>
        <time>2019-08-15T08:34:09.000Z</time>
      </trkpt>
      <trkpt lat="47.78621" lon="-3.55848">
        <ele>11.199999809265</ele>
        <time>2019-08-15T08:34:10.000Z</time>
      </trkpt>
      <trkpt lat="47.78622" lon="-3.55861">
        <ele>11.199999809265</ele>
        <time>2019-08-15T08:34:12.000Z</time>
      </trkpt>
      <trkpt lat="47.78623" lon="-3.55867">
        <ele>11.39999961853</ele>
        <time>2019-08-15T08:34:13.000Z</time>
      </trkpt>
      <trkpt lat="47.78624" lon="-3.55876">
        <ele>10.800000190735</ele>
        <time>2019-08-15T08:34:15.000Z</time>
      </trkpt>
      <trkpt lat="47.78623" lon="-3.55879">
        <ele>10.60000038147</ele>
        <time>2019-08-15T08:34:16.000Z</time>
      </trkpt>
      <trkpt lat="47.7862" lon="-3.55884">
        <ele>10</ele>
        <time>2019-08-15T08:34:20.000Z</time>
      </trkpt>
      <trkpt lat="47.78618" lon="-3.55884">
        <ele>9.8000001907349</ele>
        <time>2019-08-15T08:34:21.000Z</time>
      </trkpt>
      <trkpt lat="47.78616" lon="-3.55885">
        <ele>9.6000003814697</ele>
        <time>2019-08-15T08:34:25.000Z</time>
      </trkpt>
      <trkpt lat="47.78615" lon="-3.55886">
        <ele>9.3999996185303</ele>
        <time>2019-08-15T08:34:26.000Z</time>
      </trkpt>
      <trkpt lat="47.78613" lon="-3.55889">
        <ele>9.3999996185303</ele>
        <time>2019-08-15T08:34:31.000Z</time>
      </trkpt>
      <trkpt lat="47.7861" lon="-3.55898">
        <ele>9.1999998092651</ele>
        <time>2019-08-15T08:34:38.000Z</time>
      </trkpt>
      <trkpt lat="47.78599" lon="-3.55911">
        <ele>9.3999996185303</ele>
        <time>2019-08-15T08:34:45.000Z</time>
      </trkpt>
      <trkpt lat="47.78594" lon="-3.55913">
        <ele>9.3999996185303</ele>
        <time>2019-08-15T08:34:50.000Z</time>
      </trkpt>
      <trkpt lat="47.78591" lon="-3.55922">
        <ele>9.8000001907349</ele>
        <time>2019-08-15T08:34:57.000Z</time>
      </trkpt>
      <trkpt lat="47.78585" lon="-3.55929">
        <ele>9.6000003814697</ele>
        <time>2019-08-15T08:35:04.000Z</time>
      </trkpt>
      <trkpt lat="47.78581" lon="-3.55935">
        <ele>9.8000001907349</ele>
        <time>2019-08-15T08:35:10.000Z</time>
      </trkpt>
      <trkpt lat="47.78576" lon="-3.55946">
        <ele>9.8000001907349</ele>
        <time>2019-08-15T08:35:14.000Z</time>
      </trkpt>
      <trkpt lat="47.78575" lon="-3.55949">
        <ele>10</ele>
        <time>2019-08-15T08:35:15.000Z</time>
      </trkpt>
      <trkpt lat="47.78574" lon="-3.55951">
        <ele>10</ele>
        <time>2019-08-15T08:35:16.000Z</time>
      </trkpt>
      <trkpt lat="47.78571" lon="-3.55955">
        <ele>10.39999961853</ele>
        <time>2019-08-15T08:35:18.000Z</time>
      </trkpt>
      <trkpt lat="47.78569" lon="-3.5596">
        <ele>10.800000190735</ele>
        <time>2019-08-15T08:35:19.000Z</time>
      </trkpt>
      <trkpt lat="47.78565" lon="-3.55967">
        <ele>11.199999809265</ele>
        <time>2019-08-15T08:35:21.000Z</time>
      </trkpt>
      <trkpt lat="47.78562" lon="-3.55979">
        <ele>11.39999961853</ele>
        <time>2019-08-15T08:35:24.000Z</time>
      </trkpt>
      <trkpt lat="47.78558" lon="-3.55988">
        <ele>11.800000190735</ele>
        <time>2019-08-15T08:35:27.000Z</time>
      </trkpt>
      <trkpt lat="47.78554" lon="-3.55995">
        <ele>12.199999809265</ele>
        <time>2019-08-15T08:35:29.000Z</time>
      </trkpt>
      <trkpt lat="47.7855" lon="-3.56">
        <ele>12.60000038147</ele>
        <time>2019-08-15T08:35:31.000Z</time>
      </trkpt>
      <trkpt lat="47.78548" lon="-3.56003">
        <ele>12.800000190735</ele>
        <time>2019-08-15T08:35:32.000Z</time>
      </trkpt>
      <trkpt lat="47.78539" lon="-3.56017">
        <ele>13.800000190735</ele>
        <time>2019-08-15T08:35:37.000Z</time>
      </trkpt>
      <trkpt lat="47.78538" lon="-3.56019">
        <ele>14</ele>
        <time>2019-08-15T08:35:38.000Z</time>
      </trkpt>
      <trkpt lat="47.78533" lon="-3.56029">
        <ele>14.39999961853</ele>
        <time>2019-08-15T08:35:41.000Z</time>
      </trkpt>
      <trkpt lat="47.78533" lon="-3.56033">
        <ele>15.199999809265</ele>
        <time>2019-08-15T08:35:43.000Z</time>
      </trkpt>
      <trkpt lat="47.78533" lon="-3.56035">
        <ele>15.39999961853</ele>
        <time>2019-08-15T08:35:44.000Z</time>
      </trkpt>
      <trkpt lat="47.78532" lon="-3.56037">
        <ele>16</ele>
        <time>2019-08-15T08:35:46.000Z</time>
      </trkpt>
      <trkpt lat="47.78529" lon="-3.5604">
        <ele>16</ele>
        <time>2019-08-15T08:35:48.000Z</time>
      </trkpt>
      <trkpt lat="47.78528" lon="-3.56043">
        <ele>16.39999961853</ele>
        <time>2019-08-15T08:35:49.000Z</time>
      </trkpt>
      <trkpt lat="47.78524" lon="-3.56054">
        <ele>16.799999237061</ele>
        <time>2019-08-15T08:35:53.000Z</time>
      </trkpt>
      <trkpt lat="47.78523" lon="-3.56056">
        <ele>16.60000038147</ele>
        <time>2019-08-15T08:35:54.000Z</time>
      </trkpt>
      <trkpt lat="47.78521" lon="-3.5606">
        <ele>17</ele>
        <time>2019-08-15T08:35:56.000Z</time>
      </trkpt>
      <trkpt lat="47.78512" lon="-3.56072">
        <ele>17.799999237061</ele>
        <time>2019-08-15T08:36:01.000Z</time>
      </trkpt>
      <trkpt lat="47.7851" lon="-3.56074">
        <ele>17.799999237061</ele>
        <time>2019-08-15T08:36:02.000Z</time>
      </trkpt>
      <trkpt lat="47.78504" lon="-3.56086">
        <ele>18.200000762939</ele>
        <time>2019-08-15T08:36:06.000Z</time>
      </trkpt>
      <trkpt lat="47.78502" lon="-3.56091">
        <ele>18.200000762939</ele>
        <time>2019-08-15T08:36:08.000Z</time>
      </trkpt>
      <trkpt lat="47.785" lon="-3.56093">
        <ele>18.200000762939</ele>
        <time>2019-08-15T08:36:09.000Z</time>
      </trkpt>
      <trkpt lat="47.78497" lon="-3.56098">
        <ele>18.39999961853</ele>
        <time>2019-08-15T08:36:11.000Z</time>
      </trkpt>
      <trkpt lat="47.78489" lon="-3.56106">
        <ele>18.799999237061</ele>
        <time>2019-08-15T08:36:15.000Z</time>
      </trkpt>
      <trkpt lat="47.78487" lon="-3.56108">
        <ele>19</ele>
        <time>2019-08-15T08:36:16.000Z</time>
      </trkpt>
      <trkpt lat="47.78486" lon="-3.56109">
        <ele>18.799999237061</ele>
        <time>2019-08-15T08:36:17.000Z</time>
      </trkpt>
      <trkpt lat="47.78485" lon="-3.56111">
        <ele>19</ele>
        <time>2019-08-15T08:36:18.000Z</time>
      </trkpt>
      <trkpt lat="47.78484" lon="-3.56113">
        <ele>18.799999237061</ele>
        <time>2019-08-15T08:36:19.000Z</time>
      </trkpt>
      <trkpt lat="47.78481" lon="-3.56117">
        <ele>19</ele>
        <time>2019-08-15T08:36:21.000Z</time>
      </trkpt>
      <trkpt lat="47.78474" lon="-3.56119">
        <ele>19.200000762939</ele>
        <time>2019-08-15T08:36:24.000Z</time>
      </trkpt>
      <trkpt lat="47.78471" lon="-3.5612">
        <ele>19.200000762939</ele>
        <time>2019-08-15T08:36:25.000Z</time>
      </trkpt>
      <trkpt lat="47.78453" lon="-3.56125">
        <ele>19</ele>
        <time>2019-08-15T08:36:30.000Z</time>
      </trkpt>
      <trkpt lat="47.78452" lon="-3.56125">
        <ele>19</ele>
        <time>2019-08-15T08:36:31.000Z</time>
      </trkpt>
      <trkpt lat="47.78451" lon="-3.56126">
        <ele>19</ele>
        <time>2019-08-15T08:36:32.000Z</time>
      </trkpt>
      <trkpt lat="47.78449" lon="-3.56131">
        <ele>19</ele>
        <time>2019-08-15T08:36:34.000Z</time>
      </trkpt>
      <trkpt lat="47.78448" lon="-3.56133">
        <ele>19</ele>
        <time>2019-08-15T08:36:35.000Z</time>
      </trkpt>
      <trkpt lat="47.78447" lon="-3.56137">
        <ele>19</ele>
        <time>2019-08-15T08:36:37.000Z</time>
      </trkpt>
      <trkpt lat="47.78446" lon="-3.56141">
        <ele>19</ele>
        <time>2019-08-15T08:36:39.000Z</time>
      </trkpt>
      <trkpt lat="47.78445" lon="-3.56144">
        <ele>19.200000762939</ele>
        <time>2019-08-15T08:36:40.000Z</time>
      </trkpt>
      <trkpt lat="47.78444" lon="-3.56146">
        <ele>19.39999961853</ele>
        <time>2019-08-15T08:36:41.000Z</time>
      </trkpt>
      <trkpt lat="47.78442" lon="-3.56151">
        <ele>19.39999961853</ele>
        <time>2019-08-15T08:36:43.000Z</time>
      </trkpt>
      <trkpt lat="47.78442" lon="-3.56152">
        <ele>19.60000038147</ele>
        <time>2019-08-15T08:36:44.000Z</time>
      </trkpt>
      <trkpt lat="47.78442" lon="-3.56153">
        <ele>19.799999237061</ele>
        <time>2019-08-15T08:36:47.000Z</time>
      </trkpt>
      <trkpt lat="47.78441" lon="-3.56157">
        <ele>20.60000038147</ele>
        <time>2019-08-15T08:36:49.000Z</time>
      </trkpt>
      <trkpt lat="47.7844" lon="-3.56159">
        <ele>20.60000038147</ele>
        <time>2019-08-15T08:36:50.000Z</time>
      </trkpt>
      <trkpt lat="47.78438" lon="-3.56161">
        <ele>21</ele>
        <time>2019-08-15T08:36:55.000Z</time>
      </trkpt>
      <trkpt lat="47.78437" lon="-3.56164">
        <ele>21.200000762939</ele>
        <time>2019-08-15T08:36:59.000Z</time>
      </trkpt>
      <trkpt lat="47.78435" lon="-3.5617">
        <ele>21.39999961853</ele>
        <time>2019-08-15T08:37:01.000Z</time>
      </trkpt>
      <trkpt lat="47.7843" lon="-3.56186">
        <ele>22</ele>
        <time>2019-08-15T08:37:06.000Z</time>
      </trkpt>
      <trkpt lat="47.78427" lon="-3.56192">
        <ele>22.39999961853</ele>
        <time>2019-08-15T08:37:09.000Z</time>
      </trkpt>
      <trkpt lat="47.78426" lon="-3.56193">
        <ele>22.60000038147</ele>
        <time>2019-08-15T08:37:10.000Z</time>
      </trkpt>
      <trkpt lat="47.78425" lon="-3.56194">
        <ele>22.799999237061</ele>
        <time>2019-08-15T08:37:11.000Z</time>
      </trkpt>
      <trkpt lat="47.78423" lon="-3.56196">
        <ele>23</ele>
        <time>2019-08-15T08:37:12.000Z</time>
      </trkpt>
      <trkpt lat="47.78421" lon="-3.56198">
        <ele>23</ele>
        <time>2019-08-15T08:37:13.000Z</time>
      </trkpt>
      <trkpt lat="47.78418" lon="-3.56202">
        <ele>23.60000038147</ele>
        <time>2019-08-15T08:37:16.000Z</time>
      </trkpt>
      <trkpt lat="47.78417" lon="-3.56203">
        <ele>23.60000038147</ele>
        <time>2019-08-15T08:37:17.000Z</time>
      </trkpt>
      <trkpt lat="47.78416" lon="-3.56204">
        <ele>24</ele>
        <time>2019-08-15T08:37:18.000Z</time>
      </trkpt>
      <trkpt lat="47.78415" lon="-3.56206">
        <ele>24</ele>
        <time>2019-08-15T08:37:19.000Z</time>
      </trkpt>
      <trkpt lat="47.78408" lon="-3.56214">
        <ele>25.200000762939</ele>
        <time>2019-08-15T08:37:24.000Z</time>
      </trkpt>
      <trkpt lat="47.78408" lon="-3.56214">
        <ele>25.60000038147</ele>
        <time>2019-08-15T08:37:25.000Z</time>
      </trkpt>
      <trkpt lat="47.78405" lon="-3.56217">
        <ele>27</ele>
        <time>2019-08-15T08:37:32.000Z</time>
      </trkpt>
      <trkpt lat="47.78404" lon="-3.56218">
        <ele>27.200000762939</ele>
        <time>2019-08-15T08:37:35.000Z</time>
      </trkpt>
      <trkpt lat="47.78399" lon="-3.56224">
        <ele>28</ele>
        <time>2019-08-15T08:37:42.000Z</time>
      </trkpt>
      <trkpt lat="47.78398" lon="-3.56225">
        <ele>29</ele>
        <time>2019-08-15T08:37:47.000Z</time>
      </trkpt>
      <trkpt lat="47.78396" lon="-3.56226">
        <ele>29.200000762939</ele>
        <time>2019-08-15T08:37:49.000Z</time>
      </trkpt>
      <trkpt lat="47.78396" lon="-3.56226">
        <ele>29.60000038147</ele>
        <time>2019-08-15T08:37:52.000Z</time>
      </trkpt>
      <trkpt lat="47.78395" lon="-3.56227">
        <ele>29.60000038147</ele>
        <time>2019-08-15T08:37:53.000Z</time>
      </trkpt>
      <trkpt lat="47.78392" lon="-3.5623">
        <ele>29.60000038147</ele>
        <time>2019-08-15T08:37:54.000Z</time>
      </trkpt>
      <trkpt lat="47.78392" lon="-3.56231">
        <ele>30</ele>
        <time>2019-08-15T08:37:55.000Z</time>
      </trkpt>
      <trkpt lat="47.78392" lon="-3.56231">
        <ele>30.39999961853</ele>
        <time>2019-08-15T08:37:57.000Z</time>
      </trkpt>
      <trkpt lat="47.78392" lon="-3.56231">
        <ele>30.60000038147</ele>
        <time>2019-08-15T08:37:58.000Z</time>
      </trkpt>
      <trkpt lat="47.78392" lon="-3.56231">
        <ele>30.60000038147</ele>
        <time>2019-08-15T08:38:00.000Z</time>
      </trkpt>
      <trkpt lat="47.78392" lon="-3.56231">
        <ele>31.39999961853</ele>
        <time>2019-08-15T08:38:04.000Z</time>
      </trkpt>
      <trkpt lat="47.78392" lon="-3.56231">
        <ele>31.39999961853</ele>
        <time>2019-08-15T08:38:05.000Z</time>
      </trkpt>
      <trkpt lat="47.78392" lon="-3.56231">
        <ele>31.60000038147</ele>
        <time>2019-08-15T08:38:06.000Z</time>
      </trkpt>
      <trkpt lat="47.78392" lon="-3.56231">
        <ele>31.60000038147</ele>
        <time>2019-08-15T08:38:07.000Z</time>
      </trkpt>
      <trkpt lat="47.78392" lon="-3.56231">
        <ele>31.200000762939</ele>
        <time>2019-08-15T08:38:09.000Z</time>
      </trkpt>
      <trkpt lat="47.78392" lon="-3.56231">
        <ele>31.60000038147</ele>
        <time>2019-08-15T08:38:11.000Z</time>
      </trkpt>
      <trkpt lat="47.78391" lon="-3.56231">
        <ele>32.200000762939</ele>
        <time>2019-08-15T08:38:15.000Z</time>
      </trkpt>
      <trkpt lat="47.78391" lon="-3.56232">
        <ele>32.400001525879</ele>
        <time>2019-08-15T08:38:16.000Z</time>
      </trkpt>
      <trkpt lat="47.78391" lon="-3.56232">
        <ele>32.799999237061</ele>
        <time>2019-08-15T08:38:17.000Z</time>
      </trkpt>
      <trkpt lat="47.78386" lon="-3.56242">
        <ele>33.400001525879</ele>
        <time>2019-08-15T08:38:44.000Z</time>
      </trkpt>
      <trkpt lat="47.78382" lon="-3.56248">
        <ele>33.599998474121</ele>
        <time>2019-08-15T08:38:47.000Z</time>
      </trkpt>
      <trkpt lat="47.78373" lon="-3.5626">
        <ele>34</ele>
        <time>2019-08-15T08:38:52.000Z</time>
      </trkpt>
      <trkpt lat="47.78367" lon="-3.56271">
        <ele>34.200000762939</ele>
        <time>2019-08-15T08:38:55.000Z</time>
      </trkpt>
      <trkpt lat="47.78363" lon="-3.56279">
        <ele>34.400001525879</ele>
        <time>2019-08-15T08:38:57.000Z</time>
      </trkpt>
      <trkpt lat="47.78361" lon="-3.56284">
        <ele>34.799999237061</ele>
        <time>2019-08-15T08:38:59.000Z</time>
      </trkpt>
      <trkpt lat="47.78359" lon="-3.5629">
        <ele>35</ele>
        <time>2019-08-15T08:39:01.000Z</time>
      </trkpt>
      <trkpt lat="47.78357" lon="-3.56292">
        <ele>35</ele>
        <time>2019-08-15T08:39:02.000Z</time>
      </trkpt>
      <trkpt lat="47.78354" lon="-3.56298">
        <ele>35.200000762939</ele>
        <time>2019-08-15T08:39:04.000Z</time>
      </trkpt>
      <trkpt lat="47.7835" lon="-3.56304">
        <ele>35.799999237061</ele>
        <time>2019-08-15T08:39:07.000Z</time>
      </trkpt>
      <trkpt lat="47.78348" lon="-3.56308">
        <ele>35.799999237061</ele>
        <time>2019-08-15T08:39:09.000Z</time>
      </trkpt>
      <trkpt lat="47.78347" lon="-3.5631">
        <ele>36</ele>
        <time>2019-08-15T08:39:10.000Z</time>
      </trkpt>
      <trkpt lat="47.78342" lon="-3.56318">
        <ele>36.400001525879</ele>
        <time>2019-08-15T08:39:13.000Z</time>
      </trkpt>
      <trkpt lat="47.78341" lon="-3.5632">
        <ele>36.599998474121</ele>
        <time>2019-08-15T08:39:14.000Z</time>
      </trkpt>
      <trkpt lat="47.7834" lon="-3.56322">
        <ele>36.799999237061</ele>
        <time>2019-08-15T08:39:15.000Z</time>
      </trkpt>
      <trkpt lat="47.78336" lon="-3.56324">
        <ele>37.599998474121</ele>
        <time>2019-08-15T08:39:20.000Z</time>
      </trkpt>
      <trkpt lat="47.7832" lon="-3.56326">
        <ele>38.599998474121</ele>
        <time>2019-08-15T08:39:26.000Z</time>
      </trkpt>
      <trkpt lat="47.78312" lon="-3.56328">
        <ele>39.200000762939</ele>
        <time>2019-08-15T08:39:29.000Z</time>
      </trkpt>
      <trkpt lat="47.78306" lon="-3.56328">
        <ele>39.799999237061</ele>
        <time>2019-08-15T08:39:32.000Z</time>
      </trkpt>
      <trkpt lat="47.78303" lon="-3.56329">
        <ele>39.799999237061</ele>
        <time>2019-08-15T08:39:33.000Z</time>
      </trkpt>
      <trkpt lat="47.7829" lon="-3.56331">
        <ele>40.200000762939</ele>
        <time>2019-08-15T08:39:37.000Z</time>
      </trkpt>
      <trkpt lat="47.78287" lon="-3.56331">
        <ele>40.200000762939</ele>
        <time>2019-08-15T08:39:38.000Z</time>
      </trkpt>
      <trkpt lat="47.7827" lon="-3.56332">
        <ele>40.599998474121</ele>
        <time>2019-08-15T08:39:44.000Z</time>
      </trkpt>
      <trkpt lat="47.78264" lon="-3.56332">
        <ele>40.799999237061</ele>
        <time>2019-08-15T08:39:46.000Z</time>
      </trkpt>
      <trkpt lat="47.78262" lon="-3.56333">
        <ele>40.799999237061</ele>
        <time>2019-08-15T08:39:47.000Z</time>
      </trkpt>
      <trkpt lat="47.78252" lon="-3.56333">
        <ele>41</ele>
        <time>2019-08-15T08:39:50.000Z</time>
      </trkpt>
      <trkpt lat="47.78249" lon="-3.56333">
        <ele>40.799999237061</ele>
        <time>2019-08-15T08:39:51.000Z</time>
      </trkpt>
      <trkpt lat="47.78244" lon="-3.56332">
        <ele>41</ele>
        <time>2019-08-15T08:39:53.000Z</time>
      </trkpt>
      <trkpt lat="47.78236" lon="-3.56332">
        <ele>41</ele>
        <time>2019-08-15T08:39:56.000Z</time>
      </trkpt>
      <trkpt lat="47.78236" lon="-3.5633">
        <ele>41</ele>
        <time>2019-08-15T08:39:57.000Z</time>
      </trkpt>
      <trkpt lat="47.7824" lon="-3.5633">
        <ele>41</ele>
        <time>2019-08-15T08:40:00.000Z</time>
      </trkpt>
      <trkpt lat="47.78242" lon="-3.56331">
        <ele>41</ele>
        <time>2019-08-15T08:40:01.000Z</time>
      </trkpt>
      <trkpt lat="47.78253" lon="-3.56332">
        <ele>41</ele>
        <time>2019-08-15T08:40:05.000Z</time>
      </trkpt>
      <trkpt lat="47.78269" lon="-3.56332">
        <ele>41.200000762939</ele>
        <time>2019-08-15T08:40:10.000Z</time>
      </trkpt>
      <trkpt lat="47.78278" lon="-3.56333">
        <ele>41.200000762939</ele>
        <time>2019-08-15T08:40:13.000Z</time>
      </trkpt>
      <trkpt lat="47.78282" lon="-3.56338">
        <ele>40.799999237061</ele>
        <time>2019-08-15T08:40:15.000Z</time>
      </trkpt>
      <trkpt lat="47.78282" lon="-3.56344">
        <ele>40.799999237061</ele>
        <time>2019-08-15T08:40:17.000Z</time>
      </trkpt>
      <trkpt lat="47.78281" lon="-3.56346">
        <ele>40.599998474121</ele>
        <time>2019-08-15T08:40:18.000Z</time>
      </trkpt>
      <trkpt lat="47.7828" lon="-3.56353">
        <ele>40.599998474121</ele>
        <time>2019-08-15T08:40:20.000Z</time>
      </trkpt>
      <trkpt lat="47.78276" lon="-3.56372">
        <ele>40.599998474121</ele>
        <time>2019-08-15T08:40:25.000Z</time>
      </trkpt>
      <trkpt lat="47.78273" lon="-3.56379">
        <ele>40.400001525879</ele>
        <time>2019-08-15T08:40:27.000Z</time>
      </trkpt>
      <trkpt lat="47.78268" lon="-3.56389">
        <ele>40.599998474121</ele>
        <time>2019-08-15T08:40:29.000Z</time>
      </trkpt>
      <trkpt lat="47.78265" lon="-3.56394">
        <ele>40.799999237061</ele>
        <time>2019-08-15T08:40:30.000Z</time>
      </trkpt>
      <trkpt lat="47.7826" lon="-3.56405">
        <ele>40.599998474121</ele>
        <time>2019-08-15T08:40:32.000Z</time>
      </trkpt>
      <trkpt lat="47.78257" lon="-3.56411">
        <ele>40.599998474121</ele>
        <time>2019-08-15T08:40:33.000Z</time>
      </trkpt>
      <trkpt lat="47.78256" lon="-3.56415">
        <ele>40.599998474121</ele>
        <time>2019-08-15T08:40:34.000Z</time>
      </trkpt>
      <trkpt lat="47.7825" lon="-3.5644">
        <ele>40.200000762939</ele>
        <time>2019-08-15T08:40:38.000Z</time>
      </trkpt>
      <trkpt lat="47.7825" lon="-3.56444">
        <ele>40</ele>
        <time>2019-08-15T08:40:39.000Z</time>
      </trkpt>
      <trkpt lat="47.7825" lon="-3.56449">
        <ele>39.799999237061</ele>
        <time>2019-08-15T08:40:41.000Z</time>
      </trkpt>
      <trkpt lat="47.78244" lon="-3.56466">
        <ele>39.799999237061</ele>
        <time>2019-08-15T08:40:48.000Z</time>
      </trkpt>
      <trkpt lat="47.78241" lon="-3.56475">
        <ele>40</ele>
        <time>2019-08-15T08:40:50.000Z</time>
      </trkpt>
      <trkpt lat="47.7824" lon="-3.56478">
        <ele>40</ele>
        <time>2019-08-15T08:40:51.000Z</time>
      </trkpt>
      <trkpt lat="47.78238" lon="-3.56487">
        <ele>40.200000762939</ele>
        <time>2019-08-15T08:40:53.000Z</time>
      </trkpt>
      <trkpt lat="47.78233" lon="-3.5651">
        <ele>40</ele>
        <time>2019-08-15T08:40:56.000Z</time>
      </trkpt>
      <trkpt lat="47.78231" lon="-3.56514">
        <ele>40</ele>
        <time>2019-08-15T08:40:57.000Z</time>
      </trkpt>
      <trkpt lat="47.78229" lon="-3.56519">
        <ele>40.200000762939</ele>
        <time>2019-08-15T08:40:58.000Z</time>
      </trkpt>
      <trkpt lat="47.78228" lon="-3.56524">
        <ele>40</ele>
        <time>2019-08-15T08:40:59.000Z</time>
      </trkpt>
      <trkpt lat="47.78219" lon="-3.56556">
        <ele>40</ele>
        <time>2019-08-15T08:41:04.000Z</time>
      </trkpt>
      <trkpt lat="47.78218" lon="-3.56562">
        <ele>40</ele>
        <time>2019-08-15T08:41:05.000Z</time>
      </trkpt>
      <trkpt lat="47.78216" lon="-3.5657">
        <ele>40</ele>
        <time>2019-08-15T08:41:06.000Z</time>
      </trkpt>
      <trkpt lat="47.78215" lon="-3.56582">
        <ele>40.200000762939</ele>
        <time>2019-08-15T08:41:08.000Z</time>
      </trkpt>
      <trkpt lat="47.78215" lon="-3.56589">
        <ele>40.200000762939</ele>
        <time>2019-08-15T08:41:09.000Z</time>
      </trkpt>
      <trkpt lat="47.78216" lon="-3.56619">
        <ele>40.400001525879</ele>
        <time>2019-08-15T08:41:14.000Z</time>
      </trkpt>
      <trkpt lat="47.78213" lon="-3.56637">
        <ele>40.799999237061</ele>
        <time>2019-08-15T08:41:17.000Z</time>
      </trkpt>
      <trkpt lat="47.78212" lon="-3.56643">
        <ele>40.799999237061</ele>
        <time>2019-08-15T08:41:18.000Z</time>
      </trkpt>
      <trkpt lat="47.78211" lon="-3.56649">
        <ele>40.799999237061</ele>
        <time>2019-08-15T08:41:19.000Z</time>
      </trkpt>
      <trkpt lat="47.78207" lon="-3.56672">
        <ele>41.200000762939</ele>
        <time>2019-08-15T08:41:23.000Z</time>
      </trkpt>
      <trkpt lat="47.78206" lon="-3.5668">
        <ele>41.200000762939</ele>
        <time>2019-08-15T08:41:25.000Z</time>
      </trkpt>
      <trkpt lat="47.78205" lon="-3.56685">
        <ele>41.400001525879</ele>
        <time>2019-08-15T08:41:26.000Z</time>
      </trkpt>
      <trkpt lat="47.78204" lon="-3.5669">
        <ele>41.400001525879</ele>
        <time>2019-08-15T08:41:27.000Z</time>
      </trkpt>
      <trkpt lat="47.78203" lon="-3.56696">
        <ele>41.799999237061</ele>
        <time>2019-08-15T08:41:28.000Z</time>
      </trkpt>
      <trkpt lat="47.78202" lon="-3.56701">
        <ele>41.599998474121</ele>
        <time>2019-08-15T08:41:29.000Z</time>
      </trkpt>
      <trkpt lat="47.78201" lon="-3.56704">
        <ele>41.400001525879</ele>
        <time>2019-08-15T08:41:30.000Z</time>
      </trkpt>
      <trkpt lat="47.782" lon="-3.56713">
        <ele>41.799999237061</ele>
        <time>2019-08-15T08:41:32.000Z</time>
      </trkpt>
      <trkpt lat="47.78198" lon="-3.56718">
        <ele>42</ele>
        <time>2019-08-15T08:41:33.000Z</time>
      </trkpt>
      <trkpt lat="47.78198" lon="-3.56723">
        <ele>42</ele>
        <time>2019-08-15T08:41:34.000Z</time>
      </trkpt>
      <trkpt lat="47.78196" lon="-3.5673">
        <ele>42.200000762939</ele>
        <time>2019-08-15T08:41:36.000Z</time>
      </trkpt>
      <trkpt lat="47.78195" lon="-3.56735">
        <ele>42.400001525879</ele>
        <time>2019-08-15T08:41:37.000Z</time>
      </trkpt>
      <trkpt lat="47.78194" lon="-3.56739">
        <ele>42.400001525879</ele>
        <time>2019-08-15T08:41:38.000Z</time>
      </trkpt>
      <trkpt lat="47.78193" lon="-3.56744">
        <ele>42.400001525879</ele>
        <time>2019-08-15T08:41:39.000Z</time>
      </trkpt>
      <trkpt lat="47.78188" lon="-3.56769">
        <ele>43.599998474121</ele>
        <time>2019-08-15T08:41:45.000Z</time>
      </trkpt>
      <trkpt lat="47.78184" lon="-3.56781">
        <ele>43.799999237061</ele>
        <time>2019-08-15T08:41:48.000Z</time>
      </trkpt>
      <trkpt lat="47.7818" lon="-3.56793">
        <ele>44.400001525879</ele>
        <time>2019-08-15T08:41:52.000Z</time>
      </trkpt>
      <trkpt lat="47.78178" lon="-3.56797">
        <ele>44.599998474121</ele>
        <time>2019-08-15T08:41:53.000Z</time>
      </trkpt>
      <trkpt lat="47.78177" lon="-3.56799">
        <ele>45</ele>
        <time>2019-08-15T08:41:54.000Z</time>
      </trkpt>
      <trkpt lat="47.78174" lon="-3.56805">
        <ele>45.599998474121</ele>
        <time>2019-08-15T08:41:56.000Z</time>
      </trkpt>
      <trkpt lat="47.78171" lon="-3.56811">
        <ele>45.799999237061</ele>
        <time>2019-08-15T08:41:58.000Z</time>
      </trkpt>
      <trkpt lat="47.7817" lon="-3.56813">
        <ele>46</ele>
        <time>2019-08-15T08:41:59.000Z</time>
      </trkpt>
      <trkpt lat="47.78168" lon="-3.56816">
        <ele>46</ele>
        <time>2019-08-15T08:42:01.000Z</time>
      </trkpt>
      <trkpt lat="47.78169" lon="-3.56824">
        <ele>46.799999237061</ele>
        <time>2019-08-15T08:42:05.000Z</time>
      </trkpt>
      <trkpt lat="47.78176" lon="-3.56832">
        <ele>47</ele>
        <time>2019-08-15T08:42:08.000Z</time>
      </trkpt>
      <trkpt lat="47.78178" lon="-3.56834">
        <ele>47.200000762939</ele>
        <time>2019-08-15T08:42:09.000Z</time>
      </trkpt>
      <trkpt lat="47.78194" lon="-3.5686">
        <ele>48</ele>
        <time>2019-08-15T08:42:16.000Z</time>
      </trkpt>
      <trkpt lat="47.78202" lon="-3.56871">
        <ele>48.200000762939</ele>
        <time>2019-08-15T08:42:21.000Z</time>
      </trkpt>
      <trkpt lat="47.78202" lon="-3.5687">
        <ele>47.799999237061</ele>
        <time>2019-08-15T08:43:29.000Z</time>
      </trkpt>
      <trkpt lat="47.78202" lon="-3.5687">
        <ele>47.799999237061</ele>
        <time>2019-08-15T08:43:30.000Z</time>
      </trkpt>
      <trkpt lat="47.78205" lon="-3.56875">
        <ele>48</ele>
        <time>2019-08-15T08:43:37.000Z</time>
      </trkpt>
      <trkpt lat="47.78218" lon="-3.56894">
        <ele>48</ele>
        <time>2019-08-15T08:43:42.000Z</time>
      </trkpt>
      <trkpt lat="47.78226" lon="-3.56906">
        <ele>48.200000762939</ele>
        <time>2019-08-15T08:43:45.000Z</time>
      </trkpt>
      <trkpt lat="47.78233" lon="-3.56919">
        <ele>48.400001525879</ele>
        <time>2019-08-15T08:43:48.000Z</time>
      </trkpt>
      <trkpt lat="47.78236" lon="-3.56924">
        <ele>48.799999237061</ele>
        <time>2019-08-15T08:43:49.000Z</time>
      </trkpt>
      <trkpt lat="47.78244" lon="-3.56938">
        <ele>49.400001525879</ele>
        <time>2019-08-15T08:43:52.000Z</time>
      </trkpt>
      <trkpt lat="47.78254" lon="-3.56954">
        <ele>49.599998474121</ele>
        <time>2019-08-15T08:43:55.000Z</time>
      </trkpt>
      <trkpt lat="47.78272" lon="-3.56991">
        <ele>50.400001525879</ele>
        <time>2019-08-15T08:44:01.000Z</time>
      </trkpt>
      <trkpt lat="47.78291" lon="-3.57034">
        <ele>50.400001525879</ele>
        <time>2019-08-15T08:44:07.000Z</time>
      </trkpt>
      <trkpt lat="47.78296" lon="-3.57041">
        <ele>50.400001525879</ele>
        <time>2019-08-15T08:44:08.000Z</time>
      </trkpt>
      <trkpt lat="47.783" lon="-3.57048">
        <ele>50.400001525879</ele>
        <time>2019-08-15T08:44:09.000Z</time>
      </trkpt>
      <trkpt lat="47.78305" lon="-3.57064">
        <ele>50.400001525879</ele>
        <time>2019-08-15T08:44:11.000Z</time>
      </trkpt>
      <trkpt lat="47.78302" lon="-3.57081">
        <ele>50.400001525879</ele>
        <time>2019-08-15T08:44:13.000Z</time>
      </trkpt>
      <trkpt lat="47.78298" lon="-3.57087">
        <ele>50.200000762939</ele>
        <time>2019-08-15T08:44:14.000Z</time>
      </trkpt>
      <trkpt lat="47.78292" lon="-3.5709">
        <ele>50.200000762939</ele>
        <time>2019-08-15T08:44:15.000Z</time>
      </trkpt>
      <trkpt lat="47.78286" lon="-3.57089">
        <ele>50.200000762939</ele>
        <time>2019-08-15T08:44:16.000Z</time>
      </trkpt>
      <trkpt lat="47.7828" lon="-3.57085">
        <ele>50.200000762939</ele>
        <time>2019-08-15T08:44:17.000Z</time>
      </trkpt>
      <trkpt lat="47.7826" lon="-3.57075">
        <ele>50</ele>
        <time>2019-08-15T08:44:20.000Z</time>
      </trkpt>
      <trkpt lat="47.78221" lon="-3.57051">
        <ele>49</ele>
        <time>2019-08-15T08:44:26.000Z</time>
      </trkpt>
      <trkpt lat="47.78208" lon="-3.57041">
        <ele>49</ele>
        <time>2019-08-15T08:44:28.000Z</time>
      </trkpt>
      <trkpt lat="47.78191" lon="-3.57027">
        <ele>48.599998474121</ele>
        <time>2019-08-15T08:44:31.000Z</time>
      </trkpt>
      <trkpt lat="47.78186" lon="-3.57026">
        <ele>48.400001525879</ele>
        <time>2019-08-15T08:44:32.000Z</time>
      </trkpt>
      <trkpt lat="47.78178" lon="-3.5703">
        <ele>48.400001525879</ele>
        <time>2019-08-15T08:44:34.000Z</time>
      </trkpt>
      <trkpt lat="47.78176" lon="-3.57034">
        <ele>48.200000762939</ele>
        <time>2019-08-15T08:44:35.000Z</time>
      </trkpt>
      <trkpt lat="47.78164" lon="-3.57059">
        <ele>47.799999237061</ele>
        <time>2019-08-15T08:44:40.000Z</time>
      </trkpt>
      <trkpt lat="47.78161" lon="-3.57066">
        <ele>47.799999237061</ele>
        <time>2019-08-15T08:44:41.000Z</time>
      </trkpt>
      <trkpt lat="47.78138" lon="-3.57111">
        <ele>47.200000762939</ele>
        <time>2019-08-15T08:44:47.000Z</time>
      </trkpt>
      <trkpt lat="47.78126" lon="-3.57135">
        <ele>46.599998474121</ele>
        <time>2019-08-15T08:44:50.000Z</time>
      </trkpt>
      <trkpt lat="47.78122" lon="-3.57143">
        <ele>46.799999237061</ele>
        <time>2019-08-15T08:44:51.000Z</time>
      </trkpt>
      <trkpt lat="47.78118" lon="-3.57151">
        <ele>46.599998474121</ele>
        <time>2019-08-15T08:44:52.000Z</time>
      </trkpt>
      <trkpt lat="47.78112" lon="-3.57162">
        <ele>46.200000762939</ele>
        <time>2019-08-15T08:44:54.000Z</time>
      </trkpt>
      <trkpt lat="47.78109" lon="-3.57166">
        <ele>45.799999237061</ele>
        <time>2019-08-15T08:44:56.000Z</time>
      </trkpt>
      <trkpt lat="47.78108" lon="-3.57166">
        <ele>45.200000762939</ele>
        <time>2019-08-15T08:44:57.000Z</time>
      </trkpt>
      <trkpt lat="47.78109" lon="-3.57165">
        <ele>44.400001525879</ele>
        <time>2019-08-15T08:44:59.000Z</time>
      </trkpt>
      <trkpt lat="47.78113" lon="-3.57163">
        <ele>44.200000762939</ele>
        <time>2019-08-15T08:45:02.000Z</time>
      </trkpt>
      <trkpt lat="47.78115" lon="-3.57161">
        <ele>44</ele>
        <time>2019-08-15T08:45:03.000Z</time>
      </trkpt>
      <trkpt lat="47.78117" lon="-3.57155">
        <ele>44.200000762939</ele>
        <time>2019-08-15T08:45:05.000Z</time>
      </trkpt>
      <trkpt lat="47.78116" lon="-3.57153">
        <ele>44.200000762939</ele>
        <time>2019-08-15T08:45:06.000Z</time>
      </trkpt>
      <trkpt lat="47.78114" lon="-3.5715">
        <ele>44.200000762939</ele>
        <time>2019-08-15T08:45:07.000Z</time>
      </trkpt>
      <trkpt lat="47.78102" lon="-3.57141">
        <ele>44.400001525879</ele>
        <time>2019-08-15T08:45:11.000Z</time>
      </trkpt>
      <trkpt lat="47.78099" lon="-3.57139">
        <ele>44.599998474121</ele>
        <time>2019-08-15T08:45:12.000Z</time>
      </trkpt>
      <trkpt lat="47.78087" lon="-3.57131">
        <ele>44.599998474121</ele>
        <time>2019-08-15T08:45:15.000Z</time>
      </trkpt>
      <trkpt lat="47.78083" lon="-3.57128">
        <ele>44.599998474121</ele>
        <time>2019-08-15T08:45:16.000Z</time>
      </trkpt>
      <trkpt lat="47.78079" lon="-3.57125">
        <ele>44.599998474121</ele>
        <time>2019-08-15T08:45:17.000Z</time>
      </trkpt>
      <trkpt lat="47.78075" lon="-3.57123">
        <ele>44.799999237061</ele>
        <time>2019-08-15T08:45:18.000Z</time>
      </trkpt>
      <trkpt lat="47.78071" lon="-3.57121">
        <ele>44.799999237061</ele>
        <time>2019-08-15T08:45:19.000Z</time>
      </trkpt>
      <trkpt lat="47.78066" lon="-3.57119">
        <ele>44.799999237061</ele>
        <time>2019-08-15T08:45:20.000Z</time>
      </trkpt>
      <trkpt lat="47.78058" lon="-3.57115">
        <ele>44.599998474121</ele>
        <time>2019-08-15T08:45:22.000Z</time>
      </trkpt>
      <trkpt lat="47.78048" lon="-3.57111">
        <ele>44.200000762939</ele>
        <time>2019-08-15T08:45:24.000Z</time>
      </trkpt>
      <trkpt lat="47.7803" lon="-3.57102">
        <ele>44.200000762939</ele>
        <time>2019-08-15T08:45:27.000Z</time>
      </trkpt>
      <trkpt lat="47.78025" lon="-3.57098">
        <ele>44</ele>
        <time>2019-08-15T08:45:28.000Z</time>
      </trkpt>
      <trkpt lat="47.78019" lon="-3.57094">
        <ele>43.799999237061</ele>
        <time>2019-08-15T08:45:29.000Z</time>
      </trkpt>
      <trkpt lat="47.78013" lon="-3.57089">
        <ele>43.799999237061</ele>
        <time>2019-08-15T08:45:30.000Z</time>
      </trkpt>
      <trkpt lat="47.78007" lon="-3.57085">
        <ele>43.599998474121</ele>
        <time>2019-08-15T08:45:31.000Z</time>
      </trkpt>
      <trkpt lat="47.77995" lon="-3.57076">
        <ele>42.599998474121</ele>
        <time>2019-08-15T08:45:33.000Z</time>
      </trkpt>
      <trkpt lat="47.77983" lon="-3.57069">
        <ele>42</ele>
        <time>2019-08-15T08:45:35.000Z</time>
      </trkpt>
      <trkpt lat="47.77976" lon="-3.57067">
        <ele>41.599998474121</ele>
        <time>2019-08-15T08:45:36.000Z</time>
      </trkpt>
      <trkpt lat="47.77969" lon="-3.57064">
        <ele>41.400001525879</ele>
        <time>2019-08-15T08:45:37.000Z</time>
      </trkpt>
      <trkpt lat="47.77963" lon="-3.57062">
        <ele>41</ele>
        <time>2019-08-15T08:45:38.000Z</time>
      </trkpt>
      <trkpt lat="47.77949" lon="-3.5706">
        <ele>40.599998474121</ele>
        <time>2019-08-15T08:45:40.000Z</time>
      </trkpt>
      <trkpt lat="47.7793" lon="-3.57061">
        <ele>39.799999237061</ele>
        <time>2019-08-15T08:45:43.000Z</time>
      </trkpt>
      <trkpt lat="47.77899" lon="-3.57061">
        <ele>38.799999237061</ele>
        <time>2019-08-15T08:45:48.000Z</time>
      </trkpt>
      <trkpt lat="47.77894" lon="-3.57062">
        <ele>38.799999237061</ele>
        <time>2019-08-15T08:45:49.000Z</time>
      </trkpt>
      <trkpt lat="47.77889" lon="-3.57063">
        <ele>38.799999237061</ele>
        <time>2019-08-15T08:45:50.000Z</time>
      </trkpt>
      <trkpt lat="47.77884" lon="-3.57065">
        <ele>38.799999237061</ele>
        <time>2019-08-15T08:45:51.000Z</time>
      </trkpt>
      <trkpt lat="47.77876" lon="-3.57069">
        <ele>38.400001525879</ele>
        <time>2019-08-15T08:45:53.000Z</time>
      </trkpt>
      <trkpt lat="47.77868" lon="-3.57076">
        <ele>38</ele>
        <time>2019-08-15T08:45:55.000Z</time>
      </trkpt>
      <trkpt lat="47.77864" lon="-3.57079">
        <ele>38</ele>
        <time>2019-08-15T08:45:56.000Z</time>
      </trkpt>
      <trkpt lat="47.77854" lon="-3.57088">
        <ele>37.799999237061</ele>
        <time>2019-08-15T08:45:58.000Z</time>
      </trkpt>
      <trkpt lat="47.77849" lon="-3.57092">
        <ele>37.799999237061</ele>
        <time>2019-08-15T08:45:59.000Z</time>
      </trkpt>
      <trkpt lat="47.77819" lon="-3.57115">
        <ele>36.599998474121</ele>
        <time>2019-08-15T08:46:05.000Z</time>
      </trkpt>
      <trkpt lat="47.77814" lon="-3.5712">
        <ele>36.599998474121</ele>
        <time>2019-08-15T08:46:06.000Z</time>
      </trkpt>
      <trkpt lat="47.7781" lon="-3.57124">
        <ele>36.599998474121</ele>
        <time>2019-08-15T08:46:07.000Z</time>
      </trkpt>
      <trkpt lat="47.778" lon="-3.57129">
        <ele>36.599998474121</ele>
        <time>2019-08-15T08:46:10.000Z</time>
      </trkpt>
      <trkpt lat="47.77797" lon="-3.5713">
        <ele>36.599998474121</ele>
        <time>2019-08-15T08:46:11.000Z</time>
      </trkpt>
      <trkpt lat="47.77787" lon="-3.57132">
        <ele>36.200000762939</ele>
        <time>2019-08-15T08:46:14.000Z</time>
      </trkpt>
      <trkpt lat="47.77782" lon="-3.57133">
        <ele>36</ele>
        <time>2019-08-15T08:46:15.000Z</time>
      </trkpt>
      <trkpt lat="47.77773" lon="-3.57134">
        <ele>35.400001525879</ele>
        <time>2019-08-15T08:46:17.000Z</time>
      </trkpt>
      <trkpt lat="47.7777" lon="-3.57134">
        <ele>35.200000762939</ele>
        <time>2019-08-15T08:46:18.000Z</time>
      </trkpt>
      <trkpt lat="47.77766" lon="-3.57135">
        <ele>34.799999237061</ele>
        <time>2019-08-15T08:46:19.000Z</time>
      </trkpt>
      <trkpt lat="47.77756" lon="-3.57138">
        <ele>34.400001525879</ele>
        <time>2019-08-15T08:46:21.000Z</time>
      </trkpt>
      <trkpt lat="47.77752" lon="-3.57139">
        <ele>34.400001525879</ele>
        <time>2019-08-15T08:46:22.000Z</time>
      </trkpt>
      <trkpt lat="47.77746" lon="-3.57141">
        <ele>34.200000762939</ele>
        <time>2019-08-15T08:46:24.000Z</time>
      </trkpt>
      <trkpt lat="47.77743" lon="-3.57142">
        <ele>34</ele>
        <time>2019-08-15T08:46:25.000Z</time>
      </trkpt>
      <trkpt lat="47.77735" lon="-3.57144">
        <ele>33.799999237061</ele>
        <time>2019-08-15T08:46:27.000Z</time>
      </trkpt>
      <trkpt lat="47.77731" lon="-3.57144">
        <ele>33.599998474121</ele>
        <time>2019-08-15T08:46:28.000Z</time>
      </trkpt>
      <trkpt lat="47.7772" lon="-3.57144">
        <ele>33.400001525879</ele>
        <time>2019-08-15T08:46:30.000Z</time>
      </trkpt>
      <trkpt lat="47.77715" lon="-3.57143">
        <ele>33.400001525879</ele>
        <time>2019-08-15T08:46:31.000Z</time>
      </trkpt>
      <trkpt lat="47.7771" lon="-3.57142">
        <ele>33.400001525879</ele>
        <time>2019-08-15T08:46:32.000Z</time>
      </trkpt>
      <trkpt lat="47.77696" lon="-3.57139">
        <ele>32.799999237061</ele>
        <time>2019-08-15T08:46:35.000Z</time>
      </trkpt>
      <trkpt lat="47.77685" lon="-3.57131">
        <ele>32.599998474121</ele>
        <time>2019-08-15T08:46:39.000Z</time>
      </trkpt>
      <trkpt lat="47.7768" lon="-3.57127">
        <ele>32.200000762939</ele>
        <time>2019-08-15T08:46:41.000Z</time>
      </trkpt>
      <trkpt lat="47.77678" lon="-3.57125">
        <ele>32.200000762939</ele>
        <time>2019-08-15T08:46:42.000Z</time>
      </trkpt>
      <trkpt lat="47.77678" lon="-3.57122">
        <ele>32.200000762939</ele>
        <time>2019-08-15T08:46:43.000Z</time>
      </trkpt>
      <trkpt lat="47.77679" lon="-3.5712">
        <ele>32</ele>
        <time>2019-08-15T08:46:45.000Z</time>
      </trkpt>
      <trkpt lat="47.7768" lon="-3.57121">
        <ele>32</ele>
        <time>2019-08-15T08:46:46.000Z</time>
      </trkpt>
      <trkpt lat="47.77681" lon="-3.57134">
        <ele>32.200000762939</ele>
        <time>2019-08-15T08:46:49.000Z</time>
      </trkpt>
      <trkpt lat="47.77681" lon="-3.57145">
        <ele>32.200000762939</ele>
        <time>2019-08-15T08:46:51.000Z</time>
      </trkpt>
      <trkpt lat="47.77681" lon="-3.57151">
        <ele>32.200000762939</ele>
        <time>2019-08-15T08:46:52.000Z</time>
      </trkpt>
      <trkpt lat="47.77682" lon="-3.57157">
        <ele>32.400001525879</ele>
        <time>2019-08-15T08:46:53.000Z</time>
      </trkpt>
      <trkpt lat="47.77682" lon="-3.57169">
        <ele>32.599998474121</ele>
        <time>2019-08-15T08:46:55.000Z</time>
      </trkpt>
      <trkpt lat="47.77681" lon="-3.57194">
        <ele>33</ele>
        <time>2019-08-15T08:46:59.000Z</time>
      </trkpt>
      <trkpt lat="47.7768" lon="-3.57207">
        <ele>33.599998474121</ele>
        <time>2019-08-15T08:47:01.000Z</time>
      </trkpt>
      <trkpt lat="47.77679" lon="-3.57213">
        <ele>33.799999237061</ele>
        <time>2019-08-15T08:47:02.000Z</time>
      </trkpt>
      <trkpt lat="47.77671" lon="-3.5725">
        <ele>34.799999237061</ele>
        <time>2019-08-15T08:47:08.000Z</time>
      </trkpt>
      <trkpt lat="47.7766" lon="-3.57272">
        <ele>35.400001525879</ele>
        <time>2019-08-15T08:47:12.000Z</time>
      </trkpt>
      <trkpt lat="47.77656" lon="-3.57285">
        <ele>35.400001525879</ele>
        <time>2019-08-15T08:47:14.000Z</time>
      </trkpt>
      <trkpt lat="47.77653" lon="-3.57297">
        <ele>35.799999237061</ele>
        <time>2019-08-15T08:47:16.000Z</time>
      </trkpt>
      <trkpt lat="47.77646" lon="-3.57338">
        <ele>36.599998474121</ele>
        <time>2019-08-15T08:47:22.000Z</time>
      </trkpt>
      <trkpt lat="47.77643" lon="-3.57359">
        <ele>36.599998474121</ele>
        <time>2019-08-15T08:47:25.000Z</time>
      </trkpt>
      <trkpt lat="47.77642" lon="-3.57367">
        <ele>36.799999237061</ele>
        <time>2019-08-15T08:47:26.000Z</time>
      </trkpt>
      <trkpt lat="47.7764" lon="-3.57391">
        <ele>36.599998474121</ele>
        <time>2019-08-15T08:47:29.000Z</time>
      </trkpt>
      <trkpt lat="47.77638" lon="-3.57417">
        <ele>36.599998474121</ele>
        <time>2019-08-15T08:47:32.000Z</time>
      </trkpt>
      <trkpt lat="47.77637" lon="-3.57446">
        <ele>36.400001525879</ele>
        <time>2019-08-15T08:47:35.000Z</time>
      </trkpt>
      <trkpt lat="47.77635" lon="-3.57478">
        <ele>35.799999237061</ele>
        <time>2019-08-15T08:47:38.000Z</time>
      </trkpt>
      <trkpt lat="47.77632" lon="-3.5751">
        <ele>34.799999237061</ele>
        <time>2019-08-15T08:47:41.000Z</time>
      </trkpt>
      <trkpt lat="47.77631" lon="-3.57521">
        <ele>34.599998474121</ele>
        <time>2019-08-15T08:47:42.000Z</time>
      </trkpt>
      <trkpt lat="47.7763" lon="-3.57531">
        <ele>34.200000762939</ele>
        <time>2019-08-15T08:47:43.000Z</time>
      </trkpt>
      <trkpt lat="47.77625" lon="-3.57591">
        <ele>33.200000762939</ele>
        <time>2019-08-15T08:47:49.000Z</time>
      </trkpt>
      <trkpt lat="47.77624" lon="-3.576">
        <ele>33</ele>
        <time>2019-08-15T08:47:50.000Z</time>
      </trkpt>
      <trkpt lat="47.77622" lon="-3.57609">
        <ele>33</ele>
        <time>2019-08-15T08:47:51.000Z</time>
      </trkpt>
      <trkpt lat="47.77617" lon="-3.57625">
        <ele>32.799999237061</ele>
        <time>2019-08-15T08:47:53.000Z</time>
      </trkpt>
      <trkpt lat="47.77608" lon="-3.5764">
        <ele>32.799999237061</ele>
        <time>2019-08-15T08:47:55.000Z</time>
      </trkpt>
      <trkpt lat="47.77603" lon="-3.57645">
        <ele>32.799999237061</ele>
        <time>2019-08-15T08:47:56.000Z</time>
      </trkpt>
      <trkpt lat="47.77597" lon="-3.5765">
        <ele>32.799999237061</ele>
        <time>2019-08-15T08:47:57.000Z</time>
      </trkpt>
      <trkpt lat="47.77593" lon="-3.57655">
        <ele>32.799999237061</ele>
        <time>2019-08-15T08:47:58.000Z</time>
      </trkpt>
      <trkpt lat="47.77583" lon="-3.57667">
        <ele>32.799999237061</ele>
        <time>2019-08-15T08:48:00.000Z</time>
      </trkpt>
      <trkpt lat="47.77573" lon="-3.57676">
        <ele>32.799999237061</ele>
        <time>2019-08-15T08:48:02.000Z</time>
      </trkpt>
      <trkpt lat="47.77545" lon="-3.57697">
        <ele>32.599998474121</ele>
        <time>2019-08-15T08:48:07.000Z</time>
      </trkpt>
      <trkpt lat="47.77539" lon="-3.577">
        <ele>32.799999237061</ele>
        <time>2019-08-15T08:48:08.000Z</time>
      </trkpt>
      <trkpt lat="47.77497" lon="-3.57727">
        <ele>33.200000762939</ele>
        <time>2019-08-15T08:48:16.000Z</time>
      </trkpt>
      <trkpt lat="47.77486" lon="-3.57732">
        <ele>33.400001525879</ele>
        <time>2019-08-15T08:48:18.000Z</time>
      </trkpt>
      <trkpt lat="47.77465" lon="-3.5774">
        <ele>33.599998474121</ele>
        <time>2019-08-15T08:48:22.000Z</time>
      </trkpt>
      <trkpt lat="47.77454" lon="-3.57741">
        <ele>33.799999237061</ele>
        <time>2019-08-15T08:48:24.000Z</time>
      </trkpt>
      <trkpt lat="47.77416" lon="-3.57739">
        <ele>34.799999237061</ele>
        <time>2019-08-15T08:48:31.000Z</time>
      </trkpt>
      <trkpt lat="47.77378" lon="-3.57736">
        <ele>35.599998474121</ele>
        <time>2019-08-15T08:48:38.000Z</time>
      </trkpt>
      <trkpt lat="47.77373" lon="-3.57734">
        <ele>35.599998474121</ele>
        <time>2019-08-15T08:48:39.000Z</time>
      </trkpt>
      <trkpt lat="47.77368" lon="-3.5773">
        <ele>35.799999237061</ele>
        <time>2019-08-15T08:48:40.000Z</time>
      </trkpt>
      <trkpt lat="47.77346" lon="-3.57717">
        <ele>35.799999237061</ele>
        <time>2019-08-15T08:48:44.000Z</time>
      </trkpt>
      <trkpt lat="47.77341" lon="-3.57714">
        <ele>35.799999237061</ele>
        <time>2019-08-15T08:48:45.000Z</time>
      </trkpt>
      <trkpt lat="47.77317" lon="-3.57701">
        <ele>35.400001525879</ele>
        <time>2019-08-15T08:48:49.000Z</time>
      </trkpt>
      <trkpt lat="47.77303" lon="-3.57695">
        <ele>35</ele>
        <time>2019-08-15T08:48:51.000Z</time>
      </trkpt>
      <trkpt lat="47.77282" lon="-3.57684">
        <ele>34.400001525879</ele>
        <time>2019-08-15T08:48:54.000Z</time>
      </trkpt>
      <trkpt lat="47.77274" lon="-3.57681">
        <ele>34.400001525879</ele>
        <time>2019-08-15T08:48:55.000Z</time>
      </trkpt>
      <trkpt lat="47.77258" lon="-3.57675">
        <ele>34.200000762939</ele>
        <time>2019-08-15T08:48:57.000Z</time>
      </trkpt>
      <trkpt lat="47.7725" lon="-3.57673">
        <ele>34</ele>
        <time>2019-08-15T08:48:58.000Z</time>
      </trkpt>
      <trkpt lat="47.77242" lon="-3.57671">
        <ele>34</ele>
        <time>2019-08-15T08:48:59.000Z</time>
      </trkpt>
      <trkpt lat="47.77235" lon="-3.5767">
        <ele>33.799999237061</ele>
        <time>2019-08-15T08:49:00.000Z</time>
      </trkpt>
      <trkpt lat="47.77213" lon="-3.57668">
        <ele>33.799999237061</ele>
        <time>2019-08-15T08:49:03.000Z</time>
      </trkpt>
      <trkpt lat="47.77207" lon="-3.57667">
        <ele>33.599998474121</ele>
        <time>2019-08-15T08:49:04.000Z</time>
      </trkpt>
      <trkpt lat="47.772" lon="-3.57666">
        <ele>32.799999237061</ele>
        <time>2019-08-15T08:49:05.000Z</time>
      </trkpt>
      <trkpt lat="47.77179" lon="-3.57666">
        <ele>32.599998474121</ele>
        <time>2019-08-15T08:49:08.000Z</time>
      </trkpt>
      <trkpt lat="47.77174" lon="-3.57667">
        <ele>32.200000762939</ele>
        <time>2019-08-15T08:49:09.000Z</time>
      </trkpt>
      <trkpt lat="47.77169" lon="-3.5767">
        <ele>32.400001525879</ele>
        <time>2019-08-15T08:49:10.000Z</time>
      </trkpt>
      <trkpt lat="47.77163" lon="-3.57677">
        <ele>32.400001525879</ele>
        <time>2019-08-15T08:49:11.000Z</time>
      </trkpt>
      <trkpt lat="47.7716" lon="-3.57684">
        <ele>32.400001525879</ele>
        <time>2019-08-15T08:49:12.000Z</time>
      </trkpt>
      <trkpt lat="47.77157" lon="-3.57692">
        <ele>32.200000762939</ele>
        <time>2019-08-15T08:49:13.000Z</time>
      </trkpt>
      <trkpt lat="47.77153" lon="-3.57708">
        <ele>32.200000762939</ele>
        <time>2019-08-15T08:49:15.000Z</time>
      </trkpt>
      <trkpt lat="47.77145" lon="-3.57736">
        <ele>32.200000762939</ele>
        <time>2019-08-15T08:49:18.000Z</time>
      </trkpt>
      <trkpt lat="47.77138" lon="-3.57747">
        <ele>32.200000762939</ele>
        <time>2019-08-15T08:49:20.000Z</time>
      </trkpt>
      <trkpt lat="47.77131" lon="-3.57751">
        <ele>32.200000762939</ele>
        <time>2019-08-15T08:49:21.000Z</time>
      </trkpt>
      <trkpt lat="47.77101" lon="-3.57755">
        <ele>31.39999961853</ele>
        <time>2019-08-15T08:49:26.000Z</time>
      </trkpt>
      <trkpt lat="47.77084" lon="-3.57756">
        <ele>30.60000038147</ele>
        <time>2019-08-15T08:49:29.000Z</time>
      </trkpt>
      <trkpt lat="47.77059" lon="-3.57755">
        <ele>29.200000762939</ele>
        <time>2019-08-15T08:49:33.000Z</time>
      </trkpt>
      <trkpt lat="47.77042" lon="-3.57752">
        <ele>28.60000038147</ele>
        <time>2019-08-15T08:49:36.000Z</time>
      </trkpt>
      <trkpt lat="47.77034" lon="-3.57752">
        <ele>28</ele>
        <time>2019-08-15T08:49:38.000Z</time>
      </trkpt>
      <trkpt lat="47.77027" lon="-3.57753">
        <ele>27.39999961853</ele>
        <time>2019-08-15T08:49:40.000Z</time>
      </trkpt>
      <trkpt lat="47.77018" lon="-3.57753">
        <ele>26.39999961853</ele>
        <time>2019-08-15T08:49:42.000Z</time>
      </trkpt>
      <trkpt lat="47.77014" lon="-3.57754">
        <ele>26</ele>
        <time>2019-08-15T08:49:43.000Z</time>
      </trkpt>
      <trkpt lat="47.77009" lon="-3.57755">
        <ele>25.799999237061</ele>
        <time>2019-08-15T08:49:44.000Z</time>
      </trkpt>
      <trkpt lat="47.77005" lon="-3.57756">
        <ele>25.799999237061</ele>
        <time>2019-08-15T08:49:45.000Z</time>
      </trkpt>
      <trkpt lat="47.77" lon="-3.57757">
        <ele>25.200000762939</ele>
        <time>2019-08-15T08:49:46.000Z</time>
      </trkpt>
      <trkpt lat="47.76986" lon="-3.5776">
        <ele>24</ele>
        <time>2019-08-15T08:49:49.000Z</time>
      </trkpt>
      <trkpt lat="47.76982" lon="-3.57762">
        <ele>23.799999237061</ele>
        <time>2019-08-15T08:49:50.000Z</time>
      </trkpt>
      <trkpt lat="47.76972" lon="-3.57764">
        <ele>22.39999961853</ele>
        <time>2019-08-15T08:49:52.000Z</time>
      </trkpt>
      <trkpt lat="47.76967" lon="-3.57764">
        <ele>22.200000762939</ele>
        <time>2019-08-15T08:49:53.000Z</time>
      </trkpt>
      <trkpt lat="47.76951" lon="-3.57766">
        <ele>20.799999237061</ele>
        <time>2019-08-15T08:49:56.000Z</time>
      </trkpt>
      <trkpt lat="47.76932" lon="-3.57767">
        <ele>19</ele>
        <time>2019-08-15T08:50:00.000Z</time>
      </trkpt>
      <trkpt lat="47.76921" lon="-3.57766">
        <ele>17.799999237061</ele>
        <time>2019-08-15T08:50:04.000Z</time>
      </trkpt>
      <trkpt lat="47.76918" lon="-3.57763">
        <ele>17.60000038147</ele>
        <time>2019-08-15T08:50:05.000Z</time>
      </trkpt>
      <trkpt lat="47.76904" lon="-3.57753">
        <ele>17</ele>
        <time>2019-08-15T08:50:09.000Z</time>
      </trkpt>
      <trkpt lat="47.769" lon="-3.57752">
        <ele>17</ele>
        <time>2019-08-15T08:50:10.000Z</time>
      </trkpt>
      <trkpt lat="47.76896" lon="-3.57752">
        <ele>16.60000038147</ele>
        <time>2019-08-15T08:50:11.000Z</time>
      </trkpt>
      <trkpt lat="47.76893" lon="-3.57752">
        <ele>16</ele>
        <time>2019-08-15T08:50:12.000Z</time>
      </trkpt>
      <trkpt lat="47.76889" lon="-3.57752">
        <ele>15.800000190735</ele>
        <time>2019-08-15T08:50:13.000Z</time>
      </trkpt>
      <trkpt lat="47.76883" lon="-3.57754">
        <ele>15.199999809265</ele>
        <time>2019-08-15T08:50:15.000Z</time>
      </trkpt>
      <trkpt lat="47.76875" lon="-3.57759">
        <ele>13.60000038147</ele>
        <time>2019-08-15T08:50:18.000Z</time>
      </trkpt>
      <trkpt lat="47.7687" lon="-3.57763">
        <ele>12.800000190735</ele>
        <time>2019-08-15T08:50:20.000Z</time>
      </trkpt>
      <trkpt lat="47.76868" lon="-3.57766">
        <ele>12.199999809265</ele>
        <time>2019-08-15T08:50:21.000Z</time>
      </trkpt>
      <trkpt lat="47.76865" lon="-3.57773">
        <ele>11.800000190735</ele>
        <time>2019-08-15T08:50:23.000Z</time>
      </trkpt>
      <trkpt lat="47.76863" lon="-3.57776">
        <ele>11.800000190735</ele>
        <time>2019-08-15T08:50:24.000Z</time>
      </trkpt>
      <trkpt lat="47.76862" lon="-3.57777">
        <ele>11.60000038147</ele>
        <time>2019-08-15T08:50:25.000Z</time>
      </trkpt>
      <trkpt lat="47.76862" lon="-3.57778">
        <ele>11.199999809265</ele>
        <time>2019-08-15T08:50:27.000Z</time>
      </trkpt>
      <trkpt lat="47.76857" lon="-3.57786">
        <ele>9.3999996185303</ele>
        <time>2019-08-15T08:50:54.000Z</time>
      </trkpt>
      <trkpt lat="47.76851" lon="-3.57798">
        <ele>9</ele>
        <time>2019-08-15T08:50:59.000Z</time>
      </trkpt>
      <trkpt lat="47.76849" lon="-3.57806">
        <ele>8.1999998092651</ele>
        <time>2019-08-15T08:51:04.000Z</time>
      </trkpt>
      <trkpt lat="47.76849" lon="-3.57809">
        <ele>8.1999998092651</ele>
        <time>2019-08-15T08:51:06.000Z</time>
      </trkpt>
      <trkpt lat="47.7685" lon="-3.57822">
        <ele>7.4000000953674</ele>
        <time>2019-08-15T08:51:14.000Z</time>
      </trkpt>
      <trkpt lat="47.76852" lon="-3.57831">
        <ele>7.4000000953674</ele>
        <time>2019-08-15T08:51:17.000Z</time>
      </trkpt>
      <trkpt lat="47.76853" lon="-3.57837">
        <ele>7.1999998092651</ele>
        <time>2019-08-15T08:51:19.000Z</time>
      </trkpt>
      <trkpt lat="47.76854" lon="-3.57839">
        <ele>7</ele>
        <time>2019-08-15T08:51:20.000Z</time>
      </trkpt>
      <trkpt lat="47.76857" lon="-3.57847">
        <ele>6.4000000953674</ele>
        <time>2019-08-15T08:51:23.000Z</time>
      </trkpt>
      <trkpt lat="47.76859" lon="-3.5785">
        <ele>6.4000000953674</ele>
        <time>2019-08-15T08:51:24.000Z</time>
      </trkpt>
      <trkpt lat="47.76861" lon="-3.57851">
        <ele>5.8000001907349</ele>
        <time>2019-08-15T08:51:25.000Z</time>
      </trkpt>
      <trkpt lat="47.76863" lon="-3.57854">
        <ele>5.4000000953674</ele>
        <time>2019-08-15T08:51:26.000Z</time>
      </trkpt>
      <trkpt lat="47.76874" lon="-3.57861">
        <ele>3.7999999523163</ele>
        <time>2019-08-15T08:51:30.000Z</time>
      </trkpt>
      <trkpt lat="47.76883" lon="-3.57865">
        <ele>3</ele>
        <time>2019-08-15T08:51:33.000Z</time>
      </trkpt>
      <trkpt lat="47.76893" lon="-3.57868">
        <ele>2</ele>
        <time>2019-08-15T08:51:36.000Z</time>
      </trkpt>
      <trkpt lat="47.76897" lon="-3.57869">
        <ele>1.6000000238419</ele>
        <time>2019-08-15T08:51:37.000Z</time>
      </trkpt>
      <trkpt lat="47.76903" lon="-3.57874">
        <ele>1</ele>
        <time>2019-08-15T08:51:39.000Z</time>
      </trkpt>
      <trkpt lat="47.76905" lon="-3.57879">
        <ele>0.80000001192093</ele>
        <time>2019-08-15T08:51:40.000Z</time>
      </trkpt>
      <trkpt lat="47.76904" lon="-3.57898">
        <ele>0.40000000596046</ele>
        <time>2019-08-15T08:51:44.000Z</time>
      </trkpt>
      <trkpt lat="47.76901" lon="-3.57906">
        <ele>0.20000000298023</ele>
        <time>2019-08-15T08:51:46.000Z</time>
      </trkpt>
      <trkpt lat="47.769" lon="-3.57909">
        <ele>6.9</ele>
        <time>2019-08-15T08:51:47.000Z</time>
      </trkpt>
      <trkpt lat="47.76898" lon="-3.57912">
        <ele>0.20000000298023</ele>
        <time>2019-08-15T08:51:48.000Z</time>
      </trkpt>
      <trkpt lat="47.76895" lon="-3.57917">
        <ele>0.40000000596046</ele>
        <time>2019-08-15T08:51:50.000Z</time>
      </trkpt>
      <trkpt lat="47.76888" lon="-3.57929">
        <ele>1.2000000476837</ele>
        <time>2019-08-15T08:51:55.000Z</time>
      </trkpt>
      <trkpt lat="47.76885" lon="-3.57935">
        <ele>1.7999999523163</ele>
        <time>2019-08-15T08:51:57.000Z</time>
      </trkpt>
      <trkpt lat="47.76878" lon="-3.57942">
        <ele>2.7999999523163</ele>
        <time>2019-08-15T08:52:02.000Z</time>
      </trkpt>
      <trkpt lat="47.76876" lon="-3.57943">
        <ele>3</ele>
        <time>2019-08-15T08:52:03.000Z</time>
      </trkpt>
      <trkpt lat="47.76874" lon="-3.57944">
        <ele>3.2000000476837</ele>
        <time>2019-08-15T08:52:04.000Z</time>
      </trkpt>
      <trkpt lat="47.76872" lon="-3.57945">
        <ele>3.2000000476837</ele>
        <time>2019-08-15T08:52:05.000Z</time>
      </trkpt>
      <trkpt lat="47.76869" lon="-3.57947">
        <ele>3.4000000953674</ele>
        <time>2019-08-15T08:52:07.000Z</time>
      </trkpt>
      <trkpt lat="47.76867" lon="-3.57948">
        <ele>3.7999999523163</ele>
        <time>2019-08-15T08:52:08.000Z</time>
      </trkpt>
      <trkpt lat="47.76861" lon="-3.57951">
        <ele>4.5999999046326</ele>
        <time>2019-08-15T08:52:12.000Z</time>
      </trkpt>
      <trkpt lat="47.76858" lon="-3.57953">
        <ele>5.1999998092651</ele>
        <time>2019-08-15T08:52:14.000Z</time>
      </trkpt>
      <trkpt lat="47.7685" lon="-3.57957">
        <ele>6.1999998092651</ele>
        <time>2019-08-15T08:52:19.000Z</time>
      </trkpt>
      <trkpt lat="47.76847" lon="-3.5796">
        <ele>7.1999998092651</ele>
        <time>2019-08-15T08:52:21.000Z</time>
      </trkpt>
      <trkpt lat="47.76845" lon="-3.57962">
        <ele>7.8000001907349</ele>
        <time>2019-08-15T08:52:22.000Z</time>
      </trkpt>
      <trkpt lat="47.76839" lon="-3.57971">
        <ele>8.8000001907349</ele>
        <time>2019-08-15T08:52:26.000Z</time>
      </trkpt>
      <trkpt lat="47.76828" lon="-3.57982">
        <ele>11</ele>
        <time>2019-08-15T08:52:33.000Z</time>
      </trkpt>
      <trkpt lat="47.76827" lon="-3.57984">
        <ele>11.199999809265</ele>
        <time>2019-08-15T08:52:34.000Z</time>
      </trkpt>
      <trkpt lat="47.76827" lon="-3.57988">
        <ele>11.800000190735</ele>
        <time>2019-08-15T08:52:36.000Z</time>
      </trkpt>
      <trkpt lat="47.7683" lon="-3.57991">
        <ele>11.800000190735</ele>
        <time>2019-08-15T08:52:38.000Z</time>
      </trkpt>
      <trkpt lat="47.76843" lon="-3.57993">
        <ele>12.39999961853</ele>
        <time>2019-08-15T08:52:44.000Z</time>
      </trkpt>
      <trkpt lat="47.76845" lon="-3.57994">
        <ele>12.60000038147</ele>
        <time>2019-08-15T08:52:45.000Z</time>
      </trkpt>
      <trkpt lat="47.7685" lon="-3.57995">
        <ele>12.800000190735</ele>
        <time>2019-08-15T08:52:47.000Z</time>
      </trkpt>
      <trkpt lat="47.76865" lon="-3.57999">
        <ele>13.60000038147</ele>
        <time>2019-08-15T08:52:53.000Z</time>
      </trkpt>
      <trkpt lat="47.76876" lon="-3.58012">
        <ele>14.199999809265</ele>
        <time>2019-08-15T08:52:59.000Z</time>
      </trkpt>
      <trkpt lat="47.76878" lon="-3.58015">
        <ele>14</ele>
        <time>2019-08-15T08:53:00.000Z</time>
      </trkpt>
      <trkpt lat="47.76883" lon="-3.5802">
        <ele>14.39999961853</ele>
        <time>2019-08-15T08:53:03.000Z</time>
      </trkpt>
      <trkpt lat="47.7689" lon="-3.58025">
        <ele>15</ele>
        <time>2019-08-15T08:53:06.000Z</time>
      </trkpt>
      <trkpt lat="47.76892" lon="-3.58026">
        <ele>15.199999809265</ele>
        <time>2019-08-15T08:53:07.000Z</time>
      </trkpt>
      <trkpt lat="47.76903" lon="-3.58029">
        <ele>15.800000190735</ele>
        <time>2019-08-15T08:53:12.000Z</time>
      </trkpt>
      <trkpt lat="47.76908" lon="-3.58031">
        <ele>16.39999961853</ele>
        <time>2019-08-15T08:53:14.000Z</time>
      </trkpt>
      <trkpt lat="47.76918" lon="-3.58032">
        <ele>17</ele>
        <time>2019-08-15T08:53:18.000Z</time>
      </trkpt>
      <trkpt lat="47.76924" lon="-3.58032">
        <ele>17.60000038147</ele>
        <time>2019-08-15T08:53:21.000Z</time>
      </trkpt>
      <trkpt lat="47.76931" lon="-3.58034">
        <ele>18</ele>
        <time>2019-08-15T08:53:24.000Z</time>
      </trkpt>
      <trkpt lat="47.76942" lon="-3.58037">
        <ele>18.60000038147</ele>
        <time>2019-08-15T08:53:28.000Z</time>
      </trkpt>
      <trkpt lat="47.76955" lon="-3.5803">
        <ele>19</ele>
        <time>2019-08-15T08:53:33.000Z</time>
      </trkpt>
      <trkpt lat="47.76956" lon="-3.58027">
        <ele>19</ele>
        <time>2019-08-15T08:53:34.000Z</time>
      </trkpt>
      <trkpt lat="47.76963" lon="-3.58012">
        <ele>19</ele>
        <time>2019-08-15T08:53:38.000Z</time>
      </trkpt>
      <trkpt lat="47.76972" lon="-3.58004">
        <ele>19.200000762939</ele>
        <time>2019-08-15T08:53:42.000Z</time>
      </trkpt>
      <trkpt lat="47.76974" lon="-3.58002">
        <ele>19.200000762939</ele>
        <time>2019-08-15T08:53:43.000Z</time>
      </trkpt>
      <trkpt lat="47.76986" lon="-3.57995">
        <ele>20.60000038147</ele>
        <time>2019-08-15T08:53:49.000Z</time>
      </trkpt>
      <trkpt lat="47.76989" lon="-3.57993">
        <ele>21.200000762939</ele>
        <time>2019-08-15T08:53:51.000Z</time>
      </trkpt>
      <trkpt lat="47.76999" lon="-3.57991">
        <ele>22.200000762939</ele>
        <time>2019-08-15T08:53:55.000Z</time>
      </trkpt>
      <trkpt lat="47.77008" lon="-3.5799">
        <ele>23</ele>
        <time>2019-08-15T08:53:58.000Z</time>
      </trkpt>
      <trkpt lat="47.77015" lon="-3.57987">
        <ele>23.39999961853</ele>
        <time>2019-08-15T08:54:00.000Z</time>
      </trkpt>
      <trkpt lat="47.77021" lon="-3.57983">
        <ele>23.60000038147</ele>
        <time>2019-08-15T08:54:02.000Z</time>
      </trkpt>
      <trkpt lat="47.77031" lon="-3.57978">
        <ele>23.799999237061</ele>
        <time>2019-08-15T08:54:05.000Z</time>
      </trkpt>
      <trkpt lat="47.77033" lon="-3.57977">
        <ele>23.799999237061</ele>
        <time>2019-08-15T08:54:06.000Z</time>
      </trkpt>
      <trkpt lat="47.77036" lon="-3.57976">
        <ele>24</ele>
        <time>2019-08-15T08:54:07.000Z</time>
      </trkpt>
      <trkpt lat="47.7704" lon="-3.57977">
        <ele>24</ele>
        <time>2019-08-15T08:54:08.000Z</time>
      </trkpt>
      <trkpt lat="47.77043" lon="-3.57978">
        <ele>24</ele>
        <time>2019-08-15T08:54:09.000Z</time>
      </trkpt>
      <trkpt lat="47.77046" lon="-3.5798">
        <ele>23.799999237061</ele>
        <time>2019-08-15T08:54:10.000Z</time>
      </trkpt>
      <trkpt lat="47.7705" lon="-3.57983">
        <ele>23.799999237061</ele>
        <time>2019-08-15T08:54:11.000Z</time>
      </trkpt>
      <trkpt lat="47.77053" lon="-3.57985">
        <ele>23.60000038147</ele>
        <time>2019-08-15T08:54:12.000Z</time>
      </trkpt>
      <trkpt lat="47.77061" lon="-3.57993">
        <ele>23.799999237061</ele>
        <time>2019-08-15T08:54:15.000Z</time>
      </trkpt>
      <trkpt lat="47.77064" lon="-3.57995">
        <ele>23.799999237061</ele>
        <time>2019-08-15T08:54:16.000Z</time>
      </trkpt>
      <trkpt lat="47.77066" lon="-3.57997">
        <ele>23.60000038147</ele>
        <time>2019-08-15T08:54:17.000Z</time>
      </trkpt>
      <trkpt lat="47.77071" lon="-3.58001">
        <ele>23.60000038147</ele>
        <time>2019-08-15T08:54:19.000Z</time>
      </trkpt>
      <trkpt lat="47.77074" lon="-3.58002">
        <ele>23.60000038147</ele>
        <time>2019-08-15T08:54:20.000Z</time>
      </trkpt>
      <trkpt lat="47.7708" lon="-3.58006">
        <ele>23.799999237061</ele>
        <time>2019-08-15T08:54:22.000Z</time>
      </trkpt>
      <trkpt lat="47.77084" lon="-3.58009">
        <ele>24</ele>
        <time>2019-08-15T08:54:23.000Z</time>
      </trkpt>
      <trkpt lat="47.77088" lon="-3.58011">
        <ele>24.200000762939</ele>
        <time>2019-08-15T08:54:24.000Z</time>
      </trkpt>
      <trkpt lat="47.77095" lon="-3.58018">
        <ele>24</ele>
        <time>2019-08-15T08:54:26.000Z</time>
      </trkpt>
      <trkpt lat="47.77102" lon="-3.58023">
        <ele>24.200000762939</ele>
        <time>2019-08-15T08:54:28.000Z</time>
      </trkpt>
      <trkpt lat="47.7712" lon="-3.58039">
        <ele>24.799999237061</ele>
        <time>2019-08-15T08:54:34.000Z</time>
      </trkpt>
      <trkpt lat="47.77122" lon="-3.58042">
        <ele>24.799999237061</ele>
        <time>2019-08-15T08:54:35.000Z</time>
      </trkpt>
      <trkpt lat="47.7713" lon="-3.58048">
        <ele>25.39999961853</ele>
        <time>2019-08-15T08:54:38.000Z</time>
      </trkpt>
      <trkpt lat="47.77142" lon="-3.5806">
        <ele>26</ele>
        <time>2019-08-15T08:54:43.000Z</time>
      </trkpt>
      <trkpt lat="47.77145" lon="-3.58063">
        <ele>26.200000762939</ele>
        <time>2019-08-15T08:54:44.000Z</time>
      </trkpt>
      <trkpt lat="47.77147" lon="-3.58066">
        <ele>26.39999961853</ele>
        <time>2019-08-15T08:54:45.000Z</time>
      </trkpt>
      <trkpt lat="47.77153" lon="-3.58075">
        <ele>27</ele>
        <time>2019-08-15T08:54:48.000Z</time>
      </trkpt>
      <trkpt lat="47.77157" lon="-3.58082">
        <ele>27.200000762939</ele>
        <time>2019-08-15T08:54:50.000Z</time>
      </trkpt>
      <trkpt lat="47.77169" lon="-3.58103">
        <ele>28.39999961853</ele>
        <time>2019-08-15T08:54:56.000Z</time>
      </trkpt>
      <trkpt lat="47.77171" lon="-3.58107">
        <ele>28.60000038147</ele>
        <time>2019-08-15T08:54:57.000Z</time>
      </trkpt>
      <trkpt lat="47.77172" lon="-3.58111">
        <ele>28.799999237061</ele>
        <time>2019-08-15T08:54:58.000Z</time>
      </trkpt>
      <trkpt lat="47.77174" lon="-3.58114">
        <ele>28.799999237061</ele>
        <time>2019-08-15T08:54:59.000Z</time>
      </trkpt>
      <trkpt lat="47.77178" lon="-3.58122">
        <ele>29.200000762939</ele>
        <time>2019-08-15T08:55:01.000Z</time>
      </trkpt>
      <trkpt lat="47.77179" lon="-3.58126">
        <ele>29.39999961853</ele>
        <time>2019-08-15T08:55:02.000Z</time>
      </trkpt>
      <trkpt lat="47.77182" lon="-3.58134">
        <ele>29.60000038147</ele>
        <time>2019-08-15T08:55:04.000Z</time>
      </trkpt>
      <trkpt lat="47.77185" lon="-3.58142">
        <ele>29.799999237061</ele>
        <time>2019-08-15T08:55:06.000Z</time>
      </trkpt>
      <trkpt lat="47.77189" lon="-3.58158">
        <ele>30</ele>
        <time>2019-08-15T08:55:10.000Z</time>
      </trkpt>
      <trkpt lat="47.77189" lon="-3.58162">
        <ele>30.200000762939</ele>
        <time>2019-08-15T08:55:11.000Z</time>
      </trkpt>
      <trkpt lat="47.77183" lon="-3.5818">
        <ele>30.799999237061</ele>
        <time>2019-08-15T08:55:16.000Z</time>
      </trkpt>
      <trkpt lat="47.77178" lon="-3.58192">
        <ele>31.200000762939</ele>
        <time>2019-08-15T08:55:19.000Z</time>
      </trkpt>
      <trkpt lat="47.77177" lon="-3.58196">
        <ele>31.39999961853</ele>
        <time>2019-08-15T08:55:20.000Z</time>
      </trkpt>
      <trkpt lat="47.77176" lon="-3.58204">
        <ele>31.39999961853</ele>
        <time>2019-08-15T08:55:22.000Z</time>
      </trkpt>
      <trkpt lat="47.77176" lon="-3.58208">
        <ele>31.39999961853</ele>
        <time>2019-08-15T08:55:23.000Z</time>
      </trkpt>
      <trkpt lat="47.77179" lon="-3.58229">
        <ele>31.799999237061</ele>
        <time>2019-08-15T08:55:27.000Z</time>
      </trkpt>
      <trkpt lat="47.77179" lon="-3.58241">
        <ele>31.799999237061</ele>
        <time>2019-08-15T08:55:29.000Z</time>
      </trkpt>
      <trkpt lat="47.77178" lon="-3.58278">
        <ele>32</ele>
        <time>2019-08-15T08:55:35.000Z</time>
      </trkpt>
      <trkpt lat="47.77179" lon="-3.58284">
        <ele>32</ele>
        <time>2019-08-15T08:55:36.000Z</time>
      </trkpt>
      <trkpt lat="47.77181" lon="-3.58289">
        <ele>32.200000762939</ele>
        <time>2019-08-15T08:55:37.000Z</time>
      </trkpt>
      <trkpt lat="47.77187" lon="-3.58296">
        <ele>32</ele>
        <time>2019-08-15T08:55:39.000Z</time>
      </trkpt>
      <trkpt lat="47.77203" lon="-3.58307">
        <ele>32</ele>
        <time>2019-08-15T08:55:44.000Z</time>
      </trkpt>
      <trkpt lat="47.77207" lon="-3.58312">
        <ele>32</ele>
        <time>2019-08-15T08:55:46.000Z</time>
      </trkpt>
      <trkpt lat="47.77208" lon="-3.58316">
        <ele>32.200000762939</ele>
        <time>2019-08-15T08:55:47.000Z</time>
      </trkpt>
      <trkpt lat="47.77204" lon="-3.58322">
        <ele>32.200000762939</ele>
        <time>2019-08-15T08:55:49.000Z</time>
      </trkpt>
      <trkpt lat="47.77201" lon="-3.58326">
        <ele>32.200000762939</ele>
        <time>2019-08-15T08:55:50.000Z</time>
      </trkpt>
      <trkpt lat="47.77189" lon="-3.58338">
        <ele>32.400001525879</ele>
        <time>2019-08-15T08:55:53.000Z</time>
      </trkpt>
      <trkpt lat="47.77184" lon="-3.58342">
        <ele>32.200000762939</ele>
        <time>2019-08-15T08:55:54.000Z</time>
      </trkpt>
      <trkpt lat="47.77179" lon="-3.58345">
        <ele>32.200000762939</ele>
        <time>2019-08-15T08:55:55.000Z</time>
      </trkpt>
      <trkpt lat="47.77168" lon="-3.58353">
        <ele>32.200000762939</ele>
        <time>2019-08-15T08:55:57.000Z</time>
      </trkpt>
      <trkpt lat="47.77159" lon="-3.58365">
        <ele>31.799999237061</ele>
        <time>2019-08-15T08:55:59.000Z</time>
      </trkpt>
      <trkpt lat="47.77156" lon="-3.58372">
        <ele>31.60000038147</ele>
        <time>2019-08-15T08:56:00.000Z</time>
      </trkpt>
      <trkpt lat="47.77151" lon="-3.58388">
        <ele>31.60000038147</ele>
        <time>2019-08-15T08:56:02.000Z</time>
      </trkpt>
      <trkpt lat="47.77145" lon="-3.58404">
        <ele>31.200000762939</ele>
        <time>2019-08-15T08:56:04.000Z</time>
      </trkpt>
      <trkpt lat="47.77138" lon="-3.5842">
        <ele>31</ele>
        <time>2019-08-15T08:56:06.000Z</time>
      </trkpt>
      <trkpt lat="47.77135" lon="-3.58425">
        <ele>30.60000038147</ele>
        <time>2019-08-15T08:56:07.000Z</time>
      </trkpt>
      <trkpt lat="47.77131" lon="-3.58431">
        <ele>30.200000762939</ele>
        <time>2019-08-15T08:56:08.000Z</time>
      </trkpt>
      <trkpt lat="47.77117" lon="-3.5844">
        <ele>30</ele>
        <time>2019-08-15T08:56:10.000Z</time>
      </trkpt>
      <trkpt lat="47.7711" lon="-3.58442">
        <ele>29.200000762939</ele>
        <time>2019-08-15T08:56:11.000Z</time>
      </trkpt>
      <trkpt lat="47.77096" lon="-3.58444">
        <ele>28.60000038147</ele>
        <time>2019-08-15T08:56:13.000Z</time>
      </trkpt>
      <trkpt lat="47.77091" lon="-3.58442">
        <ele>28.39999961853</ele>
        <time>2019-08-15T08:56:14.000Z</time>
      </trkpt>
      <trkpt lat="47.77087" lon="-3.5844">
        <ele>28</ele>
        <time>2019-08-15T08:56:15.000Z</time>
      </trkpt>
      <trkpt lat="47.77081" lon="-3.58437">
        <ele>27.200000762939</ele>
        <time>2019-08-15T08:56:17.000Z</time>
      </trkpt>
      <trkpt lat="47.77077" lon="-3.58435">
        <ele>26.799999237061</ele>
        <time>2019-08-15T08:56:18.000Z</time>
      </trkpt>
      <trkpt lat="47.77073" lon="-3.58432">
        <ele>26.39999961853</ele>
        <time>2019-08-15T08:56:19.000Z</time>
      </trkpt>
      <trkpt lat="47.77064" lon="-3.58425">
        <ele>25.200000762939</ele>
        <time>2019-08-15T08:56:21.000Z</time>
      </trkpt>
      <trkpt lat="47.77061" lon="-3.58422">
        <ele>25</ele>
        <time>2019-08-15T08:56:22.000Z</time>
      </trkpt>
      <trkpt lat="47.77045" lon="-3.58411">
        <ele>24</ele>
        <time>2019-08-15T08:56:26.000Z</time>
      </trkpt>
      <trkpt lat="47.77034" lon="-3.58404">
        <ele>23.39999961853</ele>
        <time>2019-08-15T08:56:29.000Z</time>
      </trkpt>
      <trkpt lat="47.77031" lon="-3.58404">
        <ele>23.200000762939</ele>
        <time>2019-08-15T08:56:30.000Z</time>
      </trkpt>
      <trkpt lat="47.77028" lon="-3.58406">
        <ele>23.200000762939</ele>
        <time>2019-08-15T08:56:31.000Z</time>
      </trkpt>
      <trkpt lat="47.77026" lon="-3.58409">
        <ele>22.799999237061</ele>
        <time>2019-08-15T08:56:32.000Z</time>
      </trkpt>
      <trkpt lat="47.77024" lon="-3.58415">
        <ele>22.799999237061</ele>
        <time>2019-08-15T08:56:33.000Z</time>
      </trkpt>
      <trkpt lat="47.77023" lon="-3.58421">
        <ele>22.39999961853</ele>
        <time>2019-08-15T08:56:34.000Z</time>
      </trkpt>
      <trkpt lat="47.77019" lon="-3.58437">
        <ele>22.200000762939</ele>
        <time>2019-08-15T08:56:36.000Z</time>
      </trkpt>
      <trkpt lat="47.77018" lon="-3.58444">
        <ele>22</ele>
        <time>2019-08-15T08:56:37.000Z</time>
      </trkpt>
      <trkpt lat="47.77016" lon="-3.58451">
        <ele>21.799999237061</ele>
        <time>2019-08-15T08:56:38.000Z</time>
      </trkpt>
      <trkpt lat="47.77013" lon="-3.58457">
        <ele>21.200000762939</ele>
        <time>2019-08-15T08:56:39.000Z</time>
      </trkpt>
      <trkpt lat="47.77011" lon="-3.58464">
        <ele>20.799999237061</ele>
        <time>2019-08-15T08:56:40.000Z</time>
      </trkpt>
      <trkpt lat="47.77007" lon="-3.5847">
        <ele>20.60000038147</ele>
        <time>2019-08-15T08:56:41.000Z</time>
      </trkpt>
      <trkpt lat="47.77003" lon="-3.58476">
        <ele>20.200000762939</ele>
        <time>2019-08-15T08:56:42.000Z</time>
      </trkpt>
      <trkpt lat="47.76999" lon="-3.58481">
        <ele>19.799999237061</ele>
        <time>2019-08-15T08:56:43.000Z</time>
      </trkpt>
      <trkpt lat="47.76994" lon="-3.58485">
        <ele>19.60000038147</ele>
        <time>2019-08-15T08:56:44.000Z</time>
      </trkpt>
      <trkpt lat="47.7699" lon="-3.5849">
        <ele>19.200000762939</ele>
        <time>2019-08-15T08:56:45.000Z</time>
      </trkpt>
      <trkpt lat="47.76986" lon="-3.58496">
        <ele>18.200000762939</ele>
        <time>2019-08-15T08:56:46.000Z</time>
      </trkpt>
      <trkpt lat="47.76984" lon="-3.58502">
        <ele>18.200000762939</ele>
        <time>2019-08-15T08:56:47.000Z</time>
      </trkpt>
      <trkpt lat="47.76979" lon="-3.5852">
        <ele>16.200000762939</ele>
        <time>2019-08-15T08:56:50.000Z</time>
      </trkpt>
      <trkpt lat="47.76977" lon="-3.58532">
        <ele>15.60000038147</ele>
        <time>2019-08-15T08:56:52.000Z</time>
      </trkpt>
      <trkpt lat="47.76972" lon="-3.58552">
        <ele>14.199999809265</ele>
        <time>2019-08-15T08:56:56.000Z</time>
      </trkpt>
      <trkpt lat="47.76969" lon="-3.58559">
        <ele>13.39999961853</ele>
        <time>2019-08-15T08:56:59.000Z</time>
      </trkpt>
      <trkpt lat="47.76968" lon="-3.58559">
        <ele>13</ele>
        <time>2019-08-15T08:57:00.000Z</time>
      </trkpt>
      <trkpt lat="47.76965" lon="-3.58555">
        <ele>12.800000190735</ele>
        <time>2019-08-15T08:57:03.000Z</time>
      </trkpt>
      <trkpt lat="47.76964" lon="-3.58554">
        <ele>12.60000038147</ele>
        <time>2019-08-15T08:57:04.000Z</time>
      </trkpt>
      <trkpt lat="47.76958" lon="-3.58552">
        <ele>12.39999961853</ele>
        <time>2019-08-15T08:57:06.000Z</time>
      </trkpt>
      <trkpt lat="47.76955" lon="-3.5855">
        <ele>12.39999961853</ele>
        <time>2019-08-15T08:57:07.000Z</time>
      </trkpt>
      <trkpt lat="47.76947" lon="-3.58547">
        <ele>12.39999961853</ele>
        <time>2019-08-15T08:57:09.000Z</time>
      </trkpt>
      <trkpt lat="47.76933" lon="-3.58543">
        <ele>12.199999809265</ele>
        <time>2019-08-15T08:57:14.000Z</time>
      </trkpt>
      <trkpt lat="47.7693" lon="-3.58548">
        <ele>11.800000190735</ele>
        <time>2019-08-15T08:57:18.000Z</time>
      </trkpt>
      <trkpt lat="47.7693" lon="-3.58548">
        <ele>11.800000190735</ele>
        <time>2019-08-15T08:57:19.000Z</time>
      </trkpt>
      <trkpt lat="47.7693" lon="-3.58548">
        <ele>11.800000190735</ele>
        <time>2019-08-15T08:57:22.000Z</time>
      </trkpt>
      <trkpt lat="47.76931" lon="-3.58547">
        <ele>11.60000038147</ele>
        <time>2019-08-15T08:57:39.000Z</time>
      </trkpt>
      <trkpt lat="47.76933" lon="-3.58544">
        <ele>11.60000038147</ele>
        <time>2019-08-15T08:57:41.000Z</time>
      </trkpt>
      <trkpt lat="47.76934" lon="-3.58544">
        <ele>11.60000038147</ele>
        <time>2019-08-15T08:57:42.000Z</time>
      </trkpt>
      <trkpt lat="47.76936" lon="-3.58544">
        <ele>11.60000038147</ele>
        <time>2019-08-15T08:57:43.000Z</time>
      </trkpt>
      <trkpt lat="47.76938" lon="-3.58544">
        <ele>11.39999961853</ele>
        <time>2019-08-15T08:57:44.000Z</time>
      </trkpt>
      <trkpt lat="47.76941" lon="-3.58545">
        <ele>11.60000038147</ele>
        <time>2019-08-15T08:57:45.000Z</time>
      </trkpt>
      <trkpt lat="47.76944" lon="-3.58546">
        <ele>11.60000038147</ele>
        <time>2019-08-15T08:57:46.000Z</time>
      </trkpt>
      <trkpt lat="47.76958" lon="-3.58553">
        <ele>11.800000190735</ele>
        <time>2019-08-15T08:57:52.000Z</time>
      </trkpt>
      <trkpt lat="47.76967" lon="-3.58557">
        <ele>12.199999809265</ele>
        <time>2019-08-15T08:57:56.000Z</time>
      </trkpt>
      <trkpt lat="47.76968" lon="-3.58559">
        <ele>12.199999809265</ele>
        <time>2019-08-15T08:57:57.000Z</time>
      </trkpt>
      <trkpt lat="47.76968" lon="-3.58562">
        <ele>12.39999961853</ele>
        <time>2019-08-15T08:58:01.000Z</time>
      </trkpt>
      <trkpt lat="47.76967" lon="-3.58571">
        <ele>12.39999961853</ele>
        <time>2019-08-15T08:58:07.000Z</time>
      </trkpt>
      <trkpt lat="47.76966" lon="-3.58576">
        <ele>12.199999809265</ele>
        <time>2019-08-15T08:58:09.000Z</time>
      </trkpt>
      <trkpt lat="47.76966" lon="-3.58578">
        <ele>12.199999809265</ele>
        <time>2019-08-15T08:58:10.000Z</time>
      </trkpt>
      <trkpt lat="47.76966" lon="-3.5858">
        <ele>12</ele>
        <time>2019-08-15T08:58:11.000Z</time>
      </trkpt>
      <trkpt lat="47.76966" lon="-3.58585">
        <ele>11.60000038147</ele>
        <time>2019-08-15T08:58:13.000Z</time>
      </trkpt>
      <trkpt lat="47.76972" lon="-3.58601">
        <ele>10.800000190735</ele>
        <time>2019-08-15T08:58:19.000Z</time>
      </trkpt>
      <trkpt lat="47.76974" lon="-3.58603">
        <ele>10.60000038147</ele>
        <time>2019-08-15T08:58:20.000Z</time>
      </trkpt>
      <trkpt lat="47.76984" lon="-3.58613">
        <ele>10.199999809265</ele>
        <time>2019-08-15T08:58:24.000Z</time>
      </trkpt>
      <trkpt lat="47.76987" lon="-3.58618">
        <ele>9.8000001907349</ele>
        <time>2019-08-15T08:58:26.000Z</time>
      </trkpt>
      <trkpt lat="47.76994" lon="-3.58628">
        <ele>9</ele>
        <time>2019-08-15T08:58:29.000Z</time>
      </trkpt>
      <trkpt lat="47.76994" lon="-3.58632">
        <ele>9</ele>
        <time>2019-08-15T08:58:30.000Z</time>
      </trkpt>
      <trkpt lat="47.76994" lon="-3.58635">
        <ele>8.8000001907349</ele>
        <time>2019-08-15T08:58:31.000Z</time>
      </trkpt>
      <trkpt lat="47.76994" lon="-3.58639">
        <ele>9</ele>
        <time>2019-08-15T08:58:32.000Z</time>
      </trkpt>
      <trkpt lat="47.76993" lon="-3.58643">
        <ele>8.8000001907349</ele>
        <time>2019-08-15T08:58:33.000Z</time>
      </trkpt>
      <trkpt lat="47.76991" lon="-3.58646">
        <ele>8.8000001907349</ele>
        <time>2019-08-15T08:58:34.000Z</time>
      </trkpt>
      <trkpt lat="47.76984" lon="-3.5865">
        <ele>8.6000003814697</ele>
        <time>2019-08-15T08:58:37.000Z</time>
      </trkpt>
      <trkpt lat="47.76981" lon="-3.58652">
        <ele>8.6000003814697</ele>
        <time>2019-08-15T08:58:38.000Z</time>
      </trkpt>
      <trkpt lat="47.76979" lon="-3.58653">
        <ele>8.6000003814697</ele>
        <time>2019-08-15T08:58:39.000Z</time>
      </trkpt>
      <trkpt lat="47.76978" lon="-3.58653">
        <ele>8.6000003814697</ele>
        <time>2019-08-15T08:58:40.000Z</time>
      </trkpt>
      <trkpt lat="47.76976" lon="-3.58656">
        <ele>8.6000003814697</ele>
        <time>2019-08-15T08:58:42.000Z</time>
      </trkpt>
      <trkpt lat="47.76975" lon="-3.58658">
        <ele>8.6000003814697</ele>
        <time>2019-08-15T08:58:43.000Z</time>
      </trkpt>
      <trkpt lat="47.76974" lon="-3.5866">
        <ele>8.8000001907349</ele>
        <time>2019-08-15T08:58:44.000Z</time>
      </trkpt>
      <trkpt lat="47.76969" lon="-3.58668">
        <ele>9.8000001907349</ele>
        <time>2019-08-15T08:58:48.000Z</time>
      </trkpt>
      <trkpt lat="47.76966" lon="-3.58671">
        <ele>10</ele>
        <time>2019-08-15T08:58:49.000Z</time>
      </trkpt>
      <trkpt lat="47.76962" lon="-3.58676">
        <ele>10.60000038147</ele>
        <time>2019-08-15T08:58:51.000Z</time>
      </trkpt>
      <trkpt lat="47.7696" lon="-3.58681">
        <ele>10.800000190735</ele>
        <time>2019-08-15T08:58:52.000Z</time>
      </trkpt>
      <trkpt lat="47.76958" lon="-3.58685">
        <ele>10.800000190735</ele>
        <time>2019-08-15T08:58:53.000Z</time>
      </trkpt>
      <trkpt lat="47.76956" lon="-3.58689">
        <ele>11.199999809265</ele>
        <time>2019-08-15T08:58:54.000Z</time>
      </trkpt>
      <trkpt lat="47.76953" lon="-3.58697">
        <ele>11.199999809265</ele>
        <time>2019-08-15T08:58:56.000Z</time>
      </trkpt>
      <trkpt lat="47.76951" lon="-3.587">
        <ele>11.199999809265</ele>
        <time>2019-08-15T08:58:57.000Z</time>
      </trkpt>
      <trkpt lat="47.76949" lon="-3.58705">
        <ele>11.39999961853</ele>
        <time>2019-08-15T08:58:58.000Z</time>
      </trkpt>
      <trkpt lat="47.76947" lon="-3.58709">
        <ele>11.39999961853</ele>
        <time>2019-08-15T08:58:59.000Z</time>
      </trkpt>
      <trkpt lat="47.76945" lon="-3.58712">
        <ele>11.60000038147</ele>
        <time>2019-08-15T08:59:00.000Z</time>
      </trkpt>
      <trkpt lat="47.76943" lon="-3.58719">
        <ele>11.60000038147</ele>
        <time>2019-08-15T08:59:02.000Z</time>
      </trkpt>
      <trkpt lat="47.7694" lon="-3.58728">
        <ele>11.800000190735</ele>
        <time>2019-08-15T08:59:05.000Z</time>
      </trkpt>
      <trkpt lat="47.76938" lon="-3.58747">
        <ele>11.60000038147</ele>
        <time>2019-08-15T08:59:11.000Z</time>
      </trkpt>
      <trkpt lat="47.76937" lon="-3.58759">
        <ele>11.39999961853</ele>
        <time>2019-08-15T08:59:14.000Z</time>
      </trkpt>
      <trkpt lat="47.76937" lon="-3.58763">
        <ele>11.199999809265</ele>
        <time>2019-08-15T08:59:15.000Z</time>
      </trkpt>
      <trkpt lat="47.76936" lon="-3.58766">
        <ele>10.800000190735</ele>
        <time>2019-08-15T08:59:16.000Z</time>
      </trkpt>
      <trkpt lat="47.76932" lon="-3.58771">
        <ele>9.6000003814697</ele>
        <time>2019-08-15T08:59:18.000Z</time>
      </trkpt>
      <trkpt lat="47.76931" lon="-3.58774">
        <ele>9.1999998092651</ele>
        <time>2019-08-15T08:59:19.000Z</time>
      </trkpt>
      <trkpt lat="47.7693" lon="-3.58781">
        <ele>8.8000001907349</ele>
        <time>2019-08-15T08:59:21.000Z</time>
      </trkpt>
      <trkpt lat="47.76931" lon="-3.58784">
        <ele>8.6000003814697</ele>
        <time>2019-08-15T08:59:22.000Z</time>
      </trkpt>
      <trkpt lat="47.76932" lon="-3.58786">
        <ele>8.6000003814697</ele>
        <time>2019-08-15T08:59:26.000Z</time>
      </trkpt>
      <trkpt lat="47.76932" lon="-3.58786">
        <ele>8.8000001907349</ele>
        <time>2019-08-15T08:59:29.000Z</time>
      </trkpt>
      <trkpt lat="47.76933" lon="-3.58791">
        <ele>9</ele>
        <time>2019-08-15T08:59:34.000Z</time>
      </trkpt>
      <trkpt lat="47.76933" lon="-3.58794">
        <ele>9.1999998092651</ele>
        <time>2019-08-15T08:59:35.000Z</time>
      </trkpt>
      <trkpt lat="47.76934" lon="-3.58796">
        <ele>9.1999998092651</ele>
        <time>2019-08-15T08:59:36.000Z</time>
      </trkpt>
      <trkpt lat="47.76935" lon="-3.58799">
        <ele>9.3999996185303</ele>
        <time>2019-08-15T08:59:38.000Z</time>
      </trkpt>
      <trkpt lat="47.76936" lon="-3.588">
        <ele>9.6000003814697</ele>
        <time>2019-08-15T08:59:39.000Z</time>
      </trkpt>
      <trkpt lat="47.76937" lon="-3.58803">
        <ele>10</ele>
        <time>2019-08-15T08:59:41.000Z</time>
      </trkpt>
      <trkpt lat="47.76939" lon="-3.58809">
        <ele>10.800000190735</ele>
        <time>2019-08-15T08:59:46.000Z</time>
      </trkpt>
      <trkpt lat="47.76941" lon="-3.58821">
        <ele>12.39999961853</ele>
        <time>2019-08-15T08:59:53.000Z</time>
      </trkpt>
      <trkpt lat="47.76941" lon="-3.58823">
        <ele>12.39999961853</ele>
        <time>2019-08-15T08:59:54.000Z</time>
      </trkpt>
      <trkpt lat="47.76942" lon="-3.58832">
        <ele>13</ele>
        <time>2019-08-15T08:59:59.000Z</time>
      </trkpt>
      <trkpt lat="47.76942" lon="-3.58835">
        <ele>13.800000190735</ele>
        <time>2019-08-15T09:00:01.000Z</time>
      </trkpt>
      <trkpt lat="47.76942" lon="-3.58837">
        <ele>14.199999809265</ele>
        <time>2019-08-15T09:00:02.000Z</time>
      </trkpt>
      <trkpt lat="47.76942" lon="-3.58848">
        <ele>15.199999809265</ele>
        <time>2019-08-15T09:00:10.000Z</time>
      </trkpt>
      <trkpt lat="47.76942" lon="-3.58852">
        <ele>15.60000038147</ele>
        <time>2019-08-15T09:00:17.000Z</time>
      </trkpt>
      <trkpt lat="47.76942" lon="-3.58856">
        <ele>15.39999961853</ele>
        <time>2019-08-15T09:00:19.000Z</time>
      </trkpt>
      <trkpt lat="47.76943" lon="-3.58869">
        <ele>15.60000038147</ele>
        <time>2019-08-15T09:00:23.000Z</time>
      </trkpt>
      <trkpt lat="47.76947" lon="-3.58892">
        <ele>16.200000762939</ele>
        <time>2019-08-15T09:00:29.000Z</time>
      </trkpt>
      <trkpt lat="47.76948" lon="-3.58895">
        <ele>16.200000762939</ele>
        <time>2019-08-15T09:00:30.000Z</time>
      </trkpt>
      <trkpt lat="47.76949" lon="-3.58902">
        <ele>16.200000762939</ele>
        <time>2019-08-15T09:00:32.000Z</time>
      </trkpt>
      <trkpt lat="47.7695" lon="-3.58907">
        <ele>16.200000762939</ele>
        <time>2019-08-15T09:00:33.000Z</time>
      </trkpt>
      <trkpt lat="47.76955" lon="-3.58923">
        <ele>16.39999961853</ele>
        <time>2019-08-15T09:00:37.000Z</time>
      </trkpt>
      <trkpt lat="47.76965" lon="-3.58954">
        <ele>16.200000762939</ele>
        <time>2019-08-15T09:00:44.000Z</time>
      </trkpt>
      <trkpt lat="47.76972" lon="-3.58972">
        <ele>16.200000762939</ele>
        <time>2019-08-15T09:00:48.000Z</time>
      </trkpt>
      <trkpt lat="47.76977" lon="-3.58986">
        <ele>16</ele>
        <time>2019-08-15T09:00:51.000Z</time>
      </trkpt>
      <trkpt lat="47.76979" lon="-3.58991">
        <ele>16</ele>
        <time>2019-08-15T09:00:52.000Z</time>
      </trkpt>
      <trkpt lat="47.76981" lon="-3.58997">
        <ele>16</ele>
        <time>2019-08-15T09:00:53.000Z</time>
      </trkpt>
      <trkpt lat="47.76985" lon="-3.59007">
        <ele>16</ele>
        <time>2019-08-15T09:00:55.000Z</time>
      </trkpt>
      <trkpt lat="47.76995" lon="-3.59028">
        <ele>16</ele>
        <time>2019-08-15T09:01:00.000Z</time>
      </trkpt>
      <trkpt lat="47.76997" lon="-3.59036">
        <ele>16</ele>
        <time>2019-08-15T09:01:02.000Z</time>
      </trkpt>
      <trkpt lat="47.76999" lon="-3.59041">
        <ele>16</ele>
        <time>2019-08-15T09:01:03.000Z</time>
      </trkpt>
      <trkpt lat="47.77" lon="-3.59045">
        <ele>16</ele>
        <time>2019-08-15T09:01:04.000Z</time>
      </trkpt>
      <trkpt lat="47.77004" lon="-3.59056">
        <ele>15.800000190735</ele>
        <time>2019-08-15T09:01:06.000Z</time>
      </trkpt>
      <trkpt lat="47.77006" lon="-3.59061">
        <ele>15.800000190735</ele>
        <time>2019-08-15T09:01:07.000Z</time>
      </trkpt>
      <trkpt lat="47.77009" lon="-3.59068">
        <ele>15.800000190735</ele>
        <time>2019-08-15T09:01:08.000Z</time>
      </trkpt>
      <trkpt lat="47.77014" lon="-3.59078">
        <ele>15.60000038147</ele>
        <time>2019-08-15T09:01:10.000Z</time>
      </trkpt>
      <trkpt lat="47.77023" lon="-3.59091">
        <ele>14.800000190735</ele>
        <time>2019-08-15T09:01:13.000Z</time>
      </trkpt>
      <trkpt lat="47.77026" lon="-3.59095">
        <ele>14.800000190735</ele>
        <time>2019-08-15T09:01:14.000Z</time>
      </trkpt>
      <trkpt lat="47.77029" lon="-3.59098">
        <ele>14.800000190735</ele>
        <time>2019-08-15T09:01:15.000Z</time>
      </trkpt>
      <trkpt lat="47.77034" lon="-3.59102">
        <ele>14.800000190735</ele>
        <time>2019-08-15T09:01:17.000Z</time>
      </trkpt>
      <trkpt lat="47.77039" lon="-3.59107">
        <ele>14.800000190735</ele>
        <time>2019-08-15T09:01:19.000Z</time>
      </trkpt>
      <trkpt lat="47.77049" lon="-3.59114">
        <ele>15.39999961853</ele>
        <time>2019-08-15T09:01:24.000Z</time>
      </trkpt>
      <trkpt lat="47.7705" lon="-3.59115">
        <ele>15.199999809265</ele>
        <time>2019-08-15T09:01:25.000Z</time>
      </trkpt>
      <trkpt lat="47.77058" lon="-3.5912">
        <ele>16</ele>
        <time>2019-08-15T09:01:32.000Z</time>
      </trkpt>
      <trkpt lat="47.7706" lon="-3.5912">
        <ele>16</ele>
        <time>2019-08-15T09:01:34.000Z</time>
      </trkpt>
      <trkpt lat="47.77061" lon="-3.5912">
        <ele>16.200000762939</ele>
        <time>2019-08-15T09:01:35.000Z</time>
      </trkpt>
      <trkpt lat="47.77064" lon="-3.5912">
        <ele>16.200000762939</ele>
        <time>2019-08-15T09:01:37.000Z</time>
      </trkpt>
      <trkpt lat="47.77065" lon="-3.59121">
        <ele>16.200000762939</ele>
        <time>2019-08-15T09:01:39.000Z</time>
      </trkpt>
      <trkpt lat="47.77069" lon="-3.59121">
        <ele>16.39999961853</ele>
        <time>2019-08-15T09:01:41.000Z</time>
      </trkpt>
      <trkpt lat="47.77073" lon="-3.59121">
        <ele>16.799999237061</ele>
        <time>2019-08-15T09:01:45.000Z</time>
      </trkpt>
      <trkpt lat="47.77074" lon="-3.59121">
        <ele>16.799999237061</ele>
        <time>2019-08-15T09:01:46.000Z</time>
      </trkpt>
      <trkpt lat="47.77079" lon="-3.59123">
        <ele>17</ele>
        <time>2019-08-15T09:01:52.000Z</time>
      </trkpt>
      <trkpt lat="47.77081" lon="-3.59127">
        <ele>17</ele>
        <time>2019-08-15T09:01:53.000Z</time>
      </trkpt>
      <trkpt lat="47.77082" lon="-3.59133">
        <ele>17</ele>
        <time>2019-08-15T09:01:55.000Z</time>
      </trkpt>
      <trkpt lat="47.77081" lon="-3.59141">
        <ele>17</ele>
        <time>2019-08-15T09:01:57.000Z</time>
      </trkpt>
      <trkpt lat="47.77081" lon="-3.59148">
        <ele>17</ele>
        <time>2019-08-15T09:01:59.000Z</time>
      </trkpt>
      <trkpt lat="47.77081" lon="-3.59151">
        <ele>17.200000762939</ele>
        <time>2019-08-15T09:02:00.000Z</time>
      </trkpt>
      <trkpt lat="47.77081" lon="-3.59154">
        <ele>17.200000762939</ele>
        <time>2019-08-15T09:02:01.000Z</time>
      </trkpt>
      <trkpt lat="47.77081" lon="-3.5916">
        <ele>17.39999961853</ele>
        <time>2019-08-15T09:02:03.000Z</time>
      </trkpt>
      <trkpt lat="47.7708" lon="-3.5918">
        <ele>18.39999961853</ele>
        <time>2019-08-15T09:02:10.000Z</time>
      </trkpt>
      <trkpt lat="47.77078" lon="-3.59187">
        <ele>18.60000038147</ele>
        <time>2019-08-15T09:02:12.000Z</time>
      </trkpt>
      <trkpt lat="47.77079" lon="-3.5919">
        <ele>18.60000038147</ele>
        <time>2019-08-15T09:02:13.000Z</time>
      </trkpt>
      <trkpt lat="47.77078" lon="-3.59197">
        <ele>19</ele>
        <time>2019-08-15T09:02:15.000Z</time>
      </trkpt>
      <trkpt lat="47.77078" lon="-3.59209">
        <ele>19.799999237061</ele>
        <time>2019-08-15T09:02:19.000Z</time>
      </trkpt>
      <trkpt lat="47.77079" lon="-3.59211">
        <ele>19.799999237061</ele>
        <time>2019-08-15T09:02:20.000Z</time>
      </trkpt>
      <trkpt lat="47.77079" lon="-3.59214">
        <ele>19.799999237061</ele>
        <time>2019-08-15T09:02:21.000Z</time>
      </trkpt>
      <trkpt lat="47.77079" lon="-3.59217">
        <ele>19.799999237061</ele>
        <time>2019-08-15T09:02:22.000Z</time>
      </trkpt>
      <trkpt lat="47.77079" lon="-3.59221">
        <ele>20.200000762939</ele>
        <time>2019-08-15T09:02:24.000Z</time>
      </trkpt>
      <trkpt lat="47.77079" lon="-3.59227">
        <ele>20.39999961853</ele>
        <time>2019-08-15T09:02:26.000Z</time>
      </trkpt>
      <trkpt lat="47.77079" lon="-3.59234">
        <ele>20.60000038147</ele>
        <time>2019-08-15T09:02:29.000Z</time>
      </trkpt>
      <trkpt lat="47.7708" lon="-3.59237">
        <ele>21</ele>
        <time>2019-08-15T09:02:30.000Z</time>
      </trkpt>
      <trkpt lat="47.7708" lon="-3.59239">
        <ele>21.39999961853</ele>
        <time>2019-08-15T09:02:31.000Z</time>
      </trkpt>
      <trkpt lat="47.7708" lon="-3.59241">
        <ele>21.39999961853</ele>
        <time>2019-08-15T09:02:32.000Z</time>
      </trkpt>
      <trkpt lat="47.77076" lon="-3.59257">
        <ele>22.60000038147</ele>
        <time>2019-08-15T09:02:38.000Z</time>
      </trkpt>
      <trkpt lat="47.77075" lon="-3.59272">
        <ele>23.39999961853</ele>
        <time>2019-08-15T09:02:43.000Z</time>
      </trkpt>
      <trkpt lat="47.77072" lon="-3.59289">
        <ele>23.60000038147</ele>
        <time>2019-08-15T09:02:47.000Z</time>
      </trkpt>
      <trkpt lat="47.77071" lon="-3.59302">
        <ele>23.60000038147</ele>
        <time>2019-08-15T09:02:50.000Z</time>
      </trkpt>
      <trkpt lat="47.77071" lon="-3.5933">
        <ele>24</ele>
        <time>2019-08-15T09:02:56.000Z</time>
      </trkpt>
      <trkpt lat="47.7707" lon="-3.59348">
        <ele>24</ele>
        <time>2019-08-15T09:03:00.000Z</time>
      </trkpt>
      <trkpt lat="47.77069" lon="-3.59373">
        <ele>24.60000038147</ele>
        <time>2019-08-15T09:03:05.000Z</time>
      </trkpt>
      <trkpt lat="47.7707" lon="-3.59406">
        <ele>24.39999961853</ele>
        <time>2019-08-15T09:03:11.000Z</time>
      </trkpt>
      <trkpt lat="47.7707" lon="-3.59411">
        <ele>24.39999961853</ele>
        <time>2019-08-15T09:03:12.000Z</time>
      </trkpt>
      <trkpt lat="47.77072" lon="-3.59423">
        <ele>24.200000762939</ele>
        <time>2019-08-15T09:03:14.000Z</time>
      </trkpt>
      <trkpt lat="47.77072" lon="-3.59431">
        <ele>24.200000762939</ele>
        <time>2019-08-15T09:03:15.000Z</time>
      </trkpt>
      <trkpt lat="47.77073" lon="-3.59442">
        <ele>24</ele>
        <time>2019-08-15T09:03:17.000Z</time>
      </trkpt>
      <trkpt lat="47.77073" lon="-3.59447">
        <ele>23.799999237061</ele>
        <time>2019-08-15T09:03:18.000Z</time>
      </trkpt>
      <trkpt lat="47.77072" lon="-3.59455">
        <ele>23.60000038147</ele>
        <time>2019-08-15T09:03:19.000Z</time>
      </trkpt>
      <trkpt lat="47.77069" lon="-3.59466">
        <ele>23.39999961853</ele>
        <time>2019-08-15T09:03:21.000Z</time>
      </trkpt>
      <trkpt lat="47.77068" lon="-3.59473">
        <ele>23.39999961853</ele>
        <time>2019-08-15T09:03:22.000Z</time>
      </trkpt>
      <trkpt lat="47.77063" lon="-3.59492">
        <ele>22.60000038147</ele>
        <time>2019-08-15T09:03:25.000Z</time>
      </trkpt>
      <trkpt lat="47.77061" lon="-3.595">
        <ele>22.200000762939</ele>
        <time>2019-08-15T09:03:27.000Z</time>
      </trkpt>
      <trkpt lat="47.77058" lon="-3.59508">
        <ele>21.60000038147</ele>
        <time>2019-08-15T09:03:29.000Z</time>
      </trkpt>
      <trkpt lat="47.77056" lon="-3.59512">
        <ele>21.39999961853</ele>
        <time>2019-08-15T09:03:30.000Z</time>
      </trkpt>
      <trkpt lat="47.77053" lon="-3.59515">
        <ele>21.200000762939</ele>
        <time>2019-08-15T09:03:31.000Z</time>
      </trkpt>
      <trkpt lat="47.77045" lon="-3.59524">
        <ele>20.799999237061</ele>
        <time>2019-08-15T09:03:33.000Z</time>
      </trkpt>
      <trkpt lat="47.77037" lon="-3.59539">
        <ele>20.60000038147</ele>
        <time>2019-08-15T09:03:35.000Z</time>
      </trkpt>
      <trkpt lat="47.77034" lon="-3.59546">
        <ele>20.39999961853</ele>
        <time>2019-08-15T09:03:36.000Z</time>
      </trkpt>
      <trkpt lat="47.77032" lon="-3.59568">
        <ele>19.799999237061</ele>
        <time>2019-08-15T09:03:38.000Z</time>
      </trkpt>
      <trkpt lat="47.77033" lon="-3.59576">
        <ele>19.39999961853</ele>
        <time>2019-08-15T09:03:39.000Z</time>
      </trkpt>
      <trkpt lat="47.7704" lon="-3.59605">
        <ele>18.39999961853</ele>
        <time>2019-08-15T09:03:42.000Z</time>
      </trkpt>
      <trkpt lat="47.77046" lon="-3.59626">
        <ele>18</ele>
        <time>2019-08-15T09:03:44.000Z</time>
      </trkpt>
      <trkpt lat="47.77055" lon="-3.59655">
        <ele>17.200000762939</ele>
        <time>2019-08-15T09:03:47.000Z</time>
      </trkpt>
      <trkpt lat="47.77058" lon="-3.59666">
        <ele>17</ele>
        <time>2019-08-15T09:03:48.000Z</time>
      </trkpt>
      <trkpt lat="47.77062" lon="-3.59679">
        <ele>16.39999961853</ele>
        <time>2019-08-15T09:03:49.000Z</time>
      </trkpt>
      <trkpt lat="47.77064" lon="-3.59691">
        <ele>16</ele>
        <time>2019-08-15T09:03:50.000Z</time>
      </trkpt>
      <trkpt lat="47.77065" lon="-3.59701">
        <ele>15.199999809265</ele>
        <time>2019-08-15T09:03:51.000Z</time>
      </trkpt>
      <trkpt lat="47.77063" lon="-3.59714">
        <ele>14.60000038147</ele>
        <time>2019-08-15T09:03:52.000Z</time>
      </trkpt>
      <trkpt lat="47.77054" lon="-3.59742">
        <ele>13.39999961853</ele>
        <time>2019-08-15T09:03:55.000Z</time>
      </trkpt>
      <trkpt lat="47.77051" lon="-3.59748">
        <ele>13.39999961853</ele>
        <time>2019-08-15T09:03:56.000Z</time>
      </trkpt>
      <trkpt lat="47.77047" lon="-3.59762">
        <ele>13.199999809265</ele>
        <time>2019-08-15T09:03:59.000Z</time>
      </trkpt>
      <trkpt lat="47.77047" lon="-3.59767">
        <ele>13.199999809265</ele>
        <time>2019-08-15T09:04:00.000Z</time>
      </trkpt>
      <trkpt lat="47.77047" lon="-3.59773">
        <ele>13.199999809265</ele>
        <time>2019-08-15T09:04:01.000Z</time>
      </trkpt>
      <trkpt lat="47.77046" lon="-3.59779">
        <ele>13.800000190735</ele>
        <time>2019-08-15T09:04:04.000Z</time>
      </trkpt>
      <trkpt lat="47.77045" lon="-3.59783">
        <ele>13.39999961853</ele>
        <time>2019-08-15T09:05:17.000Z</time>
      </trkpt>
      <trkpt lat="47.77046" lon="-3.59789">
        <ele>13.39999961853</ele>
        <time>2019-08-15T09:05:19.000Z</time>
      </trkpt>
      <trkpt lat="47.77046" lon="-3.59794">
        <ele>13.39999961853</ele>
        <time>2019-08-15T09:05:20.000Z</time>
      </trkpt>
      <trkpt lat="47.77047" lon="-3.59799">
        <ele>13.60000038147</ele>
        <time>2019-08-15T09:05:21.000Z</time>
      </trkpt>
      <trkpt lat="47.77047" lon="-3.59804">
        <ele>13.60000038147</ele>
        <time>2019-08-15T09:05:22.000Z</time>
      </trkpt>
      <trkpt lat="47.77048" lon="-3.59808">
        <ele>13.60000038147</ele>
        <time>2019-08-15T09:05:23.000Z</time>
      </trkpt>
      <trkpt lat="47.77048" lon="-3.59813">
        <ele>13.60000038147</ele>
        <time>2019-08-15T09:05:24.000Z</time>
      </trkpt>
      <trkpt lat="47.77048" lon="-3.5983">
        <ele>13.199999809265</ele>
        <time>2019-08-15T09:05:28.000Z</time>
      </trkpt>
      <trkpt lat="47.77052" lon="-3.59842">
        <ele>12.199999809265</ele>
        <time>2019-08-15T09:05:33.000Z</time>
      </trkpt>
      <trkpt lat="47.77053" lon="-3.59843">
        <ele>12</ele>
        <time>2019-08-15T09:05:34.000Z</time>
      </trkpt>
      <trkpt lat="47.77067" lon="-3.59849">
        <ele>11.800000190735</ele>
        <time>2019-08-15T09:05:40.000Z</time>
      </trkpt>
      <trkpt lat="47.77069" lon="-3.59852">
        <ele>11.800000190735</ele>
        <time>2019-08-15T09:05:41.000Z</time>
      </trkpt>
      <trkpt lat="47.77071" lon="-3.59864">
        <ele>12.199999809265</ele>
        <time>2019-08-15T09:05:44.000Z</time>
      </trkpt>
      <trkpt lat="47.77074" lon="-3.59882">
        <ele>12.800000190735</ele>
        <time>2019-08-15T09:05:48.000Z</time>
      </trkpt>
      <trkpt lat="47.77075" lon="-3.59885">
        <ele>13</ele>
        <time>2019-08-15T09:05:49.000Z</time>
      </trkpt>
      <trkpt lat="47.77077" lon="-3.59892">
        <ele>13.199999809265</ele>
        <time>2019-08-15T09:05:51.000Z</time>
      </trkpt>
      <trkpt lat="47.7708" lon="-3.59921">
        <ele>13.800000190735</ele>
        <time>2019-08-15T09:05:58.000Z</time>
      </trkpt>
      <trkpt lat="47.77082" lon="-3.5995">
        <ele>14</ele>
        <time>2019-08-15T09:06:03.000Z</time>
      </trkpt>
      <trkpt lat="47.77088" lon="-3.5997">
        <ele>13.800000190735</ele>
        <time>2019-08-15T09:06:07.000Z</time>
      </trkpt>
      <trkpt lat="47.77096" lon="-3.5998">
        <ele>13.800000190735</ele>
        <time>2019-08-15T09:06:10.000Z</time>
      </trkpt>
      <trkpt lat="47.77103" lon="-3.5999">
        <ele>13.800000190735</ele>
        <time>2019-08-15T09:06:13.000Z</time>
      </trkpt>
      <trkpt lat="47.77119" lon="-3.60012">
        <ele>14.199999809265</ele>
        <time>2019-08-15T09:06:20.000Z</time>
      </trkpt>
      <trkpt lat="47.77122" lon="-3.60016">
        <ele>14.39999961853</ele>
        <time>2019-08-15T09:06:21.000Z</time>
      </trkpt>
      <trkpt lat="47.77125" lon="-3.60021">
        <ele>14.39999961853</ele>
        <time>2019-08-15T09:06:23.000Z</time>
      </trkpt>
      <trkpt lat="47.77135" lon="-3.60037">
        <ele>15.800000190735</ele>
        <time>2019-08-15T09:06:28.000Z</time>
      </trkpt>
      <trkpt lat="47.77137" lon="-3.60041">
        <ele>16.200000762939</ele>
        <time>2019-08-15T09:06:29.000Z</time>
      </trkpt>
      <trkpt lat="47.77147" lon="-3.6006">
        <ele>17</ele>
        <time>2019-08-15T09:06:34.000Z</time>
      </trkpt>
      <trkpt lat="47.77147" lon="-3.60065">
        <ele>17</ele>
        <time>2019-08-15T09:06:35.000Z</time>
      </trkpt>
      <trkpt lat="47.77146" lon="-3.60075">
        <ele>17.200000762939</ele>
        <time>2019-08-15T09:06:37.000Z</time>
      </trkpt>
      <trkpt lat="47.77145" lon="-3.6008">
        <ele>17.39999961853</ele>
        <time>2019-08-15T09:06:38.000Z</time>
      </trkpt>
      <trkpt lat="47.77143" lon="-3.60087">
        <ele>17.39999961853</ele>
        <time>2019-08-15T09:06:39.000Z</time>
      </trkpt>
      <trkpt lat="47.77142" lon="-3.60107">
        <ele>17.39999961853</ele>
        <time>2019-08-15T09:06:43.000Z</time>
      </trkpt>
      <trkpt lat="47.77141" lon="-3.6011">
        <ele>17.39999961853</ele>
        <time>2019-08-15T09:06:44.000Z</time>
      </trkpt>
      <trkpt lat="47.77141" lon="-3.60112">
        <ele>17</ele>
        <time>2019-08-15T09:06:45.000Z</time>
      </trkpt>
      <trkpt lat="47.7714" lon="-3.60111">
        <ele>17</ele>
        <time>2019-08-15T09:06:47.000Z</time>
      </trkpt>
      <trkpt lat="47.77142" lon="-3.60091">
        <ele>16</ele>
        <time>2019-08-15T09:06:53.000Z</time>
      </trkpt>
      <trkpt lat="47.77145" lon="-3.60068">
        <ele>15.800000190735</ele>
        <time>2019-08-15T09:06:59.000Z</time>
      </trkpt>
      <trkpt lat="47.77146" lon="-3.60065">
        <ele>16</ele>
        <time>2019-08-15T09:07:00.000Z</time>
      </trkpt>
      <trkpt lat="47.77146" lon="-3.60061">
        <ele>16.39999961853</ele>
        <time>2019-08-15T09:07:04.000Z</time>
      </trkpt>
      <trkpt lat="47.77145" lon="-3.60064">
        <ele>17</ele>
        <time>2019-08-15T09:07:10.000Z</time>
      </trkpt>
      <trkpt lat="47.77146" lon="-3.60067">
        <ele>17</ele>
        <time>2019-08-15T09:07:11.000Z</time>
      </trkpt>
      <trkpt lat="47.77145" lon="-3.60074">
        <ele>17.200000762939</ele>
        <time>2019-08-15T09:07:13.000Z</time>
      </trkpt>
      <trkpt lat="47.77144" lon="-3.60079">
        <ele>17</ele>
        <time>2019-08-15T09:07:14.000Z</time>
      </trkpt>
      <trkpt lat="47.77144" lon="-3.60084">
        <ele>16.799999237061</ele>
        <time>2019-08-15T09:07:15.000Z</time>
      </trkpt>
      <trkpt lat="47.77142" lon="-3.60094">
        <ele>16.799999237061</ele>
        <time>2019-08-15T09:07:17.000Z</time>
      </trkpt>
      <trkpt lat="47.77141" lon="-3.60106">
        <ele>16.799999237061</ele>
        <time>2019-08-15T09:07:19.000Z</time>
      </trkpt>
      <trkpt lat="47.77141" lon="-3.60112">
        <ele>16.60000038147</ele>
        <time>2019-08-15T09:07:20.000Z</time>
      </trkpt>
      <trkpt lat="47.77141" lon="-3.60136">
        <ele>16.39999961853</ele>
        <time>2019-08-15T09:07:24.000Z</time>
      </trkpt>
      <trkpt lat="47.77141" lon="-3.60141">
        <ele>16.39999961853</ele>
        <time>2019-08-15T09:07:25.000Z</time>
      </trkpt>
      <trkpt lat="47.77142" lon="-3.60146">
        <ele>16.39999961853</ele>
        <time>2019-08-15T09:07:26.000Z</time>
      </trkpt>
      <trkpt lat="47.77143" lon="-3.60165">
        <ele>16.200000762939</ele>
        <time>2019-08-15T09:07:30.000Z</time>
      </trkpt>
      <trkpt lat="47.77143" lon="-3.6017">
        <ele>16.200000762939</ele>
        <time>2019-08-15T09:07:31.000Z</time>
      </trkpt>
      <trkpt lat="47.77143" lon="-3.60176">
        <ele>16.200000762939</ele>
        <time>2019-08-15T09:07:32.000Z</time>
      </trkpt>
      <trkpt lat="47.77144" lon="-3.60189">
        <ele>16</ele>
        <time>2019-08-15T09:07:34.000Z</time>
      </trkpt>
      <trkpt lat="47.77145" lon="-3.60195">
        <ele>15.800000190735</ele>
        <time>2019-08-15T09:07:35.000Z</time>
      </trkpt>
      <trkpt lat="47.77146" lon="-3.60202">
        <ele>15.800000190735</ele>
        <time>2019-08-15T09:07:36.000Z</time>
      </trkpt>
      <trkpt lat="47.77149" lon="-3.60232">
        <ele>15.39999961853</ele>
        <time>2019-08-15T09:07:40.000Z</time>
      </trkpt>
      <trkpt lat="47.77151" lon="-3.60246">
        <ele>15.199999809265</ele>
        <time>2019-08-15T09:07:42.000Z</time>
      </trkpt>
      <trkpt lat="47.77151" lon="-3.60252">
        <ele>15</ele>
        <time>2019-08-15T09:07:43.000Z</time>
      </trkpt>
      <trkpt lat="47.77151" lon="-3.60259">
        <ele>14.60000038147</ele>
        <time>2019-08-15T09:07:44.000Z</time>
      </trkpt>
      <trkpt lat="47.77151" lon="-3.60282">
        <ele>14.60000038147</ele>
        <time>2019-08-15T09:07:48.000Z</time>
      </trkpt>
      <trkpt lat="47.77152" lon="-3.60287">
        <ele>14.800000190735</ele>
        <time>2019-08-15T09:07:49.000Z</time>
      </trkpt>
      <trkpt lat="47.77152" lon="-3.60292">
        <ele>15</ele>
        <time>2019-08-15T09:07:50.000Z</time>
      </trkpt>
      <trkpt lat="47.77152" lon="-3.60302">
        <ele>15.199999809265</ele>
        <time>2019-08-15T09:07:52.000Z</time>
      </trkpt>
      <trkpt lat="47.77153" lon="-3.60336">
        <ele>16</ele>
        <time>2019-08-15T09:07:58.000Z</time>
      </trkpt>
      <trkpt lat="47.77153" lon="-3.60342">
        <ele>16.200000762939</ele>
        <time>2019-08-15T09:07:59.000Z</time>
      </trkpt>
      <trkpt lat="47.77154" lon="-3.60355">
        <ele>16.200000762939</ele>
        <time>2019-08-15T09:08:01.000Z</time>
      </trkpt>
      <trkpt lat="47.77154" lon="-3.60361">
        <ele>16.200000762939</ele>
        <time>2019-08-15T09:08:02.000Z</time>
      </trkpt>
      <trkpt lat="47.77154" lon="-3.60374">
        <ele>16.200000762939</ele>
        <time>2019-08-15T09:08:04.000Z</time>
      </trkpt>
      <trkpt lat="47.77156" lon="-3.60385">
        <ele>16.39999961853</ele>
        <time>2019-08-15T09:08:06.000Z</time>
      </trkpt>
      <trkpt lat="47.77163" lon="-3.60394">
        <ele>16.200000762939</ele>
        <time>2019-08-15T09:08:09.000Z</time>
      </trkpt>
      <trkpt lat="47.77179" lon="-3.60392">
        <ele>16.39999961853</ele>
        <time>2019-08-15T09:08:14.000Z</time>
      </trkpt>
      <trkpt lat="47.77188" lon="-3.60391">
        <ele>16.60000038147</ele>
        <time>2019-08-15T09:08:17.000Z</time>
      </trkpt>
      <trkpt lat="47.77193" lon="-3.6039">
        <ele>17</ele>
        <time>2019-08-15T09:08:20.000Z</time>
      </trkpt>
      <trkpt lat="47.77202" lon="-3.60388">
        <ele>17.39999961853</ele>
        <time>2019-08-15T09:08:26.000Z</time>
      </trkpt>
      <trkpt lat="47.77204" lon="-3.60388">
        <ele>17.39999961853</ele>
        <time>2019-08-15T09:08:27.000Z</time>
      </trkpt>
      <trkpt lat="47.77206" lon="-3.60392">
        <ele>17.60000038147</ele>
        <time>2019-08-15T09:08:29.000Z</time>
      </trkpt>
      <trkpt lat="47.77204" lon="-3.60393">
        <ele>17.60000038147</ele>
        <time>2019-08-15T09:08:30.000Z</time>
      </trkpt>
      <trkpt lat="47.77192" lon="-3.60401">
        <ele>18</ele>
        <time>2019-08-15T09:08:34.000Z</time>
      </trkpt>
      <trkpt lat="47.77183" lon="-3.60414">
        <ele>18</ele>
        <time>2019-08-15T09:08:37.000Z</time>
      </trkpt>
      <trkpt lat="47.77178" lon="-3.60427">
        <ele>17.799999237061</ele>
        <time>2019-08-15T09:08:39.000Z</time>
      </trkpt>
      <trkpt lat="47.77176" lon="-3.60441">
        <ele>17.799999237061</ele>
        <time>2019-08-15T09:08:41.000Z</time>
      </trkpt>
      <trkpt lat="47.77176" lon="-3.60456">
        <ele>17.39999961853</ele>
        <time>2019-08-15T09:08:43.000Z</time>
      </trkpt>
      <trkpt lat="47.77179" lon="-3.60483">
        <ele>16.799999237061</ele>
        <time>2019-08-15T09:08:48.000Z</time>
      </trkpt>
      <trkpt lat="47.77175" lon="-3.60484">
        <ele>16.39999961853</ele>
        <time>2019-08-15T09:08:51.000Z</time>
      </trkpt>
      <trkpt lat="47.77175" lon="-3.60479">
        <ele>16.39999961853</ele>
        <time>2019-08-15T09:08:52.000Z</time>
      </trkpt>
      <trkpt lat="47.77174" lon="-3.6046">
        <ele>16.200000762939</ele>
        <time>2019-08-15T09:08:56.000Z</time>
      </trkpt>
      <trkpt lat="47.77174" lon="-3.60441">
        <ele>16.200000762939</ele>
        <time>2019-08-15T09:09:00.000Z</time>
      </trkpt>
      <trkpt lat="47.77172" lon="-3.60438">
        <ele>16.39999961853</ele>
        <time>2019-08-15T09:09:01.000Z</time>
      </trkpt>
      <trkpt lat="47.77167" lon="-3.60438">
        <ele>16.200000762939</ele>
        <time>2019-08-15T09:09:03.000Z</time>
      </trkpt>
      <trkpt lat="47.77163" lon="-3.60441">
        <ele>16.200000762939</ele>
        <time>2019-08-15T09:09:04.000Z</time>
      </trkpt>
      <trkpt lat="47.77159" lon="-3.60445">
        <ele>16.39999961853</ele>
        <time>2019-08-15T09:09:05.000Z</time>
      </trkpt>
      <trkpt lat="47.77149" lon="-3.60466">
        <ele>16.200000762939</ele>
        <time>2019-08-15T09:09:08.000Z</time>
      </trkpt>
      <trkpt lat="47.77146" lon="-3.60473">
        <ele>16</ele>
        <time>2019-08-15T09:09:09.000Z</time>
      </trkpt>
      <trkpt lat="47.77135" lon="-3.60498">
        <ele>15</ele>
        <time>2019-08-15T09:09:12.000Z</time>
      </trkpt>
      <trkpt lat="47.77131" lon="-3.60506">
        <ele>15</ele>
        <time>2019-08-15T09:09:13.000Z</time>
      </trkpt>
      <trkpt lat="47.77127" lon="-3.60514">
        <ele>14.800000190735</ele>
        <time>2019-08-15T09:09:14.000Z</time>
      </trkpt>
      <trkpt lat="47.77116" lon="-3.60533">
        <ele>14.199999809265</ele>
        <time>2019-08-15T09:09:17.000Z</time>
      </trkpt>
      <trkpt lat="47.77113" lon="-3.60541">
        <ele>13.800000190735</ele>
        <time>2019-08-15T09:09:18.000Z</time>
      </trkpt>
      <trkpt lat="47.77111" lon="-3.60549">
        <ele>13.39999961853</ele>
        <time>2019-08-15T09:09:19.000Z</time>
      </trkpt>
      <trkpt lat="47.77108" lon="-3.60566">
        <ele>12.800000190735</ele>
        <time>2019-08-15T09:09:21.000Z</time>
      </trkpt>
      <trkpt lat="47.771" lon="-3.60613">
        <ele>11.800000190735</ele>
        <time>2019-08-15T09:09:26.000Z</time>
      </trkpt>
      <trkpt lat="47.77097" lon="-3.60633">
        <ele>11.60000038147</ele>
        <time>2019-08-15T09:09:28.000Z</time>
      </trkpt>
      <trkpt lat="47.77092" lon="-3.60661">
        <ele>11.39999961853</ele>
        <time>2019-08-15T09:09:31.000Z</time>
      </trkpt>
      <trkpt lat="47.77091" lon="-3.6067">
        <ele>11</ele>
        <time>2019-08-15T09:09:32.000Z</time>
      </trkpt>
      <trkpt lat="47.77087" lon="-3.60696">
        <ele>10.199999809265</ele>
        <time>2019-08-15T09:09:35.000Z</time>
      </trkpt>
      <trkpt lat="47.77086" lon="-3.60704">
        <ele>10.199999809265</ele>
        <time>2019-08-15T09:09:36.000Z</time>
      </trkpt>
      <trkpt lat="47.77085" lon="-3.60711">
        <ele>9.8000001907349</ele>
        <time>2019-08-15T09:09:37.000Z</time>
      </trkpt>
      <trkpt lat="47.77083" lon="-3.60726">
        <ele>9</ele>
        <time>2019-08-15T09:09:39.000Z</time>
      </trkpt>
      <trkpt lat="47.77083" lon="-3.60743">
        <ele>7.8000001907349</ele>
        <time>2019-08-15T09:09:42.000Z</time>
      </trkpt>
      <trkpt lat="47.77084" lon="-3.60747">
        <ele>7.8000001907349</ele>
        <time>2019-08-15T09:09:43.000Z</time>
      </trkpt>
      <trkpt lat="47.77087" lon="-3.60751">
        <ele>7.4000000953674</ele>
        <time>2019-08-15T09:09:44.000Z</time>
      </trkpt>
      <trkpt lat="47.77091" lon="-3.60754">
        <ele>7.4000000953674</ele>
        <time>2019-08-15T09:09:45.000Z</time>
      </trkpt>
      <trkpt lat="47.77096" lon="-3.60758">
        <ele>7.1999998092651</ele>
        <time>2019-08-15T09:09:46.000Z</time>
      </trkpt>
      <trkpt lat="47.77106" lon="-3.6077">
        <ele>6.4000000953674</ele>
        <time>2019-08-15T09:09:48.000Z</time>
      </trkpt>
      <trkpt lat="47.77118" lon="-3.60794">
        <ele>4.8000001907349</ele>
        <time>2019-08-15T09:09:52.000Z</time>
      </trkpt>
      <trkpt lat="47.77128" lon="-3.60813">
        <ele>4.1999998092651</ele>
        <time>2019-08-15T09:09:57.000Z</time>
      </trkpt>
      <trkpt lat="47.77137" lon="-3.60819">
        <ele>4.4000000953674</ele>
        <time>2019-08-15T09:10:01.000Z</time>
      </trkpt>
      <trkpt lat="47.77138" lon="-3.60819">
        <ele>4.4000000953674</ele>
        <time>2019-08-15T09:10:02.000Z</time>
      </trkpt>
      <trkpt lat="47.77138" lon="-3.60819">
        <ele>4.1999998092651</ele>
        <time>2019-08-15T09:10:37.000Z</time>
      </trkpt>
      <trkpt lat="47.77138" lon="-3.60819">
        <ele>4.4000000953674</ele>
        <time>2019-08-15T09:10:38.000Z</time>
      </trkpt>
      <trkpt lat="47.77143" lon="-3.60816">
        <ele>4.1999998092651</ele>
        <time>2019-08-15T09:10:45.000Z</time>
      </trkpt>
      <trkpt lat="47.77154" lon="-3.60812">
        <ele>4.1999998092651</ele>
        <time>2019-08-15T09:10:49.000Z</time>
      </trkpt>
      <trkpt lat="47.77164" lon="-3.60816">
        <ele>4.1999998092651</ele>
        <time>2019-08-15T09:10:52.000Z</time>
      </trkpt>
      <trkpt lat="47.7717" lon="-3.60819">
        <ele>4.4000000953674</ele>
        <time>2019-08-15T09:10:54.000Z</time>
      </trkpt>
      <trkpt lat="47.77187" lon="-3.60832">
        <ele>5.5999999046326</ele>
        <time>2019-08-15T09:11:00.000Z</time>
      </trkpt>
      <trkpt lat="47.77202" lon="-3.60842">
        <ele>5.8000001907349</ele>
        <time>2019-08-15T09:11:06.000Z</time>
      </trkpt>
      <trkpt lat="47.77206" lon="-3.60844">
        <ele>6</ele>
        <time>2019-08-15T09:11:08.000Z</time>
      </trkpt>
      <trkpt lat="47.77211" lon="-3.60843">
        <ele>5.8000001907349</ele>
        <time>2019-08-15T09:11:11.000Z</time>
      </trkpt>
      <trkpt lat="47.7721" lon="-3.60844">
        <ele>5</ele>
        <time>2019-08-15T09:11:16.000Z</time>
      </trkpt>
      <trkpt lat="47.77207" lon="-3.60841">
        <ele>5</ele>
        <time>2019-08-15T09:20:30.000Z</time>
      </trkpt>
      <trkpt lat="47.77209" lon="-3.60839">
        <ele>5</ele>
        <time>2019-08-15T09:20:31.000Z</time>
      </trkpt>
      <trkpt lat="47.77212" lon="-3.60836">
        <ele>5</ele>
        <time>2019-08-15T09:20:32.000Z</time>
      </trkpt>
      <trkpt lat="47.77216" lon="-3.60834">
        <ele>4.8000001907349</ele>
        <time>2019-08-15T09:20:33.000Z</time>
      </trkpt>
      <trkpt lat="47.77229" lon="-3.60829">
        <ele>4.8000001907349</ele>
        <time>2019-08-15T09:20:36.000Z</time>
      </trkpt>
      <trkpt lat="47.77233" lon="-3.60828">
        <ele>4.5999999046326</ele>
        <time>2019-08-15T09:20:37.000Z</time>
      </trkpt>
      <trkpt lat="47.77242" lon="-3.60824">
        <ele>4.4000000953674</ele>
        <time>2019-08-15T09:20:39.000Z</time>
      </trkpt>
      <trkpt lat="47.77255" lon="-3.60818">
        <ele>3.7999999523163</ele>
        <time>2019-08-15T09:20:42.000Z</time>
      </trkpt>
      <trkpt lat="47.7726" lon="-3.60817">
        <ele>3.7999999523163</ele>
        <time>2019-08-15T09:20:43.000Z</time>
      </trkpt>
      <trkpt lat="47.77276" lon="-3.60813">
        <ele>3.4000000953674</ele>
        <time>2019-08-15T09:20:46.000Z</time>
      </trkpt>
      <trkpt lat="47.77287" lon="-3.60808">
        <ele>3.2000000476837</ele>
        <time>2019-08-15T09:20:48.000Z</time>
      </trkpt>
      <trkpt lat="47.77293" lon="-3.60806">
        <ele>3.2000000476837</ele>
        <time>2019-08-15T09:20:49.000Z</time>
      </trkpt>
      <trkpt lat="47.77305" lon="-3.608">
        <ele>2.7999999523163</ele>
        <time>2019-08-15T09:20:51.000Z</time>
      </trkpt>
      <trkpt lat="47.77317" lon="-3.60791">
        <ele>1.6000000238419</ele>
        <time>2019-08-15T09:20:53.000Z</time>
      </trkpt>
      <trkpt lat="47.77323" lon="-3.60786">
        <ele>1</ele>
        <time>2019-08-15T09:20:54.000Z</time>
      </trkpt>
      <trkpt lat="47.77337" lon="-3.60775">
        <ele>0.20000000298023</ele>
        <time>2019-08-15T09:20:56.000Z</time>
      </trkpt>
      <trkpt lat="47.77354" lon="-3.60756">
        <ele>-0.60000002384186</ele>
        <time>2019-08-15T09:20:59.000Z</time>
      </trkpt>
      <trkpt lat="47.77359" lon="-3.60749">
        <ele>-1</ele>
        <time>2019-08-15T09:21:00.000Z</time>
      </trkpt>
      <trkpt lat="47.77366" lon="-3.60735">
        <ele>-1.2000000476837</ele>
        <time>2019-08-15T09:21:02.000Z</time>
      </trkpt>
      <trkpt lat="47.77372" lon="-3.60718">
        <ele>-1.3999999761581</ele>
        <time>2019-08-15T09:21:04.000Z</time>
      </trkpt>
      <trkpt lat="47.77375" lon="-3.60701">
        <ele>-1.6000000238419</ele>
        <time>2019-08-15T09:21:06.000Z</time>
      </trkpt>
      <trkpt lat="47.77377" lon="-3.60692">
        <ele>-1.6000000238419</ele>
        <time>2019-08-15T09:21:07.000Z</time>
      </trkpt>
      <trkpt lat="47.77378" lon="-3.60684">
        <ele>-1.6000000238419</ele>
        <time>2019-08-15T09:21:08.000Z</time>
      </trkpt>
      <trkpt lat="47.77383" lon="-3.60662">
        <ele>-1.6000000238419</ele>
        <time>2019-08-15T09:21:11.000Z</time>
      </trkpt>
      <trkpt lat="47.77385" lon="-3.60656">
        <ele>-1.6000000238419</ele>
        <time>2019-08-15T09:21:12.000Z</time>
      </trkpt>
      <trkpt lat="47.77387" lon="-3.60652">
        <ele>-1.6000000238419</ele>
        <time>2019-08-15T09:21:13.000Z</time>
      </trkpt>
      <trkpt lat="47.77387" lon="-3.6065">
        <ele>-1.6000000238419</ele>
        <time>2019-08-15T09:21:14.000Z</time>
      </trkpt>
      <trkpt lat="47.77388" lon="-3.60649">
        <ele>-1.6000000238419</ele>
        <time>2019-08-15T09:21:15.000Z</time>
      </trkpt>
      <trkpt lat="47.77388" lon="-3.60649">
        <ele>-2.2000000476837</ele>
        <time>2019-08-15T09:21:38.000Z</time>
      </trkpt>
      <trkpt lat="47.77388" lon="-3.60649">
        <ele>-2</ele>
        <time>2019-08-15T09:21:42.000Z</time>
      </trkpt>
      <trkpt lat="47.77389" lon="-3.60632">
        <ele>-1.7999999523163</ele>
        <time>2019-08-15T09:21:47.000Z</time>
      </trkpt>
      <trkpt lat="47.77391" lon="-3.60622">
        <ele>-1.7999999523163</ele>
        <time>2019-08-15T09:21:49.000Z</time>
      </trkpt>
      <trkpt lat="47.77397" lon="-3.60602">
        <ele>-1.7999999523163</ele>
        <time>2019-08-15T09:21:52.000Z</time>
      </trkpt>
      <trkpt lat="47.77404" lon="-3.60587">
        <ele>-2</ele>
        <time>2019-08-15T09:21:54.000Z</time>
      </trkpt>
      <trkpt lat="47.77411" lon="-3.60573">
        <ele>-2</ele>
        <time>2019-08-15T09:21:56.000Z</time>
      </trkpt>
      <trkpt lat="47.77416" lon="-3.60558">
        <ele>-1.7999999523163</ele>
        <time>2019-08-15T09:21:58.000Z</time>
      </trkpt>
      <trkpt lat="47.77425" lon="-3.60528">
        <ele>-1.6000000238419</ele>
        <time>2019-08-15T09:22:02.000Z</time>
      </trkpt>
      <trkpt lat="47.77427" lon="-3.6052">
        <ele>-1.6000000238419</ele>
        <time>2019-08-15T09:22:03.000Z</time>
      </trkpt>
      <trkpt lat="47.77433" lon="-3.60505">
        <ele>-1.6000000238419</ele>
        <time>2019-08-15T09:22:05.000Z</time>
      </trkpt>
      <trkpt lat="47.77437" lon="-3.60499">
        <ele>-1.6000000238419</ele>
        <time>2019-08-15T09:22:06.000Z</time>
      </trkpt>
      <trkpt lat="47.77441" lon="-3.60493">
        <ele>-1.6000000238419</ele>
        <time>2019-08-15T09:22:07.000Z</time>
      </trkpt>
      <trkpt lat="47.77446" lon="-3.60489">
        <ele>-1.6000000238419</ele>
        <time>2019-08-15T09:22:08.000Z</time>
      </trkpt>
      <trkpt lat="47.77451" lon="-3.60485">
        <ele>-1.6000000238419</ele>
        <time>2019-08-15T09:22:09.000Z</time>
      </trkpt>
      <trkpt lat="47.77457" lon="-3.60483">
        <ele>-1.6000000238419</ele>
        <time>2019-08-15T09:22:10.000Z</time>
      </trkpt>
      <trkpt lat="47.77462" lon="-3.60481">
        <ele>-1.6000000238419</ele>
        <time>2019-08-15T09:22:11.000Z</time>
      </trkpt>
      <trkpt lat="47.77485" lon="-3.60474">
        <ele>-1.6000000238419</ele>
        <time>2019-08-15T09:22:15.000Z</time>
      </trkpt>
      <trkpt lat="47.77515" lon="-3.60455">
        <ele>-2.2000000476837</ele>
        <time>2019-08-15T09:22:21.000Z</time>
      </trkpt>
      <trkpt lat="47.77523" lon="-3.60449">
        <ele>-2.2000000476837</ele>
        <time>2019-08-15T09:22:23.000Z</time>
      </trkpt>
      <trkpt lat="47.77529" lon="-3.60442">
        <ele>-1.6000000238419</ele>
        <time>2019-08-15T09:22:25.000Z</time>
      </trkpt>
      <trkpt lat="47.77532" lon="-3.60438">
        <ele>-1.6000000238419</ele>
        <time>2019-08-15T09:22:26.000Z</time>
      </trkpt>
      <trkpt lat="47.77534" lon="-3.60434">
        <ele>-1.3999999761581</ele>
        <time>2019-08-15T09:22:27.000Z</time>
      </trkpt>
      <trkpt lat="47.77537" lon="-3.6043">
        <ele>-1.2000000476837</ele>
        <time>2019-08-15T09:22:28.000Z</time>
      </trkpt>
      <trkpt lat="47.7755" lon="-3.60403">
        <ele>0.40000000596046</ele>
        <time>2019-08-15T09:22:33.000Z</time>
      </trkpt>
      <trkpt lat="47.77553" lon="-3.60397">
        <ele>0.80000001192093</ele>
        <time>2019-08-15T09:22:34.000Z</time>
      </trkpt>
      <trkpt lat="47.77557" lon="-3.60392">
        <ele>0.80000001192093</ele>
        <time>2019-08-15T09:22:35.000Z</time>
      </trkpt>
      <trkpt lat="47.77562" lon="-3.60388">
        <ele>1.2000000476837</ele>
        <time>2019-08-15T09:22:36.000Z</time>
      </trkpt>
      <trkpt lat="47.77566" lon="-3.60385">
        <ele>1.3999999761581</ele>
        <time>2019-08-15T09:22:37.000Z</time>
      </trkpt>
      <trkpt lat="47.77576" lon="-3.60379">
        <ele>1.6000000238419</ele>
        <time>2019-08-15T09:22:39.000Z</time>
      </trkpt>
      <trkpt lat="47.77591" lon="-3.60376">
        <ele>1.7999999523163</ele>
        <time>2019-08-15T09:22:42.000Z</time>
      </trkpt>
      <trkpt lat="47.77618" lon="-3.60373">
        <ele>2.2000000476837</ele>
        <time>2019-08-15T09:22:48.000Z</time>
      </trkpt>
      <trkpt lat="47.77626" lon="-3.60372">
        <ele>2.5999999046326</ele>
        <time>2019-08-15T09:22:50.000Z</time>
      </trkpt>
      <trkpt lat="47.77642" lon="-3.60372">
        <ele>2.7999999523163</ele>
        <time>2019-08-15T09:22:54.000Z</time>
      </trkpt>
      <trkpt lat="47.77646" lon="-3.60374">
        <ele>2.7999999523163</ele>
        <time>2019-08-15T09:22:55.000Z</time>
      </trkpt>
      <trkpt lat="47.7765" lon="-3.60376">
        <ele>2.7999999523163</ele>
        <time>2019-08-15T09:22:56.000Z</time>
      </trkpt>
      <trkpt lat="47.77669" lon="-3.60392">
        <ele>2.4000000953674</ele>
        <time>2019-08-15T09:23:00.000Z</time>
      </trkpt>
      <trkpt lat="47.77689" lon="-3.60406">
        <ele>1.3999999761581</ele>
        <time>2019-08-15T09:23:03.000Z</time>
      </trkpt>
      <trkpt lat="47.77703" lon="-3.60416">
        <ele>0.80000001192093</ele>
        <time>2019-08-15T09:23:05.000Z</time>
      </trkpt>
      <trkpt lat="47.77746" lon="-3.60448">
        <ele>-0.80000001192093</ele>
        <time>2019-08-15T09:23:12.000Z</time>
      </trkpt>
      <trkpt lat="47.77775" lon="-3.60466">
        <ele>-0.40000000596046</ele>
        <time>2019-08-15T09:23:18.000Z</time>
      </trkpt>
      <trkpt lat="47.77778" lon="-3.60469">
        <ele>-0.20000000298023</ele>
        <time>2019-08-15T09:23:19.000Z</time>
      </trkpt>
      <trkpt lat="47.77781" lon="-3.60471">
        <ele>6.6</ele>
        <time>2019-08-15T09:23:20.000Z</time>
      </trkpt>
      <trkpt lat="47.77785" lon="-3.60474">
        <ele>6.7</ele>
        <time>2019-08-15T09:23:21.000Z</time>
      </trkpt>
      <trkpt lat="47.77789" lon="-3.60476">
        <ele>6.8</ele>
        <time>2019-08-15T09:23:22.000Z</time>
      </trkpt>
      <trkpt lat="47.77797" lon="-3.60481">
        <ele>0.80000001192093</ele>
        <time>2019-08-15T09:23:24.000Z</time>
      </trkpt>
      <trkpt lat="47.77804" lon="-3.60486">
        <ele>1.2000000476837</ele>
        <time>2019-08-15T09:23:26.000Z</time>
      </trkpt>
      <trkpt lat="47.77808" lon="-3.60489">
        <ele>1.3999999761581</ele>
        <time>2019-08-15T09:23:27.000Z</time>
      </trkpt>
      <trkpt lat="47.77812" lon="-3.60492">
        <ele>1.7999999523163</ele>
        <time>2019-08-15T09:23:28.000Z</time>
      </trkpt>
      <trkpt lat="47.77822" lon="-3.60499">
        <ele>3</ele>
        <time>2019-08-15T09:23:31.000Z</time>
      </trkpt>
      <trkpt lat="47.77833" lon="-3.605">
        <ele>3.7999999523163</ele>
        <time>2019-08-15T09:23:35.000Z</time>
      </trkpt>
      <trkpt lat="47.77835" lon="-3.605">
        <ele>4.1999998092651</ele>
        <time>2019-08-15T09:23:36.000Z</time>
      </trkpt>
      <trkpt lat="47.77837" lon="-3.60504">
        <ele>4.1999998092651</ele>
        <time>2019-08-15T09:23:38.000Z</time>
      </trkpt>
      <trkpt lat="47.77837" lon="-3.60508">
        <ele>4.4000000953674</ele>
        <time>2019-08-15T09:23:39.000Z</time>
      </trkpt>
      <trkpt lat="47.77836" lon="-3.60511">
        <ele>4.5999999046326</ele>
        <time>2019-08-15T09:23:40.000Z</time>
      </trkpt>
      <trkpt lat="47.77831" lon="-3.60531">
        <ele>5.4000000953674</ele>
        <time>2019-08-15T09:23:44.000Z</time>
      </trkpt>
      <trkpt lat="47.7783" lon="-3.60536">
        <ele>5.4000000953674</ele>
        <time>2019-08-15T09:23:45.000Z</time>
      </trkpt>
      <trkpt lat="47.77828" lon="-3.60545">
        <ele>6</ele>
        <time>2019-08-15T09:23:47.000Z</time>
      </trkpt>
      <trkpt lat="47.77823" lon="-3.60569">
        <ele>7.4000000953674</ele>
        <time>2019-08-15T09:23:52.000Z</time>
      </trkpt>
      <trkpt lat="47.77822" lon="-3.60574">
        <ele>7.8000001907349</ele>
        <time>2019-08-15T09:23:53.000Z</time>
      </trkpt>
      <trkpt lat="47.77817" lon="-3.60603">
        <ele>9.1999998092651</ele>
        <time>2019-08-15T09:23:59.000Z</time>
      </trkpt>
      <trkpt lat="47.77813" lon="-3.60618">
        <ele>9.6000003814697</ele>
        <time>2019-08-15T09:24:02.000Z</time>
      </trkpt>
      <trkpt lat="47.77808" lon="-3.60646">
        <ele>10.199999809265</ele>
        <time>2019-08-15T09:24:07.000Z</time>
      </trkpt>
      <trkpt lat="47.77806" lon="-3.60653">
        <ele>10.199999809265</ele>
        <time>2019-08-15T09:24:08.000Z</time>
      </trkpt>
      <trkpt lat="47.77796" lon="-3.60701">
        <ele>10.39999961853</ele>
        <time>2019-08-15T09:24:16.000Z</time>
      </trkpt>
      <trkpt lat="47.77794" lon="-3.60707">
        <ele>10.60000038147</ele>
        <time>2019-08-15T09:24:17.000Z</time>
      </trkpt>
      <trkpt lat="47.77789" lon="-3.60728">
        <ele>11.39999961853</ele>
        <time>2019-08-15T09:24:21.000Z</time>
      </trkpt>
      <trkpt lat="47.77785" lon="-3.60743">
        <ele>11.800000190735</ele>
        <time>2019-08-15T09:24:24.000Z</time>
      </trkpt>
      <trkpt lat="47.77783" lon="-3.60752">
        <ele>12.199999809265</ele>
        <time>2019-08-15T09:24:26.000Z</time>
      </trkpt>
      <trkpt lat="47.77779" lon="-3.60778">
        <ele>13.60000038147</ele>
        <time>2019-08-15T09:24:31.000Z</time>
      </trkpt>
      <trkpt lat="47.77778" lon="-3.60783">
        <ele>14</ele>
        <time>2019-08-15T09:24:32.000Z</time>
      </trkpt>
      <trkpt lat="47.77774" lon="-3.6082">
        <ele>15</ele>
        <time>2019-08-15T09:24:40.000Z</time>
      </trkpt>
      <trkpt lat="47.77772" lon="-3.60834">
        <ele>15.60000038147</ele>
        <time>2019-08-15T09:24:43.000Z</time>
      </trkpt>
      <trkpt lat="47.7777" lon="-3.60856">
        <ele>16.200000762939</ele>
        <time>2019-08-15T09:24:48.000Z</time>
      </trkpt>
      <trkpt lat="47.7777" lon="-3.6086">
        <ele>16.39999961853</ele>
        <time>2019-08-15T09:24:49.000Z</time>
      </trkpt>
      <trkpt lat="47.77767" lon="-3.60878">
        <ele>17.200000762939</ele>
        <time>2019-08-15T09:24:53.000Z</time>
      </trkpt>
      <trkpt lat="47.77766" lon="-3.6089">
        <ele>18</ele>
        <time>2019-08-15T09:24:56.000Z</time>
      </trkpt>
      <trkpt lat="47.77765" lon="-3.60894">
        <ele>18.200000762939</ele>
        <time>2019-08-15T09:24:57.000Z</time>
      </trkpt>
      <trkpt lat="47.7776" lon="-3.60922">
        <ele>20.39999961853</ele>
        <time>2019-08-15T09:25:04.000Z</time>
      </trkpt>
      <trkpt lat="47.77753" lon="-3.60931">
        <ele>21.200000762939</ele>
        <time>2019-08-15T09:25:08.000Z</time>
      </trkpt>
      <trkpt lat="47.77739" lon="-3.60933">
        <ele>22.200000762939</ele>
        <time>2019-08-15T09:25:13.000Z</time>
      </trkpt>
      <trkpt lat="47.77736" lon="-3.60932">
        <ele>22.200000762939</ele>
        <time>2019-08-15T09:25:14.000Z</time>
      </trkpt>
      <trkpt lat="47.77723" lon="-3.6093">
        <ele>22.60000038147</ele>
        <time>2019-08-15T09:25:18.000Z</time>
      </trkpt>
      <trkpt lat="47.77695" lon="-3.60929">
        <ele>22.60000038147</ele>
        <time>2019-08-15T09:25:25.000Z</time>
      </trkpt>
      <trkpt lat="47.77681" lon="-3.60929">
        <ele>22.60000038147</ele>
        <time>2019-08-15T09:25:28.000Z</time>
      </trkpt>
      <trkpt lat="47.77666" lon="-3.60928">
        <ele>22.39999961853</ele>
        <time>2019-08-15T09:25:31.000Z</time>
      </trkpt>
      <trkpt lat="47.77625" lon="-3.60922">
        <ele>22.200000762939</ele>
        <time>2019-08-15T09:25:39.000Z</time>
      </trkpt>
      <trkpt lat="47.7761" lon="-3.60919">
        <ele>21.799999237061</ele>
        <time>2019-08-15T09:25:42.000Z</time>
      </trkpt>
      <trkpt lat="47.77595" lon="-3.60922">
        <ele>21.60000038147</ele>
        <time>2019-08-15T09:25:45.000Z</time>
      </trkpt>
      <trkpt lat="47.77585" lon="-3.60927">
        <ele>21.39999961853</ele>
        <time>2019-08-15T09:25:47.000Z</time>
      </trkpt>
      <trkpt lat="47.77577" lon="-3.60936">
        <ele>21</ele>
        <time>2019-08-15T09:25:49.000Z</time>
      </trkpt>
      <trkpt lat="47.77565" lon="-3.60969">
        <ele>21</ele>
        <time>2019-08-15T09:25:54.000Z</time>
      </trkpt>
      <trkpt lat="47.77551" lon="-3.61006">
        <ele>20.799999237061</ele>
        <time>2019-08-15T09:25:59.000Z</time>
      </trkpt>
      <trkpt lat="47.77546" lon="-3.61022">
        <ele>20.799999237061</ele>
        <time>2019-08-15T09:26:01.000Z</time>
      </trkpt>
      <trkpt lat="47.77532" lon="-3.61069">
        <ele>20</ele>
        <time>2019-08-15T09:26:06.000Z</time>
      </trkpt>
      <trkpt lat="47.77526" lon="-3.6109">
        <ele>19.200000762939</ele>
        <time>2019-08-15T09:26:08.000Z</time>
      </trkpt>
      <trkpt lat="47.77526" lon="-3.61113">
        <ele>18.200000762939</ele>
        <time>2019-08-15T09:26:10.000Z</time>
      </trkpt>
      <trkpt lat="47.77535" lon="-3.61142">
        <ele>17</ele>
        <time>2019-08-15T09:26:13.000Z</time>
      </trkpt>
      <trkpt lat="47.77544" lon="-3.61161">
        <ele>16.799999237061</ele>
        <time>2019-08-15T09:26:15.000Z</time>
      </trkpt>
      <trkpt lat="47.77553" lon="-3.61181">
        <ele>16.39999961853</ele>
        <time>2019-08-15T09:26:17.000Z</time>
      </trkpt>
      <trkpt lat="47.77558" lon="-3.6119">
        <ele>16.60000038147</ele>
        <time>2019-08-15T09:26:18.000Z</time>
      </trkpt>
      <trkpt lat="47.7757" lon="-3.61205">
        <ele>16.200000762939</ele>
        <time>2019-08-15T09:26:20.000Z</time>
      </trkpt>
      <trkpt lat="47.77582" lon="-3.61217">
        <ele>16.200000762939</ele>
        <time>2019-08-15T09:26:22.000Z</time>
      </trkpt>
      <trkpt lat="47.77587" lon="-3.61222">
        <ele>16.200000762939</ele>
        <time>2019-08-15T09:26:23.000Z</time>
      </trkpt>
      <trkpt lat="47.77593" lon="-3.61238">
        <ele>16</ele>
        <time>2019-08-15T09:26:25.000Z</time>
      </trkpt>
      <trkpt lat="47.77595" lon="-3.61258">
        <ele>15.800000190735</ele>
        <time>2019-08-15T09:26:27.000Z</time>
      </trkpt>
      <trkpt lat="47.77594" lon="-3.61269">
        <ele>15.800000190735</ele>
        <time>2019-08-15T09:26:28.000Z</time>
      </trkpt>
      <trkpt lat="47.77592" lon="-3.61279">
        <ele>15.39999961853</ele>
        <time>2019-08-15T09:26:29.000Z</time>
      </trkpt>
      <trkpt lat="47.77589" lon="-3.61289">
        <ele>15.39999961853</ele>
        <time>2019-08-15T09:26:30.000Z</time>
      </trkpt>
      <trkpt lat="47.77584" lon="-3.61297">
        <ele>15.60000038147</ele>
        <time>2019-08-15T09:26:31.000Z</time>
      </trkpt>
      <trkpt lat="47.77568" lon="-3.61304">
        <ele>15.199999809265</ele>
        <time>2019-08-15T09:26:33.000Z</time>
      </trkpt>
      <trkpt lat="47.77553" lon="-3.61298">
        <ele>15.199999809265</ele>
        <time>2019-08-15T09:26:35.000Z</time>
      </trkpt>
      <trkpt lat="47.77542" lon="-3.61286">
        <ele>14.60000038147</ele>
        <time>2019-08-15T09:26:37.000Z</time>
      </trkpt>
      <trkpt lat="47.77532" lon="-3.61274">
        <ele>14.39999961853</ele>
        <time>2019-08-15T09:26:39.000Z</time>
      </trkpt>
      <trkpt lat="47.77528" lon="-3.61269">
        <ele>14.39999961853</ele>
        <time>2019-08-15T09:26:40.000Z</time>
      </trkpt>
      <trkpt lat="47.77524" lon="-3.61266">
        <ele>14.39999961853</ele>
        <time>2019-08-15T09:26:41.000Z</time>
      </trkpt>
      <trkpt lat="47.7752" lon="-3.61263">
        <ele>14.39999961853</ele>
        <time>2019-08-15T09:26:42.000Z</time>
      </trkpt>
      <trkpt lat="47.77508" lon="-3.61259">
        <ele>15.60000038147</ele>
        <time>2019-08-15T09:26:45.000Z</time>
      </trkpt>
      <trkpt lat="47.77505" lon="-3.61258">
        <ele>15.800000190735</ele>
        <time>2019-08-15T09:26:46.000Z</time>
      </trkpt>
      <trkpt lat="47.77501" lon="-3.61257">
        <ele>16.200000762939</ele>
        <time>2019-08-15T09:26:47.000Z</time>
      </trkpt>
      <trkpt lat="47.77489" lon="-3.61255">
        <ele>17</ele>
        <time>2019-08-15T09:26:50.000Z</time>
      </trkpt>
      <trkpt lat="47.77482" lon="-3.61252">
        <ele>17.39999961853</ele>
        <time>2019-08-15T09:26:52.000Z</time>
      </trkpt>
      <trkpt lat="47.77474" lon="-3.61251">
        <ele>17.799999237061</ele>
        <time>2019-08-15T09:26:54.000Z</time>
      </trkpt>
      <trkpt lat="47.77471" lon="-3.61251">
        <ele>18</ele>
        <time>2019-08-15T09:26:55.000Z</time>
      </trkpt>
      <trkpt lat="47.77459" lon="-3.61249">
        <ele>18.39999961853</ele>
        <time>2019-08-15T09:26:58.000Z</time>
      </trkpt>
      <trkpt lat="47.77455" lon="-3.61249">
        <ele>18.60000038147</ele>
        <time>2019-08-15T09:26:59.000Z</time>
      </trkpt>
      <trkpt lat="47.7745" lon="-3.61247">
        <ele>18.39999961853</ele>
        <time>2019-08-15T09:27:00.000Z</time>
      </trkpt>
      <trkpt lat="47.77441" lon="-3.61241">
        <ele>18.60000038147</ele>
        <time>2019-08-15T09:27:02.000Z</time>
      </trkpt>
      <trkpt lat="47.77432" lon="-3.61234">
        <ele>18.799999237061</ele>
        <time>2019-08-15T09:27:04.000Z</time>
      </trkpt>
      <trkpt lat="47.77427" lon="-3.6123">
        <ele>18.799999237061</ele>
        <time>2019-08-15T09:27:05.000Z</time>
      </trkpt>
      <trkpt lat="47.77422" lon="-3.61228">
        <ele>18.799999237061</ele>
        <time>2019-08-15T09:27:06.000Z</time>
      </trkpt>
      <trkpt lat="47.77406" lon="-3.61224">
        <ele>18.799999237061</ele>
        <time>2019-08-15T09:27:09.000Z</time>
      </trkpt>
      <trkpt lat="47.774" lon="-3.61223">
        <ele>18.60000038147</ele>
        <time>2019-08-15T09:27:11.000Z</time>
      </trkpt>
      <trkpt lat="47.774" lon="-3.61224">
        <ele>18.60000038147</ele>
        <time>2019-08-15T09:27:12.000Z</time>
      </trkpt>
      <trkpt lat="47.77399" lon="-3.61238">
        <ele>18.200000762939</ele>
        <time>2019-08-15T09:27:16.000Z</time>
      </trkpt>
      <trkpt lat="47.77396" lon="-3.61264">
        <ele>18.200000762939</ele>
        <time>2019-08-15T09:27:21.000Z</time>
      </trkpt>
      <trkpt lat="47.77392" lon="-3.61279">
        <ele>18.60000038147</ele>
        <time>2019-08-15T09:27:24.000Z</time>
      </trkpt>
      <trkpt lat="47.7739" lon="-3.61291">
        <ele>19</ele>
        <time>2019-08-15T09:27:26.000Z</time>
      </trkpt>
      <trkpt lat="47.77382" lon="-3.61324">
        <ele>21.200000762939</ele>
        <time>2019-08-15T09:27:32.000Z</time>
      </trkpt>
      <trkpt lat="47.77379" lon="-3.61334">
        <ele>21.60000038147</ele>
        <time>2019-08-15T09:27:34.000Z</time>
      </trkpt>
      <trkpt lat="47.77378" lon="-3.61339">
        <ele>21.39999961853</ele>
        <time>2019-08-15T09:27:35.000Z</time>
      </trkpt>
      <trkpt lat="47.77371" lon="-3.61369">
        <ele>22.60000038147</ele>
        <time>2019-08-15T09:27:41.000Z</time>
      </trkpt>
      <trkpt lat="47.77364" lon="-3.61405">
        <ele>23.799999237061</ele>
        <time>2019-08-15T09:27:48.000Z</time>
      </trkpt>
      <trkpt lat="47.77363" lon="-3.6141">
        <ele>24</ele>
        <time>2019-08-15T09:27:49.000Z</time>
      </trkpt>
      <trkpt lat="47.77364" lon="-3.6142">
        <ele>24</ele>
        <time>2019-08-15T09:27:51.000Z</time>
      </trkpt>
      <trkpt lat="47.77365" lon="-3.6143">
        <ele>24.200000762939</ele>
        <time>2019-08-15T09:27:53.000Z</time>
      </trkpt>
      <trkpt lat="47.77366" lon="-3.61435">
        <ele>24.200000762939</ele>
        <time>2019-08-15T09:27:54.000Z</time>
      </trkpt>
      <trkpt lat="47.77366" lon="-3.6144">
        <ele>24.200000762939</ele>
        <time>2019-08-15T09:27:55.000Z</time>
      </trkpt>
      <trkpt lat="47.7737" lon="-3.61485">
        <ele>25.39999961853</ele>
        <time>2019-08-15T09:28:04.000Z</time>
      </trkpt>
      <trkpt lat="47.77371" lon="-3.61495">
        <ele>25.39999961853</ele>
        <time>2019-08-15T09:28:06.000Z</time>
      </trkpt>
      <trkpt lat="47.77371" lon="-3.61499">
        <ele>25.60000038147</ele>
        <time>2019-08-15T09:28:07.000Z</time>
      </trkpt>
      <trkpt lat="47.77371" lon="-3.61504">
        <ele>25.60000038147</ele>
        <time>2019-08-15T09:28:08.000Z</time>
      </trkpt>
      <trkpt lat="47.77374" lon="-3.61528">
        <ele>26</ele>
        <time>2019-08-15T09:28:13.000Z</time>
      </trkpt>
      <trkpt lat="47.77382" lon="-3.61568">
        <ele>26.39999961853</ele>
        <time>2019-08-15T09:28:22.000Z</time>
      </trkpt>
      <trkpt lat="47.77387" lon="-3.61586">
        <ele>26.39999961853</ele>
        <time>2019-08-15T09:28:28.000Z</time>
      </trkpt>
      <trkpt lat="47.77387" lon="-3.61586">
        <ele>26.200000762939</ele>
        <time>2019-08-15T09:29:08.000Z</time>
      </trkpt>
      <trkpt lat="47.77387" lon="-3.61586">
        <ele>26.39999961853</ele>
        <time>2019-08-15T09:29:11.000Z</time>
      </trkpt>
      <trkpt lat="47.77387" lon="-3.61587">
        <ele>26.39999961853</ele>
        <time>2019-08-15T09:29:12.000Z</time>
      </trkpt>
      <trkpt lat="47.77388" lon="-3.61589">
        <ele>26.39999961853</ele>
        <time>2019-08-15T09:29:13.000Z</time>
      </trkpt>
      <trkpt lat="47.77389" lon="-3.61592">
        <ele>26.39999961853</ele>
        <time>2019-08-15T09:29:14.000Z</time>
      </trkpt>
      <trkpt lat="47.77391" lon="-3.61595">
        <ele>26.60000038147</ele>
        <time>2019-08-15T09:29:15.000Z</time>
      </trkpt>
      <trkpt lat="47.77393" lon="-3.61598">
        <ele>26.60000038147</ele>
        <time>2019-08-15T09:29:16.000Z</time>
      </trkpt>
      <trkpt lat="47.77396" lon="-3.61602">
        <ele>26.60000038147</ele>
        <time>2019-08-15T09:29:17.000Z</time>
      </trkpt>
      <trkpt lat="47.77399" lon="-3.61605">
        <ele>26.799999237061</ele>
        <time>2019-08-15T09:29:18.000Z</time>
      </trkpt>
      <trkpt lat="47.77401" lon="-3.61608">
        <ele>26.60000038147</ele>
        <time>2019-08-15T09:29:19.000Z</time>
      </trkpt>
      <trkpt lat="47.77413" lon="-3.61624">
        <ele>26.60000038147</ele>
        <time>2019-08-15T09:29:24.000Z</time>
      </trkpt>
      <trkpt lat="47.77418" lon="-3.6163">
        <ele>26.60000038147</ele>
        <time>2019-08-15T09:29:26.000Z</time>
      </trkpt>
      <trkpt lat="47.77422" lon="-3.61633">
        <ele>26.60000038147</ele>
        <time>2019-08-15T09:29:27.000Z</time>
      </trkpt>
      <trkpt lat="47.77425" lon="-3.61635">
        <ele>26.60000038147</ele>
        <time>2019-08-15T09:29:28.000Z</time>
      </trkpt>
      <trkpt lat="47.77433" lon="-3.61639">
        <ele>26.799999237061</ele>
        <time>2019-08-15T09:29:30.000Z</time>
      </trkpt>
      <trkpt lat="47.77446" lon="-3.6165">
        <ele>26.60000038147</ele>
        <time>2019-08-15T09:29:34.000Z</time>
      </trkpt>
      <trkpt lat="47.77449" lon="-3.61654">
        <ele>26.60000038147</ele>
        <time>2019-08-15T09:29:35.000Z</time>
      </trkpt>
      <trkpt lat="47.77452" lon="-3.61657">
        <ele>26.60000038147</ele>
        <time>2019-08-15T09:29:36.000Z</time>
      </trkpt>
      <trkpt lat="47.77454" lon="-3.61662">
        <ele>26.60000038147</ele>
        <time>2019-08-15T09:29:37.000Z</time>
      </trkpt>
      <trkpt lat="47.77457" lon="-3.61667">
        <ele>26.39999961853</ele>
        <time>2019-08-15T09:29:38.000Z</time>
      </trkpt>
      <trkpt lat="47.77459" lon="-3.61672">
        <ele>26.60000038147</ele>
        <time>2019-08-15T09:29:39.000Z</time>
      </trkpt>
      <trkpt lat="47.77461" lon="-3.61678">
        <ele>26.39999961853</ele>
        <time>2019-08-15T09:29:40.000Z</time>
      </trkpt>
      <trkpt lat="47.77466" lon="-3.61689">
        <ele>26.39999961853</ele>
        <time>2019-08-15T09:29:42.000Z</time>
      </trkpt>
      <trkpt lat="47.77468" lon="-3.61694">
        <ele>26.200000762939</ele>
        <time>2019-08-15T09:29:43.000Z</time>
      </trkpt>
      <trkpt lat="47.77472" lon="-3.61704">
        <ele>26.200000762939</ele>
        <time>2019-08-15T09:29:45.000Z</time>
      </trkpt>
      <trkpt lat="47.77475" lon="-3.61708">
        <ele>26.200000762939</ele>
        <time>2019-08-15T09:29:46.000Z</time>
      </trkpt>
      <trkpt lat="47.77478" lon="-3.61712">
        <ele>26</ele>
        <time>2019-08-15T09:29:47.000Z</time>
      </trkpt>
      <trkpt lat="47.77485" lon="-3.61715">
        <ele>25.200000762939</ele>
        <time>2019-08-15T09:29:49.000Z</time>
      </trkpt>
      <trkpt lat="47.77493" lon="-3.61718">
        <ele>24.799999237061</ele>
        <time>2019-08-15T09:29:51.000Z</time>
      </trkpt>
      <trkpt lat="47.77502" lon="-3.61719">
        <ele>24.60000038147</ele>
        <time>2019-08-15T09:29:53.000Z</time>
      </trkpt>
      <trkpt lat="47.77506" lon="-3.61721">
        <ele>24.39999961853</ele>
        <time>2019-08-15T09:29:54.000Z</time>
      </trkpt>
      <trkpt lat="47.7751" lon="-3.61723">
        <ele>24.60000038147</ele>
        <time>2019-08-15T09:29:55.000Z</time>
      </trkpt>
      <trkpt lat="47.77514" lon="-3.61726">
        <ele>24.60000038147</ele>
        <time>2019-08-15T09:29:56.000Z</time>
      </trkpt>
      <trkpt lat="47.77518" lon="-3.61729">
        <ele>24.60000038147</ele>
        <time>2019-08-15T09:29:57.000Z</time>
      </trkpt>
      <trkpt lat="47.77526" lon="-3.61735">
        <ele>24.799999237061</ele>
        <time>2019-08-15T09:29:59.000Z</time>
      </trkpt>
      <trkpt lat="47.77539" lon="-3.61738">
        <ele>24.60000038147</ele>
        <time>2019-08-15T09:30:02.000Z</time>
      </trkpt>
      <trkpt lat="47.77543" lon="-3.61738">
        <ele>25</ele>
        <time>2019-08-15T09:30:03.000Z</time>
      </trkpt>
      <trkpt lat="47.77552" lon="-3.61741">
        <ele>25</ele>
        <time>2019-08-15T09:30:05.000Z</time>
      </trkpt>
      <trkpt lat="47.77561" lon="-3.61744">
        <ele>25</ele>
        <time>2019-08-15T09:30:07.000Z</time>
      </trkpt>
      <trkpt lat="47.77566" lon="-3.61745">
        <ele>24.799999237061</ele>
        <time>2019-08-15T09:30:08.000Z</time>
      </trkpt>
      <trkpt lat="47.77571" lon="-3.61746">
        <ele>25</ele>
        <time>2019-08-15T09:30:09.000Z</time>
      </trkpt>
      <trkpt lat="47.77575" lon="-3.61746">
        <ele>24.799999237061</ele>
        <time>2019-08-15T09:30:10.000Z</time>
      </trkpt>
      <trkpt lat="47.77579" lon="-3.61745">
        <ele>24.799999237061</ele>
        <time>2019-08-15T09:30:11.000Z</time>
      </trkpt>
      <trkpt lat="47.77584" lon="-3.61744">
        <ele>25</ele>
        <time>2019-08-15T09:30:12.000Z</time>
      </trkpt>
      <trkpt lat="47.77588" lon="-3.61742">
        <ele>25</ele>
        <time>2019-08-15T09:30:13.000Z</time>
      </trkpt>
      <trkpt lat="47.77593" lon="-3.6174">
        <ele>25</ele>
        <time>2019-08-15T09:30:14.000Z</time>
      </trkpt>
      <trkpt lat="47.77597" lon="-3.61739">
        <ele>25</ele>
        <time>2019-08-15T09:30:15.000Z</time>
      </trkpt>
      <trkpt lat="47.77601" lon="-3.61738">
        <ele>25</ele>
        <time>2019-08-15T09:30:16.000Z</time>
      </trkpt>
      <trkpt lat="47.77605" lon="-3.61736">
        <ele>25</ele>
        <time>2019-08-15T09:30:17.000Z</time>
      </trkpt>
      <trkpt lat="47.7761" lon="-3.61735">
        <ele>25.200000762939</ele>
        <time>2019-08-15T09:30:18.000Z</time>
      </trkpt>
      <trkpt lat="47.77634" lon="-3.61726">
        <ele>25.39999961853</ele>
        <time>2019-08-15T09:30:23.000Z</time>
      </trkpt>
      <trkpt lat="47.77643" lon="-3.61724">
        <ele>25.39999961853</ele>
        <time>2019-08-15T09:30:25.000Z</time>
      </trkpt>
      <trkpt lat="47.77647" lon="-3.61722">
        <ele>25.200000762939</ele>
        <time>2019-08-15T09:30:26.000Z</time>
      </trkpt>
      <trkpt lat="47.77651" lon="-3.6172">
        <ele>25.39999961853</ele>
        <time>2019-08-15T09:30:27.000Z</time>
      </trkpt>
      <trkpt lat="47.77655" lon="-3.61719">
        <ele>25.200000762939</ele>
        <time>2019-08-15T09:30:28.000Z</time>
      </trkpt>
      <trkpt lat="47.7766" lon="-3.61718">
        <ele>25.200000762939</ele>
        <time>2019-08-15T09:30:29.000Z</time>
      </trkpt>
      <trkpt lat="47.77665" lon="-3.61715">
        <ele>25.200000762939</ele>
        <time>2019-08-15T09:30:30.000Z</time>
      </trkpt>
      <trkpt lat="47.77674" lon="-3.61707">
        <ele>25.200000762939</ele>
        <time>2019-08-15T09:30:32.000Z</time>
      </trkpt>
      <trkpt lat="47.77679" lon="-3.61702">
        <ele>25.39999961853</ele>
        <time>2019-08-15T09:30:33.000Z</time>
      </trkpt>
      <trkpt lat="47.77683" lon="-3.61698">
        <ele>25.200000762939</ele>
        <time>2019-08-15T09:30:34.000Z</time>
      </trkpt>
      <trkpt lat="47.77688" lon="-3.61694">
        <ele>25.39999961853</ele>
        <time>2019-08-15T09:30:35.000Z</time>
      </trkpt>
      <trkpt lat="47.77693" lon="-3.61691">
        <ele>25.39999961853</ele>
        <time>2019-08-15T09:30:36.000Z</time>
      </trkpt>
      <trkpt lat="47.77716" lon="-3.61679">
        <ele>25.60000038147</ele>
        <time>2019-08-15T09:30:40.000Z</time>
      </trkpt>
      <trkpt lat="47.77721" lon="-3.61677">
        <ele>25.39999961853</ele>
        <time>2019-08-15T09:30:41.000Z</time>
      </trkpt>
      <trkpt lat="47.77739" lon="-3.61673">
        <ele>25.200000762939</ele>
        <time>2019-08-15T09:30:44.000Z</time>
      </trkpt>
      <trkpt lat="47.77744" lon="-3.61671">
        <ele>24.799999237061</ele>
        <time>2019-08-15T09:30:45.000Z</time>
      </trkpt>
      <trkpt lat="47.77766" lon="-3.61666">
        <ele>24.39999961853</ele>
        <time>2019-08-15T09:30:49.000Z</time>
      </trkpt>
      <trkpt lat="47.77775" lon="-3.61666">
        <ele>24.39999961853</ele>
        <time>2019-08-15T09:30:51.000Z</time>
      </trkpt>
      <trkpt lat="47.77783" lon="-3.61673">
        <ele>23.799999237061</ele>
        <time>2019-08-15T09:30:53.000Z</time>
      </trkpt>
      <trkpt lat="47.7779" lon="-3.61684">
        <ele>23.39999961853</ele>
        <time>2019-08-15T09:30:55.000Z</time>
      </trkpt>
      <trkpt lat="47.77803" lon="-3.61703">
        <ele>23.200000762939</ele>
        <time>2019-08-15T09:30:58.000Z</time>
      </trkpt>
      <trkpt lat="47.77808" lon="-3.61708">
        <ele>23</ele>
        <time>2019-08-15T09:30:59.000Z</time>
      </trkpt>
      <trkpt lat="47.77813" lon="-3.61713">
        <ele>23</ele>
        <time>2019-08-15T09:31:00.000Z</time>
      </trkpt>
      <trkpt lat="47.77825" lon="-3.61723">
        <ele>23</ele>
        <time>2019-08-15T09:31:02.000Z</time>
      </trkpt>
      <trkpt lat="47.77837" lon="-3.61731">
        <ele>22.60000038147</ele>
        <time>2019-08-15T09:31:04.000Z</time>
      </trkpt>
      <trkpt lat="47.77844" lon="-3.61733">
        <ele>22.60000038147</ele>
        <time>2019-08-15T09:31:05.000Z</time>
      </trkpt>
      <trkpt lat="47.77857" lon="-3.61734">
        <ele>22.39999961853</ele>
        <time>2019-08-15T09:31:07.000Z</time>
      </trkpt>
      <trkpt lat="47.77874" lon="-3.61732">
        <ele>22.200000762939</ele>
        <time>2019-08-15T09:31:10.000Z</time>
      </trkpt>
      <trkpt lat="47.77906" lon="-3.61724">
        <ele>22.39999961853</ele>
        <time>2019-08-15T09:31:16.000Z</time>
      </trkpt>
      <trkpt lat="47.77911" lon="-3.61723">
        <ele>22.60000038147</ele>
        <time>2019-08-15T09:31:17.000Z</time>
      </trkpt>
      <trkpt lat="47.77919" lon="-3.61726">
        <ele>22.799999237061</ele>
        <time>2019-08-15T09:31:19.000Z</time>
      </trkpt>
      <trkpt lat="47.77923" lon="-3.61729">
        <ele>23</ele>
        <time>2019-08-15T09:31:20.000Z</time>
      </trkpt>
      <trkpt lat="47.77926" lon="-3.61733">
        <ele>22.799999237061</ele>
        <time>2019-08-15T09:31:21.000Z</time>
      </trkpt>
      <trkpt lat="47.77929" lon="-3.61738">
        <ele>23</ele>
        <time>2019-08-15T09:31:22.000Z</time>
      </trkpt>
      <trkpt lat="47.77931" lon="-3.61743">
        <ele>23.200000762939</ele>
        <time>2019-08-15T09:31:23.000Z</time>
      </trkpt>
      <trkpt lat="47.77932" lon="-3.6175">
        <ele>23.200000762939</ele>
        <time>2019-08-15T09:31:24.000Z</time>
      </trkpt>
      <trkpt lat="47.77937" lon="-3.61781">
        <ele>24.200000762939</ele>
        <time>2019-08-15T09:31:29.000Z</time>
      </trkpt>
      <trkpt lat="47.77941" lon="-3.61805">
        <ele>25</ele>
        <time>2019-08-15T09:31:33.000Z</time>
      </trkpt>
      <trkpt lat="47.77953" lon="-3.61846">
        <ele>26</ele>
        <time>2019-08-15T09:31:40.000Z</time>
      </trkpt>
      <trkpt lat="47.77965" lon="-3.61878">
        <ele>26.60000038147</ele>
        <time>2019-08-15T09:31:46.000Z</time>
      </trkpt>
      <trkpt lat="47.7797" lon="-3.61888">
        <ele>26.799999237061</ele>
        <time>2019-08-15T09:31:48.000Z</time>
      </trkpt>
      <trkpt lat="47.77978" lon="-3.61903">
        <ele>27</ele>
        <time>2019-08-15T09:31:51.000Z</time>
      </trkpt>
      <trkpt lat="47.77981" lon="-3.61908">
        <ele>27.200000762939</ele>
        <time>2019-08-15T09:31:52.000Z</time>
      </trkpt>
      <trkpt lat="47.77998" lon="-3.61941">
        <ele>27.39999961853</ele>
        <time>2019-08-15T09:31:58.000Z</time>
      </trkpt>
      <trkpt lat="47.78" lon="-3.61946">
        <ele>27.60000038147</ele>
        <time>2019-08-15T09:31:59.000Z</time>
      </trkpt>
      <trkpt lat="47.78021" lon="-3.61982">
        <ele>28</ele>
        <time>2019-08-15T09:32:06.000Z</time>
      </trkpt>
      <trkpt lat="47.78024" lon="-3.61988">
        <ele>28</ele>
        <time>2019-08-15T09:32:07.000Z</time>
      </trkpt>
      <trkpt lat="47.78039" lon="-3.62013">
        <ele>28.60000038147</ele>
        <time>2019-08-15T09:32:12.000Z</time>
      </trkpt>
      <trkpt lat="47.78045" lon="-3.62022">
        <ele>28.799999237061</ele>
        <time>2019-08-15T09:32:14.000Z</time>
      </trkpt>
      <trkpt lat="47.78053" lon="-3.62037">
        <ele>28.799999237061</ele>
        <time>2019-08-15T09:32:17.000Z</time>
      </trkpt>
      <trkpt lat="47.78056" lon="-3.62042">
        <ele>29</ele>
        <time>2019-08-15T09:32:18.000Z</time>
      </trkpt>
      <trkpt lat="47.78062" lon="-3.62051">
        <ele>29.200000762939</ele>
        <time>2019-08-15T09:32:20.000Z</time>
      </trkpt>
      <trkpt lat="47.78069" lon="-3.62057">
        <ele>29.39999961853</ele>
        <time>2019-08-15T09:32:22.000Z</time>
      </trkpt>
      <trkpt lat="47.78073" lon="-3.62058">
        <ele>29.39999961853</ele>
        <time>2019-08-15T09:32:23.000Z</time>
      </trkpt>
      <trkpt lat="47.78077" lon="-3.62058">
        <ele>29.39999961853</ele>
        <time>2019-08-15T09:32:24.000Z</time>
      </trkpt>
      <trkpt lat="47.78082" lon="-3.62057">
        <ele>29.60000038147</ele>
        <time>2019-08-15T09:32:25.000Z</time>
      </trkpt>
      <trkpt lat="47.78086" lon="-3.62055">
        <ele>29.799999237061</ele>
        <time>2019-08-15T09:32:26.000Z</time>
      </trkpt>
      <trkpt lat="47.7809" lon="-3.62052">
        <ele>30</ele>
        <time>2019-08-15T09:32:27.000Z</time>
      </trkpt>
      <trkpt lat="47.78093" lon="-3.62049">
        <ele>30.200000762939</ele>
        <time>2019-08-15T09:32:28.000Z</time>
      </trkpt>
      <trkpt lat="47.78097" lon="-3.62045">
        <ele>30.200000762939</ele>
        <time>2019-08-15T09:32:29.000Z</time>
      </trkpt>
      <trkpt lat="47.781" lon="-3.62041">
        <ele>30.200000762939</ele>
        <time>2019-08-15T09:32:30.000Z</time>
      </trkpt>
      <trkpt lat="47.78104" lon="-3.62037">
        <ele>30.39999961853</ele>
        <time>2019-08-15T09:32:31.000Z</time>
      </trkpt>
      <trkpt lat="47.78107" lon="-3.62032">
        <ele>30.39999961853</ele>
        <time>2019-08-15T09:32:32.000Z</time>
      </trkpt>
      <trkpt lat="47.7811" lon="-3.62027">
        <ele>30.39999961853</ele>
        <time>2019-08-15T09:32:33.000Z</time>
      </trkpt>
      <trkpt lat="47.78113" lon="-3.62022">
        <ele>30.799999237061</ele>
        <time>2019-08-15T09:32:34.000Z</time>
      </trkpt>
      <trkpt lat="47.78116" lon="-3.62017">
        <ele>31</ele>
        <time>2019-08-15T09:32:35.000Z</time>
      </trkpt>
      <trkpt lat="47.78131" lon="-3.61986">
        <ele>31.39999961853</ele>
        <time>2019-08-15T09:32:41.000Z</time>
      </trkpt>
      <trkpt lat="47.78134" lon="-3.6198">
        <ele>31.799999237061</ele>
        <time>2019-08-15T09:32:42.000Z</time>
      </trkpt>
      <trkpt lat="47.78148" lon="-3.61939">
        <ele>32.599998474121</ele>
        <time>2019-08-15T09:32:49.000Z</time>
      </trkpt>
      <trkpt lat="47.78168" lon="-3.61873">
        <ele>33.200000762939</ele>
        <time>2019-08-15T09:32:59.000Z</time>
      </trkpt>
      <trkpt lat="47.78171" lon="-3.61859">
        <ele>33.400001525879</ele>
        <time>2019-08-15T09:33:01.000Z</time>
      </trkpt>
      <trkpt lat="47.78173" lon="-3.61852">
        <ele>33.599998474121</ele>
        <time>2019-08-15T09:33:02.000Z</time>
      </trkpt>
      <trkpt lat="47.78182" lon="-3.61814">
        <ele>34</ele>
        <time>2019-08-15T09:33:07.000Z</time>
      </trkpt>
      <trkpt lat="47.78188" lon="-3.6179">
        <ele>34</ele>
        <time>2019-08-15T09:33:10.000Z</time>
      </trkpt>
      <trkpt lat="47.7819" lon="-3.61782">
        <ele>34</ele>
        <time>2019-08-15T09:33:11.000Z</time>
      </trkpt>
      <trkpt lat="47.78196" lon="-3.61747">
        <ele>34</ele>
        <time>2019-08-15T09:33:15.000Z</time>
      </trkpt>
      <trkpt lat="47.78204" lon="-3.617">
        <ele>34</ele>
        <time>2019-08-15T09:33:20.000Z</time>
      </trkpt>
      <trkpt lat="47.78207" lon="-3.61672">
        <ele>34.200000762939</ele>
        <time>2019-08-15T09:33:23.000Z</time>
      </trkpt>
      <trkpt lat="47.78214" lon="-3.61626">
        <ele>34.400001525879</ele>
        <time>2019-08-15T09:33:28.000Z</time>
      </trkpt>
      <trkpt lat="47.78216" lon="-3.61617">
        <ele>34.599998474121</ele>
        <time>2019-08-15T09:33:29.000Z</time>
      </trkpt>
      <trkpt lat="47.78217" lon="-3.61608">
        <ele>34.799999237061</ele>
        <time>2019-08-15T09:33:30.000Z</time>
      </trkpt>
      <trkpt lat="47.78226" lon="-3.61534">
        <ele>35.200000762939</ele>
        <time>2019-08-15T09:33:38.000Z</time>
      </trkpt>
      <trkpt lat="47.78226" lon="-3.61515">
        <ele>35.200000762939</ele>
        <time>2019-08-15T09:33:40.000Z</time>
      </trkpt>
      <trkpt lat="47.78225" lon="-3.61505">
        <ele>35.200000762939</ele>
        <time>2019-08-15T09:33:41.000Z</time>
      </trkpt>
      <trkpt lat="47.78222" lon="-3.61476">
        <ele>35.599998474121</ele>
        <time>2019-08-15T09:33:44.000Z</time>
      </trkpt>
      <trkpt lat="47.78221" lon="-3.61446">
        <ele>35.799999237061</ele>
        <time>2019-08-15T09:33:47.000Z</time>
      </trkpt>
      <trkpt lat="47.78222" lon="-3.61436">
        <ele>35.799999237061</ele>
        <time>2019-08-15T09:33:48.000Z</time>
      </trkpt>
      <trkpt lat="47.78225" lon="-3.61426">
        <ele>35.799999237061</ele>
        <time>2019-08-15T09:33:49.000Z</time>
      </trkpt>
      <trkpt lat="47.78228" lon="-3.61418">
        <ele>36</ele>
        <time>2019-08-15T09:33:50.000Z</time>
      </trkpt>
      <trkpt lat="47.78236" lon="-3.61402">
        <ele>36</ele>
        <time>2019-08-15T09:33:52.000Z</time>
      </trkpt>
      <trkpt lat="47.7824" lon="-3.61394">
        <ele>36</ele>
        <time>2019-08-15T09:33:53.000Z</time>
      </trkpt>
      <trkpt lat="47.78269" lon="-3.61345">
        <ele>36.799999237061</ele>
        <time>2019-08-15T09:34:00.000Z</time>
      </trkpt>
      <trkpt lat="47.7829" lon="-3.61308">
        <ele>37</ele>
        <time>2019-08-15T09:34:06.000Z</time>
      </trkpt>
      <trkpt lat="47.78295" lon="-3.61298">
        <ele>37</ele>
        <time>2019-08-15T09:34:08.000Z</time>
      </trkpt>
      <trkpt lat="47.78302" lon="-3.61287">
        <ele>36.799999237061</ele>
        <time>2019-08-15T09:34:10.000Z</time>
      </trkpt>
      <trkpt lat="47.78307" lon="-3.61283">
        <ele>36.799999237061</ele>
        <time>2019-08-15T09:34:11.000Z</time>
      </trkpt>
      <trkpt lat="47.78311" lon="-3.61278">
        <ele>36.799999237061</ele>
        <time>2019-08-15T09:34:12.000Z</time>
      </trkpt>
      <trkpt lat="47.78329" lon="-3.61256">
        <ele>36.799999237061</ele>
        <time>2019-08-15T09:34:16.000Z</time>
      </trkpt>
      <trkpt lat="47.78333" lon="-3.61249">
        <ele>37</ele>
        <time>2019-08-15T09:34:17.000Z</time>
      </trkpt>
      <trkpt lat="47.78353" lon="-3.61217">
        <ele>37.400001525879</ele>
        <time>2019-08-15T09:34:22.000Z</time>
      </trkpt>
      <trkpt lat="47.78361" lon="-3.61205">
        <ele>37.799999237061</ele>
        <time>2019-08-15T09:34:24.000Z</time>
      </trkpt>
      <trkpt lat="47.78368" lon="-3.61193">
        <ele>37.799999237061</ele>
        <time>2019-08-15T09:34:26.000Z</time>
      </trkpt>
      <trkpt lat="47.78395" lon="-3.61148">
        <ele>38.599998474121</ele>
        <time>2019-08-15T09:34:33.000Z</time>
      </trkpt>
      <trkpt lat="47.78399" lon="-3.61141">
        <ele>38.799999237061</ele>
        <time>2019-08-15T09:34:34.000Z</time>
      </trkpt>
      <trkpt lat="47.78403" lon="-3.61134">
        <ele>38.799999237061</ele>
        <time>2019-08-15T09:34:35.000Z</time>
      </trkpt>
      <trkpt lat="47.78406" lon="-3.61127">
        <ele>39</ele>
        <time>2019-08-15T09:34:36.000Z</time>
      </trkpt>
      <trkpt lat="47.7841" lon="-3.6112">
        <ele>38.799999237061</ele>
        <time>2019-08-15T09:34:37.000Z</time>
      </trkpt>
      <trkpt lat="47.78419" lon="-3.61107">
        <ele>39</ele>
        <time>2019-08-15T09:34:39.000Z</time>
      </trkpt>
      <trkpt lat="47.78423" lon="-3.61101">
        <ele>39</ele>
        <time>2019-08-15T09:34:40.000Z</time>
      </trkpt>
      <trkpt lat="47.78429" lon="-3.61096">
        <ele>39.200000762939</ele>
        <time>2019-08-15T09:34:41.000Z</time>
      </trkpt>
      <trkpt lat="47.78442" lon="-3.61089">
        <ele>39.200000762939</ele>
        <time>2019-08-15T09:34:43.000Z</time>
      </trkpt>
      <trkpt lat="47.7845" lon="-3.61088">
        <ele>39.200000762939</ele>
        <time>2019-08-15T09:34:44.000Z</time>
      </trkpt>
      <trkpt lat="47.78457" lon="-3.61087">
        <ele>39</ele>
        <time>2019-08-15T09:34:45.000Z</time>
      </trkpt>
      <trkpt lat="47.78503" lon="-3.6108">
        <ele>38.799999237061</ele>
        <time>2019-08-15T09:34:51.000Z</time>
      </trkpt>
      <trkpt lat="47.78511" lon="-3.61079">
        <ele>38.599998474121</ele>
        <time>2019-08-15T09:34:52.000Z</time>
      </trkpt>
      <trkpt lat="47.78534" lon="-3.61073">
        <ele>38.400001525879</ele>
        <time>2019-08-15T09:34:55.000Z</time>
      </trkpt>
      <trkpt lat="47.7855" lon="-3.61068">
        <ele>38</ele>
        <time>2019-08-15T09:34:57.000Z</time>
      </trkpt>
      <trkpt lat="47.78558" lon="-3.61065">
        <ele>37.799999237061</ele>
        <time>2019-08-15T09:34:58.000Z</time>
      </trkpt>
      <trkpt lat="47.78583" lon="-3.61056">
        <ele>37.200000762939</ele>
        <time>2019-08-15T09:35:01.000Z</time>
      </trkpt>
      <trkpt lat="47.78591" lon="-3.61053">
        <ele>37.200000762939</ele>
        <time>2019-08-15T09:35:02.000Z</time>
      </trkpt>
      <trkpt lat="47.78615" lon="-3.61045">
        <ele>37</ele>
        <time>2019-08-15T09:35:05.000Z</time>
      </trkpt>
      <trkpt lat="47.78671" lon="-3.61018">
        <ele>35.799999237061</ele>
        <time>2019-08-15T09:35:12.000Z</time>
      </trkpt>
      <trkpt lat="47.78679" lon="-3.61013">
        <ele>35.599998474121</ele>
        <time>2019-08-15T09:35:13.000Z</time>
      </trkpt>
      <trkpt lat="47.78702" lon="-3.60998">
        <ele>35</ele>
        <time>2019-08-15T09:35:17.000Z</time>
      </trkpt>
      <trkpt lat="47.78708" lon="-3.60995">
        <ele>34.599998474121</ele>
        <time>2019-08-15T09:35:19.000Z</time>
      </trkpt>
      <trkpt lat="47.78711" lon="-3.60996">
        <ele>34.799999237061</ele>
        <time>2019-08-15T09:35:20.000Z</time>
      </trkpt>
      <trkpt lat="47.78713" lon="-3.60998">
        <ele>34.599998474121</ele>
        <time>2019-08-15T09:35:21.000Z</time>
      </trkpt>
      <trkpt lat="47.78714" lon="-3.61002">
        <ele>34.599998474121</ele>
        <time>2019-08-15T09:35:22.000Z</time>
      </trkpt>
      <trkpt lat="47.78714" lon="-3.61006">
        <ele>34.799999237061</ele>
        <time>2019-08-15T09:35:23.000Z</time>
      </trkpt>
      <trkpt lat="47.78718" lon="-3.61038">
        <ele>34.799999237061</ele>
        <time>2019-08-15T09:35:29.000Z</time>
      </trkpt>
      <trkpt lat="47.78719" lon="-3.61044">
        <ele>34.599998474121</ele>
        <time>2019-08-15T09:35:30.000Z</time>
      </trkpt>
      <trkpt lat="47.7872" lon="-3.61051">
        <ele>34.599998474121</ele>
        <time>2019-08-15T09:35:31.000Z</time>
      </trkpt>
      <trkpt lat="47.78721" lon="-3.61064">
        <ele>35.200000762939</ele>
        <time>2019-08-15T09:35:33.000Z</time>
      </trkpt>
      <trkpt lat="47.78721" lon="-3.61071">
        <ele>35.400001525879</ele>
        <time>2019-08-15T09:35:34.000Z</time>
      </trkpt>
      <trkpt lat="47.78722" lon="-3.61078">
        <ele>35.400001525879</ele>
        <time>2019-08-15T09:35:35.000Z</time>
      </trkpt>
      <trkpt lat="47.78722" lon="-3.61085">
        <ele>35</ele>
        <time>2019-08-15T09:35:36.000Z</time>
      </trkpt>
      <trkpt lat="47.78723" lon="-3.61093">
        <ele>34.799999237061</ele>
        <time>2019-08-15T09:35:37.000Z</time>
      </trkpt>
      <trkpt lat="47.78723" lon="-3.61101">
        <ele>34.599998474121</ele>
        <time>2019-08-15T09:35:38.000Z</time>
      </trkpt>
      <trkpt lat="47.78724" lon="-3.61108">
        <ele>34.599998474121</ele>
        <time>2019-08-15T09:35:39.000Z</time>
      </trkpt>
      <trkpt lat="47.78725" lon="-3.61116">
        <ele>34.400001525879</ele>
        <time>2019-08-15T09:35:40.000Z</time>
      </trkpt>
      <trkpt lat="47.78725" lon="-3.61123">
        <ele>34.200000762939</ele>
        <time>2019-08-15T09:35:41.000Z</time>
      </trkpt>
      <trkpt lat="47.78726" lon="-3.61129">
        <ele>34.200000762939</ele>
        <time>2019-08-15T09:35:42.000Z</time>
      </trkpt>
      <trkpt lat="47.78728" lon="-3.61152">
        <ele>33.599998474121</ele>
        <time>2019-08-15T09:35:45.000Z</time>
      </trkpt>
      <trkpt lat="47.78728" lon="-3.61161">
        <ele>33.599998474121</ele>
        <time>2019-08-15T09:35:46.000Z</time>
      </trkpt>
      <trkpt lat="47.78729" lon="-3.61169">
        <ele>33.200000762939</ele>
        <time>2019-08-15T09:35:47.000Z</time>
      </trkpt>
      <trkpt lat="47.78729" lon="-3.61177">
        <ele>33</ele>
        <time>2019-08-15T09:35:48.000Z</time>
      </trkpt>
      <trkpt lat="47.7873" lon="-3.61185">
        <ele>32.200000762939</ele>
        <time>2019-08-15T09:35:49.000Z</time>
      </trkpt>
      <trkpt lat="47.7873" lon="-3.61193">
        <ele>32</ele>
        <time>2019-08-15T09:35:50.000Z</time>
      </trkpt>
      <trkpt lat="47.78732" lon="-3.61218">
        <ele>31.60000038147</ele>
        <time>2019-08-15T09:35:53.000Z</time>
      </trkpt>
      <trkpt lat="47.78733" lon="-3.61227">
        <ele>31.200000762939</ele>
        <time>2019-08-15T09:35:54.000Z</time>
      </trkpt>
      <trkpt lat="47.78733" lon="-3.61235">
        <ele>31</ele>
        <time>2019-08-15T09:35:55.000Z</time>
      </trkpt>
      <trkpt lat="47.78734" lon="-3.61244">
        <ele>30.799999237061</ele>
        <time>2019-08-15T09:35:56.000Z</time>
      </trkpt>
      <trkpt lat="47.78734" lon="-3.61252">
        <ele>30.39999961853</ele>
        <time>2019-08-15T09:35:57.000Z</time>
      </trkpt>
      <trkpt lat="47.78735" lon="-3.61259">
        <ele>30.200000762939</ele>
        <time>2019-08-15T09:35:58.000Z</time>
      </trkpt>
      <trkpt lat="47.78736" lon="-3.61267">
        <ele>29.799999237061</ele>
        <time>2019-08-15T09:35:59.000Z</time>
      </trkpt>
      <trkpt lat="47.78736" lon="-3.61274">
        <ele>29.799999237061</ele>
        <time>2019-08-15T09:36:00.000Z</time>
      </trkpt>
      <trkpt lat="47.78737" lon="-3.61281">
        <ele>29.60000038147</ele>
        <time>2019-08-15T09:36:01.000Z</time>
      </trkpt>
      <trkpt lat="47.78738" lon="-3.61288">
        <ele>29.60000038147</ele>
        <time>2019-08-15T09:36:02.000Z</time>
      </trkpt>
      <trkpt lat="47.7874" lon="-3.61308">
        <ele>28.200000762939</ele>
        <time>2019-08-15T09:36:05.000Z</time>
      </trkpt>
      <trkpt lat="47.7874" lon="-3.61315">
        <ele>27.799999237061</ele>
        <time>2019-08-15T09:36:06.000Z</time>
      </trkpt>
      <trkpt lat="47.78741" lon="-3.61322">
        <ele>27.799999237061</ele>
        <time>2019-08-15T09:36:07.000Z</time>
      </trkpt>
      <trkpt lat="47.78743" lon="-3.61341">
        <ele>27.799999237061</ele>
        <time>2019-08-15T09:36:10.000Z</time>
      </trkpt>
      <trkpt lat="47.78744" lon="-3.61348">
        <ele>27.39999961853</ele>
        <time>2019-08-15T09:36:11.000Z</time>
      </trkpt>
      <trkpt lat="47.78744" lon="-3.61356">
        <ele>27.39999961853</ele>
        <time>2019-08-15T09:36:12.000Z</time>
      </trkpt>
      <trkpt lat="47.78745" lon="-3.61364">
        <ele>27</ele>
        <time>2019-08-15T09:36:13.000Z</time>
      </trkpt>
      <trkpt lat="47.78746" lon="-3.61371">
        <ele>27</ele>
        <time>2019-08-15T09:36:14.000Z</time>
      </trkpt>
      <trkpt lat="47.78747" lon="-3.61378">
        <ele>26.799999237061</ele>
        <time>2019-08-15T09:36:15.000Z</time>
      </trkpt>
      <trkpt lat="47.78748" lon="-3.61385">
        <ele>26.799999237061</ele>
        <time>2019-08-15T09:36:16.000Z</time>
      </trkpt>
      <trkpt lat="47.7875" lon="-3.61404">
        <ele>26.60000038147</ele>
        <time>2019-08-15T09:36:19.000Z</time>
      </trkpt>
      <trkpt lat="47.78751" lon="-3.61411">
        <ele>26.200000762939</ele>
        <time>2019-08-15T09:36:20.000Z</time>
      </trkpt>
      <trkpt lat="47.7876" lon="-3.61422">
        <ele>26.200000762939</ele>
        <time>2019-08-15T09:36:23.000Z</time>
      </trkpt>
      <trkpt lat="47.78763" lon="-3.61425">
        <ele>26.200000762939</ele>
        <time>2019-08-15T09:36:24.000Z</time>
      </trkpt>
      <trkpt lat="47.78774" lon="-3.61431">
        <ele>26.200000762939</ele>
        <time>2019-08-15T09:36:27.000Z</time>
      </trkpt>
      <trkpt lat="47.78778" lon="-3.61432">
        <ele>26.200000762939</ele>
        <time>2019-08-15T09:36:28.000Z</time>
      </trkpt>
      <trkpt lat="47.78784" lon="-3.61433">
        <ele>26.39999961853</ele>
        <time>2019-08-15T09:36:30.000Z</time>
      </trkpt>
      <trkpt lat="47.78794" lon="-3.61436">
        <ele>26.39999961853</ele>
        <time>2019-08-15T09:36:34.000Z</time>
      </trkpt>
      <trkpt lat="47.78803" lon="-3.61439">
        <ele>26.39999961853</ele>
        <time>2019-08-15T09:36:40.000Z</time>
      </trkpt>
      <trkpt lat="47.78809" lon="-3.61437">
        <ele>26.39999961853</ele>
        <time>2019-08-15T09:36:44.000Z</time>
      </trkpt>
      <trkpt lat="47.78815" lon="-3.6144">
        <ele>26.39999961853</ele>
        <time>2019-08-15T09:36:47.000Z</time>
      </trkpt>
      <trkpt lat="47.78823" lon="-3.61444">
        <ele>26.60000038147</ele>
        <time>2019-08-15T09:36:51.000Z</time>
      </trkpt>
      <trkpt lat="47.7883" lon="-3.61446">
        <ele>27</ele>
        <time>2019-08-15T09:36:54.000Z</time>
      </trkpt>
      <trkpt lat="47.78832" lon="-3.61447">
        <ele>27.200000762939</ele>
        <time>2019-08-15T09:36:55.000Z</time>
      </trkpt>
      <trkpt lat="47.78834" lon="-3.61448">
        <ele>27.200000762939</ele>
        <time>2019-08-15T09:36:56.000Z</time>
      </trkpt>
      <trkpt lat="47.78836" lon="-3.61449">
        <ele>27.200000762939</ele>
        <time>2019-08-15T09:36:57.000Z</time>
      </trkpt>
      <trkpt lat="47.78838" lon="-3.6145">
        <ele>27.200000762939</ele>
        <time>2019-08-15T09:36:58.000Z</time>
      </trkpt>
      <trkpt lat="47.78843" lon="-3.61453">
        <ele>27.799999237061</ele>
        <time>2019-08-15T09:37:01.000Z</time>
      </trkpt>
      <trkpt lat="47.78845" lon="-3.61454">
        <ele>28</ele>
        <time>2019-08-15T09:37:02.000Z</time>
      </trkpt>
      <trkpt lat="47.78864" lon="-3.61459">
        <ele>29</ele>
        <time>2019-08-15T09:37:10.000Z</time>
      </trkpt>
      <trkpt lat="47.78866" lon="-3.61458">
        <ele>29</ele>
        <time>2019-08-15T09:37:11.000Z</time>
      </trkpt>
      <trkpt lat="47.78872" lon="-3.61457">
        <ele>29.200000762939</ele>
        <time>2019-08-15T09:37:13.000Z</time>
      </trkpt>
      <trkpt lat="47.78876" lon="-3.61457">
        <ele>29.39999961853</ele>
        <time>2019-08-15T09:37:15.000Z</time>
      </trkpt>
      <trkpt lat="47.78879" lon="-3.61457">
        <ele>29.60000038147</ele>
        <time>2019-08-15T09:37:16.000Z</time>
      </trkpt>
      <trkpt lat="47.78908" lon="-3.61452">
        <ele>30.200000762939</ele>
        <time>2019-08-15T09:37:25.000Z</time>
      </trkpt>
      <trkpt lat="47.78915" lon="-3.61452">
        <ele>30.200000762939</ele>
        <time>2019-08-15T09:37:27.000Z</time>
      </trkpt>
      <trkpt lat="47.78919" lon="-3.61451">
        <ele>30.200000762939</ele>
        <time>2019-08-15T09:37:28.000Z</time>
      </trkpt>
      <trkpt lat="47.78922" lon="-3.61449">
        <ele>30.39999961853</ele>
        <time>2019-08-15T09:37:29.000Z</time>
      </trkpt>
      <trkpt lat="47.78925" lon="-3.61447">
        <ele>30.200000762939</ele>
        <time>2019-08-15T09:37:30.000Z</time>
      </trkpt>
      <trkpt lat="47.78928" lon="-3.61445">
        <ele>30.200000762939</ele>
        <time>2019-08-15T09:37:31.000Z</time>
      </trkpt>
      <trkpt lat="47.78931" lon="-3.61443">
        <ele>30.200000762939</ele>
        <time>2019-08-15T09:37:32.000Z</time>
      </trkpt>
      <trkpt lat="47.78942" lon="-3.61438">
        <ele>30.200000762939</ele>
        <time>2019-08-15T09:37:35.000Z</time>
      </trkpt>
      <trkpt lat="47.78945" lon="-3.61437">
        <ele>30.200000762939</ele>
        <time>2019-08-15T09:37:36.000Z</time>
      </trkpt>
      <trkpt lat="47.78952" lon="-3.61433">
        <ele>30.200000762939</ele>
        <time>2019-08-15T09:37:38.000Z</time>
      </trkpt>
      <trkpt lat="47.78959" lon="-3.61431">
        <ele>30.200000762939</ele>
        <time>2019-08-15T09:37:40.000Z</time>
      </trkpt>
      <trkpt lat="47.78962" lon="-3.61429">
        <ele>30.200000762939</ele>
        <time>2019-08-15T09:37:41.000Z</time>
      </trkpt>
      <trkpt lat="47.78969" lon="-3.61426">
        <ele>30</ele>
        <time>2019-08-15T09:37:43.000Z</time>
      </trkpt>
      <trkpt lat="47.78979" lon="-3.6142">
        <ele>29.799999237061</ele>
        <time>2019-08-15T09:37:46.000Z</time>
      </trkpt>
      <trkpt lat="47.78983" lon="-3.61418">
        <ele>29.799999237061</ele>
        <time>2019-08-15T09:37:47.000Z</time>
      </trkpt>
      <trkpt lat="47.78998" lon="-3.61408">
        <ele>29.799999237061</ele>
        <time>2019-08-15T09:37:52.000Z</time>
      </trkpt>
      <trkpt lat="47.79007" lon="-3.61406">
        <ele>30</ele>
        <time>2019-08-15T09:37:56.000Z</time>
      </trkpt>
      <trkpt lat="47.79013" lon="-3.61425">
        <ele>30.39999961853</ele>
        <time>2019-08-15T09:38:01.000Z</time>
      </trkpt>
      <trkpt lat="47.79016" lon="-3.61432">
        <ele>30.200000762939</ele>
        <time>2019-08-15T09:38:03.000Z</time>
      </trkpt>
      <trkpt lat="47.79018" lon="-3.61441">
        <ele>30.39999961853</ele>
        <time>2019-08-15T09:38:05.000Z</time>
      </trkpt>
      <trkpt lat="47.79022" lon="-3.61466">
        <ele>30.60000038147</ele>
        <time>2019-08-15T09:38:10.000Z</time>
      </trkpt>
      <trkpt lat="47.79023" lon="-3.61472">
        <ele>30.60000038147</ele>
        <time>2019-08-15T09:38:11.000Z</time>
      </trkpt>
      <trkpt lat="47.79027" lon="-3.615">
        <ele>31.200000762939</ele>
        <time>2019-08-15T09:38:16.000Z</time>
      </trkpt>
      <trkpt lat="47.79029" lon="-3.61513">
        <ele>31.60000038147</ele>
        <time>2019-08-15T09:38:18.000Z</time>
      </trkpt>
      <trkpt lat="47.7903" lon="-3.61525">
        <ele>31.799999237061</ele>
        <time>2019-08-15T09:38:20.000Z</time>
      </trkpt>
      <trkpt lat="47.79031" lon="-3.61539">
        <ele>32</ele>
        <time>2019-08-15T09:38:22.000Z</time>
      </trkpt>
      <trkpt lat="47.79031" lon="-3.61559">
        <ele>32.400001525879</ele>
        <time>2019-08-15T09:38:25.000Z</time>
      </trkpt>
      <trkpt lat="47.79033" lon="-3.61579">
        <ele>32.599998474121</ele>
        <time>2019-08-15T09:38:28.000Z</time>
      </trkpt>
      <trkpt lat="47.79038" lon="-3.61633">
        <ele>32.799999237061</ele>
        <time>2019-08-15T09:38:36.000Z</time>
      </trkpt>
      <trkpt lat="47.79042" lon="-3.6168">
        <ele>33.200000762939</ele>
        <time>2019-08-15T09:38:43.000Z</time>
      </trkpt>
      <trkpt lat="47.79043" lon="-3.61687">
        <ele>33.400001525879</ele>
        <time>2019-08-15T09:38:44.000Z</time>
      </trkpt>
      <trkpt lat="47.79046" lon="-3.61708">
        <ele>33.599998474121</ele>
        <time>2019-08-15T09:38:47.000Z</time>
      </trkpt>
      <trkpt lat="47.79047" lon="-3.61715">
        <ele>33.599998474121</ele>
        <time>2019-08-15T09:38:48.000Z</time>
      </trkpt>
      <trkpt lat="47.79054" lon="-3.61759">
        <ele>33.799999237061</ele>
        <time>2019-08-15T09:38:54.000Z</time>
      </trkpt>
      <trkpt lat="47.79064" lon="-3.61813">
        <ele>33.599998474121</ele>
        <time>2019-08-15T09:39:01.000Z</time>
      </trkpt>
      <trkpt lat="47.79065" lon="-3.61821">
        <ele>33.400001525879</ele>
        <time>2019-08-15T09:39:02.000Z</time>
      </trkpt>
      <trkpt lat="47.79067" lon="-3.61855">
        <ele>33.599998474121</ele>
        <time>2019-08-15T09:39:06.000Z</time>
      </trkpt>
      <trkpt lat="47.79066" lon="-3.61863">
        <ele>33.400001525879</ele>
        <time>2019-08-15T09:39:07.000Z</time>
      </trkpt>
      <trkpt lat="47.79064" lon="-3.61871">
        <ele>33.400001525879</ele>
        <time>2019-08-15T09:39:08.000Z</time>
      </trkpt>
      <trkpt lat="47.79057" lon="-3.61884">
        <ele>33.200000762939</ele>
        <time>2019-08-15T09:39:10.000Z</time>
      </trkpt>
      <trkpt lat="47.79053" lon="-3.6189">
        <ele>33.200000762939</ele>
        <time>2019-08-15T09:39:11.000Z</time>
      </trkpt>
      <trkpt lat="47.79048" lon="-3.61894">
        <ele>33.200000762939</ele>
        <time>2019-08-15T09:39:12.000Z</time>
      </trkpt>
      <trkpt lat="47.79035" lon="-3.61906">
        <ele>33.200000762939</ele>
        <time>2019-08-15T09:39:15.000Z</time>
      </trkpt>
      <trkpt lat="47.79012" lon="-3.61924">
        <ele>33.799999237061</ele>
        <time>2019-08-15T09:39:21.000Z</time>
      </trkpt>
      <trkpt lat="47.79009" lon="-3.61927">
        <ele>34</ele>
        <time>2019-08-15T09:39:22.000Z</time>
      </trkpt>
      <trkpt lat="47.79005" lon="-3.61937">
        <ele>34.200000762939</ele>
        <time>2019-08-15T09:39:24.000Z</time>
      </trkpt>
      <trkpt lat="47.79005" lon="-3.61943">
        <ele>34.200000762939</ele>
        <time>2019-08-15T09:39:25.000Z</time>
      </trkpt>
      <trkpt lat="47.79006" lon="-3.61957">
        <ele>34.400001525879</ele>
        <time>2019-08-15T09:39:27.000Z</time>
      </trkpt>
      <trkpt lat="47.79007" lon="-3.61989">
        <ele>34.799999237061</ele>
        <time>2019-08-15T09:39:31.000Z</time>
      </trkpt>
      <trkpt lat="47.79007" lon="-3.61997">
        <ele>34.799999237061</ele>
        <time>2019-08-15T09:39:32.000Z</time>
      </trkpt>
      <trkpt lat="47.79007" lon="-3.62036">
        <ele>34.200000762939</ele>
        <time>2019-08-15T09:39:36.000Z</time>
      </trkpt>
      <trkpt lat="47.79007" lon="-3.62047">
        <ele>34.200000762939</ele>
        <time>2019-08-15T09:39:37.000Z</time>
      </trkpt>
      <trkpt lat="47.79007" lon="-3.6208">
        <ele>33.799999237061</ele>
        <time>2019-08-15T09:39:40.000Z</time>
      </trkpt>
      <trkpt lat="47.79007" lon="-3.62091">
        <ele>33.599998474121</ele>
        <time>2019-08-15T09:39:41.000Z</time>
      </trkpt>
      <trkpt lat="47.79008" lon="-3.62102">
        <ele>33.400001525879</ele>
        <time>2019-08-15T09:39:42.000Z</time>
      </trkpt>
      <trkpt lat="47.79009" lon="-3.62113">
        <ele>33.200000762939</ele>
        <time>2019-08-15T09:39:43.000Z</time>
      </trkpt>
      <trkpt lat="47.79017" lon="-3.62158">
        <ele>32.599998474121</ele>
        <time>2019-08-15T09:39:47.000Z</time>
      </trkpt>
      <trkpt lat="47.79022" lon="-3.6218">
        <ele>32.400001525879</ele>
        <time>2019-08-15T09:39:49.000Z</time>
      </trkpt>
      <trkpt lat="47.79031" lon="-3.62219">
        <ele>32.200000762939</ele>
        <time>2019-08-15T09:39:53.000Z</time>
      </trkpt>
      <trkpt lat="47.7904" lon="-3.62262">
        <ele>32.200000762939</ele>
        <time>2019-08-15T09:39:58.000Z</time>
      </trkpt>
      <trkpt lat="47.79048" lon="-3.62269">
        <ele>32.200000762939</ele>
        <time>2019-08-15T09:40:00.000Z</time>
      </trkpt>
      <trkpt lat="47.79053" lon="-3.62268">
        <ele>32.200000762939</ele>
        <time>2019-08-15T09:40:01.000Z</time>
      </trkpt>
      <trkpt lat="47.79083" lon="-3.62258">
        <ele>32</ele>
        <time>2019-08-15T09:40:06.000Z</time>
      </trkpt>
      <trkpt lat="47.7909" lon="-3.62258">
        <ele>32</ele>
        <time>2019-08-15T09:40:07.000Z</time>
      </trkpt>
      <trkpt lat="47.79096" lon="-3.62259">
        <ele>31.799999237061</ele>
        <time>2019-08-15T09:40:08.000Z</time>
      </trkpt>
      <trkpt lat="47.79102" lon="-3.62261">
        <ele>32</ele>
        <time>2019-08-15T09:40:09.000Z</time>
      </trkpt>
      <trkpt lat="47.79107" lon="-3.62266">
        <ele>31.799999237061</ele>
        <time>2019-08-15T09:40:10.000Z</time>
      </trkpt>
      <trkpt lat="47.79115" lon="-3.62278">
        <ele>31.39999961853</ele>
        <time>2019-08-15T09:40:12.000Z</time>
      </trkpt>
      <trkpt lat="47.79118" lon="-3.62286">
        <ele>31.200000762939</ele>
        <time>2019-08-15T09:40:13.000Z</time>
      </trkpt>
      <trkpt lat="47.79119" lon="-3.62294">
        <ele>31</ele>
        <time>2019-08-15T09:40:14.000Z</time>
      </trkpt>
      <trkpt lat="47.79123" lon="-3.62308">
        <ele>31</ele>
        <time>2019-08-15T09:40:16.000Z</time>
      </trkpt>
      <trkpt lat="47.79126" lon="-3.62314">
        <ele>30.799999237061</ele>
        <time>2019-08-15T09:40:17.000Z</time>
      </trkpt>
      <trkpt lat="47.7913" lon="-3.62316">
        <ele>31</ele>
        <time>2019-08-15T09:40:18.000Z</time>
      </trkpt>
      <trkpt lat="47.79134" lon="-3.62318">
        <ele>31</ele>
        <time>2019-08-15T09:40:19.000Z</time>
      </trkpt>
      <trkpt lat="47.79143" lon="-3.62319">
        <ele>31.200000762939</ele>
        <time>2019-08-15T09:40:21.000Z</time>
      </trkpt>
      <trkpt lat="47.79148" lon="-3.62317">
        <ele>31.200000762939</ele>
        <time>2019-08-15T09:40:22.000Z</time>
      </trkpt>
      <trkpt lat="47.79152" lon="-3.62316">
        <ele>31.39999961853</ele>
        <time>2019-08-15T09:40:23.000Z</time>
      </trkpt>
      <trkpt lat="47.79156" lon="-3.62316">
        <ele>31.60000038147</ele>
        <time>2019-08-15T09:40:24.000Z</time>
      </trkpt>
      <trkpt lat="47.79164" lon="-3.62314">
        <ele>31.799999237061</ele>
        <time>2019-08-15T09:40:26.000Z</time>
      </trkpt>
      <trkpt lat="47.79172" lon="-3.62309">
        <ele>32.400001525879</ele>
        <time>2019-08-15T09:40:29.000Z</time>
      </trkpt>
      <trkpt lat="47.79174" lon="-3.6231">
        <ele>32.599998474121</ele>
        <time>2019-08-15T09:40:30.000Z</time>
      </trkpt>
      <trkpt lat="47.79171" lon="-3.62312">
        <ele>33</ele>
        <time>2019-08-15T09:40:33.000Z</time>
      </trkpt>
      <trkpt lat="47.79164" lon="-3.62315">
        <ele>33.200000762939</ele>
        <time>2019-08-15T09:40:37.000Z</time>
      </trkpt>
      <trkpt lat="47.79162" lon="-3.62319">
        <ele>33</ele>
        <time>2019-08-15T09:40:38.000Z</time>
      </trkpt>
      <trkpt lat="47.79156" lon="-3.62335">
        <ele>32.599998474121</ele>
        <time>2019-08-15T09:40:42.000Z</time>
      </trkpt>
      <trkpt lat="47.79154" lon="-3.62339">
        <ele>32.599998474121</ele>
        <time>2019-08-15T09:40:43.000Z</time>
      </trkpt>
      <trkpt lat="47.79151" lon="-3.62346">
        <ele>32.400001525879</ele>
        <time>2019-08-15T09:40:45.000Z</time>
      </trkpt>
      <trkpt lat="47.7915" lon="-3.6235">
        <ele>32.400001525879</ele>
        <time>2019-08-15T09:40:46.000Z</time>
      </trkpt>
      <trkpt lat="47.7915" lon="-3.62355">
        <ele>32.599998474121</ele>
        <time>2019-08-15T09:40:47.000Z</time>
      </trkpt>
      <trkpt lat="47.79151" lon="-3.62365">
        <ele>32.799999237061</ele>
        <time>2019-08-15T09:40:49.000Z</time>
      </trkpt>
      <trkpt lat="47.79151" lon="-3.62375">
        <ele>32.799999237061</ele>
        <time>2019-08-15T09:40:51.000Z</time>
      </trkpt>
      <trkpt lat="47.79152" lon="-3.62392">
        <ele>33.200000762939</ele>
        <time>2019-08-15T09:40:54.000Z</time>
      </trkpt>
      <trkpt lat="47.79151" lon="-3.62398">
        <ele>33.200000762939</ele>
        <time>2019-08-15T09:40:55.000Z</time>
      </trkpt>
      <trkpt lat="47.79148" lon="-3.62416">
        <ele>33.400001525879</ele>
        <time>2019-08-15T09:40:58.000Z</time>
      </trkpt>
      <trkpt lat="47.79147" lon="-3.62423">
        <ele>33.400001525879</ele>
        <time>2019-08-15T09:40:59.000Z</time>
      </trkpt>
      <trkpt lat="47.79147" lon="-3.62428">
        <ele>33.599998474121</ele>
        <time>2019-08-15T09:41:00.000Z</time>
      </trkpt>
      <trkpt lat="47.79147" lon="-3.62431">
        <ele>33.599998474121</ele>
        <time>2019-08-15T09:41:01.000Z</time>
      </trkpt>
      <trkpt lat="47.79145" lon="-3.62441">
        <ele>33.599998474121</ele>
        <time>2019-08-15T09:41:03.000Z</time>
      </trkpt>
      <trkpt lat="47.79143" lon="-3.62454">
        <ele>33.400001525879</ele>
        <time>2019-08-15T09:41:06.000Z</time>
      </trkpt>
      <trkpt lat="47.79144" lon="-3.6246">
        <ele>33.200000762939</ele>
        <time>2019-08-15T09:41:08.000Z</time>
      </trkpt>
      <trkpt lat="47.79146" lon="-3.62462">
        <ele>33</ele>
        <time>2019-08-15T09:41:09.000Z</time>
      </trkpt>
      <trkpt lat="47.79152" lon="-3.62465">
        <ele>33</ele>
        <time>2019-08-15T09:41:11.000Z</time>
      </trkpt>
      <trkpt lat="47.79166" lon="-3.62471">
        <ele>33</ele>
        <time>2019-08-15T09:41:15.000Z</time>
      </trkpt>
      <trkpt lat="47.7917" lon="-3.62473">
        <ele>33</ele>
        <time>2019-08-15T09:41:16.000Z</time>
      </trkpt>
      <trkpt lat="47.79173" lon="-3.62473">
        <ele>33.200000762939</ele>
        <time>2019-08-15T09:41:17.000Z</time>
      </trkpt>
      <trkpt lat="47.7919" lon="-3.62474">
        <ele>33.400001525879</ele>
        <time>2019-08-15T09:41:21.000Z</time>
      </trkpt>
      <trkpt lat="47.7921" lon="-3.62476">
        <ele>33.799999237061</ele>
        <time>2019-08-15T09:41:26.000Z</time>
      </trkpt>
      <trkpt lat="47.79213" lon="-3.62476">
        <ele>34</ele>
        <time>2019-08-15T09:41:27.000Z</time>
      </trkpt>
      <trkpt lat="47.79216" lon="-3.62476">
        <ele>33.799999237061</ele>
        <time>2019-08-15T09:41:28.000Z</time>
      </trkpt>
      <trkpt lat="47.79232" lon="-3.62474">
        <ele>34.400001525879</ele>
        <time>2019-08-15T09:41:33.000Z</time>
      </trkpt>
      <trkpt lat="47.7924" lon="-3.62471">
        <ele>35.200000762939</ele>
        <time>2019-08-15T09:41:36.000Z</time>
      </trkpt>
      <trkpt lat="47.79242" lon="-3.62471">
        <ele>35.400001525879</ele>
        <time>2019-08-15T09:41:37.000Z</time>
      </trkpt>
      <trkpt lat="47.79253" lon="-3.62469">
        <ele>36.599998474121</ele>
        <time>2019-08-15T09:41:41.000Z</time>
      </trkpt>
      <trkpt lat="47.79259" lon="-3.62467">
        <ele>37</ele>
        <time>2019-08-15T09:41:43.000Z</time>
      </trkpt>
      <trkpt lat="47.79262" lon="-3.62468">
        <ele>37.200000762939</ele>
        <time>2019-08-15T09:41:44.000Z</time>
      </trkpt>
      <trkpt lat="47.79267" lon="-3.62475">
        <ele>37.599998474121</ele>
        <time>2019-08-15T09:41:46.000Z</time>
      </trkpt>
      <trkpt lat="47.79268" lon="-3.62497">
        <ele>38.799999237061</ele>
        <time>2019-08-15T09:41:50.000Z</time>
      </trkpt>
      <trkpt lat="47.79269" lon="-3.62504">
        <ele>38.799999237061</ele>
        <time>2019-08-15T09:41:51.000Z</time>
      </trkpt>
      <trkpt lat="47.7927" lon="-3.62516">
        <ele>39.400001525879</ele>
        <time>2019-08-15T09:41:53.000Z</time>
      </trkpt>
      <trkpt lat="47.7927" lon="-3.62521">
        <ele>39.599998474121</ele>
        <time>2019-08-15T09:41:54.000Z</time>
      </trkpt>
      <trkpt lat="47.79269" lon="-3.62546">
        <ele>40</ele>
        <time>2019-08-15T09:41:58.000Z</time>
      </trkpt>
      <trkpt lat="47.7927" lon="-3.62566">
        <ele>40.200000762939</ele>
        <time>2019-08-15T09:42:01.000Z</time>
      </trkpt>
      <trkpt lat="47.7927" lon="-3.62574">
        <ele>40.200000762939</ele>
        <time>2019-08-15T09:42:02.000Z</time>
      </trkpt>
      <trkpt lat="47.79271" lon="-3.62589">
        <ele>40.200000762939</ele>
        <time>2019-08-15T09:42:04.000Z</time>
      </trkpt>
      <trkpt lat="47.79273" lon="-3.62597">
        <ele>40.200000762939</ele>
        <time>2019-08-15T09:42:05.000Z</time>
      </trkpt>
      <trkpt lat="47.79279" lon="-3.6262">
        <ele>40</ele>
        <time>2019-08-15T09:42:08.000Z</time>
      </trkpt>
      <trkpt lat="47.79281" lon="-3.62627">
        <ele>40</ele>
        <time>2019-08-15T09:42:09.000Z</time>
      </trkpt>
      <trkpt lat="47.79285" lon="-3.62643">
        <ele>40</ele>
        <time>2019-08-15T09:42:11.000Z</time>
      </trkpt>
      <trkpt lat="47.79289" lon="-3.62658">
        <ele>39.599998474121</ele>
        <time>2019-08-15T09:42:13.000Z</time>
      </trkpt>
      <trkpt lat="47.7929" lon="-3.62666">
        <ele>39.799999237061</ele>
        <time>2019-08-15T09:42:14.000Z</time>
      </trkpt>
      <trkpt lat="47.79291" lon="-3.62673">
        <ele>39.799999237061</ele>
        <time>2019-08-15T09:42:15.000Z</time>
      </trkpt>
      <trkpt lat="47.79293" lon="-3.62694">
        <ele>39.599998474121</ele>
        <time>2019-08-15T09:42:18.000Z</time>
      </trkpt>
      <trkpt lat="47.79293" lon="-3.62702">
        <ele>39.799999237061</ele>
        <time>2019-08-15T09:42:19.000Z</time>
      </trkpt>
      <trkpt lat="47.79294" lon="-3.62709">
        <ele>39.799999237061</ele>
        <time>2019-08-15T09:42:20.000Z</time>
      </trkpt>
      <trkpt lat="47.79294" lon="-3.62724">
        <ele>39.400001525879</ele>
        <time>2019-08-15T09:42:22.000Z</time>
      </trkpt>
      <trkpt lat="47.79298" lon="-3.62745">
        <ele>39.200000762939</ele>
        <time>2019-08-15T09:42:25.000Z</time>
      </trkpt>
      <trkpt lat="47.79299" lon="-3.62752">
        <ele>39.200000762939</ele>
        <time>2019-08-15T09:42:26.000Z</time>
      </trkpt>
      <trkpt lat="47.793" lon="-3.62765">
        <ele>39.200000762939</ele>
        <time>2019-08-15T09:42:28.000Z</time>
      </trkpt>
      <trkpt lat="47.793" lon="-3.62775">
        <ele>39.200000762939</ele>
        <time>2019-08-15T09:42:29.000Z</time>
      </trkpt>
      <trkpt lat="47.79299" lon="-3.62783">
        <ele>39.200000762939</ele>
        <time>2019-08-15T09:42:30.000Z</time>
      </trkpt>
      <trkpt lat="47.79299" lon="-3.62792">
        <ele>39</ele>
        <time>2019-08-15T09:42:31.000Z</time>
      </trkpt>
      <trkpt lat="47.79298" lon="-3.6281">
        <ele>39.200000762939</ele>
        <time>2019-08-15T09:42:33.000Z</time>
      </trkpt>
      <trkpt lat="47.79296" lon="-3.62827">
        <ele>39</ele>
        <time>2019-08-15T09:42:35.000Z</time>
      </trkpt>
      <trkpt lat="47.79295" lon="-3.62837">
        <ele>38.799999237061</ele>
        <time>2019-08-15T09:42:36.000Z</time>
      </trkpt>
      <trkpt lat="47.79294" lon="-3.62845">
        <ele>39</ele>
        <time>2019-08-15T09:42:37.000Z</time>
      </trkpt>
      <trkpt lat="47.79293" lon="-3.62862">
        <ele>38.799999237061</ele>
        <time>2019-08-15T09:42:39.000Z</time>
      </trkpt>
      <trkpt lat="47.79292" lon="-3.6287">
        <ele>38.200000762939</ele>
        <time>2019-08-15T09:42:40.000Z</time>
      </trkpt>
      <trkpt lat="47.79292" lon="-3.62878">
        <ele>37.799999237061</ele>
        <time>2019-08-15T09:42:41.000Z</time>
      </trkpt>
      <trkpt lat="47.79291" lon="-3.62896">
        <ele>37</ele>
        <time>2019-08-15T09:42:43.000Z</time>
      </trkpt>
      <trkpt lat="47.79288" lon="-3.62917">
        <ele>36.599998474121</ele>
        <time>2019-08-15T09:42:45.000Z</time>
      </trkpt>
      <trkpt lat="47.79288" lon="-3.6293">
        <ele>36.400001525879</ele>
        <time>2019-08-15T09:42:46.000Z</time>
      </trkpt>
      <trkpt lat="47.79288" lon="-3.62942">
        <ele>36</ele>
        <time>2019-08-15T09:42:47.000Z</time>
      </trkpt>
      <trkpt lat="47.79289" lon="-3.62953">
        <ele>35.599998474121</ele>
        <time>2019-08-15T09:42:48.000Z</time>
      </trkpt>
      <trkpt lat="47.79289" lon="-3.62966">
        <ele>34.799999237061</ele>
        <time>2019-08-15T09:42:49.000Z</time>
      </trkpt>
      <trkpt lat="47.79288" lon="-3.62977">
        <ele>34.599998474121</ele>
        <time>2019-08-15T09:42:50.000Z</time>
      </trkpt>
      <trkpt lat="47.79288" lon="-3.62989">
        <ele>34.200000762939</ele>
        <time>2019-08-15T09:42:51.000Z</time>
      </trkpt>
      <trkpt lat="47.79288" lon="-3.6301">
        <ele>32.799999237061</ele>
        <time>2019-08-15T09:42:53.000Z</time>
      </trkpt>
      <trkpt lat="47.79289" lon="-3.63029">
        <ele>31.799999237061</ele>
        <time>2019-08-15T09:42:55.000Z</time>
      </trkpt>
      <trkpt lat="47.79289" lon="-3.63039">
        <ele>31.200000762939</ele>
        <time>2019-08-15T09:42:56.000Z</time>
      </trkpt>
      <trkpt lat="47.79289" lon="-3.63048">
        <ele>31</ele>
        <time>2019-08-15T09:42:57.000Z</time>
      </trkpt>
      <trkpt lat="47.79291" lon="-3.63056">
        <ele>30.39999961853</ele>
        <time>2019-08-15T09:42:58.000Z</time>
      </trkpt>
      <trkpt lat="47.79292" lon="-3.63064">
        <ele>30.200000762939</ele>
        <time>2019-08-15T09:42:59.000Z</time>
      </trkpt>
      <trkpt lat="47.79295" lon="-3.63085">
        <ele>29.39999961853</ele>
        <time>2019-08-15T09:43:01.000Z</time>
      </trkpt>
      <trkpt lat="47.79295" lon="-3.63092">
        <ele>29</ele>
        <time>2019-08-15T09:43:02.000Z</time>
      </trkpt>
      <trkpt lat="47.79296" lon="-3.631">
        <ele>28.799999237061</ele>
        <time>2019-08-15T09:43:03.000Z</time>
      </trkpt>
      <trkpt lat="47.79296" lon="-3.63108">
        <ele>28.60000038147</ele>
        <time>2019-08-15T09:43:04.000Z</time>
      </trkpt>
      <trkpt lat="47.79297" lon="-3.63115">
        <ele>28.200000762939</ele>
        <time>2019-08-15T09:43:05.000Z</time>
      </trkpt>
      <trkpt lat="47.793" lon="-3.63126">
        <ele>27.39999961853</ele>
        <time>2019-08-15T09:43:07.000Z</time>
      </trkpt>
      <trkpt lat="47.79302" lon="-3.63132">
        <ele>26.799999237061</ele>
        <time>2019-08-15T09:43:08.000Z</time>
      </trkpt>
      <trkpt lat="47.79305" lon="-3.63136">
        <ele>26.799999237061</ele>
        <time>2019-08-15T09:43:09.000Z</time>
      </trkpt>
      <trkpt lat="47.79308" lon="-3.63137">
        <ele>26.39999961853</ele>
        <time>2019-08-15T09:43:10.000Z</time>
      </trkpt>
      <trkpt lat="47.79311" lon="-3.63139">
        <ele>26.200000762939</ele>
        <time>2019-08-15T09:43:11.000Z</time>
      </trkpt>
      <trkpt lat="47.79322" lon="-3.63149">
        <ele>25.200000762939</ele>
        <time>2019-08-15T09:43:15.000Z</time>
      </trkpt>
      <trkpt lat="47.79327" lon="-3.63156">
        <ele>25.200000762939</ele>
        <time>2019-08-15T09:43:17.000Z</time>
      </trkpt>
      <trkpt lat="47.79333" lon="-3.63163">
        <ele>25</ele>
        <time>2019-08-15T09:43:19.000Z</time>
      </trkpt>
      <trkpt lat="47.79336" lon="-3.63171">
        <ele>24.799999237061</ele>
        <time>2019-08-15T09:43:20.000Z</time>
      </trkpt>
      <trkpt lat="47.79339" lon="-3.63187">
        <ele>24.799999237061</ele>
        <time>2019-08-15T09:43:22.000Z</time>
      </trkpt>
      <trkpt lat="47.79338" lon="-3.63201">
        <ele>24.39999961853</ele>
        <time>2019-08-15T09:43:24.000Z</time>
      </trkpt>
      <trkpt lat="47.79333" lon="-3.63223">
        <ele>24</ele>
        <time>2019-08-15T09:43:27.000Z</time>
      </trkpt>
      <trkpt lat="47.79332" lon="-3.6323">
        <ele>23.39999961853</ele>
        <time>2019-08-15T09:43:28.000Z</time>
      </trkpt>
      <trkpt lat="47.79333" lon="-3.63244">
        <ele>22.39999961853</ele>
        <time>2019-08-15T09:43:31.000Z</time>
      </trkpt>
      <trkpt lat="47.79336" lon="-3.6325">
        <ele>22</ele>
        <time>2019-08-15T09:43:33.000Z</time>
      </trkpt>
      <trkpt lat="47.79342" lon="-3.63252">
        <ele>21.799999237061</ele>
        <time>2019-08-15T09:43:35.000Z</time>
      </trkpt>
      <trkpt lat="47.79346" lon="-3.63254">
        <ele>21.60000038147</ele>
        <time>2019-08-15T09:43:37.000Z</time>
      </trkpt>
      <trkpt lat="47.79354" lon="-3.63257">
        <ele>21.60000038147</ele>
        <time>2019-08-15T09:43:40.000Z</time>
      </trkpt>
      <trkpt lat="47.79362" lon="-3.6326">
        <ele>22.200000762939</ele>
        <time>2019-08-15T09:43:43.000Z</time>
      </trkpt>
      <trkpt lat="47.79364" lon="-3.63261">
        <ele>22.60000038147</ele>
        <time>2019-08-15T09:43:44.000Z</time>
      </trkpt>
      <trkpt lat="47.79372" lon="-3.63262">
        <ele>23.39999961853</ele>
        <time>2019-08-15T09:43:47.000Z</time>
      </trkpt>
      <trkpt lat="47.79379" lon="-3.63263">
        <ele>24.200000762939</ele>
        <time>2019-08-15T09:43:50.000Z</time>
      </trkpt>
      <trkpt lat="47.79384" lon="-3.63262">
        <ele>24.799999237061</ele>
        <time>2019-08-15T09:43:52.000Z</time>
      </trkpt>
      <trkpt lat="47.79397" lon="-3.63265">
        <ele>26.200000762939</ele>
        <time>2019-08-15T09:43:57.000Z</time>
      </trkpt>
      <trkpt lat="47.79404" lon="-3.63267">
        <ele>27</ele>
        <time>2019-08-15T09:43:59.000Z</time>
      </trkpt>
      <trkpt lat="47.79419" lon="-3.63271">
        <ele>28.200000762939</ele>
        <time>2019-08-15T09:44:04.000Z</time>
      </trkpt>
      <trkpt lat="47.79443" lon="-3.63275">
        <ele>28.200000762939</ele>
        <time>2019-08-15T09:44:10.000Z</time>
      </trkpt>
      <trkpt lat="47.79473" lon="-3.63276">
        <ele>28.39999961853</ele>
        <time>2019-08-15T09:44:15.000Z</time>
      </trkpt>
      <trkpt lat="47.7948" lon="-3.63276">
        <ele>28.200000762939</ele>
        <time>2019-08-15T09:44:16.000Z</time>
      </trkpt>
      <trkpt lat="47.79489" lon="-3.63275">
        <ele>28</ele>
        <time>2019-08-15T09:44:17.000Z</time>
      </trkpt>
      <trkpt lat="47.79497" lon="-3.63275">
        <ele>28</ele>
        <time>2019-08-15T09:44:18.000Z</time>
      </trkpt>
      <trkpt lat="47.79515" lon="-3.63271">
        <ele>27.60000038147</ele>
        <time>2019-08-15T09:44:20.000Z</time>
      </trkpt>
      <trkpt lat="47.79552" lon="-3.63256">
        <ele>25.39999961853</ele>
        <time>2019-08-15T09:44:24.000Z</time>
      </trkpt>
      <trkpt lat="47.79586" lon="-3.63224">
        <ele>23.60000038147</ele>
        <time>2019-08-15T09:44:28.000Z</time>
      </trkpt>
      <trkpt lat="47.79593" lon="-3.63215">
        <ele>23.39999961853</ele>
        <time>2019-08-15T09:44:29.000Z</time>
      </trkpt>
      <trkpt lat="47.79613" lon="-3.63186">
        <ele>22.200000762939</ele>
        <time>2019-08-15T09:44:32.000Z</time>
      </trkpt>
      <trkpt lat="47.7962" lon="-3.63176">
        <ele>21.799999237061</ele>
        <time>2019-08-15T09:44:33.000Z</time>
      </trkpt>
      <trkpt lat="47.79665" lon="-3.63118">
        <ele>20.200000762939</ele>
        <time>2019-08-15T09:44:39.000Z</time>
      </trkpt>
      <trkpt lat="47.79672" lon="-3.6311">
        <ele>20</ele>
        <time>2019-08-15T09:44:40.000Z</time>
      </trkpt>
      <trkpt lat="47.79684" lon="-3.63097">
        <ele>20.200000762939</ele>
        <time>2019-08-15T09:44:42.000Z</time>
      </trkpt>
      <trkpt lat="47.79689" lon="-3.63092">
        <ele>20.200000762939</ele>
        <time>2019-08-15T09:44:43.000Z</time>
      </trkpt>
      <trkpt lat="47.79694" lon="-3.63088">
        <ele>20.39999961853</ele>
        <time>2019-08-15T09:44:44.000Z</time>
      </trkpt>
      <trkpt lat="47.79705" lon="-3.6308">
        <ele>21.799999237061</ele>
        <time>2019-08-15T09:44:47.000Z</time>
      </trkpt>
      <trkpt lat="47.79709" lon="-3.63077">
        <ele>22.200000762939</ele>
        <time>2019-08-15T09:44:48.000Z</time>
      </trkpt>
      <trkpt lat="47.79713" lon="-3.63074">
        <ele>22.799999237061</ele>
        <time>2019-08-15T09:44:50.000Z</time>
      </trkpt>
      <trkpt lat="47.79715" lon="-3.63073">
        <ele>23.200000762939</ele>
        <time>2019-08-15T09:44:51.000Z</time>
      </trkpt>
      <trkpt lat="47.79727" lon="-3.63067">
        <ele>24.200000762939</ele>
        <time>2019-08-15T09:44:55.000Z</time>
      </trkpt>
      <trkpt lat="47.79734" lon="-3.63064">
        <ele>25</ele>
        <time>2019-08-15T09:44:57.000Z</time>
      </trkpt>
      <trkpt lat="47.7975" lon="-3.63057">
        <ele>26.39999961853</ele>
        <time>2019-08-15T09:45:02.000Z</time>
      </trkpt>
      <trkpt lat="47.79754" lon="-3.63055">
        <ele>26.39999961853</ele>
        <time>2019-08-15T09:45:03.000Z</time>
      </trkpt>
      <trkpt lat="47.79765" lon="-3.6305">
        <ele>27.200000762939</ele>
        <time>2019-08-15T09:45:06.000Z</time>
      </trkpt>
      <trkpt lat="47.79783" lon="-3.63043">
        <ele>28</ele>
        <time>2019-08-15T09:45:11.000Z</time>
      </trkpt>
      <trkpt lat="47.79798" lon="-3.63035">
        <ele>28.799999237061</ele>
        <time>2019-08-15T09:45:16.000Z</time>
      </trkpt>
      <trkpt lat="47.798" lon="-3.63035">
        <ele>29</ele>
        <time>2019-08-15T09:45:17.000Z</time>
      </trkpt>
      <trkpt lat="47.79815" lon="-3.6303">
        <ele>30.39999961853</ele>
        <time>2019-08-15T09:45:21.000Z</time>
      </trkpt>
      <trkpt lat="47.79819" lon="-3.63028">
        <ele>30.200000762939</ele>
        <time>2019-08-15T09:45:22.000Z</time>
      </trkpt>
      <trkpt lat="47.79834" lon="-3.63024">
        <ele>31.200000762939</ele>
        <time>2019-08-15T09:45:26.000Z</time>
      </trkpt>
      <trkpt lat="47.79846" lon="-3.63022">
        <ele>32.200000762939</ele>
        <time>2019-08-15T09:45:29.000Z</time>
      </trkpt>
      <trkpt lat="47.79853" lon="-3.63021">
        <ele>32.799999237061</ele>
        <time>2019-08-15T09:45:31.000Z</time>
      </trkpt>
      <trkpt lat="47.79871" lon="-3.63018">
        <ele>34.400001525879</ele>
        <time>2019-08-15T09:45:36.000Z</time>
      </trkpt>
      <trkpt lat="47.79874" lon="-3.63019">
        <ele>34.400001525879</ele>
        <time>2019-08-15T09:45:37.000Z</time>
      </trkpt>
      <trkpt lat="47.79877" lon="-3.63019">
        <ele>34.599998474121</ele>
        <time>2019-08-15T09:45:38.000Z</time>
      </trkpt>
      <trkpt lat="47.79881" lon="-3.63019">
        <ele>34.599998474121</ele>
        <time>2019-08-15T09:45:39.000Z</time>
      </trkpt>
      <trkpt lat="47.79898" lon="-3.6302">
        <ele>35.799999237061</ele>
        <time>2019-08-15T09:45:44.000Z</time>
      </trkpt>
      <trkpt lat="47.7992" lon="-3.63019">
        <ele>36.799999237061</ele>
        <time>2019-08-15T09:45:50.000Z</time>
      </trkpt>
      <trkpt lat="47.79936" lon="-3.63021">
        <ele>37.200000762939</ele>
        <time>2019-08-15T09:45:55.000Z</time>
      </trkpt>
      <trkpt lat="47.79944" lon="-3.63021">
        <ele>37.400001525879</ele>
        <time>2019-08-15T09:45:57.000Z</time>
      </trkpt>
      <trkpt lat="47.79953" lon="-3.63024">
        <ele>38</ele>
        <time>2019-08-15T09:46:01.000Z</time>
      </trkpt>
      <trkpt lat="47.79966" lon="-3.63026">
        <ele>38.400001525879</ele>
        <time>2019-08-15T09:46:05.000Z</time>
      </trkpt>
      <trkpt lat="47.79969" lon="-3.63027">
        <ele>38.400001525879</ele>
        <time>2019-08-15T09:46:06.000Z</time>
      </trkpt>
      <trkpt lat="47.79995" lon="-3.63035">
        <ele>39.799999237061</ele>
        <time>2019-08-15T09:46:14.000Z</time>
      </trkpt>
      <trkpt lat="47.80004" lon="-3.63036">
        <ele>40</ele>
        <time>2019-08-15T09:46:17.000Z</time>
      </trkpt>
      <trkpt lat="47.80007" lon="-3.63036">
        <ele>40</ele>
        <time>2019-08-15T09:46:18.000Z</time>
      </trkpt>
      <trkpt lat="47.80009" lon="-3.63037">
        <ele>40.200000762939</ele>
        <time>2019-08-15T09:46:19.000Z</time>
      </trkpt>
      <trkpt lat="47.80015" lon="-3.63038">
        <ele>40.400001525879</ele>
        <time>2019-08-15T09:46:21.000Z</time>
      </trkpt>
      <trkpt lat="47.80021" lon="-3.63041">
        <ele>40.799999237061</ele>
        <time>2019-08-15T09:46:23.000Z</time>
      </trkpt>
      <trkpt lat="47.80025" lon="-3.63043">
        <ele>40.799999237061</ele>
        <time>2019-08-15T09:46:24.000Z</time>
      </trkpt>
      <trkpt lat="47.80052" lon="-3.63046">
        <ele>41</ele>
        <time>2019-08-15T09:46:29.000Z</time>
      </trkpt>
      <trkpt lat="47.80087" lon="-3.63054">
        <ele>41.200000762939</ele>
        <time>2019-08-15T09:46:35.000Z</time>
      </trkpt>
      <trkpt lat="47.80093" lon="-3.63055">
        <ele>41.200000762939</ele>
        <time>2019-08-15T09:46:36.000Z</time>
      </trkpt>
      <trkpt lat="47.8011" lon="-3.63058">
        <ele>41.200000762939</ele>
        <time>2019-08-15T09:46:39.000Z</time>
      </trkpt>
      <trkpt lat="47.80129" lon="-3.63059">
        <ele>41.400001525879</ele>
        <time>2019-08-15T09:46:42.000Z</time>
      </trkpt>
      <trkpt lat="47.8014" lon="-3.6306">
        <ele>41.599998474121</ele>
        <time>2019-08-15T09:46:44.000Z</time>
      </trkpt>
      <trkpt lat="47.80162" lon="-3.63058">
        <ele>41.799999237061</ele>
        <time>2019-08-15T09:46:48.000Z</time>
      </trkpt>
      <trkpt lat="47.80186" lon="-3.63053">
        <ele>42.599998474121</ele>
        <time>2019-08-15T09:46:53.000Z</time>
      </trkpt>
      <trkpt lat="47.80236" lon="-3.63036">
        <ele>43.799999237061</ele>
        <time>2019-08-15T09:47:03.000Z</time>
      </trkpt>
      <trkpt lat="47.80259" lon="-3.63024">
        <ele>44.200000762939</ele>
        <time>2019-08-15T09:47:08.000Z</time>
      </trkpt>
      <trkpt lat="47.80278" lon="-3.63014">
        <ele>44.200000762939</ele>
        <time>2019-08-15T09:47:12.000Z</time>
      </trkpt>
      <trkpt lat="47.80282" lon="-3.63011">
        <ele>44.599998474121</ele>
        <time>2019-08-15T09:47:13.000Z</time>
      </trkpt>
      <trkpt lat="47.80296" lon="-3.63002">
        <ele>44.799999237061</ele>
        <time>2019-08-15T09:47:16.000Z</time>
      </trkpt>
      <trkpt lat="47.80309" lon="-3.62993">
        <ele>45</ele>
        <time>2019-08-15T09:47:19.000Z</time>
      </trkpt>
      <trkpt lat="47.80318" lon="-3.62987">
        <ele>45.400001525879</ele>
        <time>2019-08-15T09:47:21.000Z</time>
      </trkpt>
      <trkpt lat="47.8034" lon="-3.6297">
        <ele>45.799999237061</ele>
        <time>2019-08-15T09:47:26.000Z</time>
      </trkpt>
      <trkpt lat="47.80344" lon="-3.62967">
        <ele>45.599998474121</ele>
        <time>2019-08-15T09:47:27.000Z</time>
      </trkpt>
      <trkpt lat="47.80374" lon="-3.62943">
        <ele>46</ele>
        <time>2019-08-15T09:47:34.000Z</time>
      </trkpt>
      <trkpt lat="47.80392" lon="-3.62931">
        <ele>46.400001525879</ele>
        <time>2019-08-15T09:47:38.000Z</time>
      </trkpt>
      <trkpt lat="47.80414" lon="-3.62917">
        <ele>46.799999237061</ele>
        <time>2019-08-15T09:47:43.000Z</time>
      </trkpt>
      <trkpt lat="47.80456" lon="-3.62901">
        <ele>47.400001525879</ele>
        <time>2019-08-15T09:47:52.000Z</time>
      </trkpt>
      <trkpt lat="47.80461" lon="-3.62899">
        <ele>47.400001525879</ele>
        <time>2019-08-15T09:47:53.000Z</time>
      </trkpt>
      <trkpt lat="47.80492" lon="-3.62889">
        <ele>48</ele>
        <time>2019-08-15T09:47:59.000Z</time>
      </trkpt>
      <trkpt lat="47.80529" lon="-3.62877">
        <ele>48.400001525879</ele>
        <time>2019-08-15T09:48:06.000Z</time>
      </trkpt>
      <trkpt lat="47.8055" lon="-3.62871">
        <ele>48.200000762939</ele>
        <time>2019-08-15T09:48:10.000Z</time>
      </trkpt>
      <trkpt lat="47.80559" lon="-3.62869">
        <ele>48.400001525879</ele>
        <time>2019-08-15T09:48:12.000Z</time>
      </trkpt>
      <trkpt lat="47.80563" lon="-3.62868">
        <ele>48.400001525879</ele>
        <time>2019-08-15T09:48:13.000Z</time>
      </trkpt>
      <trkpt lat="47.80567" lon="-3.62866">
        <ele>48.200000762939</ele>
        <time>2019-08-15T09:48:14.000Z</time>
      </trkpt>
      <trkpt lat="47.80571" lon="-3.62859">
        <ele>48.200000762939</ele>
        <time>2019-08-15T09:48:16.000Z</time>
      </trkpt>
      <trkpt lat="47.80567" lon="-3.62849">
        <ele>48.200000762939</ele>
        <time>2019-08-15T09:48:18.000Z</time>
      </trkpt>
      <trkpt lat="47.80562" lon="-3.62836">
        <ele>48.400001525879</ele>
        <time>2019-08-15T09:48:20.000Z</time>
      </trkpt>
      <trkpt lat="47.80559" lon="-3.62829">
        <ele>48.400001525879</ele>
        <time>2019-08-15T09:48:21.000Z</time>
      </trkpt>
      <trkpt lat="47.80546" lon="-3.62791">
        <ele>48.400001525879</ele>
        <time>2019-08-15T09:48:26.000Z</time>
      </trkpt>
      <trkpt lat="47.80542" lon="-3.62776">
        <ele>48.400001525879</ele>
        <time>2019-08-15T09:48:28.000Z</time>
      </trkpt>
      <trkpt lat="47.80541" lon="-3.62767">
        <ele>48.400001525879</ele>
        <time>2019-08-15T09:48:29.000Z</time>
      </trkpt>
      <trkpt lat="47.80543" lon="-3.62759">
        <ele>48.599998474121</ele>
        <time>2019-08-15T09:48:30.000Z</time>
      </trkpt>
      <trkpt lat="47.80551" lon="-3.62751">
        <ele>48.400001525879</ele>
        <time>2019-08-15T09:48:32.000Z</time>
      </trkpt>
      <trkpt lat="47.80562" lon="-3.62754">
        <ele>48.400001525879</ele>
        <time>2019-08-15T09:48:34.000Z</time>
      </trkpt>
      <trkpt lat="47.80573" lon="-3.6276">
        <ele>48.200000762939</ele>
        <time>2019-08-15T09:48:36.000Z</time>
      </trkpt>
      <trkpt lat="47.80585" lon="-3.62765">
        <ele>48.400001525879</ele>
        <time>2019-08-15T09:48:38.000Z</time>
      </trkpt>
      <trkpt lat="47.80603" lon="-3.6277">
        <ele>48.400001525879</ele>
        <time>2019-08-15T09:48:41.000Z</time>
      </trkpt>
      <trkpt lat="47.80614" lon="-3.62772">
        <ele>48.400001525879</ele>
        <time>2019-08-15T09:48:43.000Z</time>
      </trkpt>
      <trkpt lat="47.80618" lon="-3.62772">
        <ele>48.400001525879</ele>
        <time>2019-08-15T09:48:44.000Z</time>
      </trkpt>
      <trkpt lat="47.80623" lon="-3.62772">
        <ele>48.400001525879</ele>
        <time>2019-08-15T09:48:45.000Z</time>
      </trkpt>
      <trkpt lat="47.80639" lon="-3.62772">
        <ele>48.799999237061</ele>
        <time>2019-08-15T09:48:48.000Z</time>
      </trkpt>
      <trkpt lat="47.80661" lon="-3.62774">
        <ele>48.599998474121</ele>
        <time>2019-08-15T09:48:52.000Z</time>
      </trkpt>
      <trkpt lat="47.80674" lon="-3.62773">
        <ele>48.799999237061</ele>
        <time>2019-08-15T09:48:54.000Z</time>
      </trkpt>
      <trkpt lat="47.8071" lon="-3.62774">
        <ele>48.200000762939</ele>
        <time>2019-08-15T09:48:59.000Z</time>
      </trkpt>
      <trkpt lat="47.80741" lon="-3.62771">
        <ele>47.400001525879</ele>
        <time>2019-08-15T09:49:03.000Z</time>
      </trkpt>
      <trkpt lat="47.80749" lon="-3.62771">
        <ele>46.799999237061</ele>
        <time>2019-08-15T09:49:04.000Z</time>
      </trkpt>
      <trkpt lat="47.80758" lon="-3.62771">
        <ele>46.799999237061</ele>
        <time>2019-08-15T09:49:05.000Z</time>
      </trkpt>
      <trkpt lat="47.80767" lon="-3.6277">
        <ele>46.400001525879</ele>
        <time>2019-08-15T09:49:06.000Z</time>
      </trkpt>
      <trkpt lat="47.80777" lon="-3.62769">
        <ele>46.200000762939</ele>
        <time>2019-08-15T09:49:07.000Z</time>
      </trkpt>
      <trkpt lat="47.80796" lon="-3.62767">
        <ele>45.599998474121</ele>
        <time>2019-08-15T09:49:09.000Z</time>
      </trkpt>
      <trkpt lat="47.80818" lon="-3.62763">
        <ele>44.799999237061</ele>
        <time>2019-08-15T09:49:11.000Z</time>
      </trkpt>
      <trkpt lat="47.80829" lon="-3.62761">
        <ele>44.200000762939</ele>
        <time>2019-08-15T09:49:12.000Z</time>
      </trkpt>
      <trkpt lat="47.80837" lon="-3.6276">
        <ele>43.400001525879</ele>
        <time>2019-08-15T09:49:13.000Z</time>
      </trkpt>
      <trkpt lat="47.80857" lon="-3.62757">
        <ele>42.599998474121</ele>
        <time>2019-08-15T09:49:15.000Z</time>
      </trkpt>
      <trkpt lat="47.80867" lon="-3.62755">
        <ele>42.599998474121</ele>
        <time>2019-08-15T09:49:16.000Z</time>
      </trkpt>
      <trkpt lat="47.80876" lon="-3.62754">
        <ele>42.200000762939</ele>
        <time>2019-08-15T09:49:17.000Z</time>
      </trkpt>
      <trkpt lat="47.80885" lon="-3.62753">
        <ele>42.200000762939</ele>
        <time>2019-08-15T09:49:18.000Z</time>
      </trkpt>
      <trkpt lat="47.80895" lon="-3.62753">
        <ele>42.200000762939</ele>
        <time>2019-08-15T09:49:19.000Z</time>
      </trkpt>
      <trkpt lat="47.80922" lon="-3.62752">
        <ele>41.799999237061</ele>
        <time>2019-08-15T09:49:22.000Z</time>
      </trkpt>
      <trkpt lat="47.80931" lon="-3.62752">
        <ele>41.799999237061</ele>
        <time>2019-08-15T09:49:23.000Z</time>
      </trkpt>
      <trkpt lat="47.8094" lon="-3.62752">
        <ele>41.400001525879</ele>
        <time>2019-08-15T09:49:24.000Z</time>
      </trkpt>
      <trkpt lat="47.80949" lon="-3.62753">
        <ele>41</ele>
        <time>2019-08-15T09:49:25.000Z</time>
      </trkpt>
      <trkpt lat="47.80958" lon="-3.62753">
        <ele>41</ele>
        <time>2019-08-15T09:49:26.000Z</time>
      </trkpt>
      <trkpt lat="47.80967" lon="-3.62754">
        <ele>40.799999237061</ele>
        <time>2019-08-15T09:49:27.000Z</time>
      </trkpt>
      <trkpt lat="47.81" lon="-3.62763">
        <ele>40</ele>
        <time>2019-08-15T09:49:31.000Z</time>
      </trkpt>
      <trkpt lat="47.81008" lon="-3.62765">
        <ele>39.799999237061</ele>
        <time>2019-08-15T09:49:32.000Z</time>
      </trkpt>
      <trkpt lat="47.81047" lon="-3.62781">
        <ele>39.400001525879</ele>
        <time>2019-08-15T09:49:37.000Z</time>
      </trkpt>
      <trkpt lat="47.8106" lon="-3.62786">
        <ele>39.200000762939</ele>
        <time>2019-08-15T09:49:39.000Z</time>
      </trkpt>
      <trkpt lat="47.81073" lon="-3.62793">
        <ele>39.400001525879</ele>
        <time>2019-08-15T09:49:41.000Z</time>
      </trkpt>
      <trkpt lat="47.8108" lon="-3.62797">
        <ele>39.400001525879</ele>
        <time>2019-08-15T09:49:42.000Z</time>
      </trkpt>
      <trkpt lat="47.81092" lon="-3.62803">
        <ele>39.200000762939</ele>
        <time>2019-08-15T09:49:44.000Z</time>
      </trkpt>
      <trkpt lat="47.81103" lon="-3.62811">
        <ele>39.400001525879</ele>
        <time>2019-08-15T09:49:46.000Z</time>
      </trkpt>
      <trkpt lat="47.81116" lon="-3.62822">
        <ele>40</ele>
        <time>2019-08-15T09:49:49.000Z</time>
      </trkpt>
      <trkpt lat="47.81122" lon="-3.62834">
        <ele>40.200000762939</ele>
        <time>2019-08-15T09:49:51.000Z</time>
      </trkpt>
      <trkpt lat="47.81122" lon="-3.62847">
        <ele>40.599998474121</ele>
        <time>2019-08-15T09:49:53.000Z</time>
      </trkpt>
      <trkpt lat="47.8112" lon="-3.62854">
        <ele>40.799999237061</ele>
        <time>2019-08-15T09:49:54.000Z</time>
      </trkpt>
      <trkpt lat="47.81118" lon="-3.62861">
        <ele>41.200000762939</ele>
        <time>2019-08-15T09:49:55.000Z</time>
      </trkpt>
      <trkpt lat="47.81117" lon="-3.62869">
        <ele>41.200000762939</ele>
        <time>2019-08-15T09:49:56.000Z</time>
      </trkpt>
      <trkpt lat="47.81111" lon="-3.62899">
        <ele>42</ele>
        <time>2019-08-15T09:50:00.000Z</time>
      </trkpt>
      <trkpt lat="47.81098" lon="-3.62953">
        <ele>42.400001525879</ele>
        <time>2019-08-15T09:50:07.000Z</time>
      </trkpt>
      <trkpt lat="47.81086" lon="-3.63014">
        <ele>43</ele>
        <time>2019-08-15T09:50:15.000Z</time>
      </trkpt>
      <trkpt lat="47.81085" lon="-3.63022">
        <ele>43</ele>
        <time>2019-08-15T09:50:16.000Z</time>
      </trkpt>
      <trkpt lat="47.81087" lon="-3.63038">
        <ele>43.200000762939</ele>
        <time>2019-08-15T09:50:18.000Z</time>
      </trkpt>
      <trkpt lat="47.81089" lon="-3.63045">
        <ele>43.200000762939</ele>
        <time>2019-08-15T09:50:19.000Z</time>
      </trkpt>
      <trkpt lat="47.81092" lon="-3.63053">
        <ele>43</ele>
        <time>2019-08-15T09:50:20.000Z</time>
      </trkpt>
      <trkpt lat="47.81102" lon="-3.63082">
        <ele>43.200000762939</ele>
        <time>2019-08-15T09:50:24.000Z</time>
      </trkpt>
      <trkpt lat="47.81104" lon="-3.63089">
        <ele>43.400001525879</ele>
        <time>2019-08-15T09:50:25.000Z</time>
      </trkpt>
      <trkpt lat="47.8111" lon="-3.63103">
        <ele>43.400001525879</ele>
        <time>2019-08-15T09:50:27.000Z</time>
      </trkpt>
      <trkpt lat="47.81118" lon="-3.63115">
        <ele>43.599998474121</ele>
        <time>2019-08-15T09:50:29.000Z</time>
      </trkpt>
      <trkpt lat="47.81122" lon="-3.6312">
        <ele>43.599998474121</ele>
        <time>2019-08-15T09:50:30.000Z</time>
      </trkpt>
      <trkpt lat="47.81127" lon="-3.63123">
        <ele>43.599998474121</ele>
        <time>2019-08-15T09:50:31.000Z</time>
      </trkpt>
      <trkpt lat="47.81157" lon="-3.63143">
        <ele>44</ele>
        <time>2019-08-15T09:50:37.000Z</time>
      </trkpt>
      <trkpt lat="47.81173" lon="-3.63155">
        <ele>44.200000762939</ele>
        <time>2019-08-15T09:50:42.000Z</time>
      </trkpt>
      <trkpt lat="47.81182" lon="-3.6316">
        <ele>44.200000762939</ele>
        <time>2019-08-15T09:50:48.000Z</time>
      </trkpt>
      <trkpt lat="47.81193" lon="-3.63164">
        <ele>44.400001525879</ele>
        <time>2019-08-15T09:50:51.000Z</time>
      </trkpt>
      <trkpt lat="47.81197" lon="-3.63166">
        <ele>44.400001525879</ele>
        <time>2019-08-15T09:50:52.000Z</time>
      </trkpt>
      <trkpt lat="47.81207" lon="-3.63164">
        <ele>44.599998474121</ele>
        <time>2019-08-15T09:50:54.000Z</time>
      </trkpt>
      <trkpt lat="47.81215" lon="-3.63159">
        <ele>44.799999237061</ele>
        <time>2019-08-15T09:50:56.000Z</time>
      </trkpt>
      <trkpt lat="47.8122" lon="-3.63148">
        <ele>44.799999237061</ele>
        <time>2019-08-15T09:50:58.000Z</time>
      </trkpt>
      <trkpt lat="47.81224" lon="-3.63135">
        <ele>44.799999237061</ele>
        <time>2019-08-15T09:51:00.000Z</time>
      </trkpt>
      <trkpt lat="47.81233" lon="-3.63107">
        <ele>45.200000762939</ele>
        <time>2019-08-15T09:51:04.000Z</time>
      </trkpt>
      <trkpt lat="47.81236" lon="-3.631">
        <ele>45.200000762939</ele>
        <time>2019-08-15T09:51:05.000Z</time>
      </trkpt>
      <trkpt lat="47.81242" lon="-3.63087">
        <ele>45.400001525879</ele>
        <time>2019-08-15T09:51:07.000Z</time>
      </trkpt>
      <trkpt lat="47.81245" lon="-3.63081">
        <ele>45.400001525879</ele>
        <time>2019-08-15T09:51:08.000Z</time>
      </trkpt>
      <trkpt lat="47.81258" lon="-3.63067">
        <ele>45.799999237061</ele>
        <time>2019-08-15T09:51:11.000Z</time>
      </trkpt>
      <trkpt lat="47.81291" lon="-3.6303">
        <ele>46</ele>
        <time>2019-08-15T09:51:18.000Z</time>
      </trkpt>
      <trkpt lat="47.81296" lon="-3.63025">
        <ele>46.200000762939</ele>
        <time>2019-08-15T09:51:19.000Z</time>
      </trkpt>
      <trkpt lat="47.813" lon="-3.63019">
        <ele>46.200000762939</ele>
        <time>2019-08-15T09:51:20.000Z</time>
      </trkpt>
      <trkpt lat="47.81305" lon="-3.63015">
        <ele>46.200000762939</ele>
        <time>2019-08-15T09:51:21.000Z</time>
      </trkpt>
      <trkpt lat="47.81311" lon="-3.63008">
        <ele>46.200000762939</ele>
        <time>2019-08-15T09:51:22.000Z</time>
      </trkpt>
      <trkpt lat="47.81325" lon="-3.62992">
        <ele>46.400001525879</ele>
        <time>2019-08-15T09:51:25.000Z</time>
      </trkpt>
      <trkpt lat="47.8134" lon="-3.62976">
        <ele>46.799999237061</ele>
        <time>2019-08-15T09:51:28.000Z</time>
      </trkpt>
      <trkpt lat="47.81347" lon="-3.62966">
        <ele>46.799999237061</ele>
        <time>2019-08-15T09:51:30.000Z</time>
      </trkpt>
      <trkpt lat="47.8135" lon="-3.6296">
        <ele>46.799999237061</ele>
        <time>2019-08-15T09:51:31.000Z</time>
      </trkpt>
      <trkpt lat="47.81353" lon="-3.62954">
        <ele>46.799999237061</ele>
        <time>2019-08-15T09:51:32.000Z</time>
      </trkpt>
      <trkpt lat="47.81361" lon="-3.62947">
        <ele>46.799999237061</ele>
        <time>2019-08-15T09:51:34.000Z</time>
      </trkpt>
      <trkpt lat="47.81366" lon="-3.62943">
        <ele>46.799999237061</ele>
        <time>2019-08-15T09:51:35.000Z</time>
      </trkpt>
      <trkpt lat="47.81378" lon="-3.62929">
        <ele>46.799999237061</ele>
        <time>2019-08-15T09:51:38.000Z</time>
      </trkpt>
      <trkpt lat="47.81382" lon="-3.62924">
        <ele>46.799999237061</ele>
        <time>2019-08-15T09:51:39.000Z</time>
      </trkpt>
      <trkpt lat="47.81389" lon="-3.62912">
        <ele>46.799999237061</ele>
        <time>2019-08-15T09:51:41.000Z</time>
      </trkpt>
      <trkpt lat="47.81395" lon="-3.62898">
        <ele>47</ele>
        <time>2019-08-15T09:51:43.000Z</time>
      </trkpt>
      <trkpt lat="47.81399" lon="-3.62884">
        <ele>47.200000762939</ele>
        <time>2019-08-15T09:51:45.000Z</time>
      </trkpt>
      <trkpt lat="47.814" lon="-3.62876">
        <ele>47.400001525879</ele>
        <time>2019-08-15T09:51:46.000Z</time>
      </trkpt>
      <trkpt lat="47.81402" lon="-3.6286">
        <ele>47.599998474121</ele>
        <time>2019-08-15T09:51:48.000Z</time>
      </trkpt>
      <trkpt lat="47.81407" lon="-3.62847">
        <ele>47.799999237061</ele>
        <time>2019-08-15T09:51:50.000Z</time>
      </trkpt>
      <trkpt lat="47.81418" lon="-3.62846">
        <ele>47.799999237061</ele>
        <time>2019-08-15T09:51:52.000Z</time>
      </trkpt>
      <trkpt lat="47.81433" lon="-3.62857">
        <ele>48</ele>
        <time>2019-08-15T09:51:55.000Z</time>
      </trkpt>
      <trkpt lat="47.81443" lon="-3.62864">
        <ele>48.200000762939</ele>
        <time>2019-08-15T09:51:57.000Z</time>
      </trkpt>
      <trkpt lat="47.81447" lon="-3.62868">
        <ele>48.400001525879</ele>
        <time>2019-08-15T09:51:58.000Z</time>
      </trkpt>
      <trkpt lat="47.81456" lon="-3.62876">
        <ele>48.599998474121</ele>
        <time>2019-08-15T09:52:00.000Z</time>
      </trkpt>
      <trkpt lat="47.81461" lon="-3.62881">
        <ele>49</ele>
        <time>2019-08-15T09:52:01.000Z</time>
      </trkpt>
      <trkpt lat="47.81464" lon="-3.62885">
        <ele>49</ele>
        <time>2019-08-15T09:52:02.000Z</time>
      </trkpt>
      <trkpt lat="47.81475" lon="-3.629">
        <ele>49.200000762939</ele>
        <time>2019-08-15T09:52:05.000Z</time>
      </trkpt>
      <trkpt lat="47.81496" lon="-3.62925">
        <ele>49.200000762939</ele>
        <time>2019-08-15T09:52:10.000Z</time>
      </trkpt>
      <trkpt lat="47.81509" lon="-3.62941">
        <ele>49.200000762939</ele>
        <time>2019-08-15T09:52:13.000Z</time>
      </trkpt>
      <trkpt lat="47.81524" lon="-3.62957">
        <ele>49.200000762939</ele>
        <time>2019-08-15T09:52:16.000Z</time>
      </trkpt>
      <trkpt lat="47.81558" lon="-3.62985">
        <ele>49</ele>
        <time>2019-08-15T09:52:22.000Z</time>
      </trkpt>
      <trkpt lat="47.81588" lon="-3.63009">
        <ele>48.799999237061</ele>
        <time>2019-08-15T09:52:27.000Z</time>
      </trkpt>
      <trkpt lat="47.81594" lon="-3.63014">
        <ele>48.599998474121</ele>
        <time>2019-08-15T09:52:28.000Z</time>
      </trkpt>
      <trkpt lat="47.81607" lon="-3.63024">
        <ele>48.599998474121</ele>
        <time>2019-08-15T09:52:30.000Z</time>
      </trkpt>
      <trkpt lat="47.81653" lon="-3.63044">
        <ele>48</ele>
        <time>2019-08-15T09:52:37.000Z</time>
      </trkpt>
      <trkpt lat="47.81659" lon="-3.63044">
        <ele>48</ele>
        <time>2019-08-15T09:52:38.000Z</time>
      </trkpt>
      <trkpt lat="47.81664" lon="-3.63041">
        <ele>48</ele>
        <time>2019-08-15T09:52:39.000Z</time>
      </trkpt>
      <trkpt lat="47.81669" lon="-3.63038">
        <ele>48</ele>
        <time>2019-08-15T09:52:40.000Z</time>
      </trkpt>
      <trkpt lat="47.81673" lon="-3.63035">
        <ele>48</ele>
        <time>2019-08-15T09:52:41.000Z</time>
      </trkpt>
      <trkpt lat="47.81684" lon="-3.63034">
        <ele>47.799999237061</ele>
        <time>2019-08-15T09:52:43.000Z</time>
      </trkpt>
      <trkpt lat="47.8169" lon="-3.63037">
        <ele>47.799999237061</ele>
        <time>2019-08-15T09:52:44.000Z</time>
      </trkpt>
      <trkpt lat="47.81695" lon="-3.63042">
        <ele>47.599998474121</ele>
        <time>2019-08-15T09:52:45.000Z</time>
      </trkpt>
      <trkpt lat="47.81704" lon="-3.63057">
        <ele>47.799999237061</ele>
        <time>2019-08-15T09:52:47.000Z</time>
      </trkpt>
      <trkpt lat="47.81737" lon="-3.63108">
        <ele>47.799999237061</ele>
        <time>2019-08-15T09:52:54.000Z</time>
      </trkpt>
      <trkpt lat="47.81743" lon="-3.63115">
        <ele>48</ele>
        <time>2019-08-15T09:52:55.000Z</time>
      </trkpt>
      <trkpt lat="47.8179" lon="-3.6317">
        <ele>47.200000762939</ele>
        <time>2019-08-15T09:53:03.000Z</time>
      </trkpt>
      <trkpt lat="47.81822" lon="-3.63208">
        <ele>46.400001525879</ele>
        <time>2019-08-15T09:53:09.000Z</time>
      </trkpt>
      <trkpt lat="47.81831" lon="-3.63211">
        <ele>46</ele>
        <time>2019-08-15T09:53:12.000Z</time>
      </trkpt>
      <trkpt lat="47.81836" lon="-3.63209">
        <ele>45</ele>
        <time>2019-08-15T09:53:16.000Z</time>
      </trkpt>
      <trkpt lat="47.81837" lon="-3.6321">
        <ele>45</ele>
        <time>2019-08-15T09:53:17.000Z</time>
      </trkpt>
      <trkpt lat="47.8184" lon="-3.63216">
        <ele>44.799999237061</ele>
        <time>2019-08-15T09:53:21.000Z</time>
      </trkpt>
      <trkpt lat="47.81842" lon="-3.63218">
        <ele>44.599998474121</ele>
        <time>2019-08-15T09:53:23.000Z</time>
      </trkpt>
      <trkpt lat="47.81844" lon="-3.63218">
        <ele>44.599998474121</ele>
        <time>2019-08-15T09:53:24.000Z</time>
      </trkpt>
      <trkpt lat="47.81845" lon="-3.6322">
        <ele>44.599998474121</ele>
        <time>2019-08-15T09:53:25.000Z</time>
      </trkpt>
      <trkpt lat="47.81846" lon="-3.63222">
        <ele>44.400001525879</ele>
        <time>2019-08-15T09:53:26.000Z</time>
      </trkpt>
      <trkpt lat="47.81848" lon="-3.63224">
        <ele>44.599998474121</ele>
        <time>2019-08-15T09:53:27.000Z</time>
      </trkpt>
      <trkpt lat="47.81849" lon="-3.63226">
        <ele>44.400001525879</ele>
        <time>2019-08-15T09:53:28.000Z</time>
      </trkpt>
      <trkpt lat="47.81851" lon="-3.6323">
        <ele>44.400001525879</ele>
        <time>2019-08-15T09:53:29.000Z</time>
      </trkpt>
      <trkpt lat="47.81852" lon="-3.63233">
        <ele>44.200000762939</ele>
        <time>2019-08-15T09:53:30.000Z</time>
      </trkpt>
      <trkpt lat="47.81856" lon="-3.6324">
        <ele>43.200000762939</ele>
        <time>2019-08-15T09:53:33.000Z</time>
      </trkpt>
      <trkpt lat="47.81859" lon="-3.63242">
        <ele>42.400001525879</ele>
        <time>2019-08-15T09:53:35.000Z</time>
      </trkpt>
      <trkpt lat="47.81861" lon="-3.63243">
        <ele>42.400001525879</ele>
        <time>2019-08-15T09:53:36.000Z</time>
      </trkpt>
      <trkpt lat="47.81862" lon="-3.63245">
        <ele>42.200000762939</ele>
        <time>2019-08-15T09:53:37.000Z</time>
      </trkpt>
      <trkpt lat="47.81863" lon="-3.63248">
        <ele>42.200000762939</ele>
        <time>2019-08-15T09:53:39.000Z</time>
      </trkpt>
      <trkpt lat="47.81864" lon="-3.63251">
        <ele>42.200000762939</ele>
        <time>2019-08-15T09:53:40.000Z</time>
      </trkpt>
      <trkpt lat="47.81866" lon="-3.63253">
        <ele>42.200000762939</ele>
        <time>2019-08-15T09:53:41.000Z</time>
      </trkpt>
      <trkpt lat="47.81868" lon="-3.63255">
        <ele>42.200000762939</ele>
        <time>2019-08-15T09:53:42.000Z</time>
      </trkpt>
      <trkpt lat="47.8187" lon="-3.63258">
        <ele>42</ele>
        <time>2019-08-15T09:53:43.000Z</time>
      </trkpt>
      <trkpt lat="47.81872" lon="-3.63261">
        <ele>41.799999237061</ele>
        <time>2019-08-15T09:53:44.000Z</time>
      </trkpt>
      <trkpt lat="47.81875" lon="-3.63264">
        <ele>41.599998474121</ele>
        <time>2019-08-15T09:53:45.000Z</time>
      </trkpt>
      <trkpt lat="47.81877" lon="-3.63268">
        <ele>41.599998474121</ele>
        <time>2019-08-15T09:53:46.000Z</time>
      </trkpt>
      <trkpt lat="47.81879" lon="-3.63273">
        <ele>41.400001525879</ele>
        <time>2019-08-15T09:53:47.000Z</time>
      </trkpt>
      <trkpt lat="47.81881" lon="-3.63276">
        <ele>41.200000762939</ele>
        <time>2019-08-15T09:53:48.000Z</time>
      </trkpt>
      <trkpt lat="47.81884" lon="-3.63279">
        <ele>41.200000762939</ele>
        <time>2019-08-15T09:53:49.000Z</time>
      </trkpt>
      <trkpt lat="47.81886" lon="-3.63284">
        <ele>41.200000762939</ele>
        <time>2019-08-15T09:53:50.000Z</time>
      </trkpt>
      <trkpt lat="47.81889" lon="-3.63287">
        <ele>41.200000762939</ele>
        <time>2019-08-15T09:53:51.000Z</time>
      </trkpt>
      <trkpt lat="47.81892" lon="-3.6329">
        <ele>41</ele>
        <time>2019-08-15T09:53:52.000Z</time>
      </trkpt>
      <trkpt lat="47.81894" lon="-3.63292">
        <ele>41</ele>
        <time>2019-08-15T09:53:53.000Z</time>
      </trkpt>
      <trkpt lat="47.81897" lon="-3.63294">
        <ele>40.799999237061</ele>
        <time>2019-08-15T09:53:54.000Z</time>
      </trkpt>
      <trkpt lat="47.81899" lon="-3.63296">
        <ele>40.599998474121</ele>
        <time>2019-08-15T09:53:55.000Z</time>
      </trkpt>
      <trkpt lat="47.81902" lon="-3.63298">
        <ele>40.400001525879</ele>
        <time>2019-08-15T09:53:56.000Z</time>
      </trkpt>
      <trkpt lat="47.81904" lon="-3.633">
        <ele>40.200000762939</ele>
        <time>2019-08-15T09:53:57.000Z</time>
      </trkpt>
      <trkpt lat="47.81906" lon="-3.63303">
        <ele>40</ele>
        <time>2019-08-15T09:53:58.000Z</time>
      </trkpt>
      <trkpt lat="47.81907" lon="-3.63307">
        <ele>40.200000762939</ele>
        <time>2019-08-15T09:53:59.000Z</time>
      </trkpt>
      <trkpt lat="47.8191" lon="-3.63313">
        <ele>39.400001525879</ele>
        <time>2019-08-15T09:54:01.000Z</time>
      </trkpt>
      <trkpt lat="47.81913" lon="-3.63318">
        <ele>38.599998474121</ele>
        <time>2019-08-15T09:54:04.000Z</time>
      </trkpt>
      <trkpt lat="47.81914" lon="-3.63319">
        <ele>38.400001525879</ele>
        <time>2019-08-15T09:54:08.000Z</time>
      </trkpt>
      <trkpt lat="47.81915" lon="-3.63321">
        <ele>38.200000762939</ele>
        <time>2019-08-15T09:54:12.000Z</time>
      </trkpt>
      <trkpt lat="47.8192" lon="-3.63328">
        <ele>38</ele>
        <time>2019-08-15T09:54:15.000Z</time>
      </trkpt>
      <trkpt lat="47.81922" lon="-3.6333">
        <ele>38</ele>
        <time>2019-08-15T09:54:16.000Z</time>
      </trkpt>
      <trkpt lat="47.81924" lon="-3.63332">
        <ele>38.200000762939</ele>
        <time>2019-08-15T09:54:17.000Z</time>
      </trkpt>
      <trkpt lat="47.81929" lon="-3.6334">
        <ele>38</ele>
        <time>2019-08-15T09:54:20.000Z</time>
      </trkpt>
      <trkpt lat="47.81933" lon="-3.63343">
        <ele>38</ele>
        <time>2019-08-15T09:54:22.000Z</time>
      </trkpt>
      <trkpt lat="47.81934" lon="-3.63345">
        <ele>38</ele>
        <time>2019-08-15T09:54:23.000Z</time>
      </trkpt>
      <trkpt lat="47.81937" lon="-3.63354">
        <ele>37.799999237061</ele>
        <time>2019-08-15T09:54:26.000Z</time>
      </trkpt>
      <trkpt lat="47.81937" lon="-3.63355">
        <ele>37.400001525879</ele>
        <time>2019-08-15T09:54:29.000Z</time>
      </trkpt>
      <trkpt lat="47.81937" lon="-3.63355">
        <ele>37</ele>
        <time>2019-08-15T09:54:31.000Z</time>
      </trkpt>
      <trkpt lat="47.81939" lon="-3.63355">
        <ele>37</ele>
        <time>2019-08-15T09:54:32.000Z</time>
      </trkpt>
      <trkpt lat="47.81942" lon="-3.63357">
        <ele>36.799999237061</ele>
        <time>2019-08-15T09:54:33.000Z</time>
      </trkpt>
      <trkpt lat="47.81948" lon="-3.63362">
        <ele>37</ele>
        <time>2019-08-15T09:54:35.000Z</time>
      </trkpt>
      <trkpt lat="47.81961" lon="-3.63369">
        <ele>36.599998474121</ele>
        <time>2019-08-15T09:54:40.000Z</time>
      </trkpt>
      <trkpt lat="47.8198" lon="-3.6338">
        <ele>36.200000762939</ele>
        <time>2019-08-15T09:54:46.000Z</time>
      </trkpt>
      <trkpt lat="47.81983" lon="-3.63381">
        <ele>36.200000762939</ele>
        <time>2019-08-15T09:54:47.000Z</time>
      </trkpt>
      <trkpt lat="47.81985" lon="-3.63382">
        <ele>36.200000762939</ele>
        <time>2019-08-15T09:54:48.000Z</time>
      </trkpt>
      <trkpt lat="47.81988" lon="-3.63383">
        <ele>36</ele>
        <time>2019-08-15T09:54:49.000Z</time>
      </trkpt>
      <trkpt lat="47.81995" lon="-3.63384">
        <ele>35.799999237061</ele>
        <time>2019-08-15T09:54:51.000Z</time>
      </trkpt>
      <trkpt lat="47.81999" lon="-3.63386">
        <ele>35.799999237061</ele>
        <time>2019-08-15T09:54:52.000Z</time>
      </trkpt>
      <trkpt lat="47.82012" lon="-3.6339">
        <ele>35.200000762939</ele>
        <time>2019-08-15T09:54:56.000Z</time>
      </trkpt>
      <trkpt lat="47.82015" lon="-3.63391">
        <ele>35</ele>
        <time>2019-08-15T09:54:57.000Z</time>
      </trkpt>
      <trkpt lat="47.82018" lon="-3.63393">
        <ele>35</ele>
        <time>2019-08-15T09:54:58.000Z</time>
      </trkpt>
      <trkpt lat="47.82024" lon="-3.63394">
        <ele>35</ele>
        <time>2019-08-15T09:55:00.000Z</time>
      </trkpt>
      <trkpt lat="47.82026" lon="-3.63395">
        <ele>35.200000762939</ele>
        <time>2019-08-15T09:55:01.000Z</time>
      </trkpt>
      <trkpt lat="47.82029" lon="-3.63396">
        <ele>34.799999237061</ele>
        <time>2019-08-15T09:55:02.000Z</time>
      </trkpt>
      <trkpt lat="47.82031" lon="-3.63397">
        <ele>34.799999237061</ele>
        <time>2019-08-15T09:55:03.000Z</time>
      </trkpt>
      <trkpt lat="47.82034" lon="-3.63398">
        <ele>34.599998474121</ele>
        <time>2019-08-15T09:55:04.000Z</time>
      </trkpt>
      <trkpt lat="47.82037" lon="-3.634">
        <ele>34.599998474121</ele>
        <time>2019-08-15T09:55:05.000Z</time>
      </trkpt>
      <trkpt lat="47.82041" lon="-3.63402">
        <ele>34.400001525879</ele>
        <time>2019-08-15T09:55:06.000Z</time>
      </trkpt>
      <trkpt lat="47.82047" lon="-3.63404">
        <ele>34.200000762939</ele>
        <time>2019-08-15T09:55:08.000Z</time>
      </trkpt>
      <trkpt lat="47.82058" lon="-3.63407">
        <ele>34</ele>
        <time>2019-08-15T09:55:12.000Z</time>
      </trkpt>
      <trkpt lat="47.82062" lon="-3.63407">
        <ele>33.799999237061</ele>
        <time>2019-08-15T09:55:13.000Z</time>
      </trkpt>
      <trkpt lat="47.82065" lon="-3.63407">
        <ele>33.799999237061</ele>
        <time>2019-08-15T09:55:14.000Z</time>
      </trkpt>
      <trkpt lat="47.82069" lon="-3.63407">
        <ele>33.400001525879</ele>
        <time>2019-08-15T09:55:15.000Z</time>
      </trkpt>
      <trkpt lat="47.82077" lon="-3.63412">
        <ele>33.200000762939</ele>
        <time>2019-08-15T09:55:18.000Z</time>
      </trkpt>
      <trkpt lat="47.8208" lon="-3.63414">
        <ele>33.200000762939</ele>
        <time>2019-08-15T09:55:19.000Z</time>
      </trkpt>
      <trkpt lat="47.82086" lon="-3.63417">
        <ele>33</ele>
        <time>2019-08-15T09:55:21.000Z</time>
      </trkpt>
      <trkpt lat="47.82091" lon="-3.6342">
        <ele>32.599998474121</ele>
        <time>2019-08-15T09:55:23.000Z</time>
      </trkpt>
      <trkpt lat="47.82094" lon="-3.63421">
        <ele>32.599998474121</ele>
        <time>2019-08-15T09:55:24.000Z</time>
      </trkpt>
      <trkpt lat="47.82103" lon="-3.63425">
        <ele>32.200000762939</ele>
        <time>2019-08-15T09:55:27.000Z</time>
      </trkpt>
      <trkpt lat="47.82118" lon="-3.63442">
        <ele>31.39999961853</ele>
        <time>2019-08-15T09:55:32.000Z</time>
      </trkpt>
      <trkpt lat="47.8212" lon="-3.63445">
        <ele>31.39999961853</ele>
        <time>2019-08-15T09:55:33.000Z</time>
      </trkpt>
      <trkpt lat="47.82123" lon="-3.63448">
        <ele>31</ele>
        <time>2019-08-15T09:55:34.000Z</time>
      </trkpt>
      <trkpt lat="47.82125" lon="-3.63452">
        <ele>31</ele>
        <time>2019-08-15T09:55:35.000Z</time>
      </trkpt>
      <trkpt lat="47.82128" lon="-3.63456">
        <ele>30.799999237061</ele>
        <time>2019-08-15T09:55:36.000Z</time>
      </trkpt>
      <trkpt lat="47.82133" lon="-3.63462">
        <ele>30.799999237061</ele>
        <time>2019-08-15T09:55:37.000Z</time>
      </trkpt>
      <trkpt lat="47.82137" lon="-3.63468">
        <ele>30.60000038147</ele>
        <time>2019-08-15T09:55:38.000Z</time>
      </trkpt>
      <trkpt lat="47.82141" lon="-3.63473">
        <ele>30.200000762939</ele>
        <time>2019-08-15T09:55:39.000Z</time>
      </trkpt>
      <trkpt lat="47.82147" lon="-3.63485">
        <ele>29.799999237061</ele>
        <time>2019-08-15T09:55:41.000Z</time>
      </trkpt>
      <trkpt lat="47.82149" lon="-3.63492">
        <ele>29.60000038147</ele>
        <time>2019-08-15T09:55:42.000Z</time>
      </trkpt>
      <trkpt lat="47.82152" lon="-3.63498">
        <ele>29.60000038147</ele>
        <time>2019-08-15T09:55:43.000Z</time>
      </trkpt>
      <trkpt lat="47.82155" lon="-3.63504">
        <ele>29.39999961853</ele>
        <time>2019-08-15T09:55:44.000Z</time>
      </trkpt>
      <trkpt lat="47.82158" lon="-3.6351">
        <ele>29.200000762939</ele>
        <time>2019-08-15T09:55:45.000Z</time>
      </trkpt>
      <trkpt lat="47.82162" lon="-3.63516">
        <ele>29</ele>
        <time>2019-08-15T09:55:46.000Z</time>
      </trkpt>
      <trkpt lat="47.82167" lon="-3.63526">
        <ele>29.200000762939</ele>
        <time>2019-08-15T09:55:48.000Z</time>
      </trkpt>
      <trkpt lat="47.82172" lon="-3.63539">
        <ele>29.200000762939</ele>
        <time>2019-08-15T09:55:50.000Z</time>
      </trkpt>
      <trkpt lat="47.82174" lon="-3.63545">
        <ele>29</ele>
        <time>2019-08-15T09:55:51.000Z</time>
      </trkpt>
      <trkpt lat="47.82175" lon="-3.63552">
        <ele>29</ele>
        <time>2019-08-15T09:55:52.000Z</time>
      </trkpt>
      <trkpt lat="47.82176" lon="-3.63558">
        <ele>29</ele>
        <time>2019-08-15T09:55:53.000Z</time>
      </trkpt>
      <trkpt lat="47.82179" lon="-3.63564">
        <ele>29</ele>
        <time>2019-08-15T09:55:54.000Z</time>
      </trkpt>
      <trkpt lat="47.82183" lon="-3.63574">
        <ele>28.60000038147</ele>
        <time>2019-08-15T09:55:56.000Z</time>
      </trkpt>
      <trkpt lat="47.82188" lon="-3.63584">
        <ele>28.39999961853</ele>
        <time>2019-08-15T09:55:58.000Z</time>
      </trkpt>
      <trkpt lat="47.82193" lon="-3.63593">
        <ele>28.200000762939</ele>
        <time>2019-08-15T09:56:00.000Z</time>
      </trkpt>
      <trkpt lat="47.82196" lon="-3.636">
        <ele>27.799999237061</ele>
        <time>2019-08-15T09:56:02.000Z</time>
      </trkpt>
      <trkpt lat="47.82199" lon="-3.63612">
        <ele>27.60000038147</ele>
        <time>2019-08-15T09:56:05.000Z</time>
      </trkpt>
      <trkpt lat="47.822" lon="-3.63618">
        <ele>27.60000038147</ele>
        <time>2019-08-15T09:56:06.000Z</time>
      </trkpt>
      <trkpt lat="47.82202" lon="-3.63623">
        <ele>27.799999237061</ele>
        <time>2019-08-15T09:56:07.000Z</time>
      </trkpt>
      <trkpt lat="47.82203" lon="-3.63628">
        <ele>27.60000038147</ele>
        <time>2019-08-15T09:56:08.000Z</time>
      </trkpt>
      <trkpt lat="47.82204" lon="-3.63636">
        <ele>27.39999961853</ele>
        <time>2019-08-15T09:56:09.000Z</time>
      </trkpt>
      <trkpt lat="47.82205" lon="-3.63641">
        <ele>27.39999961853</ele>
        <time>2019-08-15T09:56:10.000Z</time>
      </trkpt>
      <trkpt lat="47.82207" lon="-3.63649">
        <ele>27.39999961853</ele>
        <time>2019-08-15T09:56:11.000Z</time>
      </trkpt>
      <trkpt lat="47.82208" lon="-3.63654">
        <ele>27.39999961853</ele>
        <time>2019-08-15T09:56:12.000Z</time>
      </trkpt>
      <trkpt lat="47.82208" lon="-3.63662">
        <ele>27.200000762939</ele>
        <time>2019-08-15T09:56:13.000Z</time>
      </trkpt>
      <trkpt lat="47.8221" lon="-3.63668">
        <ele>27.200000762939</ele>
        <time>2019-08-15T09:56:14.000Z</time>
      </trkpt>
      <trkpt lat="47.82211" lon="-3.63674">
        <ele>26.799999237061</ele>
        <time>2019-08-15T09:56:15.000Z</time>
      </trkpt>
      <trkpt lat="47.82211" lon="-3.63681">
        <ele>26.60000038147</ele>
        <time>2019-08-15T09:56:16.000Z</time>
      </trkpt>
      <trkpt lat="47.82211" lon="-3.6369">
        <ele>26.39999961853</ele>
        <time>2019-08-15T09:56:17.000Z</time>
      </trkpt>
      <trkpt lat="47.82211" lon="-3.63698">
        <ele>26.200000762939</ele>
        <time>2019-08-15T09:56:18.000Z</time>
      </trkpt>
      <trkpt lat="47.8221" lon="-3.63708">
        <ele>25.799999237061</ele>
        <time>2019-08-15T09:56:19.000Z</time>
      </trkpt>
      <trkpt lat="47.82209" lon="-3.63716">
        <ele>25.60000038147</ele>
        <time>2019-08-15T09:56:20.000Z</time>
      </trkpt>
      <trkpt lat="47.82208" lon="-3.63723">
        <ele>25.39999961853</ele>
        <time>2019-08-15T09:56:21.000Z</time>
      </trkpt>
      <trkpt lat="47.82207" lon="-3.6373">
        <ele>25.200000762939</ele>
        <time>2019-08-15T09:56:22.000Z</time>
      </trkpt>
      <trkpt lat="47.82205" lon="-3.63742">
        <ele>25</ele>
        <time>2019-08-15T09:56:24.000Z</time>
      </trkpt>
      <trkpt lat="47.82202" lon="-3.63755">
        <ele>24.799999237061</ele>
        <time>2019-08-15T09:56:26.000Z</time>
      </trkpt>
      <trkpt lat="47.822" lon="-3.63761">
        <ele>24.799999237061</ele>
        <time>2019-08-15T09:56:27.000Z</time>
      </trkpt>
      <trkpt lat="47.82198" lon="-3.63767">
        <ele>24.799999237061</ele>
        <time>2019-08-15T09:56:28.000Z</time>
      </trkpt>
      <trkpt lat="47.82197" lon="-3.63772">
        <ele>24.60000038147</ele>
        <time>2019-08-15T09:56:29.000Z</time>
      </trkpt>
      <trkpt lat="47.82196" lon="-3.63776">
        <ele>24.60000038147</ele>
        <time>2019-08-15T09:56:30.000Z</time>
      </trkpt>
      <trkpt lat="47.82194" lon="-3.6378">
        <ele>24.39999961853</ele>
        <time>2019-08-15T09:56:31.000Z</time>
      </trkpt>
      <trkpt lat="47.82192" lon="-3.63785">
        <ele>24.39999961853</ele>
        <time>2019-08-15T09:56:32.000Z</time>
      </trkpt>
      <trkpt lat="47.82176" lon="-3.63813">
        <ele>23.200000762939</ele>
        <time>2019-08-15T09:56:38.000Z</time>
      </trkpt>
      <trkpt lat="47.82171" lon="-3.63821">
        <ele>22.799999237061</ele>
        <time>2019-08-15T09:56:40.000Z</time>
      </trkpt>
      <trkpt lat="47.82168" lon="-3.63826">
        <ele>22.799999237061</ele>
        <time>2019-08-15T09:56:41.000Z</time>
      </trkpt>
      <trkpt lat="47.82154" lon="-3.63848">
        <ele>22.200000762939</ele>
        <time>2019-08-15T09:56:46.000Z</time>
      </trkpt>
      <trkpt lat="47.82143" lon="-3.63864">
        <ele>22</ele>
        <time>2019-08-15T09:56:49.000Z</time>
      </trkpt>
      <trkpt lat="47.82133" lon="-3.63878">
        <ele>21.799999237061</ele>
        <time>2019-08-15T09:56:51.000Z</time>
      </trkpt>
      <trkpt lat="47.8212" lon="-3.63898">
        <ele>21</ele>
        <time>2019-08-15T09:56:54.000Z</time>
      </trkpt>
      <trkpt lat="47.82114" lon="-3.63906">
        <ele>20.799999237061</ele>
        <time>2019-08-15T09:56:55.000Z</time>
      </trkpt>
      <trkpt lat="47.8211" lon="-3.63913">
        <ele>20.799999237061</ele>
        <time>2019-08-15T09:56:56.000Z</time>
      </trkpt>
      <trkpt lat="47.82105" lon="-3.63919">
        <ele>20.799999237061</ele>
        <time>2019-08-15T09:56:57.000Z</time>
      </trkpt>
      <trkpt lat="47.821" lon="-3.63926">
        <ele>20.60000038147</ele>
        <time>2019-08-15T09:56:58.000Z</time>
      </trkpt>
      <trkpt lat="47.82086" lon="-3.63948">
        <ele>20</ele>
        <time>2019-08-15T09:57:01.000Z</time>
      </trkpt>
      <trkpt lat="47.82083" lon="-3.63956">
        <ele>19.799999237061</ele>
        <time>2019-08-15T09:57:02.000Z</time>
      </trkpt>
      <trkpt lat="47.82076" lon="-3.63973">
        <ele>19.39999961853</ele>
        <time>2019-08-15T09:57:04.000Z</time>
      </trkpt>
      <trkpt lat="47.82073" lon="-3.63982">
        <ele>19</ele>
        <time>2019-08-15T09:57:05.000Z</time>
      </trkpt>
      <trkpt lat="47.82064" lon="-3.64003">
        <ele>18.60000038147</ele>
        <time>2019-08-15T09:57:08.000Z</time>
      </trkpt>
      <trkpt lat="47.82062" lon="-3.64008">
        <ele>18.200000762939</ele>
        <time>2019-08-15T09:57:09.000Z</time>
      </trkpt>
      <trkpt lat="47.8206" lon="-3.64014">
        <ele>17.799999237061</ele>
        <time>2019-08-15T09:57:10.000Z</time>
      </trkpt>
      <trkpt lat="47.82059" lon="-3.64019">
        <ele>17.799999237061</ele>
        <time>2019-08-15T09:57:11.000Z</time>
      </trkpt>
      <trkpt lat="47.82058" lon="-3.64024">
        <ele>17.60000038147</ele>
        <time>2019-08-15T09:57:12.000Z</time>
      </trkpt>
      <trkpt lat="47.82057" lon="-3.64029">
        <ele>17.60000038147</ele>
        <time>2019-08-15T09:57:13.000Z</time>
      </trkpt>
      <trkpt lat="47.82054" lon="-3.64038">
        <ele>17</ele>
        <time>2019-08-15T09:57:15.000Z</time>
      </trkpt>
      <trkpt lat="47.82052" lon="-3.64043">
        <ele>16.799999237061</ele>
        <time>2019-08-15T09:57:17.000Z</time>
      </trkpt>
      <trkpt lat="47.82049" lon="-3.64057">
        <ele>16.39999961853</ele>
        <time>2019-08-15T09:57:21.000Z</time>
      </trkpt>
      <trkpt lat="47.82049" lon="-3.64067">
        <ele>16.39999961853</ele>
        <time>2019-08-15T09:57:23.000Z</time>
      </trkpt>
      <trkpt lat="47.82048" lon="-3.64072">
        <ele>16.200000762939</ele>
        <time>2019-08-15T09:57:24.000Z</time>
      </trkpt>
      <trkpt lat="47.82046" lon="-3.64079">
        <ele>16.200000762939</ele>
        <time>2019-08-15T09:57:25.000Z</time>
      </trkpt>
      <trkpt lat="47.82045" lon="-3.64091">
        <ele>16</ele>
        <time>2019-08-15T09:57:27.000Z</time>
      </trkpt>
      <trkpt lat="47.82044" lon="-3.64101">
        <ele>16</ele>
        <time>2019-08-15T09:57:29.000Z</time>
      </trkpt>
      <trkpt lat="47.82043" lon="-3.64107">
        <ele>16</ele>
        <time>2019-08-15T09:57:30.000Z</time>
      </trkpt>
      <trkpt lat="47.82043" lon="-3.64112">
        <ele>15.60000038147</ele>
        <time>2019-08-15T09:57:31.000Z</time>
      </trkpt>
      <trkpt lat="47.82041" lon="-3.64122">
        <ele>15.60000038147</ele>
        <time>2019-08-15T09:57:33.000Z</time>
      </trkpt>
      <trkpt lat="47.82039" lon="-3.64139">
        <ele>15.39999961853</ele>
        <time>2019-08-15T09:57:36.000Z</time>
      </trkpt>
      <trkpt lat="47.82038" lon="-3.64162">
        <ele>15</ele>
        <time>2019-08-15T09:57:40.000Z</time>
      </trkpt>
      <trkpt lat="47.82038" lon="-3.64177">
        <ele>14.800000190735</ele>
        <time>2019-08-15T09:57:42.000Z</time>
      </trkpt>
      <trkpt lat="47.82036" lon="-3.64194">
        <ele>14</ele>
        <time>2019-08-15T09:57:46.000Z</time>
      </trkpt>
      <trkpt lat="47.82036" lon="-3.64204">
        <ele>14</ele>
        <time>2019-08-15T09:57:47.000Z</time>
      </trkpt>
      <trkpt lat="47.82036" lon="-3.64211">
        <ele>13.800000190735</ele>
        <time>2019-08-15T09:57:48.000Z</time>
      </trkpt>
      <trkpt lat="47.82036" lon="-3.64217">
        <ele>13.800000190735</ele>
        <time>2019-08-15T09:57:49.000Z</time>
      </trkpt>
      <trkpt lat="47.82035" lon="-3.64235">
        <ele>13.60000038147</ele>
        <time>2019-08-15T09:57:53.000Z</time>
      </trkpt>
      <trkpt lat="47.82035" lon="-3.6424">
        <ele>13.39999961853</ele>
        <time>2019-08-15T09:57:54.000Z</time>
      </trkpt>
      <trkpt lat="47.82035" lon="-3.64243">
        <ele>13.39999961853</ele>
        <time>2019-08-15T09:57:55.000Z</time>
      </trkpt>
      <trkpt lat="47.82034" lon="-3.64247">
        <ele>13.199999809265</ele>
        <time>2019-08-15T09:57:57.000Z</time>
      </trkpt>
      <trkpt lat="47.82034" lon="-3.64249">
        <ele>13.199999809265</ele>
        <time>2019-08-15T09:57:58.000Z</time>
      </trkpt>
      <trkpt lat="47.82034" lon="-3.6425">
        <ele>13</ele>
        <time>2019-08-15T09:57:59.000Z</time>
      </trkpt>
      <trkpt lat="47.82034" lon="-3.64254">
        <ele>13</ele>
        <time>2019-08-15T09:58:00.000Z</time>
      </trkpt>
      <trkpt lat="47.82034" lon="-3.64261">
        <ele>12.800000190735</ele>
        <time>2019-08-15T09:58:02.000Z</time>
      </trkpt>
      <trkpt lat="47.82034" lon="-3.64268">
        <ele>12.800000190735</ele>
        <time>2019-08-15T09:58:05.000Z</time>
      </trkpt>
      <trkpt lat="47.82033" lon="-3.64273">
        <ele>12.60000038147</ele>
        <time>2019-08-15T09:58:07.000Z</time>
      </trkpt>
      <trkpt lat="47.82032" lon="-3.64278">
        <ele>12.60000038147</ele>
        <time>2019-08-15T09:58:10.000Z</time>
      </trkpt>
      <trkpt lat="47.82033" lon="-3.6428">
        <ele>12.60000038147</ele>
        <time>2019-08-15T09:58:11.000Z</time>
      </trkpt>
      <trkpt lat="47.82032" lon="-3.64288">
        <ele>12.39999961853</ele>
        <time>2019-08-15T09:58:14.000Z</time>
      </trkpt>
      <trkpt lat="47.82032" lon="-3.64302">
        <ele>12.199999809265</ele>
        <time>2019-08-15T09:58:18.000Z</time>
      </trkpt>
      <trkpt lat="47.82032" lon="-3.64325">
        <ele>12</ele>
        <time>2019-08-15T09:58:23.000Z</time>
      </trkpt>
      <trkpt lat="47.82032" lon="-3.64337">
        <ele>12</ele>
        <time>2019-08-15T09:58:25.000Z</time>
      </trkpt>
      <trkpt lat="47.82032" lon="-3.64346">
        <ele>12</ele>
        <time>2019-08-15T09:58:26.000Z</time>
      </trkpt>
      <trkpt lat="47.82031" lon="-3.64353">
        <ele>12</ele>
        <time>2019-08-15T09:58:27.000Z</time>
      </trkpt>
      <trkpt lat="47.8203" lon="-3.6436">
        <ele>11.800000190735</ele>
        <time>2019-08-15T09:58:28.000Z</time>
      </trkpt>
      <trkpt lat="47.8203" lon="-3.64364">
        <ele>11.800000190735</ele>
        <time>2019-08-15T09:58:29.000Z</time>
      </trkpt>
      <trkpt lat="47.8203" lon="-3.64368">
        <ele>11.800000190735</ele>
        <time>2019-08-15T09:58:30.000Z</time>
      </trkpt>
      <trkpt lat="47.8203" lon="-3.64372">
        <ele>11.800000190735</ele>
        <time>2019-08-15T09:58:31.000Z</time>
      </trkpt>
      <trkpt lat="47.8203" lon="-3.64376">
        <ele>11.800000190735</ele>
        <time>2019-08-15T09:58:32.000Z</time>
      </trkpt>
      <trkpt lat="47.8203" lon="-3.6438">
        <ele>11.39999961853</ele>
        <time>2019-08-15T09:58:33.000Z</time>
      </trkpt>
      <trkpt lat="47.82031" lon="-3.64384">
        <ele>11.39999961853</ele>
        <time>2019-08-15T09:58:34.000Z</time>
      </trkpt>
      <trkpt lat="47.82031" lon="-3.64388">
        <ele>11.199999809265</ele>
        <time>2019-08-15T09:58:35.000Z</time>
      </trkpt>
      <trkpt lat="47.82032" lon="-3.64392">
        <ele>11.199999809265</ele>
        <time>2019-08-15T09:58:36.000Z</time>
      </trkpt>
      <trkpt lat="47.82032" lon="-3.64396">
        <ele>11</ele>
        <time>2019-08-15T09:58:37.000Z</time>
      </trkpt>
      <trkpt lat="47.82032" lon="-3.64413">
        <ele>10.800000190735</ele>
        <time>2019-08-15T09:58:39.000Z</time>
      </trkpt>
      <trkpt lat="47.82032" lon="-3.6442">
        <ele>10.800000190735</ele>
        <time>2019-08-15T09:58:40.000Z</time>
      </trkpt>
      <trkpt lat="47.82032" lon="-3.64424">
        <ele>10.60000038147</ele>
        <time>2019-08-15T09:58:41.000Z</time>
      </trkpt>
      <trkpt lat="47.82033" lon="-3.64431">
        <ele>10.39999961853</ele>
        <time>2019-08-15T09:58:42.000Z</time>
      </trkpt>
      <trkpt lat="47.82034" lon="-3.64441">
        <ele>10.199999809265</ele>
        <time>2019-08-15T09:58:43.000Z</time>
      </trkpt>
      <trkpt lat="47.82034" lon="-3.64446">
        <ele>10.39999961853</ele>
        <time>2019-08-15T09:58:44.000Z</time>
      </trkpt>
      <trkpt lat="47.82034" lon="-3.64454">
        <ele>10.199999809265</ele>
        <time>2019-08-15T09:58:45.000Z</time>
      </trkpt>
      <trkpt lat="47.82034" lon="-3.64463">
        <ele>10</ele>
        <time>2019-08-15T09:58:46.000Z</time>
      </trkpt>
      <trkpt lat="47.82034" lon="-3.64471">
        <ele>10</ele>
        <time>2019-08-15T09:58:47.000Z</time>
      </trkpt>
      <trkpt lat="47.82034" lon="-3.64476">
        <ele>10</ele>
        <time>2019-08-15T09:58:48.000Z</time>
      </trkpt>
      <trkpt lat="47.82033" lon="-3.64481">
        <ele>10</ele>
        <time>2019-08-15T09:58:49.000Z</time>
      </trkpt>
      <trkpt lat="47.82032" lon="-3.64485">
        <ele>9.8000001907349</ele>
        <time>2019-08-15T09:58:50.000Z</time>
      </trkpt>
      <trkpt lat="47.82032" lon="-3.64494">
        <ele>9.1999998092651</ele>
        <time>2019-08-15T09:58:51.000Z</time>
      </trkpt>
      <trkpt lat="47.82031" lon="-3.64498">
        <ele>8.6000003814697</ele>
        <time>2019-08-15T09:58:52.000Z</time>
      </trkpt>
      <trkpt lat="47.82031" lon="-3.64505">
        <ele>8.3999996185303</ele>
        <time>2019-08-15T09:58:53.000Z</time>
      </trkpt>
      <trkpt lat="47.82031" lon="-3.64518">
        <ele>8.1999998092651</ele>
        <time>2019-08-15T09:58:55.000Z</time>
      </trkpt>
      <trkpt lat="47.8203" lon="-3.64524">
        <ele>8</ele>
        <time>2019-08-15T09:58:56.000Z</time>
      </trkpt>
      <trkpt lat="47.8203" lon="-3.64531">
        <ele>8</ele>
        <time>2019-08-15T09:58:57.000Z</time>
      </trkpt>
      <trkpt lat="47.82028" lon="-3.64545">
        <ele>7.5999999046326</ele>
        <time>2019-08-15T09:59:00.000Z</time>
      </trkpt>
      <trkpt lat="47.82029" lon="-3.64555">
        <ele>7.4000000953674</ele>
        <time>2019-08-15T09:59:02.000Z</time>
      </trkpt>
      <trkpt lat="47.82029" lon="-3.64559">
        <ele>7.4000000953674</ele>
        <time>2019-08-15T09:59:03.000Z</time>
      </trkpt>
      <trkpt lat="47.82029" lon="-3.64565">
        <ele>7.1999998092651</ele>
        <time>2019-08-15T09:59:04.000Z</time>
      </trkpt>
      <trkpt lat="47.82028" lon="-3.64571">
        <ele>7.1999998092651</ele>
        <time>2019-08-15T09:59:05.000Z</time>
      </trkpt>
      <trkpt lat="47.82027" lon="-3.64578">
        <ele>7.1999998092651</ele>
        <time>2019-08-15T09:59:06.000Z</time>
      </trkpt>
      <trkpt lat="47.82027" lon="-3.64584">
        <ele>7</ele>
        <time>2019-08-15T09:59:07.000Z</time>
      </trkpt>
      <trkpt lat="47.82027" lon="-3.64589">
        <ele>7</ele>
        <time>2019-08-15T09:59:08.000Z</time>
      </trkpt>
      <trkpt lat="47.82027" lon="-3.64601">
        <ele>6.5999999046326</ele>
        <time>2019-08-15T09:59:10.000Z</time>
      </trkpt>
      <trkpt lat="47.82027" lon="-3.64614">
        <ele>6.4000000953674</ele>
        <time>2019-08-15T09:59:12.000Z</time>
      </trkpt>
      <trkpt lat="47.82027" lon="-3.6462">
        <ele>6.1999998092651</ele>
        <time>2019-08-15T09:59:13.000Z</time>
      </trkpt>
      <trkpt lat="47.82027" lon="-3.64626">
        <ele>6</ele>
        <time>2019-08-15T09:59:14.000Z</time>
      </trkpt>
      <trkpt lat="47.82027" lon="-3.64634">
        <ele>6</ele>
        <time>2019-08-15T09:59:15.000Z</time>
      </trkpt>
      <trkpt lat="47.82026" lon="-3.64647">
        <ele>6</ele>
        <time>2019-08-15T09:59:16.000Z</time>
      </trkpt>
      <trkpt lat="47.82026" lon="-3.64663">
        <ele>5.5999999046326</ele>
        <time>2019-08-15T09:59:17.000Z</time>
      </trkpt>
      <trkpt lat="47.82027" lon="-3.64684">
        <ele>5.4000000953674</ele>
        <time>2019-08-15T09:59:19.000Z</time>
      </trkpt>
      <trkpt lat="47.82027" lon="-3.64694">
        <ele>5</ele>
        <time>2019-08-15T09:59:20.000Z</time>
      </trkpt>
      <trkpt lat="47.82027" lon="-3.64702">
        <ele>4.8000001907349</ele>
        <time>2019-08-15T09:59:21.000Z</time>
      </trkpt>
      <trkpt lat="47.82026" lon="-3.64722">
        <ele>4.4000000953674</ele>
        <time>2019-08-15T09:59:23.000Z</time>
      </trkpt>
      <trkpt lat="47.82025" lon="-3.64734">
        <ele>4.4000000953674</ele>
        <time>2019-08-15T09:59:24.000Z</time>
      </trkpt>
      <trkpt lat="47.82024" lon="-3.64744">
        <ele>4.1999998092651</ele>
        <time>2019-08-15T09:59:25.000Z</time>
      </trkpt>
      <trkpt lat="47.82024" lon="-3.64753">
        <ele>4.1999998092651</ele>
        <time>2019-08-15T09:59:26.000Z</time>
      </trkpt>
      <trkpt lat="47.82025" lon="-3.6476">
        <ele>4</ele>
        <time>2019-08-15T09:59:27.000Z</time>
      </trkpt>
      <trkpt lat="47.82027" lon="-3.64764">
        <ele>4.1999998092651</ele>
        <time>2019-08-15T09:59:28.000Z</time>
      </trkpt>
      <trkpt lat="47.82028" lon="-3.64768">
        <ele>4</ele>
        <time>2019-08-15T09:59:29.000Z</time>
      </trkpt>
      <trkpt lat="47.8203" lon="-3.64773">
        <ele>3.7999999523163</ele>
        <time>2019-08-15T09:59:30.000Z</time>
      </trkpt>
      <trkpt lat="47.82031" lon="-3.64777">
        <ele>3.7999999523163</ele>
        <time>2019-08-15T09:59:31.000Z</time>
      </trkpt>
      <trkpt lat="47.82034" lon="-3.64797">
        <ele>3</ele>
        <time>2019-08-15T09:59:34.000Z</time>
      </trkpt>
      <trkpt lat="47.82037" lon="-3.64811">
        <ele>2.5999999046326</ele>
        <time>2019-08-15T09:59:36.000Z</time>
      </trkpt>
      <trkpt lat="47.82038" lon="-3.64815">
        <ele>2.4000000953674</ele>
        <time>2019-08-15T09:59:37.000Z</time>
      </trkpt>
      <trkpt lat="47.8204" lon="-3.64819">
        <ele>2.2000000476837</ele>
        <time>2019-08-15T09:59:38.000Z</time>
      </trkpt>
      <trkpt lat="47.82042" lon="-3.64831">
        <ele>2.2000000476837</ele>
        <time>2019-08-15T09:59:40.000Z</time>
      </trkpt>
      <trkpt lat="47.82049" lon="-3.64843">
        <ele>2</ele>
        <time>2019-08-15T09:59:43.000Z</time>
      </trkpt>
      <trkpt lat="47.82052" lon="-3.64848">
        <ele>1.7999999523163</ele>
        <time>2019-08-15T09:59:44.000Z</time>
      </trkpt>
      <trkpt lat="47.82062" lon="-3.6487">
        <ele>1.3999999761581</ele>
        <time>2019-08-15T09:59:48.000Z</time>
      </trkpt>
      <trkpt lat="47.82069" lon="-3.64877">
        <ele>1</ele>
        <time>2019-08-15T09:59:50.000Z</time>
      </trkpt>
      <trkpt lat="47.82072" lon="-3.6488">
        <ele>1</ele>
        <time>2019-08-15T09:59:51.000Z</time>
      </trkpt>
      <trkpt lat="47.82076" lon="-3.64883">
        <ele>0.60000002384186</ele>
        <time>2019-08-15T09:59:52.000Z</time>
      </trkpt>
      <trkpt lat="47.82079" lon="-3.64886">
        <ele>0.40000000596046</ele>
        <time>2019-08-15T09:59:53.000Z</time>
      </trkpt>
      <trkpt lat="47.82087" lon="-3.64894">
        <ele>0.20000000298023</ele>
        <time>2019-08-15T09:59:55.000Z</time>
      </trkpt>
      <trkpt lat="47.82091" lon="-3.64896">
        <ele>6.2</ele>
        <time>2019-08-15T09:59:56.000Z</time>
      </trkpt>
      <trkpt lat="47.82095" lon="-3.64898">
        <ele>5.5</ele>
        <time>2019-08-15T09:59:57.000Z</time>
      </trkpt>
      <trkpt lat="47.821" lon="-3.64902">
        <ele>-0.20000000298023</ele>
        <time>2019-08-15T09:59:58.000Z</time>
      </trkpt>
      <trkpt lat="47.82104" lon="-3.64905">
        <ele>-0.40000000596046</ele>
        <time>2019-08-15T09:59:59.000Z</time>
      </trkpt>
      <trkpt lat="47.82109" lon="-3.64908">
        <ele>-0.60000002384186</ele>
        <time>2019-08-15T10:00:00.000Z</time>
      </trkpt>
      <trkpt lat="47.82113" lon="-3.6491">
        <ele>-1</ele>
        <time>2019-08-15T10:00:01.000Z</time>
      </trkpt>
      <trkpt lat="47.82118" lon="-3.64913">
        <ele>-1</ele>
        <time>2019-08-15T10:00:02.000Z</time>
      </trkpt>
      <trkpt lat="47.82122" lon="-3.64915">
        <ele>-1.2000000476837</ele>
        <time>2019-08-15T10:00:03.000Z</time>
      </trkpt>
      <trkpt lat="47.82126" lon="-3.64917">
        <ele>-1.3999999761581</ele>
        <time>2019-08-15T10:00:04.000Z</time>
      </trkpt>
      <trkpt lat="47.82134" lon="-3.64921">
        <ele>-2.2000000476837</ele>
        <time>2019-08-15T10:00:06.000Z</time>
      </trkpt>
      <trkpt lat="47.82139" lon="-3.64924">
        <ele>-2.4000000953674</ele>
        <time>2019-08-15T10:00:07.000Z</time>
      </trkpt>
      <trkpt lat="47.82144" lon="-3.64926">
        <ele>-2.5999999046326</ele>
        <time>2019-08-15T10:00:08.000Z</time>
      </trkpt>
      <trkpt lat="47.8215" lon="-3.64928">
        <ele>-2.7999999523163</ele>
        <time>2019-08-15T10:00:09.000Z</time>
      </trkpt>
      <trkpt lat="47.8216" lon="-3.64934">
        <ele>-3</ele>
        <time>2019-08-15T10:00:11.000Z</time>
      </trkpt>
      <trkpt lat="47.8217" lon="-3.64941">
        <ele>-3.2000000476837</ele>
        <time>2019-08-15T10:00:13.000Z</time>
      </trkpt>
      <trkpt lat="47.82175" lon="-3.64943">
        <ele>-3.2000000476837</ele>
        <time>2019-08-15T10:00:14.000Z</time>
      </trkpt>
      <trkpt lat="47.8219" lon="-3.64952">
        <ele>-3.4000000953674</ele>
        <time>2019-08-15T10:00:17.000Z</time>
      </trkpt>
      <trkpt lat="47.8222" lon="-3.64965">
        <ele>-3.4000000953674</ele>
        <time>2019-08-15T10:00:22.000Z</time>
      </trkpt>
      <trkpt lat="47.82234" lon="-3.64972">
        <ele>-3.4000000953674</ele>
        <time>2019-08-15T10:00:25.000Z</time>
      </trkpt>
      <trkpt lat="47.82249" lon="-3.6498">
        <ele>-3.5999999046326</ele>
        <time>2019-08-15T10:00:28.000Z</time>
      </trkpt>
      <trkpt lat="47.82252" lon="-3.64981">
        <ele>-3.5999999046326</ele>
        <time>2019-08-15T10:00:29.000Z</time>
      </trkpt>
      <trkpt lat="47.82261" lon="-3.64983">
        <ele>-3.5999999046326</ele>
        <time>2019-08-15T10:00:31.000Z</time>
      </trkpt>
      <trkpt lat="47.82266" lon="-3.64985">
        <ele>-3.5999999046326</ele>
        <time>2019-08-15T10:00:32.000Z</time>
      </trkpt>
      <trkpt lat="47.8227" lon="-3.64988">
        <ele>-3.4000000953674</ele>
        <time>2019-08-15T10:00:33.000Z</time>
      </trkpt>
      <trkpt lat="47.82276" lon="-3.64993">
        <ele>-3.4000000953674</ele>
        <time>2019-08-15T10:00:35.000Z</time>
      </trkpt>
      <trkpt lat="47.82279" lon="-3.64995">
        <ele>-3.4000000953674</ele>
        <time>2019-08-15T10:00:36.000Z</time>
      </trkpt>
      <trkpt lat="47.82292" lon="-3.65002">
        <ele>-2.7999999523163</ele>
        <time>2019-08-15T10:00:40.000Z</time>
      </trkpt>
      <trkpt lat="47.82295" lon="-3.65002">
        <ele>-2.7999999523163</ele>
        <time>2019-08-15T10:00:41.000Z</time>
      </trkpt>
      <trkpt lat="47.82306" lon="-3.65003">
        <ele>-2.7999999523163</ele>
        <time>2019-08-15T10:00:44.000Z</time>
      </trkpt>
      <trkpt lat="47.8231" lon="-3.65004">
        <ele>-2.7999999523163</ele>
        <time>2019-08-15T10:00:45.000Z</time>
      </trkpt>
      <trkpt lat="47.82314" lon="-3.65006">
        <ele>-2.7999999523163</ele>
        <time>2019-08-15T10:00:46.000Z</time>
      </trkpt>
      <trkpt lat="47.82319" lon="-3.65007">
        <ele>-2.5999999046326</ele>
        <time>2019-08-15T10:00:47.000Z</time>
      </trkpt>
      <trkpt lat="47.82327" lon="-3.65007">
        <ele>-2.7999999523163</ele>
        <time>2019-08-15T10:00:49.000Z</time>
      </trkpt>
      <trkpt lat="47.82337" lon="-3.65008">
        <ele>-2.7999999523163</ele>
        <time>2019-08-15T10:00:51.000Z</time>
      </trkpt>
      <trkpt lat="47.82346" lon="-3.6501">
        <ele>-3</ele>
        <time>2019-08-15T10:00:53.000Z</time>
      </trkpt>
      <trkpt lat="47.82355" lon="-3.65012">
        <ele>-2.7999999523163</ele>
        <time>2019-08-15T10:00:55.000Z</time>
      </trkpt>
      <trkpt lat="47.82363" lon="-3.65014">
        <ele>-3</ele>
        <time>2019-08-15T10:00:57.000Z</time>
      </trkpt>
      <trkpt lat="47.82367" lon="-3.65015">
        <ele>-2.7999999523163</ele>
        <time>2019-08-15T10:00:58.000Z</time>
      </trkpt>
      <trkpt lat="47.82371" lon="-3.65016">
        <ele>-2.5999999046326</ele>
        <time>2019-08-15T10:00:59.000Z</time>
      </trkpt>
      <trkpt lat="47.82375" lon="-3.65017">
        <ele>-2.7999999523163</ele>
        <time>2019-08-15T10:01:00.000Z</time>
      </trkpt>
      <trkpt lat="47.82379" lon="-3.65017">
        <ele>-2.7999999523163</ele>
        <time>2019-08-15T10:01:01.000Z</time>
      </trkpt>
      <trkpt lat="47.82386" lon="-3.65017">
        <ele>-2.5999999046326</ele>
        <time>2019-08-15T10:01:03.000Z</time>
      </trkpt>
      <trkpt lat="47.82391" lon="-3.65019">
        <ele>-2.7999999523163</ele>
        <time>2019-08-15T10:01:04.000Z</time>
      </trkpt>
      <trkpt lat="47.82396" lon="-3.6502">
        <ele>-2.4000000953674</ele>
        <time>2019-08-15T10:01:05.000Z</time>
      </trkpt>
      <trkpt lat="47.82401" lon="-3.65019">
        <ele>-2.5999999046326</ele>
        <time>2019-08-15T10:01:06.000Z</time>
      </trkpt>
      <trkpt lat="47.82414" lon="-3.6502">
        <ele>-2.4000000953674</ele>
        <time>2019-08-15T10:01:09.000Z</time>
      </trkpt>
      <trkpt lat="47.82423" lon="-3.65022">
        <ele>-2.4000000953674</ele>
        <time>2019-08-15T10:01:11.000Z</time>
      </trkpt>
      <trkpt lat="47.82428" lon="-3.65023">
        <ele>-2.5999999046326</ele>
        <time>2019-08-15T10:01:12.000Z</time>
      </trkpt>
      <trkpt lat="47.82432" lon="-3.65023">
        <ele>-2.4000000953674</ele>
        <time>2019-08-15T10:01:13.000Z</time>
      </trkpt>
      <trkpt lat="47.82437" lon="-3.65023">
        <ele>-2.2000000476837</ele>
        <time>2019-08-15T10:01:14.000Z</time>
      </trkpt>
      <trkpt lat="47.82442" lon="-3.65023">
        <ele>-2.4000000953674</ele>
        <time>2019-08-15T10:01:15.000Z</time>
      </trkpt>
      <trkpt lat="47.82447" lon="-3.65023">
        <ele>-2.2000000476837</ele>
        <time>2019-08-15T10:01:16.000Z</time>
      </trkpt>
      <trkpt lat="47.82453" lon="-3.65023">
        <ele>-2.2000000476837</ele>
        <time>2019-08-15T10:01:17.000Z</time>
      </trkpt>
      <trkpt lat="47.82474" lon="-3.65024">
        <ele>-1.7999999523163</ele>
        <time>2019-08-15T10:01:22.000Z</time>
      </trkpt>
      <trkpt lat="47.82483" lon="-3.65025">
        <ele>-1.7999999523163</ele>
        <time>2019-08-15T10:01:24.000Z</time>
      </trkpt>
      <trkpt lat="47.82491" lon="-3.65027">
        <ele>-1.6000000238419</ele>
        <time>2019-08-15T10:01:26.000Z</time>
      </trkpt>
      <trkpt lat="47.825" lon="-3.65028">
        <ele>-1.6000000238419</ele>
        <time>2019-08-15T10:01:28.000Z</time>
      </trkpt>
      <trkpt lat="47.82509" lon="-3.6503">
        <ele>-1.6000000238419</ele>
        <time>2019-08-15T10:01:30.000Z</time>
      </trkpt>
      <trkpt lat="47.82513" lon="-3.65031">
        <ele>-1.7999999523163</ele>
        <time>2019-08-15T10:01:31.000Z</time>
      </trkpt>
      <trkpt lat="47.82518" lon="-3.65031">
        <ele>-1.7999999523163</ele>
        <time>2019-08-15T10:01:32.000Z</time>
      </trkpt>
      <trkpt lat="47.82532" lon="-3.65033">
        <ele>-1.6000000238419</ele>
        <time>2019-08-15T10:01:35.000Z</time>
      </trkpt>
      <trkpt lat="47.8254" lon="-3.65034">
        <ele>-1.7999999523163</ele>
        <time>2019-08-15T10:01:37.000Z</time>
      </trkpt>
      <trkpt lat="47.8255" lon="-3.65034">
        <ele>-1.6000000238419</ele>
        <time>2019-08-15T10:01:39.000Z</time>
      </trkpt>
      <trkpt lat="47.82559" lon="-3.65035">
        <ele>-1.6000000238419</ele>
        <time>2019-08-15T10:01:41.000Z</time>
      </trkpt>
      <trkpt lat="47.82567" lon="-3.65035">
        <ele>-1.6000000238419</ele>
        <time>2019-08-15T10:01:43.000Z</time>
      </trkpt>
      <trkpt lat="47.82571" lon="-3.65035">
        <ele>-1.6000000238419</ele>
        <time>2019-08-15T10:01:44.000Z</time>
      </trkpt>
      <trkpt lat="47.82575" lon="-3.65035">
        <ele>-1.6000000238419</ele>
        <time>2019-08-15T10:01:45.000Z</time>
      </trkpt>
      <trkpt lat="47.82579" lon="-3.65036">
        <ele>-1.3999999761581</ele>
        <time>2019-08-15T10:01:46.000Z</time>
      </trkpt>
      <trkpt lat="47.82597" lon="-3.65037">
        <ele>-1.6000000238419</ele>
        <time>2019-08-15T10:01:50.000Z</time>
      </trkpt>
      <trkpt lat="47.82603" lon="-3.65037">
        <ele>-1.3999999761581</ele>
        <time>2019-08-15T10:01:51.000Z</time>
      </trkpt>
      <trkpt lat="47.82609" lon="-3.65038">
        <ele>-1.2000000476837</ele>
        <time>2019-08-15T10:01:52.000Z</time>
      </trkpt>
      <trkpt lat="47.82617" lon="-3.65039">
        <ele>-1.2000000476837</ele>
        <time>2019-08-15T10:01:54.000Z</time>
      </trkpt>
      <trkpt lat="47.82621" lon="-3.6504">
        <ele>-1</ele>
        <time>2019-08-15T10:01:55.000Z</time>
      </trkpt>
      <trkpt lat="47.8265" lon="-3.65044">
        <ele>-0.60000002384186</ele>
        <time>2019-08-15T10:02:01.000Z</time>
      </trkpt>
      <trkpt lat="47.82664" lon="-3.65044">
        <ele>-0.60000002384186</ele>
        <time>2019-08-15T10:02:04.000Z</time>
      </trkpt>
      <trkpt lat="47.82675" lon="-3.65043">
        <ele>-0.20000000298023</ele>
        <time>2019-08-15T10:02:06.000Z</time>
      </trkpt>
      <trkpt lat="47.82679" lon="-3.65043">
        <ele>-0.20000000298023</ele>
        <time>2019-08-15T10:02:07.000Z</time>
      </trkpt>
      <trkpt lat="47.82683" lon="-3.65044">
        <ele>-0.20000000298023</ele>
        <time>2019-08-15T10:02:08.000Z</time>
      </trkpt>
      <trkpt lat="47.82695" lon="-3.65042">
        <ele>0.20000000298023</ele>
        <time>2019-08-15T10:02:11.000Z</time>
      </trkpt>
      <trkpt lat="47.82699" lon="-3.65042">
        <ele>0.40000000596046</ele>
        <time>2019-08-15T10:02:12.000Z</time>
      </trkpt>
      <trkpt lat="47.82702" lon="-3.65043">
        <ele>0.60000002384186</ele>
        <time>2019-08-15T10:02:13.000Z</time>
      </trkpt>
      <trkpt lat="47.82706" lon="-3.65042">
        <ele>0.40000000596046</ele>
        <time>2019-08-15T10:02:14.000Z</time>
      </trkpt>
      <trkpt lat="47.82715" lon="-3.65039">
        <ele>0.80000001192093</ele>
        <time>2019-08-15T10:02:16.000Z</time>
      </trkpt>
      <trkpt lat="47.82724" lon="-3.65037">
        <ele>1</ele>
        <time>2019-08-15T10:02:18.000Z</time>
      </trkpt>
      <trkpt lat="47.82729" lon="-3.65036">
        <ele>1</ele>
        <time>2019-08-15T10:02:19.000Z</time>
      </trkpt>
      <trkpt lat="47.82743" lon="-3.65033">
        <ele>1.2000000476837</ele>
        <time>2019-08-15T10:02:22.000Z</time>
      </trkpt>
      <trkpt lat="47.82751" lon="-3.65032">
        <ele>1.7999999523163</ele>
        <time>2019-08-15T10:02:24.000Z</time>
      </trkpt>
      <trkpt lat="47.82756" lon="-3.65032">
        <ele>1.7999999523163</ele>
        <time>2019-08-15T10:02:25.000Z</time>
      </trkpt>
      <trkpt lat="47.8276" lon="-3.65032">
        <ele>1.7999999523163</ele>
        <time>2019-08-15T10:02:26.000Z</time>
      </trkpt>
      <trkpt lat="47.82765" lon="-3.65032">
        <ele>2</ele>
        <time>2019-08-15T10:02:27.000Z</time>
      </trkpt>
      <trkpt lat="47.82769" lon="-3.65031">
        <ele>2.2000000476837</ele>
        <time>2019-08-15T10:02:28.000Z</time>
      </trkpt>
      <trkpt lat="47.82775" lon="-3.6503">
        <ele>2.2000000476837</ele>
        <time>2019-08-15T10:02:29.000Z</time>
      </trkpt>
      <trkpt lat="47.82788" lon="-3.65028">
        <ele>2.5999999046326</ele>
        <time>2019-08-15T10:02:32.000Z</time>
      </trkpt>
      <trkpt lat="47.82792" lon="-3.65027">
        <ele>2.7999999523163</ele>
        <time>2019-08-15T10:02:33.000Z</time>
      </trkpt>
      <trkpt lat="47.82796" lon="-3.65026">
        <ele>2.5999999046326</ele>
        <time>2019-08-15T10:02:34.000Z</time>
      </trkpt>
      <trkpt lat="47.828" lon="-3.65025">
        <ele>2.5999999046326</ele>
        <time>2019-08-15T10:02:35.000Z</time>
      </trkpt>
      <trkpt lat="47.8281" lon="-3.65022">
        <ele>2.7999999523163</ele>
        <time>2019-08-15T10:02:38.000Z</time>
      </trkpt>
      <trkpt lat="47.82814" lon="-3.65021">
        <ele>2.7999999523163</ele>
        <time>2019-08-15T10:02:39.000Z</time>
      </trkpt>
      <trkpt lat="47.82817" lon="-3.6502">
        <ele>3</ele>
        <time>2019-08-15T10:02:40.000Z</time>
      </trkpt>
      <trkpt lat="47.8282" lon="-3.65019">
        <ele>3</ele>
        <time>2019-08-15T10:02:41.000Z</time>
      </trkpt>
      <trkpt lat="47.82839" lon="-3.65015">
        <ele>3.5999999046326</ele>
        <time>2019-08-15T10:02:45.000Z</time>
      </trkpt>
      <trkpt lat="47.82843" lon="-3.65014">
        <ele>3.5999999046326</ele>
        <time>2019-08-15T10:02:46.000Z</time>
      </trkpt>
      <trkpt lat="47.82853" lon="-3.65011">
        <ele>4</ele>
        <time>2019-08-15T10:02:48.000Z</time>
      </trkpt>
      <trkpt lat="47.82869" lon="-3.65008">
        <ele>4.4000000953674</ele>
        <time>2019-08-15T10:02:52.000Z</time>
      </trkpt>
      <trkpt lat="47.82877" lon="-3.65008">
        <ele>4.8000001907349</ele>
        <time>2019-08-15T10:02:54.000Z</time>
      </trkpt>
      <trkpt lat="47.82881" lon="-3.65006">
        <ele>5</ele>
        <time>2019-08-15T10:02:55.000Z</time>
      </trkpt>
      <trkpt lat="47.82886" lon="-3.65005">
        <ele>5</ele>
        <time>2019-08-15T10:02:56.000Z</time>
      </trkpt>
      <trkpt lat="47.82891" lon="-3.65004">
        <ele>5.1999998092651</ele>
        <time>2019-08-15T10:02:57.000Z</time>
      </trkpt>
      <trkpt lat="47.82901" lon="-3.65004">
        <ele>5.5999999046326</ele>
        <time>2019-08-15T10:02:59.000Z</time>
      </trkpt>
      <trkpt lat="47.82906" lon="-3.65005">
        <ele>5.5999999046326</ele>
        <time>2019-08-15T10:03:00.000Z</time>
      </trkpt>
      <trkpt lat="47.82911" lon="-3.65005">
        <ele>5.5999999046326</ele>
        <time>2019-08-15T10:03:01.000Z</time>
      </trkpt>
      <trkpt lat="47.82916" lon="-3.65003">
        <ele>5.5999999046326</ele>
        <time>2019-08-15T10:03:02.000Z</time>
      </trkpt>
      <trkpt lat="47.82921" lon="-3.65002">
        <ele>5.5999999046326</ele>
        <time>2019-08-15T10:03:03.000Z</time>
      </trkpt>
      <trkpt lat="47.82925" lon="-3.65001">
        <ele>5.5999999046326</ele>
        <time>2019-08-15T10:03:04.000Z</time>
      </trkpt>
      <trkpt lat="47.82933" lon="-3.65">
        <ele>6</ele>
        <time>2019-08-15T10:03:06.000Z</time>
      </trkpt>
      <trkpt lat="47.82938" lon="-3.64999">
        <ele>6</ele>
        <time>2019-08-15T10:03:07.000Z</time>
      </trkpt>
      <trkpt lat="47.82948" lon="-3.64997">
        <ele>6.4000000953674</ele>
        <time>2019-08-15T10:03:09.000Z</time>
      </trkpt>
      <trkpt lat="47.82951" lon="-3.64997">
        <ele>6.4000000953674</ele>
        <time>2019-08-15T10:03:10.000Z</time>
      </trkpt>
      <trkpt lat="47.82957" lon="-3.64998">
        <ele>6.5999999046326</ele>
        <time>2019-08-15T10:03:11.000Z</time>
      </trkpt>
      <trkpt lat="47.8296" lon="-3.64998">
        <ele>6.4000000953674</ele>
        <time>2019-08-15T10:03:12.000Z</time>
      </trkpt>
      <trkpt lat="47.82964" lon="-3.64998">
        <ele>6.5999999046326</ele>
        <time>2019-08-15T10:03:13.000Z</time>
      </trkpt>
      <trkpt lat="47.82979" lon="-3.64996">
        <ele>7</ele>
        <time>2019-08-15T10:03:17.000Z</time>
      </trkpt>
      <trkpt lat="47.82997" lon="-3.64986">
        <ele>7.5999999046326</ele>
        <time>2019-08-15T10:03:21.000Z</time>
      </trkpt>
      <trkpt lat="47.83001" lon="-3.64981">
        <ele>7.8000001907349</ele>
        <time>2019-08-15T10:03:22.000Z</time>
      </trkpt>
      <trkpt lat="47.83006" lon="-3.64976">
        <ele>7.8000001907349</ele>
        <time>2019-08-15T10:03:23.000Z</time>
      </trkpt>
      <trkpt lat="47.83015" lon="-3.64966">
        <ele>7.8000001907349</ele>
        <time>2019-08-15T10:03:25.000Z</time>
      </trkpt>
      <trkpt lat="47.83025" lon="-3.64951">
        <ele>7.8000001907349</ele>
        <time>2019-08-15T10:03:27.000Z</time>
      </trkpt>
      <trkpt lat="47.8305" lon="-3.64911">
        <ele>6.5999999046326</ele>
        <time>2019-08-15T10:03:33.000Z</time>
      </trkpt>
      <trkpt lat="47.83054" lon="-3.64905">
        <ele>6.4000000953674</ele>
        <time>2019-08-15T10:03:34.000Z</time>
      </trkpt>
      <trkpt lat="47.83062" lon="-3.64891">
        <ele>6.1999998092651</ele>
        <time>2019-08-15T10:03:36.000Z</time>
      </trkpt>
      <trkpt lat="47.83068" lon="-3.6488">
        <ele>6.1999998092651</ele>
        <time>2019-08-15T10:03:38.000Z</time>
      </trkpt>
      <trkpt lat="47.83074" lon="-3.64868">
        <ele>6</ele>
        <time>2019-08-15T10:03:40.000Z</time>
      </trkpt>
      <trkpt lat="47.83084" lon="-3.64852">
        <ele>6</ele>
        <time>2019-08-15T10:03:43.000Z</time>
      </trkpt>
      <trkpt lat="47.83087" lon="-3.64847">
        <ele>6.1999998092651</ele>
        <time>2019-08-15T10:03:44.000Z</time>
      </trkpt>
      <trkpt lat="47.83092" lon="-3.64838">
        <ele>6.1999998092651</ele>
        <time>2019-08-15T10:03:46.000Z</time>
      </trkpt>
      <trkpt lat="47.83096" lon="-3.6483">
        <ele>6.4000000953674</ele>
        <time>2019-08-15T10:03:48.000Z</time>
      </trkpt>
      <trkpt lat="47.83108" lon="-3.64809">
        <ele>7.1999998092651</ele>
        <time>2019-08-15T10:03:53.000Z</time>
      </trkpt>
      <trkpt lat="47.83111" lon="-3.64804">
        <ele>7.5999999046326</ele>
        <time>2019-08-15T10:03:54.000Z</time>
      </trkpt>
      <trkpt lat="47.83115" lon="-3.64797">
        <ele>8</ele>
        <time>2019-08-15T10:03:56.000Z</time>
      </trkpt>
      <trkpt lat="47.8312" lon="-3.64785">
        <ele>8.8000001907349</ele>
        <time>2019-08-15T10:03:59.000Z</time>
      </trkpt>
      <trkpt lat="47.83124" lon="-3.64774">
        <ele>9.1999998092651</ele>
        <time>2019-08-15T10:04:02.000Z</time>
      </trkpt>
      <trkpt lat="47.83137" lon="-3.64753">
        <ele>10.39999961853</ele>
        <time>2019-08-15T10:04:07.000Z</time>
      </trkpt>
      <trkpt lat="47.8314" lon="-3.64746">
        <ele>10.800000190735</ele>
        <time>2019-08-15T10:04:09.000Z</time>
      </trkpt>
      <trkpt lat="47.8315" lon="-3.64728">
        <ele>11.39999961853</ele>
        <time>2019-08-15T10:04:14.000Z</time>
      </trkpt>
      <trkpt lat="47.83152" lon="-3.64724">
        <ele>11.800000190735</ele>
        <time>2019-08-15T10:04:15.000Z</time>
      </trkpt>
      <trkpt lat="47.83164" lon="-3.64703">
        <ele>13.199999809265</ele>
        <time>2019-08-15T10:04:21.000Z</time>
      </trkpt>
      <trkpt lat="47.83169" lon="-3.64693">
        <ele>13.800000190735</ele>
        <time>2019-08-15T10:04:23.000Z</time>
      </trkpt>
      <trkpt lat="47.83175" lon="-3.64684">
        <ele>14.199999809265</ele>
        <time>2019-08-15T10:04:26.000Z</time>
      </trkpt>
      <trkpt lat="47.83185" lon="-3.64665">
        <ele>15.39999961853</ele>
        <time>2019-08-15T10:04:31.000Z</time>
      </trkpt>
      <trkpt lat="47.83191" lon="-3.64652">
        <ele>16</ele>
        <time>2019-08-15T10:04:34.000Z</time>
      </trkpt>
      <trkpt lat="47.83195" lon="-3.64645">
        <ele>16.39999961853</ele>
        <time>2019-08-15T10:04:36.000Z</time>
      </trkpt>
      <trkpt lat="47.8321" lon="-3.64615">
        <ele>17.200000762939</ele>
        <time>2019-08-15T10:04:43.000Z</time>
      </trkpt>
      <trkpt lat="47.83227" lon="-3.64583">
        <ele>18</ele>
        <time>2019-08-15T10:04:50.000Z</time>
      </trkpt>
      <trkpt lat="47.8323" lon="-3.64577">
        <ele>18.200000762939</ele>
        <time>2019-08-15T10:04:51.000Z</time>
      </trkpt>
      <trkpt lat="47.83243" lon="-3.6455">
        <ele>18.200000762939</ele>
        <time>2019-08-15T10:04:56.000Z</time>
      </trkpt>
      <trkpt lat="47.83252" lon="-3.64534">
        <ele>18.200000762939</ele>
        <time>2019-08-15T10:04:59.000Z</time>
      </trkpt>
      <trkpt lat="47.83264" lon="-3.6451">
        <ele>18.200000762939</ele>
        <time>2019-08-15T10:05:03.000Z</time>
      </trkpt>
      <trkpt lat="47.83267" lon="-3.64504">
        <ele>18.200000762939</ele>
        <time>2019-08-15T10:05:04.000Z</time>
      </trkpt>
      <trkpt lat="47.83278" lon="-3.64486">
        <ele>18.200000762939</ele>
        <time>2019-08-15T10:05:07.000Z</time>
      </trkpt>
      <trkpt lat="47.83288" lon="-3.64465">
        <ele>18.39999961853</ele>
        <time>2019-08-15T10:05:11.000Z</time>
      </trkpt>
      <trkpt lat="47.83293" lon="-3.64456">
        <ele>18.39999961853</ele>
        <time>2019-08-15T10:05:13.000Z</time>
      </trkpt>
      <trkpt lat="47.83301" lon="-3.64444">
        <ele>18.799999237061</ele>
        <time>2019-08-15T10:05:16.000Z</time>
      </trkpt>
      <trkpt lat="47.83305" lon="-3.64436">
        <ele>19.39999961853</ele>
        <time>2019-08-15T10:05:18.000Z</time>
      </trkpt>
      <trkpt lat="47.83308" lon="-3.6443">
        <ele>19.60000038147</ele>
        <time>2019-08-15T10:05:19.000Z</time>
      </trkpt>
      <trkpt lat="47.83314" lon="-3.64416">
        <ele>20.200000762939</ele>
        <time>2019-08-15T10:05:23.000Z</time>
      </trkpt>
      <trkpt lat="47.83319" lon="-3.64407">
        <ele>20.60000038147</ele>
        <time>2019-08-15T10:05:25.000Z</time>
      </trkpt>
      <trkpt lat="47.83328" lon="-3.6439">
        <ele>21.200000762939</ele>
        <time>2019-08-15T10:05:29.000Z</time>
      </trkpt>
      <trkpt lat="47.8333" lon="-3.64386">
        <ele>21.39999961853</ele>
        <time>2019-08-15T10:05:30.000Z</time>
      </trkpt>
      <trkpt lat="47.83335" lon="-3.64374">
        <ele>21.799999237061</ele>
        <time>2019-08-15T10:05:33.000Z</time>
      </trkpt>
      <trkpt lat="47.83339" lon="-3.64364">
        <ele>22</ele>
        <time>2019-08-15T10:05:35.000Z</time>
      </trkpt>
      <trkpt lat="47.83348" lon="-3.64351">
        <ele>22.60000038147</ele>
        <time>2019-08-15T10:05:38.000Z</time>
      </trkpt>
      <trkpt lat="47.8336" lon="-3.64333">
        <ele>23</ele>
        <time>2019-08-15T10:05:42.000Z</time>
      </trkpt>
      <trkpt lat="47.83364" lon="-3.64327">
        <ele>23.200000762939</ele>
        <time>2019-08-15T10:05:43.000Z</time>
      </trkpt>
      <trkpt lat="47.8337" lon="-3.64317">
        <ele>23.39999961853</ele>
        <time>2019-08-15T10:05:45.000Z</time>
      </trkpt>
      <trkpt lat="47.83374" lon="-3.64308">
        <ele>23.799999237061</ele>
        <time>2019-08-15T10:05:47.000Z</time>
      </trkpt>
      <trkpt lat="47.83377" lon="-3.64302">
        <ele>23.799999237061</ele>
        <time>2019-08-15T10:05:48.000Z</time>
      </trkpt>
      <trkpt lat="47.83386" lon="-3.64283">
        <ele>24.60000038147</ele>
        <time>2019-08-15T10:05:52.000Z</time>
      </trkpt>
      <trkpt lat="47.83393" lon="-3.64271">
        <ele>25.200000762939</ele>
        <time>2019-08-15T10:05:55.000Z</time>
      </trkpt>
      <trkpt lat="47.83399" lon="-3.64261">
        <ele>25.39999961853</ele>
        <time>2019-08-15T10:05:57.000Z</time>
      </trkpt>
      <trkpt lat="47.83406" lon="-3.64247">
        <ele>25.60000038147</ele>
        <time>2019-08-15T10:06:00.000Z</time>
      </trkpt>
      <trkpt lat="47.8342" lon="-3.64225">
        <ele>26.200000762939</ele>
        <time>2019-08-15T10:06:05.000Z</time>
      </trkpt>
      <trkpt lat="47.83425" lon="-3.64214">
        <ele>26.39999961853</ele>
        <time>2019-08-15T10:06:07.000Z</time>
      </trkpt>
      <trkpt lat="47.83431" lon="-3.642">
        <ele>26.799999237061</ele>
        <time>2019-08-15T10:06:10.000Z</time>
      </trkpt>
      <trkpt lat="47.83431" lon="-3.64193">
        <ele>26.799999237061</ele>
        <time>2019-08-15T10:06:11.000Z</time>
      </trkpt>
      <trkpt lat="47.83427" lon="-3.64183">
        <ele>27</ele>
        <time>2019-08-15T10:06:13.000Z</time>
      </trkpt>
      <trkpt lat="47.83425" lon="-3.64179">
        <ele>27</ele>
        <time>2019-08-15T10:06:14.000Z</time>
      </trkpt>
      <trkpt lat="47.83422" lon="-3.64175">
        <ele>27</ele>
        <time>2019-08-15T10:06:15.000Z</time>
      </trkpt>
      <trkpt lat="47.83416" lon="-3.64165">
        <ele>27</ele>
        <time>2019-08-15T10:06:17.000Z</time>
      </trkpt>
      <trkpt lat="47.83412" lon="-3.64157">
        <ele>27.200000762939</ele>
        <time>2019-08-15T10:06:19.000Z</time>
      </trkpt>
      <trkpt lat="47.83407" lon="-3.64143">
        <ele>27.60000038147</ele>
        <time>2019-08-15T10:06:22.000Z</time>
      </trkpt>
      <trkpt lat="47.83401" lon="-3.64119">
        <ele>28.60000038147</ele>
        <time>2019-08-15T10:06:28.000Z</time>
      </trkpt>
      <trkpt lat="47.83399" lon="-3.64111">
        <ele>28.799999237061</ele>
        <time>2019-08-15T10:06:30.000Z</time>
      </trkpt>
      <trkpt lat="47.83398" lon="-3.64099">
        <ele>29.39999961853</ele>
        <time>2019-08-15T10:06:33.000Z</time>
      </trkpt>
      <trkpt lat="47.83396" lon="-3.64091">
        <ele>30.200000762939</ele>
        <time>2019-08-15T10:06:35.000Z</time>
      </trkpt>
      <trkpt lat="47.83391" lon="-3.64088">
        <ele>30.799999237061</ele>
        <time>2019-08-15T10:06:37.000Z</time>
      </trkpt>
      <trkpt lat="47.8339" lon="-3.64088">
        <ele>31.39999961853</ele>
        <time>2019-08-15T10:06:38.000Z</time>
      </trkpt>
      <trkpt lat="47.83384" lon="-3.6409">
        <ele>32</ele>
        <time>2019-08-15T10:06:41.000Z</time>
      </trkpt>
      <trkpt lat="47.83382" lon="-3.64087">
        <ele>32.200000762939</ele>
        <time>2019-08-15T10:06:43.000Z</time>
      </trkpt>
      <trkpt lat="47.83381" lon="-3.64085">
        <ele>32.400001525879</ele>
        <time>2019-08-15T10:06:44.000Z</time>
      </trkpt>
      <trkpt lat="47.83387" lon="-3.64085">
        <ele>32.599998474121</ele>
        <time>2019-08-15T10:06:48.000Z</time>
      </trkpt>
      <trkpt lat="47.83397" lon="-3.64079">
        <ele>32.400001525879</ele>
        <time>2019-08-15T10:06:53.000Z</time>
      </trkpt>
      <trkpt lat="47.83395" lon="-3.64065">
        <ele>32.400001525879</ele>
        <time>2019-08-15T10:06:57.000Z</time>
      </trkpt>
      <trkpt lat="47.83395" lon="-3.64063">
        <ele>32.400001525879</ele>
        <time>2019-08-15T10:06:58.000Z</time>
      </trkpt>
      <trkpt lat="47.83394" lon="-3.6406">
        <ele>32.400001525879</ele>
        <time>2019-08-15T10:07:01.000Z</time>
      </trkpt>
      <trkpt lat="47.83393" lon="-3.64056">
        <ele>32.200000762939</ele>
        <time>2019-08-15T10:07:05.000Z</time>
      </trkpt>
      <trkpt lat="47.83394" lon="-3.64053">
        <ele>32.400001525879</ele>
        <time>2019-08-15T10:07:07.000Z</time>
      </trkpt>
      <trkpt lat="47.83397" lon="-3.64045">
        <ele>32.200000762939</ele>
        <time>2019-08-15T10:07:12.000Z</time>
      </trkpt>
      <trkpt lat="47.83397" lon="-3.64043">
        <ele>32.200000762939</ele>
        <time>2019-08-15T10:07:13.000Z</time>
      </trkpt>
      <trkpt lat="47.83398" lon="-3.64041">
        <ele>32.200000762939</ele>
        <time>2019-08-15T10:07:14.000Z</time>
      </trkpt>
      <trkpt lat="47.83401" lon="-3.64025">
        <ele>32.400001525879</ele>
        <time>2019-08-15T10:07:18.000Z</time>
      </trkpt>
      <trkpt lat="47.83396" lon="-3.64014">
        <ele>32.200000762939</ele>
        <time>2019-08-15T10:07:21.000Z</time>
      </trkpt>
      <trkpt lat="47.83389" lon="-3.64002">
        <ele>32.200000762939</ele>
        <time>2019-08-15T10:07:25.000Z</time>
      </trkpt>
      <trkpt lat="47.83387" lon="-3.63999">
        <ele>32.400001525879</ele>
        <time>2019-08-15T10:07:26.000Z</time>
      </trkpt>
      <trkpt lat="47.8338" lon="-3.63997">
        <ele>32.200000762939</ele>
        <time>2019-08-15T10:07:29.000Z</time>
      </trkpt>
      <trkpt lat="47.83378" lon="-3.63999">
        <ele>32</ele>
        <time>2019-08-15T10:07:30.000Z</time>
      </trkpt>
      <trkpt lat="47.83365" lon="-3.64023">
        <ele>31.799999237061</ele>
        <time>2019-08-15T10:07:37.000Z</time>
      </trkpt>
      <trkpt lat="47.83364" lon="-3.64027">
        <ele>31.799999237061</ele>
        <time>2019-08-15T10:07:38.000Z</time>
      </trkpt>
      <trkpt lat="47.83361" lon="-3.64044">
        <ele>31.799999237061</ele>
        <time>2019-08-15T10:07:41.000Z</time>
      </trkpt>
      <trkpt lat="47.83362" lon="-3.64053">
        <ele>31.799999237061</ele>
        <time>2019-08-15T10:07:43.000Z</time>
      </trkpt>
      <trkpt lat="47.83368" lon="-3.6407">
        <ele>31.60000038147</ele>
        <time>2019-08-15T10:07:49.000Z</time>
      </trkpt>
      <trkpt lat="47.8337" lon="-3.64072">
        <ele>31.799999237061</ele>
        <time>2019-08-15T10:07:50.000Z</time>
      </trkpt>
      <trkpt lat="47.8338" lon="-3.64082">
        <ele>32.400001525879</ele>
        <time>2019-08-15T10:07:55.000Z</time>
      </trkpt>
      <trkpt lat="47.83379" lon="-3.64084">
        <ele>32.599998474121</ele>
        <time>2019-08-15T10:07:57.000Z</time>
      </trkpt>
      <trkpt lat="47.83378" lon="-3.64084">
        <ele>32.599998474121</ele>
        <time>2019-08-15T10:07:59.000Z</time>
      </trkpt>
      <trkpt lat="47.83377" lon="-3.64084">
        <ele>32.599998474121</ele>
        <time>2019-08-15T10:08:05.000Z</time>
      </trkpt>
      <trkpt lat="47.83377" lon="-3.64084">
        <ele>32.400001525879</ele>
        <time>2019-08-15T10:08:11.000Z</time>
      </trkpt>
      <trkpt lat="47.83377" lon="-3.64084">
        <ele>32.400001525879</ele>
        <time>2019-08-15T10:08:12.000Z</time>
      </trkpt>
      <trkpt lat="47.83377" lon="-3.64084">
        <ele>32.400001525879</ele>
        <time>2019-08-15T10:08:13.000Z</time>
      </trkpt>
      <trkpt lat="47.83377" lon="-3.64084">
        <ele>32.599998474121</ele>
        <time>2019-08-15T10:08:14.000Z</time>
      </trkpt>
      <trkpt lat="47.83377" lon="-3.64084">
        <ele>32.599998474121</ele>
        <time>2019-08-15T10:08:15.000Z</time>
      </trkpt>
      <trkpt lat="47.83377" lon="-3.64084">
        <ele>32.400001525879</ele>
        <time>2019-08-15T10:08:25.000Z</time>
      </trkpt>
      <trkpt lat="47.83377" lon="-3.64084">
        <ele>32.400001525879</ele>
        <time>2019-08-15T10:08:26.000Z</time>
      </trkpt>
      <trkpt lat="47.83373" lon="-3.64077">
        <ele>32.400001525879</ele>
        <time>2019-08-15T10:08:48.000Z</time>
      </trkpt>
      <trkpt lat="47.83364" lon="-3.64062">
        <ele>32.400001525879</ele>
        <time>2019-08-15T10:08:56.000Z</time>
      </trkpt>
      <trkpt lat="47.83362" lon="-3.64059">
        <ele>32.400001525879</ele>
        <time>2019-08-15T10:08:58.000Z</time>
      </trkpt>
      <trkpt lat="47.83359" lon="-3.64058">
        <ele>32.400001525879</ele>
        <time>2019-08-15T10:09:00.000Z</time>
      </trkpt>
      <trkpt lat="47.83357" lon="-3.64058">
        <ele>32.200000762939</ele>
        <time>2019-08-15T10:09:01.000Z</time>
      </trkpt>
      <trkpt lat="47.83349" lon="-3.64055">
        <ele>31.799999237061</ele>
        <time>2019-08-15T10:09:09.000Z</time>
      </trkpt>
      <trkpt lat="47.83348" lon="-3.64051">
        <ele>31.799999237061</ele>
        <time>2019-08-15T10:09:14.000Z</time>
      </trkpt>
      <trkpt lat="47.83349" lon="-3.64047">
        <ele>31.60000038147</ele>
        <time>2019-08-15T10:09:16.000Z</time>
      </trkpt>
      <trkpt lat="47.83353" lon="-3.64028">
        <ele>31.200000762939</ele>
        <time>2019-08-15T10:09:23.000Z</time>
      </trkpt>
      <trkpt lat="47.83356" lon="-3.64015">
        <ele>31.39999961853</ele>
        <time>2019-08-15T10:09:29.000Z</time>
      </trkpt>
      <trkpt lat="47.83356" lon="-3.64013">
        <ele>31.39999961853</ele>
        <time>2019-08-15T10:09:30.000Z</time>
      </trkpt>
      <trkpt lat="47.83358" lon="-3.64008">
        <ele>31.39999961853</ele>
        <time>2019-08-15T10:09:33.000Z</time>
      </trkpt>
      <trkpt lat="47.83358" lon="-3.64007">
        <ele>31.200000762939</ele>
        <time>2019-08-15T10:09:34.000Z</time>
      </trkpt>
      <trkpt lat="47.83358" lon="-3.64">
        <ele>31.200000762939</ele>
        <time>2019-08-15T10:09:36.000Z</time>
      </trkpt>
      <trkpt lat="47.83359" lon="-3.63995">
        <ele>31</ele>
        <time>2019-08-15T10:09:39.000Z</time>
      </trkpt>
      <trkpt lat="47.83361" lon="-3.63984">
        <ele>30.799999237061</ele>
        <time>2019-08-15T10:09:45.000Z</time>
      </trkpt>
      <trkpt lat="47.83362" lon="-3.6398">
        <ele>30.799999237061</ele>
        <time>2019-08-15T10:09:47.000Z</time>
      </trkpt>
      <trkpt lat="47.83363" lon="-3.63978">
        <ele>31</ele>
        <time>2019-08-15T10:09:49.000Z</time>
      </trkpt>
      <trkpt lat="47.83364" lon="-3.63979">
        <ele>30.799999237061</ele>
        <time>2019-08-15T10:09:50.000Z</time>
      </trkpt>
      <trkpt lat="47.83365" lon="-3.6398">
        <ele>30.799999237061</ele>
        <time>2019-08-15T10:09:51.000Z</time>
      </trkpt>
      <trkpt lat="47.83362" lon="-3.63988">
        <ele>30.799999237061</ele>
        <time>2019-08-15T10:09:55.000Z</time>
      </trkpt>
      <trkpt lat="47.8336" lon="-3.63994">
        <ele>31</ele>
        <time>2019-08-15T10:09:58.000Z</time>
      </trkpt>
      <trkpt lat="47.83359" lon="-3.63997">
        <ele>30.799999237061</ele>
        <time>2019-08-15T10:09:59.000Z</time>
      </trkpt>
      <trkpt lat="47.83358" lon="-3.6401">
        <ele>31</ele>
        <time>2019-08-15T10:10:02.000Z</time>
      </trkpt>
      <trkpt lat="47.83358" lon="-3.6401">
        <ele>31.200000762939</ele>
        <time>2019-08-15T10:10:03.000Z</time>
      </trkpt>
      <trkpt lat="47.83359" lon="-3.64013">
        <ele>31.200000762939</ele>
        <time>2019-08-15T10:10:04.000Z</time>
      </trkpt>
      <trkpt lat="47.83362" lon="-3.64022">
        <ele>31</ele>
        <time>2019-08-15T10:10:06.000Z</time>
      </trkpt>
      <trkpt lat="47.83365" lon="-3.64022">
        <ele>31.200000762939</ele>
        <time>2019-08-15T10:10:08.000Z</time>
      </trkpt>
      <trkpt lat="47.8337" lon="-3.64016">
        <ele>31.200000762939</ele>
        <time>2019-08-15T10:10:11.000Z</time>
      </trkpt>
      <trkpt lat="47.83372" lon="-3.64011">
        <ele>31.39999961853</ele>
        <time>2019-08-15T10:10:13.000Z</time>
      </trkpt>
      <trkpt lat="47.83386" lon="-3.63985">
        <ele>31.799999237061</ele>
        <time>2019-08-15T10:10:22.000Z</time>
      </trkpt>
      <trkpt lat="47.83387" lon="-3.63964">
        <ele>32</ele>
        <time>2019-08-15T10:10:27.000Z</time>
      </trkpt>
      <trkpt lat="47.83387" lon="-3.63964">
        <ele>32</ele>
        <time>2019-08-15T10:10:28.000Z</time>
      </trkpt>
      <trkpt lat="47.83386" lon="-3.63955">
        <ele>32</ele>
        <time>2019-08-15T10:10:29.000Z</time>
      </trkpt>
      <trkpt lat="47.83384" lon="-3.63948">
        <ele>31.799999237061</ele>
        <time>2019-08-15T10:10:32.000Z</time>
      </trkpt>
      <trkpt lat="47.83383" lon="-3.63946">
        <ele>31.799999237061</ele>
        <time>2019-08-15T10:10:34.000Z</time>
      </trkpt>
      <trkpt lat="47.83373" lon="-3.63933">
        <ele>31</ele>
        <time>2019-08-15T10:10:42.000Z</time>
      </trkpt>
      <trkpt lat="47.83363" lon="-3.63917">
        <ele>30.60000038147</ele>
        <time>2019-08-15T10:10:48.000Z</time>
      </trkpt>
      <trkpt lat="47.83354" lon="-3.639">
        <ele>30.200000762939</ele>
        <time>2019-08-15T10:10:53.000Z</time>
      </trkpt>
      <trkpt lat="47.83353" lon="-3.63892">
        <ele>29.60000038147</ele>
        <time>2019-08-15T10:10:56.000Z</time>
      </trkpt>
      <trkpt lat="47.8335" lon="-3.63883">
        <ele>28.60000038147</ele>
        <time>2019-08-15T10:11:02.000Z</time>
      </trkpt>
      <trkpt lat="47.83347" lon="-3.63881">
        <ele>28.799999237061</ele>
        <time>2019-08-15T10:11:03.000Z</time>
      </trkpt>
      <trkpt lat="47.83343" lon="-3.6388">
        <ele>28.39999961853</ele>
        <time>2019-08-15T10:11:06.000Z</time>
      </trkpt>
      <trkpt lat="47.83338" lon="-3.6388">
        <ele>27.799999237061</ele>
        <time>2019-08-15T10:11:07.000Z</time>
      </trkpt>
      <trkpt lat="47.83327" lon="-3.63878">
        <ele>26</ele>
        <time>2019-08-15T10:11:13.000Z</time>
      </trkpt>
      <trkpt lat="47.83323" lon="-3.63876">
        <ele>25.60000038147</ele>
        <time>2019-08-15T10:11:14.000Z</time>
      </trkpt>
      <trkpt lat="47.83318" lon="-3.63874">
        <ele>25</ele>
        <time>2019-08-15T10:11:17.000Z</time>
      </trkpt>
      <trkpt lat="47.83318" lon="-3.63874">
        <ele>24.60000038147</ele>
        <time>2019-08-15T10:11:19.000Z</time>
      </trkpt>
      <trkpt lat="47.83317" lon="-3.6387">
        <ele>23.60000038147</ele>
        <time>2019-08-15T10:11:25.000Z</time>
      </trkpt>
      <trkpt lat="47.83317" lon="-3.6387">
        <ele>23.39999961853</ele>
        <time>2019-08-15T10:11:26.000Z</time>
      </trkpt>
      <trkpt lat="47.83316" lon="-3.6387">
        <ele>23.60000038147</ele>
        <time>2019-08-15T10:11:27.000Z</time>
      </trkpt>
      <trkpt lat="47.83315" lon="-3.6387">
        <ele>23.60000038147</ele>
        <time>2019-08-15T10:11:29.000Z</time>
      </trkpt>
      <trkpt lat="47.83315" lon="-3.6387">
        <ele>23.799999237061</ele>
        <time>2019-08-15T10:11:32.000Z</time>
      </trkpt>
      <trkpt lat="47.83315" lon="-3.6387">
        <ele>24</ele>
        <time>2019-08-15T10:11:33.000Z</time>
      </trkpt>
      <trkpt lat="47.83315" lon="-3.6387">
        <ele>24</ele>
        <time>2019-08-15T10:11:39.000Z</time>
      </trkpt>
      <trkpt lat="47.83314" lon="-3.6387">
        <ele>23.799999237061</ele>
        <time>2019-08-15T10:11:51.000Z</time>
      </trkpt>
      <trkpt lat="47.83313" lon="-3.63866">
        <ele>23.799999237061</ele>
        <time>2019-08-15T10:11:52.000Z</time>
      </trkpt>
      <trkpt lat="47.8331" lon="-3.63855">
        <ele>24</ele>
        <time>2019-08-15T10:11:55.000Z</time>
      </trkpt>
      <trkpt lat="47.83309" lon="-3.63852">
        <ele>24</ele>
        <time>2019-08-15T10:11:56.000Z</time>
      </trkpt>
      <trkpt lat="47.83308" lon="-3.6385">
        <ele>23.799999237061</ele>
        <time>2019-08-15T10:11:57.000Z</time>
      </trkpt>
      <trkpt lat="47.83307" lon="-3.63848">
        <ele>23.799999237061</ele>
        <time>2019-08-15T10:11:58.000Z</time>
      </trkpt>
      <trkpt lat="47.83307" lon="-3.63848">
        <ele>23.799999237061</ele>
        <time>2019-08-15T10:11:59.000Z</time>
      </trkpt>
      <trkpt lat="47.83304" lon="-3.63842">
        <ele>23.799999237061</ele>
        <time>2019-08-15T10:12:00.000Z</time>
      </trkpt>
      <trkpt lat="47.83298" lon="-3.63822">
        <ele>24</ele>
        <time>2019-08-15T10:12:09.000Z</time>
      </trkpt>
      <trkpt lat="47.83286" lon="-3.63804">
        <ele>24</ele>
        <time>2019-08-15T10:12:17.000Z</time>
      </trkpt>
      <trkpt lat="47.83285" lon="-3.638">
        <ele>23.799999237061</ele>
        <time>2019-08-15T10:12:24.000Z</time>
      </trkpt>
      <trkpt lat="47.83285" lon="-3.638">
        <ele>23.799999237061</ele>
        <time>2019-08-15T10:12:25.000Z</time>
      </trkpt>
      <trkpt lat="47.83285" lon="-3.638">
        <ele>23.799999237061</ele>
        <time>2019-08-15T10:12:26.000Z</time>
      </trkpt>
      <trkpt lat="47.83284" lon="-3.63798">
        <ele>23.39999961853</ele>
        <time>2019-08-15T10:12:34.000Z</time>
      </trkpt>
      <trkpt lat="47.83284" lon="-3.63798">
        <ele>23.60000038147</ele>
        <time>2019-08-15T10:12:39.000Z</time>
      </trkpt>
      <trkpt lat="47.83284" lon="-3.63798">
        <ele>24.60000038147</ele>
        <time>2019-08-15T10:12:47.000Z</time>
      </trkpt>
      <trkpt lat="47.83285" lon="-3.63797">
        <ele>24</ele>
        <time>2019-08-15T10:13:01.000Z</time>
      </trkpt>
      <trkpt lat="47.83286" lon="-3.63797">
        <ele>24.200000762939</ele>
        <time>2019-08-15T10:13:08.000Z</time>
      </trkpt>
      <trkpt lat="47.83287" lon="-3.63801">
        <ele>24.200000762939</ele>
        <time>2019-08-15T10:13:10.000Z</time>
      </trkpt>
      <trkpt lat="47.83289" lon="-3.63807">
        <ele>24.200000762939</ele>
        <time>2019-08-15T10:13:14.000Z</time>
      </trkpt>
      <trkpt lat="47.83291" lon="-3.63813">
        <ele>24</ele>
        <time>2019-08-15T10:13:20.000Z</time>
      </trkpt>
      <trkpt lat="47.83291" lon="-3.63816">
        <ele>24.200000762939</ele>
        <time>2019-08-15T10:13:21.000Z</time>
      </trkpt>
      <trkpt lat="47.83291" lon="-3.63818">
        <ele>24</ele>
        <time>2019-08-15T10:13:22.000Z</time>
      </trkpt>
      <trkpt lat="47.8329" lon="-3.63821">
        <ele>24</ele>
        <time>2019-08-15T10:13:25.000Z</time>
      </trkpt>
      <trkpt lat="47.8329" lon="-3.63825">
        <ele>24</ele>
        <time>2019-08-15T10:13:26.000Z</time>
      </trkpt>
      <trkpt lat="47.83289" lon="-3.63827">
        <ele>24</ele>
        <time>2019-08-15T10:13:27.000Z</time>
      </trkpt>
      <trkpt lat="47.8329" lon="-3.63832">
        <ele>24</ele>
        <time>2019-08-15T10:13:34.000Z</time>
      </trkpt>
      <trkpt lat="47.8329" lon="-3.63837">
        <ele>24</ele>
        <time>2019-08-15T10:13:42.000Z</time>
      </trkpt>
      <trkpt lat="47.8329" lon="-3.63837">
        <ele>24</ele>
        <time>2019-08-15T10:13:43.000Z</time>
      </trkpt>
      <trkpt lat="47.83291" lon="-3.63844">
        <ele>24.200000762939</ele>
        <time>2019-08-15T10:13:47.000Z</time>
      </trkpt>
      <trkpt lat="47.83292" lon="-3.63846">
        <ele>24.200000762939</ele>
        <time>2019-08-15T10:13:49.000Z</time>
      </trkpt>
      <trkpt lat="47.83293" lon="-3.63849">
        <ele>24.200000762939</ele>
        <time>2019-08-15T10:13:50.000Z</time>
      </trkpt>
      <trkpt lat="47.83294" lon="-3.63855">
        <ele>24.200000762939</ele>
        <time>2019-08-15T10:13:51.000Z</time>
      </trkpt>
      <trkpt lat="47.83294" lon="-3.63855">
        <ele>24.200000762939</ele>
        <time>2019-08-15T10:13:52.000Z</time>
      </trkpt>
      <trkpt lat="47.83296" lon="-3.63862">
        <ele>24.200000762939</ele>
        <time>2019-08-15T10:13:53.000Z</time>
      </trkpt>
      <trkpt lat="47.83297" lon="-3.63866">
        <ele>24.200000762939</ele>
        <time>2019-08-15T10:13:54.000Z</time>
      </trkpt>
      <trkpt lat="47.83297" lon="-3.63866">
        <ele>24.200000762939</ele>
        <time>2019-08-15T10:13:55.000Z</time>
      </trkpt>
      <trkpt lat="47.83298" lon="-3.6387">
        <ele>24.39999961853</ele>
        <time>2019-08-15T10:13:56.000Z</time>
      </trkpt>
      <trkpt lat="47.833" lon="-3.63879">
        <ele>24.799999237061</ele>
        <time>2019-08-15T10:13:59.000Z</time>
      </trkpt>
      <trkpt lat="47.83301" lon="-3.63881">
        <ele>25</ele>
        <time>2019-08-15T10:14:00.000Z</time>
      </trkpt>
      <trkpt lat="47.83302" lon="-3.63886">
        <ele>25</ele>
        <time>2019-08-15T10:14:02.000Z</time>
      </trkpt>
      <trkpt lat="47.83302" lon="-3.63886">
        <ele>25.200000762939</ele>
        <time>2019-08-15T10:14:03.000Z</time>
      </trkpt>
      <trkpt lat="47.83303" lon="-3.63891">
        <ele>25.200000762939</ele>
        <time>2019-08-15T10:14:04.000Z</time>
      </trkpt>
      <trkpt lat="47.83303" lon="-3.63894">
        <ele>25</ele>
        <time>2019-08-15T10:14:05.000Z</time>
      </trkpt>
      <trkpt lat="47.83303" lon="-3.63894">
        <ele>25.200000762939</ele>
        <time>2019-08-15T10:14:06.000Z</time>
      </trkpt>
      <trkpt lat="47.83306" lon="-3.63898">
        <ele>25.200000762939</ele>
        <time>2019-08-15T10:14:07.000Z</time>
      </trkpt>
      <trkpt lat="47.83306" lon="-3.63898">
        <ele>25.39999961853</ele>
        <time>2019-08-15T10:14:08.000Z</time>
      </trkpt>
      <trkpt lat="47.8331" lon="-3.639">
        <ele>25.39999961853</ele>
        <time>2019-08-15T10:14:10.000Z</time>
      </trkpt>
      <trkpt lat="47.83313" lon="-3.63905">
        <ele>25.60000038147</ele>
        <time>2019-08-15T10:14:12.000Z</time>
      </trkpt>
      <trkpt lat="47.83315" lon="-3.63907">
        <ele>25.799999237061</ele>
        <time>2019-08-15T10:14:14.000Z</time>
      </trkpt>
      <trkpt lat="47.83317" lon="-3.63912">
        <ele>26.200000762939</ele>
        <time>2019-08-15T10:14:16.000Z</time>
      </trkpt>
      <trkpt lat="47.83318" lon="-3.63916">
        <ele>26.39999961853</ele>
        <time>2019-08-15T10:14:19.000Z</time>
      </trkpt>
      <trkpt lat="47.8332" lon="-3.6392">
        <ele>26.799999237061</ele>
        <time>2019-08-15T10:14:24.000Z</time>
      </trkpt>
      <trkpt lat="47.83323" lon="-3.63924">
        <ele>27.200000762939</ele>
        <time>2019-08-15T10:14:28.000Z</time>
      </trkpt>
      <trkpt lat="47.83324" lon="-3.63924">
        <ele>27.39999961853</ele>
        <time>2019-08-15T10:14:30.000Z</time>
      </trkpt>
      <trkpt lat="47.83327" lon="-3.63928">
        <ele>27.60000038147</ele>
        <time>2019-08-15T10:14:34.000Z</time>
      </trkpt>
      <trkpt lat="47.83328" lon="-3.63929">
        <ele>27.799999237061</ele>
        <time>2019-08-15T10:14:35.000Z</time>
      </trkpt>
      <trkpt lat="47.83327" lon="-3.63929">
        <ele>28</ele>
        <time>2019-08-15T10:14:36.000Z</time>
      </trkpt>
      <trkpt lat="47.83328" lon="-3.6393">
        <ele>28</ele>
        <time>2019-08-15T10:14:37.000Z</time>
      </trkpt>
      <trkpt lat="47.83329" lon="-3.63931">
        <ele>28.200000762939</ele>
        <time>2019-08-15T10:14:39.000Z</time>
      </trkpt>
      <trkpt lat="47.8333" lon="-3.63931">
        <ele>28.39999961853</ele>
        <time>2019-08-15T10:14:40.000Z</time>
      </trkpt>
      <trkpt lat="47.83333" lon="-3.63932">
        <ele>28.799999237061</ele>
        <time>2019-08-15T10:14:44.000Z</time>
      </trkpt>
      <trkpt lat="47.83334" lon="-3.63935">
        <ele>29.200000762939</ele>
        <time>2019-08-15T10:14:47.000Z</time>
      </trkpt>
      <trkpt lat="47.83335" lon="-3.63938">
        <ele>29.39999961853</ele>
        <time>2019-08-15T10:14:48.000Z</time>
      </trkpt>
      <trkpt lat="47.83339" lon="-3.63947">
        <ele>29.60000038147</ele>
        <time>2019-08-15T10:14:52.000Z</time>
      </trkpt>
      <trkpt lat="47.8334" lon="-3.63952">
        <ele>30</ele>
        <time>2019-08-15T10:14:58.000Z</time>
      </trkpt>
      <trkpt lat="47.83339" lon="-3.63959">
        <ele>30.200000762939</ele>
        <time>2019-08-15T10:15:02.000Z</time>
      </trkpt>
      <trkpt lat="47.83338" lon="-3.63961">
        <ele>30.200000762939</ele>
        <time>2019-08-15T10:15:04.000Z</time>
      </trkpt>
      <trkpt lat="47.83336" lon="-3.63963">
        <ele>30</ele>
        <time>2019-08-15T10:15:06.000Z</time>
      </trkpt>
      <trkpt lat="47.83334" lon="-3.63967">
        <ele>29.39999961853</ele>
        <time>2019-08-15T10:15:11.000Z</time>
      </trkpt>
      <trkpt lat="47.83335" lon="-3.63968">
        <ele>29.39999961853</ele>
        <time>2019-08-15T10:15:14.000Z</time>
      </trkpt>
      <trkpt lat="47.83334" lon="-3.63974">
        <ele>29.200000762939</ele>
        <time>2019-08-15T10:15:17.000Z</time>
      </trkpt>
      <trkpt lat="47.83334" lon="-3.63976">
        <ele>29.200000762939</ele>
        <time>2019-08-15T10:15:19.000Z</time>
      </trkpt>
      <trkpt lat="47.83333" lon="-3.63998">
        <ele>29.39999961853</ele>
        <time>2019-08-15T10:15:25.000Z</time>
      </trkpt>
      <trkpt lat="47.83334" lon="-3.64016">
        <ele>29.60000038147</ele>
        <time>2019-08-15T10:15:31.000Z</time>
      </trkpt>
      <trkpt lat="47.83334" lon="-3.64018">
        <ele>29.799999237061</ele>
        <time>2019-08-15T10:15:32.000Z</time>
      </trkpt>
      <trkpt lat="47.83333" lon="-3.64021">
        <ele>29.60000038147</ele>
        <time>2019-08-15T10:15:33.000Z</time>
      </trkpt>
      <trkpt lat="47.83331" lon="-3.64038">
        <ele>29.799999237061</ele>
        <time>2019-08-15T10:15:39.000Z</time>
      </trkpt>
      <trkpt lat="47.83331" lon="-3.64044">
        <ele>29.799999237061</ele>
        <time>2019-08-15T10:15:41.000Z</time>
      </trkpt>
      <trkpt lat="47.83335" lon="-3.64054">
        <ele>30</ele>
        <time>2019-08-15T10:15:45.000Z</time>
      </trkpt>
      <trkpt lat="47.83341" lon="-3.64057">
        <ele>30.39999961853</ele>
        <time>2019-08-15T10:15:48.000Z</time>
      </trkpt>
      <trkpt lat="47.83348" lon="-3.64057">
        <ele>30.60000038147</ele>
        <time>2019-08-15T10:15:51.000Z</time>
      </trkpt>
      <trkpt lat="47.83353" lon="-3.64057">
        <ele>30.799999237061</ele>
        <time>2019-08-15T10:15:53.000Z</time>
      </trkpt>
      <trkpt lat="47.83355" lon="-3.64057">
        <ele>31.200000762939</ele>
        <time>2019-08-15T10:15:54.000Z</time>
      </trkpt>
      <trkpt lat="47.83357" lon="-3.64058">
        <ele>31.39999961853</ele>
        <time>2019-08-15T10:15:55.000Z</time>
      </trkpt>
      <trkpt lat="47.8336" lon="-3.64059">
        <ele>31.60000038147</ele>
        <time>2019-08-15T10:15:56.000Z</time>
      </trkpt>
      <trkpt lat="47.83364" lon="-3.64061">
        <ele>31.60000038147</ele>
        <time>2019-08-15T10:15:58.000Z</time>
      </trkpt>
      <trkpt lat="47.83374" lon="-3.64076">
        <ele>32.200000762939</ele>
        <time>2019-08-15T10:16:04.000Z</time>
      </trkpt>
      <trkpt lat="47.83389" lon="-3.64084">
        <ele>32.799999237061</ele>
        <time>2019-08-15T10:16:10.000Z</time>
      </trkpt>
      <trkpt lat="47.83395" lon="-3.64088">
        <ele>33</ele>
        <time>2019-08-15T10:16:12.000Z</time>
      </trkpt>
      <trkpt lat="47.83397" lon="-3.64093">
        <ele>32.799999237061</ele>
        <time>2019-08-15T10:16:13.000Z</time>
      </trkpt>
      <trkpt lat="47.83398" lon="-3.641">
        <ele>33</ele>
        <time>2019-08-15T10:16:14.000Z</time>
      </trkpt>
      <trkpt lat="47.83398" lon="-3.641">
        <ele>32.799999237061</ele>
        <time>2019-08-15T10:16:15.000Z</time>
      </trkpt>
      <trkpt lat="47.83401" lon="-3.64116">
        <ele>32.799999237061</ele>
        <time>2019-08-15T10:16:16.000Z</time>
      </trkpt>
      <trkpt lat="47.83404" lon="-3.64125">
        <ele>32.599998474121</ele>
        <time>2019-08-15T10:16:17.000Z</time>
      </trkpt>
      <trkpt lat="47.8341" lon="-3.64145">
        <ele>32.400001525879</ele>
        <time>2019-08-15T10:16:19.000Z</time>
      </trkpt>
      <trkpt lat="47.8341" lon="-3.64145">
        <ele>32</ele>
        <time>2019-08-15T10:16:20.000Z</time>
      </trkpt>
      <trkpt lat="47.83419" lon="-3.64164">
        <ele>31.60000038147</ele>
        <time>2019-08-15T10:16:21.000Z</time>
      </trkpt>
      <trkpt lat="47.83423" lon="-3.64173">
        <ele>31</ele>
        <time>2019-08-15T10:16:22.000Z</time>
      </trkpt>
      <trkpt lat="47.83431" lon="-3.64186">
        <ele>30.39999961853</ele>
        <time>2019-08-15T10:16:24.000Z</time>
      </trkpt>
      <trkpt lat="47.83434" lon="-3.6419">
        <ele>30</ele>
        <time>2019-08-15T10:16:25.000Z</time>
      </trkpt>
      <trkpt lat="47.83438" lon="-3.64191">
        <ele>29</ele>
        <time>2019-08-15T10:16:26.000Z</time>
      </trkpt>
      <trkpt lat="47.83444" lon="-3.64186">
        <ele>27.799999237061</ele>
        <time>2019-08-15T10:16:28.000Z</time>
      </trkpt>
      <trkpt lat="47.83466" lon="-3.64151">
        <ele>27</ele>
        <time>2019-08-15T10:16:35.000Z</time>
      </trkpt>
      <trkpt lat="47.83469" lon="-3.64146">
        <ele>26.799999237061</ele>
        <time>2019-08-15T10:16:37.000Z</time>
      </trkpt>
      <trkpt lat="47.83476" lon="-3.64136">
        <ele>26.799999237061</ele>
        <time>2019-08-15T10:16:38.000Z</time>
      </trkpt>
      <trkpt lat="47.8349" lon="-3.64114">
        <ele>26.60000038147</ele>
        <time>2019-08-15T10:16:42.000Z</time>
      </trkpt>
      <trkpt lat="47.83532" lon="-3.64065">
        <ele>26.200000762939</ele>
        <time>2019-08-15T10:16:52.000Z</time>
      </trkpt>
      <trkpt lat="47.83557" lon="-3.64049">
        <ele>26.60000038147</ele>
        <time>2019-08-15T10:16:58.000Z</time>
      </trkpt>
      <trkpt lat="47.83561" lon="-3.64047">
        <ele>26.60000038147</ele>
        <time>2019-08-15T10:17:00.000Z</time>
      </trkpt>
      <trkpt lat="47.83568" lon="-3.64043">
        <ele>26.799999237061</ele>
        <time>2019-08-15T10:17:01.000Z</time>
      </trkpt>
      <trkpt lat="47.83576" lon="-3.64041">
        <ele>27.200000762939</ele>
        <time>2019-08-15T10:17:03.000Z</time>
      </trkpt>
      <trkpt lat="47.83584" lon="-3.64036">
        <ele>27.60000038147</ele>
        <time>2019-08-15T10:17:05.000Z</time>
      </trkpt>
      <trkpt lat="47.83619" lon="-3.64017">
        <ele>28.799999237061</ele>
        <time>2019-08-15T10:17:13.000Z</time>
      </trkpt>
      <trkpt lat="47.83661" lon="-3.63997">
        <ele>29.39999961853</ele>
        <time>2019-08-15T10:17:22.000Z</time>
      </trkpt>
      <trkpt lat="47.83675" lon="-3.6399">
        <ele>29.39999961853</ele>
        <time>2019-08-15T10:17:26.000Z</time>
      </trkpt>
      <trkpt lat="47.83695" lon="-3.63984">
        <ele>29.60000038147</ele>
        <time>2019-08-15T10:17:30.000Z</time>
      </trkpt>
      <trkpt lat="47.83705" lon="-3.63982">
        <ele>29.60000038147</ele>
        <time>2019-08-15T10:17:31.000Z</time>
      </trkpt>
      <trkpt lat="47.83742" lon="-3.63976">
        <ele>29.39999961853</ele>
        <time>2019-08-15T10:17:39.000Z</time>
      </trkpt>
      <trkpt lat="47.83757" lon="-3.63976">
        <ele>29.39999961853</ele>
        <time>2019-08-15T10:17:42.000Z</time>
      </trkpt>
      <trkpt lat="47.83773" lon="-3.63977">
        <ele>29.39999961853</ele>
        <time>2019-08-15T10:17:45.000Z</time>
      </trkpt>
      <trkpt lat="47.83822" lon="-3.63987">
        <ele>29.799999237061</ele>
        <time>2019-08-15T10:17:55.000Z</time>
      </trkpt>
      <trkpt lat="47.8384" lon="-3.63992">
        <ele>30</ele>
        <time>2019-08-15T10:17:59.000Z</time>
      </trkpt>
      <trkpt lat="47.83848" lon="-3.63993">
        <ele>30</ele>
        <time>2019-08-15T10:18:01.000Z</time>
      </trkpt>
      <trkpt lat="47.8386" lon="-3.63997">
        <ele>30.39999961853</ele>
        <time>2019-08-15T10:18:04.000Z</time>
      </trkpt>
      <trkpt lat="47.83873" lon="-3.64001">
        <ele>31</ele>
        <time>2019-08-15T10:18:07.000Z</time>
      </trkpt>
      <trkpt lat="47.83888" lon="-3.64007">
        <ele>31.799999237061</ele>
        <time>2019-08-15T10:18:12.000Z</time>
      </trkpt>
      <trkpt lat="47.83902" lon="-3.64011">
        <ele>32.400001525879</ele>
        <time>2019-08-15T10:18:15.000Z</time>
      </trkpt>
      <trkpt lat="47.83916" lon="-3.64017">
        <ele>33</ele>
        <time>2019-08-15T10:18:20.000Z</time>
      </trkpt>
      <trkpt lat="47.83927" lon="-3.64022">
        <ele>33.799999237061</ele>
        <time>2019-08-15T10:18:25.000Z</time>
      </trkpt>
      <trkpt lat="47.83945" lon="-3.64024">
        <ele>35.400001525879</ele>
        <time>2019-08-15T10:18:32.000Z</time>
      </trkpt>
      <trkpt lat="47.83962" lon="-3.64031">
        <ele>36.200000762939</ele>
        <time>2019-08-15T10:18:37.000Z</time>
      </trkpt>
      <trkpt lat="47.83974" lon="-3.64036">
        <ele>37.200000762939</ele>
        <time>2019-08-15T10:18:40.000Z</time>
      </trkpt>
      <trkpt lat="47.83985" lon="-3.64041">
        <ele>37.599998474121</ele>
        <time>2019-08-15T10:18:43.000Z</time>
      </trkpt>
      <trkpt lat="47.83988" lon="-3.64043">
        <ele>37.799999237061</ele>
        <time>2019-08-15T10:18:44.000Z</time>
      </trkpt>
      <trkpt lat="47.84017" lon="-3.64053">
        <ele>39.200000762939</ele>
        <time>2019-08-15T10:18:52.000Z</time>
      </trkpt>
      <trkpt lat="47.84038" lon="-3.6406">
        <ele>40.200000762939</ele>
        <time>2019-08-15T10:18:58.000Z</time>
      </trkpt>
      <trkpt lat="47.84046" lon="-3.64063">
        <ele>40.400001525879</ele>
        <time>2019-08-15T10:19:00.000Z</time>
      </trkpt>
      <trkpt lat="47.84065" lon="-3.64072">
        <ele>40.799999237061</ele>
        <time>2019-08-15T10:19:05.000Z</time>
      </trkpt>
      <trkpt lat="47.84069" lon="-3.64075">
        <ele>41</ele>
        <time>2019-08-15T10:19:06.000Z</time>
      </trkpt>
      <trkpt lat="47.841" lon="-3.64098">
        <ele>42</ele>
        <time>2019-08-15T10:19:15.000Z</time>
      </trkpt>
      <trkpt lat="47.84104" lon="-3.64101">
        <ele>42</ele>
        <time>2019-08-15T10:19:16.000Z</time>
      </trkpt>
      <trkpt lat="47.84122" lon="-3.64113">
        <ele>42.599998474121</ele>
        <time>2019-08-15T10:19:21.000Z</time>
      </trkpt>
      <trkpt lat="47.84135" lon="-3.64123">
        <ele>43.200000762939</ele>
        <time>2019-08-15T10:19:25.000Z</time>
      </trkpt>
      <trkpt lat="47.84141" lon="-3.64128">
        <ele>43.200000762939</ele>
        <time>2019-08-15T10:19:27.000Z</time>
      </trkpt>
      <trkpt lat="47.84157" lon="-3.64141">
        <ele>44</ele>
        <time>2019-08-15T10:19:31.000Z</time>
      </trkpt>
      <trkpt lat="47.84171" lon="-3.64152">
        <ele>44.599998474121</ele>
        <time>2019-08-15T10:19:36.000Z</time>
      </trkpt>
      <trkpt lat="47.84197" lon="-3.64167">
        <ele>45.599998474121</ele>
        <time>2019-08-15T10:19:42.000Z</time>
      </trkpt>
      <trkpt lat="47.84203" lon="-3.64171">
        <ele>45.799999237061</ele>
        <time>2019-08-15T10:19:44.000Z</time>
      </trkpt>
      <trkpt lat="47.84211" lon="-3.64176">
        <ele>46.400001525879</ele>
        <time>2019-08-15T10:19:47.000Z</time>
      </trkpt>
      <trkpt lat="47.84233" lon="-3.64187">
        <ele>47.400001525879</ele>
        <time>2019-08-15T10:19:52.000Z</time>
      </trkpt>
      <trkpt lat="47.84269" lon="-3.64204">
        <ele>48.200000762939</ele>
        <time>2019-08-15T10:20:01.000Z</time>
      </trkpt>
      <trkpt lat="47.84276" lon="-3.64207">
        <ele>48.400001525879</ele>
        <time>2019-08-15T10:20:03.000Z</time>
      </trkpt>
      <trkpt lat="47.8429" lon="-3.64213">
        <ele>48.400001525879</ele>
        <time>2019-08-15T10:20:07.000Z</time>
      </trkpt>
      <trkpt lat="47.84318" lon="-3.64227">
        <ele>48.599998474121</ele>
        <time>2019-08-15T10:20:12.000Z</time>
      </trkpt>
      <trkpt lat="47.8435" lon="-3.64243">
        <ele>48.799999237061</ele>
        <time>2019-08-15T10:20:19.000Z</time>
      </trkpt>
      <trkpt lat="47.84371" lon="-3.64254">
        <ele>48.799999237061</ele>
        <time>2019-08-15T10:20:24.000Z</time>
      </trkpt>
      <trkpt lat="47.84378" lon="-3.64259">
        <ele>49.200000762939</ele>
        <time>2019-08-15T10:20:26.000Z</time>
      </trkpt>
      <trkpt lat="47.84381" lon="-3.64261">
        <ele>49.200000762939</ele>
        <time>2019-08-15T10:20:27.000Z</time>
      </trkpt>
      <trkpt lat="47.844" lon="-3.64281">
        <ele>50.200000762939</ele>
        <time>2019-08-15T10:20:34.000Z</time>
      </trkpt>
      <trkpt lat="47.84413" lon="-3.64293">
        <ele>50.599998474121</ele>
        <time>2019-08-15T10:20:38.000Z</time>
      </trkpt>
      <trkpt lat="47.84423" lon="-3.64301">
        <ele>50.799999237061</ele>
        <time>2019-08-15T10:20:40.000Z</time>
      </trkpt>
      <trkpt lat="47.84456" lon="-3.64328">
        <ele>51.799999237061</ele>
        <time>2019-08-15T10:20:48.000Z</time>
      </trkpt>
      <trkpt lat="47.84472" lon="-3.64339">
        <ele>51.799999237061</ele>
        <time>2019-08-15T10:20:52.000Z</time>
      </trkpt>
      <trkpt lat="47.84483" lon="-3.64345">
        <ele>52</ele>
        <time>2019-08-15T10:20:54.000Z</time>
      </trkpt>
      <trkpt lat="47.84517" lon="-3.64361">
        <ele>51.599998474121</ele>
        <time>2019-08-15T10:21:00.000Z</time>
      </trkpt>
      <trkpt lat="47.84565" lon="-3.64372">
        <ele>51</ele>
        <time>2019-08-15T10:21:07.000Z</time>
      </trkpt>
      <trkpt lat="47.84576" lon="-3.64374">
        <ele>50.799999237061</ele>
        <time>2019-08-15T10:21:09.000Z</time>
      </trkpt>
      <trkpt lat="47.84606" lon="-3.64378">
        <ele>50.799999237061</ele>
        <time>2019-08-15T10:21:14.000Z</time>
      </trkpt>
      <trkpt lat="47.84646" lon="-3.64383">
        <ele>50.599998474121</ele>
        <time>2019-08-15T10:21:20.000Z</time>
      </trkpt>
      <trkpt lat="47.84669" lon="-3.64386">
        <ele>50.200000762939</ele>
        <time>2019-08-15T10:21:23.000Z</time>
      </trkpt>
      <trkpt lat="47.84676" lon="-3.64388">
        <ele>49.799999237061</ele>
        <time>2019-08-15T10:21:25.000Z</time>
      </trkpt>
      <trkpt lat="47.847" lon="-3.64391">
        <ele>49.799999237061</ele>
        <time>2019-08-15T10:21:27.000Z</time>
      </trkpt>
      <trkpt lat="47.84712" lon="-3.64387">
        <ele>49.400001525879</ele>
        <time>2019-08-15T10:21:29.000Z</time>
      </trkpt>
      <trkpt lat="47.84717" lon="-3.64376">
        <ele>48.799999237061</ele>
        <time>2019-08-15T10:21:31.000Z</time>
      </trkpt>
      <trkpt lat="47.84716" lon="-3.64365">
        <ele>48.200000762939</ele>
        <time>2019-08-15T10:21:33.000Z</time>
      </trkpt>
      <trkpt lat="47.84714" lon="-3.64347">
        <ele>48.400001525879</ele>
        <time>2019-08-15T10:21:36.000Z</time>
      </trkpt>
      <trkpt lat="47.8471" lon="-3.64306">
        <ele>48.799999237061</ele>
        <time>2019-08-15T10:21:42.000Z</time>
      </trkpt>
      <trkpt lat="47.84709" lon="-3.64292">
        <ele>49.200000762939</ele>
        <time>2019-08-15T10:21:44.000Z</time>
      </trkpt>
      <trkpt lat="47.84709" lon="-3.64285">
        <ele>49.400001525879</ele>
        <time>2019-08-15T10:21:45.000Z</time>
      </trkpt>
      <trkpt lat="47.84709" lon="-3.6427">
        <ele>49.400001525879</ele>
        <time>2019-08-15T10:21:47.000Z</time>
      </trkpt>
      <trkpt lat="47.84708" lon="-3.64263">
        <ele>49.599998474121</ele>
        <time>2019-08-15T10:21:48.000Z</time>
      </trkpt>
      <trkpt lat="47.84709" lon="-3.64193">
        <ele>50</ele>
        <time>2019-08-15T10:21:57.000Z</time>
      </trkpt>
      <trkpt lat="47.84716" lon="-3.64134">
        <ele>50.400001525879</ele>
        <time>2019-08-15T10:22:04.000Z</time>
      </trkpt>
      <trkpt lat="47.84727" lon="-3.64064">
        <ele>51</ele>
        <time>2019-08-15T10:22:12.000Z</time>
      </trkpt>
      <trkpt lat="47.84731" lon="-3.64045">
        <ele>51</ele>
        <time>2019-08-15T10:22:14.000Z</time>
      </trkpt>
      <trkpt lat="47.84746" lon="-3.63982">
        <ele>50.400001525879</ele>
        <time>2019-08-15T10:22:21.000Z</time>
      </trkpt>
      <trkpt lat="47.84756" lon="-3.6394">
        <ele>49.599998474121</ele>
        <time>2019-08-15T10:22:25.000Z</time>
      </trkpt>
      <trkpt lat="47.84764" lon="-3.63908">
        <ele>49</ele>
        <time>2019-08-15T10:22:28.000Z</time>
      </trkpt>
      <trkpt lat="47.84771" lon="-3.63876">
        <ele>48.599998474121</ele>
        <time>2019-08-15T10:22:31.000Z</time>
      </trkpt>
      <trkpt lat="47.84776" lon="-3.63852">
        <ele>47.799999237061</ele>
        <time>2019-08-15T10:22:33.000Z</time>
      </trkpt>
      <trkpt lat="47.84782" lon="-3.63828">
        <ele>47.200000762939</ele>
        <time>2019-08-15T10:22:35.000Z</time>
      </trkpt>
      <trkpt lat="47.84785" lon="-3.63815">
        <ele>46.799999237061</ele>
        <time>2019-08-15T10:22:36.000Z</time>
      </trkpt>
      <trkpt lat="47.84799" lon="-3.63753">
        <ele>44.599998474121</ele>
        <time>2019-08-15T10:22:41.000Z</time>
      </trkpt>
      <trkpt lat="47.84806" lon="-3.63725">
        <ele>44.200000762939</ele>
        <time>2019-08-15T10:22:43.000Z</time>
      </trkpt>
      <trkpt lat="47.84809" lon="-3.63712">
        <ele>43.799999237061</ele>
        <time>2019-08-15T10:22:44.000Z</time>
      </trkpt>
      <trkpt lat="47.84811" lon="-3.63701">
        <ele>42.599998474121</ele>
        <time>2019-08-15T10:22:46.000Z</time>
      </trkpt>
      <trkpt lat="47.84826" lon="-3.63639">
        <ele>40</ele>
        <time>2019-08-15T10:22:49.000Z</time>
      </trkpt>
      <trkpt lat="47.84829" lon="-3.63626">
        <ele>39.599998474121</ele>
        <time>2019-08-15T10:22:50.000Z</time>
      </trkpt>
      <trkpt lat="47.84841" lon="-3.63562">
        <ele>37.400001525879</ele>
        <time>2019-08-15T10:22:54.000Z</time>
      </trkpt>
      <trkpt lat="47.84845" lon="-3.63524">
        <ele>36</ele>
        <time>2019-08-15T10:22:56.000Z</time>
      </trkpt>
      <trkpt lat="47.84845" lon="-3.63489">
        <ele>35</ele>
        <time>2019-08-15T10:22:58.000Z</time>
      </trkpt>
      <trkpt lat="47.84843" lon="-3.63457">
        <ele>33.599998474121</ele>
        <time>2019-08-15T10:23:00.000Z</time>
      </trkpt>
      <trkpt lat="47.8484" lon="-3.63436">
        <ele>33</ele>
        <time>2019-08-15T10:23:01.000Z</time>
      </trkpt>
      <trkpt lat="47.84837" lon="-3.63419">
        <ele>32.400001525879</ele>
        <time>2019-08-15T10:23:02.000Z</time>
      </trkpt>
      <trkpt lat="47.84827" lon="-3.6339">
        <ele>31</ele>
        <time>2019-08-15T10:23:05.000Z</time>
      </trkpt>
      <trkpt lat="47.84814" lon="-3.63355">
        <ele>30.200000762939</ele>
        <time>2019-08-15T10:23:06.000Z</time>
      </trkpt>
      <trkpt lat="47.84809" lon="-3.63343">
        <ele>29.60000038147</ele>
        <time>2019-08-15T10:23:07.000Z</time>
      </trkpt>
      <trkpt lat="47.84796" lon="-3.63313">
        <ele>29</ele>
        <time>2019-08-15T10:23:09.000Z</time>
      </trkpt>
      <trkpt lat="47.84772" lon="-3.63255">
        <ele>27.200000762939</ele>
        <time>2019-08-15T10:23:13.000Z</time>
      </trkpt>
      <trkpt lat="47.84767" lon="-3.63239">
        <ele>26.60000038147</ele>
        <time>2019-08-15T10:23:14.000Z</time>
      </trkpt>
      <trkpt lat="47.84755" lon="-3.63191">
        <ele>25.39999961853</ele>
        <time>2019-08-15T10:23:17.000Z</time>
      </trkpt>
      <trkpt lat="47.84749" lon="-3.63134">
        <ele>24.200000762939</ele>
        <time>2019-08-15T10:23:21.000Z</time>
      </trkpt>
      <trkpt lat="47.84748" lon="-3.63075">
        <ele>24</ele>
        <time>2019-08-15T10:23:26.000Z</time>
      </trkpt>
      <trkpt lat="47.84748" lon="-3.63049">
        <ele>24</ele>
        <time>2019-08-15T10:23:29.000Z</time>
      </trkpt>
      <trkpt lat="47.84748" lon="-3.63031">
        <ele>24.39999961853</ele>
        <time>2019-08-15T10:23:31.000Z</time>
      </trkpt>
      <trkpt lat="47.84747" lon="-3.62995">
        <ele>25</ele>
        <time>2019-08-15T10:23:36.000Z</time>
      </trkpt>
      <trkpt lat="47.84746" lon="-3.62989">
        <ele>25.39999961853</ele>
        <time>2019-08-15T10:23:37.000Z</time>
      </trkpt>
      <trkpt lat="47.84746" lon="-3.62984">
        <ele>25.39999961853</ele>
        <time>2019-08-15T10:23:38.000Z</time>
      </trkpt>
      <trkpt lat="47.84746" lon="-3.62977">
        <ele>25.60000038147</ele>
        <time>2019-08-15T10:23:39.000Z</time>
      </trkpt>
      <trkpt lat="47.84745" lon="-3.62965">
        <ele>26</ele>
        <time>2019-08-15T10:23:41.000Z</time>
      </trkpt>
      <trkpt lat="47.84745" lon="-3.6296">
        <ele>26.200000762939</ele>
        <time>2019-08-15T10:23:42.000Z</time>
      </trkpt>
      <trkpt lat="47.84743" lon="-3.62935">
        <ele>27</ele>
        <time>2019-08-15T10:23:46.000Z</time>
      </trkpt>
      <trkpt lat="47.8474" lon="-3.62895">
        <ele>28.60000038147</ele>
        <time>2019-08-15T10:23:53.000Z</time>
      </trkpt>
      <trkpt lat="47.8474" lon="-3.6289">
        <ele>28.799999237061</ele>
        <time>2019-08-15T10:23:54.000Z</time>
      </trkpt>
      <trkpt lat="47.84738" lon="-3.62862">
        <ele>29.60000038147</ele>
        <time>2019-08-15T10:23:59.000Z</time>
      </trkpt>
      <trkpt lat="47.84735" lon="-3.6284">
        <ele>30.39999961853</ele>
        <time>2019-08-15T10:24:03.000Z</time>
      </trkpt>
      <trkpt lat="47.84734" lon="-3.62823">
        <ele>31.200000762939</ele>
        <time>2019-08-15T10:24:06.000Z</time>
      </trkpt>
      <trkpt lat="47.84732" lon="-3.62791">
        <ele>32.200000762939</ele>
        <time>2019-08-15T10:24:12.000Z</time>
      </trkpt>
      <trkpt lat="47.8473" lon="-3.62754">
        <ele>33.400001525879</ele>
        <time>2019-08-15T10:24:19.000Z</time>
      </trkpt>
      <trkpt lat="47.8473" lon="-3.62739">
        <ele>34.200000762939</ele>
        <time>2019-08-15T10:24:22.000Z</time>
      </trkpt>
      <trkpt lat="47.84731" lon="-3.62734">
        <ele>34.400001525879</ele>
        <time>2019-08-15T10:24:23.000Z</time>
      </trkpt>
      <trkpt lat="47.84733" lon="-3.62699">
        <ele>35.799999237061</ele>
        <time>2019-08-15T10:24:30.000Z</time>
      </trkpt>
      <trkpt lat="47.84734" lon="-3.62689">
        <ele>36.200000762939</ele>
        <time>2019-08-15T10:24:32.000Z</time>
      </trkpt>
      <trkpt lat="47.84739" lon="-3.62664">
        <ele>37</ele>
        <time>2019-08-15T10:24:37.000Z</time>
      </trkpt>
      <trkpt lat="47.84742" lon="-3.62653">
        <ele>37.200000762939</ele>
        <time>2019-08-15T10:24:39.000Z</time>
      </trkpt>
      <trkpt lat="47.84745" lon="-3.62644">
        <ele>37.400001525879</ele>
        <time>2019-08-15T10:24:41.000Z</time>
      </trkpt>
      <trkpt lat="47.84746" lon="-3.6264">
        <ele>37.400001525879</ele>
        <time>2019-08-15T10:24:42.000Z</time>
      </trkpt>
      <trkpt lat="47.84748" lon="-3.62635">
        <ele>37.400001525879</ele>
        <time>2019-08-15T10:24:43.000Z</time>
      </trkpt>
      <trkpt lat="47.84749" lon="-3.6263">
        <ele>37.599998474121</ele>
        <time>2019-08-15T10:24:44.000Z</time>
      </trkpt>
      <trkpt lat="47.84751" lon="-3.62626">
        <ele>38</ele>
        <time>2019-08-15T10:24:45.000Z</time>
      </trkpt>
      <trkpt lat="47.84752" lon="-3.62621">
        <ele>38.200000762939</ele>
        <time>2019-08-15T10:24:46.000Z</time>
      </trkpt>
      <trkpt lat="47.84768" lon="-3.62583">
        <ele>40</ele>
        <time>2019-08-15T10:24:55.000Z</time>
      </trkpt>
      <trkpt lat="47.84773" lon="-3.62575">
        <ele>40</ele>
        <time>2019-08-15T10:24:57.000Z</time>
      </trkpt>
      <trkpt lat="47.84791" lon="-3.62548">
        <ele>41</ele>
        <time>2019-08-15T10:25:04.000Z</time>
      </trkpt>
      <trkpt lat="47.84791" lon="-3.62548">
        <ele>41</ele>
        <time>2019-08-15T10:25:05.000Z</time>
      </trkpt>
      <trkpt lat="47.8481" lon="-3.62524">
        <ele>42.200000762939</ele>
        <time>2019-08-15T10:25:11.000Z</time>
      </trkpt>
      <trkpt lat="47.84821" lon="-3.62512">
        <ele>42.799999237061</ele>
        <time>2019-08-15T10:25:15.000Z</time>
      </trkpt>
      <trkpt lat="47.8483" lon="-3.62503">
        <ele>43.400001525879</ele>
        <time>2019-08-15T10:25:18.000Z</time>
      </trkpt>
      <trkpt lat="47.84845" lon="-3.62487">
        <ele>44</ele>
        <time>2019-08-15T10:25:23.000Z</time>
      </trkpt>
      <trkpt lat="47.84848" lon="-3.62483">
        <ele>44.200000762939</ele>
        <time>2019-08-15T10:25:24.000Z</time>
      </trkpt>
      <trkpt lat="47.84868" lon="-3.62461">
        <ele>45.799999237061</ele>
        <time>2019-08-15T10:25:31.000Z</time>
      </trkpt>
      <trkpt lat="47.84878" lon="-3.62452">
        <ele>46.400001525879</ele>
        <time>2019-08-15T10:25:34.000Z</time>
      </trkpt>
      <trkpt lat="47.84893" lon="-3.62436">
        <ele>47</ele>
        <time>2019-08-15T10:25:39.000Z</time>
      </trkpt>
      <trkpt lat="47.84912" lon="-3.62412">
        <ele>48.200000762939</ele>
        <time>2019-08-15T10:25:46.000Z</time>
      </trkpt>
      <trkpt lat="47.84909" lon="-3.62403">
        <ele>48.599998474121</ele>
        <time>2019-08-15T10:25:48.000Z</time>
      </trkpt>
      <trkpt lat="47.84905" lon="-3.624">
        <ele>48.599998474121</ele>
        <time>2019-08-15T10:25:49.000Z</time>
      </trkpt>
      <trkpt lat="47.84901" lon="-3.62399">
        <ele>48.599998474121</ele>
        <time>2019-08-15T10:25:50.000Z</time>
      </trkpt>
      <trkpt lat="47.84883" lon="-3.62394">
        <ele>48.799999237061</ele>
        <time>2019-08-15T10:25:54.000Z</time>
      </trkpt>
      <trkpt lat="47.84859" lon="-3.62382">
        <ele>48.400001525879</ele>
        <time>2019-08-15T10:25:59.000Z</time>
      </trkpt>
      <trkpt lat="47.84846" lon="-3.62374">
        <ele>47.799999237061</ele>
        <time>2019-08-15T10:26:02.000Z</time>
      </trkpt>
      <trkpt lat="47.84828" lon="-3.62359">
        <ele>47.799999237061</ele>
        <time>2019-08-15T10:26:06.000Z</time>
      </trkpt>
      <trkpt lat="47.84819" lon="-3.62352">
        <ele>47.599998474121</ele>
        <time>2019-08-15T10:26:08.000Z</time>
      </trkpt>
      <trkpt lat="47.84798" lon="-3.62332">
        <ele>47.400001525879</ele>
        <time>2019-08-15T10:26:12.000Z</time>
      </trkpt>
      <trkpt lat="47.84788" lon="-3.62324">
        <ele>47.200000762939</ele>
        <time>2019-08-15T10:26:14.000Z</time>
      </trkpt>
      <trkpt lat="47.84755" lon="-3.62306">
        <ele>46.799999237061</ele>
        <time>2019-08-15T10:26:19.000Z</time>
      </trkpt>
      <trkpt lat="47.84742" lon="-3.62303">
        <ele>46.599998474121</ele>
        <time>2019-08-15T10:26:21.000Z</time>
      </trkpt>
      <trkpt lat="47.84727" lon="-3.62304">
        <ele>46.599998474121</ele>
        <time>2019-08-15T10:26:23.000Z</time>
      </trkpt>
      <trkpt lat="47.8472" lon="-3.62307">
        <ele>46.599998474121</ele>
        <time>2019-08-15T10:26:24.000Z</time>
      </trkpt>
      <trkpt lat="47.84712" lon="-3.62309">
        <ele>46</ele>
        <time>2019-08-15T10:26:25.000Z</time>
      </trkpt>
      <trkpt lat="47.84696" lon="-3.62309">
        <ele>45.400001525879</ele>
        <time>2019-08-15T10:26:27.000Z</time>
      </trkpt>
      <trkpt lat="47.84664" lon="-3.62298">
        <ele>44.400001525879</ele>
        <time>2019-08-15T10:26:31.000Z</time>
      </trkpt>
      <trkpt lat="47.84656" lon="-3.62293">
        <ele>44</ele>
        <time>2019-08-15T10:26:32.000Z</time>
      </trkpt>
      <trkpt lat="47.84643" lon="-3.62277">
        <ele>43.599998474121</ele>
        <time>2019-08-15T10:26:34.000Z</time>
      </trkpt>
      <trkpt lat="47.84637" lon="-3.62267">
        <ele>43.400001525879</ele>
        <time>2019-08-15T10:26:35.000Z</time>
      </trkpt>
      <trkpt lat="47.84626" lon="-3.62246">
        <ele>42.400001525879</ele>
        <time>2019-08-15T10:26:37.000Z</time>
      </trkpt>
      <trkpt lat="47.84607" lon="-3.62225">
        <ele>41.799999237061</ele>
        <time>2019-08-15T10:26:39.000Z</time>
      </trkpt>
      <trkpt lat="47.84589" lon="-3.62217">
        <ele>41.200000762939</ele>
        <time>2019-08-15T10:26:41.000Z</time>
      </trkpt>
      <trkpt lat="47.84577" lon="-3.62214">
        <ele>40.799999237061</ele>
        <time>2019-08-15T10:26:42.000Z</time>
      </trkpt>
      <trkpt lat="47.84568" lon="-3.62213">
        <ele>39.200000762939</ele>
        <time>2019-08-15T10:26:43.000Z</time>
      </trkpt>
      <trkpt lat="47.84561" lon="-3.62214">
        <ele>38.400001525879</ele>
        <time>2019-08-15T10:26:44.000Z</time>
      </trkpt>
      <trkpt lat="47.84553" lon="-3.62216">
        <ele>38.200000762939</ele>
        <time>2019-08-15T10:26:45.000Z</time>
      </trkpt>
      <trkpt lat="47.84546" lon="-3.62218">
        <ele>38</ele>
        <time>2019-08-15T10:26:46.000Z</time>
      </trkpt>
      <trkpt lat="47.84533" lon="-3.62225">
        <ele>38</ele>
        <time>2019-08-15T10:26:48.000Z</time>
      </trkpt>
      <trkpt lat="47.84529" lon="-3.62229">
        <ele>38</ele>
        <time>2019-08-15T10:26:49.000Z</time>
      </trkpt>
      <trkpt lat="47.84524" lon="-3.62234">
        <ele>38</ele>
        <time>2019-08-15T10:26:50.000Z</time>
      </trkpt>
      <trkpt lat="47.84513" lon="-3.62254">
        <ele>39</ele>
        <time>2019-08-15T10:26:53.000Z</time>
      </trkpt>
      <trkpt lat="47.84508" lon="-3.62269">
        <ele>39.200000762939</ele>
        <time>2019-08-15T10:26:55.000Z</time>
      </trkpt>
      <trkpt lat="47.845" lon="-3.62289">
        <ele>39.799999237061</ele>
        <time>2019-08-15T10:26:58.000Z</time>
      </trkpt>
      <trkpt lat="47.84494" lon="-3.62301">
        <ele>40</ele>
        <time>2019-08-15T10:27:00.000Z</time>
      </trkpt>
      <trkpt lat="47.84482" lon="-3.62321">
        <ele>40.799999237061</ele>
        <time>2019-08-15T10:27:04.000Z</time>
      </trkpt>
      <trkpt lat="47.84477" lon="-3.6233">
        <ele>41</ele>
        <time>2019-08-15T10:27:06.000Z</time>
      </trkpt>
      <trkpt lat="47.84468" lon="-3.62349">
        <ele>41.799999237061</ele>
        <time>2019-08-15T10:27:10.000Z</time>
      </trkpt>
      <trkpt lat="47.84465" lon="-3.62353">
        <ele>42.200000762939</ele>
        <time>2019-08-15T10:27:11.000Z</time>
      </trkpt>
      <trkpt lat="47.84457" lon="-3.62363">
        <ele>42.599998474121</ele>
        <time>2019-08-15T10:27:14.000Z</time>
      </trkpt>
      <trkpt lat="47.84453" lon="-3.62369">
        <ele>43.200000762939</ele>
        <time>2019-08-15T10:27:16.000Z</time>
      </trkpt>
      <trkpt lat="47.84444" lon="-3.62378">
        <ele>44</ele>
        <time>2019-08-15T10:27:20.000Z</time>
      </trkpt>
      <trkpt lat="47.8444" lon="-3.6238">
        <ele>44.400001525879</ele>
        <time>2019-08-15T10:27:22.000Z</time>
      </trkpt>
      <trkpt lat="47.8443" lon="-3.62385">
        <ele>45.200000762939</ele>
        <time>2019-08-15T10:27:26.000Z</time>
      </trkpt>
      <trkpt lat="47.84425" lon="-3.62386">
        <ele>46</ele>
        <time>2019-08-15T10:27:28.000Z</time>
      </trkpt>
      <trkpt lat="47.84421" lon="-3.62386">
        <ele>46</ele>
        <time>2019-08-15T10:27:29.000Z</time>
      </trkpt>
      <trkpt lat="47.84399" lon="-3.6239">
        <ele>48</ele>
        <time>2019-08-15T10:27:36.000Z</time>
      </trkpt>
      <trkpt lat="47.84396" lon="-3.6239">
        <ele>48.200000762939</ele>
        <time>2019-08-15T10:27:37.000Z</time>
      </trkpt>
      <trkpt lat="47.84381" lon="-3.6239">
        <ele>49.200000762939</ele>
        <time>2019-08-15T10:27:42.000Z</time>
      </trkpt>
      <trkpt lat="47.84369" lon="-3.62391">
        <ele>50.200000762939</ele>
        <time>2019-08-15T10:27:46.000Z</time>
      </trkpt>
      <trkpt lat="47.84362" lon="-3.6239">
        <ele>50.400001525879</ele>
        <time>2019-08-15T10:27:48.000Z</time>
      </trkpt>
      <trkpt lat="47.84343" lon="-3.62392">
        <ele>51.599998474121</ele>
        <time>2019-08-15T10:27:54.000Z</time>
      </trkpt>
      <trkpt lat="47.84337" lon="-3.62391">
        <ele>51.799999237061</ele>
        <time>2019-08-15T10:27:56.000Z</time>
      </trkpt>
      <trkpt lat="47.84318" lon="-3.62394">
        <ele>52.799999237061</ele>
        <time>2019-08-15T10:28:02.000Z</time>
      </trkpt>
      <trkpt lat="47.84294" lon="-3.62399">
        <ele>53.799999237061</ele>
        <time>2019-08-15T10:28:09.000Z</time>
      </trkpt>
      <trkpt lat="47.84287" lon="-3.624">
        <ele>54</ele>
        <time>2019-08-15T10:28:11.000Z</time>
      </trkpt>
      <trkpt lat="47.84269" lon="-3.62407">
        <ele>54.400001525879</ele>
        <time>2019-08-15T10:28:16.000Z</time>
      </trkpt>
      <trkpt lat="47.84258" lon="-3.62411">
        <ele>54.799999237061</ele>
        <time>2019-08-15T10:28:19.000Z</time>
      </trkpt>
      <trkpt lat="47.84234" lon="-3.6242">
        <ele>55.599998474121</ele>
        <time>2019-08-15T10:28:26.000Z</time>
      </trkpt>
      <trkpt lat="47.8422" lon="-3.62426">
        <ele>56</ele>
        <time>2019-08-15T10:28:30.000Z</time>
      </trkpt>
      <trkpt lat="47.84202" lon="-3.62438">
        <ele>56.400001525879</ele>
        <time>2019-08-15T10:28:35.000Z</time>
      </trkpt>
      <trkpt lat="47.84198" lon="-3.6244">
        <ele>56.400001525879</ele>
        <time>2019-08-15T10:28:36.000Z</time>
      </trkpt>
      <trkpt lat="47.8418" lon="-3.62454">
        <ele>56.799999237061</ele>
        <time>2019-08-15T10:28:40.000Z</time>
      </trkpt>
      <trkpt lat="47.84162" lon="-3.62468">
        <ele>56.799999237061</ele>
        <time>2019-08-15T10:28:44.000Z</time>
      </trkpt>
      <trkpt lat="47.84152" lon="-3.62476">
        <ele>57</ele>
        <time>2019-08-15T10:28:46.000Z</time>
      </trkpt>
      <trkpt lat="47.84142" lon="-3.62483">
        <ele>56.799999237061</ele>
        <time>2019-08-15T10:28:48.000Z</time>
      </trkpt>
      <trkpt lat="47.84136" lon="-3.62488">
        <ele>56.599998474121</ele>
        <time>2019-08-15T10:28:49.000Z</time>
      </trkpt>
      <trkpt lat="47.84126" lon="-3.62501">
        <ele>56.400001525879</ele>
        <time>2019-08-15T10:28:51.000Z</time>
      </trkpt>
      <trkpt lat="47.84121" lon="-3.62521">
        <ele>56</ele>
        <time>2019-08-15T10:28:53.000Z</time>
      </trkpt>
      <trkpt lat="47.84119" lon="-3.62533">
        <ele>56</ele>
        <time>2019-08-15T10:28:54.000Z</time>
      </trkpt>
      <trkpt lat="47.84118" lon="-3.62544">
        <ele>55.599998474121</ele>
        <time>2019-08-15T10:28:55.000Z</time>
      </trkpt>
      <trkpt lat="47.84114" lon="-3.6257">
        <ele>55.400001525879</ele>
        <time>2019-08-15T10:28:57.000Z</time>
      </trkpt>
      <trkpt lat="47.8411" lon="-3.62593">
        <ele>54.599998474121</ele>
        <time>2019-08-15T10:28:59.000Z</time>
      </trkpt>
      <trkpt lat="47.84106" lon="-3.62609">
        <ele>54</ele>
        <time>2019-08-15T10:29:00.000Z</time>
      </trkpt>
      <trkpt lat="47.84104" lon="-3.62619">
        <ele>53.799999237061</ele>
        <time>2019-08-15T10:29:01.000Z</time>
      </trkpt>
      <trkpt lat="47.841" lon="-3.62631">
        <ele>53.200000762939</ele>
        <time>2019-08-15T10:29:02.000Z</time>
      </trkpt>
      <trkpt lat="47.84094" lon="-3.62642">
        <ele>52.799999237061</ele>
        <time>2019-08-15T10:29:03.000Z</time>
      </trkpt>
      <trkpt lat="47.84086" lon="-3.62652">
        <ele>51.799999237061</ele>
        <time>2019-08-15T10:29:04.000Z</time>
      </trkpt>
      <trkpt lat="47.84068" lon="-3.62666">
        <ele>50.400001525879</ele>
        <time>2019-08-15T10:29:06.000Z</time>
      </trkpt>
      <trkpt lat="47.8405" lon="-3.62678">
        <ele>49.599998474121</ele>
        <time>2019-08-15T10:29:08.000Z</time>
      </trkpt>
      <trkpt lat="47.8405" lon="-3.62678">
        <ele>48.799999237061</ele>
        <time>2019-08-15T10:29:09.000Z</time>
      </trkpt>
      <trkpt lat="47.84031" lon="-3.62685">
        <ele>48.599998474121</ele>
        <time>2019-08-15T10:29:10.000Z</time>
      </trkpt>
      <trkpt lat="47.84022" lon="-3.62689">
        <ele>48</ele>
        <time>2019-08-15T10:29:11.000Z</time>
      </trkpt>
      <trkpt lat="47.84013" lon="-3.62692">
        <ele>47.799999237061</ele>
        <time>2019-08-15T10:29:12.000Z</time>
      </trkpt>
      <trkpt lat="47.83988" lon="-3.62699">
        <ele>47</ele>
        <time>2019-08-15T10:29:15.000Z</time>
      </trkpt>
      <trkpt lat="47.83963" lon="-3.62705">
        <ele>46.200000762939</ele>
        <time>2019-08-15T10:29:18.000Z</time>
      </trkpt>
      <trkpt lat="47.83947" lon="-3.6271">
        <ele>46</ele>
        <time>2019-08-15T10:29:20.000Z</time>
      </trkpt>
      <trkpt lat="47.8393" lon="-3.62715">
        <ele>45.799999237061</ele>
        <time>2019-08-15T10:29:22.000Z</time>
      </trkpt>
      <trkpt lat="47.83913" lon="-3.6272">
        <ele>45.400001525879</ele>
        <time>2019-08-15T10:29:24.000Z</time>
      </trkpt>
      <trkpt lat="47.83905" lon="-3.62723">
        <ele>45.400001525879</ele>
        <time>2019-08-15T10:29:25.000Z</time>
      </trkpt>
      <trkpt lat="47.83897" lon="-3.62726">
        <ele>45.200000762939</ele>
        <time>2019-08-15T10:29:26.000Z</time>
      </trkpt>
      <trkpt lat="47.83866" lon="-3.6274">
        <ele>45</ele>
        <time>2019-08-15T10:29:30.000Z</time>
      </trkpt>
      <trkpt lat="47.83857" lon="-3.62745">
        <ele>45</ele>
        <time>2019-08-15T10:29:31.000Z</time>
      </trkpt>
      <trkpt lat="47.83835" lon="-3.62757">
        <ele>45</ele>
        <time>2019-08-15T10:29:34.000Z</time>
      </trkpt>
      <trkpt lat="47.83827" lon="-3.62761">
        <ele>45</ele>
        <time>2019-08-15T10:29:35.000Z</time>
      </trkpt>
      <trkpt lat="47.8381" lon="-3.62768">
        <ele>44.599998474121</ele>
        <time>2019-08-15T10:29:37.000Z</time>
      </trkpt>
      <trkpt lat="47.83784" lon="-3.6278">
        <ele>43.799999237061</ele>
        <time>2019-08-15T10:29:40.000Z</time>
      </trkpt>
      <trkpt lat="47.83778" lon="-3.62785">
        <ele>43.599998474121</ele>
        <time>2019-08-15T10:29:41.000Z</time>
      </trkpt>
      <trkpt lat="47.83771" lon="-3.62792">
        <ele>43.400001525879</ele>
        <time>2019-08-15T10:29:42.000Z</time>
      </trkpt>
      <trkpt lat="47.83756" lon="-3.62806">
        <ele>42</ele>
        <time>2019-08-15T10:29:44.000Z</time>
      </trkpt>
      <trkpt lat="47.83749" lon="-3.62812">
        <ele>41.599998474121</ele>
        <time>2019-08-15T10:29:45.000Z</time>
      </trkpt>
      <trkpt lat="47.83731" lon="-3.62823">
        <ele>41</ele>
        <time>2019-08-15T10:29:47.000Z</time>
      </trkpt>
      <trkpt lat="47.837" lon="-3.62838">
        <ele>39.799999237061</ele>
        <time>2019-08-15T10:29:50.000Z</time>
      </trkpt>
      <trkpt lat="47.83681" lon="-3.62848">
        <ele>39</ele>
        <time>2019-08-15T10:29:52.000Z</time>
      </trkpt>
      <trkpt lat="47.83671" lon="-3.62854">
        <ele>38.799999237061</ele>
        <time>2019-08-15T10:29:53.000Z</time>
      </trkpt>
      <trkpt lat="47.8366" lon="-3.6286">
        <ele>38.599998474121</ele>
        <time>2019-08-15T10:29:54.000Z</time>
      </trkpt>
      <trkpt lat="47.83649" lon="-3.62865">
        <ele>38.200000762939</ele>
        <time>2019-08-15T10:29:55.000Z</time>
      </trkpt>
      <trkpt lat="47.83628" lon="-3.62873">
        <ele>37.200000762939</ele>
        <time>2019-08-15T10:29:57.000Z</time>
      </trkpt>
      <trkpt lat="47.83593" lon="-3.62877">
        <ele>34</ele>
        <time>2019-08-15T10:30:00.000Z</time>
      </trkpt>
      <trkpt lat="47.8358" lon="-3.62877">
        <ele>33.400001525879</ele>
        <time>2019-08-15T10:30:01.000Z</time>
      </trkpt>
      <trkpt lat="47.83568" lon="-3.62875">
        <ele>32.200000762939</ele>
        <time>2019-08-15T10:30:02.000Z</time>
      </trkpt>
      <trkpt lat="47.83542" lon="-3.62871">
        <ele>31.200000762939</ele>
        <time>2019-08-15T10:30:04.000Z</time>
      </trkpt>
      <trkpt lat="47.83529" lon="-3.62869">
        <ele>30.799999237061</ele>
        <time>2019-08-15T10:30:05.000Z</time>
      </trkpt>
      <trkpt lat="47.83516" lon="-3.62865">
        <ele>29.799999237061</ele>
        <time>2019-08-15T10:30:06.000Z</time>
      </trkpt>
      <trkpt lat="47.83474" lon="-3.62853">
        <ele>26.39999961853</ele>
        <time>2019-08-15T10:30:09.000Z</time>
      </trkpt>
      <trkpt lat="47.83448" lon="-3.62846">
        <ele>23.60000038147</ele>
        <time>2019-08-15T10:30:11.000Z</time>
      </trkpt>
      <trkpt lat="47.83436" lon="-3.62843">
        <ele>23</ele>
        <time>2019-08-15T10:30:12.000Z</time>
      </trkpt>
      <trkpt lat="47.83425" lon="-3.62841">
        <ele>21.39999961853</ele>
        <time>2019-08-15T10:30:13.000Z</time>
      </trkpt>
      <trkpt lat="47.83416" lon="-3.62839">
        <ele>20.39999961853</ele>
        <time>2019-08-15T10:30:14.000Z</time>
      </trkpt>
      <trkpt lat="47.83407" lon="-3.62838">
        <ele>19.60000038147</ele>
        <time>2019-08-15T10:30:15.000Z</time>
      </trkpt>
      <trkpt lat="47.834" lon="-3.62839">
        <ele>18.60000038147</ele>
        <time>2019-08-15T10:30:16.000Z</time>
      </trkpt>
      <trkpt lat="47.83394" lon="-3.62843">
        <ele>18.200000762939</ele>
        <time>2019-08-15T10:30:17.000Z</time>
      </trkpt>
      <trkpt lat="47.83389" lon="-3.62851">
        <ele>17.60000038147</ele>
        <time>2019-08-15T10:30:18.000Z</time>
      </trkpt>
      <trkpt lat="47.83385" lon="-3.62866">
        <ele>16.39999961853</ele>
        <time>2019-08-15T10:30:20.000Z</time>
      </trkpt>
      <trkpt lat="47.83377" lon="-3.62892">
        <ele>15.800000190735</ele>
        <time>2019-08-15T10:30:23.000Z</time>
      </trkpt>
      <trkpt lat="47.83372" lon="-3.62904">
        <ele>15.60000038147</ele>
        <time>2019-08-15T10:30:25.000Z</time>
      </trkpt>
      <trkpt lat="47.8337" lon="-3.6291">
        <ele>15.800000190735</ele>
        <time>2019-08-15T10:30:26.000Z</time>
      </trkpt>
      <trkpt lat="47.83365" lon="-3.6292">
        <ele>15.800000190735</ele>
        <time>2019-08-15T10:30:28.000Z</time>
      </trkpt>
      <trkpt lat="47.83363" lon="-3.62925">
        <ele>16.39999961853</ele>
        <time>2019-08-15T10:30:29.000Z</time>
      </trkpt>
      <trkpt lat="47.8336" lon="-3.62931">
        <ele>16.799999237061</ele>
        <time>2019-08-15T10:30:30.000Z</time>
      </trkpt>
      <trkpt lat="47.83346" lon="-3.62962">
        <ele>18.39999961853</ele>
        <time>2019-08-15T10:30:36.000Z</time>
      </trkpt>
      <trkpt lat="47.83342" lon="-3.62971">
        <ele>18.799999237061</ele>
        <time>2019-08-15T10:30:38.000Z</time>
      </trkpt>
      <trkpt lat="47.83334" lon="-3.62986">
        <ele>19.60000038147</ele>
        <time>2019-08-15T10:30:41.000Z</time>
      </trkpt>
      <trkpt lat="47.83331" lon="-3.62991">
        <ele>19.60000038147</ele>
        <time>2019-08-15T10:30:42.000Z</time>
      </trkpt>
      <trkpt lat="47.83325" lon="-3.63004">
        <ele>20</ele>
        <time>2019-08-15T10:30:45.000Z</time>
      </trkpt>
      <trkpt lat="47.83317" lon="-3.6302">
        <ele>21.200000762939</ele>
        <time>2019-08-15T10:30:50.000Z</time>
      </trkpt>
      <trkpt lat="47.83308" lon="-3.63035">
        <ele>21.799999237061</ele>
        <time>2019-08-15T10:30:55.000Z</time>
      </trkpt>
      <trkpt lat="47.83298" lon="-3.63045">
        <ele>22.200000762939</ele>
        <time>2019-08-15T10:30:59.000Z</time>
      </trkpt>
      <trkpt lat="47.83295" lon="-3.63046">
        <ele>22.39999961853</ele>
        <time>2019-08-15T10:31:00.000Z</time>
      </trkpt>
      <trkpt lat="47.83288" lon="-3.63048">
        <ele>22.39999961853</ele>
        <time>2019-08-15T10:31:02.000Z</time>
      </trkpt>
      <trkpt lat="47.83278" lon="-3.63052">
        <ele>23</ele>
        <time>2019-08-15T10:31:05.000Z</time>
      </trkpt>
      <trkpt lat="47.83272" lon="-3.63052">
        <ele>23.799999237061</ele>
        <time>2019-08-15T10:31:07.000Z</time>
      </trkpt>
      <trkpt lat="47.83252" lon="-3.63048">
        <ele>24.799999237061</ele>
        <time>2019-08-15T10:31:13.000Z</time>
      </trkpt>
      <trkpt lat="47.83242" lon="-3.63045">
        <ele>25</ele>
        <time>2019-08-15T10:31:16.000Z</time>
      </trkpt>
      <trkpt lat="47.83228" lon="-3.6304">
        <ele>26.200000762939</ele>
        <time>2019-08-15T10:31:20.000Z</time>
      </trkpt>
      <trkpt lat="47.83211" lon="-3.63037">
        <ele>27.200000762939</ele>
        <time>2019-08-15T10:31:26.000Z</time>
      </trkpt>
      <trkpt lat="47.83193" lon="-3.63033">
        <ele>28.39999961853</ele>
        <time>2019-08-15T10:31:32.000Z</time>
      </trkpt>
      <trkpt lat="47.83176" lon="-3.63025">
        <ele>28.60000038147</ele>
        <time>2019-08-15T10:31:37.000Z</time>
      </trkpt>
      <trkpt lat="47.83163" lon="-3.63004">
        <ele>28.799999237061</ele>
        <time>2019-08-15T10:31:43.000Z</time>
      </trkpt>
      <trkpt lat="47.8316" lon="-3.62997">
        <ele>28.60000038147</ele>
        <time>2019-08-15T10:31:45.000Z</time>
      </trkpt>
      <trkpt lat="47.83153" lon="-3.62984">
        <ele>28.799999237061</ele>
        <time>2019-08-15T10:31:49.000Z</time>
      </trkpt>
      <trkpt lat="47.83143" lon="-3.62967">
        <ele>30.39999961853</ele>
        <time>2019-08-15T10:31:56.000Z</time>
      </trkpt>
      <trkpt lat="47.8314" lon="-3.62963">
        <ele>30.39999961853</ele>
        <time>2019-08-15T10:31:58.000Z</time>
      </trkpt>
      <trkpt lat="47.83132" lon="-3.62955">
        <ele>31.39999961853</ele>
        <time>2019-08-15T10:32:02.000Z</time>
      </trkpt>
      <trkpt lat="47.83129" lon="-3.62952">
        <ele>32</ele>
        <time>2019-08-15T10:32:05.000Z</time>
      </trkpt>
      <trkpt lat="47.83127" lon="-3.62952">
        <ele>32.400001525879</ele>
        <time>2019-08-15T10:32:06.000Z</time>
      </trkpt>
      <trkpt lat="47.83125" lon="-3.6295">
        <ele>32.599998474121</ele>
        <time>2019-08-15T10:32:07.000Z</time>
      </trkpt>
      <trkpt lat="47.83123" lon="-3.62946">
        <ele>33</ele>
        <time>2019-08-15T10:32:09.000Z</time>
      </trkpt>
      <trkpt lat="47.83121" lon="-3.62945">
        <ele>33.200000762939</ele>
        <time>2019-08-15T10:32:10.000Z</time>
      </trkpt>
      <trkpt lat="47.83117" lon="-3.62942">
        <ele>34</ele>
        <time>2019-08-15T10:32:13.000Z</time>
      </trkpt>
      <trkpt lat="47.83111" lon="-3.62937">
        <ele>34.599998474121</ele>
        <time>2019-08-15T10:32:16.000Z</time>
      </trkpt>
      <trkpt lat="47.8311" lon="-3.62936">
        <ele>34.799999237061</ele>
        <time>2019-08-15T10:32:17.000Z</time>
      </trkpt>
      <trkpt lat="47.83102" lon="-3.62929">
        <ele>35.799999237061</ele>
        <time>2019-08-15T10:32:22.000Z</time>
      </trkpt>
      <trkpt lat="47.83099" lon="-3.62928">
        <ele>36.400001525879</ele>
        <time>2019-08-15T10:32:24.000Z</time>
      </trkpt>
      <trkpt lat="47.83093" lon="-3.62924">
        <ele>37</ele>
        <time>2019-08-15T10:32:27.000Z</time>
      </trkpt>
      <trkpt lat="47.83082" lon="-3.6292">
        <ele>38.200000762939</ele>
        <time>2019-08-15T10:32:33.000Z</time>
      </trkpt>
      <trkpt lat="47.83078" lon="-3.62918">
        <ele>38.599998474121</ele>
        <time>2019-08-15T10:32:35.000Z</time>
      </trkpt>
      <trkpt lat="47.83062" lon="-3.62909">
        <ele>40</ele>
        <time>2019-08-15T10:32:42.000Z</time>
      </trkpt>
      <trkpt lat="47.8306" lon="-3.62907">
        <ele>40.200000762939</ele>
        <time>2019-08-15T10:32:43.000Z</time>
      </trkpt>
      <trkpt lat="47.83046" lon="-3.62897">
        <ele>40.799999237061</ele>
        <time>2019-08-15T10:32:49.000Z</time>
      </trkpt>
      <trkpt lat="47.83029" lon="-3.62876">
        <ele>41.400001525879</ele>
        <time>2019-08-15T10:32:56.000Z</time>
      </trkpt>
      <trkpt lat="47.83017" lon="-3.62859">
        <ele>41.799999237061</ele>
        <time>2019-08-15T10:33:01.000Z</time>
      </trkpt>
      <trkpt lat="47.83013" lon="-3.62852">
        <ele>41.799999237061</ele>
        <time>2019-08-15T10:33:03.000Z</time>
      </trkpt>
      <trkpt lat="47.83" lon="-3.62832">
        <ele>42.400001525879</ele>
        <time>2019-08-15T10:33:09.000Z</time>
      </trkpt>
      <trkpt lat="47.82998" lon="-3.62829">
        <ele>42.400001525879</ele>
        <time>2019-08-15T10:33:10.000Z</time>
      </trkpt>
      <trkpt lat="47.82989" lon="-3.62818">
        <ele>42.799999237061</ele>
        <time>2019-08-15T10:33:14.000Z</time>
      </trkpt>
      <trkpt lat="47.82986" lon="-3.62815">
        <ele>43</ele>
        <time>2019-08-15T10:33:15.000Z</time>
      </trkpt>
      <trkpt lat="47.82984" lon="-3.62813">
        <ele>43.400001525879</ele>
        <time>2019-08-15T10:33:16.000Z</time>
      </trkpt>
      <trkpt lat="47.82965" lon="-3.62791">
        <ele>44.799999237061</ele>
        <time>2019-08-15T10:33:24.000Z</time>
      </trkpt>
      <trkpt lat="47.82951" lon="-3.62774">
        <ele>45.599998474121</ele>
        <time>2019-08-15T10:33:30.000Z</time>
      </trkpt>
      <trkpt lat="47.82949" lon="-3.6277">
        <ele>45.400001525879</ele>
        <time>2019-08-15T10:33:31.000Z</time>
      </trkpt>
      <trkpt lat="47.82947" lon="-3.62767">
        <ele>45.599998474121</ele>
        <time>2019-08-15T10:33:32.000Z</time>
      </trkpt>
      <trkpt lat="47.82945" lon="-3.62763">
        <ele>45.400001525879</ele>
        <time>2019-08-15T10:33:33.000Z</time>
      </trkpt>
      <trkpt lat="47.82943" lon="-3.6276">
        <ele>45.400001525879</ele>
        <time>2019-08-15T10:33:34.000Z</time>
      </trkpt>
      <trkpt lat="47.8294" lon="-3.62757">
        <ele>45.599998474121</ele>
        <time>2019-08-15T10:33:35.000Z</time>
      </trkpt>
      <trkpt lat="47.82938" lon="-3.62755">
        <ele>45.799999237061</ele>
        <time>2019-08-15T10:33:36.000Z</time>
      </trkpt>
      <trkpt lat="47.82935" lon="-3.62752">
        <ele>46</ele>
        <time>2019-08-15T10:33:37.000Z</time>
      </trkpt>
      <trkpt lat="47.82933" lon="-3.6275">
        <ele>46</ele>
        <time>2019-08-15T10:33:38.000Z</time>
      </trkpt>
      <trkpt lat="47.82931" lon="-3.62747">
        <ele>46.200000762939</ele>
        <time>2019-08-15T10:33:39.000Z</time>
      </trkpt>
      <trkpt lat="47.82928" lon="-3.62744">
        <ele>46.400001525879</ele>
        <time>2019-08-15T10:33:40.000Z</time>
      </trkpt>
      <trkpt lat="47.82926" lon="-3.62741">
        <ele>49</ele>
        <time>2019-08-15T10:33:41.000Z</time>
      </trkpt>
      <trkpt lat="47.82923" lon="-3.62738">
        <ele>49.599998474121</ele>
        <time>2019-08-15T10:33:42.000Z</time>
      </trkpt>
      <trkpt lat="47.82915" lon="-3.6273">
        <ele>50.400001525879</ele>
        <time>2019-08-15T10:33:45.000Z</time>
      </trkpt>
      <trkpt lat="47.82905" lon="-3.62719">
        <ele>49</ele>
        <time>2019-08-15T10:33:49.000Z</time>
      </trkpt>
      <trkpt lat="47.82884" lon="-3.62706">
        <ele>47.799999237061</ele>
        <time>2019-08-15T10:33:56.000Z</time>
      </trkpt>
      <trkpt lat="47.82866" lon="-3.62697">
        <ele>48</ele>
        <time>2019-08-15T10:34:02.000Z</time>
      </trkpt>
      <trkpt lat="47.82846" lon="-3.62689">
        <ele>48.599998474121</ele>
        <time>2019-08-15T10:34:08.000Z</time>
      </trkpt>
      <trkpt lat="47.82828" lon="-3.62684">
        <ele>48.599998474121</ele>
        <time>2019-08-15T10:34:13.000Z</time>
      </trkpt>
      <trkpt lat="47.82821" lon="-3.62682">
        <ele>48.599998474121</ele>
        <time>2019-08-15T10:34:15.000Z</time>
      </trkpt>
      <trkpt lat="47.82801" lon="-3.62675">
        <ele>49.599998474121</ele>
        <time>2019-08-15T10:34:21.000Z</time>
      </trkpt>
      <trkpt lat="47.82774" lon="-3.62661">
        <ele>50.200000762939</ele>
        <time>2019-08-15T10:34:29.000Z</time>
      </trkpt>
      <trkpt lat="47.82755" lon="-3.62646">
        <ele>50.799999237061</ele>
        <time>2019-08-15T10:34:36.000Z</time>
      </trkpt>
      <trkpt lat="47.82745" lon="-3.62638">
        <ele>51.200000762939</ele>
        <time>2019-08-15T10:34:39.000Z</time>
      </trkpt>
      <trkpt lat="47.82731" lon="-3.62628">
        <ele>51.400001525879</ele>
        <time>2019-08-15T10:34:43.000Z</time>
      </trkpt>
      <trkpt lat="47.82714" lon="-3.62612">
        <ele>52.200000762939</ele>
        <time>2019-08-15T10:34:49.000Z</time>
      </trkpt>
      <trkpt lat="47.82708" lon="-3.62607">
        <ele>52.400001525879</ele>
        <time>2019-08-15T10:34:51.000Z</time>
      </trkpt>
      <trkpt lat="47.82705" lon="-3.62604">
        <ele>52.599998474121</ele>
        <time>2019-08-15T10:34:52.000Z</time>
      </trkpt>
      <trkpt lat="47.82691" lon="-3.62593">
        <ele>52.799999237061</ele>
        <time>2019-08-15T10:34:56.000Z</time>
      </trkpt>
      <trkpt lat="47.82663" lon="-3.62567">
        <ele>53.400001525879</ele>
        <time>2019-08-15T10:35:04.000Z</time>
      </trkpt>
      <trkpt lat="47.82656" lon="-3.6256">
        <ele>53.400001525879</ele>
        <time>2019-08-15T10:35:06.000Z</time>
      </trkpt>
      <trkpt lat="47.82634" lon="-3.62538">
        <ele>53.599998474121</ele>
        <time>2019-08-15T10:35:12.000Z</time>
      </trkpt>
      <trkpt lat="47.82591" lon="-3.625">
        <ele>53.599998474121</ele>
        <time>2019-08-15T10:35:23.000Z</time>
      </trkpt>
      <trkpt lat="47.82587" lon="-3.62496">
        <ele>53.599998474121</ele>
        <time>2019-08-15T10:35:24.000Z</time>
      </trkpt>
      <trkpt lat="47.8257" lon="-3.62482">
        <ele>53.400001525879</ele>
        <time>2019-08-15T10:35:28.000Z</time>
      </trkpt>
      <trkpt lat="47.82565" lon="-3.62477">
        <ele>53.400001525879</ele>
        <time>2019-08-15T10:35:29.000Z</time>
      </trkpt>
      <trkpt lat="47.82562" lon="-3.62473">
        <ele>53.400001525879</ele>
        <time>2019-08-15T10:35:30.000Z</time>
      </trkpt>
      <trkpt lat="47.8256" lon="-3.62466">
        <ele>53.200000762939</ele>
        <time>2019-08-15T10:35:31.000Z</time>
      </trkpt>
      <trkpt lat="47.82559" lon="-3.62451">
        <ele>53.400001525879</ele>
        <time>2019-08-15T10:35:33.000Z</time>
      </trkpt>
      <trkpt lat="47.82561" lon="-3.62377">
        <ele>52.400001525879</ele>
        <time>2019-08-15T10:35:42.000Z</time>
      </trkpt>
      <trkpt lat="47.82564" lon="-3.62337">
        <ele>52.599998474121</ele>
        <time>2019-08-15T10:35:47.000Z</time>
      </trkpt>
      <trkpt lat="47.82564" lon="-3.62326">
        <ele>52.599998474121</ele>
        <time>2019-08-15T10:35:48.000Z</time>
      </trkpt>
      <trkpt lat="47.82565" lon="-3.62309">
        <ele>52.400001525879</ele>
        <time>2019-08-15T10:35:50.000Z</time>
      </trkpt>
      <trkpt lat="47.82566" lon="-3.62282">
        <ele>52.400001525879</ele>
        <time>2019-08-15T10:35:53.000Z</time>
      </trkpt>
      <trkpt lat="47.82566" lon="-3.62273">
        <ele>52.400001525879</ele>
        <time>2019-08-15T10:35:54.000Z</time>
      </trkpt>
      <trkpt lat="47.82568" lon="-3.62229">
        <ele>52.200000762939</ele>
        <time>2019-08-15T10:35:59.000Z</time>
      </trkpt>
      <trkpt lat="47.82568" lon="-3.62195">
        <ele>52.200000762939</ele>
        <time>2019-08-15T10:36:03.000Z</time>
      </trkpt>
      <trkpt lat="47.82566" lon="-3.62153">
        <ele>51.599998474121</ele>
        <time>2019-08-15T10:36:08.000Z</time>
      </trkpt>
      <trkpt lat="47.82565" lon="-3.62145">
        <ele>51.400001525879</ele>
        <time>2019-08-15T10:36:09.000Z</time>
      </trkpt>
      <trkpt lat="47.82564" lon="-3.62129">
        <ele>51.200000762939</ele>
        <time>2019-08-15T10:36:11.000Z</time>
      </trkpt>
      <trkpt lat="47.82562" lon="-3.62111">
        <ele>51.200000762939</ele>
        <time>2019-08-15T10:36:13.000Z</time>
      </trkpt>
      <trkpt lat="47.82553" lon="-3.62056">
        <ele>50.799999237061</ele>
        <time>2019-08-15T10:36:19.000Z</time>
      </trkpt>
      <trkpt lat="47.82552" lon="-3.62049">
        <ele>50.799999237061</ele>
        <time>2019-08-15T10:36:20.000Z</time>
      </trkpt>
      <trkpt lat="47.8255" lon="-3.62038">
        <ele>50.799999237061</ele>
        <time>2019-08-15T10:36:21.000Z</time>
      </trkpt>
      <trkpt lat="47.82548" lon="-3.62029">
        <ele>50.599998474121</ele>
        <time>2019-08-15T10:36:22.000Z</time>
      </trkpt>
      <trkpt lat="47.82543" lon="-3.62003">
        <ele>50.799999237061</ele>
        <time>2019-08-15T10:36:25.000Z</time>
      </trkpt>
      <trkpt lat="47.82541" lon="-3.61992">
        <ele>50.799999237061</ele>
        <time>2019-08-15T10:36:26.000Z</time>
      </trkpt>
      <trkpt lat="47.82536" lon="-3.61965">
        <ele>50.200000762939</ele>
        <time>2019-08-15T10:36:29.000Z</time>
      </trkpt>
      <trkpt lat="47.82531" lon="-3.61935">
        <ele>50</ele>
        <time>2019-08-15T10:36:32.000Z</time>
      </trkpt>
      <trkpt lat="47.82523" lon="-3.61888">
        <ele>49.599998474121</ele>
        <time>2019-08-15T10:36:37.000Z</time>
      </trkpt>
      <trkpt lat="47.82519" lon="-3.61869">
        <ele>49</ele>
        <time>2019-08-15T10:36:39.000Z</time>
      </trkpt>
      <trkpt lat="47.82517" lon="-3.61855">
        <ele>48.799999237061</ele>
        <time>2019-08-15T10:36:40.000Z</time>
      </trkpt>
      <trkpt lat="47.82513" lon="-3.6183">
        <ele>48</ele>
        <time>2019-08-15T10:36:42.000Z</time>
      </trkpt>
      <trkpt lat="47.8251" lon="-3.61816">
        <ele>48</ele>
        <time>2019-08-15T10:36:43.000Z</time>
      </trkpt>
      <trkpt lat="47.82507" lon="-3.61802">
        <ele>47.799999237061</ele>
        <time>2019-08-15T10:36:44.000Z</time>
      </trkpt>
      <trkpt lat="47.82504" lon="-3.61787">
        <ele>47.599998474121</ele>
        <time>2019-08-15T10:36:45.000Z</time>
      </trkpt>
      <trkpt lat="47.82502" lon="-3.61773">
        <ele>46.799999237061</ele>
        <time>2019-08-15T10:36:46.000Z</time>
      </trkpt>
      <trkpt lat="47.82497" lon="-3.61749">
        <ele>46.200000762939</ele>
        <time>2019-08-15T10:36:48.000Z</time>
      </trkpt>
      <trkpt lat="47.82495" lon="-3.61734">
        <ele>45.400001525879</ele>
        <time>2019-08-15T10:36:49.000Z</time>
      </trkpt>
      <trkpt lat="47.82493" lon="-3.61723">
        <ele>45.400001525879</ele>
        <time>2019-08-15T10:36:50.000Z</time>
      </trkpt>
      <trkpt lat="47.82492" lon="-3.61714">
        <ele>45.200000762939</ele>
        <time>2019-08-15T10:36:51.000Z</time>
      </trkpt>
      <trkpt lat="47.82489" lon="-3.61698">
        <ele>45.200000762939</ele>
        <time>2019-08-15T10:36:53.000Z</time>
      </trkpt>
      <trkpt lat="47.82485" lon="-3.61677">
        <ele>45.799999237061</ele>
        <time>2019-08-15T10:36:56.000Z</time>
      </trkpt>
      <trkpt lat="47.82481" lon="-3.61651">
        <ele>46.200000762939</ele>
        <time>2019-08-15T10:37:00.000Z</time>
      </trkpt>
      <trkpt lat="47.82477" lon="-3.61618">
        <ele>47.599998474121</ele>
        <time>2019-08-15T10:37:05.000Z</time>
      </trkpt>
      <trkpt lat="47.82476" lon="-3.61606">
        <ele>47.799999237061</ele>
        <time>2019-08-15T10:37:07.000Z</time>
      </trkpt>
      <trkpt lat="47.82475" lon="-3.61555">
        <ele>48.599998474121</ele>
        <time>2019-08-15T10:37:14.000Z</time>
      </trkpt>
      <trkpt lat="47.82475" lon="-3.61543">
        <ele>48.599998474121</ele>
        <time>2019-08-15T10:37:16.000Z</time>
      </trkpt>
      <trkpt lat="47.82475" lon="-3.61503">
        <ele>48.799999237061</ele>
        <time>2019-08-15T10:37:22.000Z</time>
      </trkpt>
      <trkpt lat="47.82472" lon="-3.61491">
        <ele>49</ele>
        <time>2019-08-15T10:37:24.000Z</time>
      </trkpt>
      <trkpt lat="47.82469" lon="-3.61487">
        <ele>49.200000762939</ele>
        <time>2019-08-15T10:37:25.000Z</time>
      </trkpt>
      <trkpt lat="47.82461" lon="-3.61485">
        <ele>49.200000762939</ele>
        <time>2019-08-15T10:37:27.000Z</time>
      </trkpt>
      <trkpt lat="47.82457" lon="-3.61485">
        <ele>49.200000762939</ele>
        <time>2019-08-15T10:37:28.000Z</time>
      </trkpt>
      <trkpt lat="47.82447" lon="-3.61484">
        <ele>49.200000762939</ele>
        <time>2019-08-15T10:37:30.000Z</time>
      </trkpt>
      <trkpt lat="47.82425" lon="-3.61482">
        <ele>49.200000762939</ele>
        <time>2019-08-15T10:37:34.000Z</time>
      </trkpt>
      <trkpt lat="47.82389" lon="-3.61475">
        <ele>49</ele>
        <time>2019-08-15T10:37:41.000Z</time>
      </trkpt>
      <trkpt lat="47.82344" lon="-3.61465">
        <ele>49</ele>
        <time>2019-08-15T10:37:50.000Z</time>
      </trkpt>
      <trkpt lat="47.82316" lon="-3.61459">
        <ele>49.599998474121</ele>
        <time>2019-08-15T10:37:56.000Z</time>
      </trkpt>
      <trkpt lat="47.82308" lon="-3.61458">
        <ele>49.799999237061</ele>
        <time>2019-08-15T10:37:58.000Z</time>
      </trkpt>
      <trkpt lat="47.82274" lon="-3.6145">
        <ele>50.200000762939</ele>
        <time>2019-08-15T10:38:06.000Z</time>
      </trkpt>
      <trkpt lat="47.82268" lon="-3.61449">
        <ele>50.400001525879</ele>
        <time>2019-08-15T10:38:08.000Z</time>
      </trkpt>
      <trkpt lat="47.82263" lon="-3.61446">
        <ele>50.200000762939</ele>
        <time>2019-08-15T10:38:09.000Z</time>
      </trkpt>
      <trkpt lat="47.82254" lon="-3.6144">
        <ele>50.400001525879</ele>
        <time>2019-08-15T10:38:11.000Z</time>
      </trkpt>
      <trkpt lat="47.82223" lon="-3.61418">
        <ele>51</ele>
        <time>2019-08-15T10:38:19.000Z</time>
      </trkpt>
      <trkpt lat="47.82219" lon="-3.61416">
        <ele>50.799999237061</ele>
        <time>2019-08-15T10:38:20.000Z</time>
      </trkpt>
      <trkpt lat="47.82207" lon="-3.61416">
        <ele>51.400001525879</ele>
        <time>2019-08-15T10:38:24.000Z</time>
      </trkpt>
      <trkpt lat="47.82199" lon="-3.61415">
        <ele>51.599998474121</ele>
        <time>2019-08-15T10:38:29.000Z</time>
      </trkpt>
      <trkpt lat="47.82197" lon="-3.61412">
        <ele>51.799999237061</ele>
        <time>2019-08-15T10:38:30.000Z</time>
      </trkpt>
      <trkpt lat="47.82186" lon="-3.61397">
        <ele>51.799999237061</ele>
        <time>2019-08-15T10:38:34.000Z</time>
      </trkpt>
      <trkpt lat="47.82183" lon="-3.61393">
        <ele>51.799999237061</ele>
        <time>2019-08-15T10:38:35.000Z</time>
      </trkpt>
      <trkpt lat="47.82179" lon="-3.61389">
        <ele>51.799999237061</ele>
        <time>2019-08-15T10:38:36.000Z</time>
      </trkpt>
      <trkpt lat="47.82166" lon="-3.61383">
        <ele>52</ele>
        <time>2019-08-15T10:38:39.000Z</time>
      </trkpt>
      <trkpt lat="47.8212" lon="-3.61363">
        <ele>52.400001525879</ele>
        <time>2019-08-15T10:38:49.000Z</time>
      </trkpt>
      <trkpt lat="47.821" lon="-3.61356">
        <ele>52.400001525879</ele>
        <time>2019-08-15T10:38:53.000Z</time>
      </trkpt>
      <trkpt lat="47.82085" lon="-3.61354">
        <ele>52.599998474121</ele>
        <time>2019-08-15T10:38:56.000Z</time>
      </trkpt>
      <trkpt lat="47.8204" lon="-3.61352">
        <ele>52.799999237061</ele>
        <time>2019-08-15T10:39:04.000Z</time>
      </trkpt>
      <trkpt lat="47.8198" lon="-3.61354">
        <ele>52.400001525879</ele>
        <time>2019-08-15T10:39:14.000Z</time>
      </trkpt>
      <trkpt lat="47.81944" lon="-3.61359">
        <ele>52.400001525879</ele>
        <time>2019-08-15T10:39:20.000Z</time>
      </trkpt>
      <trkpt lat="47.81937" lon="-3.61359">
        <ele>52.599998474121</ele>
        <time>2019-08-15T10:39:21.000Z</time>
      </trkpt>
      <trkpt lat="47.81918" lon="-3.61359">
        <ele>52.400001525879</ele>
        <time>2019-08-15T10:39:24.000Z</time>
      </trkpt>
      <trkpt lat="47.81906" lon="-3.61358">
        <ele>52.400001525879</ele>
        <time>2019-08-15T10:39:26.000Z</time>
      </trkpt>
      <trkpt lat="47.81894" lon="-3.61357">
        <ele>52.400001525879</ele>
        <time>2019-08-15T10:39:28.000Z</time>
      </trkpt>
      <trkpt lat="47.81877" lon="-3.61356">
        <ele>52.599998474121</ele>
        <time>2019-08-15T10:39:31.000Z</time>
      </trkpt>
      <trkpt lat="47.81842" lon="-3.61358">
        <ele>52.400001525879</ele>
        <time>2019-08-15T10:39:37.000Z</time>
      </trkpt>
      <trkpt lat="47.81836" lon="-3.61359">
        <ele>52.400001525879</ele>
        <time>2019-08-15T10:39:38.000Z</time>
      </trkpt>
      <trkpt lat="47.81823" lon="-3.61361">
        <ele>52.400001525879</ele>
        <time>2019-08-15T10:39:40.000Z</time>
      </trkpt>
      <trkpt lat="47.81817" lon="-3.61362">
        <ele>52.200000762939</ele>
        <time>2019-08-15T10:39:41.000Z</time>
      </trkpt>
      <trkpt lat="47.81805" lon="-3.61364">
        <ele>52.200000762939</ele>
        <time>2019-08-15T10:39:43.000Z</time>
      </trkpt>
      <trkpt lat="47.81793" lon="-3.61366">
        <ele>51.799999237061</ele>
        <time>2019-08-15T10:39:45.000Z</time>
      </trkpt>
      <trkpt lat="47.8178" lon="-3.6137">
        <ele>51.400001525879</ele>
        <time>2019-08-15T10:39:47.000Z</time>
      </trkpt>
      <trkpt lat="47.81775" lon="-3.61371">
        <ele>51</ele>
        <time>2019-08-15T10:39:48.000Z</time>
      </trkpt>
      <trkpt lat="47.81768" lon="-3.61374">
        <ele>51</ele>
        <time>2019-08-15T10:39:49.000Z</time>
      </trkpt>
      <trkpt lat="47.81746" lon="-3.61381">
        <ele>50.200000762939</ele>
        <time>2019-08-15T10:39:52.000Z</time>
      </trkpt>
      <trkpt lat="47.81733" lon="-3.61384">
        <ele>50</ele>
        <time>2019-08-15T10:39:54.000Z</time>
      </trkpt>
      <trkpt lat="47.81716" lon="-3.61388">
        <ele>50</ele>
        <time>2019-08-15T10:39:56.000Z</time>
      </trkpt>
      <trkpt lat="47.81709" lon="-3.61389">
        <ele>49.599998474121</ele>
        <time>2019-08-15T10:39:57.000Z</time>
      </trkpt>
      <trkpt lat="47.81693" lon="-3.61392">
        <ele>49.200000762939</ele>
        <time>2019-08-15T10:39:59.000Z</time>
      </trkpt>
      <trkpt lat="47.81686" lon="-3.61392">
        <ele>49</ele>
        <time>2019-08-15T10:40:00.000Z</time>
      </trkpt>
      <trkpt lat="47.81651" lon="-3.6139">
        <ele>48.400001525879</ele>
        <time>2019-08-15T10:40:05.000Z</time>
      </trkpt>
      <trkpt lat="47.81613" lon="-3.61378">
        <ele>48.200000762939</ele>
        <time>2019-08-15T10:40:11.000Z</time>
      </trkpt>
      <trkpt lat="47.81608" lon="-3.61376">
        <ele>48.200000762939</ele>
        <time>2019-08-15T10:40:12.000Z</time>
      </trkpt>
      <trkpt lat="47.81601" lon="-3.61373">
        <ele>48</ele>
        <time>2019-08-15T10:40:13.000Z</time>
      </trkpt>
      <trkpt lat="47.81578" lon="-3.61368">
        <ele>48.200000762939</ele>
        <time>2019-08-15T10:40:17.000Z</time>
      </trkpt>
      <trkpt lat="47.81551" lon="-3.61361">
        <ele>48.200000762939</ele>
        <time>2019-08-15T10:40:21.000Z</time>
      </trkpt>
      <trkpt lat="47.81532" lon="-3.61357">
        <ele>47.799999237061</ele>
        <time>2019-08-15T10:40:24.000Z</time>
      </trkpt>
      <trkpt lat="47.81525" lon="-3.61356">
        <ele>47.599998474121</ele>
        <time>2019-08-15T10:40:25.000Z</time>
      </trkpt>
      <trkpt lat="47.8152" lon="-3.61356">
        <ele>47.400001525879</ele>
        <time>2019-08-15T10:40:26.000Z</time>
      </trkpt>
      <trkpt lat="47.81514" lon="-3.61354">
        <ele>47.400001525879</ele>
        <time>2019-08-15T10:40:27.000Z</time>
      </trkpt>
      <trkpt lat="47.81493" lon="-3.61351">
        <ele>46.799999237061</ele>
        <time>2019-08-15T10:40:30.000Z</time>
      </trkpt>
      <trkpt lat="47.81474" lon="-3.61344">
        <ele>46.799999237061</ele>
        <time>2019-08-15T10:40:33.000Z</time>
      </trkpt>
      <trkpt lat="47.81462" lon="-3.61343">
        <ele>46.599998474121</ele>
        <time>2019-08-15T10:40:35.000Z</time>
      </trkpt>
      <trkpt lat="47.81449" lon="-3.61343">
        <ele>46.200000762939</ele>
        <time>2019-08-15T10:40:37.000Z</time>
      </trkpt>
      <trkpt lat="47.81418" lon="-3.6135">
        <ele>46</ele>
        <time>2019-08-15T10:40:42.000Z</time>
      </trkpt>
      <trkpt lat="47.81393" lon="-3.61366">
        <ele>45.599998474121</ele>
        <time>2019-08-15T10:40:47.000Z</time>
      </trkpt>
      <trkpt lat="47.81388" lon="-3.61377">
        <ele>45.599998474121</ele>
        <time>2019-08-15T10:40:49.000Z</time>
      </trkpt>
      <trkpt lat="47.81387" lon="-3.61383">
        <ele>45.599998474121</ele>
        <time>2019-08-15T10:40:50.000Z</time>
      </trkpt>
      <trkpt lat="47.81385" lon="-3.61398">
        <ele>45.599998474121</ele>
        <time>2019-08-15T10:40:52.000Z</time>
      </trkpt>
      <trkpt lat="47.81378" lon="-3.61411">
        <ele>45.599998474121</ele>
        <time>2019-08-15T10:40:54.000Z</time>
      </trkpt>
      <trkpt lat="47.81368" lon="-3.61413">
        <ele>45.400001525879</ele>
        <time>2019-08-15T10:40:56.000Z</time>
      </trkpt>
      <trkpt lat="47.81364" lon="-3.61413">
        <ele>45.400001525879</ele>
        <time>2019-08-15T10:40:57.000Z</time>
      </trkpt>
      <trkpt lat="47.81327" lon="-3.61414">
        <ele>45.599998474121</ele>
        <time>2019-08-15T10:41:05.000Z</time>
      </trkpt>
      <trkpt lat="47.81322" lon="-3.61414">
        <ele>45.599998474121</ele>
        <time>2019-08-15T10:41:06.000Z</time>
      </trkpt>
      <trkpt lat="47.81295" lon="-3.61414">
        <ele>46</ele>
        <time>2019-08-15T10:41:12.000Z</time>
      </trkpt>
      <trkpt lat="47.8129" lon="-3.61414">
        <ele>46</ele>
        <time>2019-08-15T10:41:13.000Z</time>
      </trkpt>
      <trkpt lat="47.81275" lon="-3.6141">
        <ele>46.200000762939</ele>
        <time>2019-08-15T10:41:16.000Z</time>
      </trkpt>
      <trkpt lat="47.8127" lon="-3.61408">
        <ele>46.200000762939</ele>
        <time>2019-08-15T10:41:17.000Z</time>
      </trkpt>
      <trkpt lat="47.8126" lon="-3.61404">
        <ele>46.400001525879</ele>
        <time>2019-08-15T10:41:19.000Z</time>
      </trkpt>
      <trkpt lat="47.81255" lon="-3.61401">
        <ele>46.200000762939</ele>
        <time>2019-08-15T10:41:20.000Z</time>
      </trkpt>
      <trkpt lat="47.81214" lon="-3.61376">
        <ele>46.200000762939</ele>
        <time>2019-08-15T10:41:28.000Z</time>
      </trkpt>
      <trkpt lat="47.81177" lon="-3.61351">
        <ele>46.200000762939</ele>
        <time>2019-08-15T10:41:35.000Z</time>
      </trkpt>
      <trkpt lat="47.81171" lon="-3.61347">
        <ele>46.200000762939</ele>
        <time>2019-08-15T10:41:36.000Z</time>
      </trkpt>
      <trkpt lat="47.81134" lon="-3.61321">
        <ele>45.400001525879</ele>
        <time>2019-08-15T10:41:43.000Z</time>
      </trkpt>
      <trkpt lat="47.81129" lon="-3.61318">
        <ele>45.400001525879</ele>
        <time>2019-08-15T10:41:44.000Z</time>
      </trkpt>
      <trkpt lat="47.81123" lon="-3.61314">
        <ele>45.400001525879</ele>
        <time>2019-08-15T10:41:45.000Z</time>
      </trkpt>
      <trkpt lat="47.81111" lon="-3.61306">
        <ele>45</ele>
        <time>2019-08-15T10:41:49.000Z</time>
      </trkpt>
      <trkpt lat="47.81104" lon="-3.61302">
        <ele>43.400001525879</ele>
        <time>2019-08-15T10:42:05.000Z</time>
      </trkpt>
      <trkpt lat="47.81088" lon="-3.6129">
        <ele>43.400001525879</ele>
        <time>2019-08-15T10:42:09.000Z</time>
      </trkpt>
      <trkpt lat="47.81068" lon="-3.61278">
        <ele>43.400001525879</ele>
        <time>2019-08-15T10:42:13.000Z</time>
      </trkpt>
      <trkpt lat="47.81058" lon="-3.61271">
        <ele>43</ele>
        <time>2019-08-15T10:42:15.000Z</time>
      </trkpt>
      <trkpt lat="47.81046" lon="-3.61263">
        <ele>42.799999237061</ele>
        <time>2019-08-15T10:42:17.000Z</time>
      </trkpt>
      <trkpt lat="47.8104" lon="-3.6126">
        <ele>42.799999237061</ele>
        <time>2019-08-15T10:42:18.000Z</time>
      </trkpt>
      <trkpt lat="47.81027" lon="-3.61253">
        <ele>42.599998474121</ele>
        <time>2019-08-15T10:42:20.000Z</time>
      </trkpt>
      <trkpt lat="47.80992" lon="-3.61242">
        <ele>41.799999237061</ele>
        <time>2019-08-15T10:42:25.000Z</time>
      </trkpt>
      <trkpt lat="47.80983" lon="-3.61242">
        <ele>41.799999237061</ele>
        <time>2019-08-15T10:42:26.000Z</time>
      </trkpt>
      <trkpt lat="47.80977" lon="-3.61242">
        <ele>41.200000762939</ele>
        <time>2019-08-15T10:42:27.000Z</time>
      </trkpt>
      <trkpt lat="47.80936" lon="-3.61242">
        <ele>39.599998474121</ele>
        <time>2019-08-15T10:42:32.000Z</time>
      </trkpt>
      <trkpt lat="47.8093" lon="-3.61241">
        <ele>39.599998474121</ele>
        <time>2019-08-15T10:42:33.000Z</time>
      </trkpt>
      <trkpt lat="47.80914" lon="-3.61241">
        <ele>39.200000762939</ele>
        <time>2019-08-15T10:42:35.000Z</time>
      </trkpt>
      <trkpt lat="47.80873" lon="-3.61243">
        <ele>38.200000762939</ele>
        <time>2019-08-15T10:42:40.000Z</time>
      </trkpt>
      <trkpt lat="47.80849" lon="-3.61243">
        <ele>37</ele>
        <time>2019-08-15T10:42:43.000Z</time>
      </trkpt>
      <trkpt lat="47.80841" lon="-3.61243">
        <ele>37</ele>
        <time>2019-08-15T10:42:44.000Z</time>
      </trkpt>
      <trkpt lat="47.80819" lon="-3.61243">
        <ele>36.599998474121</ele>
        <time>2019-08-15T10:42:47.000Z</time>
      </trkpt>
      <trkpt lat="47.80771" lon="-3.61247">
        <ele>36.599998474121</ele>
        <time>2019-08-15T10:42:54.000Z</time>
      </trkpt>
      <trkpt lat="47.80758" lon="-3.61247">
        <ele>36.599998474121</ele>
        <time>2019-08-15T10:42:56.000Z</time>
      </trkpt>
      <trkpt lat="47.80752" lon="-3.61247">
        <ele>36.799999237061</ele>
        <time>2019-08-15T10:42:57.000Z</time>
      </trkpt>
      <trkpt lat="47.80741" lon="-3.61249">
        <ele>36.799999237061</ele>
        <time>2019-08-15T10:42:59.000Z</time>
      </trkpt>
      <trkpt lat="47.80729" lon="-3.6125">
        <ele>37</ele>
        <time>2019-08-15T10:43:01.000Z</time>
      </trkpt>
      <trkpt lat="47.80725" lon="-3.61249">
        <ele>37.200000762939</ele>
        <time>2019-08-15T10:43:02.000Z</time>
      </trkpt>
      <trkpt lat="47.80713" lon="-3.61249">
        <ele>37.400001525879</ele>
        <time>2019-08-15T10:43:04.000Z</time>
      </trkpt>
      <trkpt lat="47.80702" lon="-3.61248">
        <ele>37.400001525879</ele>
        <time>2019-08-15T10:43:06.000Z</time>
      </trkpt>
      <trkpt lat="47.80687" lon="-3.61251">
        <ele>37.799999237061</ele>
        <time>2019-08-15T10:43:09.000Z</time>
      </trkpt>
      <trkpt lat="47.80683" lon="-3.61252">
        <ele>38.200000762939</ele>
        <time>2019-08-15T10:43:10.000Z</time>
      </trkpt>
      <trkpt lat="47.80658" lon="-3.61259">
        <ele>38.599998474121</ele>
        <time>2019-08-15T10:43:15.000Z</time>
      </trkpt>
      <trkpt lat="47.80653" lon="-3.61262">
        <ele>38.799999237061</ele>
        <time>2019-08-15T10:43:16.000Z</time>
      </trkpt>
      <trkpt lat="47.80639" lon="-3.61268">
        <ele>39.200000762939</ele>
        <time>2019-08-15T10:43:19.000Z</time>
      </trkpt>
      <trkpt lat="47.80626" lon="-3.61275">
        <ele>39.599998474121</ele>
        <time>2019-08-15T10:43:22.000Z</time>
      </trkpt>
      <trkpt lat="47.80589" lon="-3.61295">
        <ele>40.400001525879</ele>
        <time>2019-08-15T10:43:30.000Z</time>
      </trkpt>
      <trkpt lat="47.80584" lon="-3.61298">
        <ele>40.599998474121</ele>
        <time>2019-08-15T10:43:31.000Z</time>
      </trkpt>
      <trkpt lat="47.80552" lon="-3.61315">
        <ele>41.400001525879</ele>
        <time>2019-08-15T10:43:38.000Z</time>
      </trkpt>
      <trkpt lat="47.80528" lon="-3.61328">
        <ele>42.200000762939</ele>
        <time>2019-08-15T10:43:44.000Z</time>
      </trkpt>
      <trkpt lat="47.80521" lon="-3.61332">
        <ele>42.400001525879</ele>
        <time>2019-08-15T10:43:46.000Z</time>
      </trkpt>
      <trkpt lat="47.80509" lon="-3.61338">
        <ele>42.599998474121</ele>
        <time>2019-08-15T10:43:49.000Z</time>
      </trkpt>
      <trkpt lat="47.80492" lon="-3.61349">
        <ele>43.400001525879</ele>
        <time>2019-08-15T10:43:53.000Z</time>
      </trkpt>
      <trkpt lat="47.80472" lon="-3.6136">
        <ele>43.799999237061</ele>
        <time>2019-08-15T10:43:57.000Z</time>
      </trkpt>
      <trkpt lat="47.80463" lon="-3.61364">
        <ele>44</ele>
        <time>2019-08-15T10:43:59.000Z</time>
      </trkpt>
      <trkpt lat="47.80458" lon="-3.61367">
        <ele>44</ele>
        <time>2019-08-15T10:44:00.000Z</time>
      </trkpt>
      <trkpt lat="47.80444" lon="-3.61375">
        <ele>44.200000762939</ele>
        <time>2019-08-15T10:44:03.000Z</time>
      </trkpt>
      <trkpt lat="47.80439" lon="-3.61378">
        <ele>44.200000762939</ele>
        <time>2019-08-15T10:44:04.000Z</time>
      </trkpt>
      <trkpt lat="47.80434" lon="-3.61381">
        <ele>44.400001525879</ele>
        <time>2019-08-15T10:44:05.000Z</time>
      </trkpt>
      <trkpt lat="47.80429" lon="-3.61383">
        <ele>44.400001525879</ele>
        <time>2019-08-15T10:44:06.000Z</time>
      </trkpt>
      <trkpt lat="47.8042" lon="-3.61387">
        <ele>44.400001525879</ele>
        <time>2019-08-15T10:44:08.000Z</time>
      </trkpt>
      <trkpt lat="47.80402" lon="-3.61395">
        <ele>45</ele>
        <time>2019-08-15T10:44:12.000Z</time>
      </trkpt>
      <trkpt lat="47.80394" lon="-3.61397">
        <ele>45.400001525879</ele>
        <time>2019-08-15T10:44:14.000Z</time>
      </trkpt>
      <trkpt lat="47.80371" lon="-3.614">
        <ele>46</ele>
        <time>2019-08-15T10:44:19.000Z</time>
      </trkpt>
      <trkpt lat="47.80357" lon="-3.61401">
        <ele>46.200000762939</ele>
        <time>2019-08-15T10:44:22.000Z</time>
      </trkpt>
      <trkpt lat="47.8033" lon="-3.61399">
        <ele>46.799999237061</ele>
        <time>2019-08-15T10:44:28.000Z</time>
      </trkpt>
      <trkpt lat="47.80301" lon="-3.61398">
        <ele>47.599998474121</ele>
        <time>2019-08-15T10:44:34.000Z</time>
      </trkpt>
      <trkpt lat="47.80296" lon="-3.61398">
        <ele>47.599998474121</ele>
        <time>2019-08-15T10:44:35.000Z</time>
      </trkpt>
      <trkpt lat="47.80287" lon="-3.61397">
        <ele>48</ele>
        <time>2019-08-15T10:44:37.000Z</time>
      </trkpt>
      <trkpt lat="47.80246" lon="-3.61394">
        <ele>48.200000762939</ele>
        <time>2019-08-15T10:44:45.000Z</time>
      </trkpt>
      <trkpt lat="47.80232" lon="-3.61393">
        <ele>48.200000762939</ele>
        <time>2019-08-15T10:44:48.000Z</time>
      </trkpt>
      <trkpt lat="47.80223" lon="-3.61392">
        <ele>48.200000762939</ele>
        <time>2019-08-15T10:44:50.000Z</time>
      </trkpt>
      <trkpt lat="47.80201" lon="-3.61391">
        <ele>48.200000762939</ele>
        <time>2019-08-15T10:44:55.000Z</time>
      </trkpt>
      <trkpt lat="47.80192" lon="-3.61391">
        <ele>48</ele>
        <time>2019-08-15T10:44:57.000Z</time>
      </trkpt>
      <trkpt lat="47.80184" lon="-3.6139">
        <ele>47.400001525879</ele>
        <time>2019-08-15T10:45:01.000Z</time>
      </trkpt>
      <trkpt lat="47.80183" lon="-3.61389">
        <ele>47.200000762939</ele>
        <time>2019-08-15T10:45:02.000Z</time>
      </trkpt>
      <trkpt lat="47.80178" lon="-3.6138">
        <ele>47</ele>
        <time>2019-08-15T10:45:05.000Z</time>
      </trkpt>
      <trkpt lat="47.80177" lon="-3.61375">
        <ele>46.799999237061</ele>
        <time>2019-08-15T10:45:06.000Z</time>
      </trkpt>
      <trkpt lat="47.80176" lon="-3.61355">
        <ele>47</ele>
        <time>2019-08-15T10:45:09.000Z</time>
      </trkpt>
      <trkpt lat="47.80176" lon="-3.6134">
        <ele>46.799999237061</ele>
        <time>2019-08-15T10:45:11.000Z</time>
      </trkpt>
      <trkpt lat="47.80175" lon="-3.61302">
        <ele>47.400001525879</ele>
        <time>2019-08-15T10:45:16.000Z</time>
      </trkpt>
      <trkpt lat="47.80175" lon="-3.61286">
        <ele>47.599998474121</ele>
        <time>2019-08-15T10:45:18.000Z</time>
      </trkpt>
      <trkpt lat="47.80174" lon="-3.61255">
        <ele>47.799999237061</ele>
        <time>2019-08-15T10:45:22.000Z</time>
      </trkpt>
      <trkpt lat="47.80174" lon="-3.61232">
        <ele>48</ele>
        <time>2019-08-15T10:45:25.000Z</time>
      </trkpt>
      <trkpt lat="47.80173" lon="-3.6121">
        <ele>48</ele>
        <time>2019-08-15T10:45:28.000Z</time>
      </trkpt>
      <trkpt lat="47.80174" lon="-3.61154">
        <ele>48</ele>
        <time>2019-08-15T10:45:35.000Z</time>
      </trkpt>
      <trkpt lat="47.80174" lon="-3.61096">
        <ele>48.200000762939</ele>
        <time>2019-08-15T10:45:42.000Z</time>
      </trkpt>
      <trkpt lat="47.80174" lon="-3.61069">
        <ele>48.200000762939</ele>
        <time>2019-08-15T10:45:45.000Z</time>
      </trkpt>
      <trkpt lat="47.80174" lon="-3.61026">
        <ele>48.599998474121</ele>
        <time>2019-08-15T10:45:50.000Z</time>
      </trkpt>
      <trkpt lat="47.80173" lon="-3.60951">
        <ele>49</ele>
        <time>2019-08-15T10:45:58.000Z</time>
      </trkpt>
      <trkpt lat="47.80172" lon="-3.60865">
        <ele>49.200000762939</ele>
        <time>2019-08-15T10:46:07.000Z</time>
      </trkpt>
      <trkpt lat="47.80172" lon="-3.60784">
        <ele>49</ele>
        <time>2019-08-15T10:46:16.000Z</time>
      </trkpt>
      <trkpt lat="47.80171" lon="-3.60764">
        <ele>48.799999237061</ele>
        <time>2019-08-15T10:46:18.000Z</time>
      </trkpt>
      <trkpt lat="47.80171" lon="-3.60675">
        <ele>49</ele>
        <time>2019-08-15T10:46:27.000Z</time>
      </trkpt>
      <trkpt lat="47.80172" lon="-3.60665">
        <ele>48.799999237061</ele>
        <time>2019-08-15T10:46:28.000Z</time>
      </trkpt>
      <trkpt lat="47.80172" lon="-3.60655">
        <ele>49</ele>
        <time>2019-08-15T10:46:29.000Z</time>
      </trkpt>
      <trkpt lat="47.80177" lon="-3.60574">
        <ele>49</ele>
        <time>2019-08-15T10:46:37.000Z</time>
      </trkpt>
      <trkpt lat="47.80177" lon="-3.60554">
        <ele>49</ele>
        <time>2019-08-15T10:46:39.000Z</time>
      </trkpt>
      <trkpt lat="47.80183" lon="-3.60477">
        <ele>49.200000762939</ele>
        <time>2019-08-15T10:46:47.000Z</time>
      </trkpt>
      <trkpt lat="47.80189" lon="-3.60397">
        <ele>49</ele>
        <time>2019-08-15T10:46:55.000Z</time>
      </trkpt>
      <trkpt lat="47.80189" lon="-3.60387">
        <ele>49.200000762939</ele>
        <time>2019-08-15T10:46:56.000Z</time>
      </trkpt>
      <trkpt lat="47.80187" lon="-3.60308">
        <ele>48.799999237061</ele>
        <time>2019-08-15T10:47:04.000Z</time>
      </trkpt>
      <trkpt lat="47.80184" lon="-3.60282">
        <ele>49.200000762939</ele>
        <time>2019-08-15T10:47:07.000Z</time>
      </trkpt>
      <trkpt lat="47.8018" lon="-3.60255">
        <ele>49.599998474121</ele>
        <time>2019-08-15T10:47:10.000Z</time>
      </trkpt>
      <trkpt lat="47.80167" lon="-3.60195">
        <ele>50.200000762939</ele>
        <time>2019-08-15T10:47:17.000Z</time>
      </trkpt>
      <trkpt lat="47.80166" lon="-3.60186">
        <ele>50</ele>
        <time>2019-08-15T10:47:18.000Z</time>
      </trkpt>
      <trkpt lat="47.80157" lon="-3.60149">
        <ele>50.200000762939</ele>
        <time>2019-08-15T10:47:22.000Z</time>
      </trkpt>
      <trkpt lat="47.80151" lon="-3.60131">
        <ele>50.200000762939</ele>
        <time>2019-08-15T10:47:24.000Z</time>
      </trkpt>
      <trkpt lat="47.80148" lon="-3.60112">
        <ele>50</ele>
        <time>2019-08-15T10:47:26.000Z</time>
      </trkpt>
      <trkpt lat="47.80147" lon="-3.60102">
        <ele>50.200000762939</ele>
        <time>2019-08-15T10:47:27.000Z</time>
      </trkpt>
      <trkpt lat="47.80141" lon="-3.60074">
        <ele>50</ele>
        <time>2019-08-15T10:47:30.000Z</time>
      </trkpt>
      <trkpt lat="47.80134" lon="-3.60047">
        <ele>50.200000762939</ele>
        <time>2019-08-15T10:47:33.000Z</time>
      </trkpt>
      <trkpt lat="47.80125" lon="-3.60012">
        <ele>50</ele>
        <time>2019-08-15T10:47:37.000Z</time>
      </trkpt>
      <trkpt lat="47.80123" lon="-3.59993">
        <ele>50</ele>
        <time>2019-08-15T10:47:39.000Z</time>
      </trkpt>
      <trkpt lat="47.80122" lon="-3.59984">
        <ele>50</ele>
        <time>2019-08-15T10:47:40.000Z</time>
      </trkpt>
      <trkpt lat="47.80117" lon="-3.59955">
        <ele>50</ele>
        <time>2019-08-15T10:47:43.000Z</time>
      </trkpt>
      <trkpt lat="47.80106" lon="-3.59881">
        <ele>50</ele>
        <time>2019-08-15T10:47:51.000Z</time>
      </trkpt>
      <trkpt lat="47.80092" lon="-3.59799">
        <ele>49.599998474121</ele>
        <time>2019-08-15T10:48:00.000Z</time>
      </trkpt>
      <trkpt lat="47.80091" lon="-3.5979">
        <ele>49.599998474121</ele>
        <time>2019-08-15T10:48:01.000Z</time>
      </trkpt>
      <trkpt lat="47.80078" lon="-3.59711">
        <ele>49.599998474121</ele>
        <time>2019-08-15T10:48:10.000Z</time>
      </trkpt>
      <trkpt lat="47.80064" lon="-3.59633">
        <ele>49.599998474121</ele>
        <time>2019-08-15T10:48:19.000Z</time>
      </trkpt>
      <trkpt lat="47.80054" lon="-3.59572">
        <ele>50</ele>
        <time>2019-08-15T10:48:26.000Z</time>
      </trkpt>
      <trkpt lat="47.80038" lon="-3.59494">
        <ele>50.200000762939</ele>
        <time>2019-08-15T10:48:35.000Z</time>
      </trkpt>
      <trkpt lat="47.80036" lon="-3.59486">
        <ele>50.400001525879</ele>
        <time>2019-08-15T10:48:36.000Z</time>
      </trkpt>
      <trkpt lat="47.80029" lon="-3.59461">
        <ele>50.400001525879</ele>
        <time>2019-08-15T10:48:39.000Z</time>
      </trkpt>
      <trkpt lat="47.80018" lon="-3.5943">
        <ele>50.400001525879</ele>
        <time>2019-08-15T10:48:43.000Z</time>
      </trkpt>
      <trkpt lat="47.79997" lon="-3.59374">
        <ele>50.400001525879</ele>
        <time>2019-08-15T10:48:50.000Z</time>
      </trkpt>
      <trkpt lat="47.79969" lon="-3.59296">
        <ele>50</ele>
        <time>2019-08-15T10:48:59.000Z</time>
      </trkpt>
      <trkpt lat="47.79966" lon="-3.59287">
        <ele>50</ele>
        <time>2019-08-15T10:49:00.000Z</time>
      </trkpt>
      <trkpt lat="47.79955" lon="-3.59258">
        <ele>49.799999237061</ele>
        <time>2019-08-15T10:49:03.000Z</time>
      </trkpt>
      <trkpt lat="47.7994" lon="-3.59215">
        <ele>49.200000762939</ele>
        <time>2019-08-15T10:49:08.000Z</time>
      </trkpt>
      <trkpt lat="47.79937" lon="-3.59206">
        <ele>49</ele>
        <time>2019-08-15T10:49:09.000Z</time>
      </trkpt>
      <trkpt lat="47.79918" lon="-3.59155">
        <ele>48</ele>
        <time>2019-08-15T10:49:15.000Z</time>
      </trkpt>
      <trkpt lat="47.79911" lon="-3.59132">
        <ele>47.799999237061</ele>
        <time>2019-08-15T10:49:18.000Z</time>
      </trkpt>
      <trkpt lat="47.79911" lon="-3.59125">
        <ele>47.599998474121</ele>
        <time>2019-08-15T10:49:19.000Z</time>
      </trkpt>
      <trkpt lat="47.79912" lon="-3.59118">
        <ele>47.799999237061</ele>
        <time>2019-08-15T10:49:20.000Z</time>
      </trkpt>
      <trkpt lat="47.79917" lon="-3.59109">
        <ele>47.599998474121</ele>
        <time>2019-08-15T10:49:22.000Z</time>
      </trkpt>
      <trkpt lat="47.7993" lon="-3.59103">
        <ele>47.200000762939</ele>
        <time>2019-08-15T10:49:26.000Z</time>
      </trkpt>
      <trkpt lat="47.79937" lon="-3.59101">
        <ele>47.200000762939</ele>
        <time>2019-08-15T10:49:28.000Z</time>
      </trkpt>
      <trkpt lat="47.79945" lon="-3.59099">
        <ele>47.400001525879</ele>
        <time>2019-08-15T10:49:30.000Z</time>
      </trkpt>
      <trkpt lat="47.7995" lon="-3.59097">
        <ele>47.400001525879</ele>
        <time>2019-08-15T10:49:31.000Z</time>
      </trkpt>
      <trkpt lat="47.79961" lon="-3.59093">
        <ele>48</ele>
        <time>2019-08-15T10:49:34.000Z</time>
      </trkpt>
      <trkpt lat="47.79969" lon="-3.59089">
        <ele>48.400001525879</ele>
        <time>2019-08-15T10:49:36.000Z</time>
      </trkpt>
      <trkpt lat="47.79973" lon="-3.59088">
        <ele>48.599998474121</ele>
        <time>2019-08-15T10:49:37.000Z</time>
      </trkpt>
      <trkpt lat="47.79978" lon="-3.59087">
        <ele>48.799999237061</ele>
        <time>2019-08-15T10:49:38.000Z</time>
      </trkpt>
      <trkpt lat="47.79982" lon="-3.59086">
        <ele>49</ele>
        <time>2019-08-15T10:49:39.000Z</time>
      </trkpt>
      <trkpt lat="47.79999" lon="-3.59084">
        <ele>49.200000762939</ele>
        <time>2019-08-15T10:49:43.000Z</time>
      </trkpt>
      <trkpt lat="47.80005" lon="-3.59083">
        <ele>49.400001525879</ele>
        <time>2019-08-15T10:49:44.000Z</time>
      </trkpt>
      <trkpt lat="47.80009" lon="-3.59083">
        <ele>49.400001525879</ele>
        <time>2019-08-15T10:49:45.000Z</time>
      </trkpt>
      <trkpt lat="47.80046" lon="-3.59078">
        <ele>50.599998474121</ele>
        <time>2019-08-15T10:49:54.000Z</time>
      </trkpt>
      <trkpt lat="47.8008" lon="-3.59075">
        <ele>51</ele>
        <time>2019-08-15T10:50:02.000Z</time>
      </trkpt>
      <trkpt lat="47.80096" lon="-3.59071">
        <ele>51</ele>
        <time>2019-08-15T10:50:06.000Z</time>
      </trkpt>
      <trkpt lat="47.801" lon="-3.59071">
        <ele>51</ele>
        <time>2019-08-15T10:50:07.000Z</time>
      </trkpt>
      <trkpt lat="47.80105" lon="-3.5907">
        <ele>51</ele>
        <time>2019-08-15T10:50:08.000Z</time>
      </trkpt>
      <trkpt lat="47.8011" lon="-3.59069">
        <ele>51</ele>
        <time>2019-08-15T10:50:09.000Z</time>
      </trkpt>
      <trkpt lat="47.80113" lon="-3.59068">
        <ele>50.799999237061</ele>
        <time>2019-08-15T10:50:10.000Z</time>
      </trkpt>
      <trkpt lat="47.80126" lon="-3.59064">
        <ele>51.200000762939</ele>
        <time>2019-08-15T10:50:13.000Z</time>
      </trkpt>
      <trkpt lat="47.8013" lon="-3.59063">
        <ele>51.200000762939</ele>
        <time>2019-08-15T10:50:14.000Z</time>
      </trkpt>
      <trkpt lat="47.80134" lon="-3.59063">
        <ele>51.200000762939</ele>
        <time>2019-08-15T10:50:15.000Z</time>
      </trkpt>
      <trkpt lat="47.80147" lon="-3.5906">
        <ele>51.200000762939</ele>
        <time>2019-08-15T10:50:18.000Z</time>
      </trkpt>
      <trkpt lat="47.80152" lon="-3.59059">
        <ele>51.200000762939</ele>
        <time>2019-08-15T10:50:19.000Z</time>
      </trkpt>
      <trkpt lat="47.80161" lon="-3.59056">
        <ele>51</ele>
        <time>2019-08-15T10:50:21.000Z</time>
      </trkpt>
      <trkpt lat="47.80165" lon="-3.59056">
        <ele>51</ele>
        <time>2019-08-15T10:50:22.000Z</time>
      </trkpt>
      <trkpt lat="47.80192" lon="-3.59052">
        <ele>50.200000762939</ele>
        <time>2019-08-15T10:50:28.000Z</time>
      </trkpt>
      <trkpt lat="47.80196" lon="-3.59051">
        <ele>50.400001525879</ele>
        <time>2019-08-15T10:50:29.000Z</time>
      </trkpt>
      <trkpt lat="47.80225" lon="-3.59045">
        <ele>50.400001525879</ele>
        <time>2019-08-15T10:50:36.000Z</time>
      </trkpt>
      <trkpt lat="47.80229" lon="-3.59044">
        <ele>50.400001525879</ele>
        <time>2019-08-15T10:50:37.000Z</time>
      </trkpt>
      <trkpt lat="47.80233" lon="-3.59043">
        <ele>50.400001525879</ele>
        <time>2019-08-15T10:50:38.000Z</time>
      </trkpt>
      <trkpt lat="47.8025" lon="-3.59039">
        <ele>50</ele>
        <time>2019-08-15T10:50:42.000Z</time>
      </trkpt>
      <trkpt lat="47.80258" lon="-3.59038">
        <ele>50</ele>
        <time>2019-08-15T10:50:44.000Z</time>
      </trkpt>
      <trkpt lat="47.80261" lon="-3.59036">
        <ele>50.200000762939</ele>
        <time>2019-08-15T10:50:45.000Z</time>
      </trkpt>
      <trkpt lat="47.80265" lon="-3.59033">
        <ele>50</ele>
        <time>2019-08-15T10:50:46.000Z</time>
      </trkpt>
      <trkpt lat="47.80267" lon="-3.59031">
        <ele>49.599998474121</ele>
        <time>2019-08-15T10:50:47.000Z</time>
      </trkpt>
      <trkpt lat="47.80269" lon="-3.59029">
        <ele>49.599998474121</ele>
        <time>2019-08-15T10:50:48.000Z</time>
      </trkpt>
      <trkpt lat="47.80277" lon="-3.59021">
        <ele>49.200000762939</ele>
        <time>2019-08-15T10:50:52.000Z</time>
      </trkpt>
      <trkpt lat="47.80279" lon="-3.5902">
        <ele>49.200000762939</ele>
        <time>2019-08-15T10:50:53.000Z</time>
      </trkpt>
      <trkpt lat="47.80281" lon="-3.5902">
        <ele>49.200000762939</ele>
        <time>2019-08-15T10:50:54.000Z</time>
      </trkpt>
      <trkpt lat="47.80283" lon="-3.59021">
        <ele>49.200000762939</ele>
        <time>2019-08-15T10:50:55.000Z</time>
      </trkpt>
      <trkpt lat="47.80288" lon="-3.59023">
        <ele>49.200000762939</ele>
        <time>2019-08-15T10:50:59.000Z</time>
      </trkpt>
      <trkpt lat="47.80289" lon="-3.59023">
        <ele>49</ele>
        <time>2019-08-15T10:51:03.000Z</time>
      </trkpt>
      <trkpt lat="47.80296" lon="-3.5902">
        <ele>48.799999237061</ele>
        <time>2019-08-15T10:51:12.000Z</time>
      </trkpt>
      <trkpt lat="47.80304" lon="-3.59018">
        <ele>48.799999237061</ele>
        <time>2019-08-15T10:51:18.000Z</time>
      </trkpt>
      <trkpt lat="47.80312" lon="-3.59018">
        <ele>48.799999237061</ele>
        <time>2019-08-15T10:51:25.000Z</time>
      </trkpt>
      <trkpt lat="47.80319" lon="-3.59016">
        <ele>48.599998474121</ele>
        <time>2019-08-15T10:51:32.000Z</time>
      </trkpt>
      <trkpt lat="47.8033" lon="-3.59015">
        <ele>48.400001525879</ele>
        <time>2019-08-15T10:51:39.000Z</time>
      </trkpt>
      <trkpt lat="47.80339" lon="-3.59014">
        <ele>48.200000762939</ele>
        <time>2019-08-15T10:51:43.000Z</time>
      </trkpt>
      <trkpt lat="47.80341" lon="-3.59014">
        <ele>48</ele>
        <time>2019-08-15T10:51:44.000Z</time>
      </trkpt>
      <trkpt lat="47.80347" lon="-3.59014">
        <ele>48</ele>
        <time>2019-08-15T10:51:46.000Z</time>
      </trkpt>
      <trkpt lat="47.80356" lon="-3.59013">
        <ele>48</ele>
        <time>2019-08-15T10:51:50.000Z</time>
      </trkpt>
      <trkpt lat="47.80359" lon="-3.59012">
        <ele>48</ele>
        <time>2019-08-15T10:51:51.000Z</time>
      </trkpt>
      <trkpt lat="47.80361" lon="-3.59012">
        <ele>48</ele>
        <time>2019-08-15T10:51:52.000Z</time>
      </trkpt>
      <trkpt lat="47.80369" lon="-3.59011">
        <ele>47.799999237061</ele>
        <time>2019-08-15T10:51:55.000Z</time>
      </trkpt>
      <trkpt lat="47.80372" lon="-3.5901">
        <ele>47.400001525879</ele>
        <time>2019-08-15T10:51:56.000Z</time>
      </trkpt>
      <trkpt lat="47.80377" lon="-3.5901">
        <ele>47.400001525879</ele>
        <time>2019-08-15T10:51:58.000Z</time>
      </trkpt>
      <trkpt lat="47.80387" lon="-3.59009">
        <ele>47.400001525879</ele>
        <time>2019-08-15T10:52:02.000Z</time>
      </trkpt>
      <trkpt lat="47.804" lon="-3.59007">
        <ele>47</ele>
        <time>2019-08-15T10:52:08.000Z</time>
      </trkpt>
      <trkpt lat="47.80408" lon="-3.59006">
        <ele>46.799999237061</ele>
        <time>2019-08-15T10:52:11.000Z</time>
      </trkpt>
      <trkpt lat="47.80414" lon="-3.59006">
        <ele>46.599998474121</ele>
        <time>2019-08-15T10:52:14.000Z</time>
      </trkpt>
      <trkpt lat="47.80415" lon="-3.59005">
        <ele>46.599998474121</ele>
        <time>2019-08-15T10:52:15.000Z</time>
      </trkpt>
      <trkpt lat="47.80415" lon="-3.59006">
        <ele>46.400001525879</ele>
        <time>2019-08-15T10:52:17.000Z</time>
      </trkpt>
      <trkpt lat="47.80416" lon="-3.5901">
        <ele>46</ele>
        <time>2019-08-15T10:52:23.000Z</time>
      </trkpt>
      <trkpt lat="47.80419" lon="-3.59021">
        <ele>46</ele>
        <time>2019-08-15T10:52:31.000Z</time>
      </trkpt>
      <trkpt lat="47.80422" lon="-3.59024">
        <ele>46</ele>
        <time>2019-08-15T10:52:35.000Z</time>
      </trkpt>
      <trkpt lat="47.80422" lon="-3.59024">
        <ele>45.799999237061</ele>
        <time>2019-08-15T10:52:37.000Z</time>
      </trkpt>
      <trkpt lat="47.80426" lon="-3.59023">
        <ele>45.799999237061</ele>
        <time>2019-08-15T10:52:42.000Z</time>
      </trkpt>
      <trkpt lat="47.80427" lon="-3.59021">
        <ele>45.799999237061</ele>
        <time>2019-08-15T10:52:43.000Z</time>
      </trkpt>
      <trkpt lat="47.80431" lon="-3.59017">
        <ele>45.799999237061</ele>
        <time>2019-08-15T10:52:45.000Z</time>
      </trkpt>
      <trkpt lat="47.80433" lon="-3.59016">
        <ele>45.599998474121</ele>
        <time>2019-08-15T10:52:46.000Z</time>
      </trkpt>
      <trkpt lat="47.80436" lon="-3.59016">
        <ele>45.599998474121</ele>
        <time>2019-08-15T10:52:47.000Z</time>
      </trkpt>
      <trkpt lat="47.80444" lon="-3.59013">
        <ele>45.599998474121</ele>
        <time>2019-08-15T10:52:50.000Z</time>
      </trkpt>
      <trkpt lat="47.80446" lon="-3.59013">
        <ele>45.599998474121</ele>
        <time>2019-08-15T10:52:51.000Z</time>
      </trkpt>
      <trkpt lat="47.80452" lon="-3.5901">
        <ele>45.599998474121</ele>
        <time>2019-08-15T10:52:54.000Z</time>
      </trkpt>
      <trkpt lat="47.80456" lon="-3.59008">
        <ele>45.599998474121</ele>
        <time>2019-08-15T10:52:56.000Z</time>
      </trkpt>
      <trkpt lat="47.80457" lon="-3.59008">
        <ele>45.599998474121</ele>
        <time>2019-08-15T10:52:57.000Z</time>
      </trkpt>
      <trkpt lat="47.8046" lon="-3.59006">
        <ele>45.599998474121</ele>
        <time>2019-08-15T10:52:59.000Z</time>
      </trkpt>
      <trkpt lat="47.80462" lon="-3.59006">
        <ele>45.599998474121</ele>
        <time>2019-08-15T10:53:00.000Z</time>
      </trkpt>
      <trkpt lat="47.80465" lon="-3.59005">
        <ele>45.599998474121</ele>
        <time>2019-08-15T10:53:02.000Z</time>
      </trkpt>
      <trkpt lat="47.80469" lon="-3.59006">
        <ele>45.599998474121</ele>
        <time>2019-08-15T10:53:04.000Z</time>
      </trkpt>
      <trkpt lat="47.80472" lon="-3.59007">
        <ele>45.599998474121</ele>
        <time>2019-08-15T10:53:05.000Z</time>
      </trkpt>
      <trkpt lat="47.80474" lon="-3.59008">
        <ele>45.599998474121</ele>
        <time>2019-08-15T10:53:06.000Z</time>
      </trkpt>
      <trkpt lat="47.80487" lon="-3.59011">
        <ele>45.599998474121</ele>
        <time>2019-08-15T10:53:12.000Z</time>
      </trkpt>
      <trkpt lat="47.80497" lon="-3.59013">
        <ele>46</ele>
        <time>2019-08-15T10:53:17.000Z</time>
      </trkpt>
      <trkpt lat="47.80501" lon="-3.59014">
        <ele>46</ele>
        <time>2019-08-15T10:53:19.000Z</time>
      </trkpt>
      <trkpt lat="47.80503" lon="-3.59015">
        <ele>46</ele>
        <time>2019-08-15T10:53:20.000Z</time>
      </trkpt>
      <trkpt lat="47.8052" lon="-3.59019">
        <ele>46.400001525879</ele>
        <time>2019-08-15T10:53:28.000Z</time>
      </trkpt>
      <trkpt lat="47.80522" lon="-3.59019">
        <ele>46.400001525879</ele>
        <time>2019-08-15T10:53:29.000Z</time>
      </trkpt>
      <trkpt lat="47.80524" lon="-3.5902">
        <ele>46.400001525879</ele>
        <time>2019-08-15T10:53:30.000Z</time>
      </trkpt>
      <trkpt lat="47.80526" lon="-3.59021">
        <ele>46.400001525879</ele>
        <time>2019-08-15T10:53:31.000Z</time>
      </trkpt>
      <trkpt lat="47.80528" lon="-3.59022">
        <ele>46.400001525879</ele>
        <time>2019-08-15T10:53:32.000Z</time>
      </trkpt>
      <trkpt lat="47.80533" lon="-3.59024">
        <ele>46.200000762939</ele>
        <time>2019-08-15T10:53:35.000Z</time>
      </trkpt>
      <trkpt lat="47.80537" lon="-3.59025">
        <ele>46.799999237061</ele>
        <time>2019-08-15T10:53:37.000Z</time>
      </trkpt>
      <trkpt lat="47.8054" lon="-3.59026">
        <ele>46.799999237061</ele>
        <time>2019-08-15T10:53:38.000Z</time>
      </trkpt>
      <trkpt lat="47.80548" lon="-3.5903">
        <ele>47.200000762939</ele>
        <time>2019-08-15T10:53:42.000Z</time>
      </trkpt>
      <trkpt lat="47.80552" lon="-3.59032">
        <ele>47</ele>
        <time>2019-08-15T10:53:44.000Z</time>
      </trkpt>
      <trkpt lat="47.80556" lon="-3.59034">
        <ele>47</ele>
        <time>2019-08-15T10:53:46.000Z</time>
      </trkpt>
      <trkpt lat="47.8057" lon="-3.5904">
        <ele>47</ele>
        <time>2019-08-15T10:53:53.000Z</time>
      </trkpt>
      <trkpt lat="47.80572" lon="-3.59041">
        <ele>47</ele>
        <time>2019-08-15T10:53:54.000Z</time>
      </trkpt>
      <trkpt lat="47.80582" lon="-3.59046">
        <ele>47.200000762939</ele>
        <time>2019-08-15T10:53:59.000Z</time>
      </trkpt>
      <trkpt lat="47.80585" lon="-3.59047">
        <ele>47.200000762939</ele>
        <time>2019-08-15T10:54:00.000Z</time>
      </trkpt>
      <trkpt lat="47.80588" lon="-3.5905">
        <ele>47.200000762939</ele>
        <time>2019-08-15T10:54:02.000Z</time>
      </trkpt>
      <trkpt lat="47.8059" lon="-3.59052">
        <ele>47.200000762939</ele>
        <time>2019-08-15T10:54:03.000Z</time>
      </trkpt>
      <trkpt lat="47.80592" lon="-3.59052">
        <ele>47.200000762939</ele>
        <time>2019-08-15T10:54:04.000Z</time>
      </trkpt>
      <trkpt lat="47.80596" lon="-3.59051">
        <ele>47.599998474121</ele>
        <time>2019-08-15T10:54:06.000Z</time>
      </trkpt>
      <trkpt lat="47.80601" lon="-3.59047">
        <ele>47.799999237061</ele>
        <time>2019-08-15T10:54:10.000Z</time>
      </trkpt>
      <trkpt lat="47.80602" lon="-3.59044">
        <ele>47.799999237061</ele>
        <time>2019-08-15T10:54:11.000Z</time>
      </trkpt>
      <trkpt lat="47.80603" lon="-3.5904">
        <ele>47.599998474121</ele>
        <time>2019-08-15T10:54:12.000Z</time>
      </trkpt>
      <trkpt lat="47.80607" lon="-3.59028">
        <ele>47.799999237061</ele>
        <time>2019-08-15T10:54:16.000Z</time>
      </trkpt>
      <trkpt lat="47.8061" lon="-3.59018">
        <ele>48</ele>
        <time>2019-08-15T10:54:19.000Z</time>
      </trkpt>
      <trkpt lat="47.80611" lon="-3.59011">
        <ele>48</ele>
        <time>2019-08-15T10:54:21.000Z</time>
      </trkpt>
      <trkpt lat="47.80611" lon="-3.59008">
        <ele>48</ele>
        <time>2019-08-15T10:54:22.000Z</time>
      </trkpt>
      <trkpt lat="47.80612" lon="-3.58995">
        <ele>48.400001525879</ele>
        <time>2019-08-15T10:54:26.000Z</time>
      </trkpt>
      <trkpt lat="47.80612" lon="-3.58992">
        <ele>48.200000762939</ele>
        <time>2019-08-15T10:54:27.000Z</time>
      </trkpt>
      <trkpt lat="47.80613" lon="-3.5899">
        <ele>48.400001525879</ele>
        <time>2019-08-15T10:54:28.000Z</time>
      </trkpt>
      <trkpt lat="47.80613" lon="-3.58987">
        <ele>48.400001525879</ele>
        <time>2019-08-15T10:54:29.000Z</time>
      </trkpt>
      <trkpt lat="47.80613" lon="-3.58985">
        <ele>48.200000762939</ele>
        <time>2019-08-15T10:54:30.000Z</time>
      </trkpt>
      <trkpt lat="47.80613" lon="-3.58982">
        <ele>48.400001525879</ele>
        <time>2019-08-15T10:54:31.000Z</time>
      </trkpt>
      <trkpt lat="47.80613" lon="-3.5898">
        <ele>48.400001525879</ele>
        <time>2019-08-15T10:54:32.000Z</time>
      </trkpt>
      <trkpt lat="47.8061" lon="-3.58973">
        <ele>48.599998474121</ele>
        <time>2019-08-15T10:54:36.000Z</time>
      </trkpt>
      <trkpt lat="47.80609" lon="-3.5897">
        <ele>48.599998474121</ele>
        <time>2019-08-15T10:54:37.000Z</time>
      </trkpt>
      <trkpt lat="47.80609" lon="-3.58963">
        <ele>48.599998474121</ele>
        <time>2019-08-15T10:54:39.000Z</time>
      </trkpt>
      <trkpt lat="47.80609" lon="-3.5896">
        <ele>48.599998474121</ele>
        <time>2019-08-15T10:54:40.000Z</time>
      </trkpt>
      <trkpt lat="47.80608" lon="-3.58955">
        <ele>48.599998474121</ele>
        <time>2019-08-15T10:54:42.000Z</time>
      </trkpt>
      <trkpt lat="47.80608" lon="-3.58951">
        <ele>48.599998474121</ele>
        <time>2019-08-15T10:54:43.000Z</time>
      </trkpt>
      <trkpt lat="47.80607" lon="-3.5893">
        <ele>48.799999237061</ele>
        <time>2019-08-15T10:54:49.000Z</time>
      </trkpt>
      <trkpt lat="47.80607" lon="-3.58926">
        <ele>48.599998474121</ele>
        <time>2019-08-15T10:54:50.000Z</time>
      </trkpt>
      <trkpt lat="47.80606" lon="-3.58922">
        <ele>48.599998474121</ele>
        <time>2019-08-15T10:54:51.000Z</time>
      </trkpt>
      <trkpt lat="47.80605" lon="-3.58916">
        <ele>48.599998474121</ele>
        <time>2019-08-15T10:54:53.000Z</time>
      </trkpt>
      <trkpt lat="47.80598" lon="-3.58904">
        <ele>48.599998474121</ele>
        <time>2019-08-15T10:54:57.000Z</time>
      </trkpt>
      <trkpt lat="47.80595" lon="-3.58897">
        <ele>48.400001525879</ele>
        <time>2019-08-15T10:55:00.000Z</time>
      </trkpt>
      <trkpt lat="47.80595" lon="-3.58891">
        <ele>48.599998474121</ele>
        <time>2019-08-15T10:55:02.000Z</time>
      </trkpt>
      <trkpt lat="47.80597" lon="-3.58874">
        <ele>48.799999237061</ele>
        <time>2019-08-15T10:55:07.000Z</time>
      </trkpt>
      <trkpt lat="47.80597" lon="-3.58867">
        <ele>48.599998474121</ele>
        <time>2019-08-15T10:55:10.000Z</time>
      </trkpt>
      <trkpt lat="47.80597" lon="-3.58864">
        <ele>48.599998474121</ele>
        <time>2019-08-15T10:55:11.000Z</time>
      </trkpt>
      <trkpt lat="47.80593" lon="-3.58852">
        <ele>48.799999237061</ele>
        <time>2019-08-15T10:55:15.000Z</time>
      </trkpt>
      <trkpt lat="47.80592" lon="-3.58846">
        <ele>48.799999237061</ele>
        <time>2019-08-15T10:55:17.000Z</time>
      </trkpt>
      <trkpt lat="47.80585" lon="-3.58822">
        <ele>48.799999237061</ele>
        <time>2019-08-15T10:55:24.000Z</time>
      </trkpt>
      <trkpt lat="47.80584" lon="-3.58819">
        <ele>48.799999237061</ele>
        <time>2019-08-15T10:55:25.000Z</time>
      </trkpt>
      <trkpt lat="47.80583" lon="-3.58816">
        <ele>49</ele>
        <time>2019-08-15T10:55:26.000Z</time>
      </trkpt>
      <trkpt lat="47.80581" lon="-3.58792">
        <ele>49.200000762939</ele>
        <time>2019-08-15T10:55:32.000Z</time>
      </trkpt>
      <trkpt lat="47.80582" lon="-3.5879">
        <ele>49.200000762939</ele>
        <time>2019-08-15T10:55:33.000Z</time>
      </trkpt>
      <trkpt lat="47.80583" lon="-3.58789">
        <ele>49.400001525879</ele>
        <time>2019-08-15T10:55:36.000Z</time>
      </trkpt>
      <trkpt lat="47.80586" lon="-3.58784">
        <ele>49.400001525879</ele>
        <time>2019-08-15T10:55:38.000Z</time>
      </trkpt>
      <trkpt lat="47.80589" lon="-3.58782">
        <ele>49.400001525879</ele>
        <time>2019-08-15T10:55:40.000Z</time>
      </trkpt>
      <trkpt lat="47.80589" lon="-3.58781">
        <ele>49.599998474121</ele>
        <time>2019-08-15T10:55:41.000Z</time>
      </trkpt>
      <trkpt lat="47.8059" lon="-3.58781">
        <ele>49.400001525879</ele>
        <time>2019-08-15T10:55:46.000Z</time>
      </trkpt>
      <trkpt lat="47.8059" lon="-3.58781">
        <ele>49.400001525879</ele>
        <time>2019-08-15T10:55:48.000Z</time>
      </trkpt>
      <trkpt lat="47.8059" lon="-3.58781">
        <ele>49.599998474121</ele>
        <time>2019-08-15T10:56:01.000Z</time>
      </trkpt>
      <trkpt lat="47.80589" lon="-3.5878">
        <ele>49.400001525879</ele>
        <time>2019-08-15T10:56:13.000Z</time>
      </trkpt>
      <trkpt lat="47.80588" lon="-3.58779">
        <ele>49.400001525879</ele>
        <time>2019-08-15T10:56:15.000Z</time>
      </trkpt>
      <trkpt lat="47.80586" lon="-3.58779">
        <ele>49.400001525879</ele>
        <time>2019-08-15T10:56:16.000Z</time>
      </trkpt>
      <trkpt lat="47.80581" lon="-3.58778">
        <ele>49.200000762939</ele>
        <time>2019-08-15T10:56:21.000Z</time>
      </trkpt>
      <trkpt lat="47.8058" lon="-3.58775">
        <ele>49</ele>
        <time>2019-08-15T10:56:27.000Z</time>
      </trkpt>
      <trkpt lat="47.8058" lon="-3.58775">
        <ele>48.799999237061</ele>
        <time>2019-08-15T10:56:37.000Z</time>
      </trkpt>
      <trkpt lat="47.8058" lon="-3.58771">
        <ele>48.799999237061</ele>
        <time>2019-08-15T10:56:41.000Z</time>
      </trkpt>
      <trkpt lat="47.80578" lon="-3.58766">
        <ele>48.599998474121</ele>
        <time>2019-08-15T10:56:44.000Z</time>
      </trkpt>
      <trkpt lat="47.80578" lon="-3.58763">
        <ele>48.599998474121</ele>
        <time>2019-08-15T10:56:46.000Z</time>
      </trkpt>
      <trkpt lat="47.80576" lon="-3.58746">
        <ele>49</ele>
        <time>2019-08-15T10:56:52.000Z</time>
      </trkpt>
      <trkpt lat="47.80574" lon="-3.58739">
        <ele>49.200000762939</ele>
        <time>2019-08-15T10:56:54.000Z</time>
      </trkpt>
      <trkpt lat="47.80574" lon="-3.58729">
        <ele>49.200000762939</ele>
        <time>2019-08-15T10:56:57.000Z</time>
      </trkpt>
      <trkpt lat="47.80573" lon="-3.58726">
        <ele>49.200000762939</ele>
        <time>2019-08-15T10:56:58.000Z</time>
      </trkpt>
      <trkpt lat="47.80572" lon="-3.5872">
        <ele>49.200000762939</ele>
        <time>2019-08-15T10:57:00.000Z</time>
      </trkpt>
      <trkpt lat="47.80571" lon="-3.58709">
        <ele>49.200000762939</ele>
        <time>2019-08-15T10:57:03.000Z</time>
      </trkpt>
      <trkpt lat="47.8057" lon="-3.58704">
        <ele>49.400001525879</ele>
        <time>2019-08-15T10:57:04.000Z</time>
      </trkpt>
      <trkpt lat="47.8057" lon="-3.58698">
        <ele>49.400001525879</ele>
        <time>2019-08-15T10:57:05.000Z</time>
      </trkpt>
      <trkpt lat="47.80571" lon="-3.58692">
        <ele>49.599998474121</ele>
        <time>2019-08-15T10:57:06.000Z</time>
      </trkpt>
      <trkpt lat="47.80571" lon="-3.58687">
        <ele>49.400001525879</ele>
        <time>2019-08-15T10:57:07.000Z</time>
      </trkpt>
      <trkpt lat="47.8057" lon="-3.58674">
        <ele>49.599998474121</ele>
        <time>2019-08-15T10:57:10.000Z</time>
      </trkpt>
      <trkpt lat="47.8057" lon="-3.58664">
        <ele>49.400001525879</ele>
        <time>2019-08-15T10:57:12.000Z</time>
      </trkpt>
      <trkpt lat="47.8057" lon="-3.58641">
        <ele>49.400001525879</ele>
        <time>2019-08-15T10:57:17.000Z</time>
      </trkpt>
      <trkpt lat="47.80569" lon="-3.5863">
        <ele>49.599998474121</ele>
        <time>2019-08-15T10:57:20.000Z</time>
      </trkpt>
      <trkpt lat="47.80569" lon="-3.58625">
        <ele>49.599998474121</ele>
        <time>2019-08-15T10:57:21.000Z</time>
      </trkpt>
      <trkpt lat="47.80568" lon="-3.58615">
        <ele>49.799999237061</ele>
        <time>2019-08-15T10:57:23.000Z</time>
      </trkpt>
      <trkpt lat="47.80567" lon="-3.58611">
        <ele>49.799999237061</ele>
        <time>2019-08-15T10:57:24.000Z</time>
      </trkpt>
      <trkpt lat="47.80565" lon="-3.58588">
        <ele>50</ele>
        <time>2019-08-15T10:57:29.000Z</time>
      </trkpt>
      <trkpt lat="47.80566" lon="-3.58585">
        <ele>50.200000762939</ele>
        <time>2019-08-15T10:57:30.000Z</time>
      </trkpt>
      <trkpt lat="47.80569" lon="-3.58577">
        <ele>50.200000762939</ele>
        <time>2019-08-15T10:57:32.000Z</time>
      </trkpt>
      <trkpt lat="47.80571" lon="-3.58568">
        <ele>50</ele>
        <time>2019-08-15T10:57:34.000Z</time>
      </trkpt>
      <trkpt lat="47.80573" lon="-3.58556">
        <ele>50</ele>
        <time>2019-08-15T10:57:36.000Z</time>
      </trkpt>
      <trkpt lat="47.80572" lon="-3.58545">
        <ele>50.200000762939</ele>
        <time>2019-08-15T10:57:38.000Z</time>
      </trkpt>
      <trkpt lat="47.80571" lon="-3.5854">
        <ele>50.200000762939</ele>
        <time>2019-08-15T10:57:39.000Z</time>
      </trkpt>
      <trkpt lat="47.8057" lon="-3.58536">
        <ele>50</ele>
        <time>2019-08-15T10:57:40.000Z</time>
      </trkpt>
      <trkpt lat="47.8057" lon="-3.58528">
        <ele>50.200000762939</ele>
        <time>2019-08-15T10:57:42.000Z</time>
      </trkpt>
      <trkpt lat="47.80571" lon="-3.58523">
        <ele>50.200000762939</ele>
        <time>2019-08-15T10:57:43.000Z</time>
      </trkpt>
      <trkpt lat="47.8057" lon="-3.58514">
        <ele>50</ele>
        <time>2019-08-15T10:57:45.000Z</time>
      </trkpt>
      <trkpt lat="47.8057" lon="-3.5851">
        <ele>50.200000762939</ele>
        <time>2019-08-15T10:57:46.000Z</time>
      </trkpt>
      <trkpt lat="47.80567" lon="-3.58491">
        <ele>50.200000762939</ele>
        <time>2019-08-15T10:57:50.000Z</time>
      </trkpt>
      <trkpt lat="47.80565" lon="-3.58468">
        <ele>51</ele>
        <time>2019-08-15T10:57:56.000Z</time>
      </trkpt>
      <trkpt lat="47.80567" lon="-3.5845">
        <ele>51.200000762939</ele>
        <time>2019-08-15T10:58:01.000Z</time>
      </trkpt>
      <trkpt lat="47.80568" lon="-3.58439">
        <ele>51.200000762939</ele>
        <time>2019-08-15T10:58:04.000Z</time>
      </trkpt>
      <trkpt lat="47.80568" lon="-3.5843">
        <ele>51.400001525879</ele>
        <time>2019-08-15T10:58:06.000Z</time>
      </trkpt>
      <trkpt lat="47.80567" lon="-3.58411">
        <ele>51.200000762939</ele>
        <time>2019-08-15T10:58:10.000Z</time>
      </trkpt>
      <trkpt lat="47.80567" lon="-3.58407">
        <ele>51.200000762939</ele>
        <time>2019-08-15T10:58:11.000Z</time>
      </trkpt>
      <trkpt lat="47.80568" lon="-3.58393">
        <ele>51.400001525879</ele>
        <time>2019-08-15T10:58:14.000Z</time>
      </trkpt>
      <trkpt lat="47.80569" lon="-3.58389">
        <ele>51.200000762939</ele>
        <time>2019-08-15T10:58:15.000Z</time>
      </trkpt>
      <trkpt lat="47.80569" lon="-3.58385">
        <ele>51.200000762939</ele>
        <time>2019-08-15T10:58:16.000Z</time>
      </trkpt>
      <trkpt lat="47.80569" lon="-3.58375">
        <ele>51.400001525879</ele>
        <time>2019-08-15T10:58:19.000Z</time>
      </trkpt>
      <trkpt lat="47.80569" lon="-3.58373">
        <ele>51.400001525879</ele>
        <time>2019-08-15T10:58:20.000Z</time>
      </trkpt>
      <trkpt lat="47.80568" lon="-3.5837">
        <ele>51.599998474121</ele>
        <time>2019-08-15T10:58:21.000Z</time>
      </trkpt>
      <trkpt lat="47.80567" lon="-3.58362">
        <ele>51.400001525879</ele>
        <time>2019-08-15T10:58:24.000Z</time>
      </trkpt>
      <trkpt lat="47.80565" lon="-3.5836">
        <ele>51.400001525879</ele>
        <time>2019-08-15T10:58:25.000Z</time>
      </trkpt>
      <trkpt lat="47.80555" lon="-3.58346">
        <ele>51.599998474121</ele>
        <time>2019-08-15T10:58:30.000Z</time>
      </trkpt>
      <trkpt lat="47.80554" lon="-3.58343">
        <ele>51.599998474121</ele>
        <time>2019-08-15T10:58:31.000Z</time>
      </trkpt>
      <trkpt lat="47.8055" lon="-3.58331">
        <ele>51.599998474121</ele>
        <time>2019-08-15T10:58:34.000Z</time>
      </trkpt>
      <trkpt lat="47.80549" lon="-3.58316">
        <ele>51.599998474121</ele>
        <time>2019-08-15T10:58:37.000Z</time>
      </trkpt>
      <trkpt lat="47.80548" lon="-3.5831">
        <ele>51.599998474121</ele>
        <time>2019-08-15T10:58:39.000Z</time>
      </trkpt>
      <trkpt lat="47.80545" lon="-3.58293">
        <ele>51.599998474121</ele>
        <time>2019-08-15T10:58:43.000Z</time>
      </trkpt>
      <trkpt lat="47.80545" lon="-3.58289">
        <ele>51.799999237061</ele>
        <time>2019-08-15T10:58:44.000Z</time>
      </trkpt>
      <trkpt lat="47.80545" lon="-3.58285">
        <ele>51.799999237061</ele>
        <time>2019-08-15T10:58:45.000Z</time>
      </trkpt>
      <trkpt lat="47.80548" lon="-3.58272">
        <ele>52</ele>
        <time>2019-08-15T10:58:49.000Z</time>
      </trkpt>
      <trkpt lat="47.80558" lon="-3.58244">
        <ele>52.400001525879</ele>
        <time>2019-08-15T10:58:55.000Z</time>
      </trkpt>
      <trkpt lat="47.80559" lon="-3.58238">
        <ele>52.599998474121</ele>
        <time>2019-08-15T10:58:56.000Z</time>
      </trkpt>
      <trkpt lat="47.80561" lon="-3.58233">
        <ele>52.599998474121</ele>
        <time>2019-08-15T10:58:57.000Z</time>
      </trkpt>
      <trkpt lat="47.80566" lon="-3.58211">
        <ele>52.599998474121</ele>
        <time>2019-08-15T10:59:01.000Z</time>
      </trkpt>
      <trkpt lat="47.80567" lon="-3.58206">
        <ele>52.400001525879</ele>
        <time>2019-08-15T10:59:02.000Z</time>
      </trkpt>
      <trkpt lat="47.8057" lon="-3.58197">
        <ele>52.599998474121</ele>
        <time>2019-08-15T10:59:04.000Z</time>
      </trkpt>
      <trkpt lat="47.80571" lon="-3.58193">
        <ele>52.400001525879</ele>
        <time>2019-08-15T10:59:05.000Z</time>
      </trkpt>
      <trkpt lat="47.80573" lon="-3.58189">
        <ele>52.400001525879</ele>
        <time>2019-08-15T10:59:06.000Z</time>
      </trkpt>
      <trkpt lat="47.80574" lon="-3.58184">
        <ele>52.400001525879</ele>
        <time>2019-08-15T10:59:07.000Z</time>
      </trkpt>
      <trkpt lat="47.80577" lon="-3.58168">
        <ele>52.400001525879</ele>
        <time>2019-08-15T10:59:10.000Z</time>
      </trkpt>
      <trkpt lat="47.80577" lon="-3.58162">
        <ele>52.400001525879</ele>
        <time>2019-08-15T10:59:11.000Z</time>
      </trkpt>
      <trkpt lat="47.80579" lon="-3.5813">
        <ele>52.400001525879</ele>
        <time>2019-08-15T10:59:17.000Z</time>
      </trkpt>
      <trkpt lat="47.80584" lon="-3.58079">
        <ele>52.400001525879</ele>
        <time>2019-08-15T10:59:26.000Z</time>
      </trkpt>
      <trkpt lat="47.80583" lon="-3.5806">
        <ele>52.400001525879</ele>
        <time>2019-08-15T10:59:30.000Z</time>
      </trkpt>
      <trkpt lat="47.80581" lon="-3.58052">
        <ele>52.799999237061</ele>
        <time>2019-08-15T10:59:32.000Z</time>
      </trkpt>
      <trkpt lat="47.80581" lon="-3.5804">
        <ele>53</ele>
        <time>2019-08-15T10:59:34.000Z</time>
      </trkpt>
      <trkpt lat="47.80581" lon="-3.58035">
        <ele>53</ele>
        <time>2019-08-15T10:59:35.000Z</time>
      </trkpt>
      <trkpt lat="47.80581" lon="-3.58031">
        <ele>53</ele>
        <time>2019-08-15T10:59:36.000Z</time>
      </trkpt>
      <trkpt lat="47.80581" lon="-3.58022">
        <ele>53.200000762939</ele>
        <time>2019-08-15T10:59:38.000Z</time>
      </trkpt>
      <trkpt lat="47.8058" lon="-3.58018">
        <ele>53.200000762939</ele>
        <time>2019-08-15T10:59:39.000Z</time>
      </trkpt>
      <trkpt lat="47.8058" lon="-3.58009">
        <ele>53.400001525879</ele>
        <time>2019-08-15T10:59:42.000Z</time>
      </trkpt>
      <trkpt lat="47.80579" lon="-3.58">
        <ele>53.200000762939</ele>
        <time>2019-08-15T10:59:45.000Z</time>
      </trkpt>
      <trkpt lat="47.8058" lon="-3.57996">
        <ele>53.400001525879</ele>
        <time>2019-08-15T10:59:47.000Z</time>
      </trkpt>
      <trkpt lat="47.80581" lon="-3.57988">
        <ele>53.200000762939</ele>
        <time>2019-08-15T10:59:51.000Z</time>
      </trkpt>
      <trkpt lat="47.80582" lon="-3.57984">
        <ele>53.200000762939</ele>
        <time>2019-08-15T10:59:52.000Z</time>
      </trkpt>
      <trkpt lat="47.80591" lon="-3.57977">
        <ele>53.200000762939</ele>
        <time>2019-08-15T10:59:56.000Z</time>
      </trkpt>
      <trkpt lat="47.80609" lon="-3.57968">
        <ele>53.200000762939</ele>
        <time>2019-08-15T11:00:01.000Z</time>
      </trkpt>
      <trkpt lat="47.80641" lon="-3.57954">
        <ele>53.200000762939</ele>
        <time>2019-08-15T11:00:08.000Z</time>
      </trkpt>
      <trkpt lat="47.8068" lon="-3.5794">
        <ele>53</ele>
        <time>2019-08-15T11:00:15.000Z</time>
      </trkpt>
      <trkpt lat="47.80725" lon="-3.57924">
        <ele>53</ele>
        <time>2019-08-15T11:00:23.000Z</time>
      </trkpt>
      <trkpt lat="47.80736" lon="-3.57921">
        <ele>53</ele>
        <time>2019-08-15T11:00:25.000Z</time>
      </trkpt>
      <trkpt lat="47.80771" lon="-3.57908">
        <ele>53</ele>
        <time>2019-08-15T11:00:31.000Z</time>
      </trkpt>
      <trkpt lat="47.80825" lon="-3.57891">
        <ele>52.599998474121</ele>
        <time>2019-08-15T11:00:40.000Z</time>
      </trkpt>
      <trkpt lat="47.80836" lon="-3.57887">
        <ele>52.799999237061</ele>
        <time>2019-08-15T11:00:42.000Z</time>
      </trkpt>
      <trkpt lat="47.80883" lon="-3.57875">
        <ele>53.200000762939</ele>
        <time>2019-08-15T11:00:50.000Z</time>
      </trkpt>
      <trkpt lat="47.80933" lon="-3.57862">
        <ele>53.599998474121</ele>
        <time>2019-08-15T11:00:59.000Z</time>
      </trkpt>
      <trkpt lat="47.80948" lon="-3.5786">
        <ele>53.400001525879</ele>
        <time>2019-08-15T11:01:02.000Z</time>
      </trkpt>
      <trkpt lat="47.8097" lon="-3.57857">
        <ele>53.799999237061</ele>
        <time>2019-08-15T11:01:06.000Z</time>
      </trkpt>
      <trkpt lat="47.81025" lon="-3.57854">
        <ele>54.400001525879</ele>
        <time>2019-08-15T11:01:16.000Z</time>
      </trkpt>
      <trkpt lat="47.81036" lon="-3.57854">
        <ele>54.400001525879</ele>
        <time>2019-08-15T11:01:18.000Z</time>
      </trkpt>
      <trkpt lat="47.81092" lon="-3.57852">
        <ele>54.599998474121</ele>
        <time>2019-08-15T11:01:28.000Z</time>
      </trkpt>
      <trkpt lat="47.81137" lon="-3.5785">
        <ele>54.200000762939</ele>
        <time>2019-08-15T11:01:36.000Z</time>
      </trkpt>
      <trkpt lat="47.81154" lon="-3.57849">
        <ele>54</ele>
        <time>2019-08-15T11:01:39.000Z</time>
      </trkpt>
      <trkpt lat="47.81188" lon="-3.57847">
        <ele>53.799999237061</ele>
        <time>2019-08-15T11:01:45.000Z</time>
      </trkpt>
      <trkpt lat="47.81245" lon="-3.57844">
        <ele>53.400001525879</ele>
        <time>2019-08-15T11:01:55.000Z</time>
      </trkpt>
      <trkpt lat="47.81298" lon="-3.57843">
        <ele>53.200000762939</ele>
        <time>2019-08-15T11:02:04.000Z</time>
      </trkpt>
      <trkpt lat="47.81352" lon="-3.57841">
        <ele>53</ele>
        <time>2019-08-15T11:02:13.000Z</time>
      </trkpt>
      <trkpt lat="47.81358" lon="-3.57841">
        <ele>53</ele>
        <time>2019-08-15T11:02:14.000Z</time>
      </trkpt>
      <trkpt lat="47.81368" lon="-3.57841">
        <ele>53.200000762939</ele>
        <time>2019-08-15T11:02:16.000Z</time>
      </trkpt>
      <trkpt lat="47.81376" lon="-3.57839">
        <ele>52.599998474121</ele>
        <time>2019-08-15T11:02:18.000Z</time>
      </trkpt>
      <trkpt lat="47.81378" lon="-3.57836">
        <ele>52.599998474121</ele>
        <time>2019-08-15T11:02:19.000Z</time>
      </trkpt>
      <trkpt lat="47.8138" lon="-3.57831">
        <ele>52.599998474121</ele>
        <time>2019-08-15T11:02:20.000Z</time>
      </trkpt>
      <trkpt lat="47.8138" lon="-3.57827">
        <ele>52.400001525879</ele>
        <time>2019-08-15T11:02:21.000Z</time>
      </trkpt>
      <trkpt lat="47.81381" lon="-3.57812">
        <ele>52.400001525879</ele>
        <time>2019-08-15T11:02:24.000Z</time>
      </trkpt>
      <trkpt lat="47.81381" lon="-3.578">
        <ele>52.400001525879</ele>
        <time>2019-08-15T11:02:26.000Z</time>
      </trkpt>
      <trkpt lat="47.81381" lon="-3.57788">
        <ele>52.599998474121</ele>
        <time>2019-08-15T11:02:28.000Z</time>
      </trkpt>
      <trkpt lat="47.81379" lon="-3.57776">
        <ele>52.599998474121</ele>
        <time>2019-08-15T11:02:30.000Z</time>
      </trkpt>
      <trkpt lat="47.81379" lon="-3.57765">
        <ele>52.599998474121</ele>
        <time>2019-08-15T11:02:32.000Z</time>
      </trkpt>
      <trkpt lat="47.81382" lon="-3.57748">
        <ele>52.599998474121</ele>
        <time>2019-08-15T11:02:35.000Z</time>
      </trkpt>
      <trkpt lat="47.81381" lon="-3.57738">
        <ele>52.799999237061</ele>
        <time>2019-08-15T11:02:37.000Z</time>
      </trkpt>
      <trkpt lat="47.81379" lon="-3.57727">
        <ele>52.799999237061</ele>
        <time>2019-08-15T11:02:39.000Z</time>
      </trkpt>
      <trkpt lat="47.81379" lon="-3.57716">
        <ele>52.599998474121</ele>
        <time>2019-08-15T11:02:41.000Z</time>
      </trkpt>
      <trkpt lat="47.8138" lon="-3.57709">
        <ele>52.599998474121</ele>
        <time>2019-08-15T11:02:42.000Z</time>
      </trkpt>
      <trkpt lat="47.81383" lon="-3.57696">
        <ele>52.799999237061</ele>
        <time>2019-08-15T11:02:44.000Z</time>
      </trkpt>
      <trkpt lat="47.81385" lon="-3.57687">
        <ele>52.599998474121</ele>
        <time>2019-08-15T11:02:46.000Z</time>
      </trkpt>
      <trkpt lat="47.81386" lon="-3.57678">
        <ele>52.799999237061</ele>
        <time>2019-08-15T11:02:48.000Z</time>
      </trkpt>
      <trkpt lat="47.81386" lon="-3.57673">
        <ele>53</ele>
        <time>2019-08-15T11:02:49.000Z</time>
      </trkpt>
      <trkpt lat="47.81386" lon="-3.57667">
        <ele>53</ele>
        <time>2019-08-15T11:02:50.000Z</time>
      </trkpt>
      <trkpt lat="47.81383" lon="-3.57655">
        <ele>53.400001525879</ele>
        <time>2019-08-15T11:02:52.000Z</time>
      </trkpt>
      <trkpt lat="47.81383" lon="-3.57649">
        <ele>53.200000762939</ele>
        <time>2019-08-15T11:02:53.000Z</time>
      </trkpt>
      <trkpt lat="47.81382" lon="-3.57643">
        <ele>53.200000762939</ele>
        <time>2019-08-15T11:02:54.000Z</time>
      </trkpt>
      <trkpt lat="47.81379" lon="-3.57635">
        <ele>53.599998474121</ele>
        <time>2019-08-15T11:02:56.000Z</time>
      </trkpt>
      <trkpt lat="47.81379" lon="-3.5763">
        <ele>53.599998474121</ele>
        <time>2019-08-15T11:02:57.000Z</time>
      </trkpt>
      <trkpt lat="47.81381" lon="-3.57616">
        <ele>53.799999237061</ele>
        <time>2019-08-15T11:02:59.000Z</time>
      </trkpt>
      <trkpt lat="47.81382" lon="-3.57597">
        <ele>53.599998474121</ele>
        <time>2019-08-15T11:03:02.000Z</time>
      </trkpt>
      <trkpt lat="47.81381" lon="-3.57592">
        <ele>53.599998474121</ele>
        <time>2019-08-15T11:03:03.000Z</time>
      </trkpt>
      <trkpt lat="47.81381" lon="-3.57587">
        <ele>53.599998474121</ele>
        <time>2019-08-15T11:03:04.000Z</time>
      </trkpt>
      <trkpt lat="47.81378" lon="-3.57572">
        <ele>53.799999237061</ele>
        <time>2019-08-15T11:03:07.000Z</time>
      </trkpt>
      <trkpt lat="47.81376" lon="-3.57565">
        <ele>53.599998474121</ele>
        <time>2019-08-15T11:03:08.000Z</time>
      </trkpt>
      <trkpt lat="47.81374" lon="-3.57561">
        <ele>53.799999237061</ele>
        <time>2019-08-15T11:03:09.000Z</time>
      </trkpt>
      <trkpt lat="47.81371" lon="-3.57557">
        <ele>53.599998474121</ele>
        <time>2019-08-15T11:03:10.000Z</time>
      </trkpt>
      <trkpt lat="47.81368" lon="-3.57552">
        <ele>53.599998474121</ele>
        <time>2019-08-15T11:03:11.000Z</time>
      </trkpt>
      <trkpt lat="47.81365" lon="-3.5754">
        <ele>53.599998474121</ele>
        <time>2019-08-15T11:03:13.000Z</time>
      </trkpt>
      <trkpt lat="47.81364" lon="-3.57533">
        <ele>53.599998474121</ele>
        <time>2019-08-15T11:03:14.000Z</time>
      </trkpt>
      <trkpt lat="47.81365" lon="-3.57526">
        <ele>53.599998474121</ele>
        <time>2019-08-15T11:03:15.000Z</time>
      </trkpt>
      <trkpt lat="47.81366" lon="-3.57519">
        <ele>53.599998474121</ele>
        <time>2019-08-15T11:03:16.000Z</time>
      </trkpt>
      <trkpt lat="47.81369" lon="-3.57505">
        <ele>53.599998474121</ele>
        <time>2019-08-15T11:03:18.000Z</time>
      </trkpt>
      <trkpt lat="47.8137" lon="-3.57496">
        <ele>53.400001525879</ele>
        <time>2019-08-15T11:03:19.000Z</time>
      </trkpt>
      <trkpt lat="47.81371" lon="-3.57488">
        <ele>53.599998474121</ele>
        <time>2019-08-15T11:03:20.000Z</time>
      </trkpt>
      <trkpt lat="47.81375" lon="-3.57471">
        <ele>52.799999237061</ele>
        <time>2019-08-15T11:03:22.000Z</time>
      </trkpt>
      <trkpt lat="47.81378" lon="-3.57461">
        <ele>52.599998474121</ele>
        <time>2019-08-15T11:03:23.000Z</time>
      </trkpt>
      <trkpt lat="47.81381" lon="-3.5743">
        <ele>52</ele>
        <time>2019-08-15T11:03:26.000Z</time>
      </trkpt>
      <trkpt lat="47.81382" lon="-3.5742">
        <ele>52.200000762939</ele>
        <time>2019-08-15T11:03:27.000Z</time>
      </trkpt>
      <trkpt lat="47.81384" lon="-3.5741">
        <ele>51.799999237061</ele>
        <time>2019-08-15T11:03:28.000Z</time>
      </trkpt>
      <trkpt lat="47.81385" lon="-3.57401">
        <ele>51.799999237061</ele>
        <time>2019-08-15T11:03:29.000Z</time>
      </trkpt>
      <trkpt lat="47.81389" lon="-3.57383">
        <ele>51.599998474121</ele>
        <time>2019-08-15T11:03:31.000Z</time>
      </trkpt>
      <trkpt lat="47.81396" lon="-3.57355">
        <ele>51.200000762939</ele>
        <time>2019-08-15T11:03:34.000Z</time>
      </trkpt>
      <trkpt lat="47.814" lon="-3.57338">
        <ele>50.599998474121</ele>
        <time>2019-08-15T11:03:36.000Z</time>
      </trkpt>
      <trkpt lat="47.81403" lon="-3.57331">
        <ele>50.400001525879</ele>
        <time>2019-08-15T11:03:37.000Z</time>
      </trkpt>
      <trkpt lat="47.81407" lon="-3.57325">
        <ele>50.599998474121</ele>
        <time>2019-08-15T11:03:38.000Z</time>
      </trkpt>
      <trkpt lat="47.81412" lon="-3.57319">
        <ele>50.400001525879</ele>
        <time>2019-08-15T11:03:39.000Z</time>
      </trkpt>
      <trkpt lat="47.81426" lon="-3.57302">
        <ele>50.400001525879</ele>
        <time>2019-08-15T11:03:42.000Z</time>
      </trkpt>
      <trkpt lat="47.81431" lon="-3.57298">
        <ele>50.200000762939</ele>
        <time>2019-08-15T11:03:43.000Z</time>
      </trkpt>
      <trkpt lat="47.81436" lon="-3.57293">
        <ele>50.400001525879</ele>
        <time>2019-08-15T11:03:44.000Z</time>
      </trkpt>
      <trkpt lat="47.81441" lon="-3.57288">
        <ele>50.200000762939</ele>
        <time>2019-08-15T11:03:45.000Z</time>
      </trkpt>
      <trkpt lat="47.81446" lon="-3.57283">
        <ele>50.400001525879</ele>
        <time>2019-08-15T11:03:46.000Z</time>
      </trkpt>
      <trkpt lat="47.81452" lon="-3.57277">
        <ele>50.599998474121</ele>
        <time>2019-08-15T11:03:47.000Z</time>
      </trkpt>
      <trkpt lat="47.81467" lon="-3.57264">
        <ele>50.799999237061</ele>
        <time>2019-08-15T11:03:50.000Z</time>
      </trkpt>
      <trkpt lat="47.81478" lon="-3.57253">
        <ele>50.599998474121</ele>
        <time>2019-08-15T11:03:52.000Z</time>
      </trkpt>
      <trkpt lat="47.81493" lon="-3.57238">
        <ele>50.400001525879</ele>
        <time>2019-08-15T11:03:55.000Z</time>
      </trkpt>
      <trkpt lat="47.81497" lon="-3.57234">
        <ele>50.200000762939</ele>
        <time>2019-08-15T11:03:56.000Z</time>
      </trkpt>
      <trkpt lat="47.81502" lon="-3.5723">
        <ele>50.200000762939</ele>
        <time>2019-08-15T11:03:57.000Z</time>
      </trkpt>
      <trkpt lat="47.81507" lon="-3.57226">
        <ele>50.200000762939</ele>
        <time>2019-08-15T11:03:58.000Z</time>
      </trkpt>
      <trkpt lat="47.81528" lon="-3.57212">
        <ele>49.599998474121</ele>
        <time>2019-08-15T11:04:02.000Z</time>
      </trkpt>
      <trkpt lat="47.81571" lon="-3.57186">
        <ele>49.200000762939</ele>
        <time>2019-08-15T11:04:10.000Z</time>
      </trkpt>
      <trkpt lat="47.8158" lon="-3.5718">
        <ele>49</ele>
        <time>2019-08-15T11:04:12.000Z</time>
      </trkpt>
      <trkpt lat="47.81584" lon="-3.57176">
        <ele>49.200000762939</ele>
        <time>2019-08-15T11:04:13.000Z</time>
      </trkpt>
      <trkpt lat="47.81593" lon="-3.57169">
        <ele>49.200000762939</ele>
        <time>2019-08-15T11:04:15.000Z</time>
      </trkpt>
      <trkpt lat="47.81596" lon="-3.57166">
        <ele>49.200000762939</ele>
        <time>2019-08-15T11:04:16.000Z</time>
      </trkpt>
      <trkpt lat="47.816" lon="-3.57162">
        <ele>49.200000762939</ele>
        <time>2019-08-15T11:04:17.000Z</time>
      </trkpt>
      <trkpt lat="47.81604" lon="-3.57159">
        <ele>49.200000762939</ele>
        <time>2019-08-15T11:04:18.000Z</time>
      </trkpt>
      <trkpt lat="47.81607" lon="-3.57156">
        <ele>49.400001525879</ele>
        <time>2019-08-15T11:04:19.000Z</time>
      </trkpt>
      <trkpt lat="47.81611" lon="-3.57153">
        <ele>49.400001525879</ele>
        <time>2019-08-15T11:04:20.000Z</time>
      </trkpt>
      <trkpt lat="47.81621" lon="-3.57146">
        <ele>49</ele>
        <time>2019-08-15T11:04:23.000Z</time>
      </trkpt>
      <trkpt lat="47.81627" lon="-3.57142">
        <ele>49</ele>
        <time>2019-08-15T11:04:25.000Z</time>
      </trkpt>
      <trkpt lat="47.81636" lon="-3.57136">
        <ele>48.799999237061</ele>
        <time>2019-08-15T11:04:27.000Z</time>
      </trkpt>
      <trkpt lat="47.81646" lon="-3.57129">
        <ele>48.400001525879</ele>
        <time>2019-08-15T11:04:29.000Z</time>
      </trkpt>
      <trkpt lat="47.81649" lon="-3.57127">
        <ele>48.400001525879</ele>
        <time>2019-08-15T11:04:30.000Z</time>
      </trkpt>
      <trkpt lat="47.81652" lon="-3.57125">
        <ele>48.400001525879</ele>
        <time>2019-08-15T11:04:31.000Z</time>
      </trkpt>
      <trkpt lat="47.81654" lon="-3.57123">
        <ele>48.200000762939</ele>
        <time>2019-08-15T11:04:32.000Z</time>
      </trkpt>
      <trkpt lat="47.81657" lon="-3.57121">
        <ele>48.200000762939</ele>
        <time>2019-08-15T11:04:33.000Z</time>
      </trkpt>
      <trkpt lat="47.8166" lon="-3.57118">
        <ele>48.200000762939</ele>
        <time>2019-08-15T11:04:34.000Z</time>
      </trkpt>
      <trkpt lat="47.81665" lon="-3.57114">
        <ele>47.799999237061</ele>
        <time>2019-08-15T11:04:35.000Z</time>
      </trkpt>
      <trkpt lat="47.81671" lon="-3.5711">
        <ele>47.400001525879</ele>
        <time>2019-08-15T11:04:37.000Z</time>
      </trkpt>
      <trkpt lat="47.81674" lon="-3.57108">
        <ele>47.200000762939</ele>
        <time>2019-08-15T11:04:38.000Z</time>
      </trkpt>
      <trkpt lat="47.81677" lon="-3.57106">
        <ele>47.200000762939</ele>
        <time>2019-08-15T11:04:39.000Z</time>
      </trkpt>
      <trkpt lat="47.81679" lon="-3.57105">
        <ele>47</ele>
        <time>2019-08-15T11:04:40.000Z</time>
      </trkpt>
      <trkpt lat="47.81684" lon="-3.57103">
        <ele>47</ele>
        <time>2019-08-15T11:04:41.000Z</time>
      </trkpt>
      <trkpt lat="47.81693" lon="-3.57099">
        <ele>46.599998474121</ele>
        <time>2019-08-15T11:04:43.000Z</time>
      </trkpt>
      <trkpt lat="47.81695" lon="-3.57099">
        <ele>46.200000762939</ele>
        <time>2019-08-15T11:04:44.000Z</time>
      </trkpt>
      <trkpt lat="47.81698" lon="-3.57098">
        <ele>46.200000762939</ele>
        <time>2019-08-15T11:04:45.000Z</time>
      </trkpt>
      <trkpt lat="47.81701" lon="-3.57093">
        <ele>45.799999237061</ele>
        <time>2019-08-15T11:04:47.000Z</time>
      </trkpt>
      <trkpt lat="47.81702" lon="-3.57088">
        <ele>45.799999237061</ele>
        <time>2019-08-15T11:04:48.000Z</time>
      </trkpt>
      <trkpt lat="47.81704" lon="-3.57083">
        <ele>45.400001525879</ele>
        <time>2019-08-15T11:04:49.000Z</time>
      </trkpt>
      <trkpt lat="47.81706" lon="-3.57079">
        <ele>45.400001525879</ele>
        <time>2019-08-15T11:04:50.000Z</time>
      </trkpt>
      <trkpt lat="47.81707" lon="-3.57075">
        <ele>45.200000762939</ele>
        <time>2019-08-15T11:04:51.000Z</time>
      </trkpt>
      <trkpt lat="47.81709" lon="-3.57069">
        <ele>45.400001525879</ele>
        <time>2019-08-15T11:04:52.000Z</time>
      </trkpt>
      <trkpt lat="47.81714" lon="-3.57064">
        <ele>45.200000762939</ele>
        <time>2019-08-15T11:04:53.000Z</time>
      </trkpt>
      <trkpt lat="47.81716" lon="-3.57058">
        <ele>45.200000762939</ele>
        <time>2019-08-15T11:04:54.000Z</time>
      </trkpt>
      <trkpt lat="47.8172" lon="-3.57054">
        <ele>45.200000762939</ele>
        <time>2019-08-15T11:04:55.000Z</time>
      </trkpt>
      <trkpt lat="47.81722" lon="-3.57048">
        <ele>45</ele>
        <time>2019-08-15T11:04:56.000Z</time>
      </trkpt>
      <trkpt lat="47.81726" lon="-3.57037">
        <ele>44.400001525879</ele>
        <time>2019-08-15T11:04:59.000Z</time>
      </trkpt>
      <trkpt lat="47.81727" lon="-3.57032">
        <ele>44</ele>
        <time>2019-08-15T11:05:00.000Z</time>
      </trkpt>
      <trkpt lat="47.81726" lon="-3.57023">
        <ele>43.799999237061</ele>
        <time>2019-08-15T11:05:02.000Z</time>
      </trkpt>
      <trkpt lat="47.81725" lon="-3.57018">
        <ele>43.799999237061</ele>
        <time>2019-08-15T11:05:03.000Z</time>
      </trkpt>
      <trkpt lat="47.81725" lon="-3.57016">
        <ele>43.599998474121</ele>
        <time>2019-08-15T11:05:04.000Z</time>
      </trkpt>
      <trkpt lat="47.81729" lon="-3.57007">
        <ele>43</ele>
        <time>2019-08-15T11:05:07.000Z</time>
      </trkpt>
      <trkpt lat="47.81729" lon="-3.57005">
        <ele>43.200000762939</ele>
        <time>2019-08-15T11:05:08.000Z</time>
      </trkpt>
      <trkpt lat="47.81732" lon="-3.57001">
        <ele>42.799999237061</ele>
        <time>2019-08-15T11:05:11.000Z</time>
      </trkpt>
      <trkpt lat="47.81733" lon="-3.56999">
        <ele>42.799999237061</ele>
        <time>2019-08-15T11:05:12.000Z</time>
      </trkpt>
      <trkpt lat="47.81735" lon="-3.56996">
        <ele>42.599998474121</ele>
        <time>2019-08-15T11:05:14.000Z</time>
      </trkpt>
      <trkpt lat="47.81738" lon="-3.56993">
        <ele>42.599998474121</ele>
        <time>2019-08-15T11:05:17.000Z</time>
      </trkpt>
      <trkpt lat="47.81741" lon="-3.56991">
        <ele>43</ele>
        <time>2019-08-15T11:05:19.000Z</time>
      </trkpt>
      <trkpt lat="47.81745" lon="-3.56988">
        <ele>43.400001525879</ele>
        <time>2019-08-15T11:05:22.000Z</time>
      </trkpt>
      <trkpt lat="47.81746" lon="-3.56986">
        <ele>43.599998474121</ele>
        <time>2019-08-15T11:05:23.000Z</time>
      </trkpt>
      <trkpt lat="47.81747" lon="-3.56985">
        <ele>43.599998474121</ele>
        <time>2019-08-15T11:05:24.000Z</time>
      </trkpt>
      <trkpt lat="47.81749" lon="-3.56983">
        <ele>43.799999237061</ele>
        <time>2019-08-15T11:05:25.000Z</time>
      </trkpt>
      <trkpt lat="47.81753" lon="-3.5698">
        <ele>44.400001525879</ele>
        <time>2019-08-15T11:05:27.000Z</time>
      </trkpt>
      <trkpt lat="47.81758" lon="-3.56975">
        <ele>44.799999237061</ele>
        <time>2019-08-15T11:05:30.000Z</time>
      </trkpt>
      <trkpt lat="47.81763" lon="-3.56972">
        <ele>45.200000762939</ele>
        <time>2019-08-15T11:05:32.000Z</time>
      </trkpt>
      <trkpt lat="47.81768" lon="-3.5697">
        <ele>45.400001525879</ele>
        <time>2019-08-15T11:05:36.000Z</time>
      </trkpt>
      <trkpt lat="47.81786" lon="-3.56967">
        <ele>46</ele>
        <time>2019-08-15T11:05:42.000Z</time>
      </trkpt>
      <trkpt lat="47.81791" lon="-3.56966">
        <ele>46.400001525879</ele>
        <time>2019-08-15T11:05:44.000Z</time>
      </trkpt>
      <trkpt lat="47.81799" lon="-3.56964">
        <ele>46.599998474121</ele>
        <time>2019-08-15T11:05:47.000Z</time>
      </trkpt>
      <trkpt lat="47.81802" lon="-3.56964">
        <ele>46.799999237061</ele>
        <time>2019-08-15T11:05:48.000Z</time>
      </trkpt>
      <trkpt lat="47.81806" lon="-3.56962">
        <ele>46.799999237061</ele>
        <time>2019-08-15T11:05:50.000Z</time>
      </trkpt>
      <trkpt lat="47.81813" lon="-3.56958">
        <ele>46.799999237061</ele>
        <time>2019-08-15T11:05:52.000Z</time>
      </trkpt>
      <trkpt lat="47.81815" lon="-3.56957">
        <ele>47</ele>
        <time>2019-08-15T11:05:53.000Z</time>
      </trkpt>
      <trkpt lat="47.81818" lon="-3.56953">
        <ele>47.400001525879</ele>
        <time>2019-08-15T11:05:55.000Z</time>
      </trkpt>
      <trkpt lat="47.8182" lon="-3.56952">
        <ele>47.400001525879</ele>
        <time>2019-08-15T11:05:56.000Z</time>
      </trkpt>
      <trkpt lat="47.81829" lon="-3.56936">
        <ele>47.799999237061</ele>
        <time>2019-08-15T11:06:02.000Z</time>
      </trkpt>
      <trkpt lat="47.81834" lon="-3.56926">
        <ele>48.200000762939</ele>
        <time>2019-08-15T11:06:05.000Z</time>
      </trkpt>
      <trkpt lat="47.81841" lon="-3.56916">
        <ele>48.599998474121</ele>
        <time>2019-08-15T11:06:08.000Z</time>
      </trkpt>
      <trkpt lat="47.81855" lon="-3.56904">
        <ele>49</ele>
        <time>2019-08-15T11:06:14.000Z</time>
      </trkpt>
      <trkpt lat="47.81857" lon="-3.56903">
        <ele>49</ele>
        <time>2019-08-15T11:06:15.000Z</time>
      </trkpt>
      <trkpt lat="47.8186" lon="-3.56901">
        <ele>49.200000762939</ele>
        <time>2019-08-15T11:06:16.000Z</time>
      </trkpt>
      <trkpt lat="47.8187" lon="-3.56896">
        <ele>49.400001525879</ele>
        <time>2019-08-15T11:06:19.000Z</time>
      </trkpt>
      <trkpt lat="47.81884" lon="-3.56889">
        <ele>50</ele>
        <time>2019-08-15T11:06:26.000Z</time>
      </trkpt>
      <trkpt lat="47.81897" lon="-3.56882">
        <ele>50.200000762939</ele>
        <time>2019-08-15T11:06:30.000Z</time>
      </trkpt>
      <trkpt lat="47.81912" lon="-3.56877">
        <ele>50.200000762939</ele>
        <time>2019-08-15T11:06:33.000Z</time>
      </trkpt>
      <trkpt lat="47.81916" lon="-3.56874">
        <ele>50</ele>
        <time>2019-08-15T11:06:34.000Z</time>
      </trkpt>
      <trkpt lat="47.81919" lon="-3.56873">
        <ele>50.200000762939</ele>
        <time>2019-08-15T11:06:35.000Z</time>
      </trkpt>
      <trkpt lat="47.81924" lon="-3.56872">
        <ele>50</ele>
        <time>2019-08-15T11:06:36.000Z</time>
      </trkpt>
      <trkpt lat="47.8193" lon="-3.56869">
        <ele>49.799999237061</ele>
        <time>2019-08-15T11:06:38.000Z</time>
      </trkpt>
      <trkpt lat="47.81932" lon="-3.56868">
        <ele>49.599998474121</ele>
        <time>2019-08-15T11:06:39.000Z</time>
      </trkpt>
      <trkpt lat="47.81943" lon="-3.56858">
        <ele>49.400001525879</ele>
        <time>2019-08-15T11:06:43.000Z</time>
      </trkpt>
      <trkpt lat="47.81944" lon="-3.56854">
        <ele>49.400001525879</ele>
        <time>2019-08-15T11:06:44.000Z</time>
      </trkpt>
      <trkpt lat="47.81945" lon="-3.56849">
        <ele>49.400001525879</ele>
        <time>2019-08-15T11:06:45.000Z</time>
      </trkpt>
      <trkpt lat="47.81946" lon="-3.56845">
        <ele>49.400001525879</ele>
        <time>2019-08-15T11:06:46.000Z</time>
      </trkpt>
      <trkpt lat="47.81947" lon="-3.5684">
        <ele>49.200000762939</ele>
        <time>2019-08-15T11:06:47.000Z</time>
      </trkpt>
      <trkpt lat="47.81948" lon="-3.56835">
        <ele>49.200000762939</ele>
        <time>2019-08-15T11:06:48.000Z</time>
      </trkpt>
      <trkpt lat="47.81948" lon="-3.56831">
        <ele>49.400001525879</ele>
        <time>2019-08-15T11:06:49.000Z</time>
      </trkpt>
      <trkpt lat="47.81948" lon="-3.56827">
        <ele>49.200000762939</ele>
        <time>2019-08-15T11:06:50.000Z</time>
      </trkpt>
      <trkpt lat="47.81949" lon="-3.5682">
        <ele>49.200000762939</ele>
        <time>2019-08-15T11:06:51.000Z</time>
      </trkpt>
      <trkpt lat="47.81949" lon="-3.56814">
        <ele>49.200000762939</ele>
        <time>2019-08-15T11:06:52.000Z</time>
      </trkpt>
      <trkpt lat="47.81949" lon="-3.56808">
        <ele>49</ele>
        <time>2019-08-15T11:06:53.000Z</time>
      </trkpt>
      <trkpt lat="47.81951" lon="-3.56794">
        <ele>48.400001525879</ele>
        <time>2019-08-15T11:06:55.000Z</time>
      </trkpt>
      <trkpt lat="47.81953" lon="-3.56781">
        <ele>48.200000762939</ele>
        <time>2019-08-15T11:06:57.000Z</time>
      </trkpt>
      <trkpt lat="47.81954" lon="-3.56762">
        <ele>48.200000762939</ele>
        <time>2019-08-15T11:07:00.000Z</time>
      </trkpt>
      <trkpt lat="47.81955" lon="-3.56757">
        <ele>48.200000762939</ele>
        <time>2019-08-15T11:07:01.000Z</time>
      </trkpt>
      <trkpt lat="47.81955" lon="-3.56754">
        <ele>47.799999237061</ele>
        <time>2019-08-15T11:07:02.000Z</time>
      </trkpt>
      <trkpt lat="47.81955" lon="-3.56752">
        <ele>47.799999237061</ele>
        <time>2019-08-15T11:07:03.000Z</time>
      </trkpt>
      <trkpt lat="47.81957" lon="-3.56743">
        <ele>46.400001525879</ele>
        <time>2019-08-15T11:07:07.000Z</time>
      </trkpt>
      <trkpt lat="47.81957" lon="-3.5674">
        <ele>46.200000762939</ele>
        <time>2019-08-15T11:07:08.000Z</time>
      </trkpt>
      <trkpt lat="47.81957" lon="-3.56738">
        <ele>45.799999237061</ele>
        <time>2019-08-15T11:07:09.000Z</time>
      </trkpt>
      <trkpt lat="47.81958" lon="-3.56735">
        <ele>45.799999237061</ele>
        <time>2019-08-15T11:07:10.000Z</time>
      </trkpt>
      <trkpt lat="47.81959" lon="-3.56725">
        <ele>45.400001525879</ele>
        <time>2019-08-15T11:07:14.000Z</time>
      </trkpt>
      <trkpt lat="47.8196" lon="-3.56722">
        <ele>45.200000762939</ele>
        <time>2019-08-15T11:07:15.000Z</time>
      </trkpt>
      <trkpt lat="47.8196" lon="-3.5672">
        <ele>45.200000762939</ele>
        <time>2019-08-15T11:07:16.000Z</time>
      </trkpt>
      <trkpt lat="47.81959" lon="-3.56714">
        <ele>45</ele>
        <time>2019-08-15T11:07:18.000Z</time>
      </trkpt>
      <trkpt lat="47.81959" lon="-3.5671">
        <ele>45</ele>
        <time>2019-08-15T11:07:20.000Z</time>
      </trkpt>
      <trkpt lat="47.8196" lon="-3.56696">
        <ele>44.599998474121</ele>
        <time>2019-08-15T11:07:25.000Z</time>
      </trkpt>
      <trkpt lat="47.81959" lon="-3.56693">
        <ele>44.599998474121</ele>
        <time>2019-08-15T11:07:27.000Z</time>
      </trkpt>
      <trkpt lat="47.81959" lon="-3.5669">
        <ele>44.799999237061</ele>
        <time>2019-08-15T11:07:28.000Z</time>
      </trkpt>
      <trkpt lat="47.81954" lon="-3.56683">
        <ele>44.599998474121</ele>
        <time>2019-08-15T11:07:32.000Z</time>
      </trkpt>
      <trkpt lat="47.81953" lon="-3.5668">
        <ele>44.400001525879</ele>
        <time>2019-08-15T11:07:33.000Z</time>
      </trkpt>
      <trkpt lat="47.8195" lon="-3.56672">
        <ele>44.200000762939</ele>
        <time>2019-08-15T11:07:37.000Z</time>
      </trkpt>
      <trkpt lat="47.81948" lon="-3.5667">
        <ele>44</ele>
        <time>2019-08-15T11:07:39.000Z</time>
      </trkpt>
      <trkpt lat="47.81946" lon="-3.56665">
        <ele>44.200000762939</ele>
        <time>2019-08-15T11:07:41.000Z</time>
      </trkpt>
      <trkpt lat="47.81942" lon="-3.56661">
        <ele>44.200000762939</ele>
        <time>2019-08-15T11:07:43.000Z</time>
      </trkpt>
      <trkpt lat="47.81942" lon="-3.56659">
        <ele>44.200000762939</ele>
        <time>2019-08-15T11:07:44.000Z</time>
      </trkpt>
      <trkpt lat="47.8194" lon="-3.56653">
        <ele>44</ele>
        <time>2019-08-15T11:07:46.000Z</time>
      </trkpt>
      <trkpt lat="47.81939" lon="-3.5665">
        <ele>44.200000762939</ele>
        <time>2019-08-15T11:07:47.000Z</time>
      </trkpt>
      <trkpt lat="47.81939" lon="-3.56627">
        <ele>44.200000762939</ele>
        <time>2019-08-15T11:07:53.000Z</time>
      </trkpt>
      <trkpt lat="47.81941" lon="-3.56615">
        <ele>44.400001525879</ele>
        <time>2019-08-15T11:07:56.000Z</time>
      </trkpt>
      <trkpt lat="47.81942" lon="-3.5661">
        <ele>44.400001525879</ele>
        <time>2019-08-15T11:07:57.000Z</time>
      </trkpt>
      <trkpt lat="47.81942" lon="-3.56605">
        <ele>44.400001525879</ele>
        <time>2019-08-15T11:07:58.000Z</time>
      </trkpt>
      <trkpt lat="47.81945" lon="-3.56581">
        <ele>45</ele>
        <time>2019-08-15T11:08:04.000Z</time>
      </trkpt>
      <trkpt lat="47.81948" lon="-3.56568">
        <ele>45.400001525879</ele>
        <time>2019-08-15T11:08:07.000Z</time>
      </trkpt>
      <trkpt lat="47.8195" lon="-3.56559">
        <ele>45.599998474121</ele>
        <time>2019-08-15T11:08:09.000Z</time>
      </trkpt>
      <trkpt lat="47.81951" lon="-3.56555">
        <ele>45.599998474121</ele>
        <time>2019-08-15T11:08:10.000Z</time>
      </trkpt>
      <trkpt lat="47.81953" lon="-3.56547">
        <ele>45.599998474121</ele>
        <time>2019-08-15T11:08:12.000Z</time>
      </trkpt>
      <trkpt lat="47.81954" lon="-3.56544">
        <ele>45.799999237061</ele>
        <time>2019-08-15T11:08:13.000Z</time>
      </trkpt>
      <trkpt lat="47.81962" lon="-3.56515">
        <ele>47</ele>
        <time>2019-08-15T11:08:21.000Z</time>
      </trkpt>
      <trkpt lat="47.81964" lon="-3.56511">
        <ele>47</ele>
        <time>2019-08-15T11:08:22.000Z</time>
      </trkpt>
      <trkpt lat="47.81964" lon="-3.56508">
        <ele>47</ele>
        <time>2019-08-15T11:08:23.000Z</time>
      </trkpt>
      <trkpt lat="47.81966" lon="-3.56504">
        <ele>47</ele>
        <time>2019-08-15T11:08:24.000Z</time>
      </trkpt>
      <trkpt lat="47.81968" lon="-3.56496">
        <ele>47.400001525879</ele>
        <time>2019-08-15T11:08:26.000Z</time>
      </trkpt>
      <trkpt lat="47.81976" lon="-3.56477">
        <ele>48</ele>
        <time>2019-08-15T11:08:32.000Z</time>
      </trkpt>
      <trkpt lat="47.81983" lon="-3.56456">
        <ele>48.200000762939</ele>
        <time>2019-08-15T11:08:38.000Z</time>
      </trkpt>
      <trkpt lat="47.81986" lon="-3.56448">
        <ele>48.200000762939</ele>
        <time>2019-08-15T11:08:40.000Z</time>
      </trkpt>
      <trkpt lat="47.81987" lon="-3.56444">
        <ele>48.400001525879</ele>
        <time>2019-08-15T11:08:41.000Z</time>
      </trkpt>
      <trkpt lat="47.81993" lon="-3.5643">
        <ele>48.799999237061</ele>
        <time>2019-08-15T11:08:45.000Z</time>
      </trkpt>
      <trkpt lat="47.81995" lon="-3.56422">
        <ele>48.799999237061</ele>
        <time>2019-08-15T11:08:47.000Z</time>
      </trkpt>
      <trkpt lat="47.81997" lon="-3.56416">
        <ele>49.200000762939</ele>
        <time>2019-08-15T11:08:49.000Z</time>
      </trkpt>
      <trkpt lat="47.82001" lon="-3.56407">
        <ele>49.599998474121</ele>
        <time>2019-08-15T11:08:52.000Z</time>
      </trkpt>
      <trkpt lat="47.82005" lon="-3.56401">
        <ele>49.599998474121</ele>
        <time>2019-08-15T11:08:54.000Z</time>
      </trkpt>
      <trkpt lat="47.82008" lon="-3.56394">
        <ele>49.599998474121</ele>
        <time>2019-08-15T11:08:56.000Z</time>
      </trkpt>
      <trkpt lat="47.8201" lon="-3.56392">
        <ele>49.599998474121</ele>
        <time>2019-08-15T11:08:57.000Z</time>
      </trkpt>
      <trkpt lat="47.82022" lon="-3.56373">
        <ele>50.400001525879</ele>
        <time>2019-08-15T11:09:03.000Z</time>
      </trkpt>
      <trkpt lat="47.82029" lon="-3.56341">
        <ele>50.599998474121</ele>
        <time>2019-08-15T11:09:10.000Z</time>
      </trkpt>
      <trkpt lat="47.82032" lon="-3.56326">
        <ele>51</ele>
        <time>2019-08-15T11:09:13.000Z</time>
      </trkpt>
      <trkpt lat="47.82032" lon="-3.56322">
        <ele>51</ele>
        <time>2019-08-15T11:09:14.000Z</time>
      </trkpt>
      <trkpt lat="47.82031" lon="-3.56285">
        <ele>51</ele>
        <time>2019-08-15T11:09:21.000Z</time>
      </trkpt>
      <trkpt lat="47.82029" lon="-3.56269">
        <ele>51</ele>
        <time>2019-08-15T11:09:25.000Z</time>
      </trkpt>
      <trkpt lat="47.82027" lon="-3.56263">
        <ele>51</ele>
        <time>2019-08-15T11:09:27.000Z</time>
      </trkpt>
      <trkpt lat="47.82028" lon="-3.56257">
        <ele>50.799999237061</ele>
        <time>2019-08-15T11:09:29.000Z</time>
      </trkpt>
      <trkpt lat="47.82029" lon="-3.56248">
        <ele>50.799999237061</ele>
        <time>2019-08-15T11:09:31.000Z</time>
      </trkpt>
      <trkpt lat="47.8203" lon="-3.56239">
        <ele>50.799999237061</ele>
        <time>2019-08-15T11:09:33.000Z</time>
      </trkpt>
      <trkpt lat="47.82037" lon="-3.56208">
        <ele>50.799999237061</ele>
        <time>2019-08-15T11:09:40.000Z</time>
      </trkpt>
      <trkpt lat="47.82039" lon="-3.56191">
        <ele>51</ele>
        <time>2019-08-15T11:09:44.000Z</time>
      </trkpt>
      <trkpt lat="47.82041" lon="-3.56185">
        <ele>51</ele>
        <time>2019-08-15T11:09:45.000Z</time>
      </trkpt>
      <trkpt lat="47.82043" lon="-3.5618">
        <ele>51.200000762939</ele>
        <time>2019-08-15T11:09:46.000Z</time>
      </trkpt>
      <trkpt lat="47.82045" lon="-3.56175">
        <ele>51.200000762939</ele>
        <time>2019-08-15T11:09:47.000Z</time>
      </trkpt>
      <trkpt lat="47.82047" lon="-3.56169">
        <ele>51.200000762939</ele>
        <time>2019-08-15T11:09:48.000Z</time>
      </trkpt>
      <trkpt lat="47.82051" lon="-3.56158">
        <ele>51.200000762939</ele>
        <time>2019-08-15T11:09:50.000Z</time>
      </trkpt>
      <trkpt lat="47.82053" lon="-3.56151">
        <ele>51.400001525879</ele>
        <time>2019-08-15T11:09:51.000Z</time>
      </trkpt>
      <trkpt lat="47.82055" lon="-3.56146">
        <ele>51.200000762939</ele>
        <time>2019-08-15T11:09:52.000Z</time>
      </trkpt>
      <trkpt lat="47.82056" lon="-3.56141">
        <ele>51.200000762939</ele>
        <time>2019-08-15T11:09:53.000Z</time>
      </trkpt>
      <trkpt lat="47.82058" lon="-3.56136">
        <ele>51.200000762939</ele>
        <time>2019-08-15T11:09:54.000Z</time>
      </trkpt>
      <trkpt lat="47.82058" lon="-3.56131">
        <ele>51</ele>
        <time>2019-08-15T11:09:55.000Z</time>
      </trkpt>
      <trkpt lat="47.82058" lon="-3.56126">
        <ele>51</ele>
        <time>2019-08-15T11:09:56.000Z</time>
      </trkpt>
      <trkpt lat="47.82058" lon="-3.56119">
        <ele>50.799999237061</ele>
        <time>2019-08-15T11:09:57.000Z</time>
      </trkpt>
      <trkpt lat="47.82058" lon="-3.56114">
        <ele>50.799999237061</ele>
        <time>2019-08-15T11:09:58.000Z</time>
      </trkpt>
      <trkpt lat="47.82056" lon="-3.56099">
        <ele>50.400001525879</ele>
        <time>2019-08-15T11:10:00.000Z</time>
      </trkpt>
      <trkpt lat="47.82055" lon="-3.56093">
        <ele>50.400001525879</ele>
        <time>2019-08-15T11:10:01.000Z</time>
      </trkpt>
      <trkpt lat="47.82054" lon="-3.56088">
        <ele>50.400001525879</ele>
        <time>2019-08-15T11:10:02.000Z</time>
      </trkpt>
      <trkpt lat="47.82054" lon="-3.56082">
        <ele>50.200000762939</ele>
        <time>2019-08-15T11:10:03.000Z</time>
      </trkpt>
      <trkpt lat="47.82053" lon="-3.56078">
        <ele>50.200000762939</ele>
        <time>2019-08-15T11:10:04.000Z</time>
      </trkpt>
      <trkpt lat="47.82052" lon="-3.56073">
        <ele>50.200000762939</ele>
        <time>2019-08-15T11:10:05.000Z</time>
      </trkpt>
      <trkpt lat="47.82053" lon="-3.56069">
        <ele>50</ele>
        <time>2019-08-15T11:10:06.000Z</time>
      </trkpt>
      <trkpt lat="47.82052" lon="-3.56066">
        <ele>50</ele>
        <time>2019-08-15T11:10:07.000Z</time>
      </trkpt>
      <trkpt lat="47.82052" lon="-3.5606">
        <ele>49.599998474121</ele>
        <time>2019-08-15T11:10:08.000Z</time>
      </trkpt>
      <trkpt lat="47.82051" lon="-3.56054">
        <ele>49.400001525879</ele>
        <time>2019-08-15T11:10:09.000Z</time>
      </trkpt>
      <trkpt lat="47.82051" lon="-3.56048">
        <ele>49.400001525879</ele>
        <time>2019-08-15T11:10:10.000Z</time>
      </trkpt>
      <trkpt lat="47.8205" lon="-3.56043">
        <ele>49.200000762939</ele>
        <time>2019-08-15T11:10:11.000Z</time>
      </trkpt>
      <trkpt lat="47.8205" lon="-3.56038">
        <ele>49</ele>
        <time>2019-08-15T11:10:12.000Z</time>
      </trkpt>
      <trkpt lat="47.82049" lon="-3.56021">
        <ele>48.799999237061</ele>
        <time>2019-08-15T11:10:15.000Z</time>
      </trkpt>
      <trkpt lat="47.82046" lon="-3.56016">
        <ele>48.799999237061</ele>
        <time>2019-08-15T11:10:16.000Z</time>
      </trkpt>
      <trkpt lat="47.82042" lon="-3.56004">
        <ele>48.599998474121</ele>
        <time>2019-08-15T11:10:18.000Z</time>
      </trkpt>
      <trkpt lat="47.82037" lon="-3.55988">
        <ele>48.599998474121</ele>
        <time>2019-08-15T11:10:20.000Z</time>
      </trkpt>
      <trkpt lat="47.82035" lon="-3.55981">
        <ele>48.400001525879</ele>
        <time>2019-08-15T11:10:21.000Z</time>
      </trkpt>
      <trkpt lat="47.82032" lon="-3.55973">
        <ele>48.200000762939</ele>
        <time>2019-08-15T11:10:22.000Z</time>
      </trkpt>
      <trkpt lat="47.82031" lon="-3.55967">
        <ele>48.200000762939</ele>
        <time>2019-08-15T11:10:23.000Z</time>
      </trkpt>
      <trkpt lat="47.82029" lon="-3.55961">
        <ele>48</ele>
        <time>2019-08-15T11:10:24.000Z</time>
      </trkpt>
      <trkpt lat="47.82027" lon="-3.55954">
        <ele>48</ele>
        <time>2019-08-15T11:10:25.000Z</time>
      </trkpt>
      <trkpt lat="47.82024" lon="-3.55946">
        <ele>48</ele>
        <time>2019-08-15T11:10:26.000Z</time>
      </trkpt>
      <trkpt lat="47.82022" lon="-3.55939">
        <ele>47.799999237061</ele>
        <time>2019-08-15T11:10:27.000Z</time>
      </trkpt>
      <trkpt lat="47.8202" lon="-3.5593">
        <ele>47.799999237061</ele>
        <time>2019-08-15T11:10:28.000Z</time>
      </trkpt>
      <trkpt lat="47.82016" lon="-3.55914">
        <ele>47.599998474121</ele>
        <time>2019-08-15T11:10:30.000Z</time>
      </trkpt>
      <trkpt lat="47.82014" lon="-3.55902">
        <ele>47.599998474121</ele>
        <time>2019-08-15T11:10:31.000Z</time>
      </trkpt>
      <trkpt lat="47.82013" lon="-3.55894">
        <ele>47.400001525879</ele>
        <time>2019-08-15T11:10:32.000Z</time>
      </trkpt>
      <trkpt lat="47.82012" lon="-3.5588">
        <ele>47.599998474121</ele>
        <time>2019-08-15T11:10:34.000Z</time>
      </trkpt>
      <trkpt lat="47.82009" lon="-3.55872">
        <ele>47.400001525879</ele>
        <time>2019-08-15T11:10:36.000Z</time>
      </trkpt>
      <trkpt lat="47.82006" lon="-3.55865">
        <ele>47.599998474121</ele>
        <time>2019-08-15T11:10:37.000Z</time>
      </trkpt>
      <trkpt lat="47.82004" lon="-3.55859">
        <ele>47.400001525879</ele>
        <time>2019-08-15T11:10:38.000Z</time>
      </trkpt>
      <trkpt lat="47.82002" lon="-3.55853">
        <ele>47.599998474121</ele>
        <time>2019-08-15T11:10:39.000Z</time>
      </trkpt>
      <trkpt lat="47.81999" lon="-3.55845">
        <ele>47.599998474121</ele>
        <time>2019-08-15T11:10:40.000Z</time>
      </trkpt>
      <trkpt lat="47.81999" lon="-3.55831">
        <ele>47.799999237061</ele>
        <time>2019-08-15T11:10:42.000Z</time>
      </trkpt>
      <trkpt lat="47.81997" lon="-3.55812">
        <ele>48.400001525879</ele>
        <time>2019-08-15T11:10:45.000Z</time>
      </trkpt>
      <trkpt lat="47.81998" lon="-3.55808">
        <ele>48.400001525879</ele>
        <time>2019-08-15T11:10:46.000Z</time>
      </trkpt>
      <trkpt lat="47.81999" lon="-3.55804">
        <ele>48.599998474121</ele>
        <time>2019-08-15T11:10:47.000Z</time>
      </trkpt>
      <trkpt lat="47.82" lon="-3.55798">
        <ele>48.799999237061</ele>
        <time>2019-08-15T11:10:49.000Z</time>
      </trkpt>
      <trkpt lat="47.82001" lon="-3.55794">
        <ele>48.799999237061</ele>
        <time>2019-08-15T11:10:50.000Z</time>
      </trkpt>
      <trkpt lat="47.82003" lon="-3.55788">
        <ele>48.799999237061</ele>
        <time>2019-08-15T11:10:55.000Z</time>
      </trkpt>
      <trkpt lat="47.82" lon="-3.55786">
        <ele>48.799999237061</ele>
        <time>2019-08-15T11:11:02.000Z</time>
      </trkpt>
      <trkpt lat="47.82" lon="-3.55786">
        <ele>49</ele>
        <time>2019-08-15T11:11:09.000Z</time>
      </trkpt>
      <trkpt lat="47.81999" lon="-3.55778">
        <ele>49</ele>
        <time>2019-08-15T11:11:11.000Z</time>
      </trkpt>
      <trkpt lat="47.81985" lon="-3.55755">
        <ele>48.799999237061</ele>
        <time>2019-08-15T11:11:16.000Z</time>
      </trkpt>
      <trkpt lat="47.81981" lon="-3.55745">
        <ele>48.799999237061</ele>
        <time>2019-08-15T11:11:18.000Z</time>
      </trkpt>
      <trkpt lat="47.81979" lon="-3.55738">
        <ele>48.799999237061</ele>
        <time>2019-08-15T11:11:19.000Z</time>
      </trkpt>
      <trkpt lat="47.81972" lon="-3.55719">
        <ele>48.599998474121</ele>
        <time>2019-08-15T11:11:23.000Z</time>
      </trkpt>
      <trkpt lat="47.81966" lon="-3.55705">
        <ele>48.400001525879</ele>
        <time>2019-08-15T11:11:26.000Z</time>
      </trkpt>
      <trkpt lat="47.81959" lon="-3.55694">
        <ele>48.200000762939</ele>
        <time>2019-08-15T11:11:28.000Z</time>
      </trkpt>
      <trkpt lat="47.81957" lon="-3.55689">
        <ele>48.200000762939</ele>
        <time>2019-08-15T11:11:29.000Z</time>
      </trkpt>
      <trkpt lat="47.81951" lon="-3.55677">
        <ele>47.799999237061</ele>
        <time>2019-08-15T11:11:31.000Z</time>
      </trkpt>
      <trkpt lat="47.81949" lon="-3.5567">
        <ele>47.400001525879</ele>
        <time>2019-08-15T11:11:32.000Z</time>
      </trkpt>
      <trkpt lat="47.81946" lon="-3.55663">
        <ele>47.200000762939</ele>
        <time>2019-08-15T11:11:33.000Z</time>
      </trkpt>
      <trkpt lat="47.8194" lon="-3.55652">
        <ele>47</ele>
        <time>2019-08-15T11:11:35.000Z</time>
      </trkpt>
      <trkpt lat="47.81938" lon="-3.55645">
        <ele>46.599998474121</ele>
        <time>2019-08-15T11:11:36.000Z</time>
      </trkpt>
      <trkpt lat="47.8193" lon="-3.55628">
        <ele>46.200000762939</ele>
        <time>2019-08-15T11:11:39.000Z</time>
      </trkpt>
      <trkpt lat="47.81927" lon="-3.55623">
        <ele>46</ele>
        <time>2019-08-15T11:11:40.000Z</time>
      </trkpt>
      <trkpt lat="47.81921" lon="-3.55612">
        <ele>45.400001525879</ele>
        <time>2019-08-15T11:11:42.000Z</time>
      </trkpt>
      <trkpt lat="47.81911" lon="-3.5559">
        <ele>44.400001525879</ele>
        <time>2019-08-15T11:11:46.000Z</time>
      </trkpt>
      <trkpt lat="47.81909" lon="-3.55586">
        <ele>43.799999237061</ele>
        <time>2019-08-15T11:11:47.000Z</time>
      </trkpt>
      <trkpt lat="47.81908" lon="-3.55581">
        <ele>43.599998474121</ele>
        <time>2019-08-15T11:11:48.000Z</time>
      </trkpt>
      <trkpt lat="47.81905" lon="-3.55573">
        <ele>43</ele>
        <time>2019-08-15T11:11:50.000Z</time>
      </trkpt>
      <trkpt lat="47.81902" lon="-3.55568">
        <ele>41.799999237061</ele>
        <time>2019-08-15T11:11:52.000Z</time>
      </trkpt>
      <trkpt lat="47.81901" lon="-3.55566">
        <ele>41.400001525879</ele>
        <time>2019-08-15T11:11:53.000Z</time>
      </trkpt>
      <trkpt lat="47.81895" lon="-3.5556">
        <ele>40</ele>
        <time>2019-08-15T11:11:57.000Z</time>
      </trkpt>
      <trkpt lat="47.81894" lon="-3.55558">
        <ele>39.200000762939</ele>
        <time>2019-08-15T11:11:58.000Z</time>
      </trkpt>
      <trkpt lat="47.81894" lon="-3.55558">
        <ele>38</ele>
        <time>2019-08-15T11:12:01.000Z</time>
      </trkpt>
      <trkpt lat="47.81894" lon="-3.55557">
        <ele>36.799999237061</ele>
        <time>2019-08-15T11:12:09.000Z</time>
      </trkpt>
      <trkpt lat="47.81894" lon="-3.55556">
        <ele>35.799999237061</ele>
        <time>2019-08-15T11:12:17.000Z</time>
      </trkpt>
      <trkpt lat="47.81894" lon="-3.55556">
        <ele>35.400001525879</ele>
        <time>2019-08-15T11:12:19.000Z</time>
      </trkpt>
      <trkpt lat="47.81893" lon="-3.55553">
        <ele>34.200000762939</ele>
        <time>2019-08-15T11:12:26.000Z</time>
      </trkpt>
      <trkpt lat="47.81893" lon="-3.55553">
        <ele>33.599998474121</ele>
        <time>2019-08-15T11:12:33.000Z</time>
      </trkpt>
      <trkpt lat="47.81893" lon="-3.55552">
        <ele>33.400001525879</ele>
        <time>2019-08-15T11:12:34.000Z</time>
      </trkpt>
      <trkpt lat="47.81892" lon="-3.55544">
        <ele>32.400001525879</ele>
        <time>2019-08-15T11:12:37.000Z</time>
      </trkpt>
      <trkpt lat="47.8189" lon="-3.55541">
        <ele>32.400001525879</ele>
        <time>2019-08-15T11:12:38.000Z</time>
      </trkpt>
      <trkpt lat="47.81888" lon="-3.55537">
        <ele>31.60000038147</ele>
        <time>2019-08-15T11:12:42.000Z</time>
      </trkpt>
      <trkpt lat="47.81887" lon="-3.55533">
        <ele>31.200000762939</ele>
        <time>2019-08-15T11:12:44.000Z</time>
      </trkpt>
      <trkpt lat="47.81887" lon="-3.55531">
        <ele>30.60000038147</ele>
        <time>2019-08-15T11:12:47.000Z</time>
      </trkpt>
      <trkpt lat="47.81886" lon="-3.55525">
        <ele>30.39999961853</ele>
        <time>2019-08-15T11:12:49.000Z</time>
      </trkpt>
      <trkpt lat="47.81882" lon="-3.5552">
        <ele>30.200000762939</ele>
        <time>2019-08-15T11:12:51.000Z</time>
      </trkpt>
      <trkpt lat="47.81878" lon="-3.55515">
        <ele>29.799999237061</ele>
        <time>2019-08-15T11:12:53.000Z</time>
      </trkpt>
      <trkpt lat="47.81874" lon="-3.55509">
        <ele>28.799999237061</ele>
        <time>2019-08-15T11:12:57.000Z</time>
      </trkpt>
      <trkpt lat="47.81874" lon="-3.55507">
        <ele>28.799999237061</ele>
        <time>2019-08-15T11:12:58.000Z</time>
      </trkpt>
      <trkpt lat="47.81874" lon="-3.55507">
        <ele>28.39999961853</ele>
        <time>2019-08-15T11:13:01.000Z</time>
      </trkpt>
      <trkpt lat="47.81874" lon="-3.55505">
        <ele>28.200000762939</ele>
        <time>2019-08-15T11:13:04.000Z</time>
      </trkpt>
      <trkpt lat="47.81874" lon="-3.55503">
        <ele>28</ele>
        <time>2019-08-15T11:13:05.000Z</time>
      </trkpt>
      <trkpt lat="47.81871" lon="-3.55498">
        <ele>28</ele>
        <time>2019-08-15T11:13:07.000Z</time>
      </trkpt>
      <trkpt lat="47.81868" lon="-3.55494">
        <ele>28</ele>
        <time>2019-08-15T11:13:09.000Z</time>
      </trkpt>
      <trkpt lat="47.81868" lon="-3.55491">
        <ele>27.799999237061</ele>
        <time>2019-08-15T11:13:10.000Z</time>
      </trkpt>
      <trkpt lat="47.81866" lon="-3.55484">
        <ele>28</ele>
        <time>2019-08-15T11:13:12.000Z</time>
      </trkpt>
      <trkpt lat="47.81865" lon="-3.55473">
        <ele>27.799999237061</ele>
        <time>2019-08-15T11:13:15.000Z</time>
      </trkpt>
      <trkpt lat="47.81868" lon="-3.55464">
        <ele>27.799999237061</ele>
        <time>2019-08-15T11:13:17.000Z</time>
      </trkpt>
      <trkpt lat="47.81869" lon="-3.55459">
        <ele>27.60000038147</ele>
        <time>2019-08-15T11:13:18.000Z</time>
      </trkpt>
      <trkpt lat="47.81872" lon="-3.5545">
        <ele>27.60000038147</ele>
        <time>2019-08-15T11:13:20.000Z</time>
      </trkpt>
      <trkpt lat="47.81873" lon="-3.55446">
        <ele>27.60000038147</ele>
        <time>2019-08-15T11:13:21.000Z</time>
      </trkpt>
      <trkpt lat="47.81874" lon="-3.55433">
        <ele>27.39999961853</ele>
        <time>2019-08-15T11:13:24.000Z</time>
      </trkpt>
      <trkpt lat="47.81873" lon="-3.55429">
        <ele>27</ele>
        <time>2019-08-15T11:13:25.000Z</time>
      </trkpt>
      <trkpt lat="47.81872" lon="-3.55422">
        <ele>26.799999237061</ele>
        <time>2019-08-15T11:13:27.000Z</time>
      </trkpt>
      <trkpt lat="47.81873" lon="-3.55419">
        <ele>26.39999961853</ele>
        <time>2019-08-15T11:13:28.000Z</time>
      </trkpt>
      <trkpt lat="47.81871" lon="-3.5541">
        <ele>26</ele>
        <time>2019-08-15T11:13:33.000Z</time>
      </trkpt>
      <trkpt lat="47.8187" lon="-3.5541">
        <ele>26.200000762939</ele>
        <time>2019-08-15T11:13:34.000Z</time>
      </trkpt>
      <trkpt lat="47.81866" lon="-3.55411">
        <ele>26.200000762939</ele>
        <time>2019-08-15T11:13:37.000Z</time>
      </trkpt>
      <trkpt lat="47.81864" lon="-3.5541">
        <ele>26.200000762939</ele>
        <time>2019-08-15T11:13:38.000Z</time>
      </trkpt>
      <trkpt lat="47.8186" lon="-3.55408">
        <ele>26.200000762939</ele>
        <time>2019-08-15T11:13:40.000Z</time>
      </trkpt>
      <trkpt lat="47.81858" lon="-3.55406">
        <ele>26.200000762939</ele>
        <time>2019-08-15T11:13:41.000Z</time>
      </trkpt>
      <trkpt lat="47.8184" lon="-3.55394">
        <ele>26.60000038147</ele>
        <time>2019-08-15T11:13:46.000Z</time>
      </trkpt>
      <trkpt lat="47.81838" lon="-3.55391">
        <ele>26.60000038147</ele>
        <time>2019-08-15T11:13:47.000Z</time>
      </trkpt>
      <trkpt lat="47.81835" lon="-3.55384">
        <ele>27</ele>
        <time>2019-08-15T11:13:49.000Z</time>
      </trkpt>
      <trkpt lat="47.81833" lon="-3.55374">
        <ele>27</ele>
        <time>2019-08-15T11:13:51.000Z</time>
      </trkpt>
      <trkpt lat="47.81832" lon="-3.55358">
        <ele>27.200000762939</ele>
        <time>2019-08-15T11:13:54.000Z</time>
      </trkpt>
      <trkpt lat="47.81834" lon="-3.55344">
        <ele>27.60000038147</ele>
        <time>2019-08-15T11:13:57.000Z</time>
      </trkpt>
      <trkpt lat="47.81835" lon="-3.55325">
        <ele>28.799999237061</ele>
        <time>2019-08-15T11:14:01.000Z</time>
      </trkpt>
      <trkpt lat="47.81836" lon="-3.55311">
        <ele>29.39999961853</ele>
        <time>2019-08-15T11:14:04.000Z</time>
      </trkpt>
      <trkpt lat="47.81839" lon="-3.55283">
        <ele>30.60000038147</ele>
        <time>2019-08-15T11:14:10.000Z</time>
      </trkpt>
      <trkpt lat="47.81839" lon="-3.55279">
        <ele>31</ele>
        <time>2019-08-15T11:14:11.000Z</time>
      </trkpt>
      <trkpt lat="47.81842" lon="-3.55252">
        <ele>31.60000038147</ele>
        <time>2019-08-15T11:14:17.000Z</time>
      </trkpt>
      <trkpt lat="47.81842" lon="-3.55247">
        <ele>32</ele>
        <time>2019-08-15T11:14:18.000Z</time>
      </trkpt>
      <trkpt lat="47.81836" lon="-3.55227">
        <ele>32.799999237061</ele>
        <time>2019-08-15T11:14:23.000Z</time>
      </trkpt>
      <trkpt lat="47.81834" lon="-3.55224">
        <ele>33</ele>
        <time>2019-08-15T11:14:24.000Z</time>
      </trkpt>
      <trkpt lat="47.81826" lon="-3.55219">
        <ele>33.799999237061</ele>
        <time>2019-08-15T11:14:27.000Z</time>
      </trkpt>
      <trkpt lat="47.81813" lon="-3.55207">
        <ele>34.799999237061</ele>
        <time>2019-08-15T11:14:33.000Z</time>
      </trkpt>
      <trkpt lat="47.81811" lon="-3.55205">
        <ele>35.200000762939</ele>
        <time>2019-08-15T11:14:34.000Z</time>
      </trkpt>
      <trkpt lat="47.81798" lon="-3.55193">
        <ele>36.200000762939</ele>
        <time>2019-08-15T11:14:39.000Z</time>
      </trkpt>
      <trkpt lat="47.81781" lon="-3.55176">
        <ele>37.799999237061</ele>
        <time>2019-08-15T11:14:46.000Z</time>
      </trkpt>
      <trkpt lat="47.8177" lon="-3.55167">
        <ele>38.400001525879</ele>
        <time>2019-08-15T11:14:50.000Z</time>
      </trkpt>
      <trkpt lat="47.81767" lon="-3.55164">
        <ele>38.799999237061</ele>
        <time>2019-08-15T11:14:51.000Z</time>
      </trkpt>
      <trkpt lat="47.81755" lon="-3.55145">
        <ele>40</ele>
        <time>2019-08-15T11:14:57.000Z</time>
      </trkpt>
      <trkpt lat="47.81737" lon="-3.55114">
        <ele>40.599998474121</ele>
        <time>2019-08-15T11:15:06.000Z</time>
      </trkpt>
      <trkpt lat="47.81735" lon="-3.5511">
        <ele>40.799999237061</ele>
        <time>2019-08-15T11:15:07.000Z</time>
      </trkpt>
      <trkpt lat="47.81728" lon="-3.55093">
        <ele>41</ele>
        <time>2019-08-15T11:15:11.000Z</time>
      </trkpt>
      <trkpt lat="47.81726" lon="-3.55089">
        <ele>41</ele>
        <time>2019-08-15T11:15:12.000Z</time>
      </trkpt>
      <trkpt lat="47.81725" lon="-3.55085">
        <ele>41</ele>
        <time>2019-08-15T11:15:13.000Z</time>
      </trkpt>
      <trkpt lat="47.81719" lon="-3.55067">
        <ele>40.799999237061</ele>
        <time>2019-08-15T11:15:17.000Z</time>
      </trkpt>
      <trkpt lat="47.81713" lon="-3.55043">
        <ele>40.599998474121</ele>
        <time>2019-08-15T11:15:21.000Z</time>
      </trkpt>
      <trkpt lat="47.81711" lon="-3.55037">
        <ele>40.400001525879</ele>
        <time>2019-08-15T11:15:22.000Z</time>
      </trkpt>
      <trkpt lat="47.81706" lon="-3.55016">
        <ele>40.400001525879</ele>
        <time>2019-08-15T11:15:25.000Z</time>
      </trkpt>
      <trkpt lat="47.81702" lon="-3.5501">
        <ele>40.200000762939</ele>
        <time>2019-08-15T11:15:26.000Z</time>
      </trkpt>
      <trkpt lat="47.81689" lon="-3.54991">
        <ele>39.799999237061</ele>
        <time>2019-08-15T11:15:29.000Z</time>
      </trkpt>
      <trkpt lat="47.81683" lon="-3.54986">
        <ele>39.400001525879</ele>
        <time>2019-08-15T11:15:30.000Z</time>
      </trkpt>
      <trkpt lat="47.8167" lon="-3.54975">
        <ele>38.799999237061</ele>
        <time>2019-08-15T11:15:32.000Z</time>
      </trkpt>
      <trkpt lat="47.81662" lon="-3.54971">
        <ele>38.799999237061</ele>
        <time>2019-08-15T11:15:33.000Z</time>
      </trkpt>
      <trkpt lat="47.8165" lon="-3.54963">
        <ele>38.200000762939</ele>
        <time>2019-08-15T11:15:35.000Z</time>
      </trkpt>
      <trkpt lat="47.81645" lon="-3.54958">
        <ele>37.799999237061</ele>
        <time>2019-08-15T11:15:36.000Z</time>
      </trkpt>
      <trkpt lat="47.8164" lon="-3.54951">
        <ele>37.400001525879</ele>
        <time>2019-08-15T11:15:37.000Z</time>
      </trkpt>
      <trkpt lat="47.81638" lon="-3.54944">
        <ele>37.200000762939</ele>
        <time>2019-08-15T11:15:38.000Z</time>
      </trkpt>
      <trkpt lat="47.81638" lon="-3.54936">
        <ele>36.799999237061</ele>
        <time>2019-08-15T11:15:39.000Z</time>
      </trkpt>
      <trkpt lat="47.8164" lon="-3.54928">
        <ele>36.400001525879</ele>
        <time>2019-08-15T11:15:40.000Z</time>
      </trkpt>
      <trkpt lat="47.81644" lon="-3.5492">
        <ele>35.599998474121</ele>
        <time>2019-08-15T11:15:41.000Z</time>
      </trkpt>
      <trkpt lat="47.81655" lon="-3.54905">
        <ele>34.599998474121</ele>
        <time>2019-08-15T11:15:43.000Z</time>
      </trkpt>
      <trkpt lat="47.81662" lon="-3.54898">
        <ele>34.200000762939</ele>
        <time>2019-08-15T11:15:44.000Z</time>
      </trkpt>
      <trkpt lat="47.81669" lon="-3.5489">
        <ele>33.799999237061</ele>
        <time>2019-08-15T11:15:45.000Z</time>
      </trkpt>
      <trkpt lat="47.81683" lon="-3.54874">
        <ele>32.799999237061</ele>
        <time>2019-08-15T11:15:47.000Z</time>
      </trkpt>
      <trkpt lat="47.81696" lon="-3.54855">
        <ele>32</ele>
        <time>2019-08-15T11:15:49.000Z</time>
      </trkpt>
      <trkpt lat="47.81707" lon="-3.54834">
        <ele>31.60000038147</ele>
        <time>2019-08-15T11:15:51.000Z</time>
      </trkpt>
      <trkpt lat="47.81712" lon="-3.54823">
        <ele>31</ele>
        <time>2019-08-15T11:15:52.000Z</time>
      </trkpt>
      <trkpt lat="47.81725" lon="-3.54794">
        <ele>29.60000038147</ele>
        <time>2019-08-15T11:15:55.000Z</time>
      </trkpt>
      <trkpt lat="47.81734" lon="-3.54772">
        <ele>29.200000762939</ele>
        <time>2019-08-15T11:15:58.000Z</time>
      </trkpt>
      <trkpt lat="47.81735" lon="-3.54766">
        <ele>29.200000762939</ele>
        <time>2019-08-15T11:15:59.000Z</time>
      </trkpt>
      <trkpt lat="47.81738" lon="-3.54749">
        <ele>29.200000762939</ele>
        <time>2019-08-15T11:16:03.000Z</time>
      </trkpt>
      <trkpt lat="47.8174" lon="-3.54741">
        <ele>29.200000762939</ele>
        <time>2019-08-15T11:16:05.000Z</time>
      </trkpt>
      <trkpt lat="47.81741" lon="-3.54738">
        <ele>29.200000762939</ele>
        <time>2019-08-15T11:16:06.000Z</time>
      </trkpt>
      <trkpt lat="47.81742" lon="-3.54734">
        <ele>29</ele>
        <time>2019-08-15T11:16:07.000Z</time>
      </trkpt>
      <trkpt lat="47.81743" lon="-3.54727">
        <ele>29.200000762939</ele>
        <time>2019-08-15T11:16:09.000Z</time>
      </trkpt>
      <trkpt lat="47.81743" lon="-3.54724">
        <ele>29.39999961853</ele>
        <time>2019-08-15T11:16:10.000Z</time>
      </trkpt>
      <trkpt lat="47.81745" lon="-3.54713">
        <ele>29.799999237061</ele>
        <time>2019-08-15T11:16:13.000Z</time>
      </trkpt>
      <trkpt lat="47.81746" lon="-3.5471">
        <ele>29.799999237061</ele>
        <time>2019-08-15T11:16:14.000Z</time>
      </trkpt>
      <trkpt lat="47.81748" lon="-3.54707">
        <ele>29.799999237061</ele>
        <time>2019-08-15T11:16:15.000Z</time>
      </trkpt>
      <trkpt lat="47.81748" lon="-3.54703">
        <ele>30</ele>
        <time>2019-08-15T11:16:16.000Z</time>
      </trkpt>
      <trkpt lat="47.81749" lon="-3.54696">
        <ele>30.39999961853</ele>
        <time>2019-08-15T11:16:18.000Z</time>
      </trkpt>
      <trkpt lat="47.8175" lon="-3.54693">
        <ele>30.39999961853</ele>
        <time>2019-08-15T11:16:19.000Z</time>
      </trkpt>
      <trkpt lat="47.81751" lon="-3.54689">
        <ele>30.60000038147</ele>
        <time>2019-08-15T11:16:20.000Z</time>
      </trkpt>
      <trkpt lat="47.81751" lon="-3.54686">
        <ele>30.60000038147</ele>
        <time>2019-08-15T11:16:21.000Z</time>
      </trkpt>
      <trkpt lat="47.81752" lon="-3.54678">
        <ele>31</ele>
        <time>2019-08-15T11:16:23.000Z</time>
      </trkpt>
      <trkpt lat="47.81753" lon="-3.54669">
        <ele>31.799999237061</ele>
        <time>2019-08-15T11:16:26.000Z</time>
      </trkpt>
      <trkpt lat="47.81755" lon="-3.54663">
        <ele>32</ele>
        <time>2019-08-15T11:16:28.000Z</time>
      </trkpt>
      <trkpt lat="47.81754" lon="-3.54658">
        <ele>32.200000762939</ele>
        <time>2019-08-15T11:16:29.000Z</time>
      </trkpt>
      <trkpt lat="47.81752" lon="-3.54649">
        <ele>32.200000762939</ele>
        <time>2019-08-15T11:16:31.000Z</time>
      </trkpt>
      <trkpt lat="47.81752" lon="-3.54645">
        <ele>32.400001525879</ele>
        <time>2019-08-15T11:16:32.000Z</time>
      </trkpt>
      <trkpt lat="47.81753" lon="-3.54638">
        <ele>33</ele>
        <time>2019-08-15T11:16:34.000Z</time>
      </trkpt>
      <trkpt lat="47.81754" lon="-3.5463">
        <ele>33</ele>
        <time>2019-08-15T11:16:36.000Z</time>
      </trkpt>
      <trkpt lat="47.8176" lon="-3.54617">
        <ele>33.200000762939</ele>
        <time>2019-08-15T11:16:39.000Z</time>
      </trkpt>
      <trkpt lat="47.81762" lon="-3.54612">
        <ele>33</ele>
        <time>2019-08-15T11:16:40.000Z</time>
      </trkpt>
      <trkpt lat="47.81764" lon="-3.54607">
        <ele>33.200000762939</ele>
        <time>2019-08-15T11:16:41.000Z</time>
      </trkpt>
      <trkpt lat="47.81767" lon="-3.54597">
        <ele>33.400001525879</ele>
        <time>2019-08-15T11:16:43.000Z</time>
      </trkpt>
      <trkpt lat="47.81769" lon="-3.54591">
        <ele>33.400001525879</ele>
        <time>2019-08-15T11:16:44.000Z</time>
      </trkpt>
      <trkpt lat="47.81771" lon="-3.54587">
        <ele>33.400001525879</ele>
        <time>2019-08-15T11:16:45.000Z</time>
      </trkpt>
      <trkpt lat="47.81778" lon="-3.54573">
        <ele>33.599998474121</ele>
        <time>2019-08-15T11:16:48.000Z</time>
      </trkpt>
      <trkpt lat="47.81783" lon="-3.54565">
        <ele>33.400001525879</ele>
        <time>2019-08-15T11:16:50.000Z</time>
      </trkpt>
      <trkpt lat="47.81785" lon="-3.54562">
        <ele>33.400001525879</ele>
        <time>2019-08-15T11:16:51.000Z</time>
      </trkpt>
      <trkpt lat="47.81787" lon="-3.54557">
        <ele>33.200000762939</ele>
        <time>2019-08-15T11:16:52.000Z</time>
      </trkpt>
      <trkpt lat="47.81792" lon="-3.5455">
        <ele>33.200000762939</ele>
        <time>2019-08-15T11:16:54.000Z</time>
      </trkpt>
      <trkpt lat="47.81795" lon="-3.54547">
        <ele>33.200000762939</ele>
        <time>2019-08-15T11:16:55.000Z</time>
      </trkpt>
      <trkpt lat="47.81801" lon="-3.54539">
        <ele>33</ele>
        <time>2019-08-15T11:16:57.000Z</time>
      </trkpt>
      <trkpt lat="47.81803" lon="-3.54536">
        <ele>33.200000762939</ele>
        <time>2019-08-15T11:16:58.000Z</time>
      </trkpt>
      <trkpt lat="47.81804" lon="-3.54534">
        <ele>33</ele>
        <time>2019-08-15T11:16:59.000Z</time>
      </trkpt>
      <trkpt lat="47.81806" lon="-3.54531">
        <ele>33.200000762939</ele>
        <time>2019-08-15T11:17:00.000Z</time>
      </trkpt>
      <trkpt lat="47.81808" lon="-3.54528">
        <ele>33.200000762939</ele>
        <time>2019-08-15T11:17:01.000Z</time>
      </trkpt>
      <trkpt lat="47.81811" lon="-3.54524">
        <ele>33.400001525879</ele>
        <time>2019-08-15T11:17:02.000Z</time>
      </trkpt>
      <trkpt lat="47.81812" lon="-3.5452">
        <ele>33.599998474121</ele>
        <time>2019-08-15T11:17:03.000Z</time>
      </trkpt>
      <trkpt lat="47.81814" lon="-3.54517">
        <ele>34</ele>
        <time>2019-08-15T11:17:04.000Z</time>
      </trkpt>
      <trkpt lat="47.81816" lon="-3.54513">
        <ele>34.200000762939</ele>
        <time>2019-08-15T11:17:05.000Z</time>
      </trkpt>
      <trkpt lat="47.81817" lon="-3.5451">
        <ele>34.400001525879</ele>
        <time>2019-08-15T11:17:06.000Z</time>
      </trkpt>
      <trkpt lat="47.81819" lon="-3.54507">
        <ele>34.799999237061</ele>
        <time>2019-08-15T11:17:07.000Z</time>
      </trkpt>
      <trkpt lat="47.81823" lon="-3.54497">
        <ele>35.400001525879</ele>
        <time>2019-08-15T11:17:10.000Z</time>
      </trkpt>
      <trkpt lat="47.81824" lon="-3.54495">
        <ele>35.400001525879</ele>
        <time>2019-08-15T11:17:11.000Z</time>
      </trkpt>
      <trkpt lat="47.81825" lon="-3.54492">
        <ele>35.599998474121</ele>
        <time>2019-08-15T11:17:12.000Z</time>
      </trkpt>
      <trkpt lat="47.81826" lon="-3.5449">
        <ele>35.799999237061</ele>
        <time>2019-08-15T11:17:13.000Z</time>
      </trkpt>
      <trkpt lat="47.81831" lon="-3.54478">
        <ele>36</ele>
        <time>2019-08-15T11:17:16.000Z</time>
      </trkpt>
      <trkpt lat="47.81836" lon="-3.54467">
        <ele>36.400001525879</ele>
        <time>2019-08-15T11:17:19.000Z</time>
      </trkpt>
      <trkpt lat="47.81837" lon="-3.54463">
        <ele>36.400001525879</ele>
        <time>2019-08-15T11:17:20.000Z</time>
      </trkpt>
      <trkpt lat="47.8184" lon="-3.54458">
        <ele>36.799999237061</ele>
        <time>2019-08-15T11:17:21.000Z</time>
      </trkpt>
      <trkpt lat="47.81842" lon="-3.54453">
        <ele>36.799999237061</ele>
        <time>2019-08-15T11:17:22.000Z</time>
      </trkpt>
      <trkpt lat="47.81848" lon="-3.54437">
        <ele>36.799999237061</ele>
        <time>2019-08-15T11:17:25.000Z</time>
      </trkpt>
      <trkpt lat="47.81851" lon="-3.54432">
        <ele>37</ele>
        <time>2019-08-15T11:17:26.000Z</time>
      </trkpt>
      <trkpt lat="47.81855" lon="-3.54421">
        <ele>37</ele>
        <time>2019-08-15T11:17:28.000Z</time>
      </trkpt>
      <trkpt lat="47.81863" lon="-3.54401">
        <ele>36.799999237061</ele>
        <time>2019-08-15T11:17:31.000Z</time>
      </trkpt>
      <trkpt lat="47.81871" lon="-3.54377">
        <ele>36.799999237061</ele>
        <time>2019-08-15T11:17:35.000Z</time>
      </trkpt>
      <trkpt lat="47.81873" lon="-3.54372">
        <ele>36.799999237061</ele>
        <time>2019-08-15T11:17:36.000Z</time>
      </trkpt>
      <trkpt lat="47.81875" lon="-3.54367">
        <ele>36.799999237061</ele>
        <time>2019-08-15T11:17:37.000Z</time>
      </trkpt>
      <trkpt lat="47.81877" lon="-3.54362">
        <ele>36.799999237061</ele>
        <time>2019-08-15T11:17:38.000Z</time>
      </trkpt>
      <trkpt lat="47.8188" lon="-3.54357">
        <ele>36.799999237061</ele>
        <time>2019-08-15T11:17:39.000Z</time>
      </trkpt>
      <trkpt lat="47.81883" lon="-3.54351">
        <ele>36.799999237061</ele>
        <time>2019-08-15T11:17:40.000Z</time>
      </trkpt>
      <trkpt lat="47.81886" lon="-3.54346">
        <ele>36.599998474121</ele>
        <time>2019-08-15T11:17:41.000Z</time>
      </trkpt>
      <trkpt lat="47.81891" lon="-3.54334">
        <ele>36.200000762939</ele>
        <time>2019-08-15T11:17:43.000Z</time>
      </trkpt>
      <trkpt lat="47.81896" lon="-3.54323">
        <ele>35.599998474121</ele>
        <time>2019-08-15T11:17:45.000Z</time>
      </trkpt>
      <trkpt lat="47.81898" lon="-3.54317">
        <ele>35.400001525879</ele>
        <time>2019-08-15T11:17:46.000Z</time>
      </trkpt>
      <trkpt lat="47.819" lon="-3.54311">
        <ele>35.200000762939</ele>
        <time>2019-08-15T11:17:47.000Z</time>
      </trkpt>
      <trkpt lat="47.81901" lon="-3.54304">
        <ele>35</ele>
        <time>2019-08-15T11:17:48.000Z</time>
      </trkpt>
      <trkpt lat="47.81902" lon="-3.54297">
        <ele>34.799999237061</ele>
        <time>2019-08-15T11:17:49.000Z</time>
      </trkpt>
      <trkpt lat="47.81901" lon="-3.54292">
        <ele>34.400001525879</ele>
        <time>2019-08-15T11:17:50.000Z</time>
      </trkpt>
      <trkpt lat="47.81898" lon="-3.54288">
        <ele>34.599998474121</ele>
        <time>2019-08-15T11:17:51.000Z</time>
      </trkpt>
      <trkpt lat="47.81896" lon="-3.54286">
        <ele>34.400001525879</ele>
        <time>2019-08-15T11:17:52.000Z</time>
      </trkpt>
      <trkpt lat="47.81893" lon="-3.54284">
        <ele>34.200000762939</ele>
        <time>2019-08-15T11:17:53.000Z</time>
      </trkpt>
      <trkpt lat="47.81889" lon="-3.54282">
        <ele>34.200000762939</ele>
        <time>2019-08-15T11:17:54.000Z</time>
      </trkpt>
      <trkpt lat="47.81885" lon="-3.54281">
        <ele>34.200000762939</ele>
        <time>2019-08-15T11:17:55.000Z</time>
      </trkpt>
      <trkpt lat="47.81878" lon="-3.54279">
        <ele>34.400001525879</ele>
        <time>2019-08-15T11:17:57.000Z</time>
      </trkpt>
      <trkpt lat="47.81864" lon="-3.54275">
        <ele>34.799999237061</ele>
        <time>2019-08-15T11:18:01.000Z</time>
      </trkpt>
      <trkpt lat="47.81861" lon="-3.54273">
        <ele>35.200000762939</ele>
        <time>2019-08-15T11:18:02.000Z</time>
      </trkpt>
      <trkpt lat="47.81848" lon="-3.54267">
        <ele>35.400001525879</ele>
        <time>2019-08-15T11:18:06.000Z</time>
      </trkpt>
      <trkpt lat="47.8184" lon="-3.54266">
        <ele>35.799999237061</ele>
        <time>2019-08-15T11:18:08.000Z</time>
      </trkpt>
      <trkpt lat="47.81836" lon="-3.54265">
        <ele>36.200000762939</ele>
        <time>2019-08-15T11:18:09.000Z</time>
      </trkpt>
      <trkpt lat="47.81831" lon="-3.54264">
        <ele>36.200000762939</ele>
        <time>2019-08-15T11:18:10.000Z</time>
      </trkpt>
      <trkpt lat="47.81828" lon="-3.54263">
        <ele>36.200000762939</ele>
        <time>2019-08-15T11:18:11.000Z</time>
      </trkpt>
      <trkpt lat="47.81824" lon="-3.54262">
        <ele>36.400001525879</ele>
        <time>2019-08-15T11:18:12.000Z</time>
      </trkpt>
      <trkpt lat="47.81809" lon="-3.54259">
        <ele>37.200000762939</ele>
        <time>2019-08-15T11:18:16.000Z</time>
      </trkpt>
      <trkpt lat="47.81804" lon="-3.54258">
        <ele>37.400001525879</ele>
        <time>2019-08-15T11:18:17.000Z</time>
      </trkpt>
      <trkpt lat="47.818" lon="-3.54257">
        <ele>37.599998474121</ele>
        <time>2019-08-15T11:18:18.000Z</time>
      </trkpt>
      <trkpt lat="47.81796" lon="-3.54256">
        <ele>37.799999237061</ele>
        <time>2019-08-15T11:18:19.000Z</time>
      </trkpt>
      <trkpt lat="47.81789" lon="-3.54254">
        <ele>38</ele>
        <time>2019-08-15T11:18:21.000Z</time>
      </trkpt>
      <trkpt lat="47.81784" lon="-3.54253">
        <ele>38</ele>
        <time>2019-08-15T11:18:22.000Z</time>
      </trkpt>
      <trkpt lat="47.8178" lon="-3.54252">
        <ele>38.200000762939</ele>
        <time>2019-08-15T11:18:23.000Z</time>
      </trkpt>
      <trkpt lat="47.81772" lon="-3.5425">
        <ele>38.200000762939</ele>
        <time>2019-08-15T11:18:25.000Z</time>
      </trkpt>
      <trkpt lat="47.81763" lon="-3.54247">
        <ele>38.200000762939</ele>
        <time>2019-08-15T11:18:27.000Z</time>
      </trkpt>
      <trkpt lat="47.81753" lon="-3.54243">
        <ele>38.200000762939</ele>
        <time>2019-08-15T11:18:29.000Z</time>
      </trkpt>
      <trkpt lat="47.81744" lon="-3.54243">
        <ele>38.599998474121</ele>
        <time>2019-08-15T11:18:31.000Z</time>
      </trkpt>
      <trkpt lat="47.81739" lon="-3.54242">
        <ele>38.799999237061</ele>
        <time>2019-08-15T11:18:32.000Z</time>
      </trkpt>
      <trkpt lat="47.81725" lon="-3.54236">
        <ele>39</ele>
        <time>2019-08-15T11:18:35.000Z</time>
      </trkpt>
      <trkpt lat="47.8172" lon="-3.54233">
        <ele>39</ele>
        <time>2019-08-15T11:18:36.000Z</time>
      </trkpt>
      <trkpt lat="47.81716" lon="-3.54231">
        <ele>39</ele>
        <time>2019-08-15T11:18:37.000Z</time>
      </trkpt>
      <trkpt lat="47.81711" lon="-3.54228">
        <ele>39.200000762939</ele>
        <time>2019-08-15T11:18:38.000Z</time>
      </trkpt>
      <trkpt lat="47.81706" lon="-3.54226">
        <ele>39.400001525879</ele>
        <time>2019-08-15T11:18:39.000Z</time>
      </trkpt>
      <trkpt lat="47.81696" lon="-3.54223">
        <ele>39.200000762939</ele>
        <time>2019-08-15T11:18:41.000Z</time>
      </trkpt>
      <trkpt lat="47.81686" lon="-3.5422">
        <ele>39</ele>
        <time>2019-08-15T11:18:43.000Z</time>
      </trkpt>
      <trkpt lat="47.81681" lon="-3.54219">
        <ele>39</ele>
        <time>2019-08-15T11:18:44.000Z</time>
      </trkpt>
      <trkpt lat="47.81676" lon="-3.54219">
        <ele>39</ele>
        <time>2019-08-15T11:18:45.000Z</time>
      </trkpt>
      <trkpt lat="47.81655" lon="-3.54215">
        <ele>39</ele>
        <time>2019-08-15T11:18:49.000Z</time>
      </trkpt>
      <trkpt lat="47.8165" lon="-3.54214">
        <ele>39</ele>
        <time>2019-08-15T11:18:50.000Z</time>
      </trkpt>
      <trkpt lat="47.81638" lon="-3.5421">
        <ele>38.799999237061</ele>
        <time>2019-08-15T11:18:52.000Z</time>
      </trkpt>
      <trkpt lat="47.81628" lon="-3.54208">
        <ele>39</ele>
        <time>2019-08-15T11:18:54.000Z</time>
      </trkpt>
      <trkpt lat="47.81622" lon="-3.54207">
        <ele>39</ele>
        <time>2019-08-15T11:18:55.000Z</time>
      </trkpt>
      <trkpt lat="47.81616" lon="-3.54207">
        <ele>39</ele>
        <time>2019-08-15T11:18:56.000Z</time>
      </trkpt>
      <trkpt lat="47.8161" lon="-3.54206">
        <ele>39</ele>
        <time>2019-08-15T11:18:57.000Z</time>
      </trkpt>
      <trkpt lat="47.81599" lon="-3.54204">
        <ele>39</ele>
        <time>2019-08-15T11:18:59.000Z</time>
      </trkpt>
      <trkpt lat="47.81566" lon="-3.54197">
        <ele>38.599998474121</ele>
        <time>2019-08-15T11:19:04.000Z</time>
      </trkpt>
      <trkpt lat="47.81559" lon="-3.54195">
        <ele>38.599998474121</ele>
        <time>2019-08-15T11:19:05.000Z</time>
      </trkpt>
      <trkpt lat="47.81553" lon="-3.54193">
        <ele>38.400001525879</ele>
        <time>2019-08-15T11:19:06.000Z</time>
      </trkpt>
      <trkpt lat="47.81546" lon="-3.5419">
        <ele>38.400001525879</ele>
        <time>2019-08-15T11:19:07.000Z</time>
      </trkpt>
      <trkpt lat="47.81526" lon="-3.54182">
        <ele>37.799999237061</ele>
        <time>2019-08-15T11:19:10.000Z</time>
      </trkpt>
      <trkpt lat="47.81511" lon="-3.54178">
        <ele>37.599998474121</ele>
        <time>2019-08-15T11:19:12.000Z</time>
      </trkpt>
      <trkpt lat="47.81504" lon="-3.54177">
        <ele>37.200000762939</ele>
        <time>2019-08-15T11:19:13.000Z</time>
      </trkpt>
      <trkpt lat="47.81496" lon="-3.54176">
        <ele>37.200000762939</ele>
        <time>2019-08-15T11:19:14.000Z</time>
      </trkpt>
      <trkpt lat="47.81487" lon="-3.54173">
        <ele>36.799999237061</ele>
        <time>2019-08-15T11:19:15.000Z</time>
      </trkpt>
      <trkpt lat="47.81461" lon="-3.54166">
        <ele>34.400001525879</ele>
        <time>2019-08-15T11:19:18.000Z</time>
      </trkpt>
      <trkpt lat="47.81454" lon="-3.54166">
        <ele>34.200000762939</ele>
        <time>2019-08-15T11:19:19.000Z</time>
      </trkpt>
      <trkpt lat="47.81447" lon="-3.54164">
        <ele>33.799999237061</ele>
        <time>2019-08-15T11:19:20.000Z</time>
      </trkpt>
      <trkpt lat="47.81428" lon="-3.5416">
        <ele>33.599998474121</ele>
        <time>2019-08-15T11:19:23.000Z</time>
      </trkpt>
      <trkpt lat="47.81424" lon="-3.54159">
        <ele>33.599998474121</ele>
        <time>2019-08-15T11:19:24.000Z</time>
      </trkpt>
      <trkpt lat="47.81416" lon="-3.54156">
        <ele>33.799999237061</ele>
        <time>2019-08-15T11:19:26.000Z</time>
      </trkpt>
      <trkpt lat="47.81412" lon="-3.54155">
        <ele>33.799999237061</ele>
        <time>2019-08-15T11:19:27.000Z</time>
      </trkpt>
      <trkpt lat="47.81409" lon="-3.54154">
        <ele>34</ele>
        <time>2019-08-15T11:19:28.000Z</time>
      </trkpt>
      <trkpt lat="47.81398" lon="-3.5415">
        <ele>36.200000762939</ele>
        <time>2019-08-15T11:19:32.000Z</time>
      </trkpt>
      <trkpt lat="47.81396" lon="-3.54149">
        <ele>36.400001525879</ele>
        <time>2019-08-15T11:19:33.000Z</time>
      </trkpt>
      <trkpt lat="47.81393" lon="-3.54149">
        <ele>37</ele>
        <time>2019-08-15T11:19:34.000Z</time>
      </trkpt>
      <trkpt lat="47.81389" lon="-3.54149">
        <ele>37</ele>
        <time>2019-08-15T11:19:35.000Z</time>
      </trkpt>
      <trkpt lat="47.81385" lon="-3.54149">
        <ele>37.599998474121</ele>
        <time>2019-08-15T11:19:36.000Z</time>
      </trkpt>
      <trkpt lat="47.81377" lon="-3.54148">
        <ele>38</ele>
        <time>2019-08-15T11:19:39.000Z</time>
      </trkpt>
      <trkpt lat="47.8137" lon="-3.54147">
        <ele>38</ele>
        <time>2019-08-15T11:19:41.000Z</time>
      </trkpt>
      <trkpt lat="47.81345" lon="-3.54145">
        <ele>38.400001525879</ele>
        <time>2019-08-15T11:19:47.000Z</time>
      </trkpt>
      <trkpt lat="47.81343" lon="-3.54144">
        <ele>38.599998474121</ele>
        <time>2019-08-15T11:19:48.000Z</time>
      </trkpt>
      <trkpt lat="47.8134" lon="-3.54143">
        <ele>38.599998474121</ele>
        <time>2019-08-15T11:19:49.000Z</time>
      </trkpt>
      <trkpt lat="47.81334" lon="-3.54141">
        <ele>38.400001525879</ele>
        <time>2019-08-15T11:19:51.000Z</time>
      </trkpt>
      <trkpt lat="47.8133" lon="-3.54139">
        <ele>38.400001525879</ele>
        <time>2019-08-15T11:19:52.000Z</time>
      </trkpt>
      <trkpt lat="47.81325" lon="-3.54138">
        <ele>38.400001525879</ele>
        <time>2019-08-15T11:19:53.000Z</time>
      </trkpt>
      <trkpt lat="47.81316" lon="-3.54134">
        <ele>38.200000762939</ele>
        <time>2019-08-15T11:19:55.000Z</time>
      </trkpt>
      <trkpt lat="47.81311" lon="-3.54132">
        <ele>38</ele>
        <time>2019-08-15T11:19:56.000Z</time>
      </trkpt>
      <trkpt lat="47.81306" lon="-3.54129">
        <ele>38</ele>
        <time>2019-08-15T11:19:57.000Z</time>
      </trkpt>
      <trkpt lat="47.81288" lon="-3.54116">
        <ele>37.400001525879</ele>
        <time>2019-08-15T11:20:00.000Z</time>
      </trkpt>
      <trkpt lat="47.81282" lon="-3.54111">
        <ele>37.200000762939</ele>
        <time>2019-08-15T11:20:01.000Z</time>
      </trkpt>
      <trkpt lat="47.81267" lon="-3.54095">
        <ele>36.200000762939</ele>
        <time>2019-08-15T11:20:04.000Z</time>
      </trkpt>
      <trkpt lat="47.81253" lon="-3.54085">
        <ele>36</ele>
        <time>2019-08-15T11:20:06.000Z</time>
      </trkpt>
      <trkpt lat="47.81242" lon="-3.54075">
        <ele>35.599998474121</ele>
        <time>2019-08-15T11:20:08.000Z</time>
      </trkpt>
      <trkpt lat="47.81223" lon="-3.54054">
        <ele>35.200000762939</ele>
        <time>2019-08-15T11:20:12.000Z</time>
      </trkpt>
      <trkpt lat="47.81217" lon="-3.54047">
        <ele>35</ele>
        <time>2019-08-15T11:20:13.000Z</time>
      </trkpt>
      <trkpt lat="47.81204" lon="-3.5403">
        <ele>35</ele>
        <time>2019-08-15T11:20:16.000Z</time>
      </trkpt>
      <trkpt lat="47.81201" lon="-3.54025">
        <ele>35.200000762939</ele>
        <time>2019-08-15T11:20:17.000Z</time>
      </trkpt>
      <trkpt lat="47.81197" lon="-3.5402">
        <ele>35.599998474121</ele>
        <time>2019-08-15T11:20:18.000Z</time>
      </trkpt>
      <trkpt lat="47.81192" lon="-3.54015">
        <ele>35.799999237061</ele>
        <time>2019-08-15T11:20:19.000Z</time>
      </trkpt>
      <trkpt lat="47.81189" lon="-3.5401">
        <ele>36</ele>
        <time>2019-08-15T11:20:20.000Z</time>
      </trkpt>
      <trkpt lat="47.81179" lon="-3.53993">
        <ele>36.400001525879</ele>
        <time>2019-08-15T11:20:23.000Z</time>
      </trkpt>
      <trkpt lat="47.81168" lon="-3.53976">
        <ele>36.799999237061</ele>
        <time>2019-08-15T11:20:26.000Z</time>
      </trkpt>
      <trkpt lat="47.81164" lon="-3.5397">
        <ele>36.799999237061</ele>
        <time>2019-08-15T11:20:27.000Z</time>
      </trkpt>
      <trkpt lat="47.81152" lon="-3.53953">
        <ele>36.799999237061</ele>
        <time>2019-08-15T11:20:30.000Z</time>
      </trkpt>
      <trkpt lat="47.81142" lon="-3.53942">
        <ele>36.799999237061</ele>
        <time>2019-08-15T11:20:32.000Z</time>
      </trkpt>
      <trkpt lat="47.81137" lon="-3.53937">
        <ele>37</ele>
        <time>2019-08-15T11:20:33.000Z</time>
      </trkpt>
      <trkpt lat="47.81129" lon="-3.53924">
        <ele>36.799999237061</ele>
        <time>2019-08-15T11:20:35.000Z</time>
      </trkpt>
      <trkpt lat="47.81126" lon="-3.53919">
        <ele>36.599998474121</ele>
        <time>2019-08-15T11:20:36.000Z</time>
      </trkpt>
      <trkpt lat="47.81122" lon="-3.53914">
        <ele>36.599998474121</ele>
        <time>2019-08-15T11:20:37.000Z</time>
      </trkpt>
      <trkpt lat="47.81109" lon="-3.53897">
        <ele>36.400001525879</ele>
        <time>2019-08-15T11:20:40.000Z</time>
      </trkpt>
      <trkpt lat="47.811" lon="-3.53886">
        <ele>36.400001525879</ele>
        <time>2019-08-15T11:20:42.000Z</time>
      </trkpt>
      <trkpt lat="47.81096" lon="-3.53881">
        <ele>36.400001525879</ele>
        <time>2019-08-15T11:20:43.000Z</time>
      </trkpt>
      <trkpt lat="47.8109" lon="-3.53876">
        <ele>36.599998474121</ele>
        <time>2019-08-15T11:20:44.000Z</time>
      </trkpt>
      <trkpt lat="47.81085" lon="-3.53871">
        <ele>36.599998474121</ele>
        <time>2019-08-15T11:20:45.000Z</time>
      </trkpt>
      <trkpt lat="47.81081" lon="-3.53865">
        <ele>36.599998474121</ele>
        <time>2019-08-15T11:20:46.000Z</time>
      </trkpt>
      <trkpt lat="47.81067" lon="-3.53845">
        <ele>37</ele>
        <time>2019-08-15T11:20:50.000Z</time>
      </trkpt>
      <trkpt lat="47.81064" lon="-3.5384">
        <ele>37</ele>
        <time>2019-08-15T11:20:51.000Z</time>
      </trkpt>
      <trkpt lat="47.8106" lon="-3.53836">
        <ele>37.200000762939</ele>
        <time>2019-08-15T11:20:52.000Z</time>
      </trkpt>
      <trkpt lat="47.81058" lon="-3.53832">
        <ele>37.200000762939</ele>
        <time>2019-08-15T11:20:53.000Z</time>
      </trkpt>
      <trkpt lat="47.81055" lon="-3.53828">
        <ele>37.200000762939</ele>
        <time>2019-08-15T11:20:54.000Z</time>
      </trkpt>
      <trkpt lat="47.81052" lon="-3.53824">
        <ele>37.200000762939</ele>
        <time>2019-08-15T11:20:55.000Z</time>
      </trkpt>
      <trkpt lat="47.81047" lon="-3.5382">
        <ele>37.200000762939</ele>
        <time>2019-08-15T11:20:56.000Z</time>
      </trkpt>
      <trkpt lat="47.81044" lon="-3.53815">
        <ele>37.200000762939</ele>
        <time>2019-08-15T11:20:57.000Z</time>
      </trkpt>
      <trkpt lat="47.8103" lon="-3.53799">
        <ele>37.400001525879</ele>
        <time>2019-08-15T11:21:01.000Z</time>
      </trkpt>
      <trkpt lat="47.81021" lon="-3.53789">
        <ele>37.599998474121</ele>
        <time>2019-08-15T11:21:03.000Z</time>
      </trkpt>
      <trkpt lat="47.81005" lon="-3.53774">
        <ele>37.599998474121</ele>
        <time>2019-08-15T11:21:07.000Z</time>
      </trkpt>
      <trkpt lat="47.81002" lon="-3.5377">
        <ele>37.599998474121</ele>
        <time>2019-08-15T11:21:08.000Z</time>
      </trkpt>
      <trkpt lat="47.80993" lon="-3.5376">
        <ele>37.599998474121</ele>
        <time>2019-08-15T11:21:10.000Z</time>
      </trkpt>
      <trkpt lat="47.80988" lon="-3.53756">
        <ele>37.599998474121</ele>
        <time>2019-08-15T11:21:11.000Z</time>
      </trkpt>
      <trkpt lat="47.80984" lon="-3.53753">
        <ele>37.599998474121</ele>
        <time>2019-08-15T11:21:12.000Z</time>
      </trkpt>
      <trkpt lat="47.80976" lon="-3.53743">
        <ele>37.599998474121</ele>
        <time>2019-08-15T11:21:14.000Z</time>
      </trkpt>
      <trkpt lat="47.80972" lon="-3.53738">
        <ele>37.599998474121</ele>
        <time>2019-08-15T11:21:15.000Z</time>
      </trkpt>
      <trkpt lat="47.80968" lon="-3.53734">
        <ele>37.599998474121</ele>
        <time>2019-08-15T11:21:16.000Z</time>
      </trkpt>
      <trkpt lat="47.80961" lon="-3.53724">
        <ele>37.599998474121</ele>
        <time>2019-08-15T11:21:18.000Z</time>
      </trkpt>
      <trkpt lat="47.8095" lon="-3.53714">
        <ele>37.400001525879</ele>
        <time>2019-08-15T11:21:20.000Z</time>
      </trkpt>
      <trkpt lat="47.80947" lon="-3.53709">
        <ele>37.599998474121</ele>
        <time>2019-08-15T11:21:21.000Z</time>
      </trkpt>
      <trkpt lat="47.8093" lon="-3.53689">
        <ele>37.200000762939</ele>
        <time>2019-08-15T11:21:25.000Z</time>
      </trkpt>
      <trkpt lat="47.80925" lon="-3.53685">
        <ele>37</ele>
        <time>2019-08-15T11:21:26.000Z</time>
      </trkpt>
      <trkpt lat="47.80922" lon="-3.53679">
        <ele>36.799999237061</ele>
        <time>2019-08-15T11:21:27.000Z</time>
      </trkpt>
      <trkpt lat="47.80909" lon="-3.53664">
        <ele>36.599998474121</ele>
        <time>2019-08-15T11:21:30.000Z</time>
      </trkpt>
      <trkpt lat="47.80893" lon="-3.53649">
        <ele>36.400001525879</ele>
        <time>2019-08-15T11:21:33.000Z</time>
      </trkpt>
      <trkpt lat="47.80889" lon="-3.53645">
        <ele>36.400001525879</ele>
        <time>2019-08-15T11:21:34.000Z</time>
      </trkpt>
      <trkpt lat="47.80876" lon="-3.53628">
        <ele>36.200000762939</ele>
        <time>2019-08-15T11:21:37.000Z</time>
      </trkpt>
      <trkpt lat="47.80872" lon="-3.5362">
        <ele>36.200000762939</ele>
        <time>2019-08-15T11:21:38.000Z</time>
      </trkpt>
      <trkpt lat="47.80867" lon="-3.53612">
        <ele>36</ele>
        <time>2019-08-15T11:21:39.000Z</time>
      </trkpt>
      <trkpt lat="47.80861" lon="-3.53604">
        <ele>36</ele>
        <time>2019-08-15T11:21:40.000Z</time>
      </trkpt>
      <trkpt lat="47.80858" lon="-3.53597">
        <ele>35.799999237061</ele>
        <time>2019-08-15T11:21:41.000Z</time>
      </trkpt>
      <trkpt lat="47.80853" lon="-3.53583">
        <ele>35.599998474121</ele>
        <time>2019-08-15T11:21:43.000Z</time>
      </trkpt>
      <trkpt lat="47.80848" lon="-3.53576">
        <ele>35.599998474121</ele>
        <time>2019-08-15T11:21:44.000Z</time>
      </trkpt>
      <trkpt lat="47.80845" lon="-3.53569">
        <ele>35.400001525879</ele>
        <time>2019-08-15T11:21:45.000Z</time>
      </trkpt>
      <trkpt lat="47.80838" lon="-3.53554">
        <ele>35</ele>
        <time>2019-08-15T11:21:47.000Z</time>
      </trkpt>
      <trkpt lat="47.8083" lon="-3.53541">
        <ele>34.799999237061</ele>
        <time>2019-08-15T11:21:49.000Z</time>
      </trkpt>
      <trkpt lat="47.80817" lon="-3.53521">
        <ele>34.599998474121</ele>
        <time>2019-08-15T11:21:52.000Z</time>
      </trkpt>
      <trkpt lat="47.80806" lon="-3.53509">
        <ele>34.599998474121</ele>
        <time>2019-08-15T11:21:54.000Z</time>
      </trkpt>
      <trkpt lat="47.80795" lon="-3.53492">
        <ele>34.599998474121</ele>
        <time>2019-08-15T11:21:57.000Z</time>
      </trkpt>
      <trkpt lat="47.80794" lon="-3.53487">
        <ele>34.599998474121</ele>
        <time>2019-08-15T11:21:58.000Z</time>
      </trkpt>
      <trkpt lat="47.80792" lon="-3.53482">
        <ele>34.599998474121</ele>
        <time>2019-08-15T11:21:59.000Z</time>
      </trkpt>
      <trkpt lat="47.80783" lon="-3.5347">
        <ele>34.599998474121</ele>
        <time>2019-08-15T11:22:01.000Z</time>
      </trkpt>
      <trkpt lat="47.80766" lon="-3.53446">
        <ele>34.599998474121</ele>
        <time>2019-08-15T11:22:05.000Z</time>
      </trkpt>
      <trkpt lat="47.80755" lon="-3.53428">
        <ele>34.599998474121</ele>
        <time>2019-08-15T11:22:09.000Z</time>
      </trkpt>
      <trkpt lat="47.80751" lon="-3.53423">
        <ele>34.599998474121</ele>
        <time>2019-08-15T11:22:10.000Z</time>
      </trkpt>
      <trkpt lat="47.80743" lon="-3.53412">
        <ele>34.599998474121</ele>
        <time>2019-08-15T11:22:12.000Z</time>
      </trkpt>
      <trkpt lat="47.80738" lon="-3.53406">
        <ele>34.400001525879</ele>
        <time>2019-08-15T11:22:13.000Z</time>
      </trkpt>
      <trkpt lat="47.8073" lon="-3.53396">
        <ele>34.599998474121</ele>
        <time>2019-08-15T11:22:15.000Z</time>
      </trkpt>
      <trkpt lat="47.80727" lon="-3.53391">
        <ele>34.400001525879</ele>
        <time>2019-08-15T11:22:16.000Z</time>
      </trkpt>
      <trkpt lat="47.80716" lon="-3.53377">
        <ele>34.599998474121</ele>
        <time>2019-08-15T11:22:19.000Z</time>
      </trkpt>
      <trkpt lat="47.80713" lon="-3.53372">
        <ele>34.599998474121</ele>
        <time>2019-08-15T11:22:20.000Z</time>
      </trkpt>
      <trkpt lat="47.80709" lon="-3.53368">
        <ele>34.400001525879</ele>
        <time>2019-08-15T11:22:21.000Z</time>
      </trkpt>
      <trkpt lat="47.80702" lon="-3.53361">
        <ele>34</ele>
        <time>2019-08-15T11:22:23.000Z</time>
      </trkpt>
      <trkpt lat="47.80697" lon="-3.53353">
        <ele>33.599998474121</ele>
        <time>2019-08-15T11:22:25.000Z</time>
      </trkpt>
      <trkpt lat="47.80694" lon="-3.53349">
        <ele>33.599998474121</ele>
        <time>2019-08-15T11:22:26.000Z</time>
      </trkpt>
      <trkpt lat="47.8069" lon="-3.53346">
        <ele>33.200000762939</ele>
        <time>2019-08-15T11:22:27.000Z</time>
      </trkpt>
      <trkpt lat="47.80686" lon="-3.53342">
        <ele>33.200000762939</ele>
        <time>2019-08-15T11:22:28.000Z</time>
      </trkpt>
      <trkpt lat="47.80682" lon="-3.53338">
        <ele>33</ele>
        <time>2019-08-15T11:22:29.000Z</time>
      </trkpt>
      <trkpt lat="47.80679" lon="-3.53333">
        <ele>33</ele>
        <time>2019-08-15T11:22:30.000Z</time>
      </trkpt>
      <trkpt lat="47.80676" lon="-3.53329">
        <ele>32.599998474121</ele>
        <time>2019-08-15T11:22:31.000Z</time>
      </trkpt>
      <trkpt lat="47.80672" lon="-3.53325">
        <ele>32.400001525879</ele>
        <time>2019-08-15T11:22:32.000Z</time>
      </trkpt>
      <trkpt lat="47.80669" lon="-3.5332">
        <ele>32.400001525879</ele>
        <time>2019-08-15T11:22:33.000Z</time>
      </trkpt>
      <trkpt lat="47.80667" lon="-3.53315">
        <ele>32</ele>
        <time>2019-08-15T11:22:34.000Z</time>
      </trkpt>
      <trkpt lat="47.8066" lon="-3.53303">
        <ele>31.39999961853</ele>
        <time>2019-08-15T11:22:36.000Z</time>
      </trkpt>
      <trkpt lat="47.80657" lon="-3.53297">
        <ele>31.200000762939</ele>
        <time>2019-08-15T11:22:37.000Z</time>
      </trkpt>
      <trkpt lat="47.80654" lon="-3.53292">
        <ele>31</ele>
        <time>2019-08-15T11:22:38.000Z</time>
      </trkpt>
      <trkpt lat="47.8065" lon="-3.53287">
        <ele>30.799999237061</ele>
        <time>2019-08-15T11:22:39.000Z</time>
      </trkpt>
      <trkpt lat="47.80645" lon="-3.53277">
        <ele>30.39999961853</ele>
        <time>2019-08-15T11:22:41.000Z</time>
      </trkpt>
      <trkpt lat="47.80643" lon="-3.53273">
        <ele>30.39999961853</ele>
        <time>2019-08-15T11:22:42.000Z</time>
      </trkpt>
      <trkpt lat="47.80642" lon="-3.5327">
        <ele>29.799999237061</ele>
        <time>2019-08-15T11:22:43.000Z</time>
      </trkpt>
      <trkpt lat="47.8064" lon="-3.53266">
        <ele>29.60000038147</ele>
        <time>2019-08-15T11:22:44.000Z</time>
      </trkpt>
      <trkpt lat="47.80637" lon="-3.53261">
        <ele>29.200000762939</ele>
        <time>2019-08-15T11:22:45.000Z</time>
      </trkpt>
      <trkpt lat="47.80631" lon="-3.53249">
        <ele>28.39999961853</ele>
        <time>2019-08-15T11:22:47.000Z</time>
      </trkpt>
      <trkpt lat="47.8063" lon="-3.53243">
        <ele>28</ele>
        <time>2019-08-15T11:22:48.000Z</time>
      </trkpt>
      <trkpt lat="47.80627" lon="-3.53238">
        <ele>28</ele>
        <time>2019-08-15T11:22:49.000Z</time>
      </trkpt>
      <trkpt lat="47.80625" lon="-3.53232">
        <ele>27.799999237061</ele>
        <time>2019-08-15T11:22:50.000Z</time>
      </trkpt>
      <trkpt lat="47.80622" lon="-3.53228">
        <ele>27.60000038147</ele>
        <time>2019-08-15T11:22:51.000Z</time>
      </trkpt>
      <trkpt lat="47.80621" lon="-3.53224">
        <ele>27.200000762939</ele>
        <time>2019-08-15T11:22:52.000Z</time>
      </trkpt>
      <trkpt lat="47.80619" lon="-3.5322">
        <ele>26.799999237061</ele>
        <time>2019-08-15T11:22:53.000Z</time>
      </trkpt>
      <trkpt lat="47.80616" lon="-3.53212">
        <ele>25.60000038147</ele>
        <time>2019-08-15T11:22:55.000Z</time>
      </trkpt>
      <trkpt lat="47.80616" lon="-3.5321">
        <ele>25.39999961853</ele>
        <time>2019-08-15T11:22:56.000Z</time>
      </trkpt>
      <trkpt lat="47.80614" lon="-3.53209">
        <ele>24.39999961853</ele>
        <time>2019-08-15T11:22:57.000Z</time>
      </trkpt>
      <trkpt lat="47.80611" lon="-3.53206">
        <ele>24.200000762939</ele>
        <time>2019-08-15T11:22:58.000Z</time>
      </trkpt>
      <trkpt lat="47.80603" lon="-3.53198">
        <ele>22.799999237061</ele>
        <time>2019-08-15T11:23:01.000Z</time>
      </trkpt>
      <trkpt lat="47.80601" lon="-3.53192">
        <ele>21.799999237061</ele>
        <time>2019-08-15T11:23:03.000Z</time>
      </trkpt>
      <trkpt lat="47.806" lon="-3.53188">
        <ele>21</ele>
        <time>2019-08-15T11:23:04.000Z</time>
      </trkpt>
      <trkpt lat="47.80598" lon="-3.53184">
        <ele>20.60000038147</ele>
        <time>2019-08-15T11:23:05.000Z</time>
      </trkpt>
      <trkpt lat="47.80595" lon="-3.53179">
        <ele>19.799999237061</ele>
        <time>2019-08-15T11:23:07.000Z</time>
      </trkpt>
      <trkpt lat="47.80595" lon="-3.53179">
        <ele>19.200000762939</ele>
        <time>2019-08-15T11:23:08.000Z</time>
      </trkpt>
      <trkpt lat="47.80594" lon="-3.53177">
        <ele>18.799999237061</ele>
        <time>2019-08-15T11:23:10.000Z</time>
      </trkpt>
      <trkpt lat="47.80594" lon="-3.53176">
        <ele>15.60000038147</ele>
        <time>2019-08-15T11:23:18.000Z</time>
      </trkpt>
      <trkpt lat="47.8059" lon="-3.5317">
        <ele>15.39999961853</ele>
        <time>2019-08-15T11:23:22.000Z</time>
      </trkpt>
      <trkpt lat="47.80587" lon="-3.53167">
        <ele>15.199999809265</ele>
        <time>2019-08-15T11:23:24.000Z</time>
      </trkpt>
      <trkpt lat="47.80587" lon="-3.53167">
        <ele>14.39999961853</ele>
        <time>2019-08-15T11:23:33.000Z</time>
      </trkpt>
      <trkpt lat="47.80581" lon="-3.53156">
        <ele>14.199999809265</ele>
        <time>2019-08-15T11:23:37.000Z</time>
      </trkpt>
      <trkpt lat="47.8058" lon="-3.53151">
        <ele>14</ele>
        <time>2019-08-15T11:23:38.000Z</time>
      </trkpt>
      <trkpt lat="47.8058" lon="-3.53146">
        <ele>14</ele>
        <time>2019-08-15T11:23:39.000Z</time>
      </trkpt>
      <trkpt lat="47.80578" lon="-3.53136">
        <ele>13.60000038147</ele>
        <time>2019-08-15T11:23:41.000Z</time>
      </trkpt>
      <trkpt lat="47.80578" lon="-3.53132">
        <ele>13.39999961853</ele>
        <time>2019-08-15T11:23:42.000Z</time>
      </trkpt>
      <trkpt lat="47.80577" lon="-3.53128">
        <ele>13.199999809265</ele>
        <time>2019-08-15T11:23:43.000Z</time>
      </trkpt>
      <trkpt lat="47.80577" lon="-3.53124">
        <ele>13.199999809265</ele>
        <time>2019-08-15T11:23:44.000Z</time>
      </trkpt>
      <trkpt lat="47.80576" lon="-3.53115">
        <ele>13.199999809265</ele>
        <time>2019-08-15T11:23:46.000Z</time>
      </trkpt>
      <trkpt lat="47.80576" lon="-3.53112">
        <ele>13.199999809265</ele>
        <time>2019-08-15T11:23:47.000Z</time>
      </trkpt>
      <trkpt lat="47.80576" lon="-3.53107">
        <ele>13.199999809265</ele>
        <time>2019-08-15T11:23:48.000Z</time>
      </trkpt>
      <trkpt lat="47.80576" lon="-3.53103">
        <ele>13.60000038147</ele>
        <time>2019-08-15T11:23:49.000Z</time>
      </trkpt>
      <trkpt lat="47.80577" lon="-3.53095">
        <ele>14.39999961853</ele>
        <time>2019-08-15T11:23:51.000Z</time>
      </trkpt>
      <trkpt lat="47.80577" lon="-3.53092">
        <ele>14.60000038147</ele>
        <time>2019-08-15T11:23:52.000Z</time>
      </trkpt>
      <trkpt lat="47.80578" lon="-3.53079">
        <ele>15</ele>
        <time>2019-08-15T11:23:56.000Z</time>
      </trkpt>
      <trkpt lat="47.80579" lon="-3.53075">
        <ele>15</ele>
        <time>2019-08-15T11:23:57.000Z</time>
      </trkpt>
      <trkpt lat="47.8058" lon="-3.53071">
        <ele>15</ele>
        <time>2019-08-15T11:23:58.000Z</time>
      </trkpt>
      <trkpt lat="47.80581" lon="-3.53067">
        <ele>15.199999809265</ele>
        <time>2019-08-15T11:23:59.000Z</time>
      </trkpt>
      <trkpt lat="47.80582" lon="-3.53062">
        <ele>15.199999809265</ele>
        <time>2019-08-15T11:24:00.000Z</time>
      </trkpt>
      <trkpt lat="47.80582" lon="-3.53059">
        <ele>15.199999809265</ele>
        <time>2019-08-15T11:24:01.000Z</time>
      </trkpt>
      <trkpt lat="47.80583" lon="-3.53055">
        <ele>15.39999961853</ele>
        <time>2019-08-15T11:24:02.000Z</time>
      </trkpt>
      <trkpt lat="47.80585" lon="-3.53051">
        <ele>15.199999809265</ele>
        <time>2019-08-15T11:24:03.000Z</time>
      </trkpt>
      <trkpt lat="47.80586" lon="-3.53047">
        <ele>15.199999809265</ele>
        <time>2019-08-15T11:24:04.000Z</time>
      </trkpt>
      <trkpt lat="47.80587" lon="-3.53038">
        <ele>15.199999809265</ele>
        <time>2019-08-15T11:24:06.000Z</time>
      </trkpt>
      <trkpt lat="47.80588" lon="-3.53034">
        <ele>15.199999809265</ele>
        <time>2019-08-15T11:24:07.000Z</time>
      </trkpt>
      <trkpt lat="47.80589" lon="-3.5303">
        <ele>15.199999809265</ele>
        <time>2019-08-15T11:24:08.000Z</time>
      </trkpt>
      <trkpt lat="47.80589" lon="-3.53027">
        <ele>15.199999809265</ele>
        <time>2019-08-15T11:24:09.000Z</time>
      </trkpt>
      <trkpt lat="47.80589" lon="-3.53023">
        <ele>15.199999809265</ele>
        <time>2019-08-15T11:24:10.000Z</time>
      </trkpt>
      <trkpt lat="47.80589" lon="-3.53019">
        <ele>14.800000190735</ele>
        <time>2019-08-15T11:24:11.000Z</time>
      </trkpt>
      <trkpt lat="47.80589" lon="-3.53015">
        <ele>14.39999961853</ele>
        <time>2019-08-15T11:24:12.000Z</time>
      </trkpt>
      <trkpt lat="47.80591" lon="-3.53004">
        <ele>14.199999809265</ele>
        <time>2019-08-15T11:24:15.000Z</time>
      </trkpt>
      <trkpt lat="47.8059" lon="-3.53002">
        <ele>14</ele>
        <time>2019-08-15T11:24:16.000Z</time>
      </trkpt>
      <trkpt lat="47.8059" lon="-3.52995">
        <ele>13.60000038147</ele>
        <time>2019-08-15T11:24:18.000Z</time>
      </trkpt>
      <trkpt lat="47.80591" lon="-3.52991">
        <ele>13.39999961853</ele>
        <time>2019-08-15T11:24:19.000Z</time>
      </trkpt>
      <trkpt lat="47.80594" lon="-3.52985">
        <ele>12.800000190735</ele>
        <time>2019-08-15T11:24:21.000Z</time>
      </trkpt>
      <trkpt lat="47.80595" lon="-3.52981">
        <ele>12.800000190735</ele>
        <time>2019-08-15T11:24:22.000Z</time>
      </trkpt>
      <trkpt lat="47.80595" lon="-3.52978">
        <ele>12.60000038147</ele>
        <time>2019-08-15T11:24:23.000Z</time>
      </trkpt>
      <trkpt lat="47.80595" lon="-3.52974">
        <ele>12.199999809265</ele>
        <time>2019-08-15T11:24:24.000Z</time>
      </trkpt>
      <trkpt lat="47.80594" lon="-3.52966">
        <ele>11.199999809265</ele>
        <time>2019-08-15T11:24:26.000Z</time>
      </trkpt>
      <trkpt lat="47.80594" lon="-3.52963">
        <ele>10.800000190735</ele>
        <time>2019-08-15T11:24:27.000Z</time>
      </trkpt>
      <trkpt lat="47.80594" lon="-3.52958">
        <ele>10.39999961853</ele>
        <time>2019-08-15T11:24:28.000Z</time>
      </trkpt>
      <trkpt lat="47.80593" lon="-3.52953">
        <ele>10</ele>
        <time>2019-08-15T11:24:29.000Z</time>
      </trkpt>
      <trkpt lat="47.8059" lon="-3.5294">
        <ele>9.3999996185303</ele>
        <time>2019-08-15T11:24:31.000Z</time>
      </trkpt>
      <trkpt lat="47.80589" lon="-3.52928">
        <ele>9</ele>
        <time>2019-08-15T11:24:33.000Z</time>
      </trkpt>
      <trkpt lat="47.80588" lon="-3.52917">
        <ele>8.3999996185303</ele>
        <time>2019-08-15T11:24:35.000Z</time>
      </trkpt>
      <trkpt lat="47.80588" lon="-3.52912">
        <ele>8.1999998092651</ele>
        <time>2019-08-15T11:24:36.000Z</time>
      </trkpt>
      <trkpt lat="47.80588" lon="-3.52906">
        <ele>8.1999998092651</ele>
        <time>2019-08-15T11:24:37.000Z</time>
      </trkpt>
      <trkpt lat="47.80587" lon="-3.529">
        <ele>8</ele>
        <time>2019-08-15T11:24:38.000Z</time>
      </trkpt>
      <trkpt lat="47.80585" lon="-3.52894">
        <ele>8</ele>
        <time>2019-08-15T11:24:39.000Z</time>
      </trkpt>
      <trkpt lat="47.80584" lon="-3.52887">
        <ele>8</ele>
        <time>2019-08-15T11:24:40.000Z</time>
      </trkpt>
      <trkpt lat="47.80585" lon="-3.52872">
        <ele>7.8000001907349</ele>
        <time>2019-08-15T11:24:42.000Z</time>
      </trkpt>
      <trkpt lat="47.80586" lon="-3.52866">
        <ele>7.5999999046326</ele>
        <time>2019-08-15T11:24:43.000Z</time>
      </trkpt>
      <trkpt lat="47.80588" lon="-3.52857">
        <ele>7.5999999046326</ele>
        <time>2019-08-15T11:24:45.000Z</time>
      </trkpt>
      <trkpt lat="47.80586" lon="-3.52852">
        <ele>7.1999998092651</ele>
        <time>2019-08-15T11:24:46.000Z</time>
      </trkpt>
      <trkpt lat="47.80584" lon="-3.52845">
        <ele>6.8000001907349</ele>
        <time>2019-08-15T11:24:48.000Z</time>
      </trkpt>
      <trkpt lat="47.80585" lon="-3.5284">
        <ele>6.1999998092651</ele>
        <time>2019-08-15T11:24:50.000Z</time>
      </trkpt>
      <trkpt lat="47.80584" lon="-3.52837">
        <ele>5.5999999046326</ele>
        <time>2019-08-15T11:24:51.000Z</time>
      </trkpt>
      <trkpt lat="47.80582" lon="-3.52831">
        <ele>5</ele>
        <time>2019-08-15T11:24:53.000Z</time>
      </trkpt>
      <trkpt lat="47.8058" lon="-3.52829">
        <ele>4.8000001907349</ele>
        <time>2019-08-15T11:24:54.000Z</time>
      </trkpt>
      <trkpt lat="47.80576" lon="-3.52826">
        <ele>4.1999998092651</ele>
        <time>2019-08-15T11:24:56.000Z</time>
      </trkpt>
      <trkpt lat="47.80568" lon="-3.52818">
        <ele>2.7999999523163</ele>
        <time>2019-08-15T11:24:59.000Z</time>
      </trkpt>
      <trkpt lat="47.80568" lon="-3.52815">
        <ele>2.2000000476837</ele>
        <time>2019-08-15T11:25:00.000Z</time>
      </trkpt>
      <trkpt lat="47.80566" lon="-3.52813">
        <ele>2</ele>
        <time>2019-08-15T11:25:01.000Z</time>
      </trkpt>
      <trkpt lat="47.80564" lon="-3.52809">
        <ele>1.7999999523163</ele>
        <time>2019-08-15T11:25:02.000Z</time>
      </trkpt>
      <trkpt lat="47.8056" lon="-3.52805">
        <ele>1.6000000238419</ele>
        <time>2019-08-15T11:25:03.000Z</time>
      </trkpt>
      <trkpt lat="47.80555" lon="-3.52802">
        <ele>1.3999999761581</ele>
        <time>2019-08-15T11:25:04.000Z</time>
      </trkpt>
      <trkpt lat="47.8055" lon="-3.52799">
        <ele>0.80000001192093</ele>
        <time>2019-08-15T11:25:05.000Z</time>
      </trkpt>
      <trkpt lat="47.80544" lon="-3.52798">
        <ele>0.40000000596046</ele>
        <time>2019-08-15T11:25:06.000Z</time>
      </trkpt>
      <trkpt lat="47.80537" lon="-3.52797">
        <ele>-0.40000000596046</ele>
        <time>2019-08-15T11:25:07.000Z</time>
      </trkpt>
      <trkpt lat="47.80531" lon="-3.52796">
        <ele>-1</ele>
        <time>2019-08-15T11:25:08.000Z</time>
      </trkpt>
      <trkpt lat="47.80523" lon="-3.52796">
        <ele>-1.7999999523163</ele>
        <time>2019-08-15T11:25:09.000Z</time>
      </trkpt>
      <trkpt lat="47.80516" lon="-3.52795">
        <ele>-2.2000000476837</ele>
        <time>2019-08-15T11:25:10.000Z</time>
      </trkpt>
      <trkpt lat="47.80509" lon="-3.52793">
        <ele>-3.2000000476837</ele>
        <time>2019-08-15T11:25:11.000Z</time>
      </trkpt>
      <trkpt lat="47.80501" lon="-3.52792">
        <ele>-3.5999999046326</ele>
        <time>2019-08-15T11:25:12.000Z</time>
      </trkpt>
      <trkpt lat="47.80488" lon="-3.5279">
        <ele>-4.4000000953674</ele>
        <time>2019-08-15T11:25:14.000Z</time>
      </trkpt>
      <trkpt lat="47.8048" lon="-3.52788">
        <ele>-4.5999999046326</ele>
        <time>2019-08-15T11:25:15.000Z</time>
      </trkpt>
      <trkpt lat="47.80473" lon="-3.52786">
        <ele>-5</ele>
        <time>2019-08-15T11:25:16.000Z</time>
      </trkpt>
      <trkpt lat="47.80466" lon="-3.52782">
        <ele>-4.8000001907349</ele>
        <time>2019-08-15T11:25:17.000Z</time>
      </trkpt>
      <trkpt lat="47.80453" lon="-3.52777">
        <ele>-5.1999998092651</ele>
        <time>2019-08-15T11:25:19.000Z</time>
      </trkpt>
      <trkpt lat="47.8044" lon="-3.52774">
        <ele>-5.4000000953674</ele>
        <time>2019-08-15T11:25:21.000Z</time>
      </trkpt>
      <trkpt lat="47.80428" lon="-3.52768">
        <ele>-5.4000000953674</ele>
        <time>2019-08-15T11:25:23.000Z</time>
      </trkpt>
      <trkpt lat="47.80412" lon="-3.52761">
        <ele>-5.5999999046326</ele>
        <time>2019-08-15T11:25:26.000Z</time>
      </trkpt>
      <trkpt lat="47.80397" lon="-3.52753">
        <ele>-5.4000000953674</ele>
        <time>2019-08-15T11:25:29.000Z</time>
      </trkpt>
      <trkpt lat="47.80393" lon="-3.52751">
        <ele>-5.5999999046326</ele>
        <time>2019-08-15T11:25:30.000Z</time>
      </trkpt>
      <trkpt lat="47.80385" lon="-3.52746">
        <ele>-5.4000000953674</ele>
        <time>2019-08-15T11:25:32.000Z</time>
      </trkpt>
      <trkpt lat="47.80377" lon="-3.52739">
        <ele>-5.1999998092651</ele>
        <time>2019-08-15T11:25:34.000Z</time>
      </trkpt>
      <trkpt lat="47.80361" lon="-3.5273">
        <ele>-5</ele>
        <time>2019-08-15T11:25:38.000Z</time>
      </trkpt>
      <trkpt lat="47.80357" lon="-3.52727">
        <ele>-4.4000000953674</ele>
        <time>2019-08-15T11:25:39.000Z</time>
      </trkpt>
      <trkpt lat="47.80348" lon="-3.52724">
        <ele>-3.4000000953674</ele>
        <time>2019-08-15T11:25:43.000Z</time>
      </trkpt>
      <trkpt lat="47.80343" lon="-3.52723">
        <ele>-3.2000000476837</ele>
        <time>2019-08-15T11:25:45.000Z</time>
      </trkpt>
      <trkpt lat="47.80337" lon="-3.52723">
        <ele>-2.2000000476837</ele>
        <time>2019-08-15T11:25:49.000Z</time>
      </trkpt>
      <trkpt lat="47.80334" lon="-3.52722">
        <ele>-2</ele>
        <time>2019-08-15T11:25:50.000Z</time>
      </trkpt>
      <trkpt lat="47.80329" lon="-3.52723">
        <ele>-1.2000000476837</ele>
        <time>2019-08-15T11:25:53.000Z</time>
      </trkpt>
      <trkpt lat="47.80325" lon="-3.52724">
        <ele>-0.60000002384186</ele>
        <time>2019-08-15T11:25:55.000Z</time>
      </trkpt>
      <trkpt lat="47.80318" lon="-3.52728">
        <ele>0.40000000596046</ele>
        <time>2019-08-15T11:25:59.000Z</time>
      </trkpt>
      <trkpt lat="47.80317" lon="-3.52729">
        <ele>0.80000001192093</ele>
        <time>2019-08-15T11:26:00.000Z</time>
      </trkpt>
      <trkpt lat="47.80314" lon="-3.52731">
        <ele>1.3999999761581</ele>
        <time>2019-08-15T11:26:02.000Z</time>
      </trkpt>
      <trkpt lat="47.80313" lon="-3.52733">
        <ele>1.6000000238419</ele>
        <time>2019-08-15T11:26:04.000Z</time>
      </trkpt>
      <trkpt lat="47.80307" lon="-3.52738">
        <ele>2.2000000476837</ele>
        <time>2019-08-15T11:26:07.000Z</time>
      </trkpt>
      <trkpt lat="47.80304" lon="-3.52739">
        <ele>2</ele>
        <time>2019-08-15T11:26:08.000Z</time>
      </trkpt>
      <trkpt lat="47.80301" lon="-3.52743">
        <ele>2.2000000476837</ele>
        <time>2019-08-15T11:26:10.000Z</time>
      </trkpt>
      <trkpt lat="47.80291" lon="-3.5275">
        <ele>3.2000000476837</ele>
        <time>2019-08-15T11:26:16.000Z</time>
      </trkpt>
      <trkpt lat="47.80277" lon="-3.52756">
        <ele>3.5999999046326</ele>
        <time>2019-08-15T11:26:20.000Z</time>
      </trkpt>
      <trkpt lat="47.8026" lon="-3.52764">
        <ele>4.1999998092651</ele>
        <time>2019-08-15T11:26:25.000Z</time>
      </trkpt>
      <trkpt lat="47.80255" lon="-3.52766">
        <ele>4.1999998092651</ele>
        <time>2019-08-15T11:26:27.000Z</time>
      </trkpt>
      <trkpt lat="47.80249" lon="-3.52769">
        <ele>4.4000000953674</ele>
        <time>2019-08-15T11:26:29.000Z</time>
      </trkpt>
      <trkpt lat="47.80234" lon="-3.52774">
        <ele>4.8000001907349</ele>
        <time>2019-08-15T11:26:34.000Z</time>
      </trkpt>
      <trkpt lat="47.8023" lon="-3.52776">
        <ele>4.8000001907349</ele>
        <time>2019-08-15T11:26:35.000Z</time>
      </trkpt>
      <trkpt lat="47.80227" lon="-3.52777">
        <ele>5</ele>
        <time>2019-08-15T11:26:36.000Z</time>
      </trkpt>
      <trkpt lat="47.80218" lon="-3.52781">
        <ele>5.4000000953674</ele>
        <time>2019-08-15T11:26:40.000Z</time>
      </trkpt>
      <trkpt lat="47.8021" lon="-3.52792">
        <ele>6</ele>
        <time>2019-08-15T11:26:44.000Z</time>
      </trkpt>
      <trkpt lat="47.80208" lon="-3.52795">
        <ele>6.1999998092651</ele>
        <time>2019-08-15T11:26:45.000Z</time>
      </trkpt>
      <trkpt lat="47.80196" lon="-3.52802">
        <ele>6.5999999046326</ele>
        <time>2019-08-15T11:26:48.000Z</time>
      </trkpt>
      <trkpt lat="47.8019" lon="-3.52808">
        <ele>7</ele>
        <time>2019-08-15T11:26:50.000Z</time>
      </trkpt>
      <trkpt lat="47.80189" lon="-3.52811">
        <ele>7</ele>
        <time>2019-08-15T11:26:51.000Z</time>
      </trkpt>
      <trkpt lat="47.80184" lon="-3.52816">
        <ele>7.4000000953674</ele>
        <time>2019-08-15T11:26:53.000Z</time>
      </trkpt>
      <trkpt lat="47.80183" lon="-3.52818">
        <ele>7.5999999046326</ele>
        <time>2019-08-15T11:26:54.000Z</time>
      </trkpt>
      <trkpt lat="47.80179" lon="-3.52826">
        <ele>8.3999996185303</ele>
        <time>2019-08-15T11:26:58.000Z</time>
      </trkpt>
      <trkpt lat="47.80178" lon="-3.52828">
        <ele>8.3999996185303</ele>
        <time>2019-08-15T11:26:59.000Z</time>
      </trkpt>
      <trkpt lat="47.80174" lon="-3.52833">
        <ele>8.8000001907349</ele>
        <time>2019-08-15T11:27:02.000Z</time>
      </trkpt>
      <trkpt lat="47.8017" lon="-3.52839">
        <ele>9.3999996185303</ele>
        <time>2019-08-15T11:27:04.000Z</time>
      </trkpt>
      <trkpt lat="47.80166" lon="-3.52845">
        <ele>10.199999809265</ele>
        <time>2019-08-15T11:27:06.000Z</time>
      </trkpt>
      <trkpt lat="47.80163" lon="-3.52848">
        <ele>10.199999809265</ele>
        <time>2019-08-15T11:27:07.000Z</time>
      </trkpt>
      <trkpt lat="47.80159" lon="-3.52853">
        <ele>11</ele>
        <time>2019-08-15T11:27:09.000Z</time>
      </trkpt>
      <trkpt lat="47.80159" lon="-3.52854">
        <ele>11</ele>
        <time>2019-08-15T11:27:10.000Z</time>
      </trkpt>
      <trkpt lat="47.80156" lon="-3.5286">
        <ele>12</ele>
        <time>2019-08-15T11:27:12.000Z</time>
      </trkpt>
      <trkpt lat="47.80149" lon="-3.52864">
        <ele>12.199999809265</ele>
        <time>2019-08-15T11:27:14.000Z</time>
      </trkpt>
      <trkpt lat="47.80145" lon="-3.52869">
        <ele>13</ele>
        <time>2019-08-15T11:27:16.000Z</time>
      </trkpt>
      <trkpt lat="47.8014" lon="-3.52874">
        <ele>14</ele>
        <time>2019-08-15T11:27:19.000Z</time>
      </trkpt>
      <trkpt lat="47.80134" lon="-3.52884">
        <ele>15.199999809265</ele>
        <time>2019-08-15T11:27:23.000Z</time>
      </trkpt>
      <trkpt lat="47.80133" lon="-3.5289">
        <ele>15.60000038147</ele>
        <time>2019-08-15T11:27:25.000Z</time>
      </trkpt>
      <trkpt lat="47.80134" lon="-3.52893">
        <ele>15.800000190735</ele>
        <time>2019-08-15T11:27:26.000Z</time>
      </trkpt>
      <trkpt lat="47.80133" lon="-3.52896">
        <ele>16</ele>
        <time>2019-08-15T11:27:27.000Z</time>
      </trkpt>
      <trkpt lat="47.80129" lon="-3.52902">
        <ele>16.799999237061</ele>
        <time>2019-08-15T11:27:30.000Z</time>
      </trkpt>
      <trkpt lat="47.80126" lon="-3.52906">
        <ele>17.799999237061</ele>
        <time>2019-08-15T11:27:32.000Z</time>
      </trkpt>
      <trkpt lat="47.80122" lon="-3.52914">
        <ele>18.39999961853</ele>
        <time>2019-08-15T11:27:35.000Z</time>
      </trkpt>
      <trkpt lat="47.80119" lon="-3.52919">
        <ele>18.799999237061</ele>
        <time>2019-08-15T11:27:37.000Z</time>
      </trkpt>
      <trkpt lat="47.80117" lon="-3.52923">
        <ele>19.200000762939</ele>
        <time>2019-08-15T11:27:38.000Z</time>
      </trkpt>
      <trkpt lat="47.80113" lon="-3.5293">
        <ele>19.39999961853</ele>
        <time>2019-08-15T11:27:40.000Z</time>
      </trkpt>
      <trkpt lat="47.80109" lon="-3.52938">
        <ele>20</ele>
        <time>2019-08-15T11:27:42.000Z</time>
      </trkpt>
      <trkpt lat="47.80103" lon="-3.5295">
        <ele>20.799999237061</ele>
        <time>2019-08-15T11:27:46.000Z</time>
      </trkpt>
      <trkpt lat="47.80102" lon="-3.52952">
        <ele>21</ele>
        <time>2019-08-15T11:27:47.000Z</time>
      </trkpt>
      <trkpt lat="47.80101" lon="-3.52955">
        <ele>21.39999961853</ele>
        <time>2019-08-15T11:27:48.000Z</time>
      </trkpt>
      <trkpt lat="47.80099" lon="-3.52962">
        <ele>21.799999237061</ele>
        <time>2019-08-15T11:27:50.000Z</time>
      </trkpt>
      <trkpt lat="47.80095" lon="-3.5297">
        <ele>22.200000762939</ele>
        <time>2019-08-15T11:27:53.000Z</time>
      </trkpt>
      <trkpt lat="47.80093" lon="-3.52977">
        <ele>22.799999237061</ele>
        <time>2019-08-15T11:27:55.000Z</time>
      </trkpt>
      <trkpt lat="47.80092" lon="-3.5298">
        <ele>23</ele>
        <time>2019-08-15T11:27:56.000Z</time>
      </trkpt>
      <trkpt lat="47.80091" lon="-3.52985">
        <ele>23.39999961853</ele>
        <time>2019-08-15T11:27:58.000Z</time>
      </trkpt>
      <trkpt lat="47.80088" lon="-3.52995">
        <ele>24.39999961853</ele>
        <time>2019-08-15T11:28:01.000Z</time>
      </trkpt>
      <trkpt lat="47.80083" lon="-3.53">
        <ele>25</ele>
        <time>2019-08-15T11:28:03.000Z</time>
      </trkpt>
      <trkpt lat="47.80082" lon="-3.53002">
        <ele>25.200000762939</ele>
        <time>2019-08-15T11:28:04.000Z</time>
      </trkpt>
      <trkpt lat="47.80081" lon="-3.53004">
        <ele>25.39999961853</ele>
        <time>2019-08-15T11:28:05.000Z</time>
      </trkpt>
      <trkpt lat="47.80079" lon="-3.53008">
        <ele>25.39999961853</ele>
        <time>2019-08-15T11:28:07.000Z</time>
      </trkpt>
      <trkpt lat="47.80076" lon="-3.53007">
        <ele>26</ele>
        <time>2019-08-15T11:28:09.000Z</time>
      </trkpt>
      <trkpt lat="47.80073" lon="-3.52998">
        <ele>26.60000038147</ele>
        <time>2019-08-15T11:28:13.000Z</time>
      </trkpt>
      <trkpt lat="47.80072" lon="-3.52996">
        <ele>26.60000038147</ele>
        <time>2019-08-15T11:28:14.000Z</time>
      </trkpt>
      <trkpt lat="47.80069" lon="-3.5298">
        <ele>27.200000762939</ele>
        <time>2019-08-15T11:28:20.000Z</time>
      </trkpt>
      <trkpt lat="47.80069" lon="-3.52977">
        <ele>27.200000762939</ele>
        <time>2019-08-15T11:28:21.000Z</time>
      </trkpt>
      <trkpt lat="47.80069" lon="-3.52973">
        <ele>27.200000762939</ele>
        <time>2019-08-15T11:28:22.000Z</time>
      </trkpt>
      <trkpt lat="47.80071" lon="-3.52965">
        <ele>27.60000038147</ele>
        <time>2019-08-15T11:28:24.000Z</time>
      </trkpt>
      <trkpt lat="47.80072" lon="-3.5296">
        <ele>27.39999961853</ele>
        <time>2019-08-15T11:28:25.000Z</time>
      </trkpt>
      <trkpt lat="47.80072" lon="-3.52954">
        <ele>27.60000038147</ele>
        <time>2019-08-15T11:28:26.000Z</time>
      </trkpt>
      <trkpt lat="47.80074" lon="-3.52948">
        <ele>27.60000038147</ele>
        <time>2019-08-15T11:28:27.000Z</time>
      </trkpt>
      <trkpt lat="47.80076" lon="-3.52942">
        <ele>27.39999961853</ele>
        <time>2019-08-15T11:28:28.000Z</time>
      </trkpt>
      <trkpt lat="47.80079" lon="-3.5293">
        <ele>27.200000762939</ele>
        <time>2019-08-15T11:28:30.000Z</time>
      </trkpt>
      <trkpt lat="47.80087" lon="-3.52911">
        <ele>26.200000762939</ele>
        <time>2019-08-15T11:28:35.000Z</time>
      </trkpt>
      <trkpt lat="47.80087" lon="-3.52911">
        <ele>26</ele>
        <time>2019-08-15T11:28:36.000Z</time>
      </trkpt>
    </trkseg>
  </trk>
</gpx>